<?xml version="1.0" encoding="UTF-8" standalone="no" ?>
<gpx xmlns="http://www.topografix.com/GPX/1/1" xmlns:xsi="http://www.w3.org/2001/XMLSchema-instance" xsi:schemaLocation="http://www.topografix.com/GPX/1/1 http://www.topografix.com/GPX/1/1/gpx.xsd" version="1.1" creator="VisuGPX - https://www.visugpx.com">
  <metadata>
    <name>PIC DE CABAILLE par l'ETANG DU MIRABAIL en boucle</name>
    <desc><![CDATA[Trace AlpineQuest 17/09/2022 09:31:57]]></desc>
  </metadata>
  <trk>
    <name><![CDATA[PIC DE CABAILLE par l'ETANG DU MIRABAIL en boucle_1]]></name>
    <trkseg>
      <trkpt lat="42.64942" lon="1.70403">
        <ele>1701.588</ele>
        <time>2022-09-17T07:31:57Z</time>
      </trkpt>
      <trkpt lat="42.64934" lon="1.70395">
        <ele>1696.53</ele>
        <time>2022-09-17T07:32:00Z</time>
      </trkpt>
      <trkpt lat="42.64934" lon="1.70391">
        <ele>1691.295</ele>
        <time>2022-09-17T07:32:02Z</time>
      </trkpt>
      <trkpt lat="42.64932" lon="1.70387">
        <ele>1695.785</ele>
        <time>2022-09-17T07:32:04Z</time>
      </trkpt>
      <trkpt lat="42.64932" lon="1.70386">
        <ele>1695.202</ele>
        <time>2022-09-17T07:32:06Z</time>
      </trkpt>
      <trkpt lat="42.6493" lon="1.70385">
        <ele>1700.65</ele>
        <time>2022-09-17T07:32:08Z</time>
      </trkpt>
      <trkpt lat="42.6493" lon="1.70385">
        <ele>1704.671</ele>
        <time>2022-09-17T07:32:10Z</time>
      </trkpt>
      <trkpt lat="42.6493" lon="1.70384">
        <ele>1705.6</ele>
        <time>2022-09-17T07:32:12Z</time>
      </trkpt>
      <trkpt lat="42.6493" lon="1.70385">
        <ele>1706.346</ele>
        <time>2022-09-17T07:32:14Z</time>
      </trkpt>
      <trkpt lat="42.6493" lon="1.70385">
        <ele>1705.552</ele>
        <time>2022-09-17T07:32:16Z</time>
      </trkpt>
      <trkpt lat="42.6493" lon="1.70385">
        <ele>1704.983</ele>
        <time>2022-09-17T07:32:18Z</time>
      </trkpt>
      <trkpt lat="42.6493" lon="1.70385">
        <ele>1705.336</ele>
        <time>2022-09-17T07:32:20Z</time>
      </trkpt>
      <trkpt lat="42.64931" lon="1.70385">
        <ele>1705.041</ele>
        <time>2022-09-17T07:32:22Z</time>
      </trkpt>
      <trkpt lat="42.64931" lon="1.70385">
        <ele>1704.924</ele>
        <time>2022-09-17T07:32:24Z</time>
      </trkpt>
      <trkpt lat="42.6493" lon="1.70384">
        <ele>1704.324</ele>
        <time>2022-09-17T07:32:26Z</time>
      </trkpt>
      <trkpt lat="42.6493" lon="1.70384">
        <ele>1704.061</ele>
        <time>2022-09-17T07:32:28Z</time>
      </trkpt>
      <trkpt lat="42.6493" lon="1.70384">
        <ele>1704.097</ele>
        <time>2022-09-17T07:32:30Z</time>
      </trkpt>
      <trkpt lat="42.6493" lon="1.70384">
        <ele>1703.727</ele>
        <time>2022-09-17T07:32:32Z</time>
      </trkpt>
      <trkpt lat="42.6493" lon="1.70384">
        <ele>1704.125</ele>
        <time>2022-09-17T07:32:34Z</time>
      </trkpt>
      <trkpt lat="42.64931" lon="1.70383">
        <ele>1705.514</ele>
        <time>2022-09-17T07:32:36Z</time>
      </trkpt>
      <trkpt lat="42.64931" lon="1.70383">
        <ele>1705.522</ele>
        <time>2022-09-17T07:32:38Z</time>
      </trkpt>
      <trkpt lat="42.64931" lon="1.70384">
        <ele>1705.926</ele>
        <time>2022-09-17T07:32:40Z</time>
      </trkpt>
      <trkpt lat="42.64931" lon="1.70384">
        <ele>1705.965</ele>
        <time>2022-09-17T07:32:42Z</time>
      </trkpt>
      <trkpt lat="42.64931" lon="1.70383">
        <ele>1705.667</ele>
        <time>2022-09-17T07:32:44Z</time>
      </trkpt>
      <trkpt lat="42.6493" lon="1.70383">
        <ele>1705.564</ele>
        <time>2022-09-17T07:32:46Z</time>
      </trkpt>
      <trkpt lat="42.6493" lon="1.70382">
        <ele>1705.708</ele>
        <time>2022-09-17T07:32:48Z</time>
      </trkpt>
      <trkpt lat="42.64931" lon="1.70381">
        <ele>1705.478</ele>
        <time>2022-09-17T07:32:50Z</time>
      </trkpt>
      <trkpt lat="42.64931" lon="1.70379">
        <ele>1705.527</ele>
        <time>2022-09-17T07:32:52Z</time>
      </trkpt>
      <trkpt lat="42.6493" lon="1.70379">
        <ele>1706.106</ele>
        <time>2022-09-17T07:32:54Z</time>
      </trkpt>
      <trkpt lat="42.6493" lon="1.70378">
        <ele>1706.11</ele>
        <time>2022-09-17T07:32:56Z</time>
      </trkpt>
      <trkpt lat="42.64929" lon="1.70378">
        <ele>1706.469</ele>
        <time>2022-09-17T07:32:58Z</time>
      </trkpt>
      <trkpt lat="42.64927" lon="1.70377">
        <ele>1705.466</ele>
        <time>2022-09-17T07:33:00Z</time>
      </trkpt>
      <trkpt lat="42.64925" lon="1.70376">
        <ele>1705.277</ele>
        <time>2022-09-17T07:33:02Z</time>
      </trkpt>
      <trkpt lat="42.64923" lon="1.70375">
        <ele>1703.88</ele>
        <time>2022-09-17T07:33:04Z</time>
      </trkpt>
      <trkpt lat="42.64921" lon="1.70374">
        <ele>1702.954</ele>
        <time>2022-09-17T07:33:06Z</time>
      </trkpt>
      <trkpt lat="42.64919" lon="1.70373">
        <ele>1702.521</ele>
        <time>2022-09-17T07:33:08Z</time>
      </trkpt>
      <trkpt lat="42.64917" lon="1.70372">
        <ele>1702.436</ele>
        <time>2022-09-17T07:33:10Z</time>
      </trkpt>
      <trkpt lat="42.64914" lon="1.70371">
        <ele>1702.225</ele>
        <time>2022-09-17T07:33:12Z</time>
      </trkpt>
      <trkpt lat="42.64912" lon="1.7037">
        <ele>1701.894</ele>
        <time>2022-09-17T07:33:14Z</time>
      </trkpt>
      <trkpt lat="42.64911" lon="1.70369">
        <ele>1702.278</ele>
        <time>2022-09-17T07:33:16Z</time>
      </trkpt>
      <trkpt lat="42.64909" lon="1.70367">
        <ele>1702.971</ele>
        <time>2022-09-17T07:33:18Z</time>
      </trkpt>
      <trkpt lat="42.64908" lon="1.70366">
        <ele>1703.13</ele>
        <time>2022-09-17T07:33:20Z</time>
      </trkpt>
      <trkpt lat="42.64907" lon="1.70365">
        <ele>1702.63</ele>
        <time>2022-09-17T07:33:22Z</time>
      </trkpt>
      <trkpt lat="42.64905" lon="1.70365">
        <ele>1701.673</ele>
        <time>2022-09-17T07:33:24Z</time>
      </trkpt>
      <trkpt lat="42.64905" lon="1.70363">
        <ele>1702.667</ele>
        <time>2022-09-17T07:33:26Z</time>
      </trkpt>
      <trkpt lat="42.64904" lon="1.7036">
        <ele>1701.584</ele>
        <time>2022-09-17T07:33:28Z</time>
      </trkpt>
      <trkpt lat="42.64906" lon="1.70358">
        <ele>1700.967</ele>
        <time>2022-09-17T07:33:30Z</time>
      </trkpt>
      <trkpt lat="42.64907" lon="1.70356">
        <ele>1700.731</ele>
        <time>2022-09-17T07:33:32Z</time>
      </trkpt>
      <trkpt lat="42.64909" lon="1.70355">
        <ele>1700.148</ele>
        <time>2022-09-17T07:33:34Z</time>
      </trkpt>
      <trkpt lat="42.64911" lon="1.70355">
        <ele>1699.867</ele>
        <time>2022-09-17T07:33:36Z</time>
      </trkpt>
      <trkpt lat="42.64914" lon="1.70354">
        <ele>1699.543</ele>
        <time>2022-09-17T07:33:38Z</time>
      </trkpt>
      <trkpt lat="42.64916" lon="1.70354">
        <ele>1699.46</ele>
        <time>2022-09-17T07:33:40Z</time>
      </trkpt>
      <trkpt lat="42.64918" lon="1.70354">
        <ele>1698.644</ele>
        <time>2022-09-17T07:33:42Z</time>
      </trkpt>
      <trkpt lat="42.6492" lon="1.70353">
        <ele>1697.945</ele>
        <time>2022-09-17T07:33:44Z</time>
      </trkpt>
      <trkpt lat="42.64922" lon="1.70353">
        <ele>1697.673</ele>
        <time>2022-09-17T07:33:46Z</time>
      </trkpt>
      <trkpt lat="42.64924" lon="1.70352">
        <ele>1697.538</ele>
        <time>2022-09-17T07:33:48Z</time>
      </trkpt>
      <trkpt lat="42.64926" lon="1.70352">
        <ele>1697.263</ele>
        <time>2022-09-17T07:33:50Z</time>
      </trkpt>
      <trkpt lat="42.64928" lon="1.70351">
        <ele>1696.782</ele>
        <time>2022-09-17T07:33:52Z</time>
      </trkpt>
      <trkpt lat="42.6493" lon="1.7035">
        <ele>1695.598</ele>
        <time>2022-09-17T07:33:54Z</time>
      </trkpt>
      <trkpt lat="42.64931" lon="1.70348">
        <ele>1695.34</ele>
        <time>2022-09-17T07:33:56Z</time>
      </trkpt>
      <trkpt lat="42.64933" lon="1.70346">
        <ele>1696.079</ele>
        <time>2022-09-17T07:33:58Z</time>
      </trkpt>
      <trkpt lat="42.64934" lon="1.70344">
        <ele>1696.335</ele>
        <time>2022-09-17T07:34:00Z</time>
      </trkpt>
      <trkpt lat="42.64936" lon="1.70341">
        <ele>1696.357</ele>
        <time>2022-09-17T07:34:02Z</time>
      </trkpt>
      <trkpt lat="42.64937" lon="1.70339">
        <ele>1696.69</ele>
        <time>2022-09-17T07:34:04Z</time>
      </trkpt>
      <trkpt lat="42.64938" lon="1.70337">
        <ele>1695.526</ele>
        <time>2022-09-17T07:34:06Z</time>
      </trkpt>
      <trkpt lat="42.6494" lon="1.70335">
        <ele>1694.804</ele>
        <time>2022-09-17T07:34:08Z</time>
      </trkpt>
      <trkpt lat="42.64941" lon="1.70334">
        <ele>1695.755</ele>
        <time>2022-09-17T07:34:10Z</time>
      </trkpt>
      <trkpt lat="42.64943" lon="1.70332">
        <ele>1695.508</ele>
        <time>2022-09-17T07:34:12Z</time>
      </trkpt>
      <trkpt lat="42.64943" lon="1.7033">
        <ele>1695.313</ele>
        <time>2022-09-17T07:34:14Z</time>
      </trkpt>
      <trkpt lat="42.64944" lon="1.70328">
        <ele>1694.692</ele>
        <time>2022-09-17T07:34:16Z</time>
      </trkpt>
      <trkpt lat="42.64945" lon="1.70327">
        <ele>1694.478</ele>
        <time>2022-09-17T07:34:18Z</time>
      </trkpt>
      <trkpt lat="42.64945" lon="1.70325">
        <ele>1694.268</ele>
        <time>2022-09-17T07:34:20Z</time>
      </trkpt>
      <trkpt lat="42.64946" lon="1.70324">
        <ele>1694.274</ele>
        <time>2022-09-17T07:34:22Z</time>
      </trkpt>
      <trkpt lat="42.64947" lon="1.70321">
        <ele>1693.926</ele>
        <time>2022-09-17T07:34:24Z</time>
      </trkpt>
      <trkpt lat="42.64948" lon="1.70319">
        <ele>1694.488</ele>
        <time>2022-09-17T07:34:26Z</time>
      </trkpt>
      <trkpt lat="42.64949" lon="1.70316">
        <ele>1693.95</ele>
        <time>2022-09-17T07:34:28Z</time>
      </trkpt>
      <trkpt lat="42.6495" lon="1.70314">
        <ele>1693.251</ele>
        <time>2022-09-17T07:34:30Z</time>
      </trkpt>
      <trkpt lat="42.64952" lon="1.70312">
        <ele>1693.426</ele>
        <time>2022-09-17T07:34:32Z</time>
      </trkpt>
      <trkpt lat="42.64953" lon="1.7031">
        <ele>1693.875</ele>
        <time>2022-09-17T07:34:34Z</time>
      </trkpt>
      <trkpt lat="42.64953" lon="1.70308">
        <ele>1694.781</ele>
        <time>2022-09-17T07:34:36Z</time>
      </trkpt>
      <trkpt lat="42.64954" lon="1.70306">
        <ele>1694.554</ele>
        <time>2022-09-17T07:34:38Z</time>
      </trkpt>
      <trkpt lat="42.64954" lon="1.70303">
        <ele>1694.202</ele>
        <time>2022-09-17T07:34:40Z</time>
      </trkpt>
      <trkpt lat="42.64955" lon="1.703">
        <ele>1694.742</ele>
        <time>2022-09-17T07:34:42Z</time>
      </trkpt>
      <trkpt lat="42.64955" lon="1.70297">
        <ele>1695.032</ele>
        <time>2022-09-17T07:34:44Z</time>
      </trkpt>
      <trkpt lat="42.64956" lon="1.70295">
        <ele>1695.708</ele>
        <time>2022-09-17T07:34:46Z</time>
      </trkpt>
      <trkpt lat="42.64955" lon="1.70293">
        <ele>1695.728</ele>
        <time>2022-09-17T07:34:48Z</time>
      </trkpt>
      <trkpt lat="42.64953" lon="1.70291">
        <ele>1695.921</ele>
        <time>2022-09-17T07:34:50Z</time>
      </trkpt>
      <trkpt lat="42.64952" lon="1.7029">
        <ele>1694.776</ele>
        <time>2022-09-17T07:34:52Z</time>
      </trkpt>
      <trkpt lat="42.6495" lon="1.70288">
        <ele>1693.962</ele>
        <time>2022-09-17T07:34:54Z</time>
      </trkpt>
      <trkpt lat="42.64948" lon="1.70286">
        <ele>1693.262</ele>
        <time>2022-09-17T07:34:56Z</time>
      </trkpt>
      <trkpt lat="42.64947" lon="1.70284">
        <ele>1693.161</ele>
        <time>2022-09-17T07:34:58Z</time>
      </trkpt>
      <trkpt lat="42.64945" lon="1.70282">
        <ele>1693.193</ele>
        <time>2022-09-17T07:35:00Z</time>
      </trkpt>
      <trkpt lat="42.64945" lon="1.7028">
        <ele>1693.077</ele>
        <time>2022-09-17T07:35:02Z</time>
      </trkpt>
      <trkpt lat="42.64944" lon="1.70279">
        <ele>1693.315</ele>
        <time>2022-09-17T07:35:04Z</time>
      </trkpt>
      <trkpt lat="42.64943" lon="1.70277">
        <ele>1693.715</ele>
        <time>2022-09-17T07:35:06Z</time>
      </trkpt>
      <trkpt lat="42.64942" lon="1.70276">
        <ele>1693.688</ele>
        <time>2022-09-17T07:35:08Z</time>
      </trkpt>
      <trkpt lat="42.6494" lon="1.70274">
        <ele>1694.14</ele>
        <time>2022-09-17T07:35:10Z</time>
      </trkpt>
      <trkpt lat="42.64939" lon="1.70273">
        <ele>1694.099</ele>
        <time>2022-09-17T07:35:12Z</time>
      </trkpt>
      <trkpt lat="42.64939" lon="1.70271">
        <ele>1693.89</ele>
        <time>2022-09-17T07:35:14Z</time>
      </trkpt>
      <trkpt lat="42.64937" lon="1.7027">
        <ele>1693.461</ele>
        <time>2022-09-17T07:35:16Z</time>
      </trkpt>
      <trkpt lat="42.64936" lon="1.70269">
        <ele>1694.298</ele>
        <time>2022-09-17T07:35:18Z</time>
      </trkpt>
      <trkpt lat="42.64934" lon="1.70269">
        <ele>1694.107</ele>
        <time>2022-09-17T07:35:20Z</time>
      </trkpt>
      <trkpt lat="42.64933" lon="1.70268">
        <ele>1695.803</ele>
        <time>2022-09-17T07:35:22Z</time>
      </trkpt>
      <trkpt lat="42.64932" lon="1.70269">
        <ele>1695.91</ele>
        <time>2022-09-17T07:35:24Z</time>
      </trkpt>
      <trkpt lat="42.6493" lon="1.70269">
        <ele>1695.37</ele>
        <time>2022-09-17T07:35:26Z</time>
      </trkpt>
      <trkpt lat="42.64928" lon="1.70268">
        <ele>1694.482</ele>
        <time>2022-09-17T07:35:28Z</time>
      </trkpt>
      <trkpt lat="42.64927" lon="1.70267">
        <ele>1693.413</ele>
        <time>2022-09-17T07:35:30Z</time>
      </trkpt>
      <trkpt lat="42.64925" lon="1.70265">
        <ele>1692.747</ele>
        <time>2022-09-17T07:35:32Z</time>
      </trkpt>
      <trkpt lat="42.64923" lon="1.70263">
        <ele>1692.299</ele>
        <time>2022-09-17T07:35:34Z</time>
      </trkpt>
      <trkpt lat="42.64922" lon="1.7026">
        <ele>1692.184</ele>
        <time>2022-09-17T07:35:36Z</time>
      </trkpt>
      <trkpt lat="42.6492" lon="1.70259">
        <ele>1692.013</ele>
        <time>2022-09-17T07:35:38Z</time>
      </trkpt>
      <trkpt lat="42.64918" lon="1.70257">
        <ele>1692.543</ele>
        <time>2022-09-17T07:35:40Z</time>
      </trkpt>
      <trkpt lat="42.64917" lon="1.70255">
        <ele>1692.578</ele>
        <time>2022-09-17T07:35:42Z</time>
      </trkpt>
      <trkpt lat="42.64915" lon="1.70253">
        <ele>1691.804</ele>
        <time>2022-09-17T07:35:44Z</time>
      </trkpt>
      <trkpt lat="42.64913" lon="1.70251">
        <ele>1691.096</ele>
        <time>2022-09-17T07:35:46Z</time>
      </trkpt>
      <trkpt lat="42.64912" lon="1.7025">
        <ele>1690.903</ele>
        <time>2022-09-17T07:35:48Z</time>
      </trkpt>
      <trkpt lat="42.6491" lon="1.70248">
        <ele>1690.501</ele>
        <time>2022-09-17T07:35:50Z</time>
      </trkpt>
      <trkpt lat="42.64908" lon="1.70246">
        <ele>1690.052</ele>
        <time>2022-09-17T07:35:52Z</time>
      </trkpt>
      <trkpt lat="42.64907" lon="1.70244">
        <ele>1689.591</ele>
        <time>2022-09-17T07:35:54Z</time>
      </trkpt>
      <trkpt lat="42.64906" lon="1.70241">
        <ele>1689.529</ele>
        <time>2022-09-17T07:35:56Z</time>
      </trkpt>
      <trkpt lat="42.64905" lon="1.70239">
        <ele>1690.886</ele>
        <time>2022-09-17T07:35:58Z</time>
      </trkpt>
      <trkpt lat="42.64903" lon="1.70236">
        <ele>1691.848</ele>
        <time>2022-09-17T07:36:00Z</time>
      </trkpt>
      <trkpt lat="42.64902" lon="1.70233">
        <ele>1693.197</ele>
        <time>2022-09-17T07:36:02Z</time>
      </trkpt>
      <trkpt lat="42.649" lon="1.7023">
        <ele>1694.38</ele>
        <time>2022-09-17T07:36:04Z</time>
      </trkpt>
      <trkpt lat="42.64898" lon="1.70228">
        <ele>1695.025</ele>
        <time>2022-09-17T07:36:06Z</time>
      </trkpt>
      <trkpt lat="42.64897" lon="1.70225">
        <ele>1695.1</ele>
        <time>2022-09-17T07:36:08Z</time>
      </trkpt>
      <trkpt lat="42.64896" lon="1.70223">
        <ele>1694.931</ele>
        <time>2022-09-17T07:36:10Z</time>
      </trkpt>
      <trkpt lat="42.64894" lon="1.7022">
        <ele>1695.472</ele>
        <time>2022-09-17T07:36:12Z</time>
      </trkpt>
      <trkpt lat="42.64892" lon="1.70218">
        <ele>1695.882</ele>
        <time>2022-09-17T07:36:14Z</time>
      </trkpt>
      <trkpt lat="42.64891" lon="1.70215">
        <ele>1694.179</ele>
        <time>2022-09-17T07:36:16Z</time>
      </trkpt>
      <trkpt lat="42.6489" lon="1.70213">
        <ele>1694.807</ele>
        <time>2022-09-17T07:36:18Z</time>
      </trkpt>
      <trkpt lat="42.64888" lon="1.7021">
        <ele>1696.284</ele>
        <time>2022-09-17T07:36:20Z</time>
      </trkpt>
      <trkpt lat="42.64886" lon="1.70208">
        <ele>1695.598</ele>
        <time>2022-09-17T07:36:22Z</time>
      </trkpt>
      <trkpt lat="42.64884" lon="1.70205">
        <ele>1695.953</ele>
        <time>2022-09-17T07:36:24Z</time>
      </trkpt>
      <trkpt lat="42.64882" lon="1.70202">
        <ele>1694.968</ele>
        <time>2022-09-17T07:36:26Z</time>
      </trkpt>
      <trkpt lat="42.64881" lon="1.702">
        <ele>1694.972</ele>
        <time>2022-09-17T07:36:28Z</time>
      </trkpt>
      <trkpt lat="42.6488" lon="1.70197">
        <ele>1695.964</ele>
        <time>2022-09-17T07:36:30Z</time>
      </trkpt>
      <trkpt lat="42.64877" lon="1.70195">
        <ele>1696.474</ele>
        <time>2022-09-17T07:36:32Z</time>
      </trkpt>
      <trkpt lat="42.64875" lon="1.70192">
        <ele>1696.952</ele>
        <time>2022-09-17T07:36:34Z</time>
      </trkpt>
      <trkpt lat="42.64874" lon="1.70189">
        <ele>1696.976</ele>
        <time>2022-09-17T07:36:36Z</time>
      </trkpt>
      <trkpt lat="42.64872" lon="1.70187">
        <ele>1697.078</ele>
        <time>2022-09-17T07:36:38Z</time>
      </trkpt>
      <trkpt lat="42.64871" lon="1.70184">
        <ele>1697.224</ele>
        <time>2022-09-17T07:36:40Z</time>
      </trkpt>
      <trkpt lat="42.6487" lon="1.70181">
        <ele>1697.758</ele>
        <time>2022-09-17T07:36:42Z</time>
      </trkpt>
      <trkpt lat="42.64869" lon="1.70179">
        <ele>1696.895</ele>
        <time>2022-09-17T07:36:44Z</time>
      </trkpt>
      <trkpt lat="42.64868" lon="1.70176">
        <ele>1698.43</ele>
        <time>2022-09-17T07:36:46Z</time>
      </trkpt>
      <trkpt lat="42.64867" lon="1.70174">
        <ele>1699.066</ele>
        <time>2022-09-17T07:36:48Z</time>
      </trkpt>
      <trkpt lat="42.64866" lon="1.70171">
        <ele>1699.19</ele>
        <time>2022-09-17T07:36:50Z</time>
      </trkpt>
      <trkpt lat="42.64865" lon="1.70168">
        <ele>1699.44</ele>
        <time>2022-09-17T07:36:52Z</time>
      </trkpt>
      <trkpt lat="42.64865" lon="1.70166">
        <ele>1699.481</ele>
        <time>2022-09-17T07:36:54Z</time>
      </trkpt>
      <trkpt lat="42.64864" lon="1.70163">
        <ele>1699.964</ele>
        <time>2022-09-17T07:36:56Z</time>
      </trkpt>
      <trkpt lat="42.64864" lon="1.7016">
        <ele>1700.286</ele>
        <time>2022-09-17T07:36:58Z</time>
      </trkpt>
      <trkpt lat="42.64863" lon="1.70157">
        <ele>1700.009</ele>
        <time>2022-09-17T07:37:00Z</time>
      </trkpt>
      <trkpt lat="42.64862" lon="1.70154">
        <ele>1700.287</ele>
        <time>2022-09-17T07:37:02Z</time>
      </trkpt>
      <trkpt lat="42.64861" lon="1.70152">
        <ele>1700.232</ele>
        <time>2022-09-17T07:37:04Z</time>
      </trkpt>
      <trkpt lat="42.6486" lon="1.70149">
        <ele>1698.982</ele>
        <time>2022-09-17T07:37:06Z</time>
      </trkpt>
      <trkpt lat="42.64859" lon="1.70146">
        <ele>1699.699</ele>
        <time>2022-09-17T07:37:08Z</time>
      </trkpt>
      <trkpt lat="42.64858" lon="1.70143">
        <ele>1699.646</ele>
        <time>2022-09-17T07:37:10Z</time>
      </trkpt>
      <trkpt lat="42.64858" lon="1.70139">
        <ele>1699.016</ele>
        <time>2022-09-17T07:37:12Z</time>
      </trkpt>
      <trkpt lat="42.64857" lon="1.70136">
        <ele>1699.862</ele>
        <time>2022-09-17T07:37:14Z</time>
      </trkpt>
      <trkpt lat="42.64856" lon="1.70132">
        <ele>1699.139</ele>
        <time>2022-09-17T07:37:16Z</time>
      </trkpt>
      <trkpt lat="42.64855" lon="1.70129">
        <ele>1697.923</ele>
        <time>2022-09-17T07:37:18Z</time>
      </trkpt>
      <trkpt lat="42.64855" lon="1.70125">
        <ele>1698.827</ele>
        <time>2022-09-17T07:37:20Z</time>
      </trkpt>
      <trkpt lat="42.64855" lon="1.70121">
        <ele>1700.261</ele>
        <time>2022-09-17T07:37:22Z</time>
      </trkpt>
      <trkpt lat="42.64854" lon="1.70118">
        <ele>1700.727</ele>
        <time>2022-09-17T07:37:24Z</time>
      </trkpt>
      <trkpt lat="42.64853" lon="1.70115">
        <ele>1702.088</ele>
        <time>2022-09-17T07:37:26Z</time>
      </trkpt>
      <trkpt lat="42.64852" lon="1.70112">
        <ele>1701.51</ele>
        <time>2022-09-17T07:37:28Z</time>
      </trkpt>
      <trkpt lat="42.64851" lon="1.70109">
        <ele>1700.31</ele>
        <time>2022-09-17T07:37:30Z</time>
      </trkpt>
      <trkpt lat="42.6485" lon="1.70106">
        <ele>1700.544</ele>
        <time>2022-09-17T07:37:32Z</time>
      </trkpt>
      <trkpt lat="42.64849" lon="1.70104">
        <ele>1700.513</ele>
        <time>2022-09-17T07:37:34Z</time>
      </trkpt>
      <trkpt lat="42.64848" lon="1.70101">
        <ele>1700.756</ele>
        <time>2022-09-17T07:37:36Z</time>
      </trkpt>
      <trkpt lat="42.64847" lon="1.70099">
        <ele>1701.011</ele>
        <time>2022-09-17T07:37:38Z</time>
      </trkpt>
      <trkpt lat="42.64846" lon="1.70096">
        <ele>1701.083</ele>
        <time>2022-09-17T07:37:40Z</time>
      </trkpt>
      <trkpt lat="42.64845" lon="1.70094">
        <ele>1700.971</ele>
        <time>2022-09-17T07:37:42Z</time>
      </trkpt>
      <trkpt lat="42.64844" lon="1.70092">
        <ele>1701.957</ele>
        <time>2022-09-17T07:37:44Z</time>
      </trkpt>
      <trkpt lat="42.64843" lon="1.7009">
        <ele>1702.331</ele>
        <time>2022-09-17T07:37:46Z</time>
      </trkpt>
      <trkpt lat="42.64841" lon="1.70089">
        <ele>1702.297</ele>
        <time>2022-09-17T07:37:48Z</time>
      </trkpt>
      <trkpt lat="42.6484" lon="1.70088">
        <ele>1702.043</ele>
        <time>2022-09-17T07:37:50Z</time>
      </trkpt>
      <trkpt lat="42.64838" lon="1.70087">
        <ele>1702.428</ele>
        <time>2022-09-17T07:37:52Z</time>
      </trkpt>
      <trkpt lat="42.64836" lon="1.70085">
        <ele>1702.453</ele>
        <time>2022-09-17T07:37:54Z</time>
      </trkpt>
      <trkpt lat="42.64836" lon="1.70083">
        <ele>1702.766</ele>
        <time>2022-09-17T07:37:56Z</time>
      </trkpt>
      <trkpt lat="42.64835" lon="1.70082">
        <ele>1702.36</ele>
        <time>2022-09-17T07:37:58Z</time>
      </trkpt>
      <trkpt lat="42.64834" lon="1.7008">
        <ele>1703.061</ele>
        <time>2022-09-17T07:38:00Z</time>
      </trkpt>
      <trkpt lat="42.64833" lon="1.70079">
        <ele>1702.573</ele>
        <time>2022-09-17T07:38:02Z</time>
      </trkpt>
      <trkpt lat="42.64832" lon="1.70077">
        <ele>1702.754</ele>
        <time>2022-09-17T07:38:04Z</time>
      </trkpt>
      <trkpt lat="42.6483" lon="1.70075">
        <ele>1703.041</ele>
        <time>2022-09-17T07:38:06Z</time>
      </trkpt>
      <trkpt lat="42.64829" lon="1.70074">
        <ele>1703.618</ele>
        <time>2022-09-17T07:38:08Z</time>
      </trkpt>
      <trkpt lat="42.64828" lon="1.70073">
        <ele>1703.554</ele>
        <time>2022-09-17T07:38:10Z</time>
      </trkpt>
      <trkpt lat="42.64826" lon="1.70071">
        <ele>1703.563</ele>
        <time>2022-09-17T07:38:12Z</time>
      </trkpt>
      <trkpt lat="42.64825" lon="1.70071">
        <ele>1704.054</ele>
        <time>2022-09-17T07:38:14Z</time>
      </trkpt>
      <trkpt lat="42.64823" lon="1.7007">
        <ele>1705.127</ele>
        <time>2022-09-17T07:38:16Z</time>
      </trkpt>
      <trkpt lat="42.64822" lon="1.70068">
        <ele>1704.7</ele>
        <time>2022-09-17T07:38:18Z</time>
      </trkpt>
      <trkpt lat="42.64821" lon="1.70068">
        <ele>1704.87</ele>
        <time>2022-09-17T07:38:20Z</time>
      </trkpt>
      <trkpt lat="42.6482" lon="1.70067">
        <ele>1704.905</ele>
        <time>2022-09-17T07:38:22Z</time>
      </trkpt>
      <trkpt lat="42.64818" lon="1.70066">
        <ele>1705.339</ele>
        <time>2022-09-17T07:38:24Z</time>
      </trkpt>
      <trkpt lat="42.64817" lon="1.70067">
        <ele>1704.435</ele>
        <time>2022-09-17T07:38:26Z</time>
      </trkpt>
      <trkpt lat="42.64815" lon="1.70067">
        <ele>1704.08</ele>
        <time>2022-09-17T07:38:28Z</time>
      </trkpt>
      <trkpt lat="42.64814" lon="1.70066">
        <ele>1703.774</ele>
        <time>2022-09-17T07:38:30Z</time>
      </trkpt>
      <trkpt lat="42.64812" lon="1.70067">
        <ele>1703.206</ele>
        <time>2022-09-17T07:38:32Z</time>
      </trkpt>
      <trkpt lat="42.64811" lon="1.70066">
        <ele>1702.936</ele>
        <time>2022-09-17T07:38:34Z</time>
      </trkpt>
      <trkpt lat="42.6481" lon="1.70066">
        <ele>1703.937</ele>
        <time>2022-09-17T07:38:36Z</time>
      </trkpt>
      <trkpt lat="42.64809" lon="1.70066">
        <ele>1703.85</ele>
        <time>2022-09-17T07:38:38Z</time>
      </trkpt>
      <trkpt lat="42.64807" lon="1.70066">
        <ele>1703.187</ele>
        <time>2022-09-17T07:38:40Z</time>
      </trkpt>
      <trkpt lat="42.64806" lon="1.70066">
        <ele>1703.46</ele>
        <time>2022-09-17T07:38:42Z</time>
      </trkpt>
      <trkpt lat="42.64804" lon="1.70066">
        <ele>1703.311</ele>
        <time>2022-09-17T07:38:44Z</time>
      </trkpt>
      <trkpt lat="42.64803" lon="1.70066">
        <ele>1702.997</ele>
        <time>2022-09-17T07:38:46Z</time>
      </trkpt>
      <trkpt lat="42.64802" lon="1.70066">
        <ele>1702.61</ele>
        <time>2022-09-17T07:38:48Z</time>
      </trkpt>
      <trkpt lat="42.648" lon="1.70066">
        <ele>1702.752</ele>
        <time>2022-09-17T07:38:50Z</time>
      </trkpt>
      <trkpt lat="42.64799" lon="1.70066">
        <ele>1702.739</ele>
        <time>2022-09-17T07:38:52Z</time>
      </trkpt>
      <trkpt lat="42.64798" lon="1.70065">
        <ele>1702.672</ele>
        <time>2022-09-17T07:38:54Z</time>
      </trkpt>
      <trkpt lat="42.64796" lon="1.70065">
        <ele>1703.076</ele>
        <time>2022-09-17T07:38:56Z</time>
      </trkpt>
      <trkpt lat="42.64795" lon="1.70065">
        <ele>1703.268</ele>
        <time>2022-09-17T07:38:58Z</time>
      </trkpt>
      <trkpt lat="42.64793" lon="1.70065">
        <ele>1703.085</ele>
        <time>2022-09-17T07:39:00Z</time>
      </trkpt>
      <trkpt lat="42.64791" lon="1.70065">
        <ele>1703.271</ele>
        <time>2022-09-17T07:39:02Z</time>
      </trkpt>
      <trkpt lat="42.64789" lon="1.70065">
        <ele>1703.662</ele>
        <time>2022-09-17T07:39:04Z</time>
      </trkpt>
      <trkpt lat="42.64787" lon="1.70064">
        <ele>1704.031</ele>
        <time>2022-09-17T07:39:06Z</time>
      </trkpt>
      <trkpt lat="42.64787" lon="1.70062">
        <ele>1704.566</ele>
        <time>2022-09-17T07:39:08Z</time>
      </trkpt>
      <trkpt lat="42.64786" lon="1.70061">
        <ele>1703.531</ele>
        <time>2022-09-17T07:39:10Z</time>
      </trkpt>
      <trkpt lat="42.64785" lon="1.7006">
        <ele>1702.732</ele>
        <time>2022-09-17T07:39:12Z</time>
      </trkpt>
      <trkpt lat="42.64784" lon="1.70061">
        <ele>1703.334</ele>
        <time>2022-09-17T07:39:14Z</time>
      </trkpt>
      <trkpt lat="42.64783" lon="1.70061">
        <ele>1702.383</ele>
        <time>2022-09-17T07:39:16Z</time>
      </trkpt>
      <trkpt lat="42.64781" lon="1.7006">
        <ele>1701.728</ele>
        <time>2022-09-17T07:39:18Z</time>
      </trkpt>
      <trkpt lat="42.6478" lon="1.70058">
        <ele>1702.12</ele>
        <time>2022-09-17T07:39:20Z</time>
      </trkpt>
      <trkpt lat="42.64778" lon="1.70057">
        <ele>1700.987</ele>
        <time>2022-09-17T07:39:22Z</time>
      </trkpt>
      <trkpt lat="42.64776" lon="1.70059">
        <ele>1701.24</ele>
        <time>2022-09-17T07:39:24Z</time>
      </trkpt>
      <trkpt lat="42.64774" lon="1.70059">
        <ele>1701.904</ele>
        <time>2022-09-17T07:39:26Z</time>
      </trkpt>
      <trkpt lat="42.64772" lon="1.70059">
        <ele>1701.906</ele>
        <time>2022-09-17T07:39:28Z</time>
      </trkpt>
      <trkpt lat="42.64771" lon="1.7006">
        <ele>1702.908</ele>
        <time>2022-09-17T07:39:30Z</time>
      </trkpt>
      <trkpt lat="42.64768" lon="1.70061">
        <ele>1703.233</ele>
        <time>2022-09-17T07:39:32Z</time>
      </trkpt>
      <trkpt lat="42.64766" lon="1.70061">
        <ele>1703.475</ele>
        <time>2022-09-17T07:39:34Z</time>
      </trkpt>
      <trkpt lat="42.64764" lon="1.70061">
        <ele>1703.373</ele>
        <time>2022-09-17T07:39:36Z</time>
      </trkpt>
      <trkpt lat="42.64762" lon="1.70062">
        <ele>1703.36</ele>
        <time>2022-09-17T07:39:38Z</time>
      </trkpt>
      <trkpt lat="42.6476" lon="1.70062">
        <ele>1702.951</ele>
        <time>2022-09-17T07:39:40Z</time>
      </trkpt>
      <trkpt lat="42.64758" lon="1.70061">
        <ele>1702.971</ele>
        <time>2022-09-17T07:39:42Z</time>
      </trkpt>
      <trkpt lat="42.64756" lon="1.70061">
        <ele>1702.898</ele>
        <time>2022-09-17T07:39:44Z</time>
      </trkpt>
      <trkpt lat="42.64754" lon="1.7006">
        <ele>1702.456</ele>
        <time>2022-09-17T07:39:46Z</time>
      </trkpt>
      <trkpt lat="42.64751" lon="1.7006">
        <ele>1702.631</ele>
        <time>2022-09-17T07:39:48Z</time>
      </trkpt>
      <trkpt lat="42.64749" lon="1.7006">
        <ele>1701.961</ele>
        <time>2022-09-17T07:39:50Z</time>
      </trkpt>
      <trkpt lat="42.64747" lon="1.70059">
        <ele>1702.555</ele>
        <time>2022-09-17T07:39:52Z</time>
      </trkpt>
      <trkpt lat="42.64745" lon="1.70058">
        <ele>1703.345</ele>
        <time>2022-09-17T07:39:54Z</time>
      </trkpt>
      <trkpt lat="42.64743" lon="1.70057">
        <ele>1703.301</ele>
        <time>2022-09-17T07:39:56Z</time>
      </trkpt>
      <trkpt lat="42.64741" lon="1.70056">
        <ele>1703.7</ele>
        <time>2022-09-17T07:39:58Z</time>
      </trkpt>
      <trkpt lat="42.64739" lon="1.70055">
        <ele>1703.314</ele>
        <time>2022-09-17T07:40:00Z</time>
      </trkpt>
      <trkpt lat="42.64737" lon="1.70053">
        <ele>1703.751</ele>
        <time>2022-09-17T07:40:02Z</time>
      </trkpt>
      <trkpt lat="42.64735" lon="1.70052">
        <ele>1703.933</ele>
        <time>2022-09-17T07:40:04Z</time>
      </trkpt>
      <trkpt lat="42.64733" lon="1.70051">
        <ele>1703.366</ele>
        <time>2022-09-17T07:40:06Z</time>
      </trkpt>
      <trkpt lat="42.64731" lon="1.7005">
        <ele>1702.536</ele>
        <time>2022-09-17T07:40:08Z</time>
      </trkpt>
      <trkpt lat="42.64729" lon="1.70049">
        <ele>1702.806</ele>
        <time>2022-09-17T07:40:10Z</time>
      </trkpt>
      <trkpt lat="42.64727" lon="1.70049">
        <ele>1701.971</ele>
        <time>2022-09-17T07:40:12Z</time>
      </trkpt>
      <trkpt lat="42.64724" lon="1.70049">
        <ele>1701.945</ele>
        <time>2022-09-17T07:40:14Z</time>
      </trkpt>
      <trkpt lat="42.64722" lon="1.70048">
        <ele>1702.824</ele>
        <time>2022-09-17T07:40:16Z</time>
      </trkpt>
      <trkpt lat="42.64719" lon="1.70047">
        <ele>1702.729</ele>
        <time>2022-09-17T07:40:18Z</time>
      </trkpt>
      <trkpt lat="42.64717" lon="1.70047">
        <ele>1702.941</ele>
        <time>2022-09-17T07:40:20Z</time>
      </trkpt>
      <trkpt lat="42.64714" lon="1.70047">
        <ele>1703.137</ele>
        <time>2022-09-17T07:40:22Z</time>
      </trkpt>
      <trkpt lat="42.64712" lon="1.70047">
        <ele>1703.054</ele>
        <time>2022-09-17T07:40:24Z</time>
      </trkpt>
      <trkpt lat="42.64711" lon="1.70047">
        <ele>1703.245</ele>
        <time>2022-09-17T07:40:26Z</time>
      </trkpt>
      <trkpt lat="42.64709" lon="1.70046">
        <ele>1702.876</ele>
        <time>2022-09-17T07:40:28Z</time>
      </trkpt>
      <trkpt lat="42.64707" lon="1.70046">
        <ele>1702.318</ele>
        <time>2022-09-17T07:40:30Z</time>
      </trkpt>
      <trkpt lat="42.64705" lon="1.70046">
        <ele>1702.105</ele>
        <time>2022-09-17T07:40:32Z</time>
      </trkpt>
      <trkpt lat="42.64702" lon="1.70045">
        <ele>1701.034</ele>
        <time>2022-09-17T07:40:34Z</time>
      </trkpt>
      <trkpt lat="42.647" lon="1.70045">
        <ele>1700.743</ele>
        <time>2022-09-17T07:40:36Z</time>
      </trkpt>
      <trkpt lat="42.64698" lon="1.70045">
        <ele>1701.189</ele>
        <time>2022-09-17T07:40:38Z</time>
      </trkpt>
      <trkpt lat="42.64695" lon="1.70044">
        <ele>1701.408</ele>
        <time>2022-09-17T07:40:40Z</time>
      </trkpt>
      <trkpt lat="42.64693" lon="1.70044">
        <ele>1701.566</ele>
        <time>2022-09-17T07:40:42Z</time>
      </trkpt>
      <trkpt lat="42.64691" lon="1.70043">
        <ele>1701.695</ele>
        <time>2022-09-17T07:40:44Z</time>
      </trkpt>
      <trkpt lat="42.64688" lon="1.70043">
        <ele>1701.892</ele>
        <time>2022-09-17T07:40:46Z</time>
      </trkpt>
      <trkpt lat="42.64686" lon="1.70044">
        <ele>1701.825</ele>
        <time>2022-09-17T07:40:48Z</time>
      </trkpt>
      <trkpt lat="42.64684" lon="1.70044">
        <ele>1702.24</ele>
        <time>2022-09-17T07:40:50Z</time>
      </trkpt>
      <trkpt lat="42.64681" lon="1.70044">
        <ele>1702.379</ele>
        <time>2022-09-17T07:40:52Z</time>
      </trkpt>
      <trkpt lat="42.64679" lon="1.70043">
        <ele>1702.229</ele>
        <time>2022-09-17T07:40:54Z</time>
      </trkpt>
      <trkpt lat="42.64676" lon="1.70043">
        <ele>1701.888</ele>
        <time>2022-09-17T07:40:56Z</time>
      </trkpt>
      <trkpt lat="42.64674" lon="1.70042">
        <ele>1701.594</ele>
        <time>2022-09-17T07:40:58Z</time>
      </trkpt>
      <trkpt lat="42.64671" lon="1.70042">
        <ele>1701.438</ele>
        <time>2022-09-17T07:41:00Z</time>
      </trkpt>
      <trkpt lat="42.64669" lon="1.70041">
        <ele>1700.852</ele>
        <time>2022-09-17T07:41:02Z</time>
      </trkpt>
      <trkpt lat="42.64667" lon="1.7004">
        <ele>1701.161</ele>
        <time>2022-09-17T07:41:04Z</time>
      </trkpt>
      <trkpt lat="42.64665" lon="1.70038">
        <ele>1701.484</ele>
        <time>2022-09-17T07:41:06Z</time>
      </trkpt>
      <trkpt lat="42.64663" lon="1.70038">
        <ele>1701.004</ele>
        <time>2022-09-17T07:41:08Z</time>
      </trkpt>
      <trkpt lat="42.64661" lon="1.70036">
        <ele>1700.687</ele>
        <time>2022-09-17T07:41:10Z</time>
      </trkpt>
      <trkpt lat="42.64659" lon="1.70034">
        <ele>1701.957</ele>
        <time>2022-09-17T07:41:12Z</time>
      </trkpt>
      <trkpt lat="42.64656" lon="1.70033">
        <ele>1701.33</ele>
        <time>2022-09-17T07:41:14Z</time>
      </trkpt>
      <trkpt lat="42.64654" lon="1.70031">
        <ele>1702.322</ele>
        <time>2022-09-17T07:41:16Z</time>
      </trkpt>
      <trkpt lat="42.64652" lon="1.70029">
        <ele>1703.044</ele>
        <time>2022-09-17T07:41:18Z</time>
      </trkpt>
      <trkpt lat="42.64651" lon="1.70028">
        <ele>1704.232</ele>
        <time>2022-09-17T07:41:20Z</time>
      </trkpt>
      <trkpt lat="42.6465" lon="1.70027">
        <ele>1704.738</ele>
        <time>2022-09-17T07:41:22Z</time>
      </trkpt>
      <trkpt lat="42.64649" lon="1.70026">
        <ele>1704.846</ele>
        <time>2022-09-17T07:41:24Z</time>
      </trkpt>
      <trkpt lat="42.64648" lon="1.70024">
        <ele>1705.227</ele>
        <time>2022-09-17T07:41:26Z</time>
      </trkpt>
      <trkpt lat="42.64647" lon="1.70023">
        <ele>1705.211</ele>
        <time>2022-09-17T07:41:28Z</time>
      </trkpt>
      <trkpt lat="42.64646" lon="1.70023">
        <ele>1705.724</ele>
        <time>2022-09-17T07:41:30Z</time>
      </trkpt>
      <trkpt lat="42.64645" lon="1.70023">
        <ele>1706.216</ele>
        <time>2022-09-17T07:41:32Z</time>
      </trkpt>
      <trkpt lat="42.64644" lon="1.70024">
        <ele>1706.003</ele>
        <time>2022-09-17T07:41:34Z</time>
      </trkpt>
      <trkpt lat="42.64643" lon="1.70026">
        <ele>1705.942</ele>
        <time>2022-09-17T07:41:36Z</time>
      </trkpt>
      <trkpt lat="42.64642" lon="1.70028">
        <ele>1706.325</ele>
        <time>2022-09-17T07:41:38Z</time>
      </trkpt>
      <trkpt lat="42.64641" lon="1.70028">
        <ele>1706.565</ele>
        <time>2022-09-17T07:41:40Z</time>
      </trkpt>
      <trkpt lat="42.64641" lon="1.70028">
        <ele>1706.568</ele>
        <time>2022-09-17T07:41:42Z</time>
      </trkpt>
      <trkpt lat="42.6464" lon="1.70028">
        <ele>1706.332</ele>
        <time>2022-09-17T07:41:44Z</time>
      </trkpt>
      <trkpt lat="42.64638" lon="1.70027">
        <ele>1706.558</ele>
        <time>2022-09-17T07:41:46Z</time>
      </trkpt>
      <trkpt lat="42.64636" lon="1.70026">
        <ele>1706.649</ele>
        <time>2022-09-17T07:41:48Z</time>
      </trkpt>
      <trkpt lat="42.64635" lon="1.70026">
        <ele>1706.476</ele>
        <time>2022-09-17T07:41:50Z</time>
      </trkpt>
      <trkpt lat="42.64633" lon="1.70025">
        <ele>1705.929</ele>
        <time>2022-09-17T07:41:52Z</time>
      </trkpt>
      <trkpt lat="42.64631" lon="1.70025">
        <ele>1705.937</ele>
        <time>2022-09-17T07:41:54Z</time>
      </trkpt>
      <trkpt lat="42.64631" lon="1.70026">
        <ele>1706.048</ele>
        <time>2022-09-17T07:41:56Z</time>
      </trkpt>
      <trkpt lat="42.6463" lon="1.70027">
        <ele>1707.113</ele>
        <time>2022-09-17T07:41:58Z</time>
      </trkpt>
      <trkpt lat="42.6463" lon="1.70027">
        <ele>1707.358</ele>
        <time>2022-09-17T07:42:00Z</time>
      </trkpt>
      <trkpt lat="42.64629" lon="1.70027">
        <ele>1706.97</ele>
        <time>2022-09-17T07:42:02Z</time>
      </trkpt>
      <trkpt lat="42.64628" lon="1.70026">
        <ele>1707.522</ele>
        <time>2022-09-17T07:42:04Z</time>
      </trkpt>
      <trkpt lat="42.64626" lon="1.70028">
        <ele>1707.661</ele>
        <time>2022-09-17T07:42:06Z</time>
      </trkpt>
      <trkpt lat="42.64625" lon="1.70028">
        <ele>1708.149</ele>
        <time>2022-09-17T07:42:08Z</time>
      </trkpt>
      <trkpt lat="42.64625" lon="1.7003">
        <ele>1708.12</ele>
        <time>2022-09-17T07:42:10Z</time>
      </trkpt>
      <trkpt lat="42.64625" lon="1.70032">
        <ele>1708.451</ele>
        <time>2022-09-17T07:42:12Z</time>
      </trkpt>
      <trkpt lat="42.64624" lon="1.70034">
        <ele>1708.434</ele>
        <time>2022-09-17T07:42:14Z</time>
      </trkpt>
      <trkpt lat="42.64623" lon="1.70036">
        <ele>1708.61</ele>
        <time>2022-09-17T07:42:16Z</time>
      </trkpt>
      <trkpt lat="42.64622" lon="1.70035">
        <ele>1709.878</ele>
        <time>2022-09-17T07:42:18Z</time>
      </trkpt>
      <trkpt lat="42.6462" lon="1.70036">
        <ele>1709.913</ele>
        <time>2022-09-17T07:42:20Z</time>
      </trkpt>
      <trkpt lat="42.64618" lon="1.70037">
        <ele>1709.997</ele>
        <time>2022-09-17T07:42:22Z</time>
      </trkpt>
      <trkpt lat="42.64617" lon="1.70037">
        <ele>1710.2</ele>
        <time>2022-09-17T07:42:24Z</time>
      </trkpt>
      <trkpt lat="42.64615" lon="1.70038">
        <ele>1710.186</ele>
        <time>2022-09-17T07:42:26Z</time>
      </trkpt>
      <trkpt lat="42.64614" lon="1.70038">
        <ele>1709.863</ele>
        <time>2022-09-17T07:42:28Z</time>
      </trkpt>
      <trkpt lat="42.64613" lon="1.7004">
        <ele>1710.352</ele>
        <time>2022-09-17T07:42:30Z</time>
      </trkpt>
      <trkpt lat="42.64612" lon="1.70042">
        <ele>1710.953</ele>
        <time>2022-09-17T07:42:32Z</time>
      </trkpt>
      <trkpt lat="42.64611" lon="1.70044">
        <ele>1710.697</ele>
        <time>2022-09-17T07:42:34Z</time>
      </trkpt>
      <trkpt lat="42.64611" lon="1.70046">
        <ele>1710.584</ele>
        <time>2022-09-17T07:42:36Z</time>
      </trkpt>
      <trkpt lat="42.6461" lon="1.70048">
        <ele>1710.731</ele>
        <time>2022-09-17T07:42:38Z</time>
      </trkpt>
      <trkpt lat="42.64608" lon="1.70049">
        <ele>1710.735</ele>
        <time>2022-09-17T07:42:40Z</time>
      </trkpt>
      <trkpt lat="42.64606" lon="1.7005">
        <ele>1710.854</ele>
        <time>2022-09-17T07:42:42Z</time>
      </trkpt>
      <trkpt lat="42.64604" lon="1.70051">
        <ele>1710.901</ele>
        <time>2022-09-17T07:42:44Z</time>
      </trkpt>
      <trkpt lat="42.64602" lon="1.70051">
        <ele>1711.286</ele>
        <time>2022-09-17T07:42:46Z</time>
      </trkpt>
      <trkpt lat="42.646" lon="1.70049">
        <ele>1711.968</ele>
        <time>2022-09-17T07:42:48Z</time>
      </trkpt>
      <trkpt lat="42.64598" lon="1.70047">
        <ele>1712.464</ele>
        <time>2022-09-17T07:42:50Z</time>
      </trkpt>
      <trkpt lat="42.64595" lon="1.70047">
        <ele>1711.926</ele>
        <time>2022-09-17T07:42:52Z</time>
      </trkpt>
      <trkpt lat="42.64593" lon="1.70046">
        <ele>1711.315</ele>
        <time>2022-09-17T07:42:54Z</time>
      </trkpt>
      <trkpt lat="42.64591" lon="1.70044">
        <ele>1711.062</ele>
        <time>2022-09-17T07:42:56Z</time>
      </trkpt>
      <trkpt lat="42.6459" lon="1.70044">
        <ele>1712.037</ele>
        <time>2022-09-17T07:42:58Z</time>
      </trkpt>
      <trkpt lat="42.64589" lon="1.70045">
        <ele>1711.75</ele>
        <time>2022-09-17T07:43:00Z</time>
      </trkpt>
      <trkpt lat="42.64587" lon="1.70045">
        <ele>1711.562</ele>
        <time>2022-09-17T07:43:02Z</time>
      </trkpt>
      <trkpt lat="42.64586" lon="1.70046">
        <ele>1711.235</ele>
        <time>2022-09-17T07:43:04Z</time>
      </trkpt>
      <trkpt lat="42.64584" lon="1.70048">
        <ele>1711.606</ele>
        <time>2022-09-17T07:43:06Z</time>
      </trkpt>
      <trkpt lat="42.64582" lon="1.70047">
        <ele>1711.198</ele>
        <time>2022-09-17T07:43:08Z</time>
      </trkpt>
      <trkpt lat="42.6458" lon="1.70046">
        <ele>1710.011</ele>
        <time>2022-09-17T07:43:10Z</time>
      </trkpt>
      <trkpt lat="42.64578" lon="1.70046">
        <ele>1710.359</ele>
        <time>2022-09-17T07:43:12Z</time>
      </trkpt>
      <trkpt lat="42.64576" lon="1.70046">
        <ele>1711.268</ele>
        <time>2022-09-17T07:43:14Z</time>
      </trkpt>
      <trkpt lat="42.64573" lon="1.70046">
        <ele>1711.121</ele>
        <time>2022-09-17T07:43:16Z</time>
      </trkpt>
      <trkpt lat="42.6457" lon="1.70046">
        <ele>1711.08</ele>
        <time>2022-09-17T07:43:18Z</time>
      </trkpt>
      <trkpt lat="42.64568" lon="1.70047">
        <ele>1711.173</ele>
        <time>2022-09-17T07:43:20Z</time>
      </trkpt>
      <trkpt lat="42.64566" lon="1.70048">
        <ele>1710.542</ele>
        <time>2022-09-17T07:43:22Z</time>
      </trkpt>
      <trkpt lat="42.64563" lon="1.70049">
        <ele>1710.739</ele>
        <time>2022-09-17T07:43:24Z</time>
      </trkpt>
      <trkpt lat="42.64561" lon="1.7005">
        <ele>1710.265</ele>
        <time>2022-09-17T07:43:26Z</time>
      </trkpt>
      <trkpt lat="42.64559" lon="1.70051">
        <ele>1710.551</ele>
        <time>2022-09-17T07:43:28Z</time>
      </trkpt>
      <trkpt lat="42.64557" lon="1.70051">
        <ele>1710.771</ele>
        <time>2022-09-17T07:43:30Z</time>
      </trkpt>
      <trkpt lat="42.64555" lon="1.70052">
        <ele>1711.332</ele>
        <time>2022-09-17T07:43:32Z</time>
      </trkpt>
      <trkpt lat="42.64553" lon="1.70052">
        <ele>1711.494</ele>
        <time>2022-09-17T07:43:34Z</time>
      </trkpt>
      <trkpt lat="42.6455" lon="1.70053">
        <ele>1711.689</ele>
        <time>2022-09-17T07:43:36Z</time>
      </trkpt>
      <trkpt lat="42.64548" lon="1.70053">
        <ele>1712.517</ele>
        <time>2022-09-17T07:43:38Z</time>
      </trkpt>
      <trkpt lat="42.64545" lon="1.70053">
        <ele>1712.585</ele>
        <time>2022-09-17T07:43:40Z</time>
      </trkpt>
      <trkpt lat="42.64543" lon="1.70052">
        <ele>1711.605</ele>
        <time>2022-09-17T07:43:42Z</time>
      </trkpt>
      <trkpt lat="42.64541" lon="1.70052">
        <ele>1712.057</ele>
        <time>2022-09-17T07:43:44Z</time>
      </trkpt>
      <trkpt lat="42.64539" lon="1.70052">
        <ele>1711.743</ele>
        <time>2022-09-17T07:43:46Z</time>
      </trkpt>
      <trkpt lat="42.64537" lon="1.70051">
        <ele>1711.545</ele>
        <time>2022-09-17T07:43:48Z</time>
      </trkpt>
      <trkpt lat="42.64535" lon="1.7005">
        <ele>1711.417</ele>
        <time>2022-09-17T07:43:50Z</time>
      </trkpt>
      <trkpt lat="42.64532" lon="1.7005">
        <ele>1710.941</ele>
        <time>2022-09-17T07:43:52Z</time>
      </trkpt>
      <trkpt lat="42.6453" lon="1.7005">
        <ele>1710.915</ele>
        <time>2022-09-17T07:43:54Z</time>
      </trkpt>
      <trkpt lat="42.64527" lon="1.70048">
        <ele>1712.312</ele>
        <time>2022-09-17T07:43:56Z</time>
      </trkpt>
      <trkpt lat="42.64525" lon="1.70046">
        <ele>1712.681</ele>
        <time>2022-09-17T07:43:58Z</time>
      </trkpt>
      <trkpt lat="42.64524" lon="1.70044">
        <ele>1712.154</ele>
        <time>2022-09-17T07:44:00Z</time>
      </trkpt>
      <trkpt lat="42.64522" lon="1.70043">
        <ele>1712.614</ele>
        <time>2022-09-17T07:44:02Z</time>
      </trkpt>
      <trkpt lat="42.6452" lon="1.70042">
        <ele>1712.75</ele>
        <time>2022-09-17T07:44:04Z</time>
      </trkpt>
      <trkpt lat="42.64518" lon="1.70041">
        <ele>1713.657</ele>
        <time>2022-09-17T07:44:06Z</time>
      </trkpt>
      <trkpt lat="42.64515" lon="1.70039">
        <ele>1713.69</ele>
        <time>2022-09-17T07:44:08Z</time>
      </trkpt>
      <trkpt lat="42.64514" lon="1.70038">
        <ele>1714.339</ele>
        <time>2022-09-17T07:44:10Z</time>
      </trkpt>
      <trkpt lat="42.64512" lon="1.70038">
        <ele>1713.942</ele>
        <time>2022-09-17T07:44:12Z</time>
      </trkpt>
      <trkpt lat="42.6451" lon="1.70037">
        <ele>1714.745</ele>
        <time>2022-09-17T07:44:14Z</time>
      </trkpt>
      <trkpt lat="42.64508" lon="1.70035">
        <ele>1714.989</ele>
        <time>2022-09-17T07:44:16Z</time>
      </trkpt>
      <trkpt lat="42.64506" lon="1.70033">
        <ele>1715.281</ele>
        <time>2022-09-17T07:44:18Z</time>
      </trkpt>
      <trkpt lat="42.64504" lon="1.70033">
        <ele>1715.351</ele>
        <time>2022-09-17T07:44:20Z</time>
      </trkpt>
      <trkpt lat="42.64502" lon="1.70034">
        <ele>1715.607</ele>
        <time>2022-09-17T07:44:22Z</time>
      </trkpt>
      <trkpt lat="42.645" lon="1.70035">
        <ele>1715.939</ele>
        <time>2022-09-17T07:44:24Z</time>
      </trkpt>
      <trkpt lat="42.64497" lon="1.70035">
        <ele>1715.577</ele>
        <time>2022-09-17T07:44:26Z</time>
      </trkpt>
      <trkpt lat="42.64495" lon="1.70034">
        <ele>1716.458</ele>
        <time>2022-09-17T07:44:28Z</time>
      </trkpt>
      <trkpt lat="42.64494" lon="1.70033">
        <ele>1715.83</ele>
        <time>2022-09-17T07:44:30Z</time>
      </trkpt>
      <trkpt lat="42.64491" lon="1.70035">
        <ele>1715.869</ele>
        <time>2022-09-17T07:44:32Z</time>
      </trkpt>
      <trkpt lat="42.64489" lon="1.70035">
        <ele>1716.391</ele>
        <time>2022-09-17T07:44:34Z</time>
      </trkpt>
      <trkpt lat="42.64487" lon="1.70034">
        <ele>1717.157</ele>
        <time>2022-09-17T07:44:36Z</time>
      </trkpt>
      <trkpt lat="42.64485" lon="1.70034">
        <ele>1717.263</ele>
        <time>2022-09-17T07:44:38Z</time>
      </trkpt>
      <trkpt lat="42.64483" lon="1.70033">
        <ele>1717.39</ele>
        <time>2022-09-17T07:44:40Z</time>
      </trkpt>
      <trkpt lat="42.64481" lon="1.70031">
        <ele>1717.473</ele>
        <time>2022-09-17T07:44:42Z</time>
      </trkpt>
      <trkpt lat="42.64478" lon="1.70031">
        <ele>1717.384</ele>
        <time>2022-09-17T07:44:44Z</time>
      </trkpt>
      <trkpt lat="42.64476" lon="1.7003">
        <ele>1717.226</ele>
        <time>2022-09-17T07:44:46Z</time>
      </trkpt>
      <trkpt lat="42.64474" lon="1.70029">
        <ele>1717.689</ele>
        <time>2022-09-17T07:44:48Z</time>
      </trkpt>
      <trkpt lat="42.64472" lon="1.70028">
        <ele>1717.425</ele>
        <time>2022-09-17T07:44:50Z</time>
      </trkpt>
      <trkpt lat="42.6447" lon="1.70027">
        <ele>1717.617</ele>
        <time>2022-09-17T07:44:52Z</time>
      </trkpt>
      <trkpt lat="42.64469" lon="1.70025">
        <ele>1717.674</ele>
        <time>2022-09-17T07:44:54Z</time>
      </trkpt>
      <trkpt lat="42.64467" lon="1.70024">
        <ele>1718.244</ele>
        <time>2022-09-17T07:44:56Z</time>
      </trkpt>
      <trkpt lat="42.64466" lon="1.70023">
        <ele>1717.796</ele>
        <time>2022-09-17T07:44:58Z</time>
      </trkpt>
      <trkpt lat="42.64464" lon="1.70022">
        <ele>1717.367</ele>
        <time>2022-09-17T07:45:00Z</time>
      </trkpt>
      <trkpt lat="42.64463" lon="1.70021">
        <ele>1716.965</ele>
        <time>2022-09-17T07:45:02Z</time>
      </trkpt>
      <trkpt lat="42.64462" lon="1.7002">
        <ele>1716.732</ele>
        <time>2022-09-17T07:45:04Z</time>
      </trkpt>
      <trkpt lat="42.6446" lon="1.70018">
        <ele>1716.845</ele>
        <time>2022-09-17T07:45:06Z</time>
      </trkpt>
      <trkpt lat="42.64458" lon="1.70018">
        <ele>1716.89</ele>
        <time>2022-09-17T07:45:08Z</time>
      </trkpt>
      <trkpt lat="42.64457" lon="1.70018">
        <ele>1716.824</ele>
        <time>2022-09-17T07:45:10Z</time>
      </trkpt>
      <trkpt lat="42.64455" lon="1.70018">
        <ele>1716.564</ele>
        <time>2022-09-17T07:45:12Z</time>
      </trkpt>
      <trkpt lat="42.64454" lon="1.70019">
        <ele>1716.014</ele>
        <time>2022-09-17T07:45:14Z</time>
      </trkpt>
      <trkpt lat="42.64451" lon="1.70019">
        <ele>1715.817</ele>
        <time>2022-09-17T07:45:16Z</time>
      </trkpt>
      <trkpt lat="42.64449" lon="1.70018">
        <ele>1716.717</ele>
        <time>2022-09-17T07:45:18Z</time>
      </trkpt>
      <trkpt lat="42.64447" lon="1.70016">
        <ele>1717.153</ele>
        <time>2022-09-17T07:45:20Z</time>
      </trkpt>
      <trkpt lat="42.64445" lon="1.70015">
        <ele>1718.111</ele>
        <time>2022-09-17T07:45:22Z</time>
      </trkpt>
      <trkpt lat="42.64443" lon="1.70013">
        <ele>1718.346</ele>
        <time>2022-09-17T07:45:24Z</time>
      </trkpt>
      <trkpt lat="42.64441" lon="1.70013">
        <ele>1718.717</ele>
        <time>2022-09-17T07:45:26Z</time>
      </trkpt>
      <trkpt lat="42.64439" lon="1.70013">
        <ele>1718.656</ele>
        <time>2022-09-17T07:45:28Z</time>
      </trkpt>
      <trkpt lat="42.64437" lon="1.70012">
        <ele>1718.991</ele>
        <time>2022-09-17T07:45:30Z</time>
      </trkpt>
      <trkpt lat="42.64434" lon="1.70011">
        <ele>1719.19</ele>
        <time>2022-09-17T07:45:32Z</time>
      </trkpt>
      <trkpt lat="42.64432" lon="1.70012">
        <ele>1719.494</ele>
        <time>2022-09-17T07:45:34Z</time>
      </trkpt>
      <trkpt lat="42.6443" lon="1.70011">
        <ele>1719.11</ele>
        <time>2022-09-17T07:45:36Z</time>
      </trkpt>
      <trkpt lat="42.64428" lon="1.7001">
        <ele>1719.813</ele>
        <time>2022-09-17T07:45:38Z</time>
      </trkpt>
      <trkpt lat="42.64426" lon="1.70009">
        <ele>1719.622</ele>
        <time>2022-09-17T07:45:40Z</time>
      </trkpt>
      <trkpt lat="42.64424" lon="1.70007">
        <ele>1719.057</ele>
        <time>2022-09-17T07:45:42Z</time>
      </trkpt>
      <trkpt lat="42.64422" lon="1.70005">
        <ele>1719.104</ele>
        <time>2022-09-17T07:45:44Z</time>
      </trkpt>
      <trkpt lat="42.64421" lon="1.70004">
        <ele>1719.476</ele>
        <time>2022-09-17T07:45:46Z</time>
      </trkpt>
      <trkpt lat="42.64419" lon="1.70003">
        <ele>1720.303</ele>
        <time>2022-09-17T07:45:48Z</time>
      </trkpt>
      <trkpt lat="42.64417" lon="1.70001">
        <ele>1719.758</ele>
        <time>2022-09-17T07:45:50Z</time>
      </trkpt>
      <trkpt lat="42.64416" lon="1.7">
        <ele>1718.75</ele>
        <time>2022-09-17T07:45:52Z</time>
      </trkpt>
      <trkpt lat="42.64414" lon="1.69998">
        <ele>1719.344</ele>
        <time>2022-09-17T07:45:54Z</time>
      </trkpt>
      <trkpt lat="42.64412" lon="1.69997">
        <ele>1719.28</ele>
        <time>2022-09-17T07:45:56Z</time>
      </trkpt>
      <trkpt lat="42.6441" lon="1.69995">
        <ele>1719.568</ele>
        <time>2022-09-17T07:45:58Z</time>
      </trkpt>
      <trkpt lat="42.64408" lon="1.69994">
        <ele>1721.061</ele>
        <time>2022-09-17T07:46:00Z</time>
      </trkpt>
      <trkpt lat="42.64406" lon="1.69993">
        <ele>1720.984</ele>
        <time>2022-09-17T07:46:02Z</time>
      </trkpt>
      <trkpt lat="42.64405" lon="1.69992">
        <ele>1721.669</ele>
        <time>2022-09-17T07:46:04Z</time>
      </trkpt>
      <trkpt lat="42.64403" lon="1.6999">
        <ele>1721.248</ele>
        <time>2022-09-17T07:46:06Z</time>
      </trkpt>
      <trkpt lat="42.64402" lon="1.6999">
        <ele>1721.349</ele>
        <time>2022-09-17T07:46:08Z</time>
      </trkpt>
      <trkpt lat="42.64401" lon="1.69988">
        <ele>1719.69</ele>
        <time>2022-09-17T07:46:10Z</time>
      </trkpt>
      <trkpt lat="42.644" lon="1.69988">
        <ele>1719.692</ele>
        <time>2022-09-17T07:46:12Z</time>
      </trkpt>
      <trkpt lat="42.64398" lon="1.69989">
        <ele>1720.356</ele>
        <time>2022-09-17T07:46:14Z</time>
      </trkpt>
      <trkpt lat="42.64397" lon="1.69988">
        <ele>1721.453</ele>
        <time>2022-09-17T07:46:16Z</time>
      </trkpt>
      <trkpt lat="42.64395" lon="1.69987">
        <ele>1722.406</ele>
        <time>2022-09-17T07:46:18Z</time>
      </trkpt>
      <trkpt lat="42.64394" lon="1.69985">
        <ele>1723.55</ele>
        <time>2022-09-17T07:46:20Z</time>
      </trkpt>
      <trkpt lat="42.64392" lon="1.69984">
        <ele>1724.659</ele>
        <time>2022-09-17T07:46:22Z</time>
      </trkpt>
      <trkpt lat="42.64391" lon="1.69983">
        <ele>1724.637</ele>
        <time>2022-09-17T07:46:24Z</time>
      </trkpt>
      <trkpt lat="42.6439" lon="1.69981">
        <ele>1724.466</ele>
        <time>2022-09-17T07:46:26Z</time>
      </trkpt>
      <trkpt lat="42.64388" lon="1.69979">
        <ele>1725.35</ele>
        <time>2022-09-17T07:46:28Z</time>
      </trkpt>
      <trkpt lat="42.64387" lon="1.69978">
        <ele>1725.773</ele>
        <time>2022-09-17T07:46:30Z</time>
      </trkpt>
      <trkpt lat="42.64386" lon="1.69976">
        <ele>1725.845</ele>
        <time>2022-09-17T07:46:32Z</time>
      </trkpt>
      <trkpt lat="42.64384" lon="1.69975">
        <ele>1725.544</ele>
        <time>2022-09-17T07:46:34Z</time>
      </trkpt>
      <trkpt lat="42.64383" lon="1.69974">
        <ele>1725.624</ele>
        <time>2022-09-17T07:46:36Z</time>
      </trkpt>
      <trkpt lat="42.64381" lon="1.69972">
        <ele>1725.416</ele>
        <time>2022-09-17T07:46:38Z</time>
      </trkpt>
      <trkpt lat="42.6438" lon="1.69971">
        <ele>1725.872</ele>
        <time>2022-09-17T07:46:40Z</time>
      </trkpt>
      <trkpt lat="42.64378" lon="1.69972">
        <ele>1725.805</ele>
        <time>2022-09-17T07:46:42Z</time>
      </trkpt>
      <trkpt lat="42.64376" lon="1.69972">
        <ele>1725.987</ele>
        <time>2022-09-17T07:46:44Z</time>
      </trkpt>
      <trkpt lat="42.64375" lon="1.69972">
        <ele>1726.282</ele>
        <time>2022-09-17T07:46:46Z</time>
      </trkpt>
      <trkpt lat="42.64373" lon="1.69972">
        <ele>1726.842</ele>
        <time>2022-09-17T07:46:48Z</time>
      </trkpt>
      <trkpt lat="42.64371" lon="1.69972">
        <ele>1727.256</ele>
        <time>2022-09-17T07:46:50Z</time>
      </trkpt>
      <trkpt lat="42.64369" lon="1.69972">
        <ele>1728.362</ele>
        <time>2022-09-17T07:46:52Z</time>
      </trkpt>
      <trkpt lat="42.64366" lon="1.69974">
        <ele>1728.732</ele>
        <time>2022-09-17T07:46:54Z</time>
      </trkpt>
      <trkpt lat="42.64363" lon="1.69973">
        <ele>1729.439</ele>
        <time>2022-09-17T07:46:56Z</time>
      </trkpt>
      <trkpt lat="42.64361" lon="1.69972">
        <ele>1730.417</ele>
        <time>2022-09-17T07:46:58Z</time>
      </trkpt>
      <trkpt lat="42.64359" lon="1.69971">
        <ele>1731.835</ele>
        <time>2022-09-17T07:47:00Z</time>
      </trkpt>
      <trkpt lat="42.64357" lon="1.69971">
        <ele>1732.246</ele>
        <time>2022-09-17T07:47:02Z</time>
      </trkpt>
      <trkpt lat="42.64356" lon="1.69972">
        <ele>1731.836</ele>
        <time>2022-09-17T07:47:04Z</time>
      </trkpt>
      <trkpt lat="42.64354" lon="1.69971">
        <ele>1732.728</ele>
        <time>2022-09-17T07:47:06Z</time>
      </trkpt>
      <trkpt lat="42.64352" lon="1.6997">
        <ele>1732.916</ele>
        <time>2022-09-17T07:47:08Z</time>
      </trkpt>
      <trkpt lat="42.6435" lon="1.69969">
        <ele>1733.285</ele>
        <time>2022-09-17T07:47:10Z</time>
      </trkpt>
      <trkpt lat="42.64348" lon="1.69968">
        <ele>1733.028</ele>
        <time>2022-09-17T07:47:12Z</time>
      </trkpt>
      <trkpt lat="42.64346" lon="1.69966">
        <ele>1733.276</ele>
        <time>2022-09-17T07:47:14Z</time>
      </trkpt>
      <trkpt lat="42.64344" lon="1.69964">
        <ele>1732.832</ele>
        <time>2022-09-17T07:47:16Z</time>
      </trkpt>
      <trkpt lat="42.64342" lon="1.69963">
        <ele>1733.047</ele>
        <time>2022-09-17T07:47:18Z</time>
      </trkpt>
      <trkpt lat="42.64341" lon="1.69962">
        <ele>1732.943</ele>
        <time>2022-09-17T07:47:20Z</time>
      </trkpt>
      <trkpt lat="42.64339" lon="1.69961">
        <ele>1733.506</ele>
        <time>2022-09-17T07:47:22Z</time>
      </trkpt>
      <trkpt lat="42.64337" lon="1.69961">
        <ele>1734.043</ele>
        <time>2022-09-17T07:47:24Z</time>
      </trkpt>
      <trkpt lat="42.64336" lon="1.6996">
        <ele>1733.98</ele>
        <time>2022-09-17T07:47:26Z</time>
      </trkpt>
      <trkpt lat="42.64334" lon="1.69959">
        <ele>1734.633</ele>
        <time>2022-09-17T07:47:28Z</time>
      </trkpt>
      <trkpt lat="42.64332" lon="1.69958">
        <ele>1734.697</ele>
        <time>2022-09-17T07:47:30Z</time>
      </trkpt>
      <trkpt lat="42.64331" lon="1.69956">
        <ele>1734.868</ele>
        <time>2022-09-17T07:47:32Z</time>
      </trkpt>
      <trkpt lat="42.6433" lon="1.69955">
        <ele>1734.482</ele>
        <time>2022-09-17T07:47:34Z</time>
      </trkpt>
      <trkpt lat="42.64328" lon="1.69954">
        <ele>1733.477</ele>
        <time>2022-09-17T07:47:36Z</time>
      </trkpt>
      <trkpt lat="42.64326" lon="1.69954">
        <ele>1732.917</ele>
        <time>2022-09-17T07:47:38Z</time>
      </trkpt>
      <trkpt lat="42.64324" lon="1.69953">
        <ele>1732.681</ele>
        <time>2022-09-17T07:47:40Z</time>
      </trkpt>
      <trkpt lat="42.64321" lon="1.69952">
        <ele>1732.074</ele>
        <time>2022-09-17T07:47:42Z</time>
      </trkpt>
      <trkpt lat="42.6432" lon="1.69951">
        <ele>1732.018</ele>
        <time>2022-09-17T07:47:44Z</time>
      </trkpt>
      <trkpt lat="42.64317" lon="1.69951">
        <ele>1731.653</ele>
        <time>2022-09-17T07:47:46Z</time>
      </trkpt>
      <trkpt lat="42.64315" lon="1.6995">
        <ele>1731.479</ele>
        <time>2022-09-17T07:47:48Z</time>
      </trkpt>
      <trkpt lat="42.64314" lon="1.69948">
        <ele>1732.391</ele>
        <time>2022-09-17T07:47:50Z</time>
      </trkpt>
      <trkpt lat="42.64312" lon="1.69947">
        <ele>1732.424</ele>
        <time>2022-09-17T07:47:52Z</time>
      </trkpt>
      <trkpt lat="42.6431" lon="1.69946">
        <ele>1732.96</ele>
        <time>2022-09-17T07:47:54Z</time>
      </trkpt>
      <trkpt lat="42.64308" lon="1.69945">
        <ele>1733.351</ele>
        <time>2022-09-17T07:47:56Z</time>
      </trkpt>
      <trkpt lat="42.64307" lon="1.69943">
        <ele>1733.913</ele>
        <time>2022-09-17T07:47:58Z</time>
      </trkpt>
      <trkpt lat="42.64305" lon="1.69941">
        <ele>1733.584</ele>
        <time>2022-09-17T07:48:00Z</time>
      </trkpt>
      <trkpt lat="42.64303" lon="1.6994">
        <ele>1733.868</ele>
        <time>2022-09-17T07:48:02Z</time>
      </trkpt>
      <trkpt lat="42.64302" lon="1.69939">
        <ele>1733.677</ele>
        <time>2022-09-17T07:48:04Z</time>
      </trkpt>
      <trkpt lat="42.643" lon="1.69938">
        <ele>1733.536</ele>
        <time>2022-09-17T07:48:06Z</time>
      </trkpt>
      <trkpt lat="42.64298" lon="1.69936">
        <ele>1733.157</ele>
        <time>2022-09-17T07:48:08Z</time>
      </trkpt>
      <trkpt lat="42.64296" lon="1.69936">
        <ele>1732.163</ele>
        <time>2022-09-17T07:48:10Z</time>
      </trkpt>
      <trkpt lat="42.64294" lon="1.69935">
        <ele>1731.706</ele>
        <time>2022-09-17T07:48:12Z</time>
      </trkpt>
      <trkpt lat="42.64292" lon="1.69933">
        <ele>1731.914</ele>
        <time>2022-09-17T07:48:14Z</time>
      </trkpt>
      <trkpt lat="42.64291" lon="1.69932">
        <ele>1731.951</ele>
        <time>2022-09-17T07:48:16Z</time>
      </trkpt>
      <trkpt lat="42.6429" lon="1.6993">
        <ele>1732.277</ele>
        <time>2022-09-17T07:48:18Z</time>
      </trkpt>
      <trkpt lat="42.64289" lon="1.69929">
        <ele>1733.25</ele>
        <time>2022-09-17T07:48:20Z</time>
      </trkpt>
      <trkpt lat="42.64287" lon="1.69928">
        <ele>1733.379</ele>
        <time>2022-09-17T07:48:22Z</time>
      </trkpt>
      <trkpt lat="42.64286" lon="1.69928">
        <ele>1732.855</ele>
        <time>2022-09-17T07:48:24Z</time>
      </trkpt>
      <trkpt lat="42.64285" lon="1.69928">
        <ele>1733.236</ele>
        <time>2022-09-17T07:48:26Z</time>
      </trkpt>
      <trkpt lat="42.64283" lon="1.69927">
        <ele>1734.386</ele>
        <time>2022-09-17T07:48:28Z</time>
      </trkpt>
      <trkpt lat="42.64281" lon="1.69927">
        <ele>1734.973</ele>
        <time>2022-09-17T07:48:30Z</time>
      </trkpt>
      <trkpt lat="42.6428" lon="1.69926">
        <ele>1735.748</ele>
        <time>2022-09-17T07:48:32Z</time>
      </trkpt>
      <trkpt lat="42.64278" lon="1.69925">
        <ele>1735.53</ele>
        <time>2022-09-17T07:48:34Z</time>
      </trkpt>
      <trkpt lat="42.64277" lon="1.69924">
        <ele>1735.248</ele>
        <time>2022-09-17T07:48:36Z</time>
      </trkpt>
      <trkpt lat="42.64275" lon="1.69923">
        <ele>1736.017</ele>
        <time>2022-09-17T07:48:38Z</time>
      </trkpt>
      <trkpt lat="42.64274" lon="1.69922">
        <ele>1735.652</ele>
        <time>2022-09-17T07:48:40Z</time>
      </trkpt>
      <trkpt lat="42.64272" lon="1.69922">
        <ele>1734.784</ele>
        <time>2022-09-17T07:48:42Z</time>
      </trkpt>
      <trkpt lat="42.6427" lon="1.69922">
        <ele>1734.849</ele>
        <time>2022-09-17T07:48:44Z</time>
      </trkpt>
      <trkpt lat="42.64269" lon="1.69921">
        <ele>1734.987</ele>
        <time>2022-09-17T07:48:46Z</time>
      </trkpt>
      <trkpt lat="42.64267" lon="1.69919">
        <ele>1735.242</ele>
        <time>2022-09-17T07:48:48Z</time>
      </trkpt>
      <trkpt lat="42.64266" lon="1.69918">
        <ele>1736.109</ele>
        <time>2022-09-17T07:48:50Z</time>
      </trkpt>
      <trkpt lat="42.64265" lon="1.69917">
        <ele>1736.91</ele>
        <time>2022-09-17T07:48:52Z</time>
      </trkpt>
      <trkpt lat="42.64263" lon="1.69917">
        <ele>1737.883</ele>
        <time>2022-09-17T07:48:54Z</time>
      </trkpt>
      <trkpt lat="42.64261" lon="1.69917">
        <ele>1737.742</ele>
        <time>2022-09-17T07:48:56Z</time>
      </trkpt>
      <trkpt lat="42.6426" lon="1.69916">
        <ele>1737.55</ele>
        <time>2022-09-17T07:48:58Z</time>
      </trkpt>
      <trkpt lat="42.64258" lon="1.69915">
        <ele>1737.602</ele>
        <time>2022-09-17T07:49:00Z</time>
      </trkpt>
      <trkpt lat="42.64256" lon="1.69914">
        <ele>1737.748</ele>
        <time>2022-09-17T07:49:02Z</time>
      </trkpt>
      <trkpt lat="42.64255" lon="1.69914">
        <ele>1737.587</ele>
        <time>2022-09-17T07:49:04Z</time>
      </trkpt>
      <trkpt lat="42.64253" lon="1.69913">
        <ele>1737.915</ele>
        <time>2022-09-17T07:49:06Z</time>
      </trkpt>
      <trkpt lat="42.64252" lon="1.69913">
        <ele>1738.391</ele>
        <time>2022-09-17T07:49:08Z</time>
      </trkpt>
      <trkpt lat="42.64251" lon="1.69911">
        <ele>1738.471</ele>
        <time>2022-09-17T07:49:10Z</time>
      </trkpt>
      <trkpt lat="42.6425" lon="1.6991">
        <ele>1738.624</ele>
        <time>2022-09-17T07:49:12Z</time>
      </trkpt>
      <trkpt lat="42.64249" lon="1.69908">
        <ele>1738.538</ele>
        <time>2022-09-17T07:49:14Z</time>
      </trkpt>
      <trkpt lat="42.64248" lon="1.69907">
        <ele>1738.063</ele>
        <time>2022-09-17T07:49:16Z</time>
      </trkpt>
      <trkpt lat="42.64247" lon="1.69906">
        <ele>1739.373</ele>
        <time>2022-09-17T07:49:18Z</time>
      </trkpt>
      <trkpt lat="42.64246" lon="1.69906">
        <ele>1739.946</ele>
        <time>2022-09-17T07:49:20Z</time>
      </trkpt>
      <trkpt lat="42.64244" lon="1.69906">
        <ele>1739.867</ele>
        <time>2022-09-17T07:49:22Z</time>
      </trkpt>
      <trkpt lat="42.64243" lon="1.69906">
        <ele>1740.074</ele>
        <time>2022-09-17T07:49:24Z</time>
      </trkpt>
      <trkpt lat="42.64242" lon="1.69905">
        <ele>1739.606</ele>
        <time>2022-09-17T07:49:26Z</time>
      </trkpt>
      <trkpt lat="42.6424" lon="1.69905">
        <ele>1739.757</ele>
        <time>2022-09-17T07:49:28Z</time>
      </trkpt>
      <trkpt lat="42.64239" lon="1.69904">
        <ele>1739.312</ele>
        <time>2022-09-17T07:49:30Z</time>
      </trkpt>
      <trkpt lat="42.64237" lon="1.69903">
        <ele>1740.188</ele>
        <time>2022-09-17T07:49:32Z</time>
      </trkpt>
      <trkpt lat="42.64236" lon="1.69902">
        <ele>1740.596</ele>
        <time>2022-09-17T07:49:34Z</time>
      </trkpt>
      <trkpt lat="42.64235" lon="1.69901">
        <ele>1741.589</ele>
        <time>2022-09-17T07:49:36Z</time>
      </trkpt>
      <trkpt lat="42.64233" lon="1.69899">
        <ele>1742.345</ele>
        <time>2022-09-17T07:49:38Z</time>
      </trkpt>
      <trkpt lat="42.64233" lon="1.69898">
        <ele>1742.686</ele>
        <time>2022-09-17T07:49:40Z</time>
      </trkpt>
      <trkpt lat="42.64233" lon="1.69897">
        <ele>1743.518</ele>
        <time>2022-09-17T07:49:42Z</time>
      </trkpt>
      <trkpt lat="42.64232" lon="1.69895">
        <ele>1743.481</ele>
        <time>2022-09-17T07:49:44Z</time>
      </trkpt>
      <trkpt lat="42.64231" lon="1.69894">
        <ele>1743.001</ele>
        <time>2022-09-17T07:49:46Z</time>
      </trkpt>
      <trkpt lat="42.6423" lon="1.69893">
        <ele>1743.192</ele>
        <time>2022-09-17T07:49:48Z</time>
      </trkpt>
      <trkpt lat="42.6423" lon="1.69893">
        <ele>1743.869</ele>
        <time>2022-09-17T07:49:50Z</time>
      </trkpt>
      <trkpt lat="42.64229" lon="1.69892">
        <ele>1744.047</ele>
        <time>2022-09-17T07:49:52Z</time>
      </trkpt>
      <trkpt lat="42.64228" lon="1.69891">
        <ele>1744.343</ele>
        <time>2022-09-17T07:49:54Z</time>
      </trkpt>
      <trkpt lat="42.64227" lon="1.6989">
        <ele>1745.229</ele>
        <time>2022-09-17T07:49:56Z</time>
      </trkpt>
      <trkpt lat="42.64225" lon="1.6989">
        <ele>1745.873</ele>
        <time>2022-09-17T07:49:58Z</time>
      </trkpt>
      <trkpt lat="42.64224" lon="1.69889">
        <ele>1745.578</ele>
        <time>2022-09-17T07:50:00Z</time>
      </trkpt>
      <trkpt lat="42.64223" lon="1.69888">
        <ele>1746.026</ele>
        <time>2022-09-17T07:50:02Z</time>
      </trkpt>
      <trkpt lat="42.64222" lon="1.69888">
        <ele>1745.553</ele>
        <time>2022-09-17T07:50:04Z</time>
      </trkpt>
      <trkpt lat="42.6422" lon="1.69887">
        <ele>1744.791</ele>
        <time>2022-09-17T07:50:06Z</time>
      </trkpt>
      <trkpt lat="42.64219" lon="1.69886">
        <ele>1745.407</ele>
        <time>2022-09-17T07:50:08Z</time>
      </trkpt>
      <trkpt lat="42.64217" lon="1.69886">
        <ele>1746.024</ele>
        <time>2022-09-17T07:50:10Z</time>
      </trkpt>
      <trkpt lat="42.64216" lon="1.69885">
        <ele>1745.72</ele>
        <time>2022-09-17T07:50:12Z</time>
      </trkpt>
      <trkpt lat="42.64215" lon="1.69884">
        <ele>1745.365</ele>
        <time>2022-09-17T07:50:14Z</time>
      </trkpt>
      <trkpt lat="42.64212" lon="1.69883">
        <ele>1744.818</ele>
        <time>2022-09-17T07:50:16Z</time>
      </trkpt>
      <trkpt lat="42.64211" lon="1.69883">
        <ele>1746.07</ele>
        <time>2022-09-17T07:50:18Z</time>
      </trkpt>
      <trkpt lat="42.6421" lon="1.69882">
        <ele>1746.93</ele>
        <time>2022-09-17T07:50:20Z</time>
      </trkpt>
      <trkpt lat="42.64209" lon="1.6988">
        <ele>1748.197</ele>
        <time>2022-09-17T07:50:22Z</time>
      </trkpt>
      <trkpt lat="42.64208" lon="1.69879">
        <ele>1748.633</ele>
        <time>2022-09-17T07:50:24Z</time>
      </trkpt>
      <trkpt lat="42.64206" lon="1.69877">
        <ele>1748.455</ele>
        <time>2022-09-17T07:50:26Z</time>
      </trkpt>
      <trkpt lat="42.64205" lon="1.69877">
        <ele>1748.607</ele>
        <time>2022-09-17T07:50:28Z</time>
      </trkpt>
      <trkpt lat="42.64203" lon="1.69876">
        <ele>1748.37</ele>
        <time>2022-09-17T07:50:30Z</time>
      </trkpt>
      <trkpt lat="42.64202" lon="1.69875">
        <ele>1747.706</ele>
        <time>2022-09-17T07:50:32Z</time>
      </trkpt>
      <trkpt lat="42.642" lon="1.69873">
        <ele>1748.257</ele>
        <time>2022-09-17T07:50:34Z</time>
      </trkpt>
      <trkpt lat="42.64199" lon="1.69871">
        <ele>1748.343</ele>
        <time>2022-09-17T07:50:36Z</time>
      </trkpt>
      <trkpt lat="42.64198" lon="1.69869">
        <ele>1748.876</ele>
        <time>2022-09-17T07:50:38Z</time>
      </trkpt>
      <trkpt lat="42.64196" lon="1.69868">
        <ele>1748.638</ele>
        <time>2022-09-17T07:50:40Z</time>
      </trkpt>
      <trkpt lat="42.64195" lon="1.69866">
        <ele>1748.349</ele>
        <time>2022-09-17T07:50:42Z</time>
      </trkpt>
      <trkpt lat="42.64193" lon="1.69865">
        <ele>1749.259</ele>
        <time>2022-09-17T07:50:44Z</time>
      </trkpt>
      <trkpt lat="42.64192" lon="1.69864">
        <ele>1749.911</ele>
        <time>2022-09-17T07:50:46Z</time>
      </trkpt>
      <trkpt lat="42.6419" lon="1.69863">
        <ele>1751.081</ele>
        <time>2022-09-17T07:50:48Z</time>
      </trkpt>
      <trkpt lat="42.64189" lon="1.69862">
        <ele>1751.137</ele>
        <time>2022-09-17T07:50:50Z</time>
      </trkpt>
      <trkpt lat="42.64188" lon="1.69859">
        <ele>1751.241</ele>
        <time>2022-09-17T07:50:52Z</time>
      </trkpt>
      <trkpt lat="42.64188" lon="1.69857">
        <ele>1751.191</ele>
        <time>2022-09-17T07:50:54Z</time>
      </trkpt>
      <trkpt lat="42.64188" lon="1.69855">
        <ele>1753.262</ele>
        <time>2022-09-17T07:50:56Z</time>
      </trkpt>
      <trkpt lat="42.64187" lon="1.69854">
        <ele>1754.841</ele>
        <time>2022-09-17T07:50:58Z</time>
      </trkpt>
      <trkpt lat="42.64187" lon="1.69852">
        <ele>1755.127</ele>
        <time>2022-09-17T07:51:00Z</time>
      </trkpt>
      <trkpt lat="42.64186" lon="1.69851">
        <ele>1755.503</ele>
        <time>2022-09-17T07:51:02Z</time>
      </trkpt>
      <trkpt lat="42.64185" lon="1.69851">
        <ele>1755.798</ele>
        <time>2022-09-17T07:51:04Z</time>
      </trkpt>
      <trkpt lat="42.64184" lon="1.69849">
        <ele>1755.985</ele>
        <time>2022-09-17T07:51:06Z</time>
      </trkpt>
      <trkpt lat="42.64183" lon="1.69849">
        <ele>1755.77</ele>
        <time>2022-09-17T07:51:08Z</time>
      </trkpt>
      <trkpt lat="42.64182" lon="1.69848">
        <ele>1755.648</ele>
        <time>2022-09-17T07:51:10Z</time>
      </trkpt>
      <trkpt lat="42.64182" lon="1.69847">
        <ele>1756.182</ele>
        <time>2022-09-17T07:51:12Z</time>
      </trkpt>
      <trkpt lat="42.64181" lon="1.69846">
        <ele>1755.886</ele>
        <time>2022-09-17T07:51:14Z</time>
      </trkpt>
      <trkpt lat="42.6418" lon="1.69846">
        <ele>1757.178</ele>
        <time>2022-09-17T07:51:16Z</time>
      </trkpt>
      <trkpt lat="42.64179" lon="1.69845">
        <ele>1756.816</ele>
        <time>2022-09-17T07:51:18Z</time>
      </trkpt>
      <trkpt lat="42.64178" lon="1.69845">
        <ele>1757.28</ele>
        <time>2022-09-17T07:51:20Z</time>
      </trkpt>
      <trkpt lat="42.64176" lon="1.69845">
        <ele>1757.525</ele>
        <time>2022-09-17T07:51:22Z</time>
      </trkpt>
      <trkpt lat="42.64175" lon="1.69844">
        <ele>1758.747</ele>
        <time>2022-09-17T07:51:24Z</time>
      </trkpt>
      <trkpt lat="42.64174" lon="1.69843">
        <ele>1759.181</ele>
        <time>2022-09-17T07:51:26Z</time>
      </trkpt>
      <trkpt lat="42.64174" lon="1.69843">
        <ele>1760.064</ele>
        <time>2022-09-17T07:51:28Z</time>
      </trkpt>
      <trkpt lat="42.64173" lon="1.69842">
        <ele>1760.868</ele>
        <time>2022-09-17T07:51:30Z</time>
      </trkpt>
      <trkpt lat="42.64171" lon="1.69842">
        <ele>1760.968</ele>
        <time>2022-09-17T07:51:32Z</time>
      </trkpt>
      <trkpt lat="42.6417" lon="1.69841">
        <ele>1761.535</ele>
        <time>2022-09-17T07:51:34Z</time>
      </trkpt>
      <trkpt lat="42.6417" lon="1.6984">
        <ele>1761.692</ele>
        <time>2022-09-17T07:51:36Z</time>
      </trkpt>
      <trkpt lat="42.64168" lon="1.6984">
        <ele>1762.099</ele>
        <time>2022-09-17T07:51:38Z</time>
      </trkpt>
      <trkpt lat="42.64167" lon="1.69838">
        <ele>1762.478</ele>
        <time>2022-09-17T07:51:40Z</time>
      </trkpt>
      <trkpt lat="42.64166" lon="1.69838">
        <ele>1762.279</ele>
        <time>2022-09-17T07:51:42Z</time>
      </trkpt>
      <trkpt lat="42.64164" lon="1.69836">
        <ele>1761.553</ele>
        <time>2022-09-17T07:51:44Z</time>
      </trkpt>
      <trkpt lat="42.64163" lon="1.69834">
        <ele>1761.821</ele>
        <time>2022-09-17T07:51:46Z</time>
      </trkpt>
      <trkpt lat="42.64161" lon="1.69833">
        <ele>1762.443</ele>
        <time>2022-09-17T07:51:48Z</time>
      </trkpt>
      <trkpt lat="42.6416" lon="1.69831">
        <ele>1763.136</ele>
        <time>2022-09-17T07:51:50Z</time>
      </trkpt>
      <trkpt lat="42.64159" lon="1.6983">
        <ele>1764.04</ele>
        <time>2022-09-17T07:51:52Z</time>
      </trkpt>
      <trkpt lat="42.64157" lon="1.69829">
        <ele>1763.978</ele>
        <time>2022-09-17T07:51:54Z</time>
      </trkpt>
      <trkpt lat="42.64156" lon="1.69828">
        <ele>1764.835</ele>
        <time>2022-09-17T07:51:56Z</time>
      </trkpt>
      <trkpt lat="42.64155" lon="1.69826">
        <ele>1765.273</ele>
        <time>2022-09-17T07:51:58Z</time>
      </trkpt>
      <trkpt lat="42.64154" lon="1.69825">
        <ele>1765.982</ele>
        <time>2022-09-17T07:52:00Z</time>
      </trkpt>
      <trkpt lat="42.64153" lon="1.69823">
        <ele>1766.163</ele>
        <time>2022-09-17T07:52:02Z</time>
      </trkpt>
      <trkpt lat="42.64151" lon="1.69822">
        <ele>1766.457</ele>
        <time>2022-09-17T07:52:04Z</time>
      </trkpt>
      <trkpt lat="42.64151" lon="1.6982">
        <ele>1766.596</ele>
        <time>2022-09-17T07:52:06Z</time>
      </trkpt>
      <trkpt lat="42.6415" lon="1.69818">
        <ele>1766.691</ele>
        <time>2022-09-17T07:52:08Z</time>
      </trkpt>
      <trkpt lat="42.64148" lon="1.69817">
        <ele>1766.852</ele>
        <time>2022-09-17T07:52:10Z</time>
      </trkpt>
      <trkpt lat="42.64147" lon="1.69817">
        <ele>1766.664</ele>
        <time>2022-09-17T07:52:12Z</time>
      </trkpt>
      <trkpt lat="42.64145" lon="1.69816">
        <ele>1766.159</ele>
        <time>2022-09-17T07:52:14Z</time>
      </trkpt>
      <trkpt lat="42.64144" lon="1.69815">
        <ele>1765.039</ele>
        <time>2022-09-17T07:52:16Z</time>
      </trkpt>
      <trkpt lat="42.64142" lon="1.69814">
        <ele>1764.999</ele>
        <time>2022-09-17T07:52:18Z</time>
      </trkpt>
      <trkpt lat="42.6414" lon="1.69812">
        <ele>1764.971</ele>
        <time>2022-09-17T07:52:20Z</time>
      </trkpt>
      <trkpt lat="42.64138" lon="1.69811">
        <ele>1765.309</ele>
        <time>2022-09-17T07:52:22Z</time>
      </trkpt>
      <trkpt lat="42.64136" lon="1.6981">
        <ele>1764.946</ele>
        <time>2022-09-17T07:52:24Z</time>
      </trkpt>
      <trkpt lat="42.64134" lon="1.69807">
        <ele>1764.733</ele>
        <time>2022-09-17T07:52:26Z</time>
      </trkpt>
      <trkpt lat="42.64132" lon="1.69805">
        <ele>1765.417</ele>
        <time>2022-09-17T07:52:28Z</time>
      </trkpt>
      <trkpt lat="42.6413" lon="1.69803">
        <ele>1765.844</ele>
        <time>2022-09-17T07:52:30Z</time>
      </trkpt>
      <trkpt lat="42.64128" lon="1.69802">
        <ele>1767.107</ele>
        <time>2022-09-17T07:52:32Z</time>
      </trkpt>
      <trkpt lat="42.64126" lon="1.69801">
        <ele>1768.015</ele>
        <time>2022-09-17T07:52:34Z</time>
      </trkpt>
      <trkpt lat="42.64124" lon="1.698">
        <ele>1768.074</ele>
        <time>2022-09-17T07:52:36Z</time>
      </trkpt>
      <trkpt lat="42.64123" lon="1.69798">
        <ele>1767.555</ele>
        <time>2022-09-17T07:52:38Z</time>
      </trkpt>
      <trkpt lat="42.64123" lon="1.69796">
        <ele>1767.148</ele>
        <time>2022-09-17T07:52:40Z</time>
      </trkpt>
      <trkpt lat="42.64122" lon="1.69794">
        <ele>1767.384</ele>
        <time>2022-09-17T07:52:42Z</time>
      </trkpt>
      <trkpt lat="42.64121" lon="1.69793">
        <ele>1768.822</ele>
        <time>2022-09-17T07:52:44Z</time>
      </trkpt>
      <trkpt lat="42.6412" lon="1.69792">
        <ele>1767.751</ele>
        <time>2022-09-17T07:52:46Z</time>
      </trkpt>
      <trkpt lat="42.64118" lon="1.69791">
        <ele>1767.653</ele>
        <time>2022-09-17T07:52:48Z</time>
      </trkpt>
      <trkpt lat="42.64117" lon="1.69791">
        <ele>1767.773</ele>
        <time>2022-09-17T07:52:50Z</time>
      </trkpt>
      <trkpt lat="42.64116" lon="1.69789">
        <ele>1768.407</ele>
        <time>2022-09-17T07:52:52Z</time>
      </trkpt>
      <trkpt lat="42.64115" lon="1.69788">
        <ele>1768.767</ele>
        <time>2022-09-17T07:52:54Z</time>
      </trkpt>
      <trkpt lat="42.64114" lon="1.69787">
        <ele>1768.314</ele>
        <time>2022-09-17T07:52:56Z</time>
      </trkpt>
      <trkpt lat="42.64113" lon="1.69786">
        <ele>1768.252</ele>
        <time>2022-09-17T07:52:58Z</time>
      </trkpt>
      <trkpt lat="42.64112" lon="1.69785">
        <ele>1768.581</ele>
        <time>2022-09-17T07:53:00Z</time>
      </trkpt>
      <trkpt lat="42.64111" lon="1.69784">
        <ele>1769.16</ele>
        <time>2022-09-17T07:53:02Z</time>
      </trkpt>
      <trkpt lat="42.6411" lon="1.69783">
        <ele>1769.181</ele>
        <time>2022-09-17T07:53:04Z</time>
      </trkpt>
      <trkpt lat="42.64109" lon="1.69783">
        <ele>1769.188</ele>
        <time>2022-09-17T07:53:06Z</time>
      </trkpt>
      <trkpt lat="42.64108" lon="1.69781">
        <ele>1769.945</ele>
        <time>2022-09-17T07:53:08Z</time>
      </trkpt>
      <trkpt lat="42.64106" lon="1.6978">
        <ele>1770.142</ele>
        <time>2022-09-17T07:53:10Z</time>
      </trkpt>
      <trkpt lat="42.64105" lon="1.69778">
        <ele>1770.321</ele>
        <time>2022-09-17T07:53:12Z</time>
      </trkpt>
      <trkpt lat="42.64104" lon="1.69777">
        <ele>1771.563</ele>
        <time>2022-09-17T07:53:14Z</time>
      </trkpt>
      <trkpt lat="42.64103" lon="1.69775">
        <ele>1770.858</ele>
        <time>2022-09-17T07:53:16Z</time>
      </trkpt>
      <trkpt lat="42.64102" lon="1.69774">
        <ele>1770.604</ele>
        <time>2022-09-17T07:53:18Z</time>
      </trkpt>
      <trkpt lat="42.64101" lon="1.69772">
        <ele>1771.364</ele>
        <time>2022-09-17T07:53:20Z</time>
      </trkpt>
      <trkpt lat="42.64099" lon="1.69771">
        <ele>1771.454</ele>
        <time>2022-09-17T07:53:22Z</time>
      </trkpt>
      <trkpt lat="42.64097" lon="1.69771">
        <ele>1771.049</ele>
        <time>2022-09-17T07:53:24Z</time>
      </trkpt>
      <trkpt lat="42.64096" lon="1.6977">
        <ele>1770.92</ele>
        <time>2022-09-17T07:53:26Z</time>
      </trkpt>
      <trkpt lat="42.64096" lon="1.69768">
        <ele>1772.154</ele>
        <time>2022-09-17T07:53:28Z</time>
      </trkpt>
      <trkpt lat="42.64095" lon="1.69765">
        <ele>1773.192</ele>
        <time>2022-09-17T07:53:30Z</time>
      </trkpt>
      <trkpt lat="42.64095" lon="1.69762">
        <ele>1773.228</ele>
        <time>2022-09-17T07:53:32Z</time>
      </trkpt>
      <trkpt lat="42.64094" lon="1.69759">
        <ele>1772.602</ele>
        <time>2022-09-17T07:53:34Z</time>
      </trkpt>
      <trkpt lat="42.64093" lon="1.69756">
        <ele>1770.701</ele>
        <time>2022-09-17T07:53:36Z</time>
      </trkpt>
      <trkpt lat="42.64092" lon="1.69754">
        <ele>1771.434</ele>
        <time>2022-09-17T07:53:38Z</time>
      </trkpt>
      <trkpt lat="42.64092" lon="1.69752">
        <ele>1771.599</ele>
        <time>2022-09-17T07:53:40Z</time>
      </trkpt>
      <trkpt lat="42.64091" lon="1.6975">
        <ele>1773.157</ele>
        <time>2022-09-17T07:53:42Z</time>
      </trkpt>
      <trkpt lat="42.6409" lon="1.69749">
        <ele>1773.516</ele>
        <time>2022-09-17T07:53:44Z</time>
      </trkpt>
      <trkpt lat="42.64089" lon="1.69747">
        <ele>1773.621</ele>
        <time>2022-09-17T07:53:46Z</time>
      </trkpt>
      <trkpt lat="42.64087" lon="1.69747">
        <ele>1773.78</ele>
        <time>2022-09-17T07:53:48Z</time>
      </trkpt>
      <trkpt lat="42.64087" lon="1.69745">
        <ele>1774.602</ele>
        <time>2022-09-17T07:53:50Z</time>
      </trkpt>
      <trkpt lat="42.64087" lon="1.69744">
        <ele>1775.508</ele>
        <time>2022-09-17T07:53:52Z</time>
      </trkpt>
      <trkpt lat="42.64087" lon="1.69742">
        <ele>1776.213</ele>
        <time>2022-09-17T07:53:54Z</time>
      </trkpt>
      <trkpt lat="42.64087" lon="1.6974">
        <ele>1775.906</ele>
        <time>2022-09-17T07:53:56Z</time>
      </trkpt>
      <trkpt lat="42.64086" lon="1.6974">
        <ele>1776.847</ele>
        <time>2022-09-17T07:53:58Z</time>
      </trkpt>
      <trkpt lat="42.64086" lon="1.69736">
        <ele>1776.431</ele>
        <time>2022-09-17T07:54:00Z</time>
      </trkpt>
      <trkpt lat="42.64086" lon="1.69733">
        <ele>1776.266</ele>
        <time>2022-09-17T07:54:02Z</time>
      </trkpt>
      <trkpt lat="42.64085" lon="1.69733">
        <ele>1777.094</ele>
        <time>2022-09-17T07:54:04Z</time>
      </trkpt>
      <trkpt lat="42.64084" lon="1.69732">
        <ele>1777.093</ele>
        <time>2022-09-17T07:54:06Z</time>
      </trkpt>
      <trkpt lat="42.64084" lon="1.69732">
        <ele>1778.286</ele>
        <time>2022-09-17T07:54:08Z</time>
      </trkpt>
      <trkpt lat="42.64083" lon="1.69731">
        <ele>1779.368</ele>
        <time>2022-09-17T07:54:10Z</time>
      </trkpt>
      <trkpt lat="42.64082" lon="1.6973">
        <ele>1780.594</ele>
        <time>2022-09-17T07:54:12Z</time>
      </trkpt>
      <trkpt lat="42.64082" lon="1.69728">
        <ele>1781.951</ele>
        <time>2022-09-17T07:54:14Z</time>
      </trkpt>
      <trkpt lat="42.64081" lon="1.69727">
        <ele>1782.67</ele>
        <time>2022-09-17T07:54:16Z</time>
      </trkpt>
      <trkpt lat="42.6408" lon="1.69726">
        <ele>1781.611</ele>
        <time>2022-09-17T07:54:18Z</time>
      </trkpt>
      <trkpt lat="42.64079" lon="1.69724">
        <ele>1782.581</ele>
        <time>2022-09-17T07:54:20Z</time>
      </trkpt>
      <trkpt lat="42.64078" lon="1.69724">
        <ele>1782.783</ele>
        <time>2022-09-17T07:54:22Z</time>
      </trkpt>
      <trkpt lat="42.64077" lon="1.69723">
        <ele>1782.219</ele>
        <time>2022-09-17T07:54:24Z</time>
      </trkpt>
      <trkpt lat="42.64076" lon="1.69721">
        <ele>1782.952</ele>
        <time>2022-09-17T07:54:26Z</time>
      </trkpt>
      <trkpt lat="42.64076" lon="1.69719">
        <ele>1782.862</ele>
        <time>2022-09-17T07:54:28Z</time>
      </trkpt>
      <trkpt lat="42.64075" lon="1.69718">
        <ele>1783.158</ele>
        <time>2022-09-17T07:54:30Z</time>
      </trkpt>
      <trkpt lat="42.64074" lon="1.69717">
        <ele>1783.18</ele>
        <time>2022-09-17T07:54:32Z</time>
      </trkpt>
      <trkpt lat="42.64074" lon="1.69715">
        <ele>1782.892</ele>
        <time>2022-09-17T07:54:34Z</time>
      </trkpt>
      <trkpt lat="42.64073" lon="1.69714">
        <ele>1784.129</ele>
        <time>2022-09-17T07:54:36Z</time>
      </trkpt>
      <trkpt lat="42.64073" lon="1.69713">
        <ele>1784.357</ele>
        <time>2022-09-17T07:54:38Z</time>
      </trkpt>
      <trkpt lat="42.64072" lon="1.69712">
        <ele>1784.257</ele>
        <time>2022-09-17T07:54:40Z</time>
      </trkpt>
      <trkpt lat="42.64071" lon="1.69711">
        <ele>1784.264</ele>
        <time>2022-09-17T07:54:42Z</time>
      </trkpt>
      <trkpt lat="42.6407" lon="1.69709">
        <ele>1784.753</ele>
        <time>2022-09-17T07:54:44Z</time>
      </trkpt>
      <trkpt lat="42.6407" lon="1.69708">
        <ele>1785.428</ele>
        <time>2022-09-17T07:54:46Z</time>
      </trkpt>
      <trkpt lat="42.64069" lon="1.69707">
        <ele>1785.376</ele>
        <time>2022-09-17T07:54:48Z</time>
      </trkpt>
      <trkpt lat="42.64068" lon="1.69706">
        <ele>1785.577</ele>
        <time>2022-09-17T07:54:50Z</time>
      </trkpt>
      <trkpt lat="42.64067" lon="1.69705">
        <ele>1786.267</ele>
        <time>2022-09-17T07:54:52Z</time>
      </trkpt>
      <trkpt lat="42.64066" lon="1.69703">
        <ele>1787.297</ele>
        <time>2022-09-17T07:54:54Z</time>
      </trkpt>
      <trkpt lat="42.64065" lon="1.69702">
        <ele>1787.946</ele>
        <time>2022-09-17T07:54:56Z</time>
      </trkpt>
      <trkpt lat="42.64065" lon="1.697">
        <ele>1788.549</ele>
        <time>2022-09-17T07:54:58Z</time>
      </trkpt>
      <trkpt lat="42.64064" lon="1.69699">
        <ele>1788.866</ele>
        <time>2022-09-17T07:55:00Z</time>
      </trkpt>
      <trkpt lat="42.64064" lon="1.69697">
        <ele>1788.739</ele>
        <time>2022-09-17T07:55:02Z</time>
      </trkpt>
      <trkpt lat="42.64063" lon="1.69695">
        <ele>1789.184</ele>
        <time>2022-09-17T07:55:04Z</time>
      </trkpt>
      <trkpt lat="42.64062" lon="1.69693">
        <ele>1789.458</ele>
        <time>2022-09-17T07:55:06Z</time>
      </trkpt>
      <trkpt lat="42.64062" lon="1.69692">
        <ele>1789.844</ele>
        <time>2022-09-17T07:55:08Z</time>
      </trkpt>
      <trkpt lat="42.64061" lon="1.6969">
        <ele>1790.768</ele>
        <time>2022-09-17T07:55:10Z</time>
      </trkpt>
      <trkpt lat="42.64061" lon="1.69688">
        <ele>1790.418</ele>
        <time>2022-09-17T07:55:12Z</time>
      </trkpt>
      <trkpt lat="42.64062" lon="1.69687">
        <ele>1791.171</ele>
        <time>2022-09-17T07:55:14Z</time>
      </trkpt>
      <trkpt lat="42.64062" lon="1.69685">
        <ele>1792.475</ele>
        <time>2022-09-17T07:55:16Z</time>
      </trkpt>
      <trkpt lat="42.64061" lon="1.69684">
        <ele>1792.638</ele>
        <time>2022-09-17T07:55:18Z</time>
      </trkpt>
      <trkpt lat="42.6406" lon="1.69682">
        <ele>1792.982</ele>
        <time>2022-09-17T07:55:20Z</time>
      </trkpt>
      <trkpt lat="42.64059" lon="1.6968">
        <ele>1792.059</ele>
        <time>2022-09-17T07:55:22Z</time>
      </trkpt>
      <trkpt lat="42.64059" lon="1.69679">
        <ele>1793.699</ele>
        <time>2022-09-17T07:55:24Z</time>
      </trkpt>
      <trkpt lat="42.64058" lon="1.69678">
        <ele>1793.961</ele>
        <time>2022-09-17T07:55:26Z</time>
      </trkpt>
      <trkpt lat="42.64058" lon="1.69676">
        <ele>1794.296</ele>
        <time>2022-09-17T07:55:28Z</time>
      </trkpt>
      <trkpt lat="42.64058" lon="1.69675">
        <ele>1794.333</ele>
        <time>2022-09-17T07:55:30Z</time>
      </trkpt>
      <trkpt lat="42.64057" lon="1.69673">
        <ele>1795.533</ele>
        <time>2022-09-17T07:55:32Z</time>
      </trkpt>
      <trkpt lat="42.64057" lon="1.69672">
        <ele>1796.756</ele>
        <time>2022-09-17T07:55:34Z</time>
      </trkpt>
      <trkpt lat="42.64057" lon="1.6967">
        <ele>1797.194</ele>
        <time>2022-09-17T07:55:36Z</time>
      </trkpt>
      <trkpt lat="42.64056" lon="1.69669">
        <ele>1796.303</ele>
        <time>2022-09-17T07:55:38Z</time>
      </trkpt>
      <trkpt lat="42.64055" lon="1.69667">
        <ele>1795.356</ele>
        <time>2022-09-17T07:55:40Z</time>
      </trkpt>
      <trkpt lat="42.64053" lon="1.69665">
        <ele>1795.382</ele>
        <time>2022-09-17T07:55:42Z</time>
      </trkpt>
      <trkpt lat="42.64053" lon="1.69663">
        <ele>1794.782</ele>
        <time>2022-09-17T07:55:44Z</time>
      </trkpt>
      <trkpt lat="42.64052" lon="1.69661">
        <ele>1795.433</ele>
        <time>2022-09-17T07:55:46Z</time>
      </trkpt>
      <trkpt lat="42.64051" lon="1.69659">
        <ele>1795.675</ele>
        <time>2022-09-17T07:55:48Z</time>
      </trkpt>
      <trkpt lat="42.64051" lon="1.69657">
        <ele>1795.881</ele>
        <time>2022-09-17T07:55:50Z</time>
      </trkpt>
      <trkpt lat="42.6405" lon="1.69655">
        <ele>1796.266</ele>
        <time>2022-09-17T07:55:52Z</time>
      </trkpt>
      <trkpt lat="42.64049" lon="1.69654">
        <ele>1796.367</ele>
        <time>2022-09-17T07:55:54Z</time>
      </trkpt>
      <trkpt lat="42.64048" lon="1.69652">
        <ele>1796.824</ele>
        <time>2022-09-17T07:55:56Z</time>
      </trkpt>
      <trkpt lat="42.64048" lon="1.69651">
        <ele>1797.745</ele>
        <time>2022-09-17T07:55:58Z</time>
      </trkpt>
      <trkpt lat="42.64046" lon="1.69649">
        <ele>1797.689</ele>
        <time>2022-09-17T07:56:00Z</time>
      </trkpt>
      <trkpt lat="42.64045" lon="1.69648">
        <ele>1798.163</ele>
        <time>2022-09-17T07:56:02Z</time>
      </trkpt>
      <trkpt lat="42.64045" lon="1.69645">
        <ele>1798.654</ele>
        <time>2022-09-17T07:56:04Z</time>
      </trkpt>
      <trkpt lat="42.64044" lon="1.69643">
        <ele>1799.436</ele>
        <time>2022-09-17T07:56:06Z</time>
      </trkpt>
      <trkpt lat="42.64043" lon="1.69641">
        <ele>1799.867</ele>
        <time>2022-09-17T07:56:08Z</time>
      </trkpt>
      <trkpt lat="42.64043" lon="1.6964">
        <ele>1800.758</ele>
        <time>2022-09-17T07:56:10Z</time>
      </trkpt>
      <trkpt lat="42.64042" lon="1.69638">
        <ele>1800.9</ele>
        <time>2022-09-17T07:56:12Z</time>
      </trkpt>
      <trkpt lat="42.64042" lon="1.69637">
        <ele>1801.297</ele>
        <time>2022-09-17T07:56:14Z</time>
      </trkpt>
      <trkpt lat="42.64041" lon="1.69634">
        <ele>1801.827</ele>
        <time>2022-09-17T07:56:16Z</time>
      </trkpt>
      <trkpt lat="42.64041" lon="1.69632">
        <ele>1801.216</ele>
        <time>2022-09-17T07:56:18Z</time>
      </trkpt>
      <trkpt lat="42.6404" lon="1.6963">
        <ele>1801.783</ele>
        <time>2022-09-17T07:56:20Z</time>
      </trkpt>
      <trkpt lat="42.6404" lon="1.69628">
        <ele>1801.569</ele>
        <time>2022-09-17T07:56:22Z</time>
      </trkpt>
      <trkpt lat="42.64039" lon="1.69626">
        <ele>1802.732</ele>
        <time>2022-09-17T07:56:24Z</time>
      </trkpt>
      <trkpt lat="42.64039" lon="1.69624">
        <ele>1802.705</ele>
        <time>2022-09-17T07:56:26Z</time>
      </trkpt>
      <trkpt lat="42.64039" lon="1.69623">
        <ele>1803.183</ele>
        <time>2022-09-17T07:56:28Z</time>
      </trkpt>
      <trkpt lat="42.64038" lon="1.69622">
        <ele>1803.775</ele>
        <time>2022-09-17T07:56:30Z</time>
      </trkpt>
      <trkpt lat="42.64037" lon="1.69621">
        <ele>1804.473</ele>
        <time>2022-09-17T07:56:32Z</time>
      </trkpt>
      <trkpt lat="42.64036" lon="1.69619">
        <ele>1804.651</ele>
        <time>2022-09-17T07:56:34Z</time>
      </trkpt>
      <trkpt lat="42.64035" lon="1.69618">
        <ele>1804.037</ele>
        <time>2022-09-17T07:56:36Z</time>
      </trkpt>
      <trkpt lat="42.64034" lon="1.69616">
        <ele>1805.278</ele>
        <time>2022-09-17T07:56:38Z</time>
      </trkpt>
      <trkpt lat="42.64033" lon="1.69614">
        <ele>1805.524</ele>
        <time>2022-09-17T07:56:40Z</time>
      </trkpt>
      <trkpt lat="42.64033" lon="1.69612">
        <ele>1805.229</ele>
        <time>2022-09-17T07:56:42Z</time>
      </trkpt>
      <trkpt lat="42.64034" lon="1.6961">
        <ele>1804.848</ele>
        <time>2022-09-17T07:56:44Z</time>
      </trkpt>
      <trkpt lat="42.64033" lon="1.69608">
        <ele>1804.544</ele>
        <time>2022-09-17T07:56:46Z</time>
      </trkpt>
      <trkpt lat="42.64032" lon="1.69605">
        <ele>1803.913</ele>
        <time>2022-09-17T07:56:48Z</time>
      </trkpt>
      <trkpt lat="42.64031" lon="1.69603">
        <ele>1803.948</ele>
        <time>2022-09-17T07:56:50Z</time>
      </trkpt>
      <trkpt lat="42.6403" lon="1.69601">
        <ele>1804.829</ele>
        <time>2022-09-17T07:56:52Z</time>
      </trkpt>
      <trkpt lat="42.64029" lon="1.69599">
        <ele>1804.913</ele>
        <time>2022-09-17T07:56:54Z</time>
      </trkpt>
      <trkpt lat="42.64027" lon="1.69597">
        <ele>1804.494</ele>
        <time>2022-09-17T07:56:56Z</time>
      </trkpt>
      <trkpt lat="42.64026" lon="1.69596">
        <ele>1804.569</ele>
        <time>2022-09-17T07:56:58Z</time>
      </trkpt>
      <trkpt lat="42.64024" lon="1.69595">
        <ele>1804.513</ele>
        <time>2022-09-17T07:57:00Z</time>
      </trkpt>
      <trkpt lat="42.64023" lon="1.69593">
        <ele>1804.847</ele>
        <time>2022-09-17T07:57:02Z</time>
      </trkpt>
      <trkpt lat="42.64022" lon="1.6959">
        <ele>1803.452</ele>
        <time>2022-09-17T07:57:04Z</time>
      </trkpt>
      <trkpt lat="42.64022" lon="1.69588">
        <ele>1803.818</ele>
        <time>2022-09-17T07:57:06Z</time>
      </trkpt>
      <trkpt lat="42.64021" lon="1.69586">
        <ele>1804.104</ele>
        <time>2022-09-17T07:57:08Z</time>
      </trkpt>
      <trkpt lat="42.6402" lon="1.69585">
        <ele>1805.335</ele>
        <time>2022-09-17T07:57:10Z</time>
      </trkpt>
      <trkpt lat="42.64019" lon="1.69583">
        <ele>1805.399</ele>
        <time>2022-09-17T07:57:12Z</time>
      </trkpt>
      <trkpt lat="42.64019" lon="1.69581">
        <ele>1806.051</ele>
        <time>2022-09-17T07:57:14Z</time>
      </trkpt>
      <trkpt lat="42.64018" lon="1.6958">
        <ele>1806.82</ele>
        <time>2022-09-17T07:57:16Z</time>
      </trkpt>
      <trkpt lat="42.64017" lon="1.69579">
        <ele>1807.337</ele>
        <time>2022-09-17T07:57:18Z</time>
      </trkpt>
      <trkpt lat="42.64016" lon="1.69578">
        <ele>1807.007</ele>
        <time>2022-09-17T07:57:20Z</time>
      </trkpt>
      <trkpt lat="42.64015" lon="1.69577">
        <ele>1806.54</ele>
        <time>2022-09-17T07:57:22Z</time>
      </trkpt>
      <trkpt lat="42.64014" lon="1.69575">
        <ele>1807.225</ele>
        <time>2022-09-17T07:57:24Z</time>
      </trkpt>
      <trkpt lat="42.64014" lon="1.69574">
        <ele>1807.549</ele>
        <time>2022-09-17T07:57:26Z</time>
      </trkpt>
      <trkpt lat="42.64014" lon="1.69572">
        <ele>1807.839</ele>
        <time>2022-09-17T07:57:28Z</time>
      </trkpt>
      <trkpt lat="42.64013" lon="1.69571">
        <ele>1809.564</ele>
        <time>2022-09-17T07:57:30Z</time>
      </trkpt>
      <trkpt lat="42.64013" lon="1.6957">
        <ele>1810.423</ele>
        <time>2022-09-17T07:57:32Z</time>
      </trkpt>
      <trkpt lat="42.64012" lon="1.69569">
        <ele>1810.933</ele>
        <time>2022-09-17T07:57:34Z</time>
      </trkpt>
      <trkpt lat="42.64011" lon="1.69566">
        <ele>1810.381</ele>
        <time>2022-09-17T07:57:36Z</time>
      </trkpt>
      <trkpt lat="42.64011" lon="1.69564">
        <ele>1810.357</ele>
        <time>2022-09-17T07:57:38Z</time>
      </trkpt>
      <trkpt lat="42.64011" lon="1.69562">
        <ele>1810.43</ele>
        <time>2022-09-17T07:57:40Z</time>
      </trkpt>
      <trkpt lat="42.6401" lon="1.6956">
        <ele>1811.393</ele>
        <time>2022-09-17T07:57:42Z</time>
      </trkpt>
      <trkpt lat="42.64009" lon="1.69559">
        <ele>1810.383</ele>
        <time>2022-09-17T07:57:44Z</time>
      </trkpt>
      <trkpt lat="42.64009" lon="1.69557">
        <ele>1810.108</ele>
        <time>2022-09-17T07:57:46Z</time>
      </trkpt>
      <trkpt lat="42.6401" lon="1.69555">
        <ele>1810.492</ele>
        <time>2022-09-17T07:57:48Z</time>
      </trkpt>
      <trkpt lat="42.64009" lon="1.69554">
        <ele>1811.665</ele>
        <time>2022-09-17T07:57:50Z</time>
      </trkpt>
      <trkpt lat="42.64008" lon="1.69553">
        <ele>1812.241</ele>
        <time>2022-09-17T07:57:52Z</time>
      </trkpt>
      <trkpt lat="42.64006" lon="1.69552">
        <ele>1812.802</ele>
        <time>2022-09-17T07:57:54Z</time>
      </trkpt>
      <trkpt lat="42.64006" lon="1.69551">
        <ele>1814.61</ele>
        <time>2022-09-17T07:57:56Z</time>
      </trkpt>
      <trkpt lat="42.64005" lon="1.69549">
        <ele>1815.11</ele>
        <time>2022-09-17T07:57:58Z</time>
      </trkpt>
      <trkpt lat="42.64004" lon="1.69547">
        <ele>1815.228</ele>
        <time>2022-09-17T07:58:00Z</time>
      </trkpt>
      <trkpt lat="42.64003" lon="1.69546">
        <ele>1816.112</ele>
        <time>2022-09-17T07:58:02Z</time>
      </trkpt>
      <trkpt lat="42.64003" lon="1.69544">
        <ele>1815.946</ele>
        <time>2022-09-17T07:58:04Z</time>
      </trkpt>
      <trkpt lat="42.64003" lon="1.69543">
        <ele>1815.455</ele>
        <time>2022-09-17T07:58:06Z</time>
      </trkpt>
      <trkpt lat="42.64003" lon="1.69542">
        <ele>1814.223</ele>
        <time>2022-09-17T07:58:08Z</time>
      </trkpt>
      <trkpt lat="42.64003" lon="1.6954">
        <ele>1814.19</ele>
        <time>2022-09-17T07:58:10Z</time>
      </trkpt>
      <trkpt lat="42.64003" lon="1.69538">
        <ele>1814.811</ele>
        <time>2022-09-17T07:58:12Z</time>
      </trkpt>
      <trkpt lat="42.64002" lon="1.69537">
        <ele>1815.441</ele>
        <time>2022-09-17T07:58:14Z</time>
      </trkpt>
      <trkpt lat="42.64002" lon="1.69536">
        <ele>1814.768</ele>
        <time>2022-09-17T07:58:16Z</time>
      </trkpt>
      <trkpt lat="42.64001" lon="1.69534">
        <ele>1814.951</ele>
        <time>2022-09-17T07:58:18Z</time>
      </trkpt>
      <trkpt lat="42.64001" lon="1.69533">
        <ele>1814.822</ele>
        <time>2022-09-17T07:58:20Z</time>
      </trkpt>
      <trkpt lat="42.64" lon="1.69532">
        <ele>1814.629</ele>
        <time>2022-09-17T07:58:22Z</time>
      </trkpt>
      <trkpt lat="42.64" lon="1.69531">
        <ele>1814.54</ele>
        <time>2022-09-17T07:58:24Z</time>
      </trkpt>
      <trkpt lat="42.63999" lon="1.6953">
        <ele>1814.267</ele>
        <time>2022-09-17T07:58:26Z</time>
      </trkpt>
      <trkpt lat="42.63998" lon="1.69529">
        <ele>1814.754</ele>
        <time>2022-09-17T07:58:28Z</time>
      </trkpt>
      <trkpt lat="42.63997" lon="1.69527">
        <ele>1814.96</ele>
        <time>2022-09-17T07:58:30Z</time>
      </trkpt>
      <trkpt lat="42.63997" lon="1.69525">
        <ele>1815.631</ele>
        <time>2022-09-17T07:58:32Z</time>
      </trkpt>
      <trkpt lat="42.63998" lon="1.69524">
        <ele>1816.891</ele>
        <time>2022-09-17T07:58:34Z</time>
      </trkpt>
      <trkpt lat="42.63998" lon="1.69521">
        <ele>1817.693</ele>
        <time>2022-09-17T07:58:36Z</time>
      </trkpt>
      <trkpt lat="42.63997" lon="1.69519">
        <ele>1817.6</ele>
        <time>2022-09-17T07:58:38Z</time>
      </trkpt>
      <trkpt lat="42.63997" lon="1.69518">
        <ele>1818.277</ele>
        <time>2022-09-17T07:58:40Z</time>
      </trkpt>
      <trkpt lat="42.63996" lon="1.69516">
        <ele>1817.781</ele>
        <time>2022-09-17T07:58:42Z</time>
      </trkpt>
      <trkpt lat="42.63995" lon="1.69515">
        <ele>1817.592</ele>
        <time>2022-09-17T07:58:44Z</time>
      </trkpt>
      <trkpt lat="42.63994" lon="1.69514">
        <ele>1818.232</ele>
        <time>2022-09-17T07:58:46Z</time>
      </trkpt>
      <trkpt lat="42.63995" lon="1.69513">
        <ele>1818.867</ele>
        <time>2022-09-17T07:58:48Z</time>
      </trkpt>
      <trkpt lat="42.63995" lon="1.69511">
        <ele>1819.867</ele>
        <time>2022-09-17T07:58:50Z</time>
      </trkpt>
      <trkpt lat="42.63995" lon="1.6951">
        <ele>1820.016</ele>
        <time>2022-09-17T07:58:52Z</time>
      </trkpt>
      <trkpt lat="42.63994" lon="1.69508">
        <ele>1820.09</ele>
        <time>2022-09-17T07:58:54Z</time>
      </trkpt>
      <trkpt lat="42.63994" lon="1.69506">
        <ele>1818.515</ele>
        <time>2022-09-17T07:58:56Z</time>
      </trkpt>
      <trkpt lat="42.63993" lon="1.69505">
        <ele>1816.419</ele>
        <time>2022-09-17T07:58:58Z</time>
      </trkpt>
      <trkpt lat="42.63991" lon="1.69504">
        <ele>1815.956</ele>
        <time>2022-09-17T07:59:00Z</time>
      </trkpt>
      <trkpt lat="42.6399" lon="1.69503">
        <ele>1816.079</ele>
        <time>2022-09-17T07:59:02Z</time>
      </trkpt>
      <trkpt lat="42.63989" lon="1.69501">
        <ele>1815.188</ele>
        <time>2022-09-17T07:59:04Z</time>
      </trkpt>
      <trkpt lat="42.63988" lon="1.69499">
        <ele>1816.864</ele>
        <time>2022-09-17T07:59:06Z</time>
      </trkpt>
      <trkpt lat="42.63987" lon="1.69497">
        <ele>1816.361</ele>
        <time>2022-09-17T07:59:08Z</time>
      </trkpt>
      <trkpt lat="42.63986" lon="1.69496">
        <ele>1816.618</ele>
        <time>2022-09-17T07:59:10Z</time>
      </trkpt>
      <trkpt lat="42.63985" lon="1.69496">
        <ele>1817.39</ele>
        <time>2022-09-17T07:59:12Z</time>
      </trkpt>
      <trkpt lat="42.63983" lon="1.69497">
        <ele>1818.718</ele>
        <time>2022-09-17T07:59:14Z</time>
      </trkpt>
      <trkpt lat="42.63982" lon="1.69497">
        <ele>1817.852</ele>
        <time>2022-09-17T07:59:16Z</time>
      </trkpt>
      <trkpt lat="42.6398" lon="1.69495">
        <ele>1817.959</ele>
        <time>2022-09-17T07:59:18Z</time>
      </trkpt>
      <trkpt lat="42.63979" lon="1.69493">
        <ele>1819.302</ele>
        <time>2022-09-17T07:59:20Z</time>
      </trkpt>
      <trkpt lat="42.63978" lon="1.69491">
        <ele>1818.507</ele>
        <time>2022-09-17T07:59:22Z</time>
      </trkpt>
      <trkpt lat="42.63977" lon="1.6949">
        <ele>1818.745</ele>
        <time>2022-09-17T07:59:24Z</time>
      </trkpt>
      <trkpt lat="42.63976" lon="1.69487">
        <ele>1820.287</ele>
        <time>2022-09-17T07:59:26Z</time>
      </trkpt>
      <trkpt lat="42.63975" lon="1.69485">
        <ele>1821.182</ele>
        <time>2022-09-17T07:59:28Z</time>
      </trkpt>
      <trkpt lat="42.63974" lon="1.69482">
        <ele>1820.769</ele>
        <time>2022-09-17T07:59:30Z</time>
      </trkpt>
      <trkpt lat="42.63972" lon="1.6948">
        <ele>1822.094</ele>
        <time>2022-09-17T07:59:32Z</time>
      </trkpt>
      <trkpt lat="42.63971" lon="1.69479">
        <ele>1822.012</ele>
        <time>2022-09-17T07:59:34Z</time>
      </trkpt>
      <trkpt lat="42.63969" lon="1.69478">
        <ele>1821.79</ele>
        <time>2022-09-17T07:59:36Z</time>
      </trkpt>
      <trkpt lat="42.63967" lon="1.69477">
        <ele>1821.202</ele>
        <time>2022-09-17T07:59:38Z</time>
      </trkpt>
      <trkpt lat="42.63965" lon="1.69474">
        <ele>1821.009</ele>
        <time>2022-09-17T07:59:40Z</time>
      </trkpt>
      <trkpt lat="42.63963" lon="1.69471">
        <ele>1822.188</ele>
        <time>2022-09-17T07:59:42Z</time>
      </trkpt>
      <trkpt lat="42.63962" lon="1.6947">
        <ele>1821.939</ele>
        <time>2022-09-17T07:59:44Z</time>
      </trkpt>
      <trkpt lat="42.6396" lon="1.69469">
        <ele>1822.316</ele>
        <time>2022-09-17T07:59:46Z</time>
      </trkpt>
      <trkpt lat="42.6396" lon="1.69468">
        <ele>1823.197</ele>
        <time>2022-09-17T07:59:48Z</time>
      </trkpt>
      <trkpt lat="42.63958" lon="1.69466">
        <ele>1824.467</ele>
        <time>2022-09-17T07:59:50Z</time>
      </trkpt>
      <trkpt lat="42.63957" lon="1.69464">
        <ele>1824.827</ele>
        <time>2022-09-17T07:59:52Z</time>
      </trkpt>
      <trkpt lat="42.63956" lon="1.69463">
        <ele>1826.028</ele>
        <time>2022-09-17T07:59:54Z</time>
      </trkpt>
      <trkpt lat="42.63954" lon="1.69462">
        <ele>1825.387</ele>
        <time>2022-09-17T07:59:56Z</time>
      </trkpt>
      <trkpt lat="42.63953" lon="1.6946">
        <ele>1825.27</ele>
        <time>2022-09-17T07:59:58Z</time>
      </trkpt>
      <trkpt lat="42.63952" lon="1.69458">
        <ele>1825.309</ele>
        <time>2022-09-17T08:00:00Z</time>
      </trkpt>
      <trkpt lat="42.63951" lon="1.69455">
        <ele>1825.308</ele>
        <time>2022-09-17T08:00:02Z</time>
      </trkpt>
      <trkpt lat="42.6395" lon="1.69453">
        <ele>1825.576</ele>
        <time>2022-09-17T08:00:04Z</time>
      </trkpt>
      <trkpt lat="42.63949" lon="1.6945">
        <ele>1826.126</ele>
        <time>2022-09-17T08:00:06Z</time>
      </trkpt>
      <trkpt lat="42.63949" lon="1.69448">
        <ele>1826.566</ele>
        <time>2022-09-17T08:00:08Z</time>
      </trkpt>
      <trkpt lat="42.63948" lon="1.69446">
        <ele>1827.259</ele>
        <time>2022-09-17T08:00:10Z</time>
      </trkpt>
      <trkpt lat="42.63946" lon="1.69445">
        <ele>1828.209</ele>
        <time>2022-09-17T08:00:12Z</time>
      </trkpt>
      <trkpt lat="42.63945" lon="1.69443">
        <ele>1828.173</ele>
        <time>2022-09-17T08:00:14Z</time>
      </trkpt>
      <trkpt lat="42.63943" lon="1.6944">
        <ele>1826.683</ele>
        <time>2022-09-17T08:00:16Z</time>
      </trkpt>
      <trkpt lat="42.63942" lon="1.69437">
        <ele>1824.849</ele>
        <time>2022-09-17T08:00:18Z</time>
      </trkpt>
      <trkpt lat="42.6394" lon="1.69433">
        <ele>1825.117</ele>
        <time>2022-09-17T08:00:20Z</time>
      </trkpt>
      <trkpt lat="42.63939" lon="1.6943">
        <ele>1824.641</ele>
        <time>2022-09-17T08:00:22Z</time>
      </trkpt>
      <trkpt lat="42.63939" lon="1.69426">
        <ele>1822.642</ele>
        <time>2022-09-17T08:00:24Z</time>
      </trkpt>
      <trkpt lat="42.63939" lon="1.69422">
        <ele>1822.076</ele>
        <time>2022-09-17T08:00:26Z</time>
      </trkpt>
      <trkpt lat="42.63939" lon="1.69421">
        <ele>1824.561</ele>
        <time>2022-09-17T08:00:28Z</time>
      </trkpt>
      <trkpt lat="42.63938" lon="1.69419">
        <ele>1825.395</ele>
        <time>2022-09-17T08:00:30Z</time>
      </trkpt>
      <trkpt lat="42.63938" lon="1.69419">
        <ele>1826.618</ele>
        <time>2022-09-17T08:00:32Z</time>
      </trkpt>
      <trkpt lat="42.63938" lon="1.69416">
        <ele>1826.279</ele>
        <time>2022-09-17T08:00:34Z</time>
      </trkpt>
      <trkpt lat="42.63937" lon="1.69412">
        <ele>1823.229</ele>
        <time>2022-09-17T08:00:36Z</time>
      </trkpt>
      <trkpt lat="42.63937" lon="1.69407">
        <ele>1821.403</ele>
        <time>2022-09-17T08:00:38Z</time>
      </trkpt>
      <trkpt lat="42.63938" lon="1.69402">
        <ele>1820.09</ele>
        <time>2022-09-17T08:00:40Z</time>
      </trkpt>
      <trkpt lat="42.63937" lon="1.69399">
        <ele>1819.576</ele>
        <time>2022-09-17T08:00:42Z</time>
      </trkpt>
      <trkpt lat="42.63937" lon="1.69396">
        <ele>1818.495</ele>
        <time>2022-09-17T08:00:44Z</time>
      </trkpt>
      <trkpt lat="42.63937" lon="1.69394">
        <ele>1817.854</ele>
        <time>2022-09-17T08:00:46Z</time>
      </trkpt>
      <trkpt lat="42.63936" lon="1.69394">
        <ele>1819.502</ele>
        <time>2022-09-17T08:00:48Z</time>
      </trkpt>
      <trkpt lat="42.63936" lon="1.69392">
        <ele>1820.334</ele>
        <time>2022-09-17T08:00:50Z</time>
      </trkpt>
      <trkpt lat="42.63936" lon="1.69392">
        <ele>1822.064</ele>
        <time>2022-09-17T08:00:52Z</time>
      </trkpt>
      <trkpt lat="42.63936" lon="1.69391">
        <ele>1822.852</ele>
        <time>2022-09-17T08:00:54Z</time>
      </trkpt>
      <trkpt lat="42.63936" lon="1.69389">
        <ele>1823.673</ele>
        <time>2022-09-17T08:00:56Z</time>
      </trkpt>
      <trkpt lat="42.63935" lon="1.69388">
        <ele>1825.253</ele>
        <time>2022-09-17T08:00:58Z</time>
      </trkpt>
      <trkpt lat="42.63935" lon="1.69386">
        <ele>1825.665</ele>
        <time>2022-09-17T08:01:00Z</time>
      </trkpt>
      <trkpt lat="42.63934" lon="1.69384">
        <ele>1826.904</ele>
        <time>2022-09-17T08:01:02Z</time>
      </trkpt>
      <trkpt lat="42.63934" lon="1.69381">
        <ele>1826.779</ele>
        <time>2022-09-17T08:01:04Z</time>
      </trkpt>
      <trkpt lat="42.63933" lon="1.6938">
        <ele>1827.943</ele>
        <time>2022-09-17T08:01:06Z</time>
      </trkpt>
      <trkpt lat="42.63932" lon="1.69378">
        <ele>1829.498</ele>
        <time>2022-09-17T08:01:08Z</time>
      </trkpt>
      <trkpt lat="42.63931" lon="1.69376">
        <ele>1829.676</ele>
        <time>2022-09-17T08:01:10Z</time>
      </trkpt>
      <trkpt lat="42.6393" lon="1.69375">
        <ele>1830.892</ele>
        <time>2022-09-17T08:01:12Z</time>
      </trkpt>
      <trkpt lat="42.63929" lon="1.69373">
        <ele>1829.987</ele>
        <time>2022-09-17T08:01:14Z</time>
      </trkpt>
      <trkpt lat="42.63928" lon="1.69371">
        <ele>1829.858</ele>
        <time>2022-09-17T08:01:16Z</time>
      </trkpt>
      <trkpt lat="42.63927" lon="1.6937">
        <ele>1829.971</ele>
        <time>2022-09-17T08:01:18Z</time>
      </trkpt>
      <trkpt lat="42.63926" lon="1.69369">
        <ele>1830.036</ele>
        <time>2022-09-17T08:01:20Z</time>
      </trkpt>
      <trkpt lat="42.63924" lon="1.69367">
        <ele>1829.853</ele>
        <time>2022-09-17T08:01:22Z</time>
      </trkpt>
      <trkpt lat="42.63923" lon="1.69366">
        <ele>1828.739</ele>
        <time>2022-09-17T08:01:24Z</time>
      </trkpt>
      <trkpt lat="42.63923" lon="1.69364">
        <ele>1828.629</ele>
        <time>2022-09-17T08:01:26Z</time>
      </trkpt>
      <trkpt lat="42.63923" lon="1.69364">
        <ele>1828.638</ele>
        <time>2022-09-17T08:01:28Z</time>
      </trkpt>
      <trkpt lat="42.63923" lon="1.69364">
        <ele>1828.644</ele>
        <time>2022-09-17T08:01:30Z</time>
      </trkpt>
      <trkpt lat="42.63923" lon="1.69362">
        <ele>1829.438</ele>
        <time>2022-09-17T08:01:32Z</time>
      </trkpt>
      <trkpt lat="42.63923" lon="1.69358">
        <ele>1828.219</ele>
        <time>2022-09-17T08:01:34Z</time>
      </trkpt>
      <trkpt lat="42.63922" lon="1.69355">
        <ele>1827.78</ele>
        <time>2022-09-17T08:01:36Z</time>
      </trkpt>
      <trkpt lat="42.63921" lon="1.69353">
        <ele>1828.681</ele>
        <time>2022-09-17T08:01:38Z</time>
      </trkpt>
      <trkpt lat="42.6392" lon="1.69351">
        <ele>1829.778</ele>
        <time>2022-09-17T08:01:40Z</time>
      </trkpt>
      <trkpt lat="42.63919" lon="1.6935">
        <ele>1831.559</ele>
        <time>2022-09-17T08:01:42Z</time>
      </trkpt>
      <trkpt lat="42.63918" lon="1.69346">
        <ele>1831.324</ele>
        <time>2022-09-17T08:01:44Z</time>
      </trkpt>
      <trkpt lat="42.63918" lon="1.69341">
        <ele>1830.999</ele>
        <time>2022-09-17T08:01:46Z</time>
      </trkpt>
      <trkpt lat="42.63917" lon="1.6934">
        <ele>1830.7</ele>
        <time>2022-09-17T08:01:48Z</time>
      </trkpt>
      <trkpt lat="42.63916" lon="1.6934">
        <ele>1832.712</ele>
        <time>2022-09-17T08:01:50Z</time>
      </trkpt>
      <trkpt lat="42.63915" lon="1.69338">
        <ele>1833.357</ele>
        <time>2022-09-17T08:01:52Z</time>
      </trkpt>
      <trkpt lat="42.63915" lon="1.69337">
        <ele>1834.077</ele>
        <time>2022-09-17T08:01:54Z</time>
      </trkpt>
      <trkpt lat="42.63915" lon="1.69335">
        <ele>1834.795</ele>
        <time>2022-09-17T08:01:56Z</time>
      </trkpt>
      <trkpt lat="42.63915" lon="1.69333">
        <ele>1835.25</ele>
        <time>2022-09-17T08:01:58Z</time>
      </trkpt>
      <trkpt lat="42.63914" lon="1.6933">
        <ele>1835.223</ele>
        <time>2022-09-17T08:02:00Z</time>
      </trkpt>
      <trkpt lat="42.63914" lon="1.69327">
        <ele>1834.082</ele>
        <time>2022-09-17T08:02:02Z</time>
      </trkpt>
      <trkpt lat="42.63914" lon="1.69325">
        <ele>1833.365</ele>
        <time>2022-09-17T08:02:04Z</time>
      </trkpt>
      <trkpt lat="42.63914" lon="1.69323">
        <ele>1832.672</ele>
        <time>2022-09-17T08:02:06Z</time>
      </trkpt>
      <trkpt lat="42.63912" lon="1.6932">
        <ele>1831.989</ele>
        <time>2022-09-17T08:02:08Z</time>
      </trkpt>
      <trkpt lat="42.63911" lon="1.69318">
        <ele>1833.394</ele>
        <time>2022-09-17T08:02:10Z</time>
      </trkpt>
      <trkpt lat="42.63911" lon="1.69317">
        <ele>1835.084</ele>
        <time>2022-09-17T08:02:12Z</time>
      </trkpt>
      <trkpt lat="42.6391" lon="1.69315">
        <ele>1836.386</ele>
        <time>2022-09-17T08:02:14Z</time>
      </trkpt>
      <trkpt lat="42.63909" lon="1.69314">
        <ele>1836.415</ele>
        <time>2022-09-17T08:02:16Z</time>
      </trkpt>
      <trkpt lat="42.63908" lon="1.69312">
        <ele>1837.467</ele>
        <time>2022-09-17T08:02:18Z</time>
      </trkpt>
      <trkpt lat="42.63907" lon="1.6931">
        <ele>1837.489</ele>
        <time>2022-09-17T08:02:20Z</time>
      </trkpt>
      <trkpt lat="42.63906" lon="1.69307">
        <ele>1837.996</ele>
        <time>2022-09-17T08:02:22Z</time>
      </trkpt>
      <trkpt lat="42.63906" lon="1.69306">
        <ele>1838.198</ele>
        <time>2022-09-17T08:02:24Z</time>
      </trkpt>
      <trkpt lat="42.63905" lon="1.69304">
        <ele>1838.922</ele>
        <time>2022-09-17T08:02:26Z</time>
      </trkpt>
      <trkpt lat="42.63904" lon="1.69303">
        <ele>1839.165</ele>
        <time>2022-09-17T08:02:28Z</time>
      </trkpt>
      <trkpt lat="42.63903" lon="1.69302">
        <ele>1838.608</ele>
        <time>2022-09-17T08:02:30Z</time>
      </trkpt>
      <trkpt lat="42.63902" lon="1.693">
        <ele>1840.01</ele>
        <time>2022-09-17T08:02:32Z</time>
      </trkpt>
      <trkpt lat="42.63902" lon="1.69298">
        <ele>1839.769</ele>
        <time>2022-09-17T08:02:34Z</time>
      </trkpt>
      <trkpt lat="42.639" lon="1.69297">
        <ele>1839.985</ele>
        <time>2022-09-17T08:02:36Z</time>
      </trkpt>
      <trkpt lat="42.63899" lon="1.69295">
        <ele>1838.839</ele>
        <time>2022-09-17T08:02:38Z</time>
      </trkpt>
      <trkpt lat="42.63898" lon="1.69294">
        <ele>1838.734</ele>
        <time>2022-09-17T08:02:40Z</time>
      </trkpt>
      <trkpt lat="42.63896" lon="1.69292">
        <ele>1837.645</ele>
        <time>2022-09-17T08:02:42Z</time>
      </trkpt>
      <trkpt lat="42.63895" lon="1.6929">
        <ele>1838.215</ele>
        <time>2022-09-17T08:02:44Z</time>
      </trkpt>
      <trkpt lat="42.63894" lon="1.69288">
        <ele>1838.694</ele>
        <time>2022-09-17T08:02:46Z</time>
      </trkpt>
      <trkpt lat="42.63893" lon="1.69286">
        <ele>1838.832</ele>
        <time>2022-09-17T08:02:48Z</time>
      </trkpt>
      <trkpt lat="42.63891" lon="1.69284">
        <ele>1840.013</ele>
        <time>2022-09-17T08:02:50Z</time>
      </trkpt>
      <trkpt lat="42.6389" lon="1.69282">
        <ele>1841.176</ele>
        <time>2022-09-17T08:02:52Z</time>
      </trkpt>
      <trkpt lat="42.63888" lon="1.6928">
        <ele>1842.09</ele>
        <time>2022-09-17T08:02:54Z</time>
      </trkpt>
      <trkpt lat="42.63888" lon="1.69278">
        <ele>1843.55</ele>
        <time>2022-09-17T08:02:56Z</time>
      </trkpt>
      <trkpt lat="42.63887" lon="1.69276">
        <ele>1844.35</ele>
        <time>2022-09-17T08:02:58Z</time>
      </trkpt>
      <trkpt lat="42.63886" lon="1.69273">
        <ele>1843.989</ele>
        <time>2022-09-17T08:03:00Z</time>
      </trkpt>
      <trkpt lat="42.63885" lon="1.69271">
        <ele>1842.732</ele>
        <time>2022-09-17T08:03:02Z</time>
      </trkpt>
      <trkpt lat="42.63883" lon="1.69268">
        <ele>1843.697</ele>
        <time>2022-09-17T08:03:04Z</time>
      </trkpt>
      <trkpt lat="42.63882" lon="1.69266">
        <ele>1844.107</ele>
        <time>2022-09-17T08:03:06Z</time>
      </trkpt>
      <trkpt lat="42.63881" lon="1.69263">
        <ele>1845.776</ele>
        <time>2022-09-17T08:03:08Z</time>
      </trkpt>
      <trkpt lat="42.6388" lon="1.69261">
        <ele>1846.878</ele>
        <time>2022-09-17T08:03:10Z</time>
      </trkpt>
      <trkpt lat="42.63879" lon="1.69259">
        <ele>1848.349</ele>
        <time>2022-09-17T08:03:12Z</time>
      </trkpt>
      <trkpt lat="42.63877" lon="1.69258">
        <ele>1849.134</ele>
        <time>2022-09-17T08:03:14Z</time>
      </trkpt>
      <trkpt lat="42.63876" lon="1.69255">
        <ele>1849.256</ele>
        <time>2022-09-17T08:03:16Z</time>
      </trkpt>
      <trkpt lat="42.63875" lon="1.69253">
        <ele>1848.935</ele>
        <time>2022-09-17T08:03:18Z</time>
      </trkpt>
      <trkpt lat="42.63873" lon="1.6925">
        <ele>1850.099</ele>
        <time>2022-09-17T08:03:20Z</time>
      </trkpt>
      <trkpt lat="42.63872" lon="1.69247">
        <ele>1849.292</ele>
        <time>2022-09-17T08:03:22Z</time>
      </trkpt>
      <trkpt lat="42.63871" lon="1.69243">
        <ele>1848.348</ele>
        <time>2022-09-17T08:03:24Z</time>
      </trkpt>
      <trkpt lat="42.6387" lon="1.6924">
        <ele>1848.312</ele>
        <time>2022-09-17T08:03:26Z</time>
      </trkpt>
      <trkpt lat="42.63869" lon="1.69238">
        <ele>1848.086</ele>
        <time>2022-09-17T08:03:28Z</time>
      </trkpt>
      <trkpt lat="42.63868" lon="1.69235">
        <ele>1847.542</ele>
        <time>2022-09-17T08:03:30Z</time>
      </trkpt>
      <trkpt lat="42.63867" lon="1.69232">
        <ele>1846.255</ele>
        <time>2022-09-17T08:03:32Z</time>
      </trkpt>
      <trkpt lat="42.63867" lon="1.6923">
        <ele>1845.429</ele>
        <time>2022-09-17T08:03:34Z</time>
      </trkpt>
      <trkpt lat="42.63867" lon="1.69227">
        <ele>1845.854</ele>
        <time>2022-09-17T08:03:36Z</time>
      </trkpt>
      <trkpt lat="42.63867" lon="1.69224">
        <ele>1845.347</ele>
        <time>2022-09-17T08:03:38Z</time>
      </trkpt>
      <trkpt lat="42.63867" lon="1.69222">
        <ele>1845.542</ele>
        <time>2022-09-17T08:03:40Z</time>
      </trkpt>
      <trkpt lat="42.63867" lon="1.69221">
        <ele>1846.44</ele>
        <time>2022-09-17T08:03:42Z</time>
      </trkpt>
      <trkpt lat="42.63866" lon="1.69219">
        <ele>1846.588</ele>
        <time>2022-09-17T08:03:44Z</time>
      </trkpt>
      <trkpt lat="42.63866" lon="1.69217">
        <ele>1847.558</ele>
        <time>2022-09-17T08:03:46Z</time>
      </trkpt>
      <trkpt lat="42.63865" lon="1.69216">
        <ele>1848.873</ele>
        <time>2022-09-17T08:03:48Z</time>
      </trkpt>
      <trkpt lat="42.63865" lon="1.69214">
        <ele>1849.959</ele>
        <time>2022-09-17T08:03:50Z</time>
      </trkpt>
      <trkpt lat="42.63865" lon="1.69212">
        <ele>1850.513</ele>
        <time>2022-09-17T08:03:52Z</time>
      </trkpt>
      <trkpt lat="42.63865" lon="1.6921">
        <ele>1851.006</ele>
        <time>2022-09-17T08:03:54Z</time>
      </trkpt>
      <trkpt lat="42.63864" lon="1.69209">
        <ele>1851.803</ele>
        <time>2022-09-17T08:03:56Z</time>
      </trkpt>
      <trkpt lat="42.63863" lon="1.69208">
        <ele>1851.275</ele>
        <time>2022-09-17T08:03:58Z</time>
      </trkpt>
      <trkpt lat="42.63862" lon="1.69207">
        <ele>1851.054</ele>
        <time>2022-09-17T08:04:00Z</time>
      </trkpt>
      <trkpt lat="42.63862" lon="1.69205">
        <ele>1851.52</ele>
        <time>2022-09-17T08:04:02Z</time>
      </trkpt>
      <trkpt lat="42.63861" lon="1.69203">
        <ele>1852.546</ele>
        <time>2022-09-17T08:04:04Z</time>
      </trkpt>
      <trkpt lat="42.63859" lon="1.69202">
        <ele>1852.505</ele>
        <time>2022-09-17T08:04:06Z</time>
      </trkpt>
      <trkpt lat="42.63858" lon="1.692">
        <ele>1852.913</ele>
        <time>2022-09-17T08:04:08Z</time>
      </trkpt>
      <trkpt lat="42.63857" lon="1.69199">
        <ele>1851.703</ele>
        <time>2022-09-17T08:04:10Z</time>
      </trkpt>
      <trkpt lat="42.63857" lon="1.69197">
        <ele>1850.017</ele>
        <time>2022-09-17T08:04:12Z</time>
      </trkpt>
      <trkpt lat="42.63857" lon="1.69197">
        <ele>1849.992</ele>
        <time>2022-09-17T08:04:14Z</time>
      </trkpt>
      <trkpt lat="42.63857" lon="1.69197">
        <ele>1850</ele>
        <time>2022-09-17T08:04:16Z</time>
      </trkpt>
      <trkpt lat="42.63858" lon="1.69197">
        <ele>1851.173</ele>
        <time>2022-09-17T08:04:18Z</time>
      </trkpt>
      <trkpt lat="42.63858" lon="1.69197">
        <ele>1851.199</ele>
        <time>2022-09-17T08:04:20Z</time>
      </trkpt>
      <trkpt lat="42.63858" lon="1.69197">
        <ele>1851.196</ele>
        <time>2022-09-17T08:04:22Z</time>
      </trkpt>
      <trkpt lat="42.63858" lon="1.69196">
        <ele>1851.632</ele>
        <time>2022-09-17T08:04:24Z</time>
      </trkpt>
      <trkpt lat="42.63858" lon="1.69196">
        <ele>1852.714</ele>
        <time>2022-09-17T08:04:26Z</time>
      </trkpt>
      <trkpt lat="42.63861" lon="1.69197">
        <ele>1853.158</ele>
        <time>2022-09-17T08:04:28Z</time>
      </trkpt>
      <trkpt lat="42.63862" lon="1.69197">
        <ele>1853.139</ele>
        <time>2022-09-17T08:04:30Z</time>
      </trkpt>
      <trkpt lat="42.63863" lon="1.69196">
        <ele>1853.147</ele>
        <time>2022-09-17T08:04:32Z</time>
      </trkpt>
      <trkpt lat="42.63863" lon="1.69196">
        <ele>1853.157</ele>
        <time>2022-09-17T08:04:34Z</time>
      </trkpt>
      <trkpt lat="42.63863" lon="1.69196">
        <ele>1853.176</ele>
        <time>2022-09-17T08:04:36Z</time>
      </trkpt>
      <trkpt lat="42.63863" lon="1.69196">
        <ele>1853.184</ele>
        <time>2022-09-17T08:04:38Z</time>
      </trkpt>
      <trkpt lat="42.63864" lon="1.69196">
        <ele>1853.192</ele>
        <time>2022-09-17T08:04:40Z</time>
      </trkpt>
      <trkpt lat="42.63864" lon="1.69196">
        <ele>1853.201</ele>
        <time>2022-09-17T08:04:42Z</time>
      </trkpt>
      <trkpt lat="42.63864" lon="1.69196">
        <ele>1853.213</ele>
        <time>2022-09-17T08:04:44Z</time>
      </trkpt>
      <trkpt lat="42.63864" lon="1.69196">
        <ele>1853.228</ele>
        <time>2022-09-17T08:04:46Z</time>
      </trkpt>
      <trkpt lat="42.63864" lon="1.69196">
        <ele>1853.233</ele>
        <time>2022-09-17T08:04:48Z</time>
      </trkpt>
      <trkpt lat="42.63864" lon="1.69196">
        <ele>1853.237</ele>
        <time>2022-09-17T08:04:50Z</time>
      </trkpt>
      <trkpt lat="42.63864" lon="1.69196">
        <ele>1853.245</ele>
        <time>2022-09-17T08:04:52Z</time>
      </trkpt>
      <trkpt lat="42.63864" lon="1.69196">
        <ele>1853.256</ele>
        <time>2022-09-17T08:04:54Z</time>
      </trkpt>
      <trkpt lat="42.63864" lon="1.69196">
        <ele>1853.265</ele>
        <time>2022-09-17T08:04:56Z</time>
      </trkpt>
      <trkpt lat="42.63864" lon="1.69196">
        <ele>1853.27</ele>
        <time>2022-09-17T08:04:58Z</time>
      </trkpt>
      <trkpt lat="42.63864" lon="1.69196">
        <ele>1853.279</ele>
        <time>2022-09-17T08:05:00Z</time>
      </trkpt>
      <trkpt lat="42.63864" lon="1.69196">
        <ele>1853.293</ele>
        <time>2022-09-17T08:05:02Z</time>
      </trkpt>
      <trkpt lat="42.63864" lon="1.69196">
        <ele>1853.305</ele>
        <time>2022-09-17T08:05:04Z</time>
      </trkpt>
      <trkpt lat="42.63864" lon="1.69196">
        <ele>1853.313</ele>
        <time>2022-09-17T08:05:06Z</time>
      </trkpt>
      <trkpt lat="42.63864" lon="1.69196">
        <ele>1853.313</ele>
        <time>2022-09-17T08:05:08Z</time>
      </trkpt>
      <trkpt lat="42.63864" lon="1.69196">
        <ele>1853.318</ele>
        <time>2022-09-17T08:05:10Z</time>
      </trkpt>
      <trkpt lat="42.63864" lon="1.69196">
        <ele>1853.323</ele>
        <time>2022-09-17T08:05:12Z</time>
      </trkpt>
      <trkpt lat="42.63864" lon="1.69196">
        <ele>1853.332</ele>
        <time>2022-09-17T08:05:14Z</time>
      </trkpt>
      <trkpt lat="42.63864" lon="1.69196">
        <ele>1853.339</ele>
        <time>2022-09-17T08:05:16Z</time>
      </trkpt>
      <trkpt lat="42.63865" lon="1.69196">
        <ele>1853.347</ele>
        <time>2022-09-17T08:05:18Z</time>
      </trkpt>
      <trkpt lat="42.63865" lon="1.69196">
        <ele>1853.344</ele>
        <time>2022-09-17T08:05:20Z</time>
      </trkpt>
      <trkpt lat="42.63865" lon="1.69196">
        <ele>1853.35</ele>
        <time>2022-09-17T08:05:22Z</time>
      </trkpt>
      <trkpt lat="42.63865" lon="1.69196">
        <ele>1853.354</ele>
        <time>2022-09-17T08:05:24Z</time>
      </trkpt>
      <trkpt lat="42.63865" lon="1.69196">
        <ele>1853.365</ele>
        <time>2022-09-17T08:05:26Z</time>
      </trkpt>
      <trkpt lat="42.63865" lon="1.69196">
        <ele>1853.36</ele>
        <time>2022-09-17T08:05:28Z</time>
      </trkpt>
      <trkpt lat="42.63865" lon="1.69196">
        <ele>1853.355</ele>
        <time>2022-09-17T08:05:30Z</time>
      </trkpt>
      <trkpt lat="42.63865" lon="1.69196">
        <ele>1853.356</ele>
        <time>2022-09-17T08:05:32Z</time>
      </trkpt>
      <trkpt lat="42.63865" lon="1.69196">
        <ele>1853.357</ele>
        <time>2022-09-17T08:05:34Z</time>
      </trkpt>
      <trkpt lat="42.63865" lon="1.69196">
        <ele>1853.354</ele>
        <time>2022-09-17T08:05:36Z</time>
      </trkpt>
      <trkpt lat="42.63865" lon="1.69196">
        <ele>1853.354</ele>
        <time>2022-09-17T08:05:38Z</time>
      </trkpt>
      <trkpt lat="42.63865" lon="1.69196">
        <ele>1853.356</ele>
        <time>2022-09-17T08:05:40Z</time>
      </trkpt>
      <trkpt lat="42.63865" lon="1.69196">
        <ele>1853.361</ele>
        <time>2022-09-17T08:05:42Z</time>
      </trkpt>
      <trkpt lat="42.63865" lon="1.69196">
        <ele>1853.363</ele>
        <time>2022-09-17T08:05:44Z</time>
      </trkpt>
      <trkpt lat="42.63865" lon="1.69196">
        <ele>1853.352</ele>
        <time>2022-09-17T08:05:46Z</time>
      </trkpt>
      <trkpt lat="42.63865" lon="1.69196">
        <ele>1853.358</ele>
        <time>2022-09-17T08:05:48Z</time>
      </trkpt>
      <trkpt lat="42.63865" lon="1.69196">
        <ele>1853.368</ele>
        <time>2022-09-17T08:05:50Z</time>
      </trkpt>
      <trkpt lat="42.63865" lon="1.69196">
        <ele>1853.374</ele>
        <time>2022-09-17T08:05:52Z</time>
      </trkpt>
      <trkpt lat="42.63865" lon="1.69196">
        <ele>1853.377</ele>
        <time>2022-09-17T08:05:54Z</time>
      </trkpt>
      <trkpt lat="42.63865" lon="1.69196">
        <ele>1853.381</ele>
        <time>2022-09-17T08:05:56Z</time>
      </trkpt>
      <trkpt lat="42.63865" lon="1.69196">
        <ele>1853.387</ele>
        <time>2022-09-17T08:05:58Z</time>
      </trkpt>
      <trkpt lat="42.63865" lon="1.69196">
        <ele>1853.384</ele>
        <time>2022-09-17T08:06:00Z</time>
      </trkpt>
      <trkpt lat="42.63865" lon="1.69196">
        <ele>1853.389</ele>
        <time>2022-09-17T08:06:02Z</time>
      </trkpt>
      <trkpt lat="42.63865" lon="1.69196">
        <ele>1853.388</ele>
        <time>2022-09-17T08:06:04Z</time>
      </trkpt>
      <trkpt lat="42.63865" lon="1.69196">
        <ele>1853.383</ele>
        <time>2022-09-17T08:06:06Z</time>
      </trkpt>
      <trkpt lat="42.63865" lon="1.69196">
        <ele>1853.383</ele>
        <time>2022-09-17T08:06:08Z</time>
      </trkpt>
      <trkpt lat="42.63865" lon="1.69196">
        <ele>1853.384</ele>
        <time>2022-09-17T08:06:10Z</time>
      </trkpt>
      <trkpt lat="42.63865" lon="1.69196">
        <ele>1853.389</ele>
        <time>2022-09-17T08:06:12Z</time>
      </trkpt>
      <trkpt lat="42.63865" lon="1.69196">
        <ele>1853.391</ele>
        <time>2022-09-17T08:06:14Z</time>
      </trkpt>
      <trkpt lat="42.63865" lon="1.69196">
        <ele>1853.395</ele>
        <time>2022-09-17T08:06:16Z</time>
      </trkpt>
      <trkpt lat="42.63864" lon="1.69196">
        <ele>1854.099</ele>
        <time>2022-09-17T08:06:18Z</time>
      </trkpt>
      <trkpt lat="42.63863" lon="1.69195">
        <ele>1854.603</ele>
        <time>2022-09-17T08:06:20Z</time>
      </trkpt>
      <trkpt lat="42.63863" lon="1.69194">
        <ele>1854.639</ele>
        <time>2022-09-17T08:06:22Z</time>
      </trkpt>
      <trkpt lat="42.63863" lon="1.69195">
        <ele>1854.652</ele>
        <time>2022-09-17T08:06:24Z</time>
      </trkpt>
      <trkpt lat="42.63863" lon="1.69195">
        <ele>1854.67</ele>
        <time>2022-09-17T08:06:26Z</time>
      </trkpt>
      <trkpt lat="42.63863" lon="1.69195">
        <ele>1854.671</ele>
        <time>2022-09-17T08:06:28Z</time>
      </trkpt>
      <trkpt lat="42.63863" lon="1.69195">
        <ele>1854.685</ele>
        <time>2022-09-17T08:06:30Z</time>
      </trkpt>
      <trkpt lat="42.63863" lon="1.69195">
        <ele>1854.677</ele>
        <time>2022-09-17T08:06:32Z</time>
      </trkpt>
      <trkpt lat="42.63863" lon="1.69195">
        <ele>1854.676</ele>
        <time>2022-09-17T08:06:34Z</time>
      </trkpt>
      <trkpt lat="42.63863" lon="1.69195">
        <ele>1854.695</ele>
        <time>2022-09-17T08:06:36Z</time>
      </trkpt>
      <trkpt lat="42.63863" lon="1.69195">
        <ele>1854.711</ele>
        <time>2022-09-17T08:06:38Z</time>
      </trkpt>
      <trkpt lat="42.63863" lon="1.69195">
        <ele>1854.721</ele>
        <time>2022-09-17T08:06:40Z</time>
      </trkpt>
      <trkpt lat="42.63863" lon="1.69195">
        <ele>1854.737</ele>
        <time>2022-09-17T08:06:42Z</time>
      </trkpt>
      <trkpt lat="42.63863" lon="1.69195">
        <ele>1854.742</ele>
        <time>2022-09-17T08:06:44Z</time>
      </trkpt>
      <trkpt lat="42.63863" lon="1.69195">
        <ele>1854.749</ele>
        <time>2022-09-17T08:06:46Z</time>
      </trkpt>
      <trkpt lat="42.63863" lon="1.69195">
        <ele>1854.753</ele>
        <time>2022-09-17T08:06:48Z</time>
      </trkpt>
      <trkpt lat="42.63863" lon="1.69195">
        <ele>1854.773</ele>
        <time>2022-09-17T08:06:50Z</time>
      </trkpt>
      <trkpt lat="42.63863" lon="1.69195">
        <ele>1854.787</ele>
        <time>2022-09-17T08:06:52Z</time>
      </trkpt>
      <trkpt lat="42.63863" lon="1.69195">
        <ele>1854.797</ele>
        <time>2022-09-17T08:06:54Z</time>
      </trkpt>
      <trkpt lat="42.63863" lon="1.69195">
        <ele>1854.804</ele>
        <time>2022-09-17T08:06:56Z</time>
      </trkpt>
      <trkpt lat="42.63863" lon="1.69195">
        <ele>1854.802</ele>
        <time>2022-09-17T08:06:58Z</time>
      </trkpt>
      <trkpt lat="42.63863" lon="1.69195">
        <ele>1854.814</ele>
        <time>2022-09-17T08:07:00Z</time>
      </trkpt>
      <trkpt lat="42.63863" lon="1.69195">
        <ele>1854.826</ele>
        <time>2022-09-17T08:07:02Z</time>
      </trkpt>
      <trkpt lat="42.63863" lon="1.69195">
        <ele>1854.828</ele>
        <time>2022-09-17T08:07:04Z</time>
      </trkpt>
      <trkpt lat="42.63863" lon="1.69195">
        <ele>1854.829</ele>
        <time>2022-09-17T08:07:06Z</time>
      </trkpt>
      <trkpt lat="42.63863" lon="1.69195">
        <ele>1854.829</ele>
        <time>2022-09-17T08:07:08Z</time>
      </trkpt>
      <trkpt lat="42.63863" lon="1.69195">
        <ele>1854.828</ele>
        <time>2022-09-17T08:07:10Z</time>
      </trkpt>
      <trkpt lat="42.63863" lon="1.69195">
        <ele>1854.831</ele>
        <time>2022-09-17T08:07:12Z</time>
      </trkpt>
      <trkpt lat="42.63863" lon="1.69195">
        <ele>1854.836</ele>
        <time>2022-09-17T08:07:14Z</time>
      </trkpt>
      <trkpt lat="42.63863" lon="1.69195">
        <ele>1854.845</ele>
        <time>2022-09-17T08:07:16Z</time>
      </trkpt>
      <trkpt lat="42.63863" lon="1.69195">
        <ele>1854.844</ele>
        <time>2022-09-17T08:07:18Z</time>
      </trkpt>
      <trkpt lat="42.63863" lon="1.69195">
        <ele>1854.847</ele>
        <time>2022-09-17T08:07:20Z</time>
      </trkpt>
      <trkpt lat="42.63863" lon="1.69195">
        <ele>1854.853</ele>
        <time>2022-09-17T08:07:22Z</time>
      </trkpt>
      <trkpt lat="42.63863" lon="1.69195">
        <ele>1855.775</ele>
        <time>2022-09-17T08:07:24Z</time>
      </trkpt>
      <trkpt lat="42.63862" lon="1.69195">
        <ele>1855.784</ele>
        <time>2022-09-17T08:07:26Z</time>
      </trkpt>
      <trkpt lat="42.63862" lon="1.69195">
        <ele>1855.785</ele>
        <time>2022-09-17T08:07:28Z</time>
      </trkpt>
      <trkpt lat="42.63862" lon="1.69195">
        <ele>1855.785</ele>
        <time>2022-09-17T08:07:30Z</time>
      </trkpt>
      <trkpt lat="42.63862" lon="1.69195">
        <ele>1855.801</ele>
        <time>2022-09-17T08:07:32Z</time>
      </trkpt>
      <trkpt lat="42.63862" lon="1.69195">
        <ele>1855.805</ele>
        <time>2022-09-17T08:07:34Z</time>
      </trkpt>
      <trkpt lat="42.63862" lon="1.69195">
        <ele>1855.814</ele>
        <time>2022-09-17T08:07:36Z</time>
      </trkpt>
      <trkpt lat="42.63862" lon="1.69194">
        <ele>1855.556</ele>
        <time>2022-09-17T08:07:38Z</time>
      </trkpt>
      <trkpt lat="42.63861" lon="1.69192">
        <ele>1855.108</ele>
        <time>2022-09-17T08:07:40Z</time>
      </trkpt>
      <trkpt lat="42.6386" lon="1.69189">
        <ele>1855.184</ele>
        <time>2022-09-17T08:07:42Z</time>
      </trkpt>
      <trkpt lat="42.63858" lon="1.69187">
        <ele>1854.828</ele>
        <time>2022-09-17T08:07:44Z</time>
      </trkpt>
      <trkpt lat="42.63856" lon="1.69186">
        <ele>1855.259</ele>
        <time>2022-09-17T08:07:46Z</time>
      </trkpt>
      <trkpt lat="42.63855" lon="1.69184">
        <ele>1855.348</ele>
        <time>2022-09-17T08:07:48Z</time>
      </trkpt>
      <trkpt lat="42.63854" lon="1.69182">
        <ele>1855.858</ele>
        <time>2022-09-17T08:07:50Z</time>
      </trkpt>
      <trkpt lat="42.63853" lon="1.6918">
        <ele>1856.077</ele>
        <time>2022-09-17T08:07:52Z</time>
      </trkpt>
      <trkpt lat="42.63852" lon="1.69177">
        <ele>1856.232</ele>
        <time>2022-09-17T08:07:54Z</time>
      </trkpt>
      <trkpt lat="42.63851" lon="1.69176">
        <ele>1855.044</ele>
        <time>2022-09-17T08:07:56Z</time>
      </trkpt>
      <trkpt lat="42.63851" lon="1.69174">
        <ele>1854.043</ele>
        <time>2022-09-17T08:07:58Z</time>
      </trkpt>
      <trkpt lat="42.6385" lon="1.69173">
        <ele>1854.324</ele>
        <time>2022-09-17T08:08:00Z</time>
      </trkpt>
      <trkpt lat="42.63849" lon="1.69171">
        <ele>1853.983</ele>
        <time>2022-09-17T08:08:02Z</time>
      </trkpt>
      <trkpt lat="42.63849" lon="1.69169">
        <ele>1855.158</ele>
        <time>2022-09-17T08:08:04Z</time>
      </trkpt>
      <trkpt lat="42.63849" lon="1.69168">
        <ele>1855.493</ele>
        <time>2022-09-17T08:08:06Z</time>
      </trkpt>
      <trkpt lat="42.63849" lon="1.69166">
        <ele>1856.486</ele>
        <time>2022-09-17T08:08:08Z</time>
      </trkpt>
      <trkpt lat="42.63848" lon="1.69164">
        <ele>1856.881</ele>
        <time>2022-09-17T08:08:10Z</time>
      </trkpt>
      <trkpt lat="42.63847" lon="1.69163">
        <ele>1857.39</ele>
        <time>2022-09-17T08:08:12Z</time>
      </trkpt>
      <trkpt lat="42.63847" lon="1.69162">
        <ele>1857.405</ele>
        <time>2022-09-17T08:08:14Z</time>
      </trkpt>
      <trkpt lat="42.63846" lon="1.6916">
        <ele>1857.343</ele>
        <time>2022-09-17T08:08:16Z</time>
      </trkpt>
      <trkpt lat="42.63845" lon="1.69158">
        <ele>1856.338</ele>
        <time>2022-09-17T08:08:18Z</time>
      </trkpt>
      <trkpt lat="42.63844" lon="1.69156">
        <ele>1856.347</ele>
        <time>2022-09-17T08:08:20Z</time>
      </trkpt>
      <trkpt lat="42.63844" lon="1.69154">
        <ele>1856.672</ele>
        <time>2022-09-17T08:08:22Z</time>
      </trkpt>
      <trkpt lat="42.63843" lon="1.69151">
        <ele>1857.144</ele>
        <time>2022-09-17T08:08:24Z</time>
      </trkpt>
      <trkpt lat="42.63843" lon="1.69149">
        <ele>1857.806</ele>
        <time>2022-09-17T08:08:26Z</time>
      </trkpt>
      <trkpt lat="42.63842" lon="1.69148">
        <ele>1858.308</ele>
        <time>2022-09-17T08:08:28Z</time>
      </trkpt>
      <trkpt lat="42.63843" lon="1.69146">
        <ele>1858.305</ele>
        <time>2022-09-17T08:08:30Z</time>
      </trkpt>
      <trkpt lat="42.63844" lon="1.69144">
        <ele>1858.509</ele>
        <time>2022-09-17T08:08:32Z</time>
      </trkpt>
      <trkpt lat="42.63844" lon="1.69141">
        <ele>1859.315</ele>
        <time>2022-09-17T08:08:34Z</time>
      </trkpt>
      <trkpt lat="42.63844" lon="1.6914">
        <ele>1860.743</ele>
        <time>2022-09-17T08:08:36Z</time>
      </trkpt>
      <trkpt lat="42.63845" lon="1.69138">
        <ele>1861.041</ele>
        <time>2022-09-17T08:08:38Z</time>
      </trkpt>
      <trkpt lat="42.63846" lon="1.69136">
        <ele>1861.96</ele>
        <time>2022-09-17T08:08:40Z</time>
      </trkpt>
      <trkpt lat="42.63846" lon="1.69134">
        <ele>1863.024</ele>
        <time>2022-09-17T08:08:42Z</time>
      </trkpt>
      <trkpt lat="42.63846" lon="1.69132">
        <ele>1864.588</ele>
        <time>2022-09-17T08:08:44Z</time>
      </trkpt>
      <trkpt lat="42.63846" lon="1.6913">
        <ele>1865.243</ele>
        <time>2022-09-17T08:08:46Z</time>
      </trkpt>
      <trkpt lat="42.63846" lon="1.69128">
        <ele>1865.756</ele>
        <time>2022-09-17T08:08:48Z</time>
      </trkpt>
      <trkpt lat="42.63846" lon="1.69125">
        <ele>1865.983</ele>
        <time>2022-09-17T08:08:50Z</time>
      </trkpt>
      <trkpt lat="42.63847" lon="1.69122">
        <ele>1865.463</ele>
        <time>2022-09-17T08:08:52Z</time>
      </trkpt>
      <trkpt lat="42.63847" lon="1.6912">
        <ele>1865.749</ele>
        <time>2022-09-17T08:08:54Z</time>
      </trkpt>
      <trkpt lat="42.63847" lon="1.69118">
        <ele>1864.961</ele>
        <time>2022-09-17T08:08:56Z</time>
      </trkpt>
      <trkpt lat="42.63847" lon="1.69115">
        <ele>1864.76</ele>
        <time>2022-09-17T08:08:58Z</time>
      </trkpt>
      <trkpt lat="42.63847" lon="1.69113">
        <ele>1865.387</ele>
        <time>2022-09-17T08:09:00Z</time>
      </trkpt>
      <trkpt lat="42.63847" lon="1.69111">
        <ele>1865.353</ele>
        <time>2022-09-17T08:09:02Z</time>
      </trkpt>
      <trkpt lat="42.63847" lon="1.69109">
        <ele>1865.607</ele>
        <time>2022-09-17T08:09:04Z</time>
      </trkpt>
      <trkpt lat="42.63847" lon="1.69107">
        <ele>1866.139</ele>
        <time>2022-09-17T08:09:06Z</time>
      </trkpt>
      <trkpt lat="42.63848" lon="1.69106">
        <ele>1866.059</ele>
        <time>2022-09-17T08:09:08Z</time>
      </trkpt>
      <trkpt lat="42.63848" lon="1.69104">
        <ele>1867.032</ele>
        <time>2022-09-17T08:09:10Z</time>
      </trkpt>
      <trkpt lat="42.63848" lon="1.69102">
        <ele>1866.552</ele>
        <time>2022-09-17T08:09:12Z</time>
      </trkpt>
      <trkpt lat="42.63848" lon="1.691">
        <ele>1867.607</ele>
        <time>2022-09-17T08:09:14Z</time>
      </trkpt>
      <trkpt lat="42.63848" lon="1.69099">
        <ele>1867.929</ele>
        <time>2022-09-17T08:09:16Z</time>
      </trkpt>
      <trkpt lat="42.63848" lon="1.69097">
        <ele>1868.309</ele>
        <time>2022-09-17T08:09:18Z</time>
      </trkpt>
      <trkpt lat="42.63849" lon="1.69095">
        <ele>1868.426</ele>
        <time>2022-09-17T08:09:20Z</time>
      </trkpt>
      <trkpt lat="42.6385" lon="1.69094">
        <ele>1868.764</ele>
        <time>2022-09-17T08:09:22Z</time>
      </trkpt>
      <trkpt lat="42.63851" lon="1.69093">
        <ele>1868.901</ele>
        <time>2022-09-17T08:09:24Z</time>
      </trkpt>
      <trkpt lat="42.63851" lon="1.69091">
        <ele>1868.857</ele>
        <time>2022-09-17T08:09:26Z</time>
      </trkpt>
      <trkpt lat="42.63852" lon="1.6909">
        <ele>1869.101</ele>
        <time>2022-09-17T08:09:28Z</time>
      </trkpt>
      <trkpt lat="42.63853" lon="1.69088">
        <ele>1869.481</ele>
        <time>2022-09-17T08:09:30Z</time>
      </trkpt>
      <trkpt lat="42.63853" lon="1.69087">
        <ele>1869.371</ele>
        <time>2022-09-17T08:09:32Z</time>
      </trkpt>
      <trkpt lat="42.63854" lon="1.69085">
        <ele>1870.21</ele>
        <time>2022-09-17T08:09:34Z</time>
      </trkpt>
      <trkpt lat="42.63855" lon="1.69084">
        <ele>1871.232</ele>
        <time>2022-09-17T08:09:36Z</time>
      </trkpt>
      <trkpt lat="42.63855" lon="1.69083">
        <ele>1871.81</ele>
        <time>2022-09-17T08:09:38Z</time>
      </trkpt>
      <trkpt lat="42.63855" lon="1.69081">
        <ele>1872.119</ele>
        <time>2022-09-17T08:09:40Z</time>
      </trkpt>
      <trkpt lat="42.63855" lon="1.6908">
        <ele>1872.625</ele>
        <time>2022-09-17T08:09:42Z</time>
      </trkpt>
      <trkpt lat="42.63855" lon="1.69078">
        <ele>1873.168</ele>
        <time>2022-09-17T08:09:44Z</time>
      </trkpt>
      <trkpt lat="42.63855" lon="1.69076">
        <ele>1872.969</ele>
        <time>2022-09-17T08:09:46Z</time>
      </trkpt>
      <trkpt lat="42.63855" lon="1.69073">
        <ele>1872.651</ele>
        <time>2022-09-17T08:09:48Z</time>
      </trkpt>
      <trkpt lat="42.63855" lon="1.69071">
        <ele>1872.072</ele>
        <time>2022-09-17T08:09:50Z</time>
      </trkpt>
      <trkpt lat="42.63855" lon="1.69069">
        <ele>1872.702</ele>
        <time>2022-09-17T08:09:52Z</time>
      </trkpt>
      <trkpt lat="42.63855" lon="1.69068">
        <ele>1873.115</ele>
        <time>2022-09-17T08:09:54Z</time>
      </trkpt>
      <trkpt lat="42.63855" lon="1.69066">
        <ele>1874.151</ele>
        <time>2022-09-17T08:09:56Z</time>
      </trkpt>
      <trkpt lat="42.63854" lon="1.69065">
        <ele>1873.995</ele>
        <time>2022-09-17T08:09:58Z</time>
      </trkpt>
      <trkpt lat="42.63854" lon="1.69065">
        <ele>1873.511</ele>
        <time>2022-09-17T08:10:00Z</time>
      </trkpt>
      <trkpt lat="42.63853" lon="1.69063">
        <ele>1873.935</ele>
        <time>2022-09-17T08:10:02Z</time>
      </trkpt>
      <trkpt lat="42.63852" lon="1.69061">
        <ele>1872.787</ele>
        <time>2022-09-17T08:10:04Z</time>
      </trkpt>
      <trkpt lat="42.63852" lon="1.6906">
        <ele>1872.786</ele>
        <time>2022-09-17T08:10:06Z</time>
      </trkpt>
      <trkpt lat="42.63851" lon="1.69058">
        <ele>1872.856</ele>
        <time>2022-09-17T08:10:08Z</time>
      </trkpt>
      <trkpt lat="42.6385" lon="1.69057">
        <ele>1874.009</ele>
        <time>2022-09-17T08:10:10Z</time>
      </trkpt>
      <trkpt lat="42.6385" lon="1.69055">
        <ele>1874.91</ele>
        <time>2022-09-17T08:10:12Z</time>
      </trkpt>
      <trkpt lat="42.6385" lon="1.69053">
        <ele>1874.221</ele>
        <time>2022-09-17T08:10:14Z</time>
      </trkpt>
      <trkpt lat="42.6385" lon="1.69052">
        <ele>1873.818</ele>
        <time>2022-09-17T08:10:16Z</time>
      </trkpt>
      <trkpt lat="42.6385" lon="1.69051">
        <ele>1873.885</ele>
        <time>2022-09-17T08:10:18Z</time>
      </trkpt>
      <trkpt lat="42.6385" lon="1.69051">
        <ele>1873.946</ele>
        <time>2022-09-17T08:10:20Z</time>
      </trkpt>
      <trkpt lat="42.6385" lon="1.6905">
        <ele>1873.789</ele>
        <time>2022-09-17T08:10:22Z</time>
      </trkpt>
      <trkpt lat="42.63849" lon="1.69049">
        <ele>1874.264</ele>
        <time>2022-09-17T08:10:24Z</time>
      </trkpt>
      <trkpt lat="42.63849" lon="1.69047">
        <ele>1873.957</ele>
        <time>2022-09-17T08:10:26Z</time>
      </trkpt>
      <trkpt lat="42.63849" lon="1.69046">
        <ele>1873.918</ele>
        <time>2022-09-17T08:10:28Z</time>
      </trkpt>
      <trkpt lat="42.63848" lon="1.69045">
        <ele>1874.128</ele>
        <time>2022-09-17T08:10:30Z</time>
      </trkpt>
      <trkpt lat="42.63848" lon="1.69044">
        <ele>1875.037</ele>
        <time>2022-09-17T08:10:32Z</time>
      </trkpt>
      <trkpt lat="42.63848" lon="1.69042">
        <ele>1875</ele>
        <time>2022-09-17T08:10:34Z</time>
      </trkpt>
      <trkpt lat="42.63849" lon="1.69041">
        <ele>1875.444</ele>
        <time>2022-09-17T08:10:36Z</time>
      </trkpt>
      <trkpt lat="42.63849" lon="1.69041">
        <ele>1875.458</ele>
        <time>2022-09-17T08:10:38Z</time>
      </trkpt>
      <trkpt lat="42.6385" lon="1.6904">
        <ele>1875.968</ele>
        <time>2022-09-17T08:10:40Z</time>
      </trkpt>
      <trkpt lat="42.63851" lon="1.69039">
        <ele>1876.956</ele>
        <time>2022-09-17T08:10:42Z</time>
      </trkpt>
      <trkpt lat="42.63851" lon="1.69037">
        <ele>1876.969</ele>
        <time>2022-09-17T08:10:44Z</time>
      </trkpt>
      <trkpt lat="42.63852" lon="1.69036">
        <ele>1876.688</ele>
        <time>2022-09-17T08:10:46Z</time>
      </trkpt>
      <trkpt lat="42.63852" lon="1.69035">
        <ele>1876.1</ele>
        <time>2022-09-17T08:10:48Z</time>
      </trkpt>
      <trkpt lat="42.63852" lon="1.69033">
        <ele>1876.659</ele>
        <time>2022-09-17T08:10:50Z</time>
      </trkpt>
      <trkpt lat="42.63852" lon="1.69032">
        <ele>1877.343</ele>
        <time>2022-09-17T08:10:52Z</time>
      </trkpt>
      <trkpt lat="42.63851" lon="1.6903">
        <ele>1876.772</ele>
        <time>2022-09-17T08:10:54Z</time>
      </trkpt>
      <trkpt lat="42.63851" lon="1.69029">
        <ele>1876.229</ele>
        <time>2022-09-17T08:10:56Z</time>
      </trkpt>
      <trkpt lat="42.63851" lon="1.69027">
        <ele>1876.727</ele>
        <time>2022-09-17T08:10:58Z</time>
      </trkpt>
      <trkpt lat="42.63851" lon="1.69025">
        <ele>1876.66</ele>
        <time>2022-09-17T08:11:00Z</time>
      </trkpt>
      <trkpt lat="42.63852" lon="1.69024">
        <ele>1876.272</ele>
        <time>2022-09-17T08:11:02Z</time>
      </trkpt>
      <trkpt lat="42.63852" lon="1.69022">
        <ele>1876.907</ele>
        <time>2022-09-17T08:11:04Z</time>
      </trkpt>
      <trkpt lat="42.63853" lon="1.6902">
        <ele>1877.171</ele>
        <time>2022-09-17T08:11:06Z</time>
      </trkpt>
      <trkpt lat="42.63853" lon="1.69019">
        <ele>1877.921</ele>
        <time>2022-09-17T08:11:08Z</time>
      </trkpt>
      <trkpt lat="42.63854" lon="1.69018">
        <ele>1878.962</ele>
        <time>2022-09-17T08:11:10Z</time>
      </trkpt>
      <trkpt lat="42.63854" lon="1.69016">
        <ele>1879.401</ele>
        <time>2022-09-17T08:11:12Z</time>
      </trkpt>
      <trkpt lat="42.63854" lon="1.69016">
        <ele>1880.398</ele>
        <time>2022-09-17T08:11:14Z</time>
      </trkpt>
      <trkpt lat="42.63854" lon="1.69014">
        <ele>1881.285</ele>
        <time>2022-09-17T08:11:16Z</time>
      </trkpt>
      <trkpt lat="42.63855" lon="1.69013">
        <ele>1881.69</ele>
        <time>2022-09-17T08:11:18Z</time>
      </trkpt>
      <trkpt lat="42.63854" lon="1.69013">
        <ele>1881.467</ele>
        <time>2022-09-17T08:11:20Z</time>
      </trkpt>
      <trkpt lat="42.63854" lon="1.69013">
        <ele>1881.473</ele>
        <time>2022-09-17T08:11:22Z</time>
      </trkpt>
      <trkpt lat="42.63854" lon="1.69013">
        <ele>1881.477</ele>
        <time>2022-09-17T08:11:24Z</time>
      </trkpt>
      <trkpt lat="42.63855" lon="1.69012">
        <ele>1881.869</ele>
        <time>2022-09-17T08:11:26Z</time>
      </trkpt>
      <trkpt lat="42.63854" lon="1.69011">
        <ele>1881.788</ele>
        <time>2022-09-17T08:11:28Z</time>
      </trkpt>
      <trkpt lat="42.63854" lon="1.69011">
        <ele>1881.837</ele>
        <time>2022-09-17T08:11:30Z</time>
      </trkpt>
      <trkpt lat="42.63854" lon="1.69011">
        <ele>1881.83</ele>
        <time>2022-09-17T08:11:32Z</time>
      </trkpt>
      <trkpt lat="42.63854" lon="1.69011">
        <ele>1881.829</ele>
        <time>2022-09-17T08:11:34Z</time>
      </trkpt>
      <trkpt lat="42.63854" lon="1.69011">
        <ele>1881.83</ele>
        <time>2022-09-17T08:11:36Z</time>
      </trkpt>
      <trkpt lat="42.63854" lon="1.69011">
        <ele>1881.817</ele>
        <time>2022-09-17T08:11:38Z</time>
      </trkpt>
      <trkpt lat="42.63854" lon="1.69011">
        <ele>1881.793</ele>
        <time>2022-09-17T08:11:40Z</time>
      </trkpt>
      <trkpt lat="42.63854" lon="1.69011">
        <ele>1881.786</ele>
        <time>2022-09-17T08:11:42Z</time>
      </trkpt>
      <trkpt lat="42.63854" lon="1.6901">
        <ele>1881.782</ele>
        <time>2022-09-17T08:11:44Z</time>
      </trkpt>
      <trkpt lat="42.63854" lon="1.6901">
        <ele>1881.772</ele>
        <time>2022-09-17T08:11:46Z</time>
      </trkpt>
      <trkpt lat="42.63854" lon="1.6901">
        <ele>1881.763</ele>
        <time>2022-09-17T08:11:48Z</time>
      </trkpt>
      <trkpt lat="42.63854" lon="1.6901">
        <ele>1881.772</ele>
        <time>2022-09-17T08:11:50Z</time>
      </trkpt>
      <trkpt lat="42.63854" lon="1.6901">
        <ele>1881.761</ele>
        <time>2022-09-17T08:11:52Z</time>
      </trkpt>
      <trkpt lat="42.63854" lon="1.6901">
        <ele>1881.749</ele>
        <time>2022-09-17T08:11:54Z</time>
      </trkpt>
      <trkpt lat="42.63854" lon="1.6901">
        <ele>1881.751</ele>
        <time>2022-09-17T08:11:56Z</time>
      </trkpt>
      <trkpt lat="42.63854" lon="1.6901">
        <ele>1881.752</ele>
        <time>2022-09-17T08:11:58Z</time>
      </trkpt>
      <trkpt lat="42.63854" lon="1.6901">
        <ele>1881.758</ele>
        <time>2022-09-17T08:12:00Z</time>
      </trkpt>
      <trkpt lat="42.63854" lon="1.6901">
        <ele>1881.757</ele>
        <time>2022-09-17T08:12:02Z</time>
      </trkpt>
      <trkpt lat="42.63854" lon="1.6901">
        <ele>1881.766</ele>
        <time>2022-09-17T08:12:04Z</time>
      </trkpt>
      <trkpt lat="42.63854" lon="1.6901">
        <ele>1881.763</ele>
        <time>2022-09-17T08:12:06Z</time>
      </trkpt>
      <trkpt lat="42.63854" lon="1.6901">
        <ele>1881.755</ele>
        <time>2022-09-17T08:12:08Z</time>
      </trkpt>
      <trkpt lat="42.63854" lon="1.6901">
        <ele>1881.752</ele>
        <time>2022-09-17T08:12:10Z</time>
      </trkpt>
      <trkpt lat="42.63854" lon="1.6901">
        <ele>1882.125</ele>
        <time>2022-09-17T08:12:12Z</time>
      </trkpt>
      <trkpt lat="42.63855" lon="1.69008">
        <ele>1882.684</ele>
        <time>2022-09-17T08:12:14Z</time>
      </trkpt>
      <trkpt lat="42.63856" lon="1.69007">
        <ele>1882.875</ele>
        <time>2022-09-17T08:12:16Z</time>
      </trkpt>
      <trkpt lat="42.63856" lon="1.69006">
        <ele>1882.945</ele>
        <time>2022-09-17T08:12:18Z</time>
      </trkpt>
      <trkpt lat="42.63856" lon="1.69006">
        <ele>1882.983</ele>
        <time>2022-09-17T08:12:20Z</time>
      </trkpt>
      <trkpt lat="42.63856" lon="1.69006">
        <ele>1882.996</ele>
        <time>2022-09-17T08:12:22Z</time>
      </trkpt>
      <trkpt lat="42.63856" lon="1.69006">
        <ele>1882.991</ele>
        <time>2022-09-17T08:12:24Z</time>
      </trkpt>
      <trkpt lat="42.63856" lon="1.69006">
        <ele>1883</ele>
        <time>2022-09-17T08:12:26Z</time>
      </trkpt>
      <trkpt lat="42.63856" lon="1.69006">
        <ele>1883.001</ele>
        <time>2022-09-17T08:12:28Z</time>
      </trkpt>
      <trkpt lat="42.63856" lon="1.69006">
        <ele>1883.017</ele>
        <time>2022-09-17T08:12:30Z</time>
      </trkpt>
      <trkpt lat="42.63856" lon="1.69006">
        <ele>1883.016</ele>
        <time>2022-09-17T08:12:32Z</time>
      </trkpt>
      <trkpt lat="42.63856" lon="1.69006">
        <ele>1883.154</ele>
        <time>2022-09-17T08:12:34Z</time>
      </trkpt>
      <trkpt lat="42.63857" lon="1.69005">
        <ele>1883.225</ele>
        <time>2022-09-17T08:12:36Z</time>
      </trkpt>
      <trkpt lat="42.63857" lon="1.69004">
        <ele>1884.22</ele>
        <time>2022-09-17T08:12:38Z</time>
      </trkpt>
      <trkpt lat="42.63858" lon="1.69004">
        <ele>1885.153</ele>
        <time>2022-09-17T08:12:40Z</time>
      </trkpt>
      <trkpt lat="42.63859" lon="1.69002">
        <ele>1885.266</ele>
        <time>2022-09-17T08:12:42Z</time>
      </trkpt>
      <trkpt lat="42.6386" lon="1.69003">
        <ele>1885.294</ele>
        <time>2022-09-17T08:12:44Z</time>
      </trkpt>
      <trkpt lat="42.63861" lon="1.69002">
        <ele>1885.511</ele>
        <time>2022-09-17T08:12:46Z</time>
      </trkpt>
      <trkpt lat="42.63862" lon="1.69001">
        <ele>1885.724</ele>
        <time>2022-09-17T08:12:48Z</time>
      </trkpt>
      <trkpt lat="42.63862" lon="1.69">
        <ele>1885.543</ele>
        <time>2022-09-17T08:12:50Z</time>
      </trkpt>
      <trkpt lat="42.63863" lon="1.68999">
        <ele>1886.069</ele>
        <time>2022-09-17T08:12:52Z</time>
      </trkpt>
      <trkpt lat="42.63863" lon="1.68998">
        <ele>1886.822</ele>
        <time>2022-09-17T08:12:54Z</time>
      </trkpt>
      <trkpt lat="42.63864" lon="1.68998">
        <ele>1887.103</ele>
        <time>2022-09-17T08:12:56Z</time>
      </trkpt>
      <trkpt lat="42.63865" lon="1.68998">
        <ele>1887.416</ele>
        <time>2022-09-17T08:12:58Z</time>
      </trkpt>
      <trkpt lat="42.63866" lon="1.68998">
        <ele>1887.993</ele>
        <time>2022-09-17T08:13:00Z</time>
      </trkpt>
      <trkpt lat="42.63867" lon="1.68998">
        <ele>1888.107</ele>
        <time>2022-09-17T08:13:02Z</time>
      </trkpt>
      <trkpt lat="42.63869" lon="1.68998">
        <ele>1888.989</ele>
        <time>2022-09-17T08:13:04Z</time>
      </trkpt>
      <trkpt lat="42.63869" lon="1.68997">
        <ele>1889.242</ele>
        <time>2022-09-17T08:13:06Z</time>
      </trkpt>
      <trkpt lat="42.6387" lon="1.68997">
        <ele>1889.836</ele>
        <time>2022-09-17T08:13:08Z</time>
      </trkpt>
      <trkpt lat="42.63871" lon="1.68997">
        <ele>1890.244</ele>
        <time>2022-09-17T08:13:10Z</time>
      </trkpt>
      <trkpt lat="42.63872" lon="1.68997">
        <ele>1890.977</ele>
        <time>2022-09-17T08:13:12Z</time>
      </trkpt>
      <trkpt lat="42.63872" lon="1.68996">
        <ele>1891.693</ele>
        <time>2022-09-17T08:13:14Z</time>
      </trkpt>
      <trkpt lat="42.63873" lon="1.68995">
        <ele>1892.509</ele>
        <time>2022-09-17T08:13:16Z</time>
      </trkpt>
      <trkpt lat="42.63874" lon="1.68994">
        <ele>1893.297</ele>
        <time>2022-09-17T08:13:18Z</time>
      </trkpt>
      <trkpt lat="42.63875" lon="1.68994">
        <ele>1895.301</ele>
        <time>2022-09-17T08:13:20Z</time>
      </trkpt>
      <trkpt lat="42.63876" lon="1.68993">
        <ele>1895.914</ele>
        <time>2022-09-17T08:13:22Z</time>
      </trkpt>
      <trkpt lat="42.63876" lon="1.68992">
        <ele>1896.503</ele>
        <time>2022-09-17T08:13:24Z</time>
      </trkpt>
      <trkpt lat="42.63876" lon="1.68992">
        <ele>1897.003</ele>
        <time>2022-09-17T08:13:26Z</time>
      </trkpt>
      <trkpt lat="42.63877" lon="1.68992">
        <ele>1898.339</ele>
        <time>2022-09-17T08:13:28Z</time>
      </trkpt>
      <trkpt lat="42.63877" lon="1.68991">
        <ele>1898.557</ele>
        <time>2022-09-17T08:13:30Z</time>
      </trkpt>
      <trkpt lat="42.63877" lon="1.68991">
        <ele>1898.358</ele>
        <time>2022-09-17T08:13:32Z</time>
      </trkpt>
      <trkpt lat="42.63878" lon="1.68991">
        <ele>1899.442</ele>
        <time>2022-09-17T08:13:34Z</time>
      </trkpt>
      <trkpt lat="42.63879" lon="1.6899">
        <ele>1899.747</ele>
        <time>2022-09-17T08:13:36Z</time>
      </trkpt>
      <trkpt lat="42.6388" lon="1.6899">
        <ele>1899.941</ele>
        <time>2022-09-17T08:13:38Z</time>
      </trkpt>
      <trkpt lat="42.63881" lon="1.68989">
        <ele>1900.692</ele>
        <time>2022-09-17T08:13:40Z</time>
      </trkpt>
      <trkpt lat="42.63882" lon="1.68988">
        <ele>1900.981</ele>
        <time>2022-09-17T08:13:42Z</time>
      </trkpt>
      <trkpt lat="42.63882" lon="1.68988">
        <ele>1901.328</ele>
        <time>2022-09-17T08:13:44Z</time>
      </trkpt>
      <trkpt lat="42.63882" lon="1.68987">
        <ele>1901.65</ele>
        <time>2022-09-17T08:13:46Z</time>
      </trkpt>
      <trkpt lat="42.63883" lon="1.68987">
        <ele>1902.62</ele>
        <time>2022-09-17T08:13:48Z</time>
      </trkpt>
      <trkpt lat="42.63883" lon="1.68986">
        <ele>1903.504</ele>
        <time>2022-09-17T08:13:50Z</time>
      </trkpt>
      <trkpt lat="42.63883" lon="1.68985">
        <ele>1903.6</ele>
        <time>2022-09-17T08:13:52Z</time>
      </trkpt>
      <trkpt lat="42.63884" lon="1.68984">
        <ele>1903.857</ele>
        <time>2022-09-17T08:13:54Z</time>
      </trkpt>
      <trkpt lat="42.63884" lon="1.68984">
        <ele>1904.21</ele>
        <time>2022-09-17T08:13:56Z</time>
      </trkpt>
      <trkpt lat="42.63884" lon="1.68984">
        <ele>1903.345</ele>
        <time>2022-09-17T08:13:58Z</time>
      </trkpt>
      <trkpt lat="42.63884" lon="1.68983">
        <ele>1902.735</ele>
        <time>2022-09-17T08:14:00Z</time>
      </trkpt>
      <trkpt lat="42.63884" lon="1.68983">
        <ele>1902.915</ele>
        <time>2022-09-17T08:14:02Z</time>
      </trkpt>
      <trkpt lat="42.63884" lon="1.68983">
        <ele>1902.877</ele>
        <time>2022-09-17T08:14:04Z</time>
      </trkpt>
      <trkpt lat="42.63884" lon="1.68983">
        <ele>1902.876</ele>
        <time>2022-09-17T08:14:06Z</time>
      </trkpt>
      <trkpt lat="42.63884" lon="1.68983">
        <ele>1902.901</ele>
        <time>2022-09-17T08:14:08Z</time>
      </trkpt>
      <trkpt lat="42.63885" lon="1.68982">
        <ele>1903.208</ele>
        <time>2022-09-17T08:14:10Z</time>
      </trkpt>
      <trkpt lat="42.63886" lon="1.68982">
        <ele>1904.194</ele>
        <time>2022-09-17T08:14:12Z</time>
      </trkpt>
      <trkpt lat="42.63887" lon="1.68981">
        <ele>1904.679</ele>
        <time>2022-09-17T08:14:14Z</time>
      </trkpt>
      <trkpt lat="42.63887" lon="1.68981">
        <ele>1904.51</ele>
        <time>2022-09-17T08:14:16Z</time>
      </trkpt>
      <trkpt lat="42.63887" lon="1.68981">
        <ele>1904.393</ele>
        <time>2022-09-17T08:14:18Z</time>
      </trkpt>
      <trkpt lat="42.63889" lon="1.68981">
        <ele>1905.536</ele>
        <time>2022-09-17T08:14:20Z</time>
      </trkpt>
      <trkpt lat="42.63889" lon="1.68981">
        <ele>1905.58</ele>
        <time>2022-09-17T08:14:22Z</time>
      </trkpt>
      <trkpt lat="42.63889" lon="1.68981">
        <ele>1905.485</ele>
        <time>2022-09-17T08:14:24Z</time>
      </trkpt>
      <trkpt lat="42.6389" lon="1.6898">
        <ele>1906.328</ele>
        <time>2022-09-17T08:14:26Z</time>
      </trkpt>
      <trkpt lat="42.63891" lon="1.6898">
        <ele>1906.233</ele>
        <time>2022-09-17T08:14:28Z</time>
      </trkpt>
      <trkpt lat="42.63892" lon="1.6898">
        <ele>1905.805</ele>
        <time>2022-09-17T08:14:30Z</time>
      </trkpt>
      <trkpt lat="42.63893" lon="1.68981">
        <ele>1906.056</ele>
        <time>2022-09-17T08:14:32Z</time>
      </trkpt>
      <trkpt lat="42.63893" lon="1.68981">
        <ele>1905.754</ele>
        <time>2022-09-17T08:14:34Z</time>
      </trkpt>
      <trkpt lat="42.63894" lon="1.68982">
        <ele>1906.193</ele>
        <time>2022-09-17T08:14:36Z</time>
      </trkpt>
      <trkpt lat="42.63895" lon="1.68982">
        <ele>1905.892</ele>
        <time>2022-09-17T08:14:38Z</time>
      </trkpt>
      <trkpt lat="42.63896" lon="1.68981">
        <ele>1906.275</ele>
        <time>2022-09-17T08:14:40Z</time>
      </trkpt>
      <trkpt lat="42.63896" lon="1.68981">
        <ele>1906.597</ele>
        <time>2022-09-17T08:14:42Z</time>
      </trkpt>
      <trkpt lat="42.63897" lon="1.68982">
        <ele>1906.454</ele>
        <time>2022-09-17T08:14:44Z</time>
      </trkpt>
      <trkpt lat="42.63898" lon="1.68983">
        <ele>1906.667</ele>
        <time>2022-09-17T08:14:46Z</time>
      </trkpt>
      <trkpt lat="42.63899" lon="1.68984">
        <ele>1907.382</ele>
        <time>2022-09-17T08:14:48Z</time>
      </trkpt>
      <trkpt lat="42.639" lon="1.68984">
        <ele>1907.631</ele>
        <time>2022-09-17T08:14:50Z</time>
      </trkpt>
      <trkpt lat="42.639" lon="1.68985">
        <ele>1908.478</ele>
        <time>2022-09-17T08:14:52Z</time>
      </trkpt>
      <trkpt lat="42.63901" lon="1.68985">
        <ele>1908.402</ele>
        <time>2022-09-17T08:14:54Z</time>
      </trkpt>
      <trkpt lat="42.63902" lon="1.68986">
        <ele>1908.545</ele>
        <time>2022-09-17T08:14:56Z</time>
      </trkpt>
      <trkpt lat="42.63903" lon="1.68987">
        <ele>1909.075</ele>
        <time>2022-09-17T08:14:58Z</time>
      </trkpt>
      <trkpt lat="42.63903" lon="1.68987">
        <ele>1908.815</ele>
        <time>2022-09-17T08:15:00Z</time>
      </trkpt>
      <trkpt lat="42.63904" lon="1.68987">
        <ele>1909.28</ele>
        <time>2022-09-17T08:15:02Z</time>
      </trkpt>
      <trkpt lat="42.63904" lon="1.68988">
        <ele>1909.492</ele>
        <time>2022-09-17T08:15:04Z</time>
      </trkpt>
      <trkpt lat="42.63905" lon="1.68988">
        <ele>1909.869</ele>
        <time>2022-09-17T08:15:06Z</time>
      </trkpt>
      <trkpt lat="42.63906" lon="1.68989">
        <ele>1910.249</ele>
        <time>2022-09-17T08:15:08Z</time>
      </trkpt>
      <trkpt lat="42.63906" lon="1.68991">
        <ele>1911.816</ele>
        <time>2022-09-17T08:15:10Z</time>
      </trkpt>
      <trkpt lat="42.63906" lon="1.68992">
        <ele>1912.431</ele>
        <time>2022-09-17T08:15:12Z</time>
      </trkpt>
      <trkpt lat="42.63907" lon="1.68993">
        <ele>1912.766</ele>
        <time>2022-09-17T08:15:14Z</time>
      </trkpt>
      <trkpt lat="42.63907" lon="1.68994">
        <ele>1912.948</ele>
        <time>2022-09-17T08:15:16Z</time>
      </trkpt>
      <trkpt lat="42.63907" lon="1.68994">
        <ele>1913.073</ele>
        <time>2022-09-17T08:15:18Z</time>
      </trkpt>
      <trkpt lat="42.63908" lon="1.68995">
        <ele>1913.141</ele>
        <time>2022-09-17T08:15:20Z</time>
      </trkpt>
      <trkpt lat="42.63908" lon="1.68995">
        <ele>1913.652</ele>
        <time>2022-09-17T08:15:22Z</time>
      </trkpt>
      <trkpt lat="42.63909" lon="1.68995">
        <ele>1913.96</ele>
        <time>2022-09-17T08:15:24Z</time>
      </trkpt>
      <trkpt lat="42.6391" lon="1.68995">
        <ele>1914.747</ele>
        <time>2022-09-17T08:15:26Z</time>
      </trkpt>
      <trkpt lat="42.6391" lon="1.68995">
        <ele>1914.865</ele>
        <time>2022-09-17T08:15:28Z</time>
      </trkpt>
      <trkpt lat="42.63911" lon="1.68995">
        <ele>1914.699</ele>
        <time>2022-09-17T08:15:30Z</time>
      </trkpt>
      <trkpt lat="42.63911" lon="1.68994">
        <ele>1914.988</ele>
        <time>2022-09-17T08:15:32Z</time>
      </trkpt>
      <trkpt lat="42.63912" lon="1.68993">
        <ele>1915.27</ele>
        <time>2022-09-17T08:15:34Z</time>
      </trkpt>
      <trkpt lat="42.63912" lon="1.68992">
        <ele>1914.991</ele>
        <time>2022-09-17T08:15:36Z</time>
      </trkpt>
      <trkpt lat="42.63913" lon="1.68992">
        <ele>1916.19</ele>
        <time>2022-09-17T08:15:38Z</time>
      </trkpt>
      <trkpt lat="42.63914" lon="1.68992">
        <ele>1916.19</ele>
        <time>2022-09-17T08:15:40Z</time>
      </trkpt>
      <trkpt lat="42.63915" lon="1.68993">
        <ele>1916.828</ele>
        <time>2022-09-17T08:15:42Z</time>
      </trkpt>
      <trkpt lat="42.63916" lon="1.68994">
        <ele>1916.582</ele>
        <time>2022-09-17T08:15:44Z</time>
      </trkpt>
      <trkpt lat="42.63915" lon="1.68994">
        <ele>1917.191</ele>
        <time>2022-09-17T08:15:46Z</time>
      </trkpt>
      <trkpt lat="42.63915" lon="1.68994">
        <ele>1917.206</ele>
        <time>2022-09-17T08:15:48Z</time>
      </trkpt>
      <trkpt lat="42.63916" lon="1.68995">
        <ele>1917.339</ele>
        <time>2022-09-17T08:15:50Z</time>
      </trkpt>
      <trkpt lat="42.63917" lon="1.68996">
        <ele>1918.048</ele>
        <time>2022-09-17T08:15:52Z</time>
      </trkpt>
      <trkpt lat="42.63918" lon="1.68996">
        <ele>1918.085</ele>
        <time>2022-09-17T08:15:54Z</time>
      </trkpt>
      <trkpt lat="42.63918" lon="1.68996">
        <ele>1918.036</ele>
        <time>2022-09-17T08:15:56Z</time>
      </trkpt>
      <trkpt lat="42.63919" lon="1.68995">
        <ele>1918.194</ele>
        <time>2022-09-17T08:15:58Z</time>
      </trkpt>
      <trkpt lat="42.6392" lon="1.68995">
        <ele>1918.48</ele>
        <time>2022-09-17T08:16:00Z</time>
      </trkpt>
      <trkpt lat="42.6392" lon="1.68995">
        <ele>1918.619</ele>
        <time>2022-09-17T08:16:02Z</time>
      </trkpt>
      <trkpt lat="42.63921" lon="1.68996">
        <ele>1919.005</ele>
        <time>2022-09-17T08:16:04Z</time>
      </trkpt>
      <trkpt lat="42.63922" lon="1.68997">
        <ele>1918.633</ele>
        <time>2022-09-17T08:16:06Z</time>
      </trkpt>
      <trkpt lat="42.63923" lon="1.68998">
        <ele>1918.216</ele>
        <time>2022-09-17T08:16:08Z</time>
      </trkpt>
      <trkpt lat="42.63924" lon="1.68999">
        <ele>1918.404</ele>
        <time>2022-09-17T08:16:10Z</time>
      </trkpt>
      <trkpt lat="42.63924" lon="1.69">
        <ele>1918.618</ele>
        <time>2022-09-17T08:16:12Z</time>
      </trkpt>
      <trkpt lat="42.63925" lon="1.69002">
        <ele>1918.181</ele>
        <time>2022-09-17T08:16:14Z</time>
      </trkpt>
      <trkpt lat="42.63925" lon="1.69003">
        <ele>1918.119</ele>
        <time>2022-09-17T08:16:16Z</time>
      </trkpt>
      <trkpt lat="42.63925" lon="1.69005">
        <ele>1917.758</ele>
        <time>2022-09-17T08:16:18Z</time>
      </trkpt>
      <trkpt lat="42.63926" lon="1.69006">
        <ele>1918.308</ele>
        <time>2022-09-17T08:16:20Z</time>
      </trkpt>
      <trkpt lat="42.63926" lon="1.69008">
        <ele>1918.373</ele>
        <time>2022-09-17T08:16:22Z</time>
      </trkpt>
      <trkpt lat="42.63927" lon="1.69008">
        <ele>1918.388</ele>
        <time>2022-09-17T08:16:24Z</time>
      </trkpt>
      <trkpt lat="42.63927" lon="1.69009">
        <ele>1918.87</ele>
        <time>2022-09-17T08:16:26Z</time>
      </trkpt>
      <trkpt lat="42.63927" lon="1.6901">
        <ele>1919.99</ele>
        <time>2022-09-17T08:16:28Z</time>
      </trkpt>
      <trkpt lat="42.63928" lon="1.69011">
        <ele>1920.896</ele>
        <time>2022-09-17T08:16:30Z</time>
      </trkpt>
      <trkpt lat="42.63929" lon="1.69011">
        <ele>1921.241</ele>
        <time>2022-09-17T08:16:32Z</time>
      </trkpt>
      <trkpt lat="42.6393" lon="1.69012">
        <ele>1921.603</ele>
        <time>2022-09-17T08:16:34Z</time>
      </trkpt>
      <trkpt lat="42.63931" lon="1.69012">
        <ele>1921.165</ele>
        <time>2022-09-17T08:16:36Z</time>
      </trkpt>
      <trkpt lat="42.63932" lon="1.69013">
        <ele>1920.635</ele>
        <time>2022-09-17T08:16:38Z</time>
      </trkpt>
      <trkpt lat="42.63932" lon="1.69013">
        <ele>1921.072</ele>
        <time>2022-09-17T08:16:40Z</time>
      </trkpt>
      <trkpt lat="42.63933" lon="1.69014">
        <ele>1920.807</ele>
        <time>2022-09-17T08:16:42Z</time>
      </trkpt>
      <trkpt lat="42.63934" lon="1.69015">
        <ele>1921.553</ele>
        <time>2022-09-17T08:16:44Z</time>
      </trkpt>
      <trkpt lat="42.63935" lon="1.69016">
        <ele>1922.123</ele>
        <time>2022-09-17T08:16:46Z</time>
      </trkpt>
      <trkpt lat="42.63935" lon="1.69017">
        <ele>1922.352</ele>
        <time>2022-09-17T08:16:48Z</time>
      </trkpt>
      <trkpt lat="42.63936" lon="1.69018">
        <ele>1922.43</ele>
        <time>2022-09-17T08:16:50Z</time>
      </trkpt>
      <trkpt lat="42.63937" lon="1.69019">
        <ele>1923.093</ele>
        <time>2022-09-17T08:16:52Z</time>
      </trkpt>
      <trkpt lat="42.63938" lon="1.6902">
        <ele>1923.386</ele>
        <time>2022-09-17T08:16:54Z</time>
      </trkpt>
      <trkpt lat="42.63938" lon="1.6902">
        <ele>1923.787</ele>
        <time>2022-09-17T08:16:56Z</time>
      </trkpt>
      <trkpt lat="42.63939" lon="1.69021">
        <ele>1924.565</ele>
        <time>2022-09-17T08:16:58Z</time>
      </trkpt>
      <trkpt lat="42.6394" lon="1.69022">
        <ele>1925.089</ele>
        <time>2022-09-17T08:17:00Z</time>
      </trkpt>
      <trkpt lat="42.63941" lon="1.69022">
        <ele>1925.674</ele>
        <time>2022-09-17T08:17:02Z</time>
      </trkpt>
      <trkpt lat="42.63942" lon="1.69023">
        <ele>1925.719</ele>
        <time>2022-09-17T08:17:04Z</time>
      </trkpt>
      <trkpt lat="42.63943" lon="1.69024">
        <ele>1926.357</ele>
        <time>2022-09-17T08:17:06Z</time>
      </trkpt>
      <trkpt lat="42.63944" lon="1.69024">
        <ele>1927.041</ele>
        <time>2022-09-17T08:17:08Z</time>
      </trkpt>
      <trkpt lat="42.63945" lon="1.69023">
        <ele>1927.902</ele>
        <time>2022-09-17T08:17:10Z</time>
      </trkpt>
      <trkpt lat="42.63946" lon="1.69023">
        <ele>1929.015</ele>
        <time>2022-09-17T08:17:12Z</time>
      </trkpt>
      <trkpt lat="42.63946" lon="1.69023">
        <ele>1929.969</ele>
        <time>2022-09-17T08:17:14Z</time>
      </trkpt>
      <trkpt lat="42.63947" lon="1.69023">
        <ele>1929.522</ele>
        <time>2022-09-17T08:17:16Z</time>
      </trkpt>
      <trkpt lat="42.63948" lon="1.69025">
        <ele>1929.071</ele>
        <time>2022-09-17T08:17:18Z</time>
      </trkpt>
      <trkpt lat="42.63949" lon="1.69026">
        <ele>1928.992</ele>
        <time>2022-09-17T08:17:20Z</time>
      </trkpt>
      <trkpt lat="42.6395" lon="1.69027">
        <ele>1929.72</ele>
        <time>2022-09-17T08:17:22Z</time>
      </trkpt>
      <trkpt lat="42.6395" lon="1.69027">
        <ele>1929.861</ele>
        <time>2022-09-17T08:17:24Z</time>
      </trkpt>
      <trkpt lat="42.63951" lon="1.69028">
        <ele>1929.716</ele>
        <time>2022-09-17T08:17:26Z</time>
      </trkpt>
      <trkpt lat="42.63952" lon="1.69028">
        <ele>1929.311</ele>
        <time>2022-09-17T08:17:28Z</time>
      </trkpt>
      <trkpt lat="42.63953" lon="1.69028">
        <ele>1929.701</ele>
        <time>2022-09-17T08:17:30Z</time>
      </trkpt>
      <trkpt lat="42.63954" lon="1.69028">
        <ele>1930.591</ele>
        <time>2022-09-17T08:17:32Z</time>
      </trkpt>
      <trkpt lat="42.63956" lon="1.69029">
        <ele>1931.053</ele>
        <time>2022-09-17T08:17:34Z</time>
      </trkpt>
      <trkpt lat="42.63957" lon="1.69029">
        <ele>1931.623</ele>
        <time>2022-09-17T08:17:36Z</time>
      </trkpt>
      <trkpt lat="42.63958" lon="1.69029">
        <ele>1932.237</ele>
        <time>2022-09-17T08:17:38Z</time>
      </trkpt>
      <trkpt lat="42.63959" lon="1.69029">
        <ele>1932.866</ele>
        <time>2022-09-17T08:17:40Z</time>
      </trkpt>
      <trkpt lat="42.6396" lon="1.69029">
        <ele>1933.283</ele>
        <time>2022-09-17T08:17:42Z</time>
      </trkpt>
      <trkpt lat="42.63961" lon="1.6903">
        <ele>1933.458</ele>
        <time>2022-09-17T08:17:44Z</time>
      </trkpt>
      <trkpt lat="42.63961" lon="1.69031">
        <ele>1934.188</ele>
        <time>2022-09-17T08:17:46Z</time>
      </trkpt>
      <trkpt lat="42.63962" lon="1.69032">
        <ele>1934.854</ele>
        <time>2022-09-17T08:17:48Z</time>
      </trkpt>
      <trkpt lat="42.63963" lon="1.69033">
        <ele>1934.862</ele>
        <time>2022-09-17T08:17:50Z</time>
      </trkpt>
      <trkpt lat="42.63964" lon="1.69034">
        <ele>1934.467</ele>
        <time>2022-09-17T08:17:52Z</time>
      </trkpt>
      <trkpt lat="42.63965" lon="1.69035">
        <ele>1934.806</ele>
        <time>2022-09-17T08:17:54Z</time>
      </trkpt>
      <trkpt lat="42.63966" lon="1.69036">
        <ele>1934.714</ele>
        <time>2022-09-17T08:17:56Z</time>
      </trkpt>
      <trkpt lat="42.63967" lon="1.69037">
        <ele>1934.89</ele>
        <time>2022-09-17T08:17:58Z</time>
      </trkpt>
      <trkpt lat="42.63967" lon="1.69038">
        <ele>1934.771</ele>
        <time>2022-09-17T08:18:00Z</time>
      </trkpt>
      <trkpt lat="42.63968" lon="1.69039">
        <ele>1934.755</ele>
        <time>2022-09-17T08:18:02Z</time>
      </trkpt>
      <trkpt lat="42.6397" lon="1.6904">
        <ele>1935.183</ele>
        <time>2022-09-17T08:18:04Z</time>
      </trkpt>
      <trkpt lat="42.63971" lon="1.6904">
        <ele>1935.661</ele>
        <time>2022-09-17T08:18:06Z</time>
      </trkpt>
      <trkpt lat="42.63972" lon="1.69041">
        <ele>1935.754</ele>
        <time>2022-09-17T08:18:08Z</time>
      </trkpt>
      <trkpt lat="42.63973" lon="1.69042">
        <ele>1936.578</ele>
        <time>2022-09-17T08:18:10Z</time>
      </trkpt>
      <trkpt lat="42.63975" lon="1.69042">
        <ele>1935.472</ele>
        <time>2022-09-17T08:18:12Z</time>
      </trkpt>
      <trkpt lat="42.63976" lon="1.69043">
        <ele>1935.991</ele>
        <time>2022-09-17T08:18:14Z</time>
      </trkpt>
      <trkpt lat="42.63977" lon="1.69045">
        <ele>1936.344</ele>
        <time>2022-09-17T08:18:16Z</time>
      </trkpt>
      <trkpt lat="42.63977" lon="1.69046">
        <ele>1937.023</ele>
        <time>2022-09-17T08:18:18Z</time>
      </trkpt>
      <trkpt lat="42.63979" lon="1.69046">
        <ele>1937.838</ele>
        <time>2022-09-17T08:18:20Z</time>
      </trkpt>
      <trkpt lat="42.63979" lon="1.69047">
        <ele>1937.987</ele>
        <time>2022-09-17T08:18:22Z</time>
      </trkpt>
      <trkpt lat="42.6398" lon="1.69048">
        <ele>1938.271</ele>
        <time>2022-09-17T08:18:24Z</time>
      </trkpt>
      <trkpt lat="42.63981" lon="1.69049">
        <ele>1938.744</ele>
        <time>2022-09-17T08:18:26Z</time>
      </trkpt>
      <trkpt lat="42.63982" lon="1.6905">
        <ele>1938.462</ele>
        <time>2022-09-17T08:18:28Z</time>
      </trkpt>
      <trkpt lat="42.63983" lon="1.69051">
        <ele>1938.659</ele>
        <time>2022-09-17T08:18:30Z</time>
      </trkpt>
      <trkpt lat="42.63983" lon="1.69053">
        <ele>1938.549</ele>
        <time>2022-09-17T08:18:32Z</time>
      </trkpt>
      <trkpt lat="42.63984" lon="1.69053">
        <ele>1939.208</ele>
        <time>2022-09-17T08:18:34Z</time>
      </trkpt>
      <trkpt lat="42.63985" lon="1.69055">
        <ele>1939.347</ele>
        <time>2022-09-17T08:18:36Z</time>
      </trkpt>
      <trkpt lat="42.63986" lon="1.69056">
        <ele>1940.113</ele>
        <time>2022-09-17T08:18:38Z</time>
      </trkpt>
      <trkpt lat="42.63987" lon="1.69057">
        <ele>1940.416</ele>
        <time>2022-09-17T08:18:40Z</time>
      </trkpt>
      <trkpt lat="42.63989" lon="1.69059">
        <ele>1941.232</ele>
        <time>2022-09-17T08:18:42Z</time>
      </trkpt>
      <trkpt lat="42.6399" lon="1.6906">
        <ele>1941.813</ele>
        <time>2022-09-17T08:18:44Z</time>
      </trkpt>
      <trkpt lat="42.63992" lon="1.6906">
        <ele>1942.342</ele>
        <time>2022-09-17T08:18:46Z</time>
      </trkpt>
      <trkpt lat="42.63993" lon="1.69061">
        <ele>1942.386</ele>
        <time>2022-09-17T08:18:48Z</time>
      </trkpt>
      <trkpt lat="42.63994" lon="1.69061">
        <ele>1942.739</ele>
        <time>2022-09-17T08:18:50Z</time>
      </trkpt>
      <trkpt lat="42.63995" lon="1.69061">
        <ele>1942.849</ele>
        <time>2022-09-17T08:18:52Z</time>
      </trkpt>
      <trkpt lat="42.63996" lon="1.69061">
        <ele>1942.938</ele>
        <time>2022-09-17T08:18:54Z</time>
      </trkpt>
      <trkpt lat="42.63997" lon="1.69062">
        <ele>1943.379</ele>
        <time>2022-09-17T08:18:56Z</time>
      </trkpt>
      <trkpt lat="42.63998" lon="1.69062">
        <ele>1943.424</ele>
        <time>2022-09-17T08:18:58Z</time>
      </trkpt>
      <trkpt lat="42.64" lon="1.69063">
        <ele>1943.566</ele>
        <time>2022-09-17T08:19:00Z</time>
      </trkpt>
      <trkpt lat="42.64" lon="1.69064">
        <ele>1943.105</ele>
        <time>2022-09-17T08:19:02Z</time>
      </trkpt>
      <trkpt lat="42.64001" lon="1.69065">
        <ele>1943.061</ele>
        <time>2022-09-17T08:19:04Z</time>
      </trkpt>
      <trkpt lat="42.64002" lon="1.69067">
        <ele>1943.657</ele>
        <time>2022-09-17T08:19:06Z</time>
      </trkpt>
      <trkpt lat="42.64003" lon="1.69068">
        <ele>1943.742</ele>
        <time>2022-09-17T08:19:08Z</time>
      </trkpt>
      <trkpt lat="42.64005" lon="1.69069">
        <ele>1944.118</ele>
        <time>2022-09-17T08:19:10Z</time>
      </trkpt>
      <trkpt lat="42.64006" lon="1.69071">
        <ele>1944.866</ele>
        <time>2022-09-17T08:19:12Z</time>
      </trkpt>
      <trkpt lat="42.64007" lon="1.69072">
        <ele>1946.092</ele>
        <time>2022-09-17T08:19:14Z</time>
      </trkpt>
      <trkpt lat="42.64008" lon="1.69072">
        <ele>1947.491</ele>
        <time>2022-09-17T08:19:16Z</time>
      </trkpt>
      <trkpt lat="42.64009" lon="1.69073">
        <ele>1948.505</ele>
        <time>2022-09-17T08:19:18Z</time>
      </trkpt>
      <trkpt lat="42.6401" lon="1.69074">
        <ele>1948.822</ele>
        <time>2022-09-17T08:19:20Z</time>
      </trkpt>
      <trkpt lat="42.6401" lon="1.69075">
        <ele>1949.214</ele>
        <time>2022-09-17T08:19:22Z</time>
      </trkpt>
      <trkpt lat="42.64012" lon="1.69076">
        <ele>1949.88</ele>
        <time>2022-09-17T08:19:24Z</time>
      </trkpt>
      <trkpt lat="42.64013" lon="1.69075">
        <ele>1950.287</ele>
        <time>2022-09-17T08:19:26Z</time>
      </trkpt>
      <trkpt lat="42.64014" lon="1.69075">
        <ele>1949.618</ele>
        <time>2022-09-17T08:19:28Z</time>
      </trkpt>
      <trkpt lat="42.64014" lon="1.69077">
        <ele>1949.756</ele>
        <time>2022-09-17T08:19:30Z</time>
      </trkpt>
      <trkpt lat="42.64015" lon="1.69078">
        <ele>1949.506</ele>
        <time>2022-09-17T08:19:32Z</time>
      </trkpt>
      <trkpt lat="42.64015" lon="1.69078">
        <ele>1950.225</ele>
        <time>2022-09-17T08:19:34Z</time>
      </trkpt>
      <trkpt lat="42.64016" lon="1.69079">
        <ele>1950.379</ele>
        <time>2022-09-17T08:19:36Z</time>
      </trkpt>
      <trkpt lat="42.64017" lon="1.6908">
        <ele>1950.305</ele>
        <time>2022-09-17T08:19:38Z</time>
      </trkpt>
      <trkpt lat="42.64017" lon="1.69081">
        <ele>1950.828</ele>
        <time>2022-09-17T08:19:40Z</time>
      </trkpt>
      <trkpt lat="42.64018" lon="1.69082">
        <ele>1951.231</ele>
        <time>2022-09-17T08:19:42Z</time>
      </trkpt>
      <trkpt lat="42.64018" lon="1.69083">
        <ele>1950.937</ele>
        <time>2022-09-17T08:19:44Z</time>
      </trkpt>
      <trkpt lat="42.64019" lon="1.69084">
        <ele>1951.111</ele>
        <time>2022-09-17T08:19:46Z</time>
      </trkpt>
      <trkpt lat="42.6402" lon="1.69085">
        <ele>1950.721</ele>
        <time>2022-09-17T08:19:48Z</time>
      </trkpt>
      <trkpt lat="42.64021" lon="1.69086">
        <ele>1950.266</ele>
        <time>2022-09-17T08:19:50Z</time>
      </trkpt>
      <trkpt lat="42.64022" lon="1.69086">
        <ele>1950.439</ele>
        <time>2022-09-17T08:19:52Z</time>
      </trkpt>
      <trkpt lat="42.64023" lon="1.69087">
        <ele>1951.023</ele>
        <time>2022-09-17T08:19:54Z</time>
      </trkpt>
      <trkpt lat="42.64024" lon="1.69087">
        <ele>1951.205</ele>
        <time>2022-09-17T08:19:56Z</time>
      </trkpt>
      <trkpt lat="42.64025" lon="1.69088">
        <ele>1951.562</ele>
        <time>2022-09-17T08:19:58Z</time>
      </trkpt>
      <trkpt lat="42.64026" lon="1.69089">
        <ele>1952.23</ele>
        <time>2022-09-17T08:20:00Z</time>
      </trkpt>
      <trkpt lat="42.64026" lon="1.6909">
        <ele>1952.715</ele>
        <time>2022-09-17T08:20:02Z</time>
      </trkpt>
      <trkpt lat="42.64027" lon="1.6909">
        <ele>1953.143</ele>
        <time>2022-09-17T08:20:04Z</time>
      </trkpt>
      <trkpt lat="42.64028" lon="1.6909">
        <ele>1953.497</ele>
        <time>2022-09-17T08:20:06Z</time>
      </trkpt>
      <trkpt lat="42.64029" lon="1.69091">
        <ele>1953.554</ele>
        <time>2022-09-17T08:20:08Z</time>
      </trkpt>
      <trkpt lat="42.6403" lon="1.69091">
        <ele>1953.942</ele>
        <time>2022-09-17T08:20:10Z</time>
      </trkpt>
      <trkpt lat="42.64031" lon="1.69092">
        <ele>1954.341</ele>
        <time>2022-09-17T08:20:12Z</time>
      </trkpt>
      <trkpt lat="42.64032" lon="1.69093">
        <ele>1955.01</ele>
        <time>2022-09-17T08:20:14Z</time>
      </trkpt>
      <trkpt lat="42.64032" lon="1.69094">
        <ele>1955.667</ele>
        <time>2022-09-17T08:20:16Z</time>
      </trkpt>
      <trkpt lat="42.64033" lon="1.69096">
        <ele>1955.603</ele>
        <time>2022-09-17T08:20:18Z</time>
      </trkpt>
      <trkpt lat="42.64034" lon="1.69096">
        <ele>1956.124</ele>
        <time>2022-09-17T08:20:20Z</time>
      </trkpt>
      <trkpt lat="42.64035" lon="1.69097">
        <ele>1956.372</ele>
        <time>2022-09-17T08:20:22Z</time>
      </trkpt>
      <trkpt lat="42.64035" lon="1.69098">
        <ele>1956.666</ele>
        <time>2022-09-17T08:20:24Z</time>
      </trkpt>
      <trkpt lat="42.64036" lon="1.69099">
        <ele>1956.462</ele>
        <time>2022-09-17T08:20:26Z</time>
      </trkpt>
      <trkpt lat="42.64037" lon="1.691">
        <ele>1956.661</ele>
        <time>2022-09-17T08:20:28Z</time>
      </trkpt>
      <trkpt lat="42.64038" lon="1.691">
        <ele>1957.418</ele>
        <time>2022-09-17T08:20:30Z</time>
      </trkpt>
      <trkpt lat="42.64039" lon="1.69101">
        <ele>1957.616</ele>
        <time>2022-09-17T08:20:32Z</time>
      </trkpt>
      <trkpt lat="42.64039" lon="1.69103">
        <ele>1958.003</ele>
        <time>2022-09-17T08:20:34Z</time>
      </trkpt>
      <trkpt lat="42.6404" lon="1.69104">
        <ele>1958.681</ele>
        <time>2022-09-17T08:20:36Z</time>
      </trkpt>
      <trkpt lat="42.64041" lon="1.69105">
        <ele>1959.172</ele>
        <time>2022-09-17T08:20:38Z</time>
      </trkpt>
      <trkpt lat="42.64042" lon="1.69106">
        <ele>1959.811</ele>
        <time>2022-09-17T08:20:40Z</time>
      </trkpt>
      <trkpt lat="42.64043" lon="1.69107">
        <ele>1960.233</ele>
        <time>2022-09-17T08:20:42Z</time>
      </trkpt>
      <trkpt lat="42.64044" lon="1.69107">
        <ele>1960.383</ele>
        <time>2022-09-17T08:20:44Z</time>
      </trkpt>
      <trkpt lat="42.64045" lon="1.69109">
        <ele>1960.167</ele>
        <time>2022-09-17T08:20:46Z</time>
      </trkpt>
      <trkpt lat="42.64046" lon="1.6911">
        <ele>1960.219</ele>
        <time>2022-09-17T08:20:48Z</time>
      </trkpt>
      <trkpt lat="42.64047" lon="1.69111">
        <ele>1960.754</ele>
        <time>2022-09-17T08:20:50Z</time>
      </trkpt>
      <trkpt lat="42.64048" lon="1.69112">
        <ele>1961.155</ele>
        <time>2022-09-17T08:20:52Z</time>
      </trkpt>
      <trkpt lat="42.6405" lon="1.69113">
        <ele>1961.355</ele>
        <time>2022-09-17T08:20:54Z</time>
      </trkpt>
      <trkpt lat="42.64051" lon="1.69114">
        <ele>1961.501</ele>
        <time>2022-09-17T08:20:56Z</time>
      </trkpt>
      <trkpt lat="42.64052" lon="1.69115">
        <ele>1962.091</ele>
        <time>2022-09-17T08:20:58Z</time>
      </trkpt>
      <trkpt lat="42.64054" lon="1.69114">
        <ele>1962.11</ele>
        <time>2022-09-17T08:21:00Z</time>
      </trkpt>
      <trkpt lat="42.64055" lon="1.69114">
        <ele>1963.03</ele>
        <time>2022-09-17T08:21:02Z</time>
      </trkpt>
      <trkpt lat="42.64056" lon="1.69114">
        <ele>1963.615</ele>
        <time>2022-09-17T08:21:04Z</time>
      </trkpt>
      <trkpt lat="42.64057" lon="1.69113">
        <ele>1964.145</ele>
        <time>2022-09-17T08:21:06Z</time>
      </trkpt>
      <trkpt lat="42.64058" lon="1.69114">
        <ele>1964.756</ele>
        <time>2022-09-17T08:21:08Z</time>
      </trkpt>
      <trkpt lat="42.6406" lon="1.69113">
        <ele>1965.437</ele>
        <time>2022-09-17T08:21:10Z</time>
      </trkpt>
      <trkpt lat="42.64061" lon="1.69113">
        <ele>1965.662</ele>
        <time>2022-09-17T08:21:12Z</time>
      </trkpt>
      <trkpt lat="42.64062" lon="1.69114">
        <ele>1966.334</ele>
        <time>2022-09-17T08:21:14Z</time>
      </trkpt>
      <trkpt lat="42.64063" lon="1.69115">
        <ele>1966.128</ele>
        <time>2022-09-17T08:21:16Z</time>
      </trkpt>
      <trkpt lat="42.64063" lon="1.69116">
        <ele>1966.189</ele>
        <time>2022-09-17T08:21:18Z</time>
      </trkpt>
      <trkpt lat="42.64064" lon="1.69116">
        <ele>1966.381</ele>
        <time>2022-09-17T08:21:20Z</time>
      </trkpt>
      <trkpt lat="42.64065" lon="1.69117">
        <ele>1966.086</ele>
        <time>2022-09-17T08:21:22Z</time>
      </trkpt>
      <trkpt lat="42.64067" lon="1.69118">
        <ele>1966.496</ele>
        <time>2022-09-17T08:21:24Z</time>
      </trkpt>
      <trkpt lat="42.64068" lon="1.69118">
        <ele>1966.782</ele>
        <time>2022-09-17T08:21:26Z</time>
      </trkpt>
      <trkpt lat="42.64069" lon="1.69119">
        <ele>1967.23</ele>
        <time>2022-09-17T08:21:28Z</time>
      </trkpt>
      <trkpt lat="42.64069" lon="1.6912">
        <ele>1967.389</ele>
        <time>2022-09-17T08:21:30Z</time>
      </trkpt>
      <trkpt lat="42.6407" lon="1.6912">
        <ele>1967.871</ele>
        <time>2022-09-17T08:21:32Z</time>
      </trkpt>
      <trkpt lat="42.64071" lon="1.69121">
        <ele>1968.252</ele>
        <time>2022-09-17T08:21:34Z</time>
      </trkpt>
      <trkpt lat="42.64072" lon="1.69122">
        <ele>1968.262</ele>
        <time>2022-09-17T08:21:36Z</time>
      </trkpt>
      <trkpt lat="42.64073" lon="1.69124">
        <ele>1969.164</ele>
        <time>2022-09-17T08:21:38Z</time>
      </trkpt>
      <trkpt lat="42.64074" lon="1.69125">
        <ele>1969.683</ele>
        <time>2022-09-17T08:21:40Z</time>
      </trkpt>
      <trkpt lat="42.64075" lon="1.69126">
        <ele>1970.047</ele>
        <time>2022-09-17T08:21:42Z</time>
      </trkpt>
      <trkpt lat="42.64076" lon="1.69127">
        <ele>1970.025</ele>
        <time>2022-09-17T08:21:44Z</time>
      </trkpt>
      <trkpt lat="42.64077" lon="1.69127">
        <ele>1970.057</ele>
        <time>2022-09-17T08:21:46Z</time>
      </trkpt>
      <trkpt lat="42.64078" lon="1.69128">
        <ele>1970.257</ele>
        <time>2022-09-17T08:21:48Z</time>
      </trkpt>
      <trkpt lat="42.64079" lon="1.69129">
        <ele>1969.63</ele>
        <time>2022-09-17T08:21:50Z</time>
      </trkpt>
      <trkpt lat="42.64079" lon="1.6913">
        <ele>1969.752</ele>
        <time>2022-09-17T08:21:52Z</time>
      </trkpt>
      <trkpt lat="42.64081" lon="1.6913">
        <ele>1970.107</ele>
        <time>2022-09-17T08:21:54Z</time>
      </trkpt>
      <trkpt lat="42.64082" lon="1.6913">
        <ele>1971.051</ele>
        <time>2022-09-17T08:21:56Z</time>
      </trkpt>
      <trkpt lat="42.64083" lon="1.6913">
        <ele>1971.956</ele>
        <time>2022-09-17T08:21:58Z</time>
      </trkpt>
      <trkpt lat="42.64084" lon="1.69131">
        <ele>1972.336</ele>
        <time>2022-09-17T08:22:00Z</time>
      </trkpt>
      <trkpt lat="42.64084" lon="1.69131">
        <ele>1972.87</ele>
        <time>2022-09-17T08:22:02Z</time>
      </trkpt>
      <trkpt lat="42.64085" lon="1.6913">
        <ele>1972.913</ele>
        <time>2022-09-17T08:22:04Z</time>
      </trkpt>
      <trkpt lat="42.64086" lon="1.6913">
        <ele>1973.011</ele>
        <time>2022-09-17T08:22:06Z</time>
      </trkpt>
      <trkpt lat="42.64086" lon="1.6913">
        <ele>1973.752</ele>
        <time>2022-09-17T08:22:08Z</time>
      </trkpt>
      <trkpt lat="42.64087" lon="1.6913">
        <ele>1974.516</ele>
        <time>2022-09-17T08:22:10Z</time>
      </trkpt>
      <trkpt lat="42.64088" lon="1.6913">
        <ele>1975.121</ele>
        <time>2022-09-17T08:22:12Z</time>
      </trkpt>
      <trkpt lat="42.64089" lon="1.69131">
        <ele>1975.786</ele>
        <time>2022-09-17T08:22:14Z</time>
      </trkpt>
      <trkpt lat="42.6409" lon="1.69131">
        <ele>1975.751</ele>
        <time>2022-09-17T08:22:16Z</time>
      </trkpt>
      <trkpt lat="42.64091" lon="1.69132">
        <ele>1975.803</ele>
        <time>2022-09-17T08:22:18Z</time>
      </trkpt>
      <trkpt lat="42.64092" lon="1.69132">
        <ele>1975.335</ele>
        <time>2022-09-17T08:22:20Z</time>
      </trkpt>
      <trkpt lat="42.64092" lon="1.69132">
        <ele>1975.705</ele>
        <time>2022-09-17T08:22:22Z</time>
      </trkpt>
      <trkpt lat="42.64093" lon="1.69132">
        <ele>1975.713</ele>
        <time>2022-09-17T08:22:24Z</time>
      </trkpt>
      <trkpt lat="42.64093" lon="1.69132">
        <ele>1976.173</ele>
        <time>2022-09-17T08:22:26Z</time>
      </trkpt>
      <trkpt lat="42.64094" lon="1.69132">
        <ele>1976.417</ele>
        <time>2022-09-17T08:22:28Z</time>
      </trkpt>
      <trkpt lat="42.64094" lon="1.69132">
        <ele>1976.411</ele>
        <time>2022-09-17T08:22:30Z</time>
      </trkpt>
      <trkpt lat="42.64094" lon="1.69132">
        <ele>1976.409</ele>
        <time>2022-09-17T08:22:32Z</time>
      </trkpt>
      <trkpt lat="42.64094" lon="1.69132">
        <ele>1976.409</ele>
        <time>2022-09-17T08:22:34Z</time>
      </trkpt>
      <trkpt lat="42.64094" lon="1.69132">
        <ele>1976.41</ele>
        <time>2022-09-17T08:22:36Z</time>
      </trkpt>
      <trkpt lat="42.64094" lon="1.69132">
        <ele>1976.413</ele>
        <time>2022-09-17T08:22:38Z</time>
      </trkpt>
      <trkpt lat="42.64094" lon="1.69132">
        <ele>1976.412</ele>
        <time>2022-09-17T08:22:40Z</time>
      </trkpt>
      <trkpt lat="42.64094" lon="1.69132">
        <ele>1976.406</ele>
        <time>2022-09-17T08:22:42Z</time>
      </trkpt>
      <trkpt lat="42.64094" lon="1.69132">
        <ele>1976.405</ele>
        <time>2022-09-17T08:22:44Z</time>
      </trkpt>
      <trkpt lat="42.64094" lon="1.69132">
        <ele>1976.407</ele>
        <time>2022-09-17T08:22:46Z</time>
      </trkpt>
      <trkpt lat="42.64094" lon="1.69132">
        <ele>1976.471</ele>
        <time>2022-09-17T08:22:48Z</time>
      </trkpt>
      <trkpt lat="42.64094" lon="1.69132">
        <ele>1976.476</ele>
        <time>2022-09-17T08:22:50Z</time>
      </trkpt>
      <trkpt lat="42.64094" lon="1.69132">
        <ele>1976.462</ele>
        <time>2022-09-17T08:22:52Z</time>
      </trkpt>
      <trkpt lat="42.64094" lon="1.69132">
        <ele>1976.461</ele>
        <time>2022-09-17T08:22:54Z</time>
      </trkpt>
      <trkpt lat="42.64094" lon="1.69132">
        <ele>1976.453</ele>
        <time>2022-09-17T08:22:56Z</time>
      </trkpt>
      <trkpt lat="42.64094" lon="1.69132">
        <ele>1976.458</ele>
        <time>2022-09-17T08:22:58Z</time>
      </trkpt>
      <trkpt lat="42.64094" lon="1.69132">
        <ele>1976.463</ele>
        <time>2022-09-17T08:23:00Z</time>
      </trkpt>
      <trkpt lat="42.64094" lon="1.69132">
        <ele>1976.462</ele>
        <time>2022-09-17T08:23:02Z</time>
      </trkpt>
      <trkpt lat="42.64094" lon="1.69132">
        <ele>1976.46</ele>
        <time>2022-09-17T08:23:04Z</time>
      </trkpt>
      <trkpt lat="42.64094" lon="1.69132">
        <ele>1976.451</ele>
        <time>2022-09-17T08:23:06Z</time>
      </trkpt>
      <trkpt lat="42.64094" lon="1.69132">
        <ele>1976.453</ele>
        <time>2022-09-17T08:23:08Z</time>
      </trkpt>
      <trkpt lat="42.64094" lon="1.69132">
        <ele>1976.45</ele>
        <time>2022-09-17T08:23:10Z</time>
      </trkpt>
      <trkpt lat="42.64094" lon="1.69132">
        <ele>1976.445</ele>
        <time>2022-09-17T08:23:12Z</time>
      </trkpt>
      <trkpt lat="42.64094" lon="1.69132">
        <ele>1976.447</ele>
        <time>2022-09-17T08:23:14Z</time>
      </trkpt>
      <trkpt lat="42.64094" lon="1.69132">
        <ele>1976.448</ele>
        <time>2022-09-17T08:23:16Z</time>
      </trkpt>
      <trkpt lat="42.64094" lon="1.69132">
        <ele>1976.451</ele>
        <time>2022-09-17T08:23:18Z</time>
      </trkpt>
      <trkpt lat="42.64094" lon="1.69132">
        <ele>1976.454</ele>
        <time>2022-09-17T08:23:20Z</time>
      </trkpt>
      <trkpt lat="42.64094" lon="1.69132">
        <ele>1976.448</ele>
        <time>2022-09-17T08:23:22Z</time>
      </trkpt>
      <trkpt lat="42.64094" lon="1.69132">
        <ele>1976.449</ele>
        <time>2022-09-17T08:23:24Z</time>
      </trkpt>
      <trkpt lat="42.64094" lon="1.69132">
        <ele>1976.442</ele>
        <time>2022-09-17T08:23:26Z</time>
      </trkpt>
      <trkpt lat="42.64094" lon="1.69132">
        <ele>1976.441</ele>
        <time>2022-09-17T08:23:28Z</time>
      </trkpt>
      <trkpt lat="42.64094" lon="1.69132">
        <ele>1976.431</ele>
        <time>2022-09-17T08:23:30Z</time>
      </trkpt>
      <trkpt lat="42.64094" lon="1.69132">
        <ele>1976.425</ele>
        <time>2022-09-17T08:23:32Z</time>
      </trkpt>
      <trkpt lat="42.64094" lon="1.69132">
        <ele>1976.423</ele>
        <time>2022-09-17T08:23:34Z</time>
      </trkpt>
      <trkpt lat="42.64094" lon="1.69132">
        <ele>1976.429</ele>
        <time>2022-09-17T08:23:36Z</time>
      </trkpt>
      <trkpt lat="42.64094" lon="1.69132">
        <ele>1976.429</ele>
        <time>2022-09-17T08:23:38Z</time>
      </trkpt>
      <trkpt lat="42.64094" lon="1.69132">
        <ele>1976.424</ele>
        <time>2022-09-17T08:23:40Z</time>
      </trkpt>
      <trkpt lat="42.64094" lon="1.69132">
        <ele>1976.421</ele>
        <time>2022-09-17T08:23:42Z</time>
      </trkpt>
      <trkpt lat="42.64094" lon="1.69132">
        <ele>1976.418</ele>
        <time>2022-09-17T08:23:44Z</time>
      </trkpt>
      <trkpt lat="42.64094" lon="1.69132">
        <ele>1976.413</ele>
        <time>2022-09-17T08:23:46Z</time>
      </trkpt>
      <trkpt lat="42.64094" lon="1.69132">
        <ele>1976.413</ele>
        <time>2022-09-17T08:23:48Z</time>
      </trkpt>
      <trkpt lat="42.64094" lon="1.69132">
        <ele>1976.419</ele>
        <time>2022-09-17T08:23:50Z</time>
      </trkpt>
      <trkpt lat="42.64094" lon="1.69132">
        <ele>1976.427</ele>
        <time>2022-09-17T08:23:52Z</time>
      </trkpt>
      <trkpt lat="42.64094" lon="1.69132">
        <ele>1976.428</ele>
        <time>2022-09-17T08:23:54Z</time>
      </trkpt>
      <trkpt lat="42.64094" lon="1.69132">
        <ele>1976.427</ele>
        <time>2022-09-17T08:23:56Z</time>
      </trkpt>
      <trkpt lat="42.64094" lon="1.69132">
        <ele>1976.42</ele>
        <time>2022-09-17T08:23:58Z</time>
      </trkpt>
      <trkpt lat="42.64094" lon="1.69132">
        <ele>1976.417</ele>
        <time>2022-09-17T08:24:00Z</time>
      </trkpt>
      <trkpt lat="42.64094" lon="1.69132">
        <ele>1976.413</ele>
        <time>2022-09-17T08:24:02Z</time>
      </trkpt>
      <trkpt lat="42.64094" lon="1.69132">
        <ele>1976.41</ele>
        <time>2022-09-17T08:24:04Z</time>
      </trkpt>
      <trkpt lat="42.64094" lon="1.69132">
        <ele>1976.409</ele>
        <time>2022-09-17T08:24:06Z</time>
      </trkpt>
      <trkpt lat="42.64094" lon="1.69132">
        <ele>1976.409</ele>
        <time>2022-09-17T08:24:08Z</time>
      </trkpt>
      <trkpt lat="42.64095" lon="1.69134">
        <ele>1976.515</ele>
        <time>2022-09-17T08:24:10Z</time>
      </trkpt>
      <trkpt lat="42.64096" lon="1.69135">
        <ele>1977.177</ele>
        <time>2022-09-17T08:24:12Z</time>
      </trkpt>
      <trkpt lat="42.64097" lon="1.69136">
        <ele>1977.593</ele>
        <time>2022-09-17T08:24:14Z</time>
      </trkpt>
      <trkpt lat="42.64097" lon="1.69137">
        <ele>1977.902</ele>
        <time>2022-09-17T08:24:16Z</time>
      </trkpt>
      <trkpt lat="42.64098" lon="1.69138">
        <ele>1978.501</ele>
        <time>2022-09-17T08:24:18Z</time>
      </trkpt>
      <trkpt lat="42.64099" lon="1.6914">
        <ele>1978.587</ele>
        <time>2022-09-17T08:24:20Z</time>
      </trkpt>
      <trkpt lat="42.64099" lon="1.69141">
        <ele>1978.846</ele>
        <time>2022-09-17T08:24:22Z</time>
      </trkpt>
      <trkpt lat="42.641" lon="1.69141">
        <ele>1979.727</ele>
        <time>2022-09-17T08:24:24Z</time>
      </trkpt>
      <trkpt lat="42.64101" lon="1.69142">
        <ele>1980.459</ele>
        <time>2022-09-17T08:24:26Z</time>
      </trkpt>
      <trkpt lat="42.64102" lon="1.69142">
        <ele>1980.71</ele>
        <time>2022-09-17T08:24:28Z</time>
      </trkpt>
      <trkpt lat="42.64103" lon="1.69143">
        <ele>1982.037</ele>
        <time>2022-09-17T08:24:30Z</time>
      </trkpt>
      <trkpt lat="42.64104" lon="1.69143">
        <ele>1982.919</ele>
        <time>2022-09-17T08:24:32Z</time>
      </trkpt>
      <trkpt lat="42.64105" lon="1.69145">
        <ele>1983.494</ele>
        <time>2022-09-17T08:24:34Z</time>
      </trkpt>
      <trkpt lat="42.64105" lon="1.69146">
        <ele>1983.694</ele>
        <time>2022-09-17T08:24:36Z</time>
      </trkpt>
      <trkpt lat="42.64106" lon="1.69147">
        <ele>1984.51</ele>
        <time>2022-09-17T08:24:38Z</time>
      </trkpt>
      <trkpt lat="42.64106" lon="1.69148">
        <ele>1984.739</ele>
        <time>2022-09-17T08:24:40Z</time>
      </trkpt>
      <trkpt lat="42.64107" lon="1.69149">
        <ele>1984.729</ele>
        <time>2022-09-17T08:24:42Z</time>
      </trkpt>
      <trkpt lat="42.64108" lon="1.6915">
        <ele>1985.255</ele>
        <time>2022-09-17T08:24:44Z</time>
      </trkpt>
      <trkpt lat="42.64108" lon="1.69151">
        <ele>1985.528</ele>
        <time>2022-09-17T08:24:46Z</time>
      </trkpt>
      <trkpt lat="42.64109" lon="1.69152">
        <ele>1985.669</ele>
        <time>2022-09-17T08:24:48Z</time>
      </trkpt>
      <trkpt lat="42.6411" lon="1.69153">
        <ele>1986.75</ele>
        <time>2022-09-17T08:24:50Z</time>
      </trkpt>
      <trkpt lat="42.64111" lon="1.69153">
        <ele>1987.722</ele>
        <time>2022-09-17T08:24:52Z</time>
      </trkpt>
      <trkpt lat="42.64112" lon="1.69153">
        <ele>1988.74</ele>
        <time>2022-09-17T08:24:54Z</time>
      </trkpt>
      <trkpt lat="42.64113" lon="1.69153">
        <ele>1989.414</ele>
        <time>2022-09-17T08:24:56Z</time>
      </trkpt>
      <trkpt lat="42.64114" lon="1.69154">
        <ele>1990.083</ele>
        <time>2022-09-17T08:24:58Z</time>
      </trkpt>
      <trkpt lat="42.64115" lon="1.69155">
        <ele>1990.617</ele>
        <time>2022-09-17T08:25:00Z</time>
      </trkpt>
      <trkpt lat="42.64116" lon="1.69155">
        <ele>1991.653</ele>
        <time>2022-09-17T08:25:02Z</time>
      </trkpt>
      <trkpt lat="42.64117" lon="1.69157">
        <ele>1992.03</ele>
        <time>2022-09-17T08:25:04Z</time>
      </trkpt>
      <trkpt lat="42.64117" lon="1.69157">
        <ele>1993.031</ele>
        <time>2022-09-17T08:25:06Z</time>
      </trkpt>
      <trkpt lat="42.64118" lon="1.69157">
        <ele>1992.84</ele>
        <time>2022-09-17T08:25:08Z</time>
      </trkpt>
      <trkpt lat="42.64119" lon="1.69158">
        <ele>1993.069</ele>
        <time>2022-09-17T08:25:10Z</time>
      </trkpt>
      <trkpt lat="42.6412" lon="1.69158">
        <ele>1993.486</ele>
        <time>2022-09-17T08:25:12Z</time>
      </trkpt>
      <trkpt lat="42.64121" lon="1.69159">
        <ele>1994.11</ele>
        <time>2022-09-17T08:25:14Z</time>
      </trkpt>
      <trkpt lat="42.64122" lon="1.69159">
        <ele>1994.468</ele>
        <time>2022-09-17T08:25:16Z</time>
      </trkpt>
      <trkpt lat="42.64122" lon="1.69159">
        <ele>1995.216</ele>
        <time>2022-09-17T08:25:18Z</time>
      </trkpt>
      <trkpt lat="42.64123" lon="1.6916">
        <ele>1995.835</ele>
        <time>2022-09-17T08:25:20Z</time>
      </trkpt>
      <trkpt lat="42.64123" lon="1.69161">
        <ele>1995.868</ele>
        <time>2022-09-17T08:25:22Z</time>
      </trkpt>
      <trkpt lat="42.64123" lon="1.69162">
        <ele>1996.071</ele>
        <time>2022-09-17T08:25:24Z</time>
      </trkpt>
      <trkpt lat="42.64124" lon="1.69164">
        <ele>1997.009</ele>
        <time>2022-09-17T08:25:26Z</time>
      </trkpt>
      <trkpt lat="42.64125" lon="1.69164">
        <ele>1997.373</ele>
        <time>2022-09-17T08:25:28Z</time>
      </trkpt>
      <trkpt lat="42.64125" lon="1.69166">
        <ele>1997.593</ele>
        <time>2022-09-17T08:25:30Z</time>
      </trkpt>
      <trkpt lat="42.64126" lon="1.69166">
        <ele>1998.108</ele>
        <time>2022-09-17T08:25:32Z</time>
      </trkpt>
      <trkpt lat="42.64127" lon="1.69168">
        <ele>1998.7</ele>
        <time>2022-09-17T08:25:34Z</time>
      </trkpt>
      <trkpt lat="42.64127" lon="1.69168">
        <ele>1999.605</ele>
        <time>2022-09-17T08:25:36Z</time>
      </trkpt>
      <trkpt lat="42.64128" lon="1.69169">
        <ele>2000.106</ele>
        <time>2022-09-17T08:25:38Z</time>
      </trkpt>
      <trkpt lat="42.64128" lon="1.6917">
        <ele>1999.76</ele>
        <time>2022-09-17T08:25:40Z</time>
      </trkpt>
      <trkpt lat="42.64129" lon="1.69172">
        <ele>1999.599</ele>
        <time>2022-09-17T08:25:42Z</time>
      </trkpt>
      <trkpt lat="42.6413" lon="1.69173">
        <ele>2000.229</ele>
        <time>2022-09-17T08:25:44Z</time>
      </trkpt>
      <trkpt lat="42.64131" lon="1.69174">
        <ele>2001.235</ele>
        <time>2022-09-17T08:25:46Z</time>
      </trkpt>
      <trkpt lat="42.64131" lon="1.69176">
        <ele>2001.589</ele>
        <time>2022-09-17T08:25:48Z</time>
      </trkpt>
      <trkpt lat="42.64132" lon="1.69176">
        <ele>2002.154</ele>
        <time>2022-09-17T08:25:50Z</time>
      </trkpt>
      <trkpt lat="42.64133" lon="1.69178">
        <ele>2001.269</ele>
        <time>2022-09-17T08:25:52Z</time>
      </trkpt>
      <trkpt lat="42.64134" lon="1.69178">
        <ele>2001.954</ele>
        <time>2022-09-17T08:25:54Z</time>
      </trkpt>
      <trkpt lat="42.64135" lon="1.69179">
        <ele>2002.232</ele>
        <time>2022-09-17T08:25:56Z</time>
      </trkpt>
      <trkpt lat="42.64137" lon="1.69179">
        <ele>2004.01</ele>
        <time>2022-09-17T08:25:58Z</time>
      </trkpt>
      <trkpt lat="42.64138" lon="1.69178">
        <ele>2004.404</ele>
        <time>2022-09-17T08:26:00Z</time>
      </trkpt>
      <trkpt lat="42.64139" lon="1.6918">
        <ele>2004.41</ele>
        <time>2022-09-17T08:26:02Z</time>
      </trkpt>
      <trkpt lat="42.6414" lon="1.69181">
        <ele>2004.655</ele>
        <time>2022-09-17T08:26:04Z</time>
      </trkpt>
      <trkpt lat="42.6414" lon="1.69183">
        <ele>2005.297</ele>
        <time>2022-09-17T08:26:06Z</time>
      </trkpt>
      <trkpt lat="42.64142" lon="1.69183">
        <ele>2005.588</ele>
        <time>2022-09-17T08:26:08Z</time>
      </trkpt>
      <trkpt lat="42.64143" lon="1.69184">
        <ele>2005.787</ele>
        <time>2022-09-17T08:26:10Z</time>
      </trkpt>
      <trkpt lat="42.64144" lon="1.69184">
        <ele>2006.143</ele>
        <time>2022-09-17T08:26:12Z</time>
      </trkpt>
      <trkpt lat="42.64145" lon="1.69184">
        <ele>2006.469</ele>
        <time>2022-09-17T08:26:14Z</time>
      </trkpt>
      <trkpt lat="42.64147" lon="1.69183">
        <ele>2007.482</ele>
        <time>2022-09-17T08:26:16Z</time>
      </trkpt>
      <trkpt lat="42.64148" lon="1.69182">
        <ele>2007.65</ele>
        <time>2022-09-17T08:26:18Z</time>
      </trkpt>
      <trkpt lat="42.64149" lon="1.69183">
        <ele>2007.416</ele>
        <time>2022-09-17T08:26:20Z</time>
      </trkpt>
      <trkpt lat="42.6415" lon="1.69184">
        <ele>2007.017</ele>
        <time>2022-09-17T08:26:22Z</time>
      </trkpt>
      <trkpt lat="42.64151" lon="1.69185">
        <ele>2007.634</ele>
        <time>2022-09-17T08:26:24Z</time>
      </trkpt>
      <trkpt lat="42.64152" lon="1.69185">
        <ele>2007.844</ele>
        <time>2022-09-17T08:26:26Z</time>
      </trkpt>
      <trkpt lat="42.64153" lon="1.69185">
        <ele>2008.257</ele>
        <time>2022-09-17T08:26:28Z</time>
      </trkpt>
      <trkpt lat="42.64155" lon="1.69186">
        <ele>2008.305</ele>
        <time>2022-09-17T08:26:30Z</time>
      </trkpt>
      <trkpt lat="42.64156" lon="1.69186">
        <ele>2008.247</ele>
        <time>2022-09-17T08:26:32Z</time>
      </trkpt>
      <trkpt lat="42.64157" lon="1.69187">
        <ele>2008.245</ele>
        <time>2022-09-17T08:26:34Z</time>
      </trkpt>
      <trkpt lat="42.64158" lon="1.69187">
        <ele>2008.14</ele>
        <time>2022-09-17T08:26:36Z</time>
      </trkpt>
      <trkpt lat="42.64159" lon="1.69188">
        <ele>2007.444</ele>
        <time>2022-09-17T08:26:38Z</time>
      </trkpt>
      <trkpt lat="42.64161" lon="1.69189">
        <ele>2007.531</ele>
        <time>2022-09-17T08:26:40Z</time>
      </trkpt>
      <trkpt lat="42.64162" lon="1.69189">
        <ele>2007.935</ele>
        <time>2022-09-17T08:26:42Z</time>
      </trkpt>
      <trkpt lat="42.64163" lon="1.6919">
        <ele>2008.103</ele>
        <time>2022-09-17T08:26:44Z</time>
      </trkpt>
      <trkpt lat="42.64164" lon="1.69191">
        <ele>2008.266</ele>
        <time>2022-09-17T08:26:46Z</time>
      </trkpt>
      <trkpt lat="42.64165" lon="1.69192">
        <ele>2008.311</ele>
        <time>2022-09-17T08:26:48Z</time>
      </trkpt>
      <trkpt lat="42.64167" lon="1.69193">
        <ele>2007.622</ele>
        <time>2022-09-17T08:26:50Z</time>
      </trkpt>
      <trkpt lat="42.64168" lon="1.69194">
        <ele>2007.314</ele>
        <time>2022-09-17T08:26:52Z</time>
      </trkpt>
      <trkpt lat="42.64169" lon="1.69195">
        <ele>2006.898</ele>
        <time>2022-09-17T08:26:54Z</time>
      </trkpt>
      <trkpt lat="42.6417" lon="1.69199">
        <ele>2007.041</ele>
        <time>2022-09-17T08:26:56Z</time>
      </trkpt>
      <trkpt lat="42.64172" lon="1.69203">
        <ele>2009.185</ele>
        <time>2022-09-17T08:26:58Z</time>
      </trkpt>
      <trkpt lat="42.64174" lon="1.69205">
        <ele>2010.165</ele>
        <time>2022-09-17T08:27:00Z</time>
      </trkpt>
      <trkpt lat="42.64174" lon="1.69206">
        <ele>2010.52</ele>
        <time>2022-09-17T08:27:02Z</time>
      </trkpt>
      <trkpt lat="42.64175" lon="1.69207">
        <ele>2010.567</ele>
        <time>2022-09-17T08:27:04Z</time>
      </trkpt>
      <trkpt lat="42.64176" lon="1.69207">
        <ele>2010.643</ele>
        <time>2022-09-17T08:27:06Z</time>
      </trkpt>
      <trkpt lat="42.64178" lon="1.69207">
        <ele>2011.04</ele>
        <time>2022-09-17T08:27:08Z</time>
      </trkpt>
      <trkpt lat="42.64179" lon="1.69208">
        <ele>2011.243</ele>
        <time>2022-09-17T08:27:10Z</time>
      </trkpt>
      <trkpt lat="42.64179" lon="1.69208">
        <ele>2011.498</ele>
        <time>2022-09-17T08:27:12Z</time>
      </trkpt>
      <trkpt lat="42.6418" lon="1.69209">
        <ele>2011.224</ele>
        <time>2022-09-17T08:27:14Z</time>
      </trkpt>
      <trkpt lat="42.64181" lon="1.6921">
        <ele>2010.882</ele>
        <time>2022-09-17T08:27:16Z</time>
      </trkpt>
      <trkpt lat="42.64182" lon="1.69211">
        <ele>2011.201</ele>
        <time>2022-09-17T08:27:18Z</time>
      </trkpt>
      <trkpt lat="42.64183" lon="1.69212">
        <ele>2010.88</ele>
        <time>2022-09-17T08:27:20Z</time>
      </trkpt>
      <trkpt lat="42.64184" lon="1.69214">
        <ele>2010.959</ele>
        <time>2022-09-17T08:27:22Z</time>
      </trkpt>
      <trkpt lat="42.64185" lon="1.69214">
        <ele>2011.017</ele>
        <time>2022-09-17T08:27:24Z</time>
      </trkpt>
      <trkpt lat="42.64187" lon="1.69216">
        <ele>2011.367</ele>
        <time>2022-09-17T08:27:26Z</time>
      </trkpt>
      <trkpt lat="42.64187" lon="1.69216">
        <ele>2011.644</ele>
        <time>2022-09-17T08:27:28Z</time>
      </trkpt>
      <trkpt lat="42.64187" lon="1.69217">
        <ele>2011.797</ele>
        <time>2022-09-17T08:27:30Z</time>
      </trkpt>
      <trkpt lat="42.64188" lon="1.69217">
        <ele>2011.828</ele>
        <time>2022-09-17T08:27:32Z</time>
      </trkpt>
      <trkpt lat="42.64188" lon="1.69217">
        <ele>2011.752</ele>
        <time>2022-09-17T08:27:34Z</time>
      </trkpt>
      <trkpt lat="42.64191" lon="1.69221">
        <ele>2011.67</ele>
        <time>2022-09-17T08:27:36Z</time>
      </trkpt>
      <trkpt lat="42.64192" lon="1.69225">
        <ele>2014.555</ele>
        <time>2022-09-17T08:27:38Z</time>
      </trkpt>
      <trkpt lat="42.64193" lon="1.69225">
        <ele>2014.25</ele>
        <time>2022-09-17T08:27:40Z</time>
      </trkpt>
      <trkpt lat="42.64193" lon="1.69224">
        <ele>2013.889</ele>
        <time>2022-09-17T08:27:42Z</time>
      </trkpt>
      <trkpt lat="42.64194" lon="1.69225">
        <ele>2013.716</ele>
        <time>2022-09-17T08:27:44Z</time>
      </trkpt>
      <trkpt lat="42.64195" lon="1.69225">
        <ele>2014.62</ele>
        <time>2022-09-17T08:27:46Z</time>
      </trkpt>
      <trkpt lat="42.64196" lon="1.69226">
        <ele>2014.53</ele>
        <time>2022-09-17T08:27:48Z</time>
      </trkpt>
      <trkpt lat="42.64197" lon="1.69227">
        <ele>2013.899</ele>
        <time>2022-09-17T08:27:50Z</time>
      </trkpt>
      <trkpt lat="42.64198" lon="1.69227">
        <ele>2013.809</ele>
        <time>2022-09-17T08:27:52Z</time>
      </trkpt>
      <trkpt lat="42.64198" lon="1.69228">
        <ele>2013.684</ele>
        <time>2022-09-17T08:27:54Z</time>
      </trkpt>
      <trkpt lat="42.64199" lon="1.69229">
        <ele>2012.812</ele>
        <time>2022-09-17T08:27:56Z</time>
      </trkpt>
      <trkpt lat="42.642" lon="1.6923">
        <ele>2013.067</ele>
        <time>2022-09-17T08:27:58Z</time>
      </trkpt>
      <trkpt lat="42.64201" lon="1.69231">
        <ele>2013.73</ele>
        <time>2022-09-17T08:28:00Z</time>
      </trkpt>
      <trkpt lat="42.64202" lon="1.69232">
        <ele>2013.748</ele>
        <time>2022-09-17T08:28:02Z</time>
      </trkpt>
      <trkpt lat="42.64202" lon="1.69233">
        <ele>2013.978</ele>
        <time>2022-09-17T08:28:04Z</time>
      </trkpt>
      <trkpt lat="42.64203" lon="1.69233">
        <ele>2014.399</ele>
        <time>2022-09-17T08:28:06Z</time>
      </trkpt>
      <trkpt lat="42.64204" lon="1.69233">
        <ele>2015.125</ele>
        <time>2022-09-17T08:28:08Z</time>
      </trkpt>
      <trkpt lat="42.64205" lon="1.69233">
        <ele>2015.375</ele>
        <time>2022-09-17T08:28:10Z</time>
      </trkpt>
      <trkpt lat="42.64206" lon="1.69233">
        <ele>2015.725</ele>
        <time>2022-09-17T08:28:12Z</time>
      </trkpt>
      <trkpt lat="42.64206" lon="1.69235">
        <ele>2015.942</ele>
        <time>2022-09-17T08:28:14Z</time>
      </trkpt>
      <trkpt lat="42.64207" lon="1.69235">
        <ele>2016.262</ele>
        <time>2022-09-17T08:28:16Z</time>
      </trkpt>
      <trkpt lat="42.64208" lon="1.69236">
        <ele>2016.029</ele>
        <time>2022-09-17T08:28:18Z</time>
      </trkpt>
      <trkpt lat="42.64209" lon="1.69237">
        <ele>2016.33</ele>
        <time>2022-09-17T08:28:20Z</time>
      </trkpt>
      <trkpt lat="42.6421" lon="1.69238">
        <ele>2016.045</ele>
        <time>2022-09-17T08:28:22Z</time>
      </trkpt>
      <trkpt lat="42.64211" lon="1.69239">
        <ele>2016.522</ele>
        <time>2022-09-17T08:28:24Z</time>
      </trkpt>
      <trkpt lat="42.64212" lon="1.6924">
        <ele>2017.471</ele>
        <time>2022-09-17T08:28:26Z</time>
      </trkpt>
      <trkpt lat="42.64213" lon="1.6924">
        <ele>2017.521</ele>
        <time>2022-09-17T08:28:28Z</time>
      </trkpt>
      <trkpt lat="42.64213" lon="1.69241">
        <ele>2017.525</ele>
        <time>2022-09-17T08:28:30Z</time>
      </trkpt>
      <trkpt lat="42.64214" lon="1.69243">
        <ele>2017.891</ele>
        <time>2022-09-17T08:28:32Z</time>
      </trkpt>
      <trkpt lat="42.64215" lon="1.69243">
        <ele>2018.099</ele>
        <time>2022-09-17T08:28:34Z</time>
      </trkpt>
      <trkpt lat="42.64217" lon="1.69244">
        <ele>2017.7</ele>
        <time>2022-09-17T08:28:36Z</time>
      </trkpt>
      <trkpt lat="42.64217" lon="1.69244">
        <ele>2017.82</ele>
        <time>2022-09-17T08:28:38Z</time>
      </trkpt>
      <trkpt lat="42.64218" lon="1.69245">
        <ele>2017.577</ele>
        <time>2022-09-17T08:28:40Z</time>
      </trkpt>
      <trkpt lat="42.64219" lon="1.69246">
        <ele>2018.151</ele>
        <time>2022-09-17T08:28:42Z</time>
      </trkpt>
      <trkpt lat="42.6422" lon="1.69247">
        <ele>2019.006</ele>
        <time>2022-09-17T08:28:44Z</time>
      </trkpt>
      <trkpt lat="42.64221" lon="1.69248">
        <ele>2019.456</ele>
        <time>2022-09-17T08:28:46Z</time>
      </trkpt>
      <trkpt lat="42.64221" lon="1.69249">
        <ele>2019.701</ele>
        <time>2022-09-17T08:28:48Z</time>
      </trkpt>
      <trkpt lat="42.64222" lon="1.69249">
        <ele>2020.047</ele>
        <time>2022-09-17T08:28:50Z</time>
      </trkpt>
      <trkpt lat="42.64222" lon="1.69248">
        <ele>2020.946</ele>
        <time>2022-09-17T08:28:52Z</time>
      </trkpt>
      <trkpt lat="42.64223" lon="1.69248">
        <ele>2020.712</ele>
        <time>2022-09-17T08:28:54Z</time>
      </trkpt>
      <trkpt lat="42.64223" lon="1.69249">
        <ele>2021.66</ele>
        <time>2022-09-17T08:28:56Z</time>
      </trkpt>
      <trkpt lat="42.64224" lon="1.6925">
        <ele>2021.809</ele>
        <time>2022-09-17T08:28:58Z</time>
      </trkpt>
      <trkpt lat="42.64225" lon="1.69251">
        <ele>2021.921</ele>
        <time>2022-09-17T08:29:00Z</time>
      </trkpt>
      <trkpt lat="42.64226" lon="1.69252">
        <ele>2021.883</ele>
        <time>2022-09-17T08:29:02Z</time>
      </trkpt>
      <trkpt lat="42.64227" lon="1.69253">
        <ele>2022.01</ele>
        <time>2022-09-17T08:29:04Z</time>
      </trkpt>
      <trkpt lat="42.64228" lon="1.69253">
        <ele>2022.684</ele>
        <time>2022-09-17T08:29:06Z</time>
      </trkpt>
      <trkpt lat="42.64228" lon="1.69254">
        <ele>2023.31</ele>
        <time>2022-09-17T08:29:08Z</time>
      </trkpt>
      <trkpt lat="42.64229" lon="1.69254">
        <ele>2023.734</ele>
        <time>2022-09-17T08:29:10Z</time>
      </trkpt>
      <trkpt lat="42.6423" lon="1.69255">
        <ele>2023.77</ele>
        <time>2022-09-17T08:29:12Z</time>
      </trkpt>
      <trkpt lat="42.6423" lon="1.69256">
        <ele>2024.461</ele>
        <time>2022-09-17T08:29:14Z</time>
      </trkpt>
      <trkpt lat="42.64231" lon="1.69256">
        <ele>2025.078</ele>
        <time>2022-09-17T08:29:16Z</time>
      </trkpt>
      <trkpt lat="42.64232" lon="1.69257">
        <ele>2025.594</ele>
        <time>2022-09-17T08:29:18Z</time>
      </trkpt>
      <trkpt lat="42.64233" lon="1.69257">
        <ele>2025.864</ele>
        <time>2022-09-17T08:29:20Z</time>
      </trkpt>
      <trkpt lat="42.64234" lon="1.69258">
        <ele>2026.338</ele>
        <time>2022-09-17T08:29:22Z</time>
      </trkpt>
      <trkpt lat="42.64235" lon="1.69258">
        <ele>2026.949</ele>
        <time>2022-09-17T08:29:24Z</time>
      </trkpt>
      <trkpt lat="42.64236" lon="1.69259">
        <ele>2026.929</ele>
        <time>2022-09-17T08:29:26Z</time>
      </trkpt>
      <trkpt lat="42.64237" lon="1.69259">
        <ele>2027.524</ele>
        <time>2022-09-17T08:29:28Z</time>
      </trkpt>
      <trkpt lat="42.64237" lon="1.6926">
        <ele>2027.749</ele>
        <time>2022-09-17T08:29:30Z</time>
      </trkpt>
      <trkpt lat="42.64238" lon="1.69261">
        <ele>2028.415</ele>
        <time>2022-09-17T08:29:32Z</time>
      </trkpt>
      <trkpt lat="42.64239" lon="1.69261">
        <ele>2028.559</ele>
        <time>2022-09-17T08:29:34Z</time>
      </trkpt>
      <trkpt lat="42.6424" lon="1.69262">
        <ele>2029.033</ele>
        <time>2022-09-17T08:29:36Z</time>
      </trkpt>
      <trkpt lat="42.6424" lon="1.69262">
        <ele>2029.279</ele>
        <time>2022-09-17T08:29:38Z</time>
      </trkpt>
      <trkpt lat="42.64241" lon="1.69262">
        <ele>2029.737</ele>
        <time>2022-09-17T08:29:40Z</time>
      </trkpt>
      <trkpt lat="42.64242" lon="1.69263">
        <ele>2029.981</ele>
        <time>2022-09-17T08:29:42Z</time>
      </trkpt>
      <trkpt lat="42.64242" lon="1.69263">
        <ele>2029.732</ele>
        <time>2022-09-17T08:29:44Z</time>
      </trkpt>
      <trkpt lat="42.64242" lon="1.69264">
        <ele>2029.647</ele>
        <time>2022-09-17T08:29:46Z</time>
      </trkpt>
      <trkpt lat="42.64242" lon="1.69265">
        <ele>2029.436</ele>
        <time>2022-09-17T08:29:48Z</time>
      </trkpt>
      <trkpt lat="42.64243" lon="1.69265">
        <ele>2029.712</ele>
        <time>2022-09-17T08:29:50Z</time>
      </trkpt>
      <trkpt lat="42.64244" lon="1.69265">
        <ele>2030.443</ele>
        <time>2022-09-17T08:29:52Z</time>
      </trkpt>
      <trkpt lat="42.64245" lon="1.69265">
        <ele>2030.88</ele>
        <time>2022-09-17T08:29:54Z</time>
      </trkpt>
      <trkpt lat="42.64245" lon="1.69264">
        <ele>2030.892</ele>
        <time>2022-09-17T08:29:56Z</time>
      </trkpt>
      <trkpt lat="42.64246" lon="1.69264">
        <ele>2031.113</ele>
        <time>2022-09-17T08:29:58Z</time>
      </trkpt>
      <trkpt lat="42.64247" lon="1.69264">
        <ele>2031.167</ele>
        <time>2022-09-17T08:30:00Z</time>
      </trkpt>
      <trkpt lat="42.64247" lon="1.69265">
        <ele>2031.565</ele>
        <time>2022-09-17T08:30:02Z</time>
      </trkpt>
      <trkpt lat="42.64248" lon="1.69265">
        <ele>2031.64</ele>
        <time>2022-09-17T08:30:04Z</time>
      </trkpt>
      <trkpt lat="42.64249" lon="1.69265">
        <ele>2031.559</ele>
        <time>2022-09-17T08:30:06Z</time>
      </trkpt>
      <trkpt lat="42.6425" lon="1.69266">
        <ele>2031.632</ele>
        <time>2022-09-17T08:30:08Z</time>
      </trkpt>
      <trkpt lat="42.64251" lon="1.69267">
        <ele>2031.629</ele>
        <time>2022-09-17T08:30:10Z</time>
      </trkpt>
      <trkpt lat="42.64252" lon="1.69268">
        <ele>2031.765</ele>
        <time>2022-09-17T08:30:12Z</time>
      </trkpt>
      <trkpt lat="42.64252" lon="1.69269">
        <ele>2031.604</ele>
        <time>2022-09-17T08:30:14Z</time>
      </trkpt>
      <trkpt lat="42.64253" lon="1.6927">
        <ele>2032.398</ele>
        <time>2022-09-17T08:30:16Z</time>
      </trkpt>
      <trkpt lat="42.64253" lon="1.69271">
        <ele>2032.813</ele>
        <time>2022-09-17T08:30:18Z</time>
      </trkpt>
      <trkpt lat="42.64254" lon="1.69272">
        <ele>2033.059</ele>
        <time>2022-09-17T08:30:20Z</time>
      </trkpt>
      <trkpt lat="42.64254" lon="1.69273">
        <ele>2032.518</ele>
        <time>2022-09-17T08:30:22Z</time>
      </trkpt>
      <trkpt lat="42.64256" lon="1.69274">
        <ele>2032.46</ele>
        <time>2022-09-17T08:30:24Z</time>
      </trkpt>
      <trkpt lat="42.64256" lon="1.69274">
        <ele>2032.499</ele>
        <time>2022-09-17T08:30:26Z</time>
      </trkpt>
      <trkpt lat="42.64257" lon="1.69275">
        <ele>2032.283</ele>
        <time>2022-09-17T08:30:28Z</time>
      </trkpt>
      <trkpt lat="42.64258" lon="1.69276">
        <ele>2032.539</ele>
        <time>2022-09-17T08:30:30Z</time>
      </trkpt>
      <trkpt lat="42.64259" lon="1.69277">
        <ele>2032.373</ele>
        <time>2022-09-17T08:30:32Z</time>
      </trkpt>
      <trkpt lat="42.6426" lon="1.69278">
        <ele>2032.799</ele>
        <time>2022-09-17T08:30:34Z</time>
      </trkpt>
      <trkpt lat="42.64261" lon="1.69279">
        <ele>2032.768</ele>
        <time>2022-09-17T08:30:36Z</time>
      </trkpt>
      <trkpt lat="42.64261" lon="1.69281">
        <ele>2033.153</ele>
        <time>2022-09-17T08:30:38Z</time>
      </trkpt>
      <trkpt lat="42.64262" lon="1.69282">
        <ele>2034.032</ele>
        <time>2022-09-17T08:30:40Z</time>
      </trkpt>
      <trkpt lat="42.64263" lon="1.69283">
        <ele>2034.857</ele>
        <time>2022-09-17T08:30:42Z</time>
      </trkpt>
      <trkpt lat="42.64263" lon="1.69284">
        <ele>2035.176</ele>
        <time>2022-09-17T08:30:44Z</time>
      </trkpt>
      <trkpt lat="42.64264" lon="1.69286">
        <ele>2035.256</ele>
        <time>2022-09-17T08:30:46Z</time>
      </trkpt>
      <trkpt lat="42.64265" lon="1.69287">
        <ele>2034.906</ele>
        <time>2022-09-17T08:30:48Z</time>
      </trkpt>
      <trkpt lat="42.64267" lon="1.69288">
        <ele>2034.807</ele>
        <time>2022-09-17T08:30:50Z</time>
      </trkpt>
      <trkpt lat="42.64267" lon="1.69289">
        <ele>2034.865</ele>
        <time>2022-09-17T08:30:52Z</time>
      </trkpt>
      <trkpt lat="42.64268" lon="1.69289">
        <ele>2034.938</ele>
        <time>2022-09-17T08:30:54Z</time>
      </trkpt>
      <trkpt lat="42.64269" lon="1.6929">
        <ele>2035.382</ele>
        <time>2022-09-17T08:30:56Z</time>
      </trkpt>
      <trkpt lat="42.6427" lon="1.69292">
        <ele>2035.029</ele>
        <time>2022-09-17T08:30:58Z</time>
      </trkpt>
      <trkpt lat="42.64271" lon="1.69293">
        <ele>2034.697</ele>
        <time>2022-09-17T08:31:00Z</time>
      </trkpt>
      <trkpt lat="42.64272" lon="1.69294">
        <ele>2034.61</ele>
        <time>2022-09-17T08:31:02Z</time>
      </trkpt>
      <trkpt lat="42.64273" lon="1.69296">
        <ele>2034.671</ele>
        <time>2022-09-17T08:31:04Z</time>
      </trkpt>
      <trkpt lat="42.64274" lon="1.69297">
        <ele>2033.649</ele>
        <time>2022-09-17T08:31:06Z</time>
      </trkpt>
      <trkpt lat="42.64275" lon="1.69298">
        <ele>2033.85</ele>
        <time>2022-09-17T08:31:08Z</time>
      </trkpt>
      <trkpt lat="42.64277" lon="1.69299">
        <ele>2034.213</ele>
        <time>2022-09-17T08:31:10Z</time>
      </trkpt>
      <trkpt lat="42.64278" lon="1.693">
        <ele>2034.331</ele>
        <time>2022-09-17T08:31:12Z</time>
      </trkpt>
      <trkpt lat="42.64279" lon="1.69301">
        <ele>2034.751</ele>
        <time>2022-09-17T08:31:14Z</time>
      </trkpt>
      <trkpt lat="42.64281" lon="1.69302">
        <ele>2034.93</ele>
        <time>2022-09-17T08:31:16Z</time>
      </trkpt>
      <trkpt lat="42.64282" lon="1.69304">
        <ele>2034.533</ele>
        <time>2022-09-17T08:31:18Z</time>
      </trkpt>
      <trkpt lat="42.64283" lon="1.69305">
        <ele>2034.798</ele>
        <time>2022-09-17T08:31:20Z</time>
      </trkpt>
      <trkpt lat="42.64285" lon="1.69307">
        <ele>2035.106</ele>
        <time>2022-09-17T08:31:22Z</time>
      </trkpt>
      <trkpt lat="42.64286" lon="1.69309">
        <ele>2035.451</ele>
        <time>2022-09-17T08:31:24Z</time>
      </trkpt>
      <trkpt lat="42.64287" lon="1.6931">
        <ele>2035.897</ele>
        <time>2022-09-17T08:31:26Z</time>
      </trkpt>
      <trkpt lat="42.64289" lon="1.69311">
        <ele>2036.042</ele>
        <time>2022-09-17T08:31:28Z</time>
      </trkpt>
      <trkpt lat="42.6429" lon="1.69312">
        <ele>2036</ele>
        <time>2022-09-17T08:31:30Z</time>
      </trkpt>
      <trkpt lat="42.64291" lon="1.69313">
        <ele>2035.77</ele>
        <time>2022-09-17T08:31:32Z</time>
      </trkpt>
      <trkpt lat="42.64292" lon="1.69313">
        <ele>2035.841</ele>
        <time>2022-09-17T08:31:34Z</time>
      </trkpt>
      <trkpt lat="42.64293" lon="1.69314">
        <ele>2035.985</ele>
        <time>2022-09-17T08:31:36Z</time>
      </trkpt>
      <trkpt lat="42.64295" lon="1.69315">
        <ele>2035.788</ele>
        <time>2022-09-17T08:31:38Z</time>
      </trkpt>
      <trkpt lat="42.64296" lon="1.69316">
        <ele>2036.363</ele>
        <time>2022-09-17T08:31:40Z</time>
      </trkpt>
      <trkpt lat="42.64297" lon="1.69316">
        <ele>2036.613</ele>
        <time>2022-09-17T08:31:42Z</time>
      </trkpt>
      <trkpt lat="42.64299" lon="1.69317">
        <ele>2037.169</ele>
        <time>2022-09-17T08:31:44Z</time>
      </trkpt>
      <trkpt lat="42.643" lon="1.69318">
        <ele>2037.648</ele>
        <time>2022-09-17T08:31:46Z</time>
      </trkpt>
      <trkpt lat="42.64302" lon="1.69319">
        <ele>2037.876</ele>
        <time>2022-09-17T08:31:48Z</time>
      </trkpt>
      <trkpt lat="42.64303" lon="1.6932">
        <ele>2038.307</ele>
        <time>2022-09-17T08:31:50Z</time>
      </trkpt>
      <trkpt lat="42.64304" lon="1.69322">
        <ele>2038.359</ele>
        <time>2022-09-17T08:31:52Z</time>
      </trkpt>
      <trkpt lat="42.64305" lon="1.69324">
        <ele>2038.246</ele>
        <time>2022-09-17T08:31:54Z</time>
      </trkpt>
      <trkpt lat="42.64306" lon="1.69326">
        <ele>2038.288</ele>
        <time>2022-09-17T08:31:56Z</time>
      </trkpt>
      <trkpt lat="42.64307" lon="1.69327">
        <ele>2038.352</ele>
        <time>2022-09-17T08:31:58Z</time>
      </trkpt>
      <trkpt lat="42.64308" lon="1.6933">
        <ele>2038.249</ele>
        <time>2022-09-17T08:32:00Z</time>
      </trkpt>
      <trkpt lat="42.64309" lon="1.69332">
        <ele>2038.133</ele>
        <time>2022-09-17T08:32:02Z</time>
      </trkpt>
      <trkpt lat="42.6431" lon="1.69335">
        <ele>2037.948</ele>
        <time>2022-09-17T08:32:04Z</time>
      </trkpt>
      <trkpt lat="42.64311" lon="1.69338">
        <ele>2038.223</ele>
        <time>2022-09-17T08:32:06Z</time>
      </trkpt>
      <trkpt lat="42.64312" lon="1.6934">
        <ele>2039.266</ele>
        <time>2022-09-17T08:32:08Z</time>
      </trkpt>
      <trkpt lat="42.64312" lon="1.6934">
        <ele>2039.196</ele>
        <time>2022-09-17T08:32:10Z</time>
      </trkpt>
      <trkpt lat="42.64312" lon="1.6934">
        <ele>2039.197</ele>
        <time>2022-09-17T08:32:12Z</time>
      </trkpt>
      <trkpt lat="42.64312" lon="1.6934">
        <ele>2039.195</ele>
        <time>2022-09-17T08:32:14Z</time>
      </trkpt>
      <trkpt lat="42.64312" lon="1.6934">
        <ele>2039.198</ele>
        <time>2022-09-17T08:32:16Z</time>
      </trkpt>
      <trkpt lat="42.64312" lon="1.6934">
        <ele>2039.2</ele>
        <time>2022-09-17T08:32:18Z</time>
      </trkpt>
      <trkpt lat="42.64312" lon="1.6934">
        <ele>2039.202</ele>
        <time>2022-09-17T08:32:20Z</time>
      </trkpt>
      <trkpt lat="42.64312" lon="1.6934">
        <ele>2039.203</ele>
        <time>2022-09-17T08:32:22Z</time>
      </trkpt>
      <trkpt lat="42.64312" lon="1.6934">
        <ele>2039.206</ele>
        <time>2022-09-17T08:32:24Z</time>
      </trkpt>
      <trkpt lat="42.64312" lon="1.6934">
        <ele>2039.016</ele>
        <time>2022-09-17T08:32:26Z</time>
      </trkpt>
      <trkpt lat="42.64312" lon="1.69341">
        <ele>2038.91</ele>
        <time>2022-09-17T08:32:28Z</time>
      </trkpt>
      <trkpt lat="42.64315" lon="1.69341">
        <ele>2040.049</ele>
        <time>2022-09-17T08:32:30Z</time>
      </trkpt>
      <trkpt lat="42.64315" lon="1.69344">
        <ele>2040.861</ele>
        <time>2022-09-17T08:32:32Z</time>
      </trkpt>
      <trkpt lat="42.64317" lon="1.69345">
        <ele>2040.469</ele>
        <time>2022-09-17T08:32:34Z</time>
      </trkpt>
      <trkpt lat="42.64317" lon="1.69345">
        <ele>2040.464</ele>
        <time>2022-09-17T08:32:36Z</time>
      </trkpt>
      <trkpt lat="42.64317" lon="1.69345">
        <ele>2040.462</ele>
        <time>2022-09-17T08:32:38Z</time>
      </trkpt>
      <trkpt lat="42.64317" lon="1.69345">
        <ele>2040.466</ele>
        <time>2022-09-17T08:32:40Z</time>
      </trkpt>
      <trkpt lat="42.64317" lon="1.69345">
        <ele>2040.462</ele>
        <time>2022-09-17T08:32:42Z</time>
      </trkpt>
      <trkpt lat="42.64317" lon="1.69345">
        <ele>2040.457</ele>
        <time>2022-09-17T08:32:44Z</time>
      </trkpt>
      <trkpt lat="42.64317" lon="1.69345">
        <ele>2040.455</ele>
        <time>2022-09-17T08:32:46Z</time>
      </trkpt>
      <trkpt lat="42.64317" lon="1.69345">
        <ele>2040.45</ele>
        <time>2022-09-17T08:32:48Z</time>
      </trkpt>
      <trkpt lat="42.64317" lon="1.69345">
        <ele>2040.447</ele>
        <time>2022-09-17T08:32:50Z</time>
      </trkpt>
      <trkpt lat="42.64317" lon="1.69345">
        <ele>2040.444</ele>
        <time>2022-09-17T08:32:52Z</time>
      </trkpt>
      <trkpt lat="42.64317" lon="1.69345">
        <ele>2040.438</ele>
        <time>2022-09-17T08:32:54Z</time>
      </trkpt>
      <trkpt lat="42.64317" lon="1.69345">
        <ele>2040.438</ele>
        <time>2022-09-17T08:32:56Z</time>
      </trkpt>
      <trkpt lat="42.64317" lon="1.69345">
        <ele>2040.436</ele>
        <time>2022-09-17T08:32:58Z</time>
      </trkpt>
      <trkpt lat="42.64317" lon="1.69345">
        <ele>2040.437</ele>
        <time>2022-09-17T08:33:00Z</time>
      </trkpt>
      <trkpt lat="42.64317" lon="1.69345">
        <ele>2040.434</ele>
        <time>2022-09-17T08:33:02Z</time>
      </trkpt>
      <trkpt lat="42.64317" lon="1.69345">
        <ele>2040.433</ele>
        <time>2022-09-17T08:33:04Z</time>
      </trkpt>
      <trkpt lat="42.64317" lon="1.69345">
        <ele>2040.428</ele>
        <time>2022-09-17T08:33:06Z</time>
      </trkpt>
      <trkpt lat="42.64317" lon="1.69345">
        <ele>2040.425</ele>
        <time>2022-09-17T08:33:08Z</time>
      </trkpt>
      <trkpt lat="42.64317" lon="1.69345">
        <ele>2040.422</ele>
        <time>2022-09-17T08:33:10Z</time>
      </trkpt>
      <trkpt lat="42.64317" lon="1.69345">
        <ele>2040.423</ele>
        <time>2022-09-17T08:33:12Z</time>
      </trkpt>
      <trkpt lat="42.64317" lon="1.69345">
        <ele>2040.422</ele>
        <time>2022-09-17T08:33:14Z</time>
      </trkpt>
      <trkpt lat="42.64317" lon="1.69345">
        <ele>2040.42</ele>
        <time>2022-09-17T08:33:16Z</time>
      </trkpt>
      <trkpt lat="42.64317" lon="1.69345">
        <ele>2040.417</ele>
        <time>2022-09-17T08:33:18Z</time>
      </trkpt>
      <trkpt lat="42.64317" lon="1.69345">
        <ele>2040.41</ele>
        <time>2022-09-17T08:33:20Z</time>
      </trkpt>
      <trkpt lat="42.64317" lon="1.69345">
        <ele>2040.403</ele>
        <time>2022-09-17T08:33:22Z</time>
      </trkpt>
      <trkpt lat="42.64317" lon="1.69345">
        <ele>2040.4</ele>
        <time>2022-09-17T08:33:24Z</time>
      </trkpt>
      <trkpt lat="42.64317" lon="1.69345">
        <ele>2040.391</ele>
        <time>2022-09-17T08:33:26Z</time>
      </trkpt>
      <trkpt lat="42.64317" lon="1.69345">
        <ele>2040.386</ele>
        <time>2022-09-17T08:33:28Z</time>
      </trkpt>
      <trkpt lat="42.64317" lon="1.69345">
        <ele>2040.383</ele>
        <time>2022-09-17T08:33:30Z</time>
      </trkpt>
      <trkpt lat="42.64317" lon="1.69345">
        <ele>2040.381</ele>
        <time>2022-09-17T08:33:32Z</time>
      </trkpt>
      <trkpt lat="42.64317" lon="1.69345">
        <ele>2040.378</ele>
        <time>2022-09-17T08:33:34Z</time>
      </trkpt>
      <trkpt lat="42.64317" lon="1.69345">
        <ele>2040.37</ele>
        <time>2022-09-17T08:33:36Z</time>
      </trkpt>
      <trkpt lat="42.64317" lon="1.69345">
        <ele>2040.366</ele>
        <time>2022-09-17T08:33:38Z</time>
      </trkpt>
      <trkpt lat="42.64317" lon="1.69345">
        <ele>2040.362</ele>
        <time>2022-09-17T08:33:40Z</time>
      </trkpt>
      <trkpt lat="42.64317" lon="1.69345">
        <ele>2040.356</ele>
        <time>2022-09-17T08:33:42Z</time>
      </trkpt>
      <trkpt lat="42.64317" lon="1.69345">
        <ele>2040.351</ele>
        <time>2022-09-17T08:33:44Z</time>
      </trkpt>
      <trkpt lat="42.64317" lon="1.69345">
        <ele>2040.345</ele>
        <time>2022-09-17T08:33:46Z</time>
      </trkpt>
      <trkpt lat="42.64317" lon="1.69345">
        <ele>2040.333</ele>
        <time>2022-09-17T08:33:48Z</time>
      </trkpt>
      <trkpt lat="42.64317" lon="1.69345">
        <ele>2040.322</ele>
        <time>2022-09-17T08:33:50Z</time>
      </trkpt>
      <trkpt lat="42.64317" lon="1.69345">
        <ele>2040.321</ele>
        <time>2022-09-17T08:33:52Z</time>
      </trkpt>
      <trkpt lat="42.64317" lon="1.69345">
        <ele>2040.32</ele>
        <time>2022-09-17T08:33:54Z</time>
      </trkpt>
      <trkpt lat="42.64317" lon="1.69345">
        <ele>2040.32</ele>
        <time>2022-09-17T08:33:56Z</time>
      </trkpt>
      <trkpt lat="42.64317" lon="1.69345">
        <ele>2040.318</ele>
        <time>2022-09-17T08:33:58Z</time>
      </trkpt>
      <trkpt lat="42.64317" lon="1.69345">
        <ele>2040.32</ele>
        <time>2022-09-17T08:34:00Z</time>
      </trkpt>
      <trkpt lat="42.64317" lon="1.69345">
        <ele>2040.219</ele>
        <time>2022-09-17T08:34:02Z</time>
      </trkpt>
      <trkpt lat="42.64316" lon="1.69344">
        <ele>2039.357</ele>
        <time>2022-09-17T08:34:04Z</time>
      </trkpt>
      <trkpt lat="42.64316" lon="1.69344">
        <ele>2039.363</ele>
        <time>2022-09-17T08:34:06Z</time>
      </trkpt>
      <trkpt lat="42.64316" lon="1.69344">
        <ele>2039.366</ele>
        <time>2022-09-17T08:34:08Z</time>
      </trkpt>
      <trkpt lat="42.64316" lon="1.69344">
        <ele>2039.366</ele>
        <time>2022-09-17T08:34:10Z</time>
      </trkpt>
      <trkpt lat="42.64316" lon="1.69344">
        <ele>2039.367</ele>
        <time>2022-09-17T08:34:12Z</time>
      </trkpt>
      <trkpt lat="42.64316" lon="1.69344">
        <ele>2039.645</ele>
        <time>2022-09-17T08:34:14Z</time>
      </trkpt>
      <trkpt lat="42.64316" lon="1.69344">
        <ele>2039.649</ele>
        <time>2022-09-17T08:34:16Z</time>
      </trkpt>
      <trkpt lat="42.64316" lon="1.69344">
        <ele>2039.65</ele>
        <time>2022-09-17T08:34:18Z</time>
      </trkpt>
      <trkpt lat="42.64316" lon="1.69344">
        <ele>2039.645</ele>
        <time>2022-09-17T08:34:20Z</time>
      </trkpt>
      <trkpt lat="42.64316" lon="1.69344">
        <ele>2039.645</ele>
        <time>2022-09-17T08:34:22Z</time>
      </trkpt>
      <trkpt lat="42.64316" lon="1.69344">
        <ele>2039.64</ele>
        <time>2022-09-17T08:34:24Z</time>
      </trkpt>
      <trkpt lat="42.64316" lon="1.69344">
        <ele>2039.637</ele>
        <time>2022-09-17T08:34:26Z</time>
      </trkpt>
      <trkpt lat="42.64316" lon="1.69344">
        <ele>2039.635</ele>
        <time>2022-09-17T08:34:28Z</time>
      </trkpt>
      <trkpt lat="42.64316" lon="1.69344">
        <ele>2039.629</ele>
        <time>2022-09-17T08:34:30Z</time>
      </trkpt>
      <trkpt lat="42.64316" lon="1.69344">
        <ele>2039.622</ele>
        <time>2022-09-17T08:34:32Z</time>
      </trkpt>
      <trkpt lat="42.64316" lon="1.69344">
        <ele>2039.617</ele>
        <time>2022-09-17T08:34:34Z</time>
      </trkpt>
      <trkpt lat="42.64316" lon="1.69344">
        <ele>2039.615</ele>
        <time>2022-09-17T08:34:36Z</time>
      </trkpt>
      <trkpt lat="42.64316" lon="1.69344">
        <ele>2039.609</ele>
        <time>2022-09-17T08:34:38Z</time>
      </trkpt>
      <trkpt lat="42.64316" lon="1.69344">
        <ele>2039.605</ele>
        <time>2022-09-17T08:34:40Z</time>
      </trkpt>
      <trkpt lat="42.64316" lon="1.69344">
        <ele>2039.608</ele>
        <time>2022-09-17T08:34:42Z</time>
      </trkpt>
      <trkpt lat="42.64316" lon="1.69344">
        <ele>2039.611</ele>
        <time>2022-09-17T08:34:44Z</time>
      </trkpt>
      <trkpt lat="42.64316" lon="1.69344">
        <ele>2039.612</ele>
        <time>2022-09-17T08:34:46Z</time>
      </trkpt>
      <trkpt lat="42.64316" lon="1.69344">
        <ele>2039.607</ele>
        <time>2022-09-17T08:34:48Z</time>
      </trkpt>
      <trkpt lat="42.64316" lon="1.69344">
        <ele>2039.605</ele>
        <time>2022-09-17T08:34:50Z</time>
      </trkpt>
      <trkpt lat="42.64316" lon="1.69344">
        <ele>2039.748</ele>
        <time>2022-09-17T08:34:52Z</time>
      </trkpt>
      <trkpt lat="42.64317" lon="1.69346">
        <ele>2039.769</ele>
        <time>2022-09-17T08:34:54Z</time>
      </trkpt>
      <trkpt lat="42.64318" lon="1.69347">
        <ele>2039.939</ele>
        <time>2022-09-17T08:34:56Z</time>
      </trkpt>
      <trkpt lat="42.64319" lon="1.69349">
        <ele>2039.781</ele>
        <time>2022-09-17T08:34:58Z</time>
      </trkpt>
      <trkpt lat="42.64319" lon="1.69351">
        <ele>2040.322</ele>
        <time>2022-09-17T08:35:00Z</time>
      </trkpt>
      <trkpt lat="42.6432" lon="1.69353">
        <ele>2039.919</ele>
        <time>2022-09-17T08:35:02Z</time>
      </trkpt>
      <trkpt lat="42.6432" lon="1.69354">
        <ele>2039.445</ele>
        <time>2022-09-17T08:35:04Z</time>
      </trkpt>
      <trkpt lat="42.64321" lon="1.69356">
        <ele>2039.44</ele>
        <time>2022-09-17T08:35:06Z</time>
      </trkpt>
      <trkpt lat="42.64322" lon="1.69358">
        <ele>2039.323</ele>
        <time>2022-09-17T08:35:08Z</time>
      </trkpt>
      <trkpt lat="42.64323" lon="1.69361">
        <ele>2039.495</ele>
        <time>2022-09-17T08:35:10Z</time>
      </trkpt>
      <trkpt lat="42.64323" lon="1.69363">
        <ele>2039.589</ele>
        <time>2022-09-17T08:35:12Z</time>
      </trkpt>
      <trkpt lat="42.64323" lon="1.69366">
        <ele>2039.25</ele>
        <time>2022-09-17T08:35:14Z</time>
      </trkpt>
      <trkpt lat="42.64324" lon="1.69368">
        <ele>2038.883</ele>
        <time>2022-09-17T08:35:16Z</time>
      </trkpt>
      <trkpt lat="42.64325" lon="1.6937">
        <ele>2038.772</ele>
        <time>2022-09-17T08:35:18Z</time>
      </trkpt>
      <trkpt lat="42.64326" lon="1.69372">
        <ele>2038.017</ele>
        <time>2022-09-17T08:35:20Z</time>
      </trkpt>
      <trkpt lat="42.64327" lon="1.69374">
        <ele>2037.791</ele>
        <time>2022-09-17T08:35:22Z</time>
      </trkpt>
      <trkpt lat="42.64329" lon="1.69375">
        <ele>2037.389</ele>
        <time>2022-09-17T08:35:24Z</time>
      </trkpt>
      <trkpt lat="42.6433" lon="1.69377">
        <ele>2036.947</ele>
        <time>2022-09-17T08:35:26Z</time>
      </trkpt>
      <trkpt lat="42.64331" lon="1.69378">
        <ele>2036.707</ele>
        <time>2022-09-17T08:35:28Z</time>
      </trkpt>
      <trkpt lat="42.64333" lon="1.69379">
        <ele>2036.154</ele>
        <time>2022-09-17T08:35:30Z</time>
      </trkpt>
      <trkpt lat="42.64334" lon="1.6938">
        <ele>2036.303</ele>
        <time>2022-09-17T08:35:32Z</time>
      </trkpt>
      <trkpt lat="42.64336" lon="1.69381">
        <ele>2036.052</ele>
        <time>2022-09-17T08:35:34Z</time>
      </trkpt>
      <trkpt lat="42.64337" lon="1.69383">
        <ele>2036.214</ele>
        <time>2022-09-17T08:35:36Z</time>
      </trkpt>
      <trkpt lat="42.64339" lon="1.69385">
        <ele>2036.074</ele>
        <time>2022-09-17T08:35:38Z</time>
      </trkpt>
      <trkpt lat="42.64341" lon="1.69387">
        <ele>2036.118</ele>
        <time>2022-09-17T08:35:40Z</time>
      </trkpt>
      <trkpt lat="42.64343" lon="1.69389">
        <ele>2036.351</ele>
        <time>2022-09-17T08:35:42Z</time>
      </trkpt>
      <trkpt lat="42.64346" lon="1.6939">
        <ele>2037.405</ele>
        <time>2022-09-17T08:35:44Z</time>
      </trkpt>
      <trkpt lat="42.64347" lon="1.69391">
        <ele>2037.311</ele>
        <time>2022-09-17T08:35:46Z</time>
      </trkpt>
      <trkpt lat="42.64349" lon="1.69391">
        <ele>2037.374</ele>
        <time>2022-09-17T08:35:48Z</time>
      </trkpt>
      <trkpt lat="42.6435" lon="1.69392">
        <ele>2037.315</ele>
        <time>2022-09-17T08:35:50Z</time>
      </trkpt>
      <trkpt lat="42.64351" lon="1.69392">
        <ele>2037.083</ele>
        <time>2022-09-17T08:35:52Z</time>
      </trkpt>
      <trkpt lat="42.64353" lon="1.69392">
        <ele>2036.865</ele>
        <time>2022-09-17T08:35:54Z</time>
      </trkpt>
      <trkpt lat="42.64354" lon="1.69392">
        <ele>2037.066</ele>
        <time>2022-09-17T08:35:56Z</time>
      </trkpt>
      <trkpt lat="42.64356" lon="1.69393">
        <ele>2037.748</ele>
        <time>2022-09-17T08:35:58Z</time>
      </trkpt>
      <trkpt lat="42.64358" lon="1.69393">
        <ele>2037.814</ele>
        <time>2022-09-17T08:36:00Z</time>
      </trkpt>
      <trkpt lat="42.64359" lon="1.69394">
        <ele>2037.466</ele>
        <time>2022-09-17T08:36:02Z</time>
      </trkpt>
      <trkpt lat="42.6436" lon="1.69396">
        <ele>2036.976</ele>
        <time>2022-09-17T08:36:04Z</time>
      </trkpt>
      <trkpt lat="42.64362" lon="1.69396">
        <ele>2036.512</ele>
        <time>2022-09-17T08:36:06Z</time>
      </trkpt>
      <trkpt lat="42.64363" lon="1.69396">
        <ele>2036.375</ele>
        <time>2022-09-17T08:36:08Z</time>
      </trkpt>
      <trkpt lat="42.64364" lon="1.69399">
        <ele>2036.421</ele>
        <time>2022-09-17T08:36:10Z</time>
      </trkpt>
      <trkpt lat="42.64364" lon="1.694">
        <ele>2035.915</ele>
        <time>2022-09-17T08:36:12Z</time>
      </trkpt>
      <trkpt lat="42.64365" lon="1.69402">
        <ele>2035.677</ele>
        <time>2022-09-17T08:36:14Z</time>
      </trkpt>
      <trkpt lat="42.64365" lon="1.69403">
        <ele>2035.038</ele>
        <time>2022-09-17T08:36:16Z</time>
      </trkpt>
      <trkpt lat="42.64366" lon="1.69405">
        <ele>2034.831</ele>
        <time>2022-09-17T08:36:18Z</time>
      </trkpt>
      <trkpt lat="42.64367" lon="1.69407">
        <ele>2034.709</ele>
        <time>2022-09-17T08:36:20Z</time>
      </trkpt>
      <trkpt lat="42.64367" lon="1.69408">
        <ele>2035.46</ele>
        <time>2022-09-17T08:36:22Z</time>
      </trkpt>
      <trkpt lat="42.64367" lon="1.69408">
        <ele>2035.434</ele>
        <time>2022-09-17T08:36:24Z</time>
      </trkpt>
      <trkpt lat="42.64367" lon="1.69408">
        <ele>2035.43</ele>
        <time>2022-09-17T08:36:26Z</time>
      </trkpt>
      <trkpt lat="42.64367" lon="1.69408">
        <ele>2035.425</ele>
        <time>2022-09-17T08:36:28Z</time>
      </trkpt>
      <trkpt lat="42.64367" lon="1.69409">
        <ele>2034.892</ele>
        <time>2022-09-17T08:36:30Z</time>
      </trkpt>
      <trkpt lat="42.64368" lon="1.69411">
        <ele>2034.462</ele>
        <time>2022-09-17T08:36:32Z</time>
      </trkpt>
      <trkpt lat="42.64369" lon="1.69412">
        <ele>2033.689</ele>
        <time>2022-09-17T08:36:34Z</time>
      </trkpt>
      <trkpt lat="42.6437" lon="1.69413">
        <ele>2033.716</ele>
        <time>2022-09-17T08:36:36Z</time>
      </trkpt>
      <trkpt lat="42.64371" lon="1.69414">
        <ele>2033.388</ele>
        <time>2022-09-17T08:36:38Z</time>
      </trkpt>
      <trkpt lat="42.64371" lon="1.69416">
        <ele>2033.037</ele>
        <time>2022-09-17T08:36:40Z</time>
      </trkpt>
      <trkpt lat="42.64372" lon="1.69417">
        <ele>2033.348</ele>
        <time>2022-09-17T08:36:42Z</time>
      </trkpt>
      <trkpt lat="42.64373" lon="1.69418">
        <ele>2032.981</ele>
        <time>2022-09-17T08:36:44Z</time>
      </trkpt>
      <trkpt lat="42.64375" lon="1.69419">
        <ele>2032.902</ele>
        <time>2022-09-17T08:36:46Z</time>
      </trkpt>
      <trkpt lat="42.64376" lon="1.6942">
        <ele>2032.82</ele>
        <time>2022-09-17T08:36:48Z</time>
      </trkpt>
      <trkpt lat="42.64377" lon="1.69422">
        <ele>2032.872</ele>
        <time>2022-09-17T08:36:50Z</time>
      </trkpt>
      <trkpt lat="42.64378" lon="1.69423">
        <ele>2032.632</ele>
        <time>2022-09-17T08:36:52Z</time>
      </trkpt>
      <trkpt lat="42.64379" lon="1.69424">
        <ele>2032.066</ele>
        <time>2022-09-17T08:36:54Z</time>
      </trkpt>
      <trkpt lat="42.64379" lon="1.69424">
        <ele>2031.884</ele>
        <time>2022-09-17T08:36:56Z</time>
      </trkpt>
      <trkpt lat="42.64381" lon="1.69425">
        <ele>2032.088</ele>
        <time>2022-09-17T08:36:58Z</time>
      </trkpt>
      <trkpt lat="42.64383" lon="1.69426">
        <ele>2032.904</ele>
        <time>2022-09-17T08:37:00Z</time>
      </trkpt>
      <trkpt lat="42.64383" lon="1.69425">
        <ele>2032.933</ele>
        <time>2022-09-17T08:37:02Z</time>
      </trkpt>
      <trkpt lat="42.64384" lon="1.69426">
        <ele>2032.953</ele>
        <time>2022-09-17T08:37:04Z</time>
      </trkpt>
      <trkpt lat="42.64386" lon="1.69426">
        <ele>2033.81</ele>
        <time>2022-09-17T08:37:06Z</time>
      </trkpt>
      <trkpt lat="42.64387" lon="1.69425">
        <ele>2033.451</ele>
        <time>2022-09-17T08:37:08Z</time>
      </trkpt>
      <trkpt lat="42.64388" lon="1.69425">
        <ele>2033.838</ele>
        <time>2022-09-17T08:37:10Z</time>
      </trkpt>
      <trkpt lat="42.64389" lon="1.69424">
        <ele>2034.445</ele>
        <time>2022-09-17T08:37:12Z</time>
      </trkpt>
      <trkpt lat="42.6439" lon="1.69425">
        <ele>2035.224</ele>
        <time>2022-09-17T08:37:14Z</time>
      </trkpt>
      <trkpt lat="42.64391" lon="1.69425">
        <ele>2035.855</ele>
        <time>2022-09-17T08:37:16Z</time>
      </trkpt>
      <trkpt lat="42.64392" lon="1.69424">
        <ele>2035.938</ele>
        <time>2022-09-17T08:37:18Z</time>
      </trkpt>
      <trkpt lat="42.64393" lon="1.69424">
        <ele>2036.768</ele>
        <time>2022-09-17T08:37:20Z</time>
      </trkpt>
      <trkpt lat="42.64393" lon="1.69424">
        <ele>2037.216</ele>
        <time>2022-09-17T08:37:22Z</time>
      </trkpt>
      <trkpt lat="42.64394" lon="1.69424">
        <ele>2037.575</ele>
        <time>2022-09-17T08:37:24Z</time>
      </trkpt>
      <trkpt lat="42.64395" lon="1.69425">
        <ele>2037.241</ele>
        <time>2022-09-17T08:37:26Z</time>
      </trkpt>
      <trkpt lat="42.64397" lon="1.69425">
        <ele>2037.347</ele>
        <time>2022-09-17T08:37:28Z</time>
      </trkpt>
      <trkpt lat="42.64398" lon="1.69426">
        <ele>2037.491</ele>
        <time>2022-09-17T08:37:30Z</time>
      </trkpt>
      <trkpt lat="42.64398" lon="1.69427">
        <ele>2037.666</ele>
        <time>2022-09-17T08:37:32Z</time>
      </trkpt>
      <trkpt lat="42.64399" lon="1.69427">
        <ele>2036.982</ele>
        <time>2022-09-17T08:37:34Z</time>
      </trkpt>
      <trkpt lat="42.644" lon="1.69427">
        <ele>2037.098</ele>
        <time>2022-09-17T08:37:36Z</time>
      </trkpt>
      <trkpt lat="42.644" lon="1.69427">
        <ele>2036.861</ele>
        <time>2022-09-17T08:37:38Z</time>
      </trkpt>
      <trkpt lat="42.64401" lon="1.69427">
        <ele>2037.347</ele>
        <time>2022-09-17T08:37:40Z</time>
      </trkpt>
      <trkpt lat="42.64402" lon="1.69428">
        <ele>2037.867</ele>
        <time>2022-09-17T08:37:42Z</time>
      </trkpt>
      <trkpt lat="42.64403" lon="1.69429">
        <ele>2037.978</ele>
        <time>2022-09-17T08:37:44Z</time>
      </trkpt>
      <trkpt lat="42.64403" lon="1.6943">
        <ele>2037.43</ele>
        <time>2022-09-17T08:37:46Z</time>
      </trkpt>
      <trkpt lat="42.64405" lon="1.6943">
        <ele>2037.061</ele>
        <time>2022-09-17T08:37:48Z</time>
      </trkpt>
      <trkpt lat="42.64406" lon="1.6943">
        <ele>2037.829</ele>
        <time>2022-09-17T08:37:50Z</time>
      </trkpt>
      <trkpt lat="42.64408" lon="1.69429">
        <ele>2039.249</ele>
        <time>2022-09-17T08:37:52Z</time>
      </trkpt>
      <trkpt lat="42.6441" lon="1.69428">
        <ele>2037.855</ele>
        <time>2022-09-17T08:37:54Z</time>
      </trkpt>
      <trkpt lat="42.64411" lon="1.69428">
        <ele>2037.661</ele>
        <time>2022-09-17T08:37:56Z</time>
      </trkpt>
      <trkpt lat="42.64412" lon="1.69429">
        <ele>2037.746</ele>
        <time>2022-09-17T08:37:58Z</time>
      </trkpt>
      <trkpt lat="42.64413" lon="1.6943">
        <ele>2037.7</ele>
        <time>2022-09-17T08:38:00Z</time>
      </trkpt>
      <trkpt lat="42.64414" lon="1.69431">
        <ele>2037.872</ele>
        <time>2022-09-17T08:38:02Z</time>
      </trkpt>
      <trkpt lat="42.64415" lon="1.69432">
        <ele>2038.279</ele>
        <time>2022-09-17T08:38:04Z</time>
      </trkpt>
      <trkpt lat="42.64417" lon="1.69432">
        <ele>2038.829</ele>
        <time>2022-09-17T08:38:06Z</time>
      </trkpt>
      <trkpt lat="42.64418" lon="1.69432">
        <ele>2038.931</ele>
        <time>2022-09-17T08:38:08Z</time>
      </trkpt>
      <trkpt lat="42.64419" lon="1.69433">
        <ele>2039.464</ele>
        <time>2022-09-17T08:38:10Z</time>
      </trkpt>
      <trkpt lat="42.6442" lon="1.69433">
        <ele>2039.348</ele>
        <time>2022-09-17T08:38:12Z</time>
      </trkpt>
      <trkpt lat="42.6442" lon="1.69433">
        <ele>2039.386</ele>
        <time>2022-09-17T08:38:14Z</time>
      </trkpt>
      <trkpt lat="42.64421" lon="1.69434">
        <ele>2039.149</ele>
        <time>2022-09-17T08:38:16Z</time>
      </trkpt>
      <trkpt lat="42.64422" lon="1.69435">
        <ele>2038.849</ele>
        <time>2022-09-17T08:38:18Z</time>
      </trkpt>
      <trkpt lat="42.64424" lon="1.69436">
        <ele>2038.443</ele>
        <time>2022-09-17T08:38:20Z</time>
      </trkpt>
      <trkpt lat="42.64425" lon="1.69436">
        <ele>2038.3</ele>
        <time>2022-09-17T08:38:22Z</time>
      </trkpt>
      <trkpt lat="42.64425" lon="1.69436">
        <ele>2038.298</ele>
        <time>2022-09-17T08:38:24Z</time>
      </trkpt>
      <trkpt lat="42.64425" lon="1.69437">
        <ele>2038.06</ele>
        <time>2022-09-17T08:38:26Z</time>
      </trkpt>
      <trkpt lat="42.64426" lon="1.69439">
        <ele>2038.465</ele>
        <time>2022-09-17T08:38:28Z</time>
      </trkpt>
      <trkpt lat="42.64427" lon="1.69441">
        <ele>2038.907</ele>
        <time>2022-09-17T08:38:30Z</time>
      </trkpt>
      <trkpt lat="42.64427" lon="1.69443">
        <ele>2038.987</ele>
        <time>2022-09-17T08:38:32Z</time>
      </trkpt>
      <trkpt lat="42.64428" lon="1.69444">
        <ele>2039.68</ele>
        <time>2022-09-17T08:38:34Z</time>
      </trkpt>
      <trkpt lat="42.64429" lon="1.69445">
        <ele>2040.064</ele>
        <time>2022-09-17T08:38:36Z</time>
      </trkpt>
      <trkpt lat="42.64431" lon="1.69445">
        <ele>2040.772</ele>
        <time>2022-09-17T08:38:38Z</time>
      </trkpt>
      <trkpt lat="42.64431" lon="1.69445">
        <ele>2041.947</ele>
        <time>2022-09-17T08:38:40Z</time>
      </trkpt>
      <trkpt lat="42.64432" lon="1.69446">
        <ele>2042.197</ele>
        <time>2022-09-17T08:38:42Z</time>
      </trkpt>
      <trkpt lat="42.64433" lon="1.69446">
        <ele>2042.101</ele>
        <time>2022-09-17T08:38:44Z</time>
      </trkpt>
      <trkpt lat="42.64434" lon="1.69447">
        <ele>2042.38</ele>
        <time>2022-09-17T08:38:46Z</time>
      </trkpt>
      <trkpt lat="42.64435" lon="1.69449">
        <ele>2042.344</ele>
        <time>2022-09-17T08:38:48Z</time>
      </trkpt>
      <trkpt lat="42.64436" lon="1.6945">
        <ele>2042.576</ele>
        <time>2022-09-17T08:38:50Z</time>
      </trkpt>
      <trkpt lat="42.64437" lon="1.69451">
        <ele>2042.104</ele>
        <time>2022-09-17T08:38:52Z</time>
      </trkpt>
      <trkpt lat="42.64438" lon="1.69452">
        <ele>2041.633</ele>
        <time>2022-09-17T08:38:54Z</time>
      </trkpt>
      <trkpt lat="42.64438" lon="1.69453">
        <ele>2041.6</ele>
        <time>2022-09-17T08:38:56Z</time>
      </trkpt>
      <trkpt lat="42.6444" lon="1.69454">
        <ele>2041.929</ele>
        <time>2022-09-17T08:38:58Z</time>
      </trkpt>
      <trkpt lat="42.64441" lon="1.69455">
        <ele>2041.858</ele>
        <time>2022-09-17T08:39:00Z</time>
      </trkpt>
      <trkpt lat="42.64441" lon="1.69455">
        <ele>2042.063</ele>
        <time>2022-09-17T08:39:02Z</time>
      </trkpt>
      <trkpt lat="42.64442" lon="1.69455">
        <ele>2043.166</ele>
        <time>2022-09-17T08:39:04Z</time>
      </trkpt>
      <trkpt lat="42.64443" lon="1.69456">
        <ele>2044.629</ele>
        <time>2022-09-17T08:39:06Z</time>
      </trkpt>
      <trkpt lat="42.64443" lon="1.69456">
        <ele>2044.659</ele>
        <time>2022-09-17T08:39:08Z</time>
      </trkpt>
      <trkpt lat="42.64444" lon="1.69456">
        <ele>2045.223</ele>
        <time>2022-09-17T08:39:10Z</time>
      </trkpt>
      <trkpt lat="42.64445" lon="1.69456">
        <ele>2044.919</ele>
        <time>2022-09-17T08:39:12Z</time>
      </trkpt>
      <trkpt lat="42.64446" lon="1.69457">
        <ele>2045.196</ele>
        <time>2022-09-17T08:39:14Z</time>
      </trkpt>
      <trkpt lat="42.64446" lon="1.69458">
        <ele>2044.87</ele>
        <time>2022-09-17T08:39:16Z</time>
      </trkpt>
      <trkpt lat="42.64447" lon="1.69458">
        <ele>2044.919</ele>
        <time>2022-09-17T08:39:18Z</time>
      </trkpt>
      <trkpt lat="42.64448" lon="1.69459">
        <ele>2045.216</ele>
        <time>2022-09-17T08:39:20Z</time>
      </trkpt>
      <trkpt lat="42.64449" lon="1.69459">
        <ele>2045.355</ele>
        <time>2022-09-17T08:39:22Z</time>
      </trkpt>
      <trkpt lat="42.64449" lon="1.6946">
        <ele>2045.417</ele>
        <time>2022-09-17T08:39:24Z</time>
      </trkpt>
      <trkpt lat="42.64451" lon="1.69459">
        <ele>2045.268</ele>
        <time>2022-09-17T08:39:26Z</time>
      </trkpt>
      <trkpt lat="42.64451" lon="1.6946">
        <ele>2044.624</ele>
        <time>2022-09-17T08:39:28Z</time>
      </trkpt>
      <trkpt lat="42.64452" lon="1.69461">
        <ele>2045.189</ele>
        <time>2022-09-17T08:39:30Z</time>
      </trkpt>
      <trkpt lat="42.64453" lon="1.69461">
        <ele>2045.283</ele>
        <time>2022-09-17T08:39:32Z</time>
      </trkpt>
      <trkpt lat="42.64454" lon="1.69461">
        <ele>2045.748</ele>
        <time>2022-09-17T08:39:34Z</time>
      </trkpt>
      <trkpt lat="42.64454" lon="1.69462">
        <ele>2046.208</ele>
        <time>2022-09-17T08:39:36Z</time>
      </trkpt>
      <trkpt lat="42.64455" lon="1.69463">
        <ele>2046.597</ele>
        <time>2022-09-17T08:39:38Z</time>
      </trkpt>
      <trkpt lat="42.64456" lon="1.69463">
        <ele>2047.425</ele>
        <time>2022-09-17T08:39:40Z</time>
      </trkpt>
      <trkpt lat="42.64457" lon="1.69462">
        <ele>2047.854</ele>
        <time>2022-09-17T08:39:42Z</time>
      </trkpt>
      <trkpt lat="42.64458" lon="1.69463">
        <ele>2048.438</ele>
        <time>2022-09-17T08:39:44Z</time>
      </trkpt>
      <trkpt lat="42.64459" lon="1.69463">
        <ele>2048.623</ele>
        <time>2022-09-17T08:39:46Z</time>
      </trkpt>
      <trkpt lat="42.6446" lon="1.69463">
        <ele>2049.586</ele>
        <time>2022-09-17T08:39:48Z</time>
      </trkpt>
      <trkpt lat="42.64461" lon="1.69463">
        <ele>2050.102</ele>
        <time>2022-09-17T08:39:50Z</time>
      </trkpt>
      <trkpt lat="42.64461" lon="1.69463">
        <ele>2050.371</ele>
        <time>2022-09-17T08:39:52Z</time>
      </trkpt>
      <trkpt lat="42.64462" lon="1.69462">
        <ele>2050.029</ele>
        <time>2022-09-17T08:39:54Z</time>
      </trkpt>
      <trkpt lat="42.64463" lon="1.69462">
        <ele>2050.254</ele>
        <time>2022-09-17T08:39:56Z</time>
      </trkpt>
      <trkpt lat="42.64464" lon="1.69462">
        <ele>2050.181</ele>
        <time>2022-09-17T08:39:58Z</time>
      </trkpt>
      <trkpt lat="42.64464" lon="1.69462">
        <ele>2050.625</ele>
        <time>2022-09-17T08:40:00Z</time>
      </trkpt>
      <trkpt lat="42.64465" lon="1.69463">
        <ele>2050.709</ele>
        <time>2022-09-17T08:40:02Z</time>
      </trkpt>
      <trkpt lat="42.64465" lon="1.69462">
        <ele>2050.688</ele>
        <time>2022-09-17T08:40:04Z</time>
      </trkpt>
      <trkpt lat="42.64466" lon="1.69462">
        <ele>2051.645</ele>
        <time>2022-09-17T08:40:06Z</time>
      </trkpt>
      <trkpt lat="42.64467" lon="1.69462">
        <ele>2052.446</ele>
        <time>2022-09-17T08:40:08Z</time>
      </trkpt>
      <trkpt lat="42.64468" lon="1.69462">
        <ele>2052.996</ele>
        <time>2022-09-17T08:40:10Z</time>
      </trkpt>
      <trkpt lat="42.64469" lon="1.69463">
        <ele>2053.455</ele>
        <time>2022-09-17T08:40:12Z</time>
      </trkpt>
      <trkpt lat="42.6447" lon="1.69463">
        <ele>2053.736</ele>
        <time>2022-09-17T08:40:14Z</time>
      </trkpt>
      <trkpt lat="42.64471" lon="1.69463">
        <ele>2054.528</ele>
        <time>2022-09-17T08:40:16Z</time>
      </trkpt>
      <trkpt lat="42.64472" lon="1.69463">
        <ele>2054.235</ele>
        <time>2022-09-17T08:40:18Z</time>
      </trkpt>
      <trkpt lat="42.64474" lon="1.69464">
        <ele>2053.648</ele>
        <time>2022-09-17T08:40:20Z</time>
      </trkpt>
      <trkpt lat="42.64475" lon="1.69464">
        <ele>2054.092</ele>
        <time>2022-09-17T08:40:22Z</time>
      </trkpt>
      <trkpt lat="42.64476" lon="1.69465">
        <ele>2053.565</ele>
        <time>2022-09-17T08:40:24Z</time>
      </trkpt>
      <trkpt lat="42.64477" lon="1.69465">
        <ele>2053.391</ele>
        <time>2022-09-17T08:40:26Z</time>
      </trkpt>
      <trkpt lat="42.64478" lon="1.69465">
        <ele>2053.894</ele>
        <time>2022-09-17T08:40:28Z</time>
      </trkpt>
      <trkpt lat="42.64479" lon="1.69464">
        <ele>2054.074</ele>
        <time>2022-09-17T08:40:30Z</time>
      </trkpt>
      <trkpt lat="42.64479" lon="1.69464">
        <ele>2054.412</ele>
        <time>2022-09-17T08:40:32Z</time>
      </trkpt>
      <trkpt lat="42.6448" lon="1.69464">
        <ele>2054.801</ele>
        <time>2022-09-17T08:40:34Z</time>
      </trkpt>
      <trkpt lat="42.6448" lon="1.69464">
        <ele>2055.149</ele>
        <time>2022-09-17T08:40:36Z</time>
      </trkpt>
      <trkpt lat="42.64482" lon="1.69464">
        <ele>2055.627</ele>
        <time>2022-09-17T08:40:38Z</time>
      </trkpt>
      <trkpt lat="42.64483" lon="1.69464">
        <ele>2055.555</ele>
        <time>2022-09-17T08:40:40Z</time>
      </trkpt>
      <trkpt lat="42.64483" lon="1.69464">
        <ele>2055.186</ele>
        <time>2022-09-17T08:40:42Z</time>
      </trkpt>
      <trkpt lat="42.64484" lon="1.69465">
        <ele>2056.103</ele>
        <time>2022-09-17T08:40:44Z</time>
      </trkpt>
      <trkpt lat="42.64485" lon="1.69465">
        <ele>2055.984</ele>
        <time>2022-09-17T08:40:46Z</time>
      </trkpt>
      <trkpt lat="42.64486" lon="1.69465">
        <ele>2056.285</ele>
        <time>2022-09-17T08:40:48Z</time>
      </trkpt>
      <trkpt lat="42.64488" lon="1.69466">
        <ele>2056.747</ele>
        <time>2022-09-17T08:40:50Z</time>
      </trkpt>
      <trkpt lat="42.64489" lon="1.69465">
        <ele>2057.146</ele>
        <time>2022-09-17T08:40:52Z</time>
      </trkpt>
      <trkpt lat="42.6449" lon="1.69465">
        <ele>2057.693</ele>
        <time>2022-09-17T08:40:54Z</time>
      </trkpt>
      <trkpt lat="42.64491" lon="1.69465">
        <ele>2058.229</ele>
        <time>2022-09-17T08:40:56Z</time>
      </trkpt>
      <trkpt lat="42.64492" lon="1.69464">
        <ele>2058.025</ele>
        <time>2022-09-17T08:40:58Z</time>
      </trkpt>
      <trkpt lat="42.64493" lon="1.69463">
        <ele>2058.297</ele>
        <time>2022-09-17T08:41:00Z</time>
      </trkpt>
      <trkpt lat="42.64495" lon="1.69463">
        <ele>2058.848</ele>
        <time>2022-09-17T08:41:02Z</time>
      </trkpt>
      <trkpt lat="42.64496" lon="1.69462">
        <ele>2059.251</ele>
        <time>2022-09-17T08:41:04Z</time>
      </trkpt>
      <trkpt lat="42.64497" lon="1.69462">
        <ele>2059.719</ele>
        <time>2022-09-17T08:41:06Z</time>
      </trkpt>
      <trkpt lat="42.64498" lon="1.69461">
        <ele>2059.492</ele>
        <time>2022-09-17T08:41:08Z</time>
      </trkpt>
      <trkpt lat="42.64498" lon="1.69461">
        <ele>2059.368</ele>
        <time>2022-09-17T08:41:10Z</time>
      </trkpt>
      <trkpt lat="42.64499" lon="1.69461">
        <ele>2059.72</ele>
        <time>2022-09-17T08:41:12Z</time>
      </trkpt>
      <trkpt lat="42.645" lon="1.6946">
        <ele>2060.195</ele>
        <time>2022-09-17T08:41:14Z</time>
      </trkpt>
      <trkpt lat="42.64501" lon="1.6946">
        <ele>2060.819</ele>
        <time>2022-09-17T08:41:16Z</time>
      </trkpt>
      <trkpt lat="42.64501" lon="1.6946">
        <ele>2060.919</ele>
        <time>2022-09-17T08:41:18Z</time>
      </trkpt>
      <trkpt lat="42.64502" lon="1.6946">
        <ele>2061.302</ele>
        <time>2022-09-17T08:41:20Z</time>
      </trkpt>
      <trkpt lat="42.64502" lon="1.6946">
        <ele>2061.35</ele>
        <time>2022-09-17T08:41:22Z</time>
      </trkpt>
      <trkpt lat="42.64503" lon="1.6946">
        <ele>2061.597</ele>
        <time>2022-09-17T08:41:24Z</time>
      </trkpt>
      <trkpt lat="42.64504" lon="1.69459">
        <ele>2062.091</ele>
        <time>2022-09-17T08:41:26Z</time>
      </trkpt>
      <trkpt lat="42.64504" lon="1.69459">
        <ele>2062.128</ele>
        <time>2022-09-17T08:41:28Z</time>
      </trkpt>
      <trkpt lat="42.64505" lon="1.69459">
        <ele>2062.719</ele>
        <time>2022-09-17T08:41:30Z</time>
      </trkpt>
      <trkpt lat="42.64506" lon="1.69459">
        <ele>2063.102</ele>
        <time>2022-09-17T08:41:32Z</time>
      </trkpt>
      <trkpt lat="42.64507" lon="1.6946">
        <ele>2063.637</ele>
        <time>2022-09-17T08:41:34Z</time>
      </trkpt>
      <trkpt lat="42.64508" lon="1.6946">
        <ele>2063.528</ele>
        <time>2022-09-17T08:41:36Z</time>
      </trkpt>
      <trkpt lat="42.64508" lon="1.6946">
        <ele>2064.158</ele>
        <time>2022-09-17T08:41:38Z</time>
      </trkpt>
      <trkpt lat="42.64509" lon="1.6946">
        <ele>2064.184</ele>
        <time>2022-09-17T08:41:40Z</time>
      </trkpt>
      <trkpt lat="42.64509" lon="1.6946">
        <ele>2064.395</ele>
        <time>2022-09-17T08:41:42Z</time>
      </trkpt>
      <trkpt lat="42.6451" lon="1.6946">
        <ele>2064.089</ele>
        <time>2022-09-17T08:41:44Z</time>
      </trkpt>
      <trkpt lat="42.64512" lon="1.69459">
        <ele>2064.125</ele>
        <time>2022-09-17T08:41:46Z</time>
      </trkpt>
      <trkpt lat="42.64513" lon="1.69458">
        <ele>2064.383</ele>
        <time>2022-09-17T08:41:48Z</time>
      </trkpt>
      <trkpt lat="42.64514" lon="1.69458">
        <ele>2064.563</ele>
        <time>2022-09-17T08:41:50Z</time>
      </trkpt>
      <trkpt lat="42.64515" lon="1.69458">
        <ele>2065.008</ele>
        <time>2022-09-17T08:41:52Z</time>
      </trkpt>
      <trkpt lat="42.64516" lon="1.69458">
        <ele>2065.061</ele>
        <time>2022-09-17T08:41:54Z</time>
      </trkpt>
      <trkpt lat="42.64517" lon="1.69458">
        <ele>2066.155</ele>
        <time>2022-09-17T08:41:56Z</time>
      </trkpt>
      <trkpt lat="42.64518" lon="1.69458">
        <ele>2066.611</ele>
        <time>2022-09-17T08:41:58Z</time>
      </trkpt>
      <trkpt lat="42.64519" lon="1.69458">
        <ele>2066.825</ele>
        <time>2022-09-17T08:42:00Z</time>
      </trkpt>
      <trkpt lat="42.6452" lon="1.69458">
        <ele>2066.369</ele>
        <time>2022-09-17T08:42:02Z</time>
      </trkpt>
      <trkpt lat="42.64521" lon="1.69458">
        <ele>2066.009</ele>
        <time>2022-09-17T08:42:04Z</time>
      </trkpt>
      <trkpt lat="42.64522" lon="1.69459">
        <ele>2065.563</ele>
        <time>2022-09-17T08:42:06Z</time>
      </trkpt>
      <trkpt lat="42.64522" lon="1.69459">
        <ele>2065.149</ele>
        <time>2022-09-17T08:42:08Z</time>
      </trkpt>
      <trkpt lat="42.64523" lon="1.6946">
        <ele>2065.1</ele>
        <time>2022-09-17T08:42:10Z</time>
      </trkpt>
      <trkpt lat="42.64524" lon="1.6946">
        <ele>2064.727</ele>
        <time>2022-09-17T08:42:12Z</time>
      </trkpt>
      <trkpt lat="42.64526" lon="1.69461">
        <ele>2064.453</ele>
        <time>2022-09-17T08:42:14Z</time>
      </trkpt>
      <trkpt lat="42.64527" lon="1.6946">
        <ele>2065.014</ele>
        <time>2022-09-17T08:42:16Z</time>
      </trkpt>
      <trkpt lat="42.64528" lon="1.6946">
        <ele>2064.89</ele>
        <time>2022-09-17T08:42:18Z</time>
      </trkpt>
      <trkpt lat="42.6453" lon="1.6946">
        <ele>2064.836</ele>
        <time>2022-09-17T08:42:20Z</time>
      </trkpt>
      <trkpt lat="42.64529" lon="1.6946">
        <ele>2064.06</ele>
        <time>2022-09-17T08:42:22Z</time>
      </trkpt>
      <trkpt lat="42.64531" lon="1.69459">
        <ele>2064.529</ele>
        <time>2022-09-17T08:42:24Z</time>
      </trkpt>
      <trkpt lat="42.64532" lon="1.69459">
        <ele>2064.406</ele>
        <time>2022-09-17T08:42:26Z</time>
      </trkpt>
      <trkpt lat="42.64534" lon="1.6946">
        <ele>2064.301</ele>
        <time>2022-09-17T08:42:28Z</time>
      </trkpt>
      <trkpt lat="42.64536" lon="1.69461">
        <ele>2065.386</ele>
        <time>2022-09-17T08:42:30Z</time>
      </trkpt>
      <trkpt lat="42.64538" lon="1.69459">
        <ele>2065.458</ele>
        <time>2022-09-17T08:42:32Z</time>
      </trkpt>
      <trkpt lat="42.64539" lon="1.69459">
        <ele>2065.862</ele>
        <time>2022-09-17T08:42:34Z</time>
      </trkpt>
      <trkpt lat="42.64541" lon="1.69459">
        <ele>2065.488</ele>
        <time>2022-09-17T08:42:36Z</time>
      </trkpt>
      <trkpt lat="42.64542" lon="1.69459">
        <ele>2064.735</ele>
        <time>2022-09-17T08:42:38Z</time>
      </trkpt>
      <trkpt lat="42.64541" lon="1.6946">
        <ele>2065.174</ele>
        <time>2022-09-17T08:42:40Z</time>
      </trkpt>
      <trkpt lat="42.64542" lon="1.6946">
        <ele>2065.572</ele>
        <time>2022-09-17T08:42:42Z</time>
      </trkpt>
      <trkpt lat="42.64543" lon="1.6946">
        <ele>2065.431</ele>
        <time>2022-09-17T08:42:44Z</time>
      </trkpt>
      <trkpt lat="42.64545" lon="1.6946">
        <ele>2065.748</ele>
        <time>2022-09-17T08:42:46Z</time>
      </trkpt>
      <trkpt lat="42.64546" lon="1.69461">
        <ele>2066.8</ele>
        <time>2022-09-17T08:42:48Z</time>
      </trkpt>
      <trkpt lat="42.64547" lon="1.6946">
        <ele>2066.85</ele>
        <time>2022-09-17T08:42:50Z</time>
      </trkpt>
      <trkpt lat="42.64547" lon="1.6946">
        <ele>2066.625</ele>
        <time>2022-09-17T08:42:52Z</time>
      </trkpt>
      <trkpt lat="42.64548" lon="1.6946">
        <ele>2066.278</ele>
        <time>2022-09-17T08:42:54Z</time>
      </trkpt>
      <trkpt lat="42.64547" lon="1.69459">
        <ele>2065.898</ele>
        <time>2022-09-17T08:42:56Z</time>
      </trkpt>
      <trkpt lat="42.64547" lon="1.69459">
        <ele>2065.578</ele>
        <time>2022-09-17T08:42:58Z</time>
      </trkpt>
      <trkpt lat="42.64547" lon="1.69459">
        <ele>2065.484</ele>
        <time>2022-09-17T08:43:00Z</time>
      </trkpt>
      <trkpt lat="42.64548" lon="1.69459">
        <ele>2064.414</ele>
        <time>2022-09-17T08:43:02Z</time>
      </trkpt>
      <trkpt lat="42.64548" lon="1.6946">
        <ele>2064.073</ele>
        <time>2022-09-17T08:43:04Z</time>
      </trkpt>
      <trkpt lat="42.64549" lon="1.6946">
        <ele>2063.219</ele>
        <time>2022-09-17T08:43:06Z</time>
      </trkpt>
      <trkpt lat="42.6455" lon="1.6946">
        <ele>2062.746</ele>
        <time>2022-09-17T08:43:08Z</time>
      </trkpt>
      <trkpt lat="42.6455" lon="1.69459">
        <ele>2062.181</ele>
        <time>2022-09-17T08:43:10Z</time>
      </trkpt>
      <trkpt lat="42.6455" lon="1.69459">
        <ele>2062.216</ele>
        <time>2022-09-17T08:43:12Z</time>
      </trkpt>
      <trkpt lat="42.64549" lon="1.69459">
        <ele>2062.218</ele>
        <time>2022-09-17T08:43:14Z</time>
      </trkpt>
      <trkpt lat="42.64549" lon="1.69459">
        <ele>2062.22</ele>
        <time>2022-09-17T08:43:16Z</time>
      </trkpt>
      <trkpt lat="42.64549" lon="1.69459">
        <ele>2062.219</ele>
        <time>2022-09-17T08:43:18Z</time>
      </trkpt>
      <trkpt lat="42.64549" lon="1.69459">
        <ele>2062.216</ele>
        <time>2022-09-17T08:43:20Z</time>
      </trkpt>
      <trkpt lat="42.64549" lon="1.69459">
        <ele>2062.214</ele>
        <time>2022-09-17T08:43:22Z</time>
      </trkpt>
      <trkpt lat="42.64549" lon="1.69459">
        <ele>2062.217</ele>
        <time>2022-09-17T08:43:24Z</time>
      </trkpt>
      <trkpt lat="42.64549" lon="1.69459">
        <ele>2062.22</ele>
        <time>2022-09-17T08:43:26Z</time>
      </trkpt>
      <trkpt lat="42.6455" lon="1.69459">
        <ele>2062.221</ele>
        <time>2022-09-17T08:43:28Z</time>
      </trkpt>
      <trkpt lat="42.64549" lon="1.69459">
        <ele>2062.221</ele>
        <time>2022-09-17T08:43:30Z</time>
      </trkpt>
      <trkpt lat="42.6455" lon="1.69459">
        <ele>2062.223</ele>
        <time>2022-09-17T08:43:32Z</time>
      </trkpt>
      <trkpt lat="42.6455" lon="1.69459">
        <ele>2062.214</ele>
        <time>2022-09-17T08:43:34Z</time>
      </trkpt>
      <trkpt lat="42.6455" lon="1.69459">
        <ele>2062.213</ele>
        <time>2022-09-17T08:43:36Z</time>
      </trkpt>
      <trkpt lat="42.6455" lon="1.69459">
        <ele>2062.215</ele>
        <time>2022-09-17T08:43:38Z</time>
      </trkpt>
      <trkpt lat="42.6455" lon="1.69459">
        <ele>2062.209</ele>
        <time>2022-09-17T08:43:40Z</time>
      </trkpt>
      <trkpt lat="42.6455" lon="1.69459">
        <ele>2062.207</ele>
        <time>2022-09-17T08:43:42Z</time>
      </trkpt>
      <trkpt lat="42.6455" lon="1.69459">
        <ele>2062.204</ele>
        <time>2022-09-17T08:43:44Z</time>
      </trkpt>
      <trkpt lat="42.6455" lon="1.69459">
        <ele>2062.197</ele>
        <time>2022-09-17T08:43:46Z</time>
      </trkpt>
      <trkpt lat="42.6455" lon="1.69459">
        <ele>2062.199</ele>
        <time>2022-09-17T08:43:48Z</time>
      </trkpt>
      <trkpt lat="42.6455" lon="1.69459">
        <ele>2062.199</ele>
        <time>2022-09-17T08:43:50Z</time>
      </trkpt>
      <trkpt lat="42.6455" lon="1.69459">
        <ele>2062.197</ele>
        <time>2022-09-17T08:43:52Z</time>
      </trkpt>
      <trkpt lat="42.6455" lon="1.69459">
        <ele>2062.197</ele>
        <time>2022-09-17T08:43:54Z</time>
      </trkpt>
      <trkpt lat="42.6455" lon="1.69459">
        <ele>2062.194</ele>
        <time>2022-09-17T08:43:56Z</time>
      </trkpt>
      <trkpt lat="42.6455" lon="1.69459">
        <ele>2062.194</ele>
        <time>2022-09-17T08:43:58Z</time>
      </trkpt>
      <trkpt lat="42.6455" lon="1.69459">
        <ele>2062.193</ele>
        <time>2022-09-17T08:44:00Z</time>
      </trkpt>
      <trkpt lat="42.6455" lon="1.69459">
        <ele>2062.192</ele>
        <time>2022-09-17T08:44:02Z</time>
      </trkpt>
      <trkpt lat="42.6455" lon="1.69459">
        <ele>2062.187</ele>
        <time>2022-09-17T08:44:04Z</time>
      </trkpt>
      <trkpt lat="42.6455" lon="1.69459">
        <ele>2062.182</ele>
        <time>2022-09-17T08:44:06Z</time>
      </trkpt>
      <trkpt lat="42.6455" lon="1.69459">
        <ele>2062.175</ele>
        <time>2022-09-17T08:44:08Z</time>
      </trkpt>
      <trkpt lat="42.6455" lon="1.69459">
        <ele>2062.175</ele>
        <time>2022-09-17T08:44:10Z</time>
      </trkpt>
      <trkpt lat="42.6455" lon="1.69459">
        <ele>2062.171</ele>
        <time>2022-09-17T08:44:12Z</time>
      </trkpt>
      <trkpt lat="42.6455" lon="1.69459">
        <ele>2062.169</ele>
        <time>2022-09-17T08:44:14Z</time>
      </trkpt>
      <trkpt lat="42.6455" lon="1.69459">
        <ele>2062.166</ele>
        <time>2022-09-17T08:44:16Z</time>
      </trkpt>
      <trkpt lat="42.6455" lon="1.69459">
        <ele>2062.166</ele>
        <time>2022-09-17T08:44:18Z</time>
      </trkpt>
      <trkpt lat="42.6455" lon="1.69459">
        <ele>2062.161</ele>
        <time>2022-09-17T08:44:20Z</time>
      </trkpt>
      <trkpt lat="42.6455" lon="1.69459">
        <ele>2062.16</ele>
        <time>2022-09-17T08:44:22Z</time>
      </trkpt>
      <trkpt lat="42.6455" lon="1.69459">
        <ele>2062.157</ele>
        <time>2022-09-17T08:44:24Z</time>
      </trkpt>
      <trkpt lat="42.6455" lon="1.69459">
        <ele>2062.157</ele>
        <time>2022-09-17T08:44:26Z</time>
      </trkpt>
      <trkpt lat="42.6455" lon="1.69459">
        <ele>2062.157</ele>
        <time>2022-09-17T08:44:28Z</time>
      </trkpt>
      <trkpt lat="42.6455" lon="1.69459">
        <ele>2062.154</ele>
        <time>2022-09-17T08:44:30Z</time>
      </trkpt>
      <trkpt lat="42.6455" lon="1.69459">
        <ele>2062.149</ele>
        <time>2022-09-17T08:44:32Z</time>
      </trkpt>
      <trkpt lat="42.6455" lon="1.69459">
        <ele>2062.139</ele>
        <time>2022-09-17T08:44:34Z</time>
      </trkpt>
      <trkpt lat="42.6455" lon="1.69459">
        <ele>2062.137</ele>
        <time>2022-09-17T08:44:36Z</time>
      </trkpt>
      <trkpt lat="42.6455" lon="1.69459">
        <ele>2062.136</ele>
        <time>2022-09-17T08:44:38Z</time>
      </trkpt>
      <trkpt lat="42.6455" lon="1.69459">
        <ele>2062.138</ele>
        <time>2022-09-17T08:44:40Z</time>
      </trkpt>
      <trkpt lat="42.6455" lon="1.69459">
        <ele>2062.14</ele>
        <time>2022-09-17T08:44:42Z</time>
      </trkpt>
      <trkpt lat="42.6455" lon="1.69459">
        <ele>2062.14</ele>
        <time>2022-09-17T08:44:44Z</time>
      </trkpt>
      <trkpt lat="42.6455" lon="1.69459">
        <ele>2062.141</ele>
        <time>2022-09-17T08:44:46Z</time>
      </trkpt>
      <trkpt lat="42.6455" lon="1.69459">
        <ele>2062.135</ele>
        <time>2022-09-17T08:44:48Z</time>
      </trkpt>
      <trkpt lat="42.6455" lon="1.69459">
        <ele>2062.131</ele>
        <time>2022-09-17T08:44:50Z</time>
      </trkpt>
      <trkpt lat="42.6455" lon="1.69459">
        <ele>2062.129</ele>
        <time>2022-09-17T08:44:52Z</time>
      </trkpt>
      <trkpt lat="42.6455" lon="1.69459">
        <ele>2062.129</ele>
        <time>2022-09-17T08:44:54Z</time>
      </trkpt>
      <trkpt lat="42.6455" lon="1.69459">
        <ele>2062.12</ele>
        <time>2022-09-17T08:44:56Z</time>
      </trkpt>
      <trkpt lat="42.6455" lon="1.69459">
        <ele>2062.124</ele>
        <time>2022-09-17T08:44:58Z</time>
      </trkpt>
      <trkpt lat="42.6455" lon="1.69459">
        <ele>2062.118</ele>
        <time>2022-09-17T08:45:00Z</time>
      </trkpt>
      <trkpt lat="42.6455" lon="1.69459">
        <ele>2062.115</ele>
        <time>2022-09-17T08:45:02Z</time>
      </trkpt>
      <trkpt lat="42.6455" lon="1.69459">
        <ele>2062.114</ele>
        <time>2022-09-17T08:45:04Z</time>
      </trkpt>
      <trkpt lat="42.6455" lon="1.69459">
        <ele>2062.114</ele>
        <time>2022-09-17T08:45:06Z</time>
      </trkpt>
      <trkpt lat="42.6455" lon="1.69459">
        <ele>2062.116</ele>
        <time>2022-09-17T08:45:08Z</time>
      </trkpt>
      <trkpt lat="42.6455" lon="1.69459">
        <ele>2062.114</ele>
        <time>2022-09-17T08:45:10Z</time>
      </trkpt>
      <trkpt lat="42.6455" lon="1.69459">
        <ele>2062.113</ele>
        <time>2022-09-17T08:45:12Z</time>
      </trkpt>
      <trkpt lat="42.6455" lon="1.69459">
        <ele>2062.109</ele>
        <time>2022-09-17T08:45:14Z</time>
      </trkpt>
      <trkpt lat="42.6455" lon="1.69459">
        <ele>2062.107</ele>
        <time>2022-09-17T08:45:16Z</time>
      </trkpt>
      <trkpt lat="42.6455" lon="1.69459">
        <ele>2062.104</ele>
        <time>2022-09-17T08:45:18Z</time>
      </trkpt>
      <trkpt lat="42.6455" lon="1.69459">
        <ele>2062.104</ele>
        <time>2022-09-17T08:45:20Z</time>
      </trkpt>
      <trkpt lat="42.6455" lon="1.69459">
        <ele>2062.093</ele>
        <time>2022-09-17T08:45:22Z</time>
      </trkpt>
      <trkpt lat="42.6455" lon="1.69459">
        <ele>2062.088</ele>
        <time>2022-09-17T08:45:24Z</time>
      </trkpt>
      <trkpt lat="42.6455" lon="1.69459">
        <ele>2062.083</ele>
        <time>2022-09-17T08:45:26Z</time>
      </trkpt>
      <trkpt lat="42.6455" lon="1.69459">
        <ele>2062.077</ele>
        <time>2022-09-17T08:45:28Z</time>
      </trkpt>
      <trkpt lat="42.6455" lon="1.69459">
        <ele>2062.073</ele>
        <time>2022-09-17T08:45:30Z</time>
      </trkpt>
      <trkpt lat="42.6455" lon="1.69459">
        <ele>2062.065</ele>
        <time>2022-09-17T08:45:32Z</time>
      </trkpt>
      <trkpt lat="42.6455" lon="1.69459">
        <ele>2062.061</ele>
        <time>2022-09-17T08:45:34Z</time>
      </trkpt>
      <trkpt lat="42.6455" lon="1.69459">
        <ele>2062.055</ele>
        <time>2022-09-17T08:45:36Z</time>
      </trkpt>
      <trkpt lat="42.6455" lon="1.69459">
        <ele>2062.051</ele>
        <time>2022-09-17T08:45:38Z</time>
      </trkpt>
      <trkpt lat="42.6455" lon="1.69459">
        <ele>2062.052</ele>
        <time>2022-09-17T08:45:40Z</time>
      </trkpt>
      <trkpt lat="42.6455" lon="1.69459">
        <ele>2062.052</ele>
        <time>2022-09-17T08:45:42Z</time>
      </trkpt>
      <trkpt lat="42.6455" lon="1.69459">
        <ele>2062.053</ele>
        <time>2022-09-17T08:45:44Z</time>
      </trkpt>
      <trkpt lat="42.6455" lon="1.69459">
        <ele>2062.056</ele>
        <time>2022-09-17T08:45:46Z</time>
      </trkpt>
      <trkpt lat="42.6455" lon="1.69459">
        <ele>2062.063</ele>
        <time>2022-09-17T08:45:48Z</time>
      </trkpt>
      <trkpt lat="42.6455" lon="1.69459">
        <ele>2062.07</ele>
        <time>2022-09-17T08:45:50Z</time>
      </trkpt>
      <trkpt lat="42.6455" lon="1.69459">
        <ele>2062.077</ele>
        <time>2022-09-17T08:45:52Z</time>
      </trkpt>
      <trkpt lat="42.6455" lon="1.69459">
        <ele>2062.079</ele>
        <time>2022-09-17T08:45:54Z</time>
      </trkpt>
      <trkpt lat="42.6455" lon="1.69459">
        <ele>2062.077</ele>
        <time>2022-09-17T08:45:56Z</time>
      </trkpt>
      <trkpt lat="42.6455" lon="1.69459">
        <ele>2062.075</ele>
        <time>2022-09-17T08:45:58Z</time>
      </trkpt>
      <trkpt lat="42.6455" lon="1.69459">
        <ele>2062.074</ele>
        <time>2022-09-17T08:46:00Z</time>
      </trkpt>
      <trkpt lat="42.6455" lon="1.69459">
        <ele>2062.071</ele>
        <time>2022-09-17T08:46:02Z</time>
      </trkpt>
      <trkpt lat="42.6455" lon="1.69459">
        <ele>2062.124</ele>
        <time>2022-09-17T08:46:04Z</time>
      </trkpt>
      <trkpt lat="42.64551" lon="1.69458">
        <ele>2062.462</ele>
        <time>2022-09-17T08:46:06Z</time>
      </trkpt>
      <trkpt lat="42.64553" lon="1.69457">
        <ele>2062.174</ele>
        <time>2022-09-17T08:46:08Z</time>
      </trkpt>
      <trkpt lat="42.64554" lon="1.69457">
        <ele>2062.129</ele>
        <time>2022-09-17T08:46:10Z</time>
      </trkpt>
      <trkpt lat="42.64555" lon="1.69457">
        <ele>2062.803</ele>
        <time>2022-09-17T08:46:12Z</time>
      </trkpt>
      <trkpt lat="42.64557" lon="1.69456">
        <ele>2061.889</ele>
        <time>2022-09-17T08:46:14Z</time>
      </trkpt>
      <trkpt lat="42.64558" lon="1.69456">
        <ele>2062.302</ele>
        <time>2022-09-17T08:46:16Z</time>
      </trkpt>
      <trkpt lat="42.64559" lon="1.69456">
        <ele>2061.966</ele>
        <time>2022-09-17T08:46:18Z</time>
      </trkpt>
      <trkpt lat="42.64561" lon="1.69456">
        <ele>2062.64</ele>
        <time>2022-09-17T08:46:20Z</time>
      </trkpt>
      <trkpt lat="42.64562" lon="1.69455">
        <ele>2062.458</ele>
        <time>2022-09-17T08:46:22Z</time>
      </trkpt>
      <trkpt lat="42.64564" lon="1.69455">
        <ele>2062.509</ele>
        <time>2022-09-17T08:46:24Z</time>
      </trkpt>
      <trkpt lat="42.64565" lon="1.69455">
        <ele>2062.365</ele>
        <time>2022-09-17T08:46:26Z</time>
      </trkpt>
      <trkpt lat="42.64567" lon="1.69454">
        <ele>2062.791</ele>
        <time>2022-09-17T08:46:28Z</time>
      </trkpt>
      <trkpt lat="42.64569" lon="1.69454">
        <ele>2062.639</ele>
        <time>2022-09-17T08:46:30Z</time>
      </trkpt>
      <trkpt lat="42.6457" lon="1.69455">
        <ele>2062.787</ele>
        <time>2022-09-17T08:46:32Z</time>
      </trkpt>
      <trkpt lat="42.64572" lon="1.69455">
        <ele>2063.941</ele>
        <time>2022-09-17T08:46:34Z</time>
      </trkpt>
      <trkpt lat="42.64574" lon="1.69455">
        <ele>2065.525</ele>
        <time>2022-09-17T08:46:36Z</time>
      </trkpt>
      <trkpt lat="42.64575" lon="1.69454">
        <ele>2065.081</ele>
        <time>2022-09-17T08:46:38Z</time>
      </trkpt>
      <trkpt lat="42.64577" lon="1.69453">
        <ele>2065.003</ele>
        <time>2022-09-17T08:46:40Z</time>
      </trkpt>
      <trkpt lat="42.64579" lon="1.69453">
        <ele>2065</ele>
        <time>2022-09-17T08:46:42Z</time>
      </trkpt>
      <trkpt lat="42.64581" lon="1.69453">
        <ele>2065.4</ele>
        <time>2022-09-17T08:46:44Z</time>
      </trkpt>
      <trkpt lat="42.64583" lon="1.69452">
        <ele>2066.024</ele>
        <time>2022-09-17T08:46:46Z</time>
      </trkpt>
      <trkpt lat="42.64584" lon="1.69451">
        <ele>2066.024</ele>
        <time>2022-09-17T08:46:48Z</time>
      </trkpt>
      <trkpt lat="42.64586" lon="1.69451">
        <ele>2065.113</ele>
        <time>2022-09-17T08:46:50Z</time>
      </trkpt>
      <trkpt lat="42.64586" lon="1.69451">
        <ele>2064.434</ele>
        <time>2022-09-17T08:46:52Z</time>
      </trkpt>
      <trkpt lat="42.64588" lon="1.6945">
        <ele>2064.684</ele>
        <time>2022-09-17T08:46:54Z</time>
      </trkpt>
      <trkpt lat="42.64589" lon="1.6945">
        <ele>2065.129</ele>
        <time>2022-09-17T08:46:56Z</time>
      </trkpt>
      <trkpt lat="42.6459" lon="1.69449">
        <ele>2065.583</ele>
        <time>2022-09-17T08:46:58Z</time>
      </trkpt>
      <trkpt lat="42.64592" lon="1.69449">
        <ele>2065.49</ele>
        <time>2022-09-17T08:47:00Z</time>
      </trkpt>
      <trkpt lat="42.64593" lon="1.69449">
        <ele>2065.431</ele>
        <time>2022-09-17T08:47:02Z</time>
      </trkpt>
      <trkpt lat="42.64594" lon="1.69448">
        <ele>2065.117</ele>
        <time>2022-09-17T08:47:04Z</time>
      </trkpt>
      <trkpt lat="42.64596" lon="1.69448">
        <ele>2065.344</ele>
        <time>2022-09-17T08:47:06Z</time>
      </trkpt>
      <trkpt lat="42.64596" lon="1.69448">
        <ele>2064.686</ele>
        <time>2022-09-17T08:47:08Z</time>
      </trkpt>
      <trkpt lat="42.64597" lon="1.69446">
        <ele>2064.49</ele>
        <time>2022-09-17T08:47:10Z</time>
      </trkpt>
      <trkpt lat="42.64599" lon="1.69447">
        <ele>2063.918</ele>
        <time>2022-09-17T08:47:12Z</time>
      </trkpt>
      <trkpt lat="42.646" lon="1.69446">
        <ele>2063.929</ele>
        <time>2022-09-17T08:47:14Z</time>
      </trkpt>
      <trkpt lat="42.64601" lon="1.69447">
        <ele>2064.225</ele>
        <time>2022-09-17T08:47:16Z</time>
      </trkpt>
      <trkpt lat="42.64602" lon="1.69447">
        <ele>2065.086</ele>
        <time>2022-09-17T08:47:18Z</time>
      </trkpt>
      <trkpt lat="42.64603" lon="1.69447">
        <ele>2065.3</ele>
        <time>2022-09-17T08:47:20Z</time>
      </trkpt>
      <trkpt lat="42.64605" lon="1.69446">
        <ele>2065.474</ele>
        <time>2022-09-17T08:47:22Z</time>
      </trkpt>
      <trkpt lat="42.64606" lon="1.69446">
        <ele>2066.175</ele>
        <time>2022-09-17T08:47:24Z</time>
      </trkpt>
      <trkpt lat="42.64607" lon="1.69446">
        <ele>2066.47</ele>
        <time>2022-09-17T08:47:26Z</time>
      </trkpt>
      <trkpt lat="42.64608" lon="1.69446">
        <ele>2066.841</ele>
        <time>2022-09-17T08:47:28Z</time>
      </trkpt>
      <trkpt lat="42.64609" lon="1.69445">
        <ele>2067.287</ele>
        <time>2022-09-17T08:47:30Z</time>
      </trkpt>
      <trkpt lat="42.64609" lon="1.69445">
        <ele>2067.588</ele>
        <time>2022-09-17T08:47:32Z</time>
      </trkpt>
      <trkpt lat="42.6461" lon="1.69444">
        <ele>2068.168</ele>
        <time>2022-09-17T08:47:34Z</time>
      </trkpt>
      <trkpt lat="42.64611" lon="1.69444">
        <ele>2068.987</ele>
        <time>2022-09-17T08:47:36Z</time>
      </trkpt>
      <trkpt lat="42.64612" lon="1.69443">
        <ele>2068.903</ele>
        <time>2022-09-17T08:47:38Z</time>
      </trkpt>
      <trkpt lat="42.64613" lon="1.69443">
        <ele>2069.444</ele>
        <time>2022-09-17T08:47:40Z</time>
      </trkpt>
      <trkpt lat="42.64613" lon="1.69441">
        <ele>2069.957</ele>
        <time>2022-09-17T08:47:42Z</time>
      </trkpt>
      <trkpt lat="42.64614" lon="1.69441">
        <ele>2069.986</ele>
        <time>2022-09-17T08:47:44Z</time>
      </trkpt>
      <trkpt lat="42.64615" lon="1.69441">
        <ele>2070.182</ele>
        <time>2022-09-17T08:47:46Z</time>
      </trkpt>
      <trkpt lat="42.64616" lon="1.69441">
        <ele>2069.756</ele>
        <time>2022-09-17T08:47:48Z</time>
      </trkpt>
      <trkpt lat="42.64617" lon="1.69441">
        <ele>2069.741</ele>
        <time>2022-09-17T08:47:50Z</time>
      </trkpt>
      <trkpt lat="42.64618" lon="1.6944">
        <ele>2070.44</ele>
        <time>2022-09-17T08:47:52Z</time>
      </trkpt>
      <trkpt lat="42.64619" lon="1.6944">
        <ele>2070.26</ele>
        <time>2022-09-17T08:47:54Z</time>
      </trkpt>
      <trkpt lat="42.6462" lon="1.69439">
        <ele>2069.915</ele>
        <time>2022-09-17T08:47:56Z</time>
      </trkpt>
      <trkpt lat="42.64622" lon="1.69439">
        <ele>2069.641</ele>
        <time>2022-09-17T08:47:58Z</time>
      </trkpt>
      <trkpt lat="42.64623" lon="1.69439">
        <ele>2069.855</ele>
        <time>2022-09-17T08:48:00Z</time>
      </trkpt>
      <trkpt lat="42.64624" lon="1.69439">
        <ele>2069.551</ele>
        <time>2022-09-17T08:48:02Z</time>
      </trkpt>
      <trkpt lat="42.64625" lon="1.69438">
        <ele>2069.568</ele>
        <time>2022-09-17T08:48:04Z</time>
      </trkpt>
      <trkpt lat="42.64627" lon="1.69437">
        <ele>2069.477</ele>
        <time>2022-09-17T08:48:06Z</time>
      </trkpt>
      <trkpt lat="42.64628" lon="1.69435">
        <ele>2069.956</ele>
        <time>2022-09-17T08:48:08Z</time>
      </trkpt>
      <trkpt lat="42.6463" lon="1.69434">
        <ele>2070.902</ele>
        <time>2022-09-17T08:48:10Z</time>
      </trkpt>
      <trkpt lat="42.64631" lon="1.69432">
        <ele>2071.059</ele>
        <time>2022-09-17T08:48:12Z</time>
      </trkpt>
      <trkpt lat="42.64633" lon="1.69431">
        <ele>2071.874</ele>
        <time>2022-09-17T08:48:14Z</time>
      </trkpt>
      <trkpt lat="42.64636" lon="1.69431">
        <ele>2073.006</ele>
        <time>2022-09-17T08:48:16Z</time>
      </trkpt>
      <trkpt lat="42.64638" lon="1.6943">
        <ele>2073.532</ele>
        <time>2022-09-17T08:48:18Z</time>
      </trkpt>
      <trkpt lat="42.6464" lon="1.69429">
        <ele>2074.332</ele>
        <time>2022-09-17T08:48:20Z</time>
      </trkpt>
      <trkpt lat="42.64641" lon="1.69428">
        <ele>2074.557</ele>
        <time>2022-09-17T08:48:22Z</time>
      </trkpt>
      <trkpt lat="42.64643" lon="1.69427">
        <ele>2075.578</ele>
        <time>2022-09-17T08:48:24Z</time>
      </trkpt>
      <trkpt lat="42.64644" lon="1.69426">
        <ele>2075.757</ele>
        <time>2022-09-17T08:48:26Z</time>
      </trkpt>
      <trkpt lat="42.64645" lon="1.69426">
        <ele>2076.005</ele>
        <time>2022-09-17T08:48:28Z</time>
      </trkpt>
      <trkpt lat="42.64646" lon="1.69425">
        <ele>2077.155</ele>
        <time>2022-09-17T08:48:30Z</time>
      </trkpt>
      <trkpt lat="42.64647" lon="1.69425">
        <ele>2077.031</ele>
        <time>2022-09-17T08:48:32Z</time>
      </trkpt>
      <trkpt lat="42.64648" lon="1.69423">
        <ele>2076.547</ele>
        <time>2022-09-17T08:48:34Z</time>
      </trkpt>
      <trkpt lat="42.64649" lon="1.69422">
        <ele>2076.397</ele>
        <time>2022-09-17T08:48:36Z</time>
      </trkpt>
      <trkpt lat="42.6465" lon="1.69421">
        <ele>2076.845</ele>
        <time>2022-09-17T08:48:38Z</time>
      </trkpt>
      <trkpt lat="42.64652" lon="1.6942">
        <ele>2076.76</ele>
        <time>2022-09-17T08:48:40Z</time>
      </trkpt>
      <trkpt lat="42.64654" lon="1.69419">
        <ele>2076.995</ele>
        <time>2022-09-17T08:48:42Z</time>
      </trkpt>
      <trkpt lat="42.64656" lon="1.69419">
        <ele>2077.334</ele>
        <time>2022-09-17T08:48:44Z</time>
      </trkpt>
      <trkpt lat="42.64657" lon="1.69419">
        <ele>2078.184</ele>
        <time>2022-09-17T08:48:46Z</time>
      </trkpt>
      <trkpt lat="42.64659" lon="1.69419">
        <ele>2077.383</ele>
        <time>2022-09-17T08:48:48Z</time>
      </trkpt>
      <trkpt lat="42.6466" lon="1.69418">
        <ele>2077.612</ele>
        <time>2022-09-17T08:48:50Z</time>
      </trkpt>
      <trkpt lat="42.64661" lon="1.69417">
        <ele>2077.368</ele>
        <time>2022-09-17T08:48:52Z</time>
      </trkpt>
      <trkpt lat="42.64663" lon="1.69417">
        <ele>2076.641</ele>
        <time>2022-09-17T08:48:54Z</time>
      </trkpt>
      <trkpt lat="42.64664" lon="1.69416">
        <ele>2076.627</ele>
        <time>2022-09-17T08:48:56Z</time>
      </trkpt>
      <trkpt lat="42.64665" lon="1.69416">
        <ele>2076.019</ele>
        <time>2022-09-17T08:48:58Z</time>
      </trkpt>
      <trkpt lat="42.64666" lon="1.69415">
        <ele>2075.997</ele>
        <time>2022-09-17T08:49:00Z</time>
      </trkpt>
      <trkpt lat="42.64667" lon="1.69413">
        <ele>2073.965</ele>
        <time>2022-09-17T08:49:02Z</time>
      </trkpt>
      <trkpt lat="42.64668" lon="1.69412">
        <ele>2073.398</ele>
        <time>2022-09-17T08:49:04Z</time>
      </trkpt>
      <trkpt lat="42.6467" lon="1.69412">
        <ele>2074.175</ele>
        <time>2022-09-17T08:49:06Z</time>
      </trkpt>
      <trkpt lat="42.64671" lon="1.69411">
        <ele>2074.154</ele>
        <time>2022-09-17T08:49:08Z</time>
      </trkpt>
      <trkpt lat="42.64673" lon="1.69409">
        <ele>2074.573</ele>
        <time>2022-09-17T08:49:10Z</time>
      </trkpt>
      <trkpt lat="42.64674" lon="1.69408">
        <ele>2075.28</ele>
        <time>2022-09-17T08:49:12Z</time>
      </trkpt>
      <trkpt lat="42.64676" lon="1.69408">
        <ele>2075.757</ele>
        <time>2022-09-17T08:49:14Z</time>
      </trkpt>
      <trkpt lat="42.64677" lon="1.69407">
        <ele>2075.292</ele>
        <time>2022-09-17T08:49:16Z</time>
      </trkpt>
      <trkpt lat="42.64678" lon="1.69406">
        <ele>2074.851</ele>
        <time>2022-09-17T08:49:18Z</time>
      </trkpt>
      <trkpt lat="42.64679" lon="1.69405">
        <ele>2074.744</ele>
        <time>2022-09-17T08:49:20Z</time>
      </trkpt>
      <trkpt lat="42.64681" lon="1.69405">
        <ele>2074.447</ele>
        <time>2022-09-17T08:49:22Z</time>
      </trkpt>
      <trkpt lat="42.64682" lon="1.69404">
        <ele>2074.108</ele>
        <time>2022-09-17T08:49:24Z</time>
      </trkpt>
      <trkpt lat="42.64684" lon="1.69402">
        <ele>2074.121</ele>
        <time>2022-09-17T08:49:26Z</time>
      </trkpt>
      <trkpt lat="42.64686" lon="1.69401">
        <ele>2073.687</ele>
        <time>2022-09-17T08:49:28Z</time>
      </trkpt>
      <trkpt lat="42.64687" lon="1.69401">
        <ele>2073.833</ele>
        <time>2022-09-17T08:49:30Z</time>
      </trkpt>
      <trkpt lat="42.64689" lon="1.69399">
        <ele>2073.118</ele>
        <time>2022-09-17T08:49:32Z</time>
      </trkpt>
      <trkpt lat="42.6469" lon="1.69397">
        <ele>2073.336</ele>
        <time>2022-09-17T08:49:34Z</time>
      </trkpt>
      <trkpt lat="42.64691" lon="1.69394">
        <ele>2072.705</ele>
        <time>2022-09-17T08:49:36Z</time>
      </trkpt>
      <trkpt lat="42.64692" lon="1.69393">
        <ele>2072.154</ele>
        <time>2022-09-17T08:49:38Z</time>
      </trkpt>
      <trkpt lat="42.64692" lon="1.69393">
        <ele>2071.675</ele>
        <time>2022-09-17T08:49:40Z</time>
      </trkpt>
      <trkpt lat="42.64692" lon="1.69393">
        <ele>2071.678</ele>
        <time>2022-09-17T08:49:42Z</time>
      </trkpt>
      <trkpt lat="42.64692" lon="1.69393">
        <ele>2071.678</ele>
        <time>2022-09-17T08:49:44Z</time>
      </trkpt>
      <trkpt lat="42.64692" lon="1.69392">
        <ele>2071.51</ele>
        <time>2022-09-17T08:49:46Z</time>
      </trkpt>
      <trkpt lat="42.64693" lon="1.69391">
        <ele>2070.541</ele>
        <time>2022-09-17T08:49:48Z</time>
      </trkpt>
      <trkpt lat="42.64694" lon="1.6939">
        <ele>2069.726</ele>
        <time>2022-09-17T08:49:50Z</time>
      </trkpt>
      <trkpt lat="42.64695" lon="1.69389">
        <ele>2069.486</ele>
        <time>2022-09-17T08:49:52Z</time>
      </trkpt>
      <trkpt lat="42.64696" lon="1.69389">
        <ele>2068.979</ele>
        <time>2022-09-17T08:49:54Z</time>
      </trkpt>
      <trkpt lat="42.64697" lon="1.69387">
        <ele>2067.944</ele>
        <time>2022-09-17T08:49:56Z</time>
      </trkpt>
      <trkpt lat="42.64698" lon="1.69386">
        <ele>2066.764</ele>
        <time>2022-09-17T08:49:58Z</time>
      </trkpt>
      <trkpt lat="42.64699" lon="1.69385">
        <ele>2066.036</ele>
        <time>2022-09-17T08:50:00Z</time>
      </trkpt>
      <trkpt lat="42.647" lon="1.69384">
        <ele>2064.686</ele>
        <time>2022-09-17T08:50:02Z</time>
      </trkpt>
      <trkpt lat="42.64702" lon="1.69383">
        <ele>2064.9</ele>
        <time>2022-09-17T08:50:04Z</time>
      </trkpt>
      <trkpt lat="42.64703" lon="1.69381">
        <ele>2064.23</ele>
        <time>2022-09-17T08:50:06Z</time>
      </trkpt>
      <trkpt lat="42.64704" lon="1.69379">
        <ele>2064.443</ele>
        <time>2022-09-17T08:50:08Z</time>
      </trkpt>
      <trkpt lat="42.64705" lon="1.69377">
        <ele>2064.539</ele>
        <time>2022-09-17T08:50:10Z</time>
      </trkpt>
      <trkpt lat="42.64707" lon="1.69376">
        <ele>2064.137</ele>
        <time>2022-09-17T08:50:12Z</time>
      </trkpt>
      <trkpt lat="42.64708" lon="1.69375">
        <ele>2063.48</ele>
        <time>2022-09-17T08:50:14Z</time>
      </trkpt>
      <trkpt lat="42.64709" lon="1.69374">
        <ele>2063.273</ele>
        <time>2022-09-17T08:50:16Z</time>
      </trkpt>
      <trkpt lat="42.64711" lon="1.69373">
        <ele>2062.822</ele>
        <time>2022-09-17T08:50:18Z</time>
      </trkpt>
      <trkpt lat="42.64712" lon="1.69371">
        <ele>2062.73</ele>
        <time>2022-09-17T08:50:20Z</time>
      </trkpt>
      <trkpt lat="42.64714" lon="1.6937">
        <ele>2062.178</ele>
        <time>2022-09-17T08:50:22Z</time>
      </trkpt>
      <trkpt lat="42.64715" lon="1.69368">
        <ele>2062.566</ele>
        <time>2022-09-17T08:50:24Z</time>
      </trkpt>
      <trkpt lat="42.64717" lon="1.69367">
        <ele>2062.387</ele>
        <time>2022-09-17T08:50:26Z</time>
      </trkpt>
      <trkpt lat="42.64719" lon="1.69367">
        <ele>2063.174</ele>
        <time>2022-09-17T08:50:28Z</time>
      </trkpt>
      <trkpt lat="42.64721" lon="1.69365">
        <ele>2062.739</ele>
        <time>2022-09-17T08:50:30Z</time>
      </trkpt>
      <trkpt lat="42.64722" lon="1.69364">
        <ele>2063.03</ele>
        <time>2022-09-17T08:50:32Z</time>
      </trkpt>
      <trkpt lat="42.64724" lon="1.69362">
        <ele>2062.714</ele>
        <time>2022-09-17T08:50:34Z</time>
      </trkpt>
      <trkpt lat="42.64726" lon="1.69361">
        <ele>2062.5</ele>
        <time>2022-09-17T08:50:36Z</time>
      </trkpt>
      <trkpt lat="42.64727" lon="1.6936">
        <ele>2062.31</ele>
        <time>2022-09-17T08:50:38Z</time>
      </trkpt>
      <trkpt lat="42.64729" lon="1.69358">
        <ele>2063.328</ele>
        <time>2022-09-17T08:50:40Z</time>
      </trkpt>
      <trkpt lat="42.64731" lon="1.69357">
        <ele>2063.176</ele>
        <time>2022-09-17T08:50:42Z</time>
      </trkpt>
      <trkpt lat="42.64733" lon="1.69357">
        <ele>2062.498</ele>
        <time>2022-09-17T08:50:44Z</time>
      </trkpt>
      <trkpt lat="42.64734" lon="1.69356">
        <ele>2061.667</ele>
        <time>2022-09-17T08:50:46Z</time>
      </trkpt>
      <trkpt lat="42.64735" lon="1.69354">
        <ele>2062.133</ele>
        <time>2022-09-17T08:50:48Z</time>
      </trkpt>
      <trkpt lat="42.64737" lon="1.69353">
        <ele>2061.963</ele>
        <time>2022-09-17T08:50:50Z</time>
      </trkpt>
      <trkpt lat="42.64738" lon="1.69352">
        <ele>2062.077</ele>
        <time>2022-09-17T08:50:52Z</time>
      </trkpt>
      <trkpt lat="42.6474" lon="1.6935">
        <ele>2061.746</ele>
        <time>2022-09-17T08:50:54Z</time>
      </trkpt>
      <trkpt lat="42.6474" lon="1.69348">
        <ele>2062.268</ele>
        <time>2022-09-17T08:50:56Z</time>
      </trkpt>
      <trkpt lat="42.64742" lon="1.69346">
        <ele>2062.099</ele>
        <time>2022-09-17T08:50:58Z</time>
      </trkpt>
      <trkpt lat="42.64742" lon="1.69344">
        <ele>2062.241</ele>
        <time>2022-09-17T08:51:00Z</time>
      </trkpt>
      <trkpt lat="42.64743" lon="1.69342">
        <ele>2061.475</ele>
        <time>2022-09-17T08:51:02Z</time>
      </trkpt>
      <trkpt lat="42.64744" lon="1.6934">
        <ele>2061.246</ele>
        <time>2022-09-17T08:51:04Z</time>
      </trkpt>
      <trkpt lat="42.64745" lon="1.69339">
        <ele>2061.243</ele>
        <time>2022-09-17T08:51:06Z</time>
      </trkpt>
      <trkpt lat="42.64746" lon="1.69337">
        <ele>2061.349</ele>
        <time>2022-09-17T08:51:08Z</time>
      </trkpt>
      <trkpt lat="42.64747" lon="1.69336">
        <ele>2060.664</ele>
        <time>2022-09-17T08:51:10Z</time>
      </trkpt>
      <trkpt lat="42.64748" lon="1.69334">
        <ele>2060.079</ele>
        <time>2022-09-17T08:51:12Z</time>
      </trkpt>
      <trkpt lat="42.64749" lon="1.69333">
        <ele>2059.334</ele>
        <time>2022-09-17T08:51:14Z</time>
      </trkpt>
      <trkpt lat="42.64751" lon="1.69334">
        <ele>2059.592</ele>
        <time>2022-09-17T08:51:16Z</time>
      </trkpt>
      <trkpt lat="42.64752" lon="1.69334">
        <ele>2060.291</ele>
        <time>2022-09-17T08:51:18Z</time>
      </trkpt>
      <trkpt lat="42.64753" lon="1.69335">
        <ele>2060.655</ele>
        <time>2022-09-17T08:51:20Z</time>
      </trkpt>
      <trkpt lat="42.64754" lon="1.69333">
        <ele>2060.309</ele>
        <time>2022-09-17T08:51:22Z</time>
      </trkpt>
      <trkpt lat="42.64755" lon="1.69333">
        <ele>2060.733</ele>
        <time>2022-09-17T08:51:24Z</time>
      </trkpt>
      <trkpt lat="42.64756" lon="1.69334">
        <ele>2060.324</ele>
        <time>2022-09-17T08:51:26Z</time>
      </trkpt>
      <trkpt lat="42.64757" lon="1.69334">
        <ele>2060.131</ele>
        <time>2022-09-17T08:51:28Z</time>
      </trkpt>
      <trkpt lat="42.64759" lon="1.69334">
        <ele>2059.692</ele>
        <time>2022-09-17T08:51:30Z</time>
      </trkpt>
      <trkpt lat="42.64759" lon="1.69333">
        <ele>2059.238</ele>
        <time>2022-09-17T08:51:32Z</time>
      </trkpt>
      <trkpt lat="42.6476" lon="1.69333">
        <ele>2059.218</ele>
        <time>2022-09-17T08:51:34Z</time>
      </trkpt>
      <trkpt lat="42.64762" lon="1.69333">
        <ele>2058.492</ele>
        <time>2022-09-17T08:51:36Z</time>
      </trkpt>
      <trkpt lat="42.64763" lon="1.69333">
        <ele>2057.747</ele>
        <time>2022-09-17T08:51:38Z</time>
      </trkpt>
      <trkpt lat="42.64765" lon="1.69333">
        <ele>2057.221</ele>
        <time>2022-09-17T08:51:40Z</time>
      </trkpt>
      <trkpt lat="42.64766" lon="1.69333">
        <ele>2056.253</ele>
        <time>2022-09-17T08:51:42Z</time>
      </trkpt>
      <trkpt lat="42.64768" lon="1.69333">
        <ele>2055.799</ele>
        <time>2022-09-17T08:51:44Z</time>
      </trkpt>
      <trkpt lat="42.6477" lon="1.69333">
        <ele>2055.28</ele>
        <time>2022-09-17T08:51:46Z</time>
      </trkpt>
      <trkpt lat="42.64772" lon="1.69333">
        <ele>2054.83</ele>
        <time>2022-09-17T08:51:48Z</time>
      </trkpt>
      <trkpt lat="42.64774" lon="1.69332">
        <ele>2055.287</ele>
        <time>2022-09-17T08:51:50Z</time>
      </trkpt>
      <trkpt lat="42.64776" lon="1.69332">
        <ele>2056.476</ele>
        <time>2022-09-17T08:51:52Z</time>
      </trkpt>
      <trkpt lat="42.64777" lon="1.69331">
        <ele>2056.855</ele>
        <time>2022-09-17T08:51:54Z</time>
      </trkpt>
      <trkpt lat="42.64779" lon="1.6933">
        <ele>2057.111</ele>
        <time>2022-09-17T08:51:56Z</time>
      </trkpt>
      <trkpt lat="42.64781" lon="1.6933">
        <ele>2056.062</ele>
        <time>2022-09-17T08:51:58Z</time>
      </trkpt>
      <trkpt lat="42.64783" lon="1.69329">
        <ele>2056.208</ele>
        <time>2022-09-17T08:52:00Z</time>
      </trkpt>
      <trkpt lat="42.64785" lon="1.69329">
        <ele>2057.227</ele>
        <time>2022-09-17T08:52:02Z</time>
      </trkpt>
      <trkpt lat="42.64788" lon="1.69329">
        <ele>2058.431</ele>
        <time>2022-09-17T08:52:04Z</time>
      </trkpt>
      <trkpt lat="42.6479" lon="1.69329">
        <ele>2059.569</ele>
        <time>2022-09-17T08:52:06Z</time>
      </trkpt>
      <trkpt lat="42.64793" lon="1.69328">
        <ele>2060.25</ele>
        <time>2022-09-17T08:52:08Z</time>
      </trkpt>
      <trkpt lat="42.64795" lon="1.69328">
        <ele>2061.201</ele>
        <time>2022-09-17T08:52:10Z</time>
      </trkpt>
      <trkpt lat="42.64798" lon="1.69328">
        <ele>2062.5</ele>
        <time>2022-09-17T08:52:12Z</time>
      </trkpt>
      <trkpt lat="42.648" lon="1.69327">
        <ele>2062.855</ele>
        <time>2022-09-17T08:52:14Z</time>
      </trkpt>
      <trkpt lat="42.648" lon="1.69327">
        <ele>2062.332</ele>
        <time>2022-09-17T08:52:16Z</time>
      </trkpt>
      <trkpt lat="42.64801" lon="1.69328">
        <ele>2062.329</ele>
        <time>2022-09-17T08:52:18Z</time>
      </trkpt>
      <trkpt lat="42.64803" lon="1.69328">
        <ele>2062.387</ele>
        <time>2022-09-17T08:52:20Z</time>
      </trkpt>
      <trkpt lat="42.64804" lon="1.69328">
        <ele>2062.735</ele>
        <time>2022-09-17T08:52:22Z</time>
      </trkpt>
      <trkpt lat="42.64805" lon="1.69327">
        <ele>2062.628</ele>
        <time>2022-09-17T08:52:24Z</time>
      </trkpt>
      <trkpt lat="42.64806" lon="1.69326">
        <ele>2062.063</ele>
        <time>2022-09-17T08:52:26Z</time>
      </trkpt>
      <trkpt lat="42.64807" lon="1.69325">
        <ele>2062.079</ele>
        <time>2022-09-17T08:52:28Z</time>
      </trkpt>
      <trkpt lat="42.64808" lon="1.69324">
        <ele>2060.533</ele>
        <time>2022-09-17T08:52:30Z</time>
      </trkpt>
      <trkpt lat="42.64809" lon="1.69324">
        <ele>2059.849</ele>
        <time>2022-09-17T08:52:32Z</time>
      </trkpt>
      <trkpt lat="42.6481" lon="1.69324">
        <ele>2060.466</ele>
        <time>2022-09-17T08:52:34Z</time>
      </trkpt>
      <trkpt lat="42.64811" lon="1.69324">
        <ele>2060.159</ele>
        <time>2022-09-17T08:52:36Z</time>
      </trkpt>
      <trkpt lat="42.64812" lon="1.69325">
        <ele>2060.918</ele>
        <time>2022-09-17T08:52:38Z</time>
      </trkpt>
      <trkpt lat="42.64813" lon="1.69325">
        <ele>2061.393</ele>
        <time>2022-09-17T08:52:40Z</time>
      </trkpt>
      <trkpt lat="42.64814" lon="1.69324">
        <ele>2061.354</ele>
        <time>2022-09-17T08:52:42Z</time>
      </trkpt>
      <trkpt lat="42.64814" lon="1.69324">
        <ele>2061.65</ele>
        <time>2022-09-17T08:52:44Z</time>
      </trkpt>
      <trkpt lat="42.64815" lon="1.69324">
        <ele>2061.294</ele>
        <time>2022-09-17T08:52:46Z</time>
      </trkpt>
      <trkpt lat="42.64815" lon="1.69324">
        <ele>2061.227</ele>
        <time>2022-09-17T08:52:48Z</time>
      </trkpt>
      <trkpt lat="42.64816" lon="1.69325">
        <ele>2061.641</ele>
        <time>2022-09-17T08:52:50Z</time>
      </trkpt>
      <trkpt lat="42.64817" lon="1.69326">
        <ele>2060.76</ele>
        <time>2022-09-17T08:52:52Z</time>
      </trkpt>
      <trkpt lat="42.64818" lon="1.69326">
        <ele>2060.349</ele>
        <time>2022-09-17T08:52:54Z</time>
      </trkpt>
      <trkpt lat="42.64819" lon="1.69326">
        <ele>2060.106</ele>
        <time>2022-09-17T08:52:56Z</time>
      </trkpt>
      <trkpt lat="42.64819" lon="1.69327">
        <ele>2060.432</ele>
        <time>2022-09-17T08:52:58Z</time>
      </trkpt>
      <trkpt lat="42.64819" lon="1.69327">
        <ele>2060.743</ele>
        <time>2022-09-17T08:53:00Z</time>
      </trkpt>
      <trkpt lat="42.6482" lon="1.69327">
        <ele>2061.115</ele>
        <time>2022-09-17T08:53:02Z</time>
      </trkpt>
      <trkpt lat="42.64821" lon="1.69328">
        <ele>2061.627</ele>
        <time>2022-09-17T08:53:04Z</time>
      </trkpt>
      <trkpt lat="42.64822" lon="1.69329">
        <ele>2061.527</ele>
        <time>2022-09-17T08:53:06Z</time>
      </trkpt>
      <trkpt lat="42.64823" lon="1.69331">
        <ele>2061.611</ele>
        <time>2022-09-17T08:53:08Z</time>
      </trkpt>
      <trkpt lat="42.64823" lon="1.69332">
        <ele>2060.782</ele>
        <time>2022-09-17T08:53:10Z</time>
      </trkpt>
      <trkpt lat="42.64823" lon="1.69333">
        <ele>2060.586</ele>
        <time>2022-09-17T08:53:12Z</time>
      </trkpt>
      <trkpt lat="42.64824" lon="1.69334">
        <ele>2060.37</ele>
        <time>2022-09-17T08:53:14Z</time>
      </trkpt>
      <trkpt lat="42.64825" lon="1.69335">
        <ele>2060.657</ele>
        <time>2022-09-17T08:53:16Z</time>
      </trkpt>
      <trkpt lat="42.64826" lon="1.69335">
        <ele>2060.173</ele>
        <time>2022-09-17T08:53:18Z</time>
      </trkpt>
      <trkpt lat="42.64827" lon="1.69334">
        <ele>2060.497</ele>
        <time>2022-09-17T08:53:20Z</time>
      </trkpt>
      <trkpt lat="42.64828" lon="1.69334">
        <ele>2060.086</ele>
        <time>2022-09-17T08:53:22Z</time>
      </trkpt>
      <trkpt lat="42.64829" lon="1.69334">
        <ele>2059.336</ele>
        <time>2022-09-17T08:53:24Z</time>
      </trkpt>
      <trkpt lat="42.64829" lon="1.69334">
        <ele>2059.285</ele>
        <time>2022-09-17T08:53:26Z</time>
      </trkpt>
      <trkpt lat="42.6483" lon="1.69334">
        <ele>2059.535</ele>
        <time>2022-09-17T08:53:28Z</time>
      </trkpt>
      <trkpt lat="42.6483" lon="1.69335">
        <ele>2060.181</ele>
        <time>2022-09-17T08:53:30Z</time>
      </trkpt>
      <trkpt lat="42.64831" lon="1.69336">
        <ele>2060.111</ele>
        <time>2022-09-17T08:53:32Z</time>
      </trkpt>
      <trkpt lat="42.64832" lon="1.69336">
        <ele>2059.019</ele>
        <time>2022-09-17T08:53:34Z</time>
      </trkpt>
      <trkpt lat="42.64833" lon="1.69336">
        <ele>2057.638</ele>
        <time>2022-09-17T08:53:36Z</time>
      </trkpt>
      <trkpt lat="42.64834" lon="1.69334">
        <ele>2056.822</ele>
        <time>2022-09-17T08:53:38Z</time>
      </trkpt>
      <trkpt lat="42.64835" lon="1.69334">
        <ele>2056.675</ele>
        <time>2022-09-17T08:53:40Z</time>
      </trkpt>
      <trkpt lat="42.64837" lon="1.69334">
        <ele>2056.331</ele>
        <time>2022-09-17T08:53:42Z</time>
      </trkpt>
      <trkpt lat="42.64838" lon="1.69333">
        <ele>2056.3</ele>
        <time>2022-09-17T08:53:44Z</time>
      </trkpt>
      <trkpt lat="42.6484" lon="1.69332">
        <ele>2056.213</ele>
        <time>2022-09-17T08:53:46Z</time>
      </trkpt>
      <trkpt lat="42.64841" lon="1.69331">
        <ele>2056.508</ele>
        <time>2022-09-17T08:53:48Z</time>
      </trkpt>
      <trkpt lat="42.64841" lon="1.6933">
        <ele>2056.672</ele>
        <time>2022-09-17T08:53:50Z</time>
      </trkpt>
      <trkpt lat="42.64841" lon="1.69329">
        <ele>2056.712</ele>
        <time>2022-09-17T08:53:52Z</time>
      </trkpt>
      <trkpt lat="42.64841" lon="1.69329">
        <ele>2056.689</ele>
        <time>2022-09-17T08:53:54Z</time>
      </trkpt>
      <trkpt lat="42.64841" lon="1.69329">
        <ele>2056.675</ele>
        <time>2022-09-17T08:53:56Z</time>
      </trkpt>
      <trkpt lat="42.64841" lon="1.69329">
        <ele>2056.66</ele>
        <time>2022-09-17T08:53:58Z</time>
      </trkpt>
      <trkpt lat="42.64841" lon="1.69329">
        <ele>2056.657</ele>
        <time>2022-09-17T08:54:00Z</time>
      </trkpt>
      <trkpt lat="42.64841" lon="1.69329">
        <ele>2056.651</ele>
        <time>2022-09-17T08:54:02Z</time>
      </trkpt>
      <trkpt lat="42.64841" lon="1.69329">
        <ele>2056.671</ele>
        <time>2022-09-17T08:54:04Z</time>
      </trkpt>
      <trkpt lat="42.64841" lon="1.69329">
        <ele>2057.04</ele>
        <time>2022-09-17T08:54:06Z</time>
      </trkpt>
      <trkpt lat="42.64841" lon="1.6933">
        <ele>2057.058</ele>
        <time>2022-09-17T08:54:08Z</time>
      </trkpt>
      <trkpt lat="42.64841" lon="1.6933">
        <ele>2057.069</ele>
        <time>2022-09-17T08:54:10Z</time>
      </trkpt>
      <trkpt lat="42.64841" lon="1.6933">
        <ele>2057.09</ele>
        <time>2022-09-17T08:54:12Z</time>
      </trkpt>
      <trkpt lat="42.64841" lon="1.6933">
        <ele>2057.089</ele>
        <time>2022-09-17T08:54:14Z</time>
      </trkpt>
      <trkpt lat="42.64841" lon="1.6933">
        <ele>2057.088</ele>
        <time>2022-09-17T08:54:16Z</time>
      </trkpt>
      <trkpt lat="42.64841" lon="1.6933">
        <ele>2057.098</ele>
        <time>2022-09-17T08:54:18Z</time>
      </trkpt>
      <trkpt lat="42.64841" lon="1.6933">
        <ele>2057.098</ele>
        <time>2022-09-17T08:54:20Z</time>
      </trkpt>
      <trkpt lat="42.64841" lon="1.6933">
        <ele>2057.09</ele>
        <time>2022-09-17T08:54:22Z</time>
      </trkpt>
      <trkpt lat="42.64841" lon="1.6933">
        <ele>2057.089</ele>
        <time>2022-09-17T08:54:24Z</time>
      </trkpt>
      <trkpt lat="42.64841" lon="1.6933">
        <ele>2057.088</ele>
        <time>2022-09-17T08:54:26Z</time>
      </trkpt>
      <trkpt lat="42.64841" lon="1.6933">
        <ele>2057.107</ele>
        <time>2022-09-17T08:54:28Z</time>
      </trkpt>
      <trkpt lat="42.64841" lon="1.6933">
        <ele>2057.105</ele>
        <time>2022-09-17T08:54:30Z</time>
      </trkpt>
      <trkpt lat="42.64841" lon="1.6933">
        <ele>2056.991</ele>
        <time>2022-09-17T08:54:32Z</time>
      </trkpt>
      <trkpt lat="42.64842" lon="1.6933">
        <ele>2057.447</ele>
        <time>2022-09-17T08:54:34Z</time>
      </trkpt>
      <trkpt lat="42.64843" lon="1.69328">
        <ele>2056.949</ele>
        <time>2022-09-17T08:54:36Z</time>
      </trkpt>
      <trkpt lat="42.64844" lon="1.69323">
        <ele>2056.381</ele>
        <time>2022-09-17T08:54:38Z</time>
      </trkpt>
      <trkpt lat="42.64845" lon="1.6932">
        <ele>2057.179</ele>
        <time>2022-09-17T08:54:40Z</time>
      </trkpt>
      <trkpt lat="42.64844" lon="1.6932">
        <ele>2057.288</ele>
        <time>2022-09-17T08:54:42Z</time>
      </trkpt>
      <trkpt lat="42.64844" lon="1.69321">
        <ele>2057.297</ele>
        <time>2022-09-17T08:54:44Z</time>
      </trkpt>
      <trkpt lat="42.64844" lon="1.69321">
        <ele>2057.31</ele>
        <time>2022-09-17T08:54:46Z</time>
      </trkpt>
      <trkpt lat="42.64844" lon="1.69321">
        <ele>2057.305</ele>
        <time>2022-09-17T08:54:48Z</time>
      </trkpt>
      <trkpt lat="42.64844" lon="1.69321">
        <ele>2057.261</ele>
        <time>2022-09-17T08:54:50Z</time>
      </trkpt>
      <trkpt lat="42.64844" lon="1.69321">
        <ele>2057.257</ele>
        <time>2022-09-17T08:54:52Z</time>
      </trkpt>
      <trkpt lat="42.64844" lon="1.6932">
        <ele>2057.477</ele>
        <time>2022-09-17T08:54:54Z</time>
      </trkpt>
      <trkpt lat="42.64844" lon="1.6932">
        <ele>2057.58</ele>
        <time>2022-09-17T08:54:56Z</time>
      </trkpt>
      <trkpt lat="42.64844" lon="1.6932">
        <ele>2057.568</ele>
        <time>2022-09-17T08:54:58Z</time>
      </trkpt>
      <trkpt lat="42.64844" lon="1.6932">
        <ele>2057.559</ele>
        <time>2022-09-17T08:55:00Z</time>
      </trkpt>
      <trkpt lat="42.64844" lon="1.6932">
        <ele>2057.558</ele>
        <time>2022-09-17T08:55:02Z</time>
      </trkpt>
      <trkpt lat="42.64844" lon="1.69321">
        <ele>2057.643</ele>
        <time>2022-09-17T08:55:04Z</time>
      </trkpt>
      <trkpt lat="42.64845" lon="1.69321">
        <ele>2058.023</ele>
        <time>2022-09-17T08:55:06Z</time>
      </trkpt>
      <trkpt lat="42.64845" lon="1.69321">
        <ele>2058.017</ele>
        <time>2022-09-17T08:55:08Z</time>
      </trkpt>
      <trkpt lat="42.64845" lon="1.69321">
        <ele>2058.011</ele>
        <time>2022-09-17T08:55:10Z</time>
      </trkpt>
      <trkpt lat="42.64845" lon="1.69321">
        <ele>2058.012</ele>
        <time>2022-09-17T08:55:12Z</time>
      </trkpt>
      <trkpt lat="42.64845" lon="1.69321">
        <ele>2058.008</ele>
        <time>2022-09-17T08:55:14Z</time>
      </trkpt>
      <trkpt lat="42.64845" lon="1.69321">
        <ele>2058.007</ele>
        <time>2022-09-17T08:55:16Z</time>
      </trkpt>
      <trkpt lat="42.64845" lon="1.69321">
        <ele>2057.996</ele>
        <time>2022-09-17T08:55:18Z</time>
      </trkpt>
      <trkpt lat="42.64845" lon="1.69321">
        <ele>2057.997</ele>
        <time>2022-09-17T08:55:20Z</time>
      </trkpt>
      <trkpt lat="42.64845" lon="1.69321">
        <ele>2058.002</ele>
        <time>2022-09-17T08:55:22Z</time>
      </trkpt>
      <trkpt lat="42.64845" lon="1.69321">
        <ele>2057.99</ele>
        <time>2022-09-17T08:55:24Z</time>
      </trkpt>
      <trkpt lat="42.64845" lon="1.69321">
        <ele>2057.99</ele>
        <time>2022-09-17T08:55:26Z</time>
      </trkpt>
      <trkpt lat="42.64845" lon="1.69321">
        <ele>2058.426</ele>
        <time>2022-09-17T08:55:28Z</time>
      </trkpt>
      <trkpt lat="42.64845" lon="1.69321">
        <ele>2058.563</ele>
        <time>2022-09-17T08:55:30Z</time>
      </trkpt>
      <trkpt lat="42.64846" lon="1.69321">
        <ele>2059.032</ele>
        <time>2022-09-17T08:55:32Z</time>
      </trkpt>
      <trkpt lat="42.64846" lon="1.69321">
        <ele>2059.324</ele>
        <time>2022-09-17T08:55:34Z</time>
      </trkpt>
      <trkpt lat="42.64846" lon="1.69322">
        <ele>2059.426</ele>
        <time>2022-09-17T08:55:36Z</time>
      </trkpt>
      <trkpt lat="42.64847" lon="1.69322">
        <ele>2059.177</ele>
        <time>2022-09-17T08:55:38Z</time>
      </trkpt>
      <trkpt lat="42.64848" lon="1.69321">
        <ele>2059.399</ele>
        <time>2022-09-17T08:55:40Z</time>
      </trkpt>
      <trkpt lat="42.64849" lon="1.6932">
        <ele>2060.539</ele>
        <time>2022-09-17T08:55:42Z</time>
      </trkpt>
      <trkpt lat="42.6485" lon="1.69319">
        <ele>2062.087</ele>
        <time>2022-09-17T08:55:44Z</time>
      </trkpt>
      <trkpt lat="42.64849" lon="1.6932">
        <ele>2061.283</ele>
        <time>2022-09-17T08:55:46Z</time>
      </trkpt>
      <trkpt lat="42.64849" lon="1.6932">
        <ele>2061.264</ele>
        <time>2022-09-17T08:55:48Z</time>
      </trkpt>
      <trkpt lat="42.64849" lon="1.6932">
        <ele>2061.281</ele>
        <time>2022-09-17T08:55:50Z</time>
      </trkpt>
      <trkpt lat="42.6485" lon="1.6932">
        <ele>2061.768</ele>
        <time>2022-09-17T08:55:52Z</time>
      </trkpt>
      <trkpt lat="42.64852" lon="1.6932">
        <ele>2061.687</ele>
        <time>2022-09-17T08:55:54Z</time>
      </trkpt>
      <trkpt lat="42.64854" lon="1.69319">
        <ele>2061.72</ele>
        <time>2022-09-17T08:55:56Z</time>
      </trkpt>
      <trkpt lat="42.64856" lon="1.69319">
        <ele>2062.423</ele>
        <time>2022-09-17T08:55:58Z</time>
      </trkpt>
      <trkpt lat="42.64858" lon="1.69319">
        <ele>2063.243</ele>
        <time>2022-09-17T08:56:00Z</time>
      </trkpt>
      <trkpt lat="42.6486" lon="1.69318">
        <ele>2065.054</ele>
        <time>2022-09-17T08:56:02Z</time>
      </trkpt>
      <trkpt lat="42.64862" lon="1.69316">
        <ele>2066.036</ele>
        <time>2022-09-17T08:56:04Z</time>
      </trkpt>
      <trkpt lat="42.64863" lon="1.69315">
        <ele>2066.419</ele>
        <time>2022-09-17T08:56:06Z</time>
      </trkpt>
      <trkpt lat="42.64865" lon="1.69314">
        <ele>2067.23</ele>
        <time>2022-09-17T08:56:08Z</time>
      </trkpt>
      <trkpt lat="42.64866" lon="1.69312">
        <ele>2067.939</ele>
        <time>2022-09-17T08:56:10Z</time>
      </trkpt>
      <trkpt lat="42.64868" lon="1.69311">
        <ele>2068.224</ele>
        <time>2022-09-17T08:56:12Z</time>
      </trkpt>
      <trkpt lat="42.64869" lon="1.6931">
        <ele>2068.213</ele>
        <time>2022-09-17T08:56:14Z</time>
      </trkpt>
      <trkpt lat="42.64871" lon="1.69309">
        <ele>2068.299</ele>
        <time>2022-09-17T08:56:16Z</time>
      </trkpt>
      <trkpt lat="42.64872" lon="1.69308">
        <ele>2068.333</ele>
        <time>2022-09-17T08:56:18Z</time>
      </trkpt>
      <trkpt lat="42.64873" lon="1.69306">
        <ele>2068.671</ele>
        <time>2022-09-17T08:56:20Z</time>
      </trkpt>
      <trkpt lat="42.64875" lon="1.69304">
        <ele>2068.941</ele>
        <time>2022-09-17T08:56:22Z</time>
      </trkpt>
      <trkpt lat="42.64876" lon="1.69302">
        <ele>2068.258</ele>
        <time>2022-09-17T08:56:24Z</time>
      </trkpt>
      <trkpt lat="42.64878" lon="1.693">
        <ele>2068.386</ele>
        <time>2022-09-17T08:56:26Z</time>
      </trkpt>
      <trkpt lat="42.64879" lon="1.69299">
        <ele>2068.641</ele>
        <time>2022-09-17T08:56:28Z</time>
      </trkpt>
      <trkpt lat="42.64881" lon="1.69297">
        <ele>2068.327</ele>
        <time>2022-09-17T08:56:30Z</time>
      </trkpt>
      <trkpt lat="42.64883" lon="1.69296">
        <ele>2068.245</ele>
        <time>2022-09-17T08:56:32Z</time>
      </trkpt>
      <trkpt lat="42.64885" lon="1.69295">
        <ele>2068.84</ele>
        <time>2022-09-17T08:56:34Z</time>
      </trkpt>
      <trkpt lat="42.64887" lon="1.69294">
        <ele>2069.636</ele>
        <time>2022-09-17T08:56:36Z</time>
      </trkpt>
      <trkpt lat="42.64889" lon="1.69294">
        <ele>2070.465</ele>
        <time>2022-09-17T08:56:38Z</time>
      </trkpt>
      <trkpt lat="42.6489" lon="1.69294">
        <ele>2071.645</ele>
        <time>2022-09-17T08:56:40Z</time>
      </trkpt>
      <trkpt lat="42.64892" lon="1.69293">
        <ele>2071.991</ele>
        <time>2022-09-17T08:56:42Z</time>
      </trkpt>
      <trkpt lat="42.64894" lon="1.69292">
        <ele>2072.599</ele>
        <time>2022-09-17T08:56:44Z</time>
      </trkpt>
      <trkpt lat="42.64896" lon="1.69292">
        <ele>2072.881</ele>
        <time>2022-09-17T08:56:46Z</time>
      </trkpt>
      <trkpt lat="42.64896" lon="1.69292">
        <ele>2072.448</ele>
        <time>2022-09-17T08:56:48Z</time>
      </trkpt>
      <trkpt lat="42.64897" lon="1.69292">
        <ele>2073.927</ele>
        <time>2022-09-17T08:56:50Z</time>
      </trkpt>
      <trkpt lat="42.64898" lon="1.69292">
        <ele>2074.78</ele>
        <time>2022-09-17T08:56:52Z</time>
      </trkpt>
      <trkpt lat="42.64899" lon="1.69293">
        <ele>2074.3</ele>
        <time>2022-09-17T08:56:54Z</time>
      </trkpt>
      <trkpt lat="42.649" lon="1.69292">
        <ele>2073.897</ele>
        <time>2022-09-17T08:56:56Z</time>
      </trkpt>
      <trkpt lat="42.64901" lon="1.69292">
        <ele>2073.954</ele>
        <time>2022-09-17T08:56:58Z</time>
      </trkpt>
      <trkpt lat="42.64902" lon="1.69291">
        <ele>2073.46</ele>
        <time>2022-09-17T08:57:00Z</time>
      </trkpt>
      <trkpt lat="42.64903" lon="1.69289">
        <ele>2073.431</ele>
        <time>2022-09-17T08:57:02Z</time>
      </trkpt>
      <trkpt lat="42.64903" lon="1.69288">
        <ele>2072.336</ele>
        <time>2022-09-17T08:57:04Z</time>
      </trkpt>
      <trkpt lat="42.64904" lon="1.69288">
        <ele>2072.943</ele>
        <time>2022-09-17T08:57:06Z</time>
      </trkpt>
      <trkpt lat="42.64905" lon="1.69287">
        <ele>2073.25</ele>
        <time>2022-09-17T08:57:08Z</time>
      </trkpt>
      <trkpt lat="42.64905" lon="1.69287">
        <ele>2073.481</ele>
        <time>2022-09-17T08:57:10Z</time>
      </trkpt>
      <trkpt lat="42.64905" lon="1.69287">
        <ele>2073.484</ele>
        <time>2022-09-17T08:57:12Z</time>
      </trkpt>
      <trkpt lat="42.64905" lon="1.69287">
        <ele>2073.472</ele>
        <time>2022-09-17T08:57:14Z</time>
      </trkpt>
      <trkpt lat="42.64905" lon="1.69287">
        <ele>2073.468</ele>
        <time>2022-09-17T08:57:16Z</time>
      </trkpt>
      <trkpt lat="42.64905" lon="1.69287">
        <ele>2073.47</ele>
        <time>2022-09-17T08:57:18Z</time>
      </trkpt>
      <trkpt lat="42.64905" lon="1.69287">
        <ele>2073.468</ele>
        <time>2022-09-17T08:57:20Z</time>
      </trkpt>
      <trkpt lat="42.64905" lon="1.69287">
        <ele>2073.476</ele>
        <time>2022-09-17T08:57:22Z</time>
      </trkpt>
      <trkpt lat="42.64905" lon="1.69287">
        <ele>2073.477</ele>
        <time>2022-09-17T08:57:24Z</time>
      </trkpt>
      <trkpt lat="42.64905" lon="1.69287">
        <ele>2073.471</ele>
        <time>2022-09-17T08:57:26Z</time>
      </trkpt>
      <trkpt lat="42.64905" lon="1.69287">
        <ele>2073.47</ele>
        <time>2022-09-17T08:57:28Z</time>
      </trkpt>
      <trkpt lat="42.64905" lon="1.69287">
        <ele>2073.476</ele>
        <time>2022-09-17T08:57:30Z</time>
      </trkpt>
      <trkpt lat="42.64905" lon="1.69287">
        <ele>2073.473</ele>
        <time>2022-09-17T08:57:32Z</time>
      </trkpt>
      <trkpt lat="42.64905" lon="1.69287">
        <ele>2073.472</ele>
        <time>2022-09-17T08:57:34Z</time>
      </trkpt>
      <trkpt lat="42.64905" lon="1.69287">
        <ele>2073.472</ele>
        <time>2022-09-17T08:57:36Z</time>
      </trkpt>
      <trkpt lat="42.64905" lon="1.69287">
        <ele>2073.481</ele>
        <time>2022-09-17T08:57:38Z</time>
      </trkpt>
      <trkpt lat="42.64905" lon="1.69287">
        <ele>2073.467</ele>
        <time>2022-09-17T08:57:40Z</time>
      </trkpt>
      <trkpt lat="42.64905" lon="1.69287">
        <ele>2073.458</ele>
        <time>2022-09-17T08:57:42Z</time>
      </trkpt>
      <trkpt lat="42.64905" lon="1.69287">
        <ele>2073.456</ele>
        <time>2022-09-17T08:57:44Z</time>
      </trkpt>
      <trkpt lat="42.64905" lon="1.69287">
        <ele>2073.448</ele>
        <time>2022-09-17T08:57:46Z</time>
      </trkpt>
      <trkpt lat="42.64905" lon="1.69287">
        <ele>2073.432</ele>
        <time>2022-09-17T08:57:48Z</time>
      </trkpt>
      <trkpt lat="42.64905" lon="1.69287">
        <ele>2073.417</ele>
        <time>2022-09-17T08:57:50Z</time>
      </trkpt>
      <trkpt lat="42.64905" lon="1.69287">
        <ele>2073.419</ele>
        <time>2022-09-17T08:57:52Z</time>
      </trkpt>
      <trkpt lat="42.64905" lon="1.69287">
        <ele>2073.415</ele>
        <time>2022-09-17T08:57:54Z</time>
      </trkpt>
      <trkpt lat="42.64905" lon="1.69287">
        <ele>2073.412</ele>
        <time>2022-09-17T08:57:56Z</time>
      </trkpt>
      <trkpt lat="42.64905" lon="1.69287">
        <ele>2073.411</ele>
        <time>2022-09-17T08:57:58Z</time>
      </trkpt>
      <trkpt lat="42.64905" lon="1.69287">
        <ele>2073.347</ele>
        <time>2022-09-17T08:58:00Z</time>
      </trkpt>
      <trkpt lat="42.64906" lon="1.69286">
        <ele>2073.469</ele>
        <time>2022-09-17T08:58:02Z</time>
      </trkpt>
      <trkpt lat="42.64907" lon="1.69285">
        <ele>2073.025</ele>
        <time>2022-09-17T08:58:04Z</time>
      </trkpt>
      <trkpt lat="42.64909" lon="1.69284">
        <ele>2072.626</ele>
        <time>2022-09-17T08:58:06Z</time>
      </trkpt>
      <trkpt lat="42.6491" lon="1.69282">
        <ele>2072.194</ele>
        <time>2022-09-17T08:58:08Z</time>
      </trkpt>
      <trkpt lat="42.64912" lon="1.69281">
        <ele>2071.937</ele>
        <time>2022-09-17T08:58:10Z</time>
      </trkpt>
      <trkpt lat="42.64913" lon="1.6928">
        <ele>2071.807</ele>
        <time>2022-09-17T08:58:12Z</time>
      </trkpt>
      <trkpt lat="42.64915" lon="1.6928">
        <ele>2071.187</ele>
        <time>2022-09-17T08:58:14Z</time>
      </trkpt>
      <trkpt lat="42.64917" lon="1.6928">
        <ele>2070.908</ele>
        <time>2022-09-17T08:58:16Z</time>
      </trkpt>
      <trkpt lat="42.64918" lon="1.6928">
        <ele>2070.396</ele>
        <time>2022-09-17T08:58:18Z</time>
      </trkpt>
      <trkpt lat="42.6492" lon="1.69279">
        <ele>2070.241</ele>
        <time>2022-09-17T08:58:20Z</time>
      </trkpt>
      <trkpt lat="42.64921" lon="1.69278">
        <ele>2070.13</ele>
        <time>2022-09-17T08:58:22Z</time>
      </trkpt>
      <trkpt lat="42.64922" lon="1.69278">
        <ele>2069.181</ele>
        <time>2022-09-17T08:58:24Z</time>
      </trkpt>
      <trkpt lat="42.64923" lon="1.69278">
        <ele>2068.756</ele>
        <time>2022-09-17T08:58:26Z</time>
      </trkpt>
      <trkpt lat="42.64924" lon="1.69277">
        <ele>2068.695</ele>
        <time>2022-09-17T08:58:28Z</time>
      </trkpt>
      <trkpt lat="42.64925" lon="1.69275">
        <ele>2068.202</ele>
        <time>2022-09-17T08:58:30Z</time>
      </trkpt>
      <trkpt lat="42.64926" lon="1.69274">
        <ele>2067.33</ele>
        <time>2022-09-17T08:58:32Z</time>
      </trkpt>
      <trkpt lat="42.64926" lon="1.69272">
        <ele>2066.098</ele>
        <time>2022-09-17T08:58:34Z</time>
      </trkpt>
      <trkpt lat="42.64927" lon="1.69271">
        <ele>2066.279</ele>
        <time>2022-09-17T08:58:36Z</time>
      </trkpt>
      <trkpt lat="42.64928" lon="1.6927">
        <ele>2065.668</ele>
        <time>2022-09-17T08:58:38Z</time>
      </trkpt>
      <trkpt lat="42.64929" lon="1.69269">
        <ele>2065.231</ele>
        <time>2022-09-17T08:58:40Z</time>
      </trkpt>
      <trkpt lat="42.6493" lon="1.69269">
        <ele>2064.456</ele>
        <time>2022-09-17T08:58:42Z</time>
      </trkpt>
      <trkpt lat="42.64931" lon="1.69269">
        <ele>2064.531</ele>
        <time>2022-09-17T08:58:44Z</time>
      </trkpt>
      <trkpt lat="42.64933" lon="1.69269">
        <ele>2065.404</ele>
        <time>2022-09-17T08:58:46Z</time>
      </trkpt>
      <trkpt lat="42.64934" lon="1.69268">
        <ele>2065.115</ele>
        <time>2022-09-17T08:58:48Z</time>
      </trkpt>
      <trkpt lat="42.64936" lon="1.69268">
        <ele>2065.595</ele>
        <time>2022-09-17T08:58:50Z</time>
      </trkpt>
      <trkpt lat="42.64938" lon="1.69267">
        <ele>2065.828</ele>
        <time>2022-09-17T08:58:52Z</time>
      </trkpt>
      <trkpt lat="42.6494" lon="1.69266">
        <ele>2067.151</ele>
        <time>2022-09-17T08:58:54Z</time>
      </trkpt>
      <trkpt lat="42.64942" lon="1.69265">
        <ele>2067.59</ele>
        <time>2022-09-17T08:58:56Z</time>
      </trkpt>
      <trkpt lat="42.64943" lon="1.69263">
        <ele>2067.75</ele>
        <time>2022-09-17T08:58:58Z</time>
      </trkpt>
      <trkpt lat="42.64943" lon="1.69261">
        <ele>2067.206</ele>
        <time>2022-09-17T08:59:00Z</time>
      </trkpt>
      <trkpt lat="42.64944" lon="1.6926">
        <ele>2067.082</ele>
        <time>2022-09-17T08:59:02Z</time>
      </trkpt>
      <trkpt lat="42.64944" lon="1.69258">
        <ele>2066.68</ele>
        <time>2022-09-17T08:59:04Z</time>
      </trkpt>
      <trkpt lat="42.64946" lon="1.69257">
        <ele>2067.362</ele>
        <time>2022-09-17T08:59:06Z</time>
      </trkpt>
      <trkpt lat="42.64947" lon="1.69256">
        <ele>2067.966</ele>
        <time>2022-09-17T08:59:08Z</time>
      </trkpt>
      <trkpt lat="42.64948" lon="1.69255">
        <ele>2068.784</ele>
        <time>2022-09-17T08:59:10Z</time>
      </trkpt>
      <trkpt lat="42.64949" lon="1.69253">
        <ele>2068.604</ele>
        <time>2022-09-17T08:59:12Z</time>
      </trkpt>
      <trkpt lat="42.6495" lon="1.69252">
        <ele>2069.211</ele>
        <time>2022-09-17T08:59:14Z</time>
      </trkpt>
      <trkpt lat="42.64951" lon="1.69251">
        <ele>2069.566</ele>
        <time>2022-09-17T08:59:16Z</time>
      </trkpt>
      <trkpt lat="42.64953" lon="1.6925">
        <ele>2069.722</ele>
        <time>2022-09-17T08:59:18Z</time>
      </trkpt>
      <trkpt lat="42.64954" lon="1.6925">
        <ele>2070.614</ele>
        <time>2022-09-17T08:59:20Z</time>
      </trkpt>
      <trkpt lat="42.64955" lon="1.69249">
        <ele>2071.023</ele>
        <time>2022-09-17T08:59:22Z</time>
      </trkpt>
      <trkpt lat="42.64956" lon="1.69248">
        <ele>2070.89</ele>
        <time>2022-09-17T08:59:24Z</time>
      </trkpt>
      <trkpt lat="42.64957" lon="1.69247">
        <ele>2070.768</ele>
        <time>2022-09-17T08:59:26Z</time>
      </trkpt>
      <trkpt lat="42.64959" lon="1.69246">
        <ele>2070.829</ele>
        <time>2022-09-17T08:59:28Z</time>
      </trkpt>
      <trkpt lat="42.6496" lon="1.69246">
        <ele>2070.789</ele>
        <time>2022-09-17T08:59:30Z</time>
      </trkpt>
      <trkpt lat="42.64961" lon="1.69245">
        <ele>2070.489</ele>
        <time>2022-09-17T08:59:32Z</time>
      </trkpt>
      <trkpt lat="42.64962" lon="1.69244">
        <ele>2071.047</ele>
        <time>2022-09-17T08:59:34Z</time>
      </trkpt>
      <trkpt lat="42.64963" lon="1.69244">
        <ele>2071.429</ele>
        <time>2022-09-17T08:59:36Z</time>
      </trkpt>
      <trkpt lat="42.64964" lon="1.69245">
        <ele>2071.49</ele>
        <time>2022-09-17T08:59:38Z</time>
      </trkpt>
      <trkpt lat="42.64965" lon="1.69245">
        <ele>2072.053</ele>
        <time>2022-09-17T08:59:40Z</time>
      </trkpt>
      <trkpt lat="42.64966" lon="1.69245">
        <ele>2071.87</ele>
        <time>2022-09-17T08:59:42Z</time>
      </trkpt>
      <trkpt lat="42.64967" lon="1.69245">
        <ele>2071.289</ele>
        <time>2022-09-17T08:59:44Z</time>
      </trkpt>
      <trkpt lat="42.64968" lon="1.69245">
        <ele>2071.667</ele>
        <time>2022-09-17T08:59:46Z</time>
      </trkpt>
      <trkpt lat="42.64969" lon="1.69245">
        <ele>2071.507</ele>
        <time>2022-09-17T08:59:48Z</time>
      </trkpt>
      <trkpt lat="42.6497" lon="1.69245">
        <ele>2071.068</ele>
        <time>2022-09-17T08:59:50Z</time>
      </trkpt>
      <trkpt lat="42.6497" lon="1.69245">
        <ele>2071.964</ele>
        <time>2022-09-17T08:59:52Z</time>
      </trkpt>
      <trkpt lat="42.64971" lon="1.69245">
        <ele>2071.957</ele>
        <time>2022-09-17T08:59:54Z</time>
      </trkpt>
      <trkpt lat="42.64971" lon="1.69244">
        <ele>2070.522</ele>
        <time>2022-09-17T08:59:56Z</time>
      </trkpt>
      <trkpt lat="42.64972" lon="1.69244">
        <ele>2070.277</ele>
        <time>2022-09-17T08:59:58Z</time>
      </trkpt>
      <trkpt lat="42.64972" lon="1.69245">
        <ele>2071.744</ele>
        <time>2022-09-17T09:00:00Z</time>
      </trkpt>
      <trkpt lat="42.64972" lon="1.69244">
        <ele>2071.806</ele>
        <time>2022-09-17T09:00:02Z</time>
      </trkpt>
      <trkpt lat="42.64973" lon="1.69244">
        <ele>2072.167</ele>
        <time>2022-09-17T09:00:04Z</time>
      </trkpt>
      <trkpt lat="42.64973" lon="1.69244">
        <ele>2072.865</ele>
        <time>2022-09-17T09:00:06Z</time>
      </trkpt>
      <trkpt lat="42.64974" lon="1.69245">
        <ele>2074.5</ele>
        <time>2022-09-17T09:00:08Z</time>
      </trkpt>
      <trkpt lat="42.64975" lon="1.69245">
        <ele>2075.675</ele>
        <time>2022-09-17T09:00:10Z</time>
      </trkpt>
      <trkpt lat="42.64976" lon="1.69245">
        <ele>2075.108</ele>
        <time>2022-09-17T09:00:12Z</time>
      </trkpt>
      <trkpt lat="42.64977" lon="1.69245">
        <ele>2075.309</ele>
        <time>2022-09-17T09:00:14Z</time>
      </trkpt>
      <trkpt lat="42.64978" lon="1.69245">
        <ele>2074.274</ele>
        <time>2022-09-17T09:00:16Z</time>
      </trkpt>
      <trkpt lat="42.64979" lon="1.69245">
        <ele>2074.732</ele>
        <time>2022-09-17T09:00:18Z</time>
      </trkpt>
      <trkpt lat="42.64979" lon="1.69245">
        <ele>2073.917</ele>
        <time>2022-09-17T09:00:20Z</time>
      </trkpt>
      <trkpt lat="42.6498" lon="1.69245">
        <ele>2076.312</ele>
        <time>2022-09-17T09:00:22Z</time>
      </trkpt>
      <trkpt lat="42.64981" lon="1.69244">
        <ele>2075.348</ele>
        <time>2022-09-17T09:00:24Z</time>
      </trkpt>
      <trkpt lat="42.64982" lon="1.69245">
        <ele>2076.596</ele>
        <time>2022-09-17T09:00:26Z</time>
      </trkpt>
      <trkpt lat="42.64983" lon="1.69246">
        <ele>2076.339</ele>
        <time>2022-09-17T09:00:28Z</time>
      </trkpt>
      <trkpt lat="42.64984" lon="1.69246">
        <ele>2077.089</ele>
        <time>2022-09-17T09:00:30Z</time>
      </trkpt>
      <trkpt lat="42.64985" lon="1.69246">
        <ele>2077.688</ele>
        <time>2022-09-17T09:00:32Z</time>
      </trkpt>
      <trkpt lat="42.64985" lon="1.69246">
        <ele>2078.406</ele>
        <time>2022-09-17T09:00:34Z</time>
      </trkpt>
      <trkpt lat="42.64986" lon="1.69246">
        <ele>2078.758</ele>
        <time>2022-09-17T09:00:36Z</time>
      </trkpt>
      <trkpt lat="42.64987" lon="1.69246">
        <ele>2079.333</ele>
        <time>2022-09-17T09:00:38Z</time>
      </trkpt>
      <trkpt lat="42.64988" lon="1.69246">
        <ele>2080.617</ele>
        <time>2022-09-17T09:00:40Z</time>
      </trkpt>
      <trkpt lat="42.64989" lon="1.69247">
        <ele>2081.347</ele>
        <time>2022-09-17T09:00:42Z</time>
      </trkpt>
      <trkpt lat="42.6499" lon="1.69247">
        <ele>2081.553</ele>
        <time>2022-09-17T09:00:44Z</time>
      </trkpt>
      <trkpt lat="42.6499" lon="1.69247">
        <ele>2081.694</ele>
        <time>2022-09-17T09:00:46Z</time>
      </trkpt>
      <trkpt lat="42.64991" lon="1.69246">
        <ele>2082.587</ele>
        <time>2022-09-17T09:00:48Z</time>
      </trkpt>
      <trkpt lat="42.64993" lon="1.69245">
        <ele>2082.48</ele>
        <time>2022-09-17T09:00:50Z</time>
      </trkpt>
      <trkpt lat="42.64994" lon="1.69245">
        <ele>2083.482</ele>
        <time>2022-09-17T09:00:52Z</time>
      </trkpt>
      <trkpt lat="42.64995" lon="1.69246">
        <ele>2083.241</ele>
        <time>2022-09-17T09:00:54Z</time>
      </trkpt>
      <trkpt lat="42.64997" lon="1.69246">
        <ele>2083.601</ele>
        <time>2022-09-17T09:00:56Z</time>
      </trkpt>
      <trkpt lat="42.64998" lon="1.69247">
        <ele>2083.643</ele>
        <time>2022-09-17T09:00:58Z</time>
      </trkpt>
      <trkpt lat="42.64999" lon="1.69248">
        <ele>2083.875</ele>
        <time>2022-09-17T09:01:00Z</time>
      </trkpt>
      <trkpt lat="42.65" lon="1.69248">
        <ele>2083.876</ele>
        <time>2022-09-17T09:01:02Z</time>
      </trkpt>
      <trkpt lat="42.65001" lon="1.69249">
        <ele>2084.455</ele>
        <time>2022-09-17T09:01:04Z</time>
      </trkpt>
      <trkpt lat="42.65002" lon="1.69249">
        <ele>2084.585</ele>
        <time>2022-09-17T09:01:06Z</time>
      </trkpt>
      <trkpt lat="42.65003" lon="1.6925">
        <ele>2085.529</ele>
        <time>2022-09-17T09:01:08Z</time>
      </trkpt>
      <trkpt lat="42.65004" lon="1.69251">
        <ele>2085.689</ele>
        <time>2022-09-17T09:01:10Z</time>
      </trkpt>
      <trkpt lat="42.65006" lon="1.69251">
        <ele>2086.076</ele>
        <time>2022-09-17T09:01:12Z</time>
      </trkpt>
      <trkpt lat="42.65007" lon="1.69251">
        <ele>2086.254</ele>
        <time>2022-09-17T09:01:14Z</time>
      </trkpt>
      <trkpt lat="42.65008" lon="1.6925">
        <ele>2086.237</ele>
        <time>2022-09-17T09:01:16Z</time>
      </trkpt>
      <trkpt lat="42.65009" lon="1.69251">
        <ele>2086.827</ele>
        <time>2022-09-17T09:01:18Z</time>
      </trkpt>
      <trkpt lat="42.65011" lon="1.69251">
        <ele>2086.77</ele>
        <time>2022-09-17T09:01:20Z</time>
      </trkpt>
      <trkpt lat="42.65012" lon="1.69251">
        <ele>2087.364</ele>
        <time>2022-09-17T09:01:22Z</time>
      </trkpt>
      <trkpt lat="42.65013" lon="1.69251">
        <ele>2087.573</ele>
        <time>2022-09-17T09:01:24Z</time>
      </trkpt>
      <trkpt lat="42.65015" lon="1.69252">
        <ele>2087.888</ele>
        <time>2022-09-17T09:01:26Z</time>
      </trkpt>
      <trkpt lat="42.65016" lon="1.69252">
        <ele>2088.467</ele>
        <time>2022-09-17T09:01:28Z</time>
      </trkpt>
      <trkpt lat="42.65017" lon="1.69251">
        <ele>2087.603</ele>
        <time>2022-09-17T09:01:30Z</time>
      </trkpt>
      <trkpt lat="42.65019" lon="1.69252">
        <ele>2088.873</ele>
        <time>2022-09-17T09:01:32Z</time>
      </trkpt>
      <trkpt lat="42.6502" lon="1.69252">
        <ele>2089.394</ele>
        <time>2022-09-17T09:01:34Z</time>
      </trkpt>
      <trkpt lat="42.65021" lon="1.69253">
        <ele>2089.754</ele>
        <time>2022-09-17T09:01:36Z</time>
      </trkpt>
      <trkpt lat="42.65023" lon="1.69253">
        <ele>2090.06</ele>
        <time>2022-09-17T09:01:38Z</time>
      </trkpt>
      <trkpt lat="42.65024" lon="1.69253">
        <ele>2090.242</ele>
        <time>2022-09-17T09:01:40Z</time>
      </trkpt>
      <trkpt lat="42.65026" lon="1.69253">
        <ele>2090.28</ele>
        <time>2022-09-17T09:01:42Z</time>
      </trkpt>
      <trkpt lat="42.65027" lon="1.69253">
        <ele>2090.923</ele>
        <time>2022-09-17T09:01:44Z</time>
      </trkpt>
      <trkpt lat="42.65028" lon="1.69253">
        <ele>2091.689</ele>
        <time>2022-09-17T09:01:46Z</time>
      </trkpt>
      <trkpt lat="42.6503" lon="1.69254">
        <ele>2091.718</ele>
        <time>2022-09-17T09:01:48Z</time>
      </trkpt>
      <trkpt lat="42.65031" lon="1.69254">
        <ele>2092.466</ele>
        <time>2022-09-17T09:01:50Z</time>
      </trkpt>
      <trkpt lat="42.65032" lon="1.69255">
        <ele>2092.812</ele>
        <time>2022-09-17T09:01:52Z</time>
      </trkpt>
      <trkpt lat="42.65033" lon="1.69254">
        <ele>2092.321</ele>
        <time>2022-09-17T09:01:54Z</time>
      </trkpt>
      <trkpt lat="42.65035" lon="1.69255">
        <ele>2092.747</ele>
        <time>2022-09-17T09:01:56Z</time>
      </trkpt>
      <trkpt lat="42.65036" lon="1.69254">
        <ele>2093.662</ele>
        <time>2022-09-17T09:01:58Z</time>
      </trkpt>
      <trkpt lat="42.65038" lon="1.69254">
        <ele>2093.19</ele>
        <time>2022-09-17T09:02:00Z</time>
      </trkpt>
      <trkpt lat="42.65039" lon="1.69255">
        <ele>2093.244</ele>
        <time>2022-09-17T09:02:02Z</time>
      </trkpt>
      <trkpt lat="42.6504" lon="1.69254">
        <ele>2093.112</ele>
        <time>2022-09-17T09:02:04Z</time>
      </trkpt>
      <trkpt lat="42.65041" lon="1.69255">
        <ele>2093.511</ele>
        <time>2022-09-17T09:02:06Z</time>
      </trkpt>
      <trkpt lat="42.65042" lon="1.69255">
        <ele>2095.359</ele>
        <time>2022-09-17T09:02:08Z</time>
      </trkpt>
      <trkpt lat="42.65044" lon="1.69255">
        <ele>2095.78</ele>
        <time>2022-09-17T09:02:10Z</time>
      </trkpt>
      <trkpt lat="42.65045" lon="1.69255">
        <ele>2095.669</ele>
        <time>2022-09-17T09:02:12Z</time>
      </trkpt>
      <trkpt lat="42.65047" lon="1.69255">
        <ele>2095.673</ele>
        <time>2022-09-17T09:02:14Z</time>
      </trkpt>
      <trkpt lat="42.65048" lon="1.69256">
        <ele>2095.699</ele>
        <time>2022-09-17T09:02:16Z</time>
      </trkpt>
      <trkpt lat="42.6505" lon="1.69257">
        <ele>2095.886</ele>
        <time>2022-09-17T09:02:18Z</time>
      </trkpt>
      <trkpt lat="42.65051" lon="1.69257">
        <ele>2095.469</ele>
        <time>2022-09-17T09:02:20Z</time>
      </trkpt>
      <trkpt lat="42.65053" lon="1.69258">
        <ele>2096.064</ele>
        <time>2022-09-17T09:02:22Z</time>
      </trkpt>
      <trkpt lat="42.65054" lon="1.69259">
        <ele>2095.926</ele>
        <time>2022-09-17T09:02:24Z</time>
      </trkpt>
      <trkpt lat="42.65055" lon="1.69261">
        <ele>2096.745</ele>
        <time>2022-09-17T09:02:26Z</time>
      </trkpt>
      <trkpt lat="42.65056" lon="1.69261">
        <ele>2097.314</ele>
        <time>2022-09-17T09:02:28Z</time>
      </trkpt>
      <trkpt lat="42.65058" lon="1.69262">
        <ele>2097.236</ele>
        <time>2022-09-17T09:02:30Z</time>
      </trkpt>
      <trkpt lat="42.6506" lon="1.69262">
        <ele>2097.263</ele>
        <time>2022-09-17T09:02:32Z</time>
      </trkpt>
      <trkpt lat="42.65061" lon="1.69263">
        <ele>2097.199</ele>
        <time>2022-09-17T09:02:34Z</time>
      </trkpt>
      <trkpt lat="42.65062" lon="1.69265">
        <ele>2097.606</ele>
        <time>2022-09-17T09:02:36Z</time>
      </trkpt>
      <trkpt lat="42.65063" lon="1.69266">
        <ele>2097.813</ele>
        <time>2022-09-17T09:02:38Z</time>
      </trkpt>
      <trkpt lat="42.65064" lon="1.69267">
        <ele>2098.828</ele>
        <time>2022-09-17T09:02:40Z</time>
      </trkpt>
      <trkpt lat="42.65065" lon="1.69268">
        <ele>2099.328</ele>
        <time>2022-09-17T09:02:42Z</time>
      </trkpt>
      <trkpt lat="42.65066" lon="1.69269">
        <ele>2099.63</ele>
        <time>2022-09-17T09:02:44Z</time>
      </trkpt>
      <trkpt lat="42.65066" lon="1.69269">
        <ele>2100.051</ele>
        <time>2022-09-17T09:02:46Z</time>
      </trkpt>
      <trkpt lat="42.65067" lon="1.69271">
        <ele>2100.462</ele>
        <time>2022-09-17T09:02:48Z</time>
      </trkpt>
      <trkpt lat="42.65067" lon="1.69271">
        <ele>2100.693</ele>
        <time>2022-09-17T09:02:50Z</time>
      </trkpt>
      <trkpt lat="42.65068" lon="1.69272">
        <ele>2100.718</ele>
        <time>2022-09-17T09:02:52Z</time>
      </trkpt>
      <trkpt lat="42.65069" lon="1.69272">
        <ele>2100.996</ele>
        <time>2022-09-17T09:02:54Z</time>
      </trkpt>
      <trkpt lat="42.6507" lon="1.69272">
        <ele>2101.137</ele>
        <time>2022-09-17T09:02:56Z</time>
      </trkpt>
      <trkpt lat="42.65071" lon="1.69271">
        <ele>2100.002</ele>
        <time>2022-09-17T09:02:58Z</time>
      </trkpt>
      <trkpt lat="42.65072" lon="1.69271">
        <ele>2100.233</ele>
        <time>2022-09-17T09:03:00Z</time>
      </trkpt>
      <trkpt lat="42.65073" lon="1.69271">
        <ele>2100.414</ele>
        <time>2022-09-17T09:03:02Z</time>
      </trkpt>
      <trkpt lat="42.65074" lon="1.69272">
        <ele>2100.105</ele>
        <time>2022-09-17T09:03:04Z</time>
      </trkpt>
      <trkpt lat="42.65075" lon="1.69273">
        <ele>2099.618</ele>
        <time>2022-09-17T09:03:06Z</time>
      </trkpt>
      <trkpt lat="42.65075" lon="1.69273">
        <ele>2100.754</ele>
        <time>2022-09-17T09:03:08Z</time>
      </trkpt>
      <trkpt lat="42.65076" lon="1.69273">
        <ele>2102.211</ele>
        <time>2022-09-17T09:03:10Z</time>
      </trkpt>
      <trkpt lat="42.65077" lon="1.69272">
        <ele>2102.234</ele>
        <time>2022-09-17T09:03:12Z</time>
      </trkpt>
      <trkpt lat="42.65078" lon="1.69272">
        <ele>2102.82</ele>
        <time>2022-09-17T09:03:14Z</time>
      </trkpt>
      <trkpt lat="42.6508" lon="1.69271">
        <ele>2102.9</ele>
        <time>2022-09-17T09:03:16Z</time>
      </trkpt>
      <trkpt lat="42.65081" lon="1.69269">
        <ele>2103.73</ele>
        <time>2022-09-17T09:03:18Z</time>
      </trkpt>
      <trkpt lat="42.65082" lon="1.69268">
        <ele>2103.988</ele>
        <time>2022-09-17T09:03:20Z</time>
      </trkpt>
      <trkpt lat="42.65083" lon="1.69268">
        <ele>2104.496</ele>
        <time>2022-09-17T09:03:22Z</time>
      </trkpt>
      <trkpt lat="42.65084" lon="1.69267">
        <ele>2104.894</ele>
        <time>2022-09-17T09:03:24Z</time>
      </trkpt>
      <trkpt lat="42.65085" lon="1.69266">
        <ele>2104.546</ele>
        <time>2022-09-17T09:03:26Z</time>
      </trkpt>
      <trkpt lat="42.65086" lon="1.69266">
        <ele>2105.135</ele>
        <time>2022-09-17T09:03:28Z</time>
      </trkpt>
      <trkpt lat="42.65087" lon="1.69266">
        <ele>2105.654</ele>
        <time>2022-09-17T09:03:30Z</time>
      </trkpt>
      <trkpt lat="42.65089" lon="1.69267">
        <ele>2105.504</ele>
        <time>2022-09-17T09:03:32Z</time>
      </trkpt>
      <trkpt lat="42.6509" lon="1.69267">
        <ele>2106.083</ele>
        <time>2022-09-17T09:03:34Z</time>
      </trkpt>
      <trkpt lat="42.65091" lon="1.69267">
        <ele>2107.093</ele>
        <time>2022-09-17T09:03:36Z</time>
      </trkpt>
      <trkpt lat="42.65092" lon="1.69266">
        <ele>2106.796</ele>
        <time>2022-09-17T09:03:38Z</time>
      </trkpt>
      <trkpt lat="42.65092" lon="1.69265">
        <ele>2106.228</ele>
        <time>2022-09-17T09:03:40Z</time>
      </trkpt>
      <trkpt lat="42.65093" lon="1.69265">
        <ele>2105.94</ele>
        <time>2022-09-17T09:03:42Z</time>
      </trkpt>
      <trkpt lat="42.65094" lon="1.69263">
        <ele>2104.38</ele>
        <time>2022-09-17T09:03:44Z</time>
      </trkpt>
      <trkpt lat="42.65095" lon="1.69262">
        <ele>2103.506</ele>
        <time>2022-09-17T09:03:46Z</time>
      </trkpt>
      <trkpt lat="42.65095" lon="1.6926">
        <ele>2102.981</ele>
        <time>2022-09-17T09:03:48Z</time>
      </trkpt>
      <trkpt lat="42.65097" lon="1.69259">
        <ele>2103.302</ele>
        <time>2022-09-17T09:03:50Z</time>
      </trkpt>
      <trkpt lat="42.65097" lon="1.69257">
        <ele>2103.597</ele>
        <time>2022-09-17T09:03:52Z</time>
      </trkpt>
      <trkpt lat="42.65099" lon="1.69257">
        <ele>2104.234</ele>
        <time>2022-09-17T09:03:54Z</time>
      </trkpt>
      <trkpt lat="42.651" lon="1.69257">
        <ele>2104.41</ele>
        <time>2022-09-17T09:03:56Z</time>
      </trkpt>
      <trkpt lat="42.65101" lon="1.69257">
        <ele>2104.87</ele>
        <time>2022-09-17T09:03:58Z</time>
      </trkpt>
      <trkpt lat="42.65102" lon="1.69256">
        <ele>2104.717</ele>
        <time>2022-09-17T09:04:00Z</time>
      </trkpt>
      <trkpt lat="42.65103" lon="1.69255">
        <ele>2103.559</ele>
        <time>2022-09-17T09:04:02Z</time>
      </trkpt>
      <trkpt lat="42.65105" lon="1.69254">
        <ele>2104.236</ele>
        <time>2022-09-17T09:04:04Z</time>
      </trkpt>
      <trkpt lat="42.65106" lon="1.69253">
        <ele>2104.093</ele>
        <time>2022-09-17T09:04:06Z</time>
      </trkpt>
      <trkpt lat="42.65107" lon="1.69253">
        <ele>2104.991</ele>
        <time>2022-09-17T09:04:08Z</time>
      </trkpt>
      <trkpt lat="42.65108" lon="1.69251">
        <ele>2104.491</ele>
        <time>2022-09-17T09:04:10Z</time>
      </trkpt>
      <trkpt lat="42.65109" lon="1.6925">
        <ele>2104.675</ele>
        <time>2022-09-17T09:04:12Z</time>
      </trkpt>
      <trkpt lat="42.6511" lon="1.69249">
        <ele>2105.016</ele>
        <time>2022-09-17T09:04:14Z</time>
      </trkpt>
      <trkpt lat="42.65111" lon="1.69247">
        <ele>2105.15</ele>
        <time>2022-09-17T09:04:16Z</time>
      </trkpt>
      <trkpt lat="42.65113" lon="1.69247">
        <ele>2106.861</ele>
        <time>2022-09-17T09:04:18Z</time>
      </trkpt>
      <trkpt lat="42.65115" lon="1.69246">
        <ele>2107.503</ele>
        <time>2022-09-17T09:04:20Z</time>
      </trkpt>
      <trkpt lat="42.65115" lon="1.69246">
        <ele>2107.562</ele>
        <time>2022-09-17T09:04:22Z</time>
      </trkpt>
      <trkpt lat="42.65115" lon="1.69246">
        <ele>2107.566</ele>
        <time>2022-09-17T09:04:24Z</time>
      </trkpt>
      <trkpt lat="42.65115" lon="1.69246">
        <ele>2107.575</ele>
        <time>2022-09-17T09:04:26Z</time>
      </trkpt>
      <trkpt lat="42.65115" lon="1.69246">
        <ele>2107.432</ele>
        <time>2022-09-17T09:04:28Z</time>
      </trkpt>
      <trkpt lat="42.65116" lon="1.69245">
        <ele>2106.861</ele>
        <time>2022-09-17T09:04:30Z</time>
      </trkpt>
      <trkpt lat="42.65118" lon="1.69243">
        <ele>2107.468</ele>
        <time>2022-09-17T09:04:32Z</time>
      </trkpt>
      <trkpt lat="42.65119" lon="1.69243">
        <ele>2107.711</ele>
        <time>2022-09-17T09:04:34Z</time>
      </trkpt>
      <trkpt lat="42.65121" lon="1.69242">
        <ele>2108.421</ele>
        <time>2022-09-17T09:04:36Z</time>
      </trkpt>
      <trkpt lat="42.65122" lon="1.69241">
        <ele>2108.09</ele>
        <time>2022-09-17T09:04:38Z</time>
      </trkpt>
      <trkpt lat="42.65123" lon="1.6924">
        <ele>2108.123</ele>
        <time>2022-09-17T09:04:40Z</time>
      </trkpt>
      <trkpt lat="42.65124" lon="1.69239">
        <ele>2108.513</ele>
        <time>2022-09-17T09:04:42Z</time>
      </trkpt>
      <trkpt lat="42.65124" lon="1.69237">
        <ele>2109.214</ele>
        <time>2022-09-17T09:04:44Z</time>
      </trkpt>
      <trkpt lat="42.65125" lon="1.69236">
        <ele>2109.385</ele>
        <time>2022-09-17T09:04:46Z</time>
      </trkpt>
      <trkpt lat="42.65126" lon="1.69235">
        <ele>2110.191</ele>
        <time>2022-09-17T09:04:48Z</time>
      </trkpt>
      <trkpt lat="42.65128" lon="1.69235">
        <ele>2111.199</ele>
        <time>2022-09-17T09:04:50Z</time>
      </trkpt>
      <trkpt lat="42.65128" lon="1.69233">
        <ele>2110.934</ele>
        <time>2022-09-17T09:04:52Z</time>
      </trkpt>
      <trkpt lat="42.65129" lon="1.69231">
        <ele>2111.813</ele>
        <time>2022-09-17T09:04:54Z</time>
      </trkpt>
      <trkpt lat="42.6513" lon="1.6923">
        <ele>2112.645</ele>
        <time>2022-09-17T09:04:56Z</time>
      </trkpt>
      <trkpt lat="42.65131" lon="1.69229">
        <ele>2113.483</ele>
        <time>2022-09-17T09:04:58Z</time>
      </trkpt>
      <trkpt lat="42.65132" lon="1.69228">
        <ele>2113.549</ele>
        <time>2022-09-17T09:05:00Z</time>
      </trkpt>
      <trkpt lat="42.65133" lon="1.69227">
        <ele>2113.637</ele>
        <time>2022-09-17T09:05:02Z</time>
      </trkpt>
      <trkpt lat="42.65134" lon="1.69226">
        <ele>2113.027</ele>
        <time>2022-09-17T09:05:04Z</time>
      </trkpt>
      <trkpt lat="42.65135" lon="1.69225">
        <ele>2113.589</ele>
        <time>2022-09-17T09:05:06Z</time>
      </trkpt>
      <trkpt lat="42.65136" lon="1.69224">
        <ele>2113.285</ele>
        <time>2022-09-17T09:05:08Z</time>
      </trkpt>
      <trkpt lat="42.65136" lon="1.69223">
        <ele>2113.879</ele>
        <time>2022-09-17T09:05:10Z</time>
      </trkpt>
      <trkpt lat="42.65138" lon="1.69222">
        <ele>2114.086</ele>
        <time>2022-09-17T09:05:12Z</time>
      </trkpt>
      <trkpt lat="42.65138" lon="1.69221">
        <ele>2113.519</ele>
        <time>2022-09-17T09:05:14Z</time>
      </trkpt>
      <trkpt lat="42.65139" lon="1.6922">
        <ele>2112.807</ele>
        <time>2022-09-17T09:05:16Z</time>
      </trkpt>
      <trkpt lat="42.6514" lon="1.69219">
        <ele>2113.236</ele>
        <time>2022-09-17T09:05:18Z</time>
      </trkpt>
      <trkpt lat="42.6514" lon="1.69217">
        <ele>2113.875</ele>
        <time>2022-09-17T09:05:20Z</time>
      </trkpt>
      <trkpt lat="42.65141" lon="1.69216">
        <ele>2115.16</ele>
        <time>2022-09-17T09:05:22Z</time>
      </trkpt>
      <trkpt lat="42.65142" lon="1.69215">
        <ele>2115.41</ele>
        <time>2022-09-17T09:05:24Z</time>
      </trkpt>
      <trkpt lat="42.65143" lon="1.69214">
        <ele>2116.381</ele>
        <time>2022-09-17T09:05:26Z</time>
      </trkpt>
      <trkpt lat="42.65145" lon="1.69213">
        <ele>2117.14</ele>
        <time>2022-09-17T09:05:28Z</time>
      </trkpt>
      <trkpt lat="42.65146" lon="1.69213">
        <ele>2117.723</ele>
        <time>2022-09-17T09:05:30Z</time>
      </trkpt>
      <trkpt lat="42.65147" lon="1.69212">
        <ele>2118.924</ele>
        <time>2022-09-17T09:05:32Z</time>
      </trkpt>
      <trkpt lat="42.65148" lon="1.69212">
        <ele>2119.615</ele>
        <time>2022-09-17T09:05:34Z</time>
      </trkpt>
      <trkpt lat="42.65149" lon="1.69211">
        <ele>2119.872</ele>
        <time>2022-09-17T09:05:36Z</time>
      </trkpt>
      <trkpt lat="42.6515" lon="1.69212">
        <ele>2120.574</ele>
        <time>2022-09-17T09:05:38Z</time>
      </trkpt>
      <trkpt lat="42.65151" lon="1.69211">
        <ele>2121.846</ele>
        <time>2022-09-17T09:05:40Z</time>
      </trkpt>
      <trkpt lat="42.65152" lon="1.69211">
        <ele>2122.289</ele>
        <time>2022-09-17T09:05:42Z</time>
      </trkpt>
      <trkpt lat="42.65154" lon="1.69211">
        <ele>2122.641</ele>
        <time>2022-09-17T09:05:44Z</time>
      </trkpt>
      <trkpt lat="42.65155" lon="1.69211">
        <ele>2123.059</ele>
        <time>2022-09-17T09:05:46Z</time>
      </trkpt>
      <trkpt lat="42.65156" lon="1.69211">
        <ele>2123.734</ele>
        <time>2022-09-17T09:05:48Z</time>
      </trkpt>
      <trkpt lat="42.65157" lon="1.69211">
        <ele>2123.391</ele>
        <time>2022-09-17T09:05:50Z</time>
      </trkpt>
      <trkpt lat="42.65158" lon="1.69211">
        <ele>2123.884</ele>
        <time>2022-09-17T09:05:52Z</time>
      </trkpt>
      <trkpt lat="42.65159" lon="1.69212">
        <ele>2123.91</ele>
        <time>2022-09-17T09:05:54Z</time>
      </trkpt>
      <trkpt lat="42.65159" lon="1.69211">
        <ele>2123.714</ele>
        <time>2022-09-17T09:05:56Z</time>
      </trkpt>
      <trkpt lat="42.6516" lon="1.6921">
        <ele>2123.263</ele>
        <time>2022-09-17T09:05:58Z</time>
      </trkpt>
      <trkpt lat="42.65161" lon="1.69209">
        <ele>2123.032</ele>
        <time>2022-09-17T09:06:00Z</time>
      </trkpt>
      <trkpt lat="42.65162" lon="1.69208">
        <ele>2123.137</ele>
        <time>2022-09-17T09:06:02Z</time>
      </trkpt>
      <trkpt lat="42.65163" lon="1.69208">
        <ele>2123.864</ele>
        <time>2022-09-17T09:06:04Z</time>
      </trkpt>
      <trkpt lat="42.65164" lon="1.69208">
        <ele>2124.72</ele>
        <time>2022-09-17T09:06:06Z</time>
      </trkpt>
      <trkpt lat="42.65165" lon="1.69207">
        <ele>2126.191</ele>
        <time>2022-09-17T09:06:08Z</time>
      </trkpt>
      <trkpt lat="42.65166" lon="1.69208">
        <ele>2126.304</ele>
        <time>2022-09-17T09:06:10Z</time>
      </trkpt>
      <trkpt lat="42.65167" lon="1.69208">
        <ele>2125.95</ele>
        <time>2022-09-17T09:06:12Z</time>
      </trkpt>
      <trkpt lat="42.65168" lon="1.69208">
        <ele>2126.623</ele>
        <time>2022-09-17T09:06:14Z</time>
      </trkpt>
      <trkpt lat="42.6517" lon="1.69207">
        <ele>2126.595</ele>
        <time>2022-09-17T09:06:16Z</time>
      </trkpt>
      <trkpt lat="42.6517" lon="1.69207">
        <ele>2126.906</ele>
        <time>2022-09-17T09:06:18Z</time>
      </trkpt>
      <trkpt lat="42.65171" lon="1.69207">
        <ele>2127.852</ele>
        <time>2022-09-17T09:06:20Z</time>
      </trkpt>
      <trkpt lat="42.65172" lon="1.69206">
        <ele>2128.069</ele>
        <time>2022-09-17T09:06:22Z</time>
      </trkpt>
      <trkpt lat="42.65173" lon="1.69206">
        <ele>2128.422</ele>
        <time>2022-09-17T09:06:24Z</time>
      </trkpt>
      <trkpt lat="42.65174" lon="1.69205">
        <ele>2128.769</ele>
        <time>2022-09-17T09:06:26Z</time>
      </trkpt>
      <trkpt lat="42.65175" lon="1.69204">
        <ele>2129.308</ele>
        <time>2022-09-17T09:06:28Z</time>
      </trkpt>
      <trkpt lat="42.65176" lon="1.69203">
        <ele>2128.855</ele>
        <time>2022-09-17T09:06:30Z</time>
      </trkpt>
      <trkpt lat="42.65177" lon="1.69203">
        <ele>2129.085</ele>
        <time>2022-09-17T09:06:32Z</time>
      </trkpt>
      <trkpt lat="42.65178" lon="1.69201">
        <ele>2129.542</ele>
        <time>2022-09-17T09:06:34Z</time>
      </trkpt>
      <trkpt lat="42.65179" lon="1.692">
        <ele>2129.869</ele>
        <time>2022-09-17T09:06:36Z</time>
      </trkpt>
      <trkpt lat="42.6518" lon="1.69198">
        <ele>2130.765</ele>
        <time>2022-09-17T09:06:38Z</time>
      </trkpt>
      <trkpt lat="42.65181" lon="1.69197">
        <ele>2130.419</ele>
        <time>2022-09-17T09:06:40Z</time>
      </trkpt>
      <trkpt lat="42.65182" lon="1.69196">
        <ele>2130.436</ele>
        <time>2022-09-17T09:06:42Z</time>
      </trkpt>
      <trkpt lat="42.65182" lon="1.69194">
        <ele>2130.523</ele>
        <time>2022-09-17T09:06:44Z</time>
      </trkpt>
      <trkpt lat="42.65183" lon="1.69193">
        <ele>2130.956</ele>
        <time>2022-09-17T09:06:46Z</time>
      </trkpt>
      <trkpt lat="42.65184" lon="1.69192">
        <ele>2131.499</ele>
        <time>2022-09-17T09:06:48Z</time>
      </trkpt>
      <trkpt lat="42.65185" lon="1.69192">
        <ele>2131.164</ele>
        <time>2022-09-17T09:06:50Z</time>
      </trkpt>
      <trkpt lat="42.65186" lon="1.69192">
        <ele>2131.686</ele>
        <time>2022-09-17T09:06:52Z</time>
      </trkpt>
      <trkpt lat="42.65187" lon="1.69192">
        <ele>2131.876</ele>
        <time>2022-09-17T09:06:54Z</time>
      </trkpt>
      <trkpt lat="42.65189" lon="1.69193">
        <ele>2132.717</ele>
        <time>2022-09-17T09:06:56Z</time>
      </trkpt>
      <trkpt lat="42.6519" lon="1.69194">
        <ele>2133.284</ele>
        <time>2022-09-17T09:06:58Z</time>
      </trkpt>
      <trkpt lat="42.65191" lon="1.69194">
        <ele>2134.035</ele>
        <time>2022-09-17T09:07:00Z</time>
      </trkpt>
      <trkpt lat="42.65192" lon="1.69195">
        <ele>2134.01</ele>
        <time>2022-09-17T09:07:02Z</time>
      </trkpt>
      <trkpt lat="42.65193" lon="1.69195">
        <ele>2134.468</ele>
        <time>2022-09-17T09:07:04Z</time>
      </trkpt>
      <trkpt lat="42.65194" lon="1.69195">
        <ele>2134.266</ele>
        <time>2022-09-17T09:07:06Z</time>
      </trkpt>
      <trkpt lat="42.65195" lon="1.69196">
        <ele>2133.783</ele>
        <time>2022-09-17T09:07:08Z</time>
      </trkpt>
      <trkpt lat="42.65195" lon="1.69196">
        <ele>2134.197</ele>
        <time>2022-09-17T09:07:10Z</time>
      </trkpt>
      <trkpt lat="42.65196" lon="1.69197">
        <ele>2133.804</ele>
        <time>2022-09-17T09:07:12Z</time>
      </trkpt>
      <trkpt lat="42.65196" lon="1.69198">
        <ele>2132.994</ele>
        <time>2022-09-17T09:07:14Z</time>
      </trkpt>
      <trkpt lat="42.65196" lon="1.69199">
        <ele>2133.112</ele>
        <time>2022-09-17T09:07:16Z</time>
      </trkpt>
      <trkpt lat="42.65197" lon="1.692">
        <ele>2134.215</ele>
        <time>2022-09-17T09:07:18Z</time>
      </trkpt>
      <trkpt lat="42.65197" lon="1.69201">
        <ele>2134.851</ele>
        <time>2022-09-17T09:07:20Z</time>
      </trkpt>
      <trkpt lat="42.65198" lon="1.69201">
        <ele>2135.579</ele>
        <time>2022-09-17T09:07:22Z</time>
      </trkpt>
      <trkpt lat="42.65199" lon="1.69201">
        <ele>2136.401</ele>
        <time>2022-09-17T09:07:24Z</time>
      </trkpt>
      <trkpt lat="42.652" lon="1.69201">
        <ele>2136.924</ele>
        <time>2022-09-17T09:07:26Z</time>
      </trkpt>
      <trkpt lat="42.65201" lon="1.69202">
        <ele>2136.877</ele>
        <time>2022-09-17T09:07:28Z</time>
      </trkpt>
      <trkpt lat="42.65203" lon="1.69202">
        <ele>2137.725</ele>
        <time>2022-09-17T09:07:30Z</time>
      </trkpt>
      <trkpt lat="42.65204" lon="1.69202">
        <ele>2137.725</ele>
        <time>2022-09-17T09:07:32Z</time>
      </trkpt>
      <trkpt lat="42.65205" lon="1.69202">
        <ele>2137.862</ele>
        <time>2022-09-17T09:07:34Z</time>
      </trkpt>
      <trkpt lat="42.65206" lon="1.69203">
        <ele>2138.019</ele>
        <time>2022-09-17T09:07:36Z</time>
      </trkpt>
      <trkpt lat="42.65207" lon="1.69203">
        <ele>2138.234</ele>
        <time>2022-09-17T09:07:38Z</time>
      </trkpt>
      <trkpt lat="42.65208" lon="1.69203">
        <ele>2139.023</ele>
        <time>2022-09-17T09:07:40Z</time>
      </trkpt>
      <trkpt lat="42.65209" lon="1.69203">
        <ele>2138.756</ele>
        <time>2022-09-17T09:07:42Z</time>
      </trkpt>
      <trkpt lat="42.65211" lon="1.69203">
        <ele>2139.256</ele>
        <time>2022-09-17T09:07:44Z</time>
      </trkpt>
      <trkpt lat="42.65212" lon="1.69203">
        <ele>2138.95</ele>
        <time>2022-09-17T09:07:46Z</time>
      </trkpt>
      <trkpt lat="42.65213" lon="1.69202">
        <ele>2138.913</ele>
        <time>2022-09-17T09:07:48Z</time>
      </trkpt>
      <trkpt lat="42.65214" lon="1.69202">
        <ele>2139.059</ele>
        <time>2022-09-17T09:07:50Z</time>
      </trkpt>
      <trkpt lat="42.65215" lon="1.69202">
        <ele>2139.835</ele>
        <time>2022-09-17T09:07:52Z</time>
      </trkpt>
      <trkpt lat="42.65217" lon="1.69203">
        <ele>2140.67</ele>
        <time>2022-09-17T09:07:54Z</time>
      </trkpt>
      <trkpt lat="42.65218" lon="1.69205">
        <ele>2141.037</ele>
        <time>2022-09-17T09:07:56Z</time>
      </trkpt>
      <trkpt lat="42.65219" lon="1.69205">
        <ele>2141.299</ele>
        <time>2022-09-17T09:07:58Z</time>
      </trkpt>
      <trkpt lat="42.6522" lon="1.69205">
        <ele>2141.581</ele>
        <time>2022-09-17T09:08:00Z</time>
      </trkpt>
      <trkpt lat="42.65221" lon="1.69205">
        <ele>2141.58</ele>
        <time>2022-09-17T09:08:02Z</time>
      </trkpt>
      <trkpt lat="42.65223" lon="1.69204">
        <ele>2141.956</ele>
        <time>2022-09-17T09:08:04Z</time>
      </trkpt>
      <trkpt lat="42.65224" lon="1.69204">
        <ele>2142.087</ele>
        <time>2022-09-17T09:08:06Z</time>
      </trkpt>
      <trkpt lat="42.65226" lon="1.69204">
        <ele>2142.054</ele>
        <time>2022-09-17T09:08:08Z</time>
      </trkpt>
      <trkpt lat="42.65228" lon="1.69205">
        <ele>2143.442</ele>
        <time>2022-09-17T09:08:10Z</time>
      </trkpt>
      <trkpt lat="42.65229" lon="1.69205">
        <ele>2143.178</ele>
        <time>2022-09-17T09:08:12Z</time>
      </trkpt>
      <trkpt lat="42.65231" lon="1.69206">
        <ele>2144.006</ele>
        <time>2022-09-17T09:08:14Z</time>
      </trkpt>
      <trkpt lat="42.65232" lon="1.69206">
        <ele>2144.159</ele>
        <time>2022-09-17T09:08:16Z</time>
      </trkpt>
      <trkpt lat="42.65233" lon="1.69207">
        <ele>2144.428</ele>
        <time>2022-09-17T09:08:18Z</time>
      </trkpt>
      <trkpt lat="42.65234" lon="1.69208">
        <ele>2144.678</ele>
        <time>2022-09-17T09:08:20Z</time>
      </trkpt>
      <trkpt lat="42.65235" lon="1.69208">
        <ele>2145.801</ele>
        <time>2022-09-17T09:08:22Z</time>
      </trkpt>
      <trkpt lat="42.65236" lon="1.6921">
        <ele>2145.743</ele>
        <time>2022-09-17T09:08:24Z</time>
      </trkpt>
      <trkpt lat="42.65237" lon="1.6921">
        <ele>2145.932</ele>
        <time>2022-09-17T09:08:26Z</time>
      </trkpt>
      <trkpt lat="42.65239" lon="1.6921">
        <ele>2146.321</ele>
        <time>2022-09-17T09:08:28Z</time>
      </trkpt>
      <trkpt lat="42.6524" lon="1.69211">
        <ele>2146.955</ele>
        <time>2022-09-17T09:08:30Z</time>
      </trkpt>
      <trkpt lat="42.65241" lon="1.69211">
        <ele>2147.387</ele>
        <time>2022-09-17T09:08:32Z</time>
      </trkpt>
      <trkpt lat="42.65242" lon="1.69211">
        <ele>2146.881</ele>
        <time>2022-09-17T09:08:34Z</time>
      </trkpt>
      <trkpt lat="42.65243" lon="1.69212">
        <ele>2147.541</ele>
        <time>2022-09-17T09:08:36Z</time>
      </trkpt>
      <trkpt lat="42.65245" lon="1.69212">
        <ele>2147.779</ele>
        <time>2022-09-17T09:08:38Z</time>
      </trkpt>
      <trkpt lat="42.65246" lon="1.69212">
        <ele>2148.205</ele>
        <time>2022-09-17T09:08:40Z</time>
      </trkpt>
      <trkpt lat="42.65247" lon="1.69212">
        <ele>2148.273</ele>
        <time>2022-09-17T09:08:42Z</time>
      </trkpt>
      <trkpt lat="42.65248" lon="1.69212">
        <ele>2148.234</ele>
        <time>2022-09-17T09:08:44Z</time>
      </trkpt>
      <trkpt lat="42.65249" lon="1.69212">
        <ele>2148.341</ele>
        <time>2022-09-17T09:08:46Z</time>
      </trkpt>
      <trkpt lat="42.6525" lon="1.69212">
        <ele>2147.944</ele>
        <time>2022-09-17T09:08:48Z</time>
      </trkpt>
      <trkpt lat="42.65252" lon="1.69213">
        <ele>2147.328</ele>
        <time>2022-09-17T09:08:50Z</time>
      </trkpt>
      <trkpt lat="42.65254" lon="1.69213">
        <ele>2147.324</ele>
        <time>2022-09-17T09:08:52Z</time>
      </trkpt>
      <trkpt lat="42.65255" lon="1.69214">
        <ele>2147.753</ele>
        <time>2022-09-17T09:08:54Z</time>
      </trkpt>
      <trkpt lat="42.65256" lon="1.69215">
        <ele>2147.566</ele>
        <time>2022-09-17T09:08:56Z</time>
      </trkpt>
      <trkpt lat="42.65256" lon="1.69218">
        <ele>2147.248</ele>
        <time>2022-09-17T09:08:58Z</time>
      </trkpt>
      <trkpt lat="42.65256" lon="1.6922">
        <ele>2147.574</ele>
        <time>2022-09-17T09:09:00Z</time>
      </trkpt>
      <trkpt lat="42.65257" lon="1.69223">
        <ele>2147.437</ele>
        <time>2022-09-17T09:09:02Z</time>
      </trkpt>
      <trkpt lat="42.65257" lon="1.69225">
        <ele>2147.424</ele>
        <time>2022-09-17T09:09:04Z</time>
      </trkpt>
      <trkpt lat="42.65257" lon="1.69228">
        <ele>2146.744</ele>
        <time>2022-09-17T09:09:06Z</time>
      </trkpt>
      <trkpt lat="42.65257" lon="1.69231">
        <ele>2146.582</ele>
        <time>2022-09-17T09:09:08Z</time>
      </trkpt>
      <trkpt lat="42.65257" lon="1.69233">
        <ele>2146.131</ele>
        <time>2022-09-17T09:09:10Z</time>
      </trkpt>
      <trkpt lat="42.65257" lon="1.69236">
        <ele>2145.465</ele>
        <time>2022-09-17T09:09:12Z</time>
      </trkpt>
      <trkpt lat="42.65257" lon="1.69239">
        <ele>2145.43</ele>
        <time>2022-09-17T09:09:14Z</time>
      </trkpt>
      <trkpt lat="42.65257" lon="1.69241">
        <ele>2145.261</ele>
        <time>2022-09-17T09:09:16Z</time>
      </trkpt>
      <trkpt lat="42.65258" lon="1.69243">
        <ele>2144.553</ele>
        <time>2022-09-17T09:09:18Z</time>
      </trkpt>
      <trkpt lat="42.65259" lon="1.69245">
        <ele>2143.961</ele>
        <time>2022-09-17T09:09:20Z</time>
      </trkpt>
      <trkpt lat="42.6526" lon="1.69247">
        <ele>2143.657</ele>
        <time>2022-09-17T09:09:22Z</time>
      </trkpt>
      <trkpt lat="42.6526" lon="1.6925">
        <ele>2143.566</ele>
        <time>2022-09-17T09:09:24Z</time>
      </trkpt>
      <trkpt lat="42.6526" lon="1.69253">
        <ele>2143.164</ele>
        <time>2022-09-17T09:09:26Z</time>
      </trkpt>
      <trkpt lat="42.65261" lon="1.69255">
        <ele>2143.308</ele>
        <time>2022-09-17T09:09:28Z</time>
      </trkpt>
      <trkpt lat="42.65261" lon="1.69258">
        <ele>2143.335</ele>
        <time>2022-09-17T09:09:30Z</time>
      </trkpt>
      <trkpt lat="42.65261" lon="1.69261">
        <ele>2143.599</ele>
        <time>2022-09-17T09:09:32Z</time>
      </trkpt>
      <trkpt lat="42.65261" lon="1.69264">
        <ele>2143.917</ele>
        <time>2022-09-17T09:09:34Z</time>
      </trkpt>
      <trkpt lat="42.65262" lon="1.69268">
        <ele>2144.309</ele>
        <time>2022-09-17T09:09:36Z</time>
      </trkpt>
      <trkpt lat="42.65261" lon="1.6927">
        <ele>2144.552</ele>
        <time>2022-09-17T09:09:38Z</time>
      </trkpt>
      <trkpt lat="42.65261" lon="1.69271">
        <ele>2144.117</ele>
        <time>2022-09-17T09:09:40Z</time>
      </trkpt>
      <trkpt lat="42.65261" lon="1.69272">
        <ele>2145.028</ele>
        <time>2022-09-17T09:09:42Z</time>
      </trkpt>
      <trkpt lat="42.65262" lon="1.69272">
        <ele>2145.029</ele>
        <time>2022-09-17T09:09:44Z</time>
      </trkpt>
      <trkpt lat="42.65262" lon="1.69272">
        <ele>2145.033</ele>
        <time>2022-09-17T09:09:46Z</time>
      </trkpt>
      <trkpt lat="42.65262" lon="1.69272">
        <ele>2145.035</ele>
        <time>2022-09-17T09:09:48Z</time>
      </trkpt>
      <trkpt lat="42.65262" lon="1.69272">
        <ele>2145.022</ele>
        <time>2022-09-17T09:09:50Z</time>
      </trkpt>
      <trkpt lat="42.65262" lon="1.69272">
        <ele>2145.412</ele>
        <time>2022-09-17T09:09:52Z</time>
      </trkpt>
      <trkpt lat="42.65262" lon="1.69272">
        <ele>2145.42</ele>
        <time>2022-09-17T09:09:54Z</time>
      </trkpt>
      <trkpt lat="42.65262" lon="1.69272">
        <ele>2145.413</ele>
        <time>2022-09-17T09:09:56Z</time>
      </trkpt>
      <trkpt lat="42.65262" lon="1.69272">
        <ele>2145.408</ele>
        <time>2022-09-17T09:09:58Z</time>
      </trkpt>
      <trkpt lat="42.65262" lon="1.69272">
        <ele>2145.294</ele>
        <time>2022-09-17T09:10:00Z</time>
      </trkpt>
      <trkpt lat="42.65262" lon="1.69272">
        <ele>2144.884</ele>
        <time>2022-09-17T09:10:02Z</time>
      </trkpt>
      <trkpt lat="42.65262" lon="1.69271">
        <ele>2144.614</ele>
        <time>2022-09-17T09:10:04Z</time>
      </trkpt>
      <trkpt lat="42.65262" lon="1.69271">
        <ele>2144.617</ele>
        <time>2022-09-17T09:10:06Z</time>
      </trkpt>
      <trkpt lat="42.65262" lon="1.69271">
        <ele>2144.623</ele>
        <time>2022-09-17T09:10:08Z</time>
      </trkpt>
      <trkpt lat="42.65262" lon="1.69271">
        <ele>2144.619</ele>
        <time>2022-09-17T09:10:10Z</time>
      </trkpt>
      <trkpt lat="42.65262" lon="1.69271">
        <ele>2144.616</ele>
        <time>2022-09-17T09:10:12Z</time>
      </trkpt>
      <trkpt lat="42.65262" lon="1.69271">
        <ele>2144.669</ele>
        <time>2022-09-17T09:10:14Z</time>
      </trkpt>
      <trkpt lat="42.65262" lon="1.6927">
        <ele>2145.073</ele>
        <time>2022-09-17T09:10:16Z</time>
      </trkpt>
      <trkpt lat="42.65262" lon="1.6927">
        <ele>2145.072</ele>
        <time>2022-09-17T09:10:18Z</time>
      </trkpt>
      <trkpt lat="42.65262" lon="1.69269">
        <ele>2145.285</ele>
        <time>2022-09-17T09:10:20Z</time>
      </trkpt>
      <trkpt lat="42.65262" lon="1.69268">
        <ele>2144.647</ele>
        <time>2022-09-17T09:10:22Z</time>
      </trkpt>
      <trkpt lat="42.65262" lon="1.69268">
        <ele>2144.503</ele>
        <time>2022-09-17T09:10:24Z</time>
      </trkpt>
      <trkpt lat="42.65262" lon="1.69268">
        <ele>2144.185</ele>
        <time>2022-09-17T09:10:26Z</time>
      </trkpt>
      <trkpt lat="42.65261" lon="1.69267">
        <ele>2144.115</ele>
        <time>2022-09-17T09:10:28Z</time>
      </trkpt>
      <trkpt lat="42.65262" lon="1.69267">
        <ele>2144.227</ele>
        <time>2022-09-17T09:10:30Z</time>
      </trkpt>
      <trkpt lat="42.65262" lon="1.69267">
        <ele>2143.691</ele>
        <time>2022-09-17T09:10:32Z</time>
      </trkpt>
      <trkpt lat="42.65262" lon="1.69267">
        <ele>2143.681</ele>
        <time>2022-09-17T09:10:34Z</time>
      </trkpt>
      <trkpt lat="42.65262" lon="1.69267">
        <ele>2143.682</ele>
        <time>2022-09-17T09:10:36Z</time>
      </trkpt>
      <trkpt lat="42.65262" lon="1.69267">
        <ele>2143.669</ele>
        <time>2022-09-17T09:10:38Z</time>
      </trkpt>
      <trkpt lat="42.65262" lon="1.69267">
        <ele>2143.643</ele>
        <time>2022-09-17T09:10:40Z</time>
      </trkpt>
      <trkpt lat="42.65262" lon="1.69267">
        <ele>2143.644</ele>
        <time>2022-09-17T09:10:42Z</time>
      </trkpt>
      <trkpt lat="42.65262" lon="1.69267">
        <ele>2143.649</ele>
        <time>2022-09-17T09:10:44Z</time>
      </trkpt>
      <trkpt lat="42.65262" lon="1.69267">
        <ele>2143.637</ele>
        <time>2022-09-17T09:10:46Z</time>
      </trkpt>
      <trkpt lat="42.65262" lon="1.69267">
        <ele>2143.628</ele>
        <time>2022-09-17T09:10:48Z</time>
      </trkpt>
      <trkpt lat="42.65262" lon="1.69267">
        <ele>2143.625</ele>
        <time>2022-09-17T09:10:50Z</time>
      </trkpt>
      <trkpt lat="42.65262" lon="1.69268">
        <ele>2143.619</ele>
        <time>2022-09-17T09:10:52Z</time>
      </trkpt>
      <trkpt lat="42.65262" lon="1.69268">
        <ele>2143.613</ele>
        <time>2022-09-17T09:10:54Z</time>
      </trkpt>
      <trkpt lat="42.65262" lon="1.69268">
        <ele>2143.61</ele>
        <time>2022-09-17T09:10:56Z</time>
      </trkpt>
      <trkpt lat="42.65262" lon="1.69268">
        <ele>2143.608</ele>
        <time>2022-09-17T09:10:58Z</time>
      </trkpt>
      <trkpt lat="42.65262" lon="1.69268">
        <ele>2143.605</ele>
        <time>2022-09-17T09:11:00Z</time>
      </trkpt>
      <trkpt lat="42.65262" lon="1.69268">
        <ele>2143.611</ele>
        <time>2022-09-17T09:11:02Z</time>
      </trkpt>
      <trkpt lat="42.65262" lon="1.69268">
        <ele>2143.612</ele>
        <time>2022-09-17T09:11:04Z</time>
      </trkpt>
      <trkpt lat="42.65262" lon="1.69268">
        <ele>2143.617</ele>
        <time>2022-09-17T09:11:06Z</time>
      </trkpt>
      <trkpt lat="42.65262" lon="1.69268">
        <ele>2143.621</ele>
        <time>2022-09-17T09:11:08Z</time>
      </trkpt>
      <trkpt lat="42.65262" lon="1.69268">
        <ele>2143.614</ele>
        <time>2022-09-17T09:11:10Z</time>
      </trkpt>
      <trkpt lat="42.65262" lon="1.69267">
        <ele>2143.368</ele>
        <time>2022-09-17T09:11:12Z</time>
      </trkpt>
      <trkpt lat="42.65262" lon="1.69267">
        <ele>2143.339</ele>
        <time>2022-09-17T09:11:14Z</time>
      </trkpt>
      <trkpt lat="42.65262" lon="1.69267">
        <ele>2143.423</ele>
        <time>2022-09-17T09:11:16Z</time>
      </trkpt>
      <trkpt lat="42.65262" lon="1.69267">
        <ele>2143.428</ele>
        <time>2022-09-17T09:11:18Z</time>
      </trkpt>
      <trkpt lat="42.65262" lon="1.69267">
        <ele>2143.428</ele>
        <time>2022-09-17T09:11:20Z</time>
      </trkpt>
      <trkpt lat="42.65262" lon="1.69267">
        <ele>2143.44</ele>
        <time>2022-09-17T09:11:22Z</time>
      </trkpt>
      <trkpt lat="42.65262" lon="1.69267">
        <ele>2143.463</ele>
        <time>2022-09-17T09:11:24Z</time>
      </trkpt>
      <trkpt lat="42.65262" lon="1.69267">
        <ele>2143.477</ele>
        <time>2022-09-17T09:11:26Z</time>
      </trkpt>
      <trkpt lat="42.65262" lon="1.69267">
        <ele>2144.475</ele>
        <time>2022-09-17T09:11:28Z</time>
      </trkpt>
      <trkpt lat="42.65262" lon="1.69267">
        <ele>2145.055</ele>
        <time>2022-09-17T09:11:30Z</time>
      </trkpt>
      <trkpt lat="42.65261" lon="1.69267">
        <ele>2145.512</ele>
        <time>2022-09-17T09:11:32Z</time>
      </trkpt>
      <trkpt lat="42.65261" lon="1.69267">
        <ele>2145.518</ele>
        <time>2022-09-17T09:11:34Z</time>
      </trkpt>
      <trkpt lat="42.65261" lon="1.69267">
        <ele>2145.156</ele>
        <time>2022-09-17T09:11:36Z</time>
      </trkpt>
      <trkpt lat="42.65261" lon="1.69267">
        <ele>2145.243</ele>
        <time>2022-09-17T09:11:38Z</time>
      </trkpt>
      <trkpt lat="42.65261" lon="1.69267">
        <ele>2145.256</ele>
        <time>2022-09-17T09:11:40Z</time>
      </trkpt>
      <trkpt lat="42.65261" lon="1.69267">
        <ele>2145.259</ele>
        <time>2022-09-17T09:11:42Z</time>
      </trkpt>
      <trkpt lat="42.65261" lon="1.69267">
        <ele>2145.293</ele>
        <time>2022-09-17T09:11:44Z</time>
      </trkpt>
      <trkpt lat="42.65261" lon="1.69267">
        <ele>2145.299</ele>
        <time>2022-09-17T09:11:46Z</time>
      </trkpt>
      <trkpt lat="42.65261" lon="1.69267">
        <ele>2145.293</ele>
        <time>2022-09-17T09:11:48Z</time>
      </trkpt>
      <trkpt lat="42.65261" lon="1.69267">
        <ele>2145.438</ele>
        <time>2022-09-17T09:11:50Z</time>
      </trkpt>
      <trkpt lat="42.65261" lon="1.69267">
        <ele>2145.438</ele>
        <time>2022-09-17T09:11:52Z</time>
      </trkpt>
      <trkpt lat="42.65261" lon="1.69267">
        <ele>2145.432</ele>
        <time>2022-09-17T09:11:54Z</time>
      </trkpt>
      <trkpt lat="42.65261" lon="1.69267">
        <ele>2145.437</ele>
        <time>2022-09-17T09:11:56Z</time>
      </trkpt>
      <trkpt lat="42.65261" lon="1.69267">
        <ele>2145.437</ele>
        <time>2022-09-17T09:11:58Z</time>
      </trkpt>
      <trkpt lat="42.65261" lon="1.69267">
        <ele>2145.44</ele>
        <time>2022-09-17T09:12:00Z</time>
      </trkpt>
      <trkpt lat="42.65261" lon="1.69267">
        <ele>2145.435</ele>
        <time>2022-09-17T09:12:02Z</time>
      </trkpt>
      <trkpt lat="42.65261" lon="1.69267">
        <ele>2145.53</ele>
        <time>2022-09-17T09:12:04Z</time>
      </trkpt>
      <trkpt lat="42.65261" lon="1.69267">
        <ele>2145.53</ele>
        <time>2022-09-17T09:12:06Z</time>
      </trkpt>
      <trkpt lat="42.65261" lon="1.69267">
        <ele>2145.527</ele>
        <time>2022-09-17T09:12:08Z</time>
      </trkpt>
      <trkpt lat="42.65261" lon="1.69267">
        <ele>2145.525</ele>
        <time>2022-09-17T09:12:10Z</time>
      </trkpt>
      <trkpt lat="42.65261" lon="1.69267">
        <ele>2145.525</ele>
        <time>2022-09-17T09:12:12Z</time>
      </trkpt>
      <trkpt lat="42.65261" lon="1.69267">
        <ele>2145.523</ele>
        <time>2022-09-17T09:12:14Z</time>
      </trkpt>
      <trkpt lat="42.65261" lon="1.69267">
        <ele>2145.523</ele>
        <time>2022-09-17T09:12:16Z</time>
      </trkpt>
      <trkpt lat="42.65261" lon="1.69267">
        <ele>2145.52</ele>
        <time>2022-09-17T09:12:18Z</time>
      </trkpt>
      <trkpt lat="42.65261" lon="1.69267">
        <ele>2145.521</ele>
        <time>2022-09-17T09:12:20Z</time>
      </trkpt>
      <trkpt lat="42.65261" lon="1.69267">
        <ele>2145.638</ele>
        <time>2022-09-17T09:12:22Z</time>
      </trkpt>
      <trkpt lat="42.65261" lon="1.69267">
        <ele>2145.64</ele>
        <time>2022-09-17T09:12:24Z</time>
      </trkpt>
      <trkpt lat="42.65261" lon="1.69267">
        <ele>2145.637</ele>
        <time>2022-09-17T09:12:26Z</time>
      </trkpt>
      <trkpt lat="42.65261" lon="1.69267">
        <ele>2145.64</ele>
        <time>2022-09-17T09:12:28Z</time>
      </trkpt>
      <trkpt lat="42.65261" lon="1.69267">
        <ele>2145.64</ele>
        <time>2022-09-17T09:12:30Z</time>
      </trkpt>
      <trkpt lat="42.65261" lon="1.69267">
        <ele>2145.635</ele>
        <time>2022-09-17T09:12:32Z</time>
      </trkpt>
      <trkpt lat="42.65261" lon="1.69267">
        <ele>2145.637</ele>
        <time>2022-09-17T09:12:34Z</time>
      </trkpt>
      <trkpt lat="42.65261" lon="1.69267">
        <ele>2145.643</ele>
        <time>2022-09-17T09:12:36Z</time>
      </trkpt>
      <trkpt lat="42.65261" lon="1.69267">
        <ele>2145.64</ele>
        <time>2022-09-17T09:12:38Z</time>
      </trkpt>
      <trkpt lat="42.65261" lon="1.69267">
        <ele>2145.641</ele>
        <time>2022-09-17T09:12:40Z</time>
      </trkpt>
      <trkpt lat="42.65261" lon="1.69267">
        <ele>2145.644</ele>
        <time>2022-09-17T09:12:42Z</time>
      </trkpt>
      <trkpt lat="42.65261" lon="1.69267">
        <ele>2145.64</ele>
        <time>2022-09-17T09:12:44Z</time>
      </trkpt>
      <trkpt lat="42.65261" lon="1.69267">
        <ele>2145.64</ele>
        <time>2022-09-17T09:12:46Z</time>
      </trkpt>
      <trkpt lat="42.65261" lon="1.69267">
        <ele>2145.639</ele>
        <time>2022-09-17T09:12:48Z</time>
      </trkpt>
      <trkpt lat="42.65261" lon="1.69267">
        <ele>2145.639</ele>
        <time>2022-09-17T09:12:50Z</time>
      </trkpt>
      <trkpt lat="42.65261" lon="1.69267">
        <ele>2145.633</ele>
        <time>2022-09-17T09:12:52Z</time>
      </trkpt>
      <trkpt lat="42.65261" lon="1.69267">
        <ele>2145.63</ele>
        <time>2022-09-17T09:12:54Z</time>
      </trkpt>
      <trkpt lat="42.65261" lon="1.69267">
        <ele>2145.629</ele>
        <time>2022-09-17T09:12:56Z</time>
      </trkpt>
      <trkpt lat="42.65261" lon="1.69267">
        <ele>2145.625</ele>
        <time>2022-09-17T09:12:58Z</time>
      </trkpt>
      <trkpt lat="42.65261" lon="1.69267">
        <ele>2145.623</ele>
        <time>2022-09-17T09:13:00Z</time>
      </trkpt>
      <trkpt lat="42.65261" lon="1.69267">
        <ele>2145.62</ele>
        <time>2022-09-17T09:13:02Z</time>
      </trkpt>
      <trkpt lat="42.65261" lon="1.69267">
        <ele>2145.618</ele>
        <time>2022-09-17T09:13:04Z</time>
      </trkpt>
      <trkpt lat="42.65261" lon="1.69267">
        <ele>2145.615</ele>
        <time>2022-09-17T09:13:06Z</time>
      </trkpt>
      <trkpt lat="42.65261" lon="1.69267">
        <ele>2145.613</ele>
        <time>2022-09-17T09:13:08Z</time>
      </trkpt>
      <trkpt lat="42.65261" lon="1.69267">
        <ele>2145.611</ele>
        <time>2022-09-17T09:13:10Z</time>
      </trkpt>
      <trkpt lat="42.65261" lon="1.69267">
        <ele>2145.611</ele>
        <time>2022-09-17T09:13:12Z</time>
      </trkpt>
      <trkpt lat="42.65261" lon="1.69267">
        <ele>2145.617</ele>
        <time>2022-09-17T09:13:14Z</time>
      </trkpt>
      <trkpt lat="42.65261" lon="1.69267">
        <ele>2145.622</ele>
        <time>2022-09-17T09:13:16Z</time>
      </trkpt>
      <trkpt lat="42.65261" lon="1.69267">
        <ele>2145.625</ele>
        <time>2022-09-17T09:13:18Z</time>
      </trkpt>
      <trkpt lat="42.65261" lon="1.69267">
        <ele>2145.618</ele>
        <time>2022-09-17T09:13:20Z</time>
      </trkpt>
      <trkpt lat="42.65261" lon="1.69267">
        <ele>2145.608</ele>
        <time>2022-09-17T09:13:22Z</time>
      </trkpt>
      <trkpt lat="42.65261" lon="1.69267">
        <ele>2145.6</ele>
        <time>2022-09-17T09:13:24Z</time>
      </trkpt>
      <trkpt lat="42.65261" lon="1.69267">
        <ele>2145.598</ele>
        <time>2022-09-17T09:13:26Z</time>
      </trkpt>
      <trkpt lat="42.65261" lon="1.69267">
        <ele>2145.595</ele>
        <time>2022-09-17T09:13:28Z</time>
      </trkpt>
      <trkpt lat="42.65261" lon="1.69267">
        <ele>2145.586</ele>
        <time>2022-09-17T09:13:30Z</time>
      </trkpt>
      <trkpt lat="42.65261" lon="1.69267">
        <ele>2145.571</ele>
        <time>2022-09-17T09:13:32Z</time>
      </trkpt>
      <trkpt lat="42.65261" lon="1.69267">
        <ele>2145.419</ele>
        <time>2022-09-17T09:13:34Z</time>
      </trkpt>
      <trkpt lat="42.65261" lon="1.69267">
        <ele>2145.416</ele>
        <time>2022-09-17T09:13:36Z</time>
      </trkpt>
      <trkpt lat="42.65261" lon="1.69267">
        <ele>2145.401</ele>
        <time>2022-09-17T09:13:38Z</time>
      </trkpt>
      <trkpt lat="42.65261" lon="1.69267">
        <ele>2145.399</ele>
        <time>2022-09-17T09:13:40Z</time>
      </trkpt>
      <trkpt lat="42.65261" lon="1.69267">
        <ele>2145.36</ele>
        <time>2022-09-17T09:13:42Z</time>
      </trkpt>
      <trkpt lat="42.65261" lon="1.69267">
        <ele>2145.338</ele>
        <time>2022-09-17T09:13:44Z</time>
      </trkpt>
      <trkpt lat="42.65261" lon="1.69267">
        <ele>2145.315</ele>
        <time>2022-09-17T09:13:46Z</time>
      </trkpt>
      <trkpt lat="42.65261" lon="1.69267">
        <ele>2145.287</ele>
        <time>2022-09-17T09:13:48Z</time>
      </trkpt>
      <trkpt lat="42.65261" lon="1.69267">
        <ele>2145.284</ele>
        <time>2022-09-17T09:13:50Z</time>
      </trkpt>
      <trkpt lat="42.65261" lon="1.69267">
        <ele>2145.208</ele>
        <time>2022-09-17T09:13:52Z</time>
      </trkpt>
      <trkpt lat="42.65261" lon="1.69267">
        <ele>2145.206</ele>
        <time>2022-09-17T09:13:54Z</time>
      </trkpt>
      <trkpt lat="42.65261" lon="1.69267">
        <ele>2145.209</ele>
        <time>2022-09-17T09:13:56Z</time>
      </trkpt>
      <trkpt lat="42.65261" lon="1.69267">
        <ele>2145.208</ele>
        <time>2022-09-17T09:13:58Z</time>
      </trkpt>
      <trkpt lat="42.65261" lon="1.69267">
        <ele>2145.205</ele>
        <time>2022-09-17T09:14:00Z</time>
      </trkpt>
      <trkpt lat="42.65261" lon="1.69267">
        <ele>2145.177</ele>
        <time>2022-09-17T09:14:02Z</time>
      </trkpt>
      <trkpt lat="42.65261" lon="1.69267">
        <ele>2145.167</ele>
        <time>2022-09-17T09:14:04Z</time>
      </trkpt>
      <trkpt lat="42.65262" lon="1.69267">
        <ele>2145.218</ele>
        <time>2022-09-17T09:14:06Z</time>
      </trkpt>
      <trkpt lat="42.65262" lon="1.69267">
        <ele>2145.214</ele>
        <time>2022-09-17T09:14:08Z</time>
      </trkpt>
      <trkpt lat="42.65262" lon="1.69267">
        <ele>2145.191</ele>
        <time>2022-09-17T09:14:10Z</time>
      </trkpt>
      <trkpt lat="42.65262" lon="1.69267">
        <ele>2145.178</ele>
        <time>2022-09-17T09:14:12Z</time>
      </trkpt>
      <trkpt lat="42.65262" lon="1.69267">
        <ele>2145.177</ele>
        <time>2022-09-17T09:14:14Z</time>
      </trkpt>
      <trkpt lat="42.65262" lon="1.69267">
        <ele>2145.177</ele>
        <time>2022-09-17T09:14:16Z</time>
      </trkpt>
      <trkpt lat="42.65262" lon="1.69267">
        <ele>2145.176</ele>
        <time>2022-09-17T09:14:18Z</time>
      </trkpt>
      <trkpt lat="42.65262" lon="1.69267">
        <ele>2145.171</ele>
        <time>2022-09-17T09:14:20Z</time>
      </trkpt>
      <trkpt lat="42.65262" lon="1.69267">
        <ele>2145.169</ele>
        <time>2022-09-17T09:14:22Z</time>
      </trkpt>
      <trkpt lat="42.65262" lon="1.69267">
        <ele>2145.168</ele>
        <time>2022-09-17T09:14:24Z</time>
      </trkpt>
      <trkpt lat="42.65262" lon="1.69267">
        <ele>2145.167</ele>
        <time>2022-09-17T09:14:26Z</time>
      </trkpt>
      <trkpt lat="42.65262" lon="1.69267">
        <ele>2145.163</ele>
        <time>2022-09-17T09:14:28Z</time>
      </trkpt>
      <trkpt lat="42.65262" lon="1.69267">
        <ele>2145.159</ele>
        <time>2022-09-17T09:14:30Z</time>
      </trkpt>
      <trkpt lat="42.65261" lon="1.69267">
        <ele>2145.211</ele>
        <time>2022-09-17T09:14:32Z</time>
      </trkpt>
      <trkpt lat="42.65261" lon="1.69267">
        <ele>2145.207</ele>
        <time>2022-09-17T09:14:34Z</time>
      </trkpt>
      <trkpt lat="42.65261" lon="1.69267">
        <ele>2145.041</ele>
        <time>2022-09-17T09:14:36Z</time>
      </trkpt>
      <trkpt lat="42.65261" lon="1.69267">
        <ele>2145.08</ele>
        <time>2022-09-17T09:14:38Z</time>
      </trkpt>
      <trkpt lat="42.65261" lon="1.69267">
        <ele>2145.172</ele>
        <time>2022-09-17T09:14:40Z</time>
      </trkpt>
      <trkpt lat="42.65261" lon="1.69267">
        <ele>2145.17</ele>
        <time>2022-09-17T09:14:42Z</time>
      </trkpt>
      <trkpt lat="42.65261" lon="1.69267">
        <ele>2144.945</ele>
        <time>2022-09-17T09:14:44Z</time>
      </trkpt>
      <trkpt lat="42.65261" lon="1.69267">
        <ele>2144.94</ele>
        <time>2022-09-17T09:14:46Z</time>
      </trkpt>
      <trkpt lat="42.65261" lon="1.69267">
        <ele>2144.928</ele>
        <time>2022-09-17T09:14:48Z</time>
      </trkpt>
      <trkpt lat="42.65261" lon="1.69267">
        <ele>2144.922</ele>
        <time>2022-09-17T09:14:50Z</time>
      </trkpt>
      <trkpt lat="42.65261" lon="1.69267">
        <ele>2144.92</ele>
        <time>2022-09-17T09:14:52Z</time>
      </trkpt>
      <trkpt lat="42.65261" lon="1.69267">
        <ele>2144.918</ele>
        <time>2022-09-17T09:14:54Z</time>
      </trkpt>
      <trkpt lat="42.65261" lon="1.69267">
        <ele>2144.918</ele>
        <time>2022-09-17T09:14:56Z</time>
      </trkpt>
      <trkpt lat="42.65261" lon="1.69267">
        <ele>2144.916</ele>
        <time>2022-09-17T09:14:58Z</time>
      </trkpt>
      <trkpt lat="42.65261" lon="1.69267">
        <ele>2144.903</ele>
        <time>2022-09-17T09:15:00Z</time>
      </trkpt>
      <trkpt lat="42.65261" lon="1.69267">
        <ele>2144.902</ele>
        <time>2022-09-17T09:15:02Z</time>
      </trkpt>
      <trkpt lat="42.65261" lon="1.69267">
        <ele>2144.921</ele>
        <time>2022-09-17T09:15:04Z</time>
      </trkpt>
      <trkpt lat="42.65261" lon="1.69266">
        <ele>2144.914</ele>
        <time>2022-09-17T09:15:06Z</time>
      </trkpt>
      <trkpt lat="42.65261" lon="1.69266">
        <ele>2144.913</ele>
        <time>2022-09-17T09:15:08Z</time>
      </trkpt>
      <trkpt lat="42.65261" lon="1.69266">
        <ele>2144.917</ele>
        <time>2022-09-17T09:15:10Z</time>
      </trkpt>
      <trkpt lat="42.65261" lon="1.69266">
        <ele>2144.922</ele>
        <time>2022-09-17T09:15:12Z</time>
      </trkpt>
      <trkpt lat="42.65261" lon="1.69266">
        <ele>2144.91</ele>
        <time>2022-09-17T09:15:14Z</time>
      </trkpt>
      <trkpt lat="42.65261" lon="1.69266">
        <ele>2144.903</ele>
        <time>2022-09-17T09:15:16Z</time>
      </trkpt>
      <trkpt lat="42.65261" lon="1.69266">
        <ele>2144.908</ele>
        <time>2022-09-17T09:15:18Z</time>
      </trkpt>
      <trkpt lat="42.65261" lon="1.69266">
        <ele>2144.915</ele>
        <time>2022-09-17T09:15:20Z</time>
      </trkpt>
      <trkpt lat="42.65261" lon="1.69266">
        <ele>2144.916</ele>
        <time>2022-09-17T09:15:22Z</time>
      </trkpt>
      <trkpt lat="42.65261" lon="1.69267">
        <ele>2144.888</ele>
        <time>2022-09-17T09:15:24Z</time>
      </trkpt>
      <trkpt lat="42.65261" lon="1.69267">
        <ele>2144.316</ele>
        <time>2022-09-17T09:15:26Z</time>
      </trkpt>
      <trkpt lat="42.65261" lon="1.69267">
        <ele>2143.947</ele>
        <time>2022-09-17T09:15:28Z</time>
      </trkpt>
      <trkpt lat="42.65262" lon="1.69265">
        <ele>2144.238</ele>
        <time>2022-09-17T09:15:30Z</time>
      </trkpt>
      <trkpt lat="42.65262" lon="1.69263">
        <ele>2142.977</ele>
        <time>2022-09-17T09:15:32Z</time>
      </trkpt>
      <trkpt lat="42.65261" lon="1.69261">
        <ele>2142.848</ele>
        <time>2022-09-17T09:15:34Z</time>
      </trkpt>
      <trkpt lat="42.6526" lon="1.69258">
        <ele>2141.972</ele>
        <time>2022-09-17T09:15:36Z</time>
      </trkpt>
      <trkpt lat="42.6526" lon="1.69256">
        <ele>2141.909</ele>
        <time>2022-09-17T09:15:38Z</time>
      </trkpt>
      <trkpt lat="42.6526" lon="1.69254">
        <ele>2142.698</ele>
        <time>2022-09-17T09:15:40Z</time>
      </trkpt>
      <trkpt lat="42.6526" lon="1.69252">
        <ele>2143.841</ele>
        <time>2022-09-17T09:15:42Z</time>
      </trkpt>
      <trkpt lat="42.65261" lon="1.6925">
        <ele>2145.063</ele>
        <time>2022-09-17T09:15:44Z</time>
      </trkpt>
      <trkpt lat="42.6526" lon="1.69248">
        <ele>2145.361</ele>
        <time>2022-09-17T09:15:46Z</time>
      </trkpt>
      <trkpt lat="42.6526" lon="1.69246">
        <ele>2145.853</ele>
        <time>2022-09-17T09:15:48Z</time>
      </trkpt>
      <trkpt lat="42.6526" lon="1.69244">
        <ele>2146.669</ele>
        <time>2022-09-17T09:15:50Z</time>
      </trkpt>
      <trkpt lat="42.6526" lon="1.69242">
        <ele>2146.763</ele>
        <time>2022-09-17T09:15:52Z</time>
      </trkpt>
      <trkpt lat="42.6526" lon="1.69239">
        <ele>2146.953</ele>
        <time>2022-09-17T09:15:54Z</time>
      </trkpt>
      <trkpt lat="42.65259" lon="1.69237">
        <ele>2146.884</ele>
        <time>2022-09-17T09:15:56Z</time>
      </trkpt>
      <trkpt lat="42.65259" lon="1.69235">
        <ele>2147.451</ele>
        <time>2022-09-17T09:15:58Z</time>
      </trkpt>
      <trkpt lat="42.65259" lon="1.69232">
        <ele>2147.622</ele>
        <time>2022-09-17T09:16:00Z</time>
      </trkpt>
      <trkpt lat="42.65259" lon="1.6923">
        <ele>2147.029</ele>
        <time>2022-09-17T09:16:02Z</time>
      </trkpt>
      <trkpt lat="42.65259" lon="1.69227">
        <ele>2148.158</ele>
        <time>2022-09-17T09:16:04Z</time>
      </trkpt>
      <trkpt lat="42.65259" lon="1.69226">
        <ele>2148.169</ele>
        <time>2022-09-17T09:16:06Z</time>
      </trkpt>
      <trkpt lat="42.65258" lon="1.69224">
        <ele>2146.936</ele>
        <time>2022-09-17T09:16:08Z</time>
      </trkpt>
      <trkpt lat="42.65257" lon="1.69222">
        <ele>2147.413</ele>
        <time>2022-09-17T09:16:10Z</time>
      </trkpt>
      <trkpt lat="42.65257" lon="1.6922">
        <ele>2148.241</ele>
        <time>2022-09-17T09:16:12Z</time>
      </trkpt>
      <trkpt lat="42.65257" lon="1.69217">
        <ele>2148.32</ele>
        <time>2022-09-17T09:16:14Z</time>
      </trkpt>
      <trkpt lat="42.65256" lon="1.69215">
        <ele>2148.123</ele>
        <time>2022-09-17T09:16:16Z</time>
      </trkpt>
      <trkpt lat="42.65256" lon="1.69213">
        <ele>2148.202</ele>
        <time>2022-09-17T09:16:18Z</time>
      </trkpt>
      <trkpt lat="42.65258" lon="1.69212">
        <ele>2147.561</ele>
        <time>2022-09-17T09:16:20Z</time>
      </trkpt>
      <trkpt lat="42.6526" lon="1.69211">
        <ele>2147.47</ele>
        <time>2022-09-17T09:16:22Z</time>
      </trkpt>
      <trkpt lat="42.65262" lon="1.69211">
        <ele>2147.555</ele>
        <time>2022-09-17T09:16:24Z</time>
      </trkpt>
      <trkpt lat="42.65263" lon="1.6921">
        <ele>2147.764</ele>
        <time>2022-09-17T09:16:26Z</time>
      </trkpt>
      <trkpt lat="42.65265" lon="1.6921">
        <ele>2148.131</ele>
        <time>2022-09-17T09:16:28Z</time>
      </trkpt>
      <trkpt lat="42.65268" lon="1.6921">
        <ele>2149.619</ele>
        <time>2022-09-17T09:16:30Z</time>
      </trkpt>
      <trkpt lat="42.65271" lon="1.6921">
        <ele>2151.574</ele>
        <time>2022-09-17T09:16:32Z</time>
      </trkpt>
      <trkpt lat="42.65272" lon="1.6921">
        <ele>2152.444</ele>
        <time>2022-09-17T09:16:34Z</time>
      </trkpt>
      <trkpt lat="42.65273" lon="1.6921">
        <ele>2152.925</ele>
        <time>2022-09-17T09:16:36Z</time>
      </trkpt>
      <trkpt lat="42.65273" lon="1.69211">
        <ele>2153.074</ele>
        <time>2022-09-17T09:16:38Z</time>
      </trkpt>
      <trkpt lat="42.65274" lon="1.69211">
        <ele>2153.384</ele>
        <time>2022-09-17T09:16:40Z</time>
      </trkpt>
      <trkpt lat="42.65275" lon="1.69211">
        <ele>2153.065</ele>
        <time>2022-09-17T09:16:42Z</time>
      </trkpt>
      <trkpt lat="42.65276" lon="1.69212">
        <ele>2152.743</ele>
        <time>2022-09-17T09:16:44Z</time>
      </trkpt>
      <trkpt lat="42.65277" lon="1.69212">
        <ele>2153.235</ele>
        <time>2022-09-17T09:16:46Z</time>
      </trkpt>
      <trkpt lat="42.65277" lon="1.69212">
        <ele>2153.85</ele>
        <time>2022-09-17T09:16:48Z</time>
      </trkpt>
      <trkpt lat="42.65278" lon="1.69212">
        <ele>2153.417</ele>
        <time>2022-09-17T09:16:50Z</time>
      </trkpt>
      <trkpt lat="42.65279" lon="1.69213">
        <ele>2152.497</ele>
        <time>2022-09-17T09:16:52Z</time>
      </trkpt>
      <trkpt lat="42.6528" lon="1.69212">
        <ele>2152.498</ele>
        <time>2022-09-17T09:16:54Z</time>
      </trkpt>
      <trkpt lat="42.65281" lon="1.69211">
        <ele>2152.807</ele>
        <time>2022-09-17T09:16:56Z</time>
      </trkpt>
      <trkpt lat="42.65282" lon="1.69211">
        <ele>2152.263</ele>
        <time>2022-09-17T09:16:58Z</time>
      </trkpt>
      <trkpt lat="42.65283" lon="1.6921">
        <ele>2153.24</ele>
        <time>2022-09-17T09:17:00Z</time>
      </trkpt>
      <trkpt lat="42.65284" lon="1.6921">
        <ele>2154.011</ele>
        <time>2022-09-17T09:17:02Z</time>
      </trkpt>
      <trkpt lat="42.65284" lon="1.69209">
        <ele>2153.967</ele>
        <time>2022-09-17T09:17:04Z</time>
      </trkpt>
      <trkpt lat="42.65285" lon="1.69208">
        <ele>2153.503</ele>
        <time>2022-09-17T09:17:06Z</time>
      </trkpt>
      <trkpt lat="42.65285" lon="1.69207">
        <ele>2152.891</ele>
        <time>2022-09-17T09:17:08Z</time>
      </trkpt>
      <trkpt lat="42.65285" lon="1.69206">
        <ele>2152.816</ele>
        <time>2022-09-17T09:17:10Z</time>
      </trkpt>
      <trkpt lat="42.65286" lon="1.69205">
        <ele>2153.591</ele>
        <time>2022-09-17T09:17:12Z</time>
      </trkpt>
      <trkpt lat="42.65286" lon="1.69204">
        <ele>2153.882</ele>
        <time>2022-09-17T09:17:14Z</time>
      </trkpt>
      <trkpt lat="42.65287" lon="1.69203">
        <ele>2154.143</ele>
        <time>2022-09-17T09:17:16Z</time>
      </trkpt>
      <trkpt lat="42.65288" lon="1.69202">
        <ele>2154.081</ele>
        <time>2022-09-17T09:17:18Z</time>
      </trkpt>
      <trkpt lat="42.65289" lon="1.69201">
        <ele>2154.153</ele>
        <time>2022-09-17T09:17:20Z</time>
      </trkpt>
      <trkpt lat="42.65289" lon="1.692">
        <ele>2154.286</ele>
        <time>2022-09-17T09:17:22Z</time>
      </trkpt>
      <trkpt lat="42.6529" lon="1.69198">
        <ele>2154.811</ele>
        <time>2022-09-17T09:17:24Z</time>
      </trkpt>
      <trkpt lat="42.6529" lon="1.69198">
        <ele>2155.286</ele>
        <time>2022-09-17T09:17:26Z</time>
      </trkpt>
      <trkpt lat="42.65291" lon="1.69196">
        <ele>2155.928</ele>
        <time>2022-09-17T09:17:28Z</time>
      </trkpt>
      <trkpt lat="42.65291" lon="1.69194">
        <ele>2155.419</ele>
        <time>2022-09-17T09:17:30Z</time>
      </trkpt>
      <trkpt lat="42.65291" lon="1.69193">
        <ele>2155.691</ele>
        <time>2022-09-17T09:17:32Z</time>
      </trkpt>
      <trkpt lat="42.65291" lon="1.69192">
        <ele>2155.932</ele>
        <time>2022-09-17T09:17:34Z</time>
      </trkpt>
      <trkpt lat="42.65292" lon="1.69192">
        <ele>2156.356</ele>
        <time>2022-09-17T09:17:36Z</time>
      </trkpt>
      <trkpt lat="42.65293" lon="1.69191">
        <ele>2157.138</ele>
        <time>2022-09-17T09:17:38Z</time>
      </trkpt>
      <trkpt lat="42.65294" lon="1.6919">
        <ele>2157.112</ele>
        <time>2022-09-17T09:17:40Z</time>
      </trkpt>
      <trkpt lat="42.65294" lon="1.69189">
        <ele>2157.677</ele>
        <time>2022-09-17T09:17:42Z</time>
      </trkpt>
      <trkpt lat="42.65295" lon="1.69188">
        <ele>2157.526</ele>
        <time>2022-09-17T09:17:44Z</time>
      </trkpt>
      <trkpt lat="42.65296" lon="1.69188">
        <ele>2157.402</ele>
        <time>2022-09-17T09:17:46Z</time>
      </trkpt>
      <trkpt lat="42.65296" lon="1.69187">
        <ele>2157.267</ele>
        <time>2022-09-17T09:17:48Z</time>
      </trkpt>
      <trkpt lat="42.65295" lon="1.69187">
        <ele>2157.012</ele>
        <time>2022-09-17T09:17:50Z</time>
      </trkpt>
      <trkpt lat="42.65295" lon="1.69187">
        <ele>2157.029</ele>
        <time>2022-09-17T09:17:52Z</time>
      </trkpt>
      <trkpt lat="42.65295" lon="1.69187">
        <ele>2157.026</ele>
        <time>2022-09-17T09:17:54Z</time>
      </trkpt>
      <trkpt lat="42.65295" lon="1.69185">
        <ele>2156.8</ele>
        <time>2022-09-17T09:17:56Z</time>
      </trkpt>
      <trkpt lat="42.65293" lon="1.69184">
        <ele>2157.057</ele>
        <time>2022-09-17T09:17:58Z</time>
      </trkpt>
      <trkpt lat="42.65293" lon="1.69182">
        <ele>2157.173</ele>
        <time>2022-09-17T09:18:00Z</time>
      </trkpt>
      <trkpt lat="42.65293" lon="1.69181">
        <ele>2158.491</ele>
        <time>2022-09-17T09:18:02Z</time>
      </trkpt>
      <trkpt lat="42.65291" lon="1.6918">
        <ele>2158.898</ele>
        <time>2022-09-17T09:18:04Z</time>
      </trkpt>
      <trkpt lat="42.65291" lon="1.69179">
        <ele>2159.258</ele>
        <time>2022-09-17T09:18:06Z</time>
      </trkpt>
      <trkpt lat="42.6529" lon="1.69178">
        <ele>2159.855</ele>
        <time>2022-09-17T09:18:08Z</time>
      </trkpt>
      <trkpt lat="42.6529" lon="1.69176">
        <ele>2160.443</ele>
        <time>2022-09-17T09:18:10Z</time>
      </trkpt>
      <trkpt lat="42.65289" lon="1.69174">
        <ele>2161.487</ele>
        <time>2022-09-17T09:18:12Z</time>
      </trkpt>
      <trkpt lat="42.65289" lon="1.69173">
        <ele>2161.651</ele>
        <time>2022-09-17T09:18:14Z</time>
      </trkpt>
      <trkpt lat="42.65288" lon="1.69171">
        <ele>2161.649</ele>
        <time>2022-09-17T09:18:16Z</time>
      </trkpt>
      <trkpt lat="42.65287" lon="1.69169">
        <ele>2161.403</ele>
        <time>2022-09-17T09:18:18Z</time>
      </trkpt>
      <trkpt lat="42.65285" lon="1.69167">
        <ele>2162.007</ele>
        <time>2022-09-17T09:18:20Z</time>
      </trkpt>
      <trkpt lat="42.65284" lon="1.69166">
        <ele>2160.828</ele>
        <time>2022-09-17T09:18:22Z</time>
      </trkpt>
      <trkpt lat="42.65283" lon="1.69164">
        <ele>2160.764</ele>
        <time>2022-09-17T09:18:24Z</time>
      </trkpt>
      <trkpt lat="42.65283" lon="1.69162">
        <ele>2162.201</ele>
        <time>2022-09-17T09:18:26Z</time>
      </trkpt>
      <trkpt lat="42.65283" lon="1.69161">
        <ele>2162.639</ele>
        <time>2022-09-17T09:18:28Z</time>
      </trkpt>
      <trkpt lat="42.65282" lon="1.69159">
        <ele>2164.052</ele>
        <time>2022-09-17T09:18:30Z</time>
      </trkpt>
      <trkpt lat="42.65281" lon="1.69158">
        <ele>2164.602</ele>
        <time>2022-09-17T09:18:32Z</time>
      </trkpt>
      <trkpt lat="42.6528" lon="1.69156">
        <ele>2164.66</ele>
        <time>2022-09-17T09:18:34Z</time>
      </trkpt>
      <trkpt lat="42.65279" lon="1.69154">
        <ele>2164.7</ele>
        <time>2022-09-17T09:18:36Z</time>
      </trkpt>
      <trkpt lat="42.65277" lon="1.69153">
        <ele>2161.653</ele>
        <time>2022-09-17T09:18:38Z</time>
      </trkpt>
      <trkpt lat="42.65275" lon="1.69151">
        <ele>2160.28</ele>
        <time>2022-09-17T09:18:40Z</time>
      </trkpt>
      <trkpt lat="42.65274" lon="1.69149">
        <ele>2159.93</ele>
        <time>2022-09-17T09:18:42Z</time>
      </trkpt>
      <trkpt lat="42.65273" lon="1.69147">
        <ele>2159.391</ele>
        <time>2022-09-17T09:18:44Z</time>
      </trkpt>
      <trkpt lat="42.65272" lon="1.69145">
        <ele>2159.189</ele>
        <time>2022-09-17T09:18:46Z</time>
      </trkpt>
      <trkpt lat="42.65271" lon="1.69143">
        <ele>2159.941</ele>
        <time>2022-09-17T09:18:48Z</time>
      </trkpt>
      <trkpt lat="42.6527" lon="1.69141">
        <ele>2159.401</ele>
        <time>2022-09-17T09:18:50Z</time>
      </trkpt>
      <trkpt lat="42.65269" lon="1.6914">
        <ele>2158.077</ele>
        <time>2022-09-17T09:18:52Z</time>
      </trkpt>
      <trkpt lat="42.65269" lon="1.69138">
        <ele>2157.979</ele>
        <time>2022-09-17T09:18:54Z</time>
      </trkpt>
      <trkpt lat="42.65268" lon="1.69136">
        <ele>2158.231</ele>
        <time>2022-09-17T09:18:56Z</time>
      </trkpt>
      <trkpt lat="42.65268" lon="1.69134">
        <ele>2158.73</ele>
        <time>2022-09-17T09:18:58Z</time>
      </trkpt>
      <trkpt lat="42.65268" lon="1.69133">
        <ele>2159.407</ele>
        <time>2022-09-17T09:19:00Z</time>
      </trkpt>
      <trkpt lat="42.65267" lon="1.69131">
        <ele>2159.008</ele>
        <time>2022-09-17T09:19:02Z</time>
      </trkpt>
      <trkpt lat="42.65266" lon="1.69128">
        <ele>2158.661</ele>
        <time>2022-09-17T09:19:04Z</time>
      </trkpt>
      <trkpt lat="42.65265" lon="1.69126">
        <ele>2159.09</ele>
        <time>2022-09-17T09:19:06Z</time>
      </trkpt>
      <trkpt lat="42.65263" lon="1.69123">
        <ele>2158.726</ele>
        <time>2022-09-17T09:19:08Z</time>
      </trkpt>
      <trkpt lat="42.65262" lon="1.69121">
        <ele>2158.378</ele>
        <time>2022-09-17T09:19:10Z</time>
      </trkpt>
      <trkpt lat="42.65262" lon="1.69119">
        <ele>2158.283</ele>
        <time>2022-09-17T09:19:12Z</time>
      </trkpt>
      <trkpt lat="42.65264" lon="1.69118">
        <ele>2159.241</ele>
        <time>2022-09-17T09:19:14Z</time>
      </trkpt>
      <trkpt lat="42.65263" lon="1.69116">
        <ele>2157.491</ele>
        <time>2022-09-17T09:19:16Z</time>
      </trkpt>
      <trkpt lat="42.65263" lon="1.69116">
        <ele>2157.506</ele>
        <time>2022-09-17T09:19:18Z</time>
      </trkpt>
      <trkpt lat="42.65263" lon="1.69116">
        <ele>2157.526</ele>
        <time>2022-09-17T09:19:21Z</time>
      </trkpt>
      <trkpt lat="42.65263" lon="1.69116">
        <ele>2157.531</ele>
        <time>2022-09-17T09:19:23Z</time>
      </trkpt>
      <trkpt lat="42.65263" lon="1.69116">
        <ele>2157.523</ele>
        <time>2022-09-17T09:19:25Z</time>
      </trkpt>
      <trkpt lat="42.65263" lon="1.69116">
        <ele>2157.522</ele>
        <time>2022-09-17T09:19:27Z</time>
      </trkpt>
      <trkpt lat="42.65263" lon="1.69116">
        <ele>2157.57</ele>
        <time>2022-09-17T09:19:29Z</time>
      </trkpt>
      <trkpt lat="42.65262" lon="1.69115">
        <ele>2157.702</ele>
        <time>2022-09-17T09:19:31Z</time>
      </trkpt>
      <trkpt lat="42.65262" lon="1.69114">
        <ele>2157.76</ele>
        <time>2022-09-17T09:19:33Z</time>
      </trkpt>
      <trkpt lat="42.65262" lon="1.69112">
        <ele>2158.632</ele>
        <time>2022-09-17T09:19:35Z</time>
      </trkpt>
      <trkpt lat="42.65261" lon="1.6911">
        <ele>2157.484</ele>
        <time>2022-09-17T09:19:37Z</time>
      </trkpt>
      <trkpt lat="42.6526" lon="1.69108">
        <ele>2156.827</ele>
        <time>2022-09-17T09:19:39Z</time>
      </trkpt>
      <trkpt lat="42.6526" lon="1.69107">
        <ele>2157.309</ele>
        <time>2022-09-17T09:19:41Z</time>
      </trkpt>
      <trkpt lat="42.65258" lon="1.69105">
        <ele>2154.036</ele>
        <time>2022-09-17T09:19:43Z</time>
      </trkpt>
      <trkpt lat="42.65256" lon="1.69105">
        <ele>2153.817</ele>
        <time>2022-09-17T09:19:45Z</time>
      </trkpt>
      <trkpt lat="42.65256" lon="1.69104">
        <ele>2154.304</ele>
        <time>2022-09-17T09:19:47Z</time>
      </trkpt>
      <trkpt lat="42.65255" lon="1.69103">
        <ele>2154.089</ele>
        <time>2022-09-17T09:19:49Z</time>
      </trkpt>
      <trkpt lat="42.65254" lon="1.69102">
        <ele>2152.587</ele>
        <time>2022-09-17T09:19:51Z</time>
      </trkpt>
      <trkpt lat="42.65253" lon="1.69101">
        <ele>2151.908</ele>
        <time>2022-09-17T09:19:53Z</time>
      </trkpt>
      <trkpt lat="42.65252" lon="1.691">
        <ele>2151.646</ele>
        <time>2022-09-17T09:19:55Z</time>
      </trkpt>
      <trkpt lat="42.65252" lon="1.69098">
        <ele>2151.886</ele>
        <time>2022-09-17T09:19:57Z</time>
      </trkpt>
      <trkpt lat="42.65251" lon="1.69097">
        <ele>2150.832</ele>
        <time>2022-09-17T09:19:59Z</time>
      </trkpt>
      <trkpt lat="42.6525" lon="1.69097">
        <ele>2149.971</ele>
        <time>2022-09-17T09:20:01Z</time>
      </trkpt>
      <trkpt lat="42.65249" lon="1.69096">
        <ele>2149.407</ele>
        <time>2022-09-17T09:20:03Z</time>
      </trkpt>
      <trkpt lat="42.65249" lon="1.69095">
        <ele>2149.398</ele>
        <time>2022-09-17T09:20:05Z</time>
      </trkpt>
      <trkpt lat="42.65248" lon="1.69094">
        <ele>2149.872</ele>
        <time>2022-09-17T09:20:07Z</time>
      </trkpt>
      <trkpt lat="42.65247" lon="1.69093">
        <ele>2147.999</ele>
        <time>2022-09-17T09:20:09Z</time>
      </trkpt>
      <trkpt lat="42.65245" lon="1.69093">
        <ele>2147.244</ele>
        <time>2022-09-17T09:20:11Z</time>
      </trkpt>
      <trkpt lat="42.65244" lon="1.69092">
        <ele>2146.468</ele>
        <time>2022-09-17T09:20:13Z</time>
      </trkpt>
      <trkpt lat="42.65244" lon="1.6909">
        <ele>2145.984</ele>
        <time>2022-09-17T09:20:15Z</time>
      </trkpt>
      <trkpt lat="42.65243" lon="1.69089">
        <ele>2146.403</ele>
        <time>2022-09-17T09:20:17Z</time>
      </trkpt>
      <trkpt lat="42.65243" lon="1.69088">
        <ele>2146.107</ele>
        <time>2022-09-17T09:20:19Z</time>
      </trkpt>
      <trkpt lat="42.65242" lon="1.69086">
        <ele>2147.28</ele>
        <time>2022-09-17T09:20:21Z</time>
      </trkpt>
      <trkpt lat="42.65243" lon="1.69084">
        <ele>2147.29</ele>
        <time>2022-09-17T09:20:23Z</time>
      </trkpt>
      <trkpt lat="42.65242" lon="1.69082">
        <ele>2147.701</ele>
        <time>2022-09-17T09:20:25Z</time>
      </trkpt>
      <trkpt lat="42.65241" lon="1.69081">
        <ele>2148.894</ele>
        <time>2022-09-17T09:20:27Z</time>
      </trkpt>
      <trkpt lat="42.65241" lon="1.69079">
        <ele>2150.565</ele>
        <time>2022-09-17T09:20:29Z</time>
      </trkpt>
      <trkpt lat="42.6524" lon="1.69077">
        <ele>2151.266</ele>
        <time>2022-09-17T09:20:31Z</time>
      </trkpt>
      <trkpt lat="42.65238" lon="1.69075">
        <ele>2150.963</ele>
        <time>2022-09-17T09:20:33Z</time>
      </trkpt>
      <trkpt lat="42.65236" lon="1.69074">
        <ele>2151.772</ele>
        <time>2022-09-17T09:20:35Z</time>
      </trkpt>
      <trkpt lat="42.65235" lon="1.69072">
        <ele>2151.53</ele>
        <time>2022-09-17T09:20:37Z</time>
      </trkpt>
      <trkpt lat="42.65234" lon="1.6907">
        <ele>2152.049</ele>
        <time>2022-09-17T09:20:39Z</time>
      </trkpt>
      <trkpt lat="42.65233" lon="1.69069">
        <ele>2151.565</ele>
        <time>2022-09-17T09:20:41Z</time>
      </trkpt>
      <trkpt lat="42.65232" lon="1.69067">
        <ele>2151.528</ele>
        <time>2022-09-17T09:20:43Z</time>
      </trkpt>
      <trkpt lat="42.65232" lon="1.69065">
        <ele>2152.122</ele>
        <time>2022-09-17T09:20:45Z</time>
      </trkpt>
      <trkpt lat="42.65232" lon="1.69063">
        <ele>2151.842</ele>
        <time>2022-09-17T09:20:47Z</time>
      </trkpt>
      <trkpt lat="42.65231" lon="1.69062">
        <ele>2151.921</ele>
        <time>2022-09-17T09:20:49Z</time>
      </trkpt>
      <trkpt lat="42.65231" lon="1.6906">
        <ele>2152.785</ele>
        <time>2022-09-17T09:20:51Z</time>
      </trkpt>
      <trkpt lat="42.6523" lon="1.69058">
        <ele>2154.234</ele>
        <time>2022-09-17T09:20:53Z</time>
      </trkpt>
      <trkpt lat="42.6523" lon="1.69055">
        <ele>2153.338</ele>
        <time>2022-09-17T09:20:55Z</time>
      </trkpt>
      <trkpt lat="42.65229" lon="1.69053">
        <ele>2153.28</ele>
        <time>2022-09-17T09:20:57Z</time>
      </trkpt>
      <trkpt lat="42.65228" lon="1.69051">
        <ele>2153.668</ele>
        <time>2022-09-17T09:20:59Z</time>
      </trkpt>
      <trkpt lat="42.65227" lon="1.69049">
        <ele>2154.581</ele>
        <time>2022-09-17T09:21:01Z</time>
      </trkpt>
      <trkpt lat="42.65227" lon="1.69046">
        <ele>2155.102</ele>
        <time>2022-09-17T09:21:03Z</time>
      </trkpt>
      <trkpt lat="42.65226" lon="1.69045">
        <ele>2155.412</ele>
        <time>2022-09-17T09:21:05Z</time>
      </trkpt>
      <trkpt lat="42.65226" lon="1.69042">
        <ele>2156.686</ele>
        <time>2022-09-17T09:21:07Z</time>
      </trkpt>
      <trkpt lat="42.65226" lon="1.6904">
        <ele>2156.748</ele>
        <time>2022-09-17T09:21:09Z</time>
      </trkpt>
      <trkpt lat="42.65226" lon="1.69037">
        <ele>2156.29</ele>
        <time>2022-09-17T09:21:11Z</time>
      </trkpt>
      <trkpt lat="42.65225" lon="1.69036">
        <ele>2155.633</ele>
        <time>2022-09-17T09:21:13Z</time>
      </trkpt>
      <trkpt lat="42.65224" lon="1.69034">
        <ele>2156.955</ele>
        <time>2022-09-17T09:21:15Z</time>
      </trkpt>
      <trkpt lat="42.65224" lon="1.69032">
        <ele>2157.489</ele>
        <time>2022-09-17T09:21:17Z</time>
      </trkpt>
      <trkpt lat="42.65224" lon="1.6903">
        <ele>2157.312</ele>
        <time>2022-09-17T09:21:19Z</time>
      </trkpt>
      <trkpt lat="42.65223" lon="1.69028">
        <ele>2157.407</ele>
        <time>2022-09-17T09:21:21Z</time>
      </trkpt>
      <trkpt lat="42.65221" lon="1.69027">
        <ele>2157.053</ele>
        <time>2022-09-17T09:21:23Z</time>
      </trkpt>
      <trkpt lat="42.65219" lon="1.69026">
        <ele>2157.248</ele>
        <time>2022-09-17T09:21:25Z</time>
      </trkpt>
      <trkpt lat="42.65217" lon="1.69025">
        <ele>2156.647</ele>
        <time>2022-09-17T09:21:27Z</time>
      </trkpt>
      <trkpt lat="42.65216" lon="1.69024">
        <ele>2157.017</ele>
        <time>2022-09-17T09:21:29Z</time>
      </trkpt>
      <trkpt lat="42.65216" lon="1.69022">
        <ele>2156.999</ele>
        <time>2022-09-17T09:21:31Z</time>
      </trkpt>
      <trkpt lat="42.65215" lon="1.6902">
        <ele>2157.127</ele>
        <time>2022-09-17T09:21:33Z</time>
      </trkpt>
      <trkpt lat="42.65215" lon="1.69018">
        <ele>2156.699</ele>
        <time>2022-09-17T09:21:35Z</time>
      </trkpt>
      <trkpt lat="42.65215" lon="1.69017">
        <ele>2157.857</ele>
        <time>2022-09-17T09:21:37Z</time>
      </trkpt>
      <trkpt lat="42.65215" lon="1.69015">
        <ele>2157.236</ele>
        <time>2022-09-17T09:21:39Z</time>
      </trkpt>
      <trkpt lat="42.65214" lon="1.69013">
        <ele>2157.565</ele>
        <time>2022-09-17T09:21:41Z</time>
      </trkpt>
      <trkpt lat="42.65213" lon="1.69012">
        <ele>2157.382</ele>
        <time>2022-09-17T09:21:43Z</time>
      </trkpt>
      <trkpt lat="42.65214" lon="1.6901">
        <ele>2157.757</ele>
        <time>2022-09-17T09:21:45Z</time>
      </trkpt>
      <trkpt lat="42.65214" lon="1.69009">
        <ele>2157.952</ele>
        <time>2022-09-17T09:21:47Z</time>
      </trkpt>
      <trkpt lat="42.65214" lon="1.69007">
        <ele>2157.709</ele>
        <time>2022-09-17T09:21:49Z</time>
      </trkpt>
      <trkpt lat="42.65214" lon="1.69006">
        <ele>2158.477</ele>
        <time>2022-09-17T09:21:51Z</time>
      </trkpt>
      <trkpt lat="42.65213" lon="1.69005">
        <ele>2160.146</ele>
        <time>2022-09-17T09:21:53Z</time>
      </trkpt>
      <trkpt lat="42.65212" lon="1.69004">
        <ele>2159.64</ele>
        <time>2022-09-17T09:21:55Z</time>
      </trkpt>
      <trkpt lat="42.65212" lon="1.69003">
        <ele>2160.49</ele>
        <time>2022-09-17T09:21:57Z</time>
      </trkpt>
      <trkpt lat="42.65211" lon="1.69002">
        <ele>2162.01</ele>
        <time>2022-09-17T09:21:59Z</time>
      </trkpt>
      <trkpt lat="42.65211" lon="1.69">
        <ele>2161.778</ele>
        <time>2022-09-17T09:22:01Z</time>
      </trkpt>
      <trkpt lat="42.65211" lon="1.68998">
        <ele>2161.924</ele>
        <time>2022-09-17T09:22:03Z</time>
      </trkpt>
      <trkpt lat="42.6521" lon="1.68996">
        <ele>2161.021</ele>
        <time>2022-09-17T09:22:05Z</time>
      </trkpt>
      <trkpt lat="42.6521" lon="1.68994">
        <ele>2161.898</ele>
        <time>2022-09-17T09:22:07Z</time>
      </trkpt>
      <trkpt lat="42.6521" lon="1.68992">
        <ele>2162.518</ele>
        <time>2022-09-17T09:22:09Z</time>
      </trkpt>
      <trkpt lat="42.65209" lon="1.6899">
        <ele>2163.262</ele>
        <time>2022-09-17T09:22:11Z</time>
      </trkpt>
      <trkpt lat="42.65209" lon="1.68988">
        <ele>2163.847</ele>
        <time>2022-09-17T09:22:13Z</time>
      </trkpt>
      <trkpt lat="42.65209" lon="1.68987">
        <ele>2164.145</ele>
        <time>2022-09-17T09:22:15Z</time>
      </trkpt>
      <trkpt lat="42.65209" lon="1.68986">
        <ele>2164.404</ele>
        <time>2022-09-17T09:22:17Z</time>
      </trkpt>
      <trkpt lat="42.65208" lon="1.68984">
        <ele>2164.273</ele>
        <time>2022-09-17T09:22:19Z</time>
      </trkpt>
      <trkpt lat="42.65208" lon="1.68982">
        <ele>2164.455</ele>
        <time>2022-09-17T09:22:21Z</time>
      </trkpt>
      <trkpt lat="42.65208" lon="1.6898">
        <ele>2165.636</ele>
        <time>2022-09-17T09:22:23Z</time>
      </trkpt>
      <trkpt lat="42.65208" lon="1.68979">
        <ele>2165.995</ele>
        <time>2022-09-17T09:22:25Z</time>
      </trkpt>
      <trkpt lat="42.65208" lon="1.68977">
        <ele>2166.461</ele>
        <time>2022-09-17T09:22:27Z</time>
      </trkpt>
      <trkpt lat="42.65208" lon="1.68975">
        <ele>2166.577</ele>
        <time>2022-09-17T09:22:29Z</time>
      </trkpt>
      <trkpt lat="42.65208" lon="1.68973">
        <ele>2167.184</ele>
        <time>2022-09-17T09:22:31Z</time>
      </trkpt>
      <trkpt lat="42.65207" lon="1.68971">
        <ele>2167.289</ele>
        <time>2022-09-17T09:22:33Z</time>
      </trkpt>
      <trkpt lat="42.65206" lon="1.6897">
        <ele>2168.469</ele>
        <time>2022-09-17T09:22:35Z</time>
      </trkpt>
      <trkpt lat="42.65205" lon="1.68969">
        <ele>2168.053</ele>
        <time>2022-09-17T09:22:37Z</time>
      </trkpt>
      <trkpt lat="42.65205" lon="1.68967">
        <ele>2169.783</ele>
        <time>2022-09-17T09:22:39Z</time>
      </trkpt>
      <trkpt lat="42.65204" lon="1.68965">
        <ele>2170.129</ele>
        <time>2022-09-17T09:22:41Z</time>
      </trkpt>
      <trkpt lat="42.65203" lon="1.68964">
        <ele>2170.32</ele>
        <time>2022-09-17T09:22:43Z</time>
      </trkpt>
      <trkpt lat="42.65203" lon="1.68963">
        <ele>2170.529</ele>
        <time>2022-09-17T09:22:45Z</time>
      </trkpt>
      <trkpt lat="42.65202" lon="1.68961">
        <ele>2170.751</ele>
        <time>2022-09-17T09:22:47Z</time>
      </trkpt>
      <trkpt lat="42.65201" lon="1.6896">
        <ele>2170.023</ele>
        <time>2022-09-17T09:22:49Z</time>
      </trkpt>
      <trkpt lat="42.65199" lon="1.68959">
        <ele>2169.997</ele>
        <time>2022-09-17T09:22:51Z</time>
      </trkpt>
      <trkpt lat="42.65199" lon="1.68958">
        <ele>2170.861</ele>
        <time>2022-09-17T09:22:53Z</time>
      </trkpt>
      <trkpt lat="42.65198" lon="1.68957">
        <ele>2171.738</ele>
        <time>2022-09-17T09:22:55Z</time>
      </trkpt>
      <trkpt lat="42.65196" lon="1.68956">
        <ele>2171.306</ele>
        <time>2022-09-17T09:22:57Z</time>
      </trkpt>
      <trkpt lat="42.65196" lon="1.68954">
        <ele>2171.325</ele>
        <time>2022-09-17T09:22:59Z</time>
      </trkpt>
      <trkpt lat="42.65195" lon="1.68952">
        <ele>2171.626</ele>
        <time>2022-09-17T09:23:01Z</time>
      </trkpt>
      <trkpt lat="42.65195" lon="1.68951">
        <ele>2172.199</ele>
        <time>2022-09-17T09:23:03Z</time>
      </trkpt>
      <trkpt lat="42.65194" lon="1.68949">
        <ele>2172.389</ele>
        <time>2022-09-17T09:23:05Z</time>
      </trkpt>
      <trkpt lat="42.65195" lon="1.68948">
        <ele>2172.668</ele>
        <time>2022-09-17T09:23:07Z</time>
      </trkpt>
      <trkpt lat="42.65195" lon="1.68946">
        <ele>2173.58</ele>
        <time>2022-09-17T09:23:09Z</time>
      </trkpt>
      <trkpt lat="42.65194" lon="1.68944">
        <ele>2173.027</ele>
        <time>2022-09-17T09:23:11Z</time>
      </trkpt>
      <trkpt lat="42.65194" lon="1.68943">
        <ele>2172.982</ele>
        <time>2022-09-17T09:23:13Z</time>
      </trkpt>
      <trkpt lat="42.65193" lon="1.68942">
        <ele>2172.896</ele>
        <time>2022-09-17T09:23:15Z</time>
      </trkpt>
      <trkpt lat="42.65192" lon="1.68941">
        <ele>2174.207</ele>
        <time>2022-09-17T09:23:17Z</time>
      </trkpt>
      <trkpt lat="42.65192" lon="1.68939">
        <ele>2174.755</ele>
        <time>2022-09-17T09:23:19Z</time>
      </trkpt>
      <trkpt lat="42.65191" lon="1.68938">
        <ele>2176.575</ele>
        <time>2022-09-17T09:23:21Z</time>
      </trkpt>
      <trkpt lat="42.6519" lon="1.68936">
        <ele>2177.261</ele>
        <time>2022-09-17T09:23:23Z</time>
      </trkpt>
      <trkpt lat="42.6519" lon="1.68935">
        <ele>2178.337</ele>
        <time>2022-09-17T09:23:25Z</time>
      </trkpt>
      <trkpt lat="42.65189" lon="1.68934">
        <ele>2178.685</ele>
        <time>2022-09-17T09:23:27Z</time>
      </trkpt>
      <trkpt lat="42.65189" lon="1.68932">
        <ele>2179.166</ele>
        <time>2022-09-17T09:23:29Z</time>
      </trkpt>
      <trkpt lat="42.65187" lon="1.68929">
        <ele>2179.748</ele>
        <time>2022-09-17T09:23:31Z</time>
      </trkpt>
      <trkpt lat="42.65186" lon="1.68927">
        <ele>2179.739</ele>
        <time>2022-09-17T09:23:33Z</time>
      </trkpt>
      <trkpt lat="42.65185" lon="1.68925">
        <ele>2178.739</ele>
        <time>2022-09-17T09:23:35Z</time>
      </trkpt>
      <trkpt lat="42.65183" lon="1.68923">
        <ele>2177.71</ele>
        <time>2022-09-17T09:23:37Z</time>
      </trkpt>
      <trkpt lat="42.65182" lon="1.68921">
        <ele>2178.29</ele>
        <time>2022-09-17T09:23:39Z</time>
      </trkpt>
      <trkpt lat="42.65179" lon="1.68919">
        <ele>2176.235</ele>
        <time>2022-09-17T09:23:41Z</time>
      </trkpt>
      <trkpt lat="42.65177" lon="1.68918">
        <ele>2176.32</ele>
        <time>2022-09-17T09:23:43Z</time>
      </trkpt>
      <trkpt lat="42.65175" lon="1.68916">
        <ele>2175.723</ele>
        <time>2022-09-17T09:23:45Z</time>
      </trkpt>
      <trkpt lat="42.65173" lon="1.68914">
        <ele>2175.157</ele>
        <time>2022-09-17T09:23:47Z</time>
      </trkpt>
      <trkpt lat="42.65171" lon="1.68912">
        <ele>2174.901</ele>
        <time>2022-09-17T09:23:49Z</time>
      </trkpt>
      <trkpt lat="42.65169" lon="1.68909">
        <ele>2174.219</ele>
        <time>2022-09-17T09:23:51Z</time>
      </trkpt>
      <trkpt lat="42.65167" lon="1.68906">
        <ele>2172.899</ele>
        <time>2022-09-17T09:23:53Z</time>
      </trkpt>
      <trkpt lat="42.65165" lon="1.68903">
        <ele>2170.142</ele>
        <time>2022-09-17T09:23:55Z</time>
      </trkpt>
      <trkpt lat="42.65164" lon="1.68899">
        <ele>2170.372</ele>
        <time>2022-09-17T09:23:57Z</time>
      </trkpt>
      <trkpt lat="42.65163" lon="1.68895">
        <ele>2170.752</ele>
        <time>2022-09-17T09:23:59Z</time>
      </trkpt>
      <trkpt lat="42.65163" lon="1.68892">
        <ele>2168.415</ele>
        <time>2022-09-17T09:24:01Z</time>
      </trkpt>
      <trkpt lat="42.65162" lon="1.68889">
        <ele>2168.12</ele>
        <time>2022-09-17T09:24:03Z</time>
      </trkpt>
      <trkpt lat="42.65162" lon="1.68888">
        <ele>2169.584</ele>
        <time>2022-09-17T09:24:05Z</time>
      </trkpt>
      <trkpt lat="42.65162" lon="1.68887">
        <ele>2169.977</ele>
        <time>2022-09-17T09:24:07Z</time>
      </trkpt>
      <trkpt lat="42.65162" lon="1.68886">
        <ele>2170.494</ele>
        <time>2022-09-17T09:24:09Z</time>
      </trkpt>
      <trkpt lat="42.65161" lon="1.68884">
        <ele>2170.963</ele>
        <time>2022-09-17T09:24:11Z</time>
      </trkpt>
      <trkpt lat="42.65161" lon="1.68883">
        <ele>2172.87</ele>
        <time>2022-09-17T09:24:13Z</time>
      </trkpt>
      <trkpt lat="42.65161" lon="1.68881">
        <ele>2173.615</ele>
        <time>2022-09-17T09:24:15Z</time>
      </trkpt>
      <trkpt lat="42.65161" lon="1.6888">
        <ele>2174.934</ele>
        <time>2022-09-17T09:24:17Z</time>
      </trkpt>
      <trkpt lat="42.6516" lon="1.68879">
        <ele>2175.398</ele>
        <time>2022-09-17T09:24:19Z</time>
      </trkpt>
      <trkpt lat="42.6516" lon="1.68877">
        <ele>2176.138</ele>
        <time>2022-09-17T09:24:21Z</time>
      </trkpt>
      <trkpt lat="42.65159" lon="1.68875">
        <ele>2177.128</ele>
        <time>2022-09-17T09:24:23Z</time>
      </trkpt>
      <trkpt lat="42.65158" lon="1.68873">
        <ele>2177.081</ele>
        <time>2022-09-17T09:24:25Z</time>
      </trkpt>
      <trkpt lat="42.65158" lon="1.68872">
        <ele>2177.162</ele>
        <time>2022-09-17T09:24:27Z</time>
      </trkpt>
      <trkpt lat="42.65158" lon="1.6887">
        <ele>2178.535</ele>
        <time>2022-09-17T09:24:29Z</time>
      </trkpt>
      <trkpt lat="42.65158" lon="1.68868">
        <ele>2179.983</ele>
        <time>2022-09-17T09:24:31Z</time>
      </trkpt>
      <trkpt lat="42.65158" lon="1.68866">
        <ele>2180.536</ele>
        <time>2022-09-17T09:24:33Z</time>
      </trkpt>
      <trkpt lat="42.65157" lon="1.68864">
        <ele>2181.351</ele>
        <time>2022-09-17T09:24:35Z</time>
      </trkpt>
      <trkpt lat="42.65156" lon="1.68863">
        <ele>2180.426</ele>
        <time>2022-09-17T09:24:37Z</time>
      </trkpt>
      <trkpt lat="42.65155" lon="1.68861">
        <ele>2180.914</ele>
        <time>2022-09-17T09:24:39Z</time>
      </trkpt>
      <trkpt lat="42.65154" lon="1.68859">
        <ele>2181.333</ele>
        <time>2022-09-17T09:24:41Z</time>
      </trkpt>
      <trkpt lat="42.65152" lon="1.68857">
        <ele>2182.021</ele>
        <time>2022-09-17T09:24:43Z</time>
      </trkpt>
      <trkpt lat="42.65149" lon="1.68853">
        <ele>2181.449</ele>
        <time>2022-09-17T09:24:45Z</time>
      </trkpt>
      <trkpt lat="42.65147" lon="1.6885">
        <ele>2179.833</ele>
        <time>2022-09-17T09:24:47Z</time>
      </trkpt>
      <trkpt lat="42.65147" lon="1.68848">
        <ele>2179.661</ele>
        <time>2022-09-17T09:24:49Z</time>
      </trkpt>
      <trkpt lat="42.65146" lon="1.68847">
        <ele>2179.596</ele>
        <time>2022-09-17T09:24:51Z</time>
      </trkpt>
      <trkpt lat="42.65146" lon="1.68845">
        <ele>2181.423</ele>
        <time>2022-09-17T09:24:53Z</time>
      </trkpt>
      <trkpt lat="42.65145" lon="1.68844">
        <ele>2181.56</ele>
        <time>2022-09-17T09:24:55Z</time>
      </trkpt>
      <trkpt lat="42.65144" lon="1.68842">
        <ele>2182.762</ele>
        <time>2022-09-17T09:24:57Z</time>
      </trkpt>
      <trkpt lat="42.65143" lon="1.68841">
        <ele>2183.23</ele>
        <time>2022-09-17T09:24:59Z</time>
      </trkpt>
      <trkpt lat="42.65143" lon="1.6884">
        <ele>2183.371</ele>
        <time>2022-09-17T09:25:01Z</time>
      </trkpt>
      <trkpt lat="42.65143" lon="1.68838">
        <ele>2183.911</ele>
        <time>2022-09-17T09:25:03Z</time>
      </trkpt>
      <trkpt lat="42.65142" lon="1.68837">
        <ele>2184.355</ele>
        <time>2022-09-17T09:25:05Z</time>
      </trkpt>
      <trkpt lat="42.65141" lon="1.68835">
        <ele>2184.087</ele>
        <time>2022-09-17T09:25:07Z</time>
      </trkpt>
      <trkpt lat="42.6514" lon="1.68833">
        <ele>2184.167</ele>
        <time>2022-09-17T09:25:09Z</time>
      </trkpt>
      <trkpt lat="42.65138" lon="1.68831">
        <ele>2183.372</ele>
        <time>2022-09-17T09:25:11Z</time>
      </trkpt>
      <trkpt lat="42.65136" lon="1.6883">
        <ele>2182.918</ele>
        <time>2022-09-17T09:25:13Z</time>
      </trkpt>
      <trkpt lat="42.65135" lon="1.68829">
        <ele>2182.927</ele>
        <time>2022-09-17T09:25:15Z</time>
      </trkpt>
      <trkpt lat="42.65133" lon="1.68827">
        <ele>2182.611</ele>
        <time>2022-09-17T09:25:17Z</time>
      </trkpt>
      <trkpt lat="42.65131" lon="1.68825">
        <ele>2181.736</ele>
        <time>2022-09-17T09:25:19Z</time>
      </trkpt>
      <trkpt lat="42.65128" lon="1.68824">
        <ele>2181.046</ele>
        <time>2022-09-17T09:25:21Z</time>
      </trkpt>
      <trkpt lat="42.65125" lon="1.68822">
        <ele>2181.358</ele>
        <time>2022-09-17T09:25:23Z</time>
      </trkpt>
      <trkpt lat="42.65122" lon="1.68821">
        <ele>2180.884</ele>
        <time>2022-09-17T09:25:25Z</time>
      </trkpt>
      <trkpt lat="42.6512" lon="1.6882">
        <ele>2180.171</ele>
        <time>2022-09-17T09:25:27Z</time>
      </trkpt>
      <trkpt lat="42.65119" lon="1.68819">
        <ele>2180.832</ele>
        <time>2022-09-17T09:25:29Z</time>
      </trkpt>
      <trkpt lat="42.65117" lon="1.68818">
        <ele>2181.014</ele>
        <time>2022-09-17T09:25:31Z</time>
      </trkpt>
      <trkpt lat="42.65116" lon="1.68818">
        <ele>2180.48</ele>
        <time>2022-09-17T09:25:33Z</time>
      </trkpt>
      <trkpt lat="42.65114" lon="1.68817">
        <ele>2180.267</ele>
        <time>2022-09-17T09:25:35Z</time>
      </trkpt>
      <trkpt lat="42.65112" lon="1.68816">
        <ele>2180.469</ele>
        <time>2022-09-17T09:25:37Z</time>
      </trkpt>
      <trkpt lat="42.65111" lon="1.68815">
        <ele>2180.849</ele>
        <time>2022-09-17T09:25:39Z</time>
      </trkpt>
      <trkpt lat="42.65109" lon="1.68814">
        <ele>2179.953</ele>
        <time>2022-09-17T09:25:41Z</time>
      </trkpt>
      <trkpt lat="42.65108" lon="1.68812">
        <ele>2180.944</ele>
        <time>2022-09-17T09:25:43Z</time>
      </trkpt>
      <trkpt lat="42.65106" lon="1.68811">
        <ele>2180.9</ele>
        <time>2022-09-17T09:25:45Z</time>
      </trkpt>
      <trkpt lat="42.65105" lon="1.6881">
        <ele>2181.243</ele>
        <time>2022-09-17T09:25:47Z</time>
      </trkpt>
      <trkpt lat="42.65104" lon="1.68809">
        <ele>2181.852</ele>
        <time>2022-09-17T09:25:49Z</time>
      </trkpt>
      <trkpt lat="42.65103" lon="1.68808">
        <ele>2181.154</ele>
        <time>2022-09-17T09:25:51Z</time>
      </trkpt>
      <trkpt lat="42.65101" lon="1.68806">
        <ele>2181.03</ele>
        <time>2022-09-17T09:25:53Z</time>
      </trkpt>
      <trkpt lat="42.651" lon="1.68805">
        <ele>2181.747</ele>
        <time>2022-09-17T09:25:55Z</time>
      </trkpt>
      <trkpt lat="42.65098" lon="1.68805">
        <ele>2181.926</ele>
        <time>2022-09-17T09:25:57Z</time>
      </trkpt>
      <trkpt lat="42.65096" lon="1.68804">
        <ele>2182.981</ele>
        <time>2022-09-17T09:25:59Z</time>
      </trkpt>
      <trkpt lat="42.65095" lon="1.68803">
        <ele>2183.713</ele>
        <time>2022-09-17T09:26:01Z</time>
      </trkpt>
      <trkpt lat="42.65093" lon="1.68802">
        <ele>2183.196</ele>
        <time>2022-09-17T09:26:03Z</time>
      </trkpt>
      <trkpt lat="42.65091" lon="1.68801">
        <ele>2183.904</ele>
        <time>2022-09-17T09:26:05Z</time>
      </trkpt>
      <trkpt lat="42.6509" lon="1.688">
        <ele>2184.166</ele>
        <time>2022-09-17T09:26:07Z</time>
      </trkpt>
      <trkpt lat="42.65089" lon="1.688">
        <ele>2184.97</ele>
        <time>2022-09-17T09:26:09Z</time>
      </trkpt>
      <trkpt lat="42.65087" lon="1.68798">
        <ele>2185.847</ele>
        <time>2022-09-17T09:26:11Z</time>
      </trkpt>
      <trkpt lat="42.65086" lon="1.68797">
        <ele>2186.821</ele>
        <time>2022-09-17T09:26:13Z</time>
      </trkpt>
      <trkpt lat="42.65084" lon="1.68795">
        <ele>2187.046</ele>
        <time>2022-09-17T09:26:15Z</time>
      </trkpt>
      <trkpt lat="42.65083" lon="1.68794">
        <ele>2187.597</ele>
        <time>2022-09-17T09:26:17Z</time>
      </trkpt>
      <trkpt lat="42.65082" lon="1.68793">
        <ele>2187.85</ele>
        <time>2022-09-17T09:26:19Z</time>
      </trkpt>
      <trkpt lat="42.65081" lon="1.68791">
        <ele>2187.436</ele>
        <time>2022-09-17T09:26:21Z</time>
      </trkpt>
      <trkpt lat="42.6508" lon="1.6879">
        <ele>2187.91</ele>
        <time>2022-09-17T09:26:23Z</time>
      </trkpt>
      <trkpt lat="42.65079" lon="1.68789">
        <ele>2188.016</ele>
        <time>2022-09-17T09:26:25Z</time>
      </trkpt>
      <trkpt lat="42.65078" lon="1.68788">
        <ele>2189.079</ele>
        <time>2022-09-17T09:26:27Z</time>
      </trkpt>
      <trkpt lat="42.65077" lon="1.68788">
        <ele>2189.107</ele>
        <time>2022-09-17T09:26:29Z</time>
      </trkpt>
      <trkpt lat="42.65076" lon="1.68787">
        <ele>2189.558</ele>
        <time>2022-09-17T09:26:31Z</time>
      </trkpt>
      <trkpt lat="42.65074" lon="1.68787">
        <ele>2189.887</ele>
        <time>2022-09-17T09:26:33Z</time>
      </trkpt>
      <trkpt lat="42.65074" lon="1.68786">
        <ele>2190.2</ele>
        <time>2022-09-17T09:26:35Z</time>
      </trkpt>
      <trkpt lat="42.65073" lon="1.68785">
        <ele>2191.08</ele>
        <time>2022-09-17T09:26:37Z</time>
      </trkpt>
      <trkpt lat="42.65072" lon="1.68784">
        <ele>2191.552</ele>
        <time>2022-09-17T09:26:39Z</time>
      </trkpt>
      <trkpt lat="42.65071" lon="1.68784">
        <ele>2191.606</ele>
        <time>2022-09-17T09:26:41Z</time>
      </trkpt>
      <trkpt lat="42.65071" lon="1.68782">
        <ele>2191.943</ele>
        <time>2022-09-17T09:26:43Z</time>
      </trkpt>
      <trkpt lat="42.65071" lon="1.68781">
        <ele>2193.391</ele>
        <time>2022-09-17T09:26:45Z</time>
      </trkpt>
      <trkpt lat="42.65069" lon="1.6878">
        <ele>2192.569</ele>
        <time>2022-09-17T09:26:47Z</time>
      </trkpt>
      <trkpt lat="42.65069" lon="1.6878">
        <ele>2192.623</ele>
        <time>2022-09-17T09:26:49Z</time>
      </trkpt>
      <trkpt lat="42.65068" lon="1.68779">
        <ele>2192.379</ele>
        <time>2022-09-17T09:26:51Z</time>
      </trkpt>
      <trkpt lat="42.65068" lon="1.68778">
        <ele>2192.316</ele>
        <time>2022-09-17T09:26:53Z</time>
      </trkpt>
      <trkpt lat="42.65068" lon="1.68776">
        <ele>2192.227</ele>
        <time>2022-09-17T09:26:55Z</time>
      </trkpt>
      <trkpt lat="42.65067" lon="1.68776">
        <ele>2191.695</ele>
        <time>2022-09-17T09:26:57Z</time>
      </trkpt>
      <trkpt lat="42.65067" lon="1.68775">
        <ele>2191.888</ele>
        <time>2022-09-17T09:26:59Z</time>
      </trkpt>
      <trkpt lat="42.65067" lon="1.68773">
        <ele>2192.258</ele>
        <time>2022-09-17T09:27:01Z</time>
      </trkpt>
      <trkpt lat="42.65066" lon="1.68772">
        <ele>2192.356</ele>
        <time>2022-09-17T09:27:03Z</time>
      </trkpt>
      <trkpt lat="42.65066" lon="1.68771">
        <ele>2192.14</ele>
        <time>2022-09-17T09:27:05Z</time>
      </trkpt>
      <trkpt lat="42.65066" lon="1.6877">
        <ele>2192.493</ele>
        <time>2022-09-17T09:27:07Z</time>
      </trkpt>
      <trkpt lat="42.65066" lon="1.68769">
        <ele>2193.525</ele>
        <time>2022-09-17T09:27:09Z</time>
      </trkpt>
      <trkpt lat="42.65066" lon="1.68767">
        <ele>2195.439</ele>
        <time>2022-09-17T09:27:11Z</time>
      </trkpt>
      <trkpt lat="42.65065" lon="1.68766">
        <ele>2195.228</ele>
        <time>2022-09-17T09:27:13Z</time>
      </trkpt>
      <trkpt lat="42.65065" lon="1.68764">
        <ele>2195.264</ele>
        <time>2022-09-17T09:27:15Z</time>
      </trkpt>
      <trkpt lat="42.65064" lon="1.68763">
        <ele>2195.668</ele>
        <time>2022-09-17T09:27:17Z</time>
      </trkpt>
      <trkpt lat="42.65064" lon="1.68762">
        <ele>2196.302</ele>
        <time>2022-09-17T09:27:19Z</time>
      </trkpt>
      <trkpt lat="42.65064" lon="1.68761">
        <ele>2195.35</ele>
        <time>2022-09-17T09:27:21Z</time>
      </trkpt>
      <trkpt lat="42.65063" lon="1.68759">
        <ele>2196.064</ele>
        <time>2022-09-17T09:27:23Z</time>
      </trkpt>
      <trkpt lat="42.65063" lon="1.68758">
        <ele>2196.769</ele>
        <time>2022-09-17T09:27:25Z</time>
      </trkpt>
      <trkpt lat="42.65062" lon="1.68757">
        <ele>2196.507</ele>
        <time>2022-09-17T09:27:27Z</time>
      </trkpt>
      <trkpt lat="42.65061" lon="1.68756">
        <ele>2196.252</ele>
        <time>2022-09-17T09:27:29Z</time>
      </trkpt>
      <trkpt lat="42.6506" lon="1.68755">
        <ele>2196.486</ele>
        <time>2022-09-17T09:27:31Z</time>
      </trkpt>
      <trkpt lat="42.65059" lon="1.68755">
        <ele>2196.264</ele>
        <time>2022-09-17T09:27:33Z</time>
      </trkpt>
      <trkpt lat="42.65059" lon="1.68754">
        <ele>2197.517</ele>
        <time>2022-09-17T09:27:35Z</time>
      </trkpt>
      <trkpt lat="42.65058" lon="1.68753">
        <ele>2197.549</ele>
        <time>2022-09-17T09:27:37Z</time>
      </trkpt>
      <trkpt lat="42.65058" lon="1.68752">
        <ele>2198.105</ele>
        <time>2022-09-17T09:27:39Z</time>
      </trkpt>
      <trkpt lat="42.65057" lon="1.68751">
        <ele>2198.361</ele>
        <time>2022-09-17T09:27:41Z</time>
      </trkpt>
      <trkpt lat="42.65056" lon="1.6875">
        <ele>2198.571</ele>
        <time>2022-09-17T09:27:43Z</time>
      </trkpt>
      <trkpt lat="42.65056" lon="1.68748">
        <ele>2199.909</ele>
        <time>2022-09-17T09:27:45Z</time>
      </trkpt>
      <trkpt lat="42.65056" lon="1.68747">
        <ele>2200.54</ele>
        <time>2022-09-17T09:27:47Z</time>
      </trkpt>
      <trkpt lat="42.65054" lon="1.68748">
        <ele>2199.537</ele>
        <time>2022-09-17T09:27:49Z</time>
      </trkpt>
      <trkpt lat="42.65053" lon="1.68747">
        <ele>2199.854</ele>
        <time>2022-09-17T09:27:51Z</time>
      </trkpt>
      <trkpt lat="42.65052" lon="1.68746">
        <ele>2200.304</ele>
        <time>2022-09-17T09:27:53Z</time>
      </trkpt>
      <trkpt lat="42.65051" lon="1.68745">
        <ele>2200.72</ele>
        <time>2022-09-17T09:27:55Z</time>
      </trkpt>
      <trkpt lat="42.6505" lon="1.68744">
        <ele>2201.351</ele>
        <time>2022-09-17T09:27:57Z</time>
      </trkpt>
      <trkpt lat="42.65049" lon="1.68743">
        <ele>2201.698</ele>
        <time>2022-09-17T09:27:59Z</time>
      </trkpt>
      <trkpt lat="42.65048" lon="1.68742">
        <ele>2202.36</ele>
        <time>2022-09-17T09:28:01Z</time>
      </trkpt>
      <trkpt lat="42.65047" lon="1.68741">
        <ele>2202.846</ele>
        <time>2022-09-17T09:28:03Z</time>
      </trkpt>
      <trkpt lat="42.65047" lon="1.68739">
        <ele>2202.93</ele>
        <time>2022-09-17T09:28:05Z</time>
      </trkpt>
      <trkpt lat="42.65046" lon="1.68738">
        <ele>2203.423</ele>
        <time>2022-09-17T09:28:07Z</time>
      </trkpt>
      <trkpt lat="42.65045" lon="1.68736">
        <ele>2203.489</ele>
        <time>2022-09-17T09:28:09Z</time>
      </trkpt>
      <trkpt lat="42.65044" lon="1.68735">
        <ele>2204.302</ele>
        <time>2022-09-17T09:28:11Z</time>
      </trkpt>
      <trkpt lat="42.65044" lon="1.68734">
        <ele>2204.511</ele>
        <time>2022-09-17T09:28:13Z</time>
      </trkpt>
      <trkpt lat="42.65043" lon="1.68733">
        <ele>2205</ele>
        <time>2022-09-17T09:28:15Z</time>
      </trkpt>
      <trkpt lat="42.65042" lon="1.68732">
        <ele>2204.437</ele>
        <time>2022-09-17T09:28:17Z</time>
      </trkpt>
      <trkpt lat="42.65041" lon="1.68732">
        <ele>2203.675</ele>
        <time>2022-09-17T09:28:19Z</time>
      </trkpt>
      <trkpt lat="42.65039" lon="1.68731">
        <ele>2203.727</ele>
        <time>2022-09-17T09:28:21Z</time>
      </trkpt>
      <trkpt lat="42.65039" lon="1.6873">
        <ele>2204.217</ele>
        <time>2022-09-17T09:28:23Z</time>
      </trkpt>
      <trkpt lat="42.65037" lon="1.68729">
        <ele>2205.082</ele>
        <time>2022-09-17T09:28:25Z</time>
      </trkpt>
      <trkpt lat="42.65036" lon="1.68728">
        <ele>2205.914</ele>
        <time>2022-09-17T09:28:27Z</time>
      </trkpt>
      <trkpt lat="42.65035" lon="1.68727">
        <ele>2205.722</ele>
        <time>2022-09-17T09:28:29Z</time>
      </trkpt>
      <trkpt lat="42.65034" lon="1.68726">
        <ele>2206.323</ele>
        <time>2022-09-17T09:28:31Z</time>
      </trkpt>
      <trkpt lat="42.65034" lon="1.68724">
        <ele>2207.304</ele>
        <time>2022-09-17T09:28:33Z</time>
      </trkpt>
      <trkpt lat="42.65033" lon="1.68723">
        <ele>2208.042</ele>
        <time>2022-09-17T09:28:35Z</time>
      </trkpt>
      <trkpt lat="42.65033" lon="1.68723">
        <ele>2208.054</ele>
        <time>2022-09-17T09:28:37Z</time>
      </trkpt>
      <trkpt lat="42.65033" lon="1.68723">
        <ele>2208.051</ele>
        <time>2022-09-17T09:28:39Z</time>
      </trkpt>
      <trkpt lat="42.65033" lon="1.68723">
        <ele>2208.051</ele>
        <time>2022-09-17T09:28:41Z</time>
      </trkpt>
      <trkpt lat="42.65033" lon="1.68723">
        <ele>2208.459</ele>
        <time>2022-09-17T09:28:43Z</time>
      </trkpt>
      <trkpt lat="42.65032" lon="1.68723">
        <ele>2208.415</ele>
        <time>2022-09-17T09:28:45Z</time>
      </trkpt>
      <trkpt lat="42.65032" lon="1.68723">
        <ele>2208.407</ele>
        <time>2022-09-17T09:28:47Z</time>
      </trkpt>
      <trkpt lat="42.65032" lon="1.68723">
        <ele>2208.398</ele>
        <time>2022-09-17T09:28:49Z</time>
      </trkpt>
      <trkpt lat="42.65032" lon="1.68723">
        <ele>2208.383</ele>
        <time>2022-09-17T09:28:51Z</time>
      </trkpt>
      <trkpt lat="42.65032" lon="1.68723">
        <ele>2208.365</ele>
        <time>2022-09-17T09:28:53Z</time>
      </trkpt>
      <trkpt lat="42.65032" lon="1.68723">
        <ele>2207.641</ele>
        <time>2022-09-17T09:28:55Z</time>
      </trkpt>
      <trkpt lat="42.65032" lon="1.68723">
        <ele>2207.64</ele>
        <time>2022-09-17T09:28:57Z</time>
      </trkpt>
      <trkpt lat="42.65032" lon="1.68723">
        <ele>2207.645</ele>
        <time>2022-09-17T09:28:59Z</time>
      </trkpt>
      <trkpt lat="42.65032" lon="1.68723">
        <ele>2207.644</ele>
        <time>2022-09-17T09:29:01Z</time>
      </trkpt>
      <trkpt lat="42.65032" lon="1.68723">
        <ele>2207.649</ele>
        <time>2022-09-17T09:29:03Z</time>
      </trkpt>
      <trkpt lat="42.65032" lon="1.68723">
        <ele>2207.647</ele>
        <time>2022-09-17T09:29:05Z</time>
      </trkpt>
      <trkpt lat="42.65032" lon="1.68723">
        <ele>2207.636</ele>
        <time>2022-09-17T09:29:07Z</time>
      </trkpt>
      <trkpt lat="42.65032" lon="1.68723">
        <ele>2207.617</ele>
        <time>2022-09-17T09:29:09Z</time>
      </trkpt>
      <trkpt lat="42.65032" lon="1.68723">
        <ele>2207.612</ele>
        <time>2022-09-17T09:29:11Z</time>
      </trkpt>
      <trkpt lat="42.65032" lon="1.68723">
        <ele>2207.603</ele>
        <time>2022-09-17T09:29:13Z</time>
      </trkpt>
      <trkpt lat="42.65032" lon="1.68723">
        <ele>2207.583</ele>
        <time>2022-09-17T09:29:15Z</time>
      </trkpt>
      <trkpt lat="42.65032" lon="1.68723">
        <ele>2207.56</ele>
        <time>2022-09-17T09:29:17Z</time>
      </trkpt>
      <trkpt lat="42.65032" lon="1.68723">
        <ele>2207.545</ele>
        <time>2022-09-17T09:29:19Z</time>
      </trkpt>
      <trkpt lat="42.65032" lon="1.68723">
        <ele>2207.532</ele>
        <time>2022-09-17T09:29:21Z</time>
      </trkpt>
      <trkpt lat="42.65032" lon="1.68722">
        <ele>2206.974</ele>
        <time>2022-09-17T09:29:23Z</time>
      </trkpt>
      <trkpt lat="42.65032" lon="1.68722">
        <ele>2206.974</ele>
        <time>2022-09-17T09:29:25Z</time>
      </trkpt>
      <trkpt lat="42.65032" lon="1.68722">
        <ele>2206.964</ele>
        <time>2022-09-17T09:29:27Z</time>
      </trkpt>
      <trkpt lat="42.65032" lon="1.68722">
        <ele>2206.923</ele>
        <time>2022-09-17T09:29:29Z</time>
      </trkpt>
      <trkpt lat="42.65032" lon="1.68722">
        <ele>2206.888</ele>
        <time>2022-09-17T09:29:31Z</time>
      </trkpt>
      <trkpt lat="42.65032" lon="1.68722">
        <ele>2206.865</ele>
        <time>2022-09-17T09:29:33Z</time>
      </trkpt>
      <trkpt lat="42.65032" lon="1.68722">
        <ele>2206.855</ele>
        <time>2022-09-17T09:29:35Z</time>
      </trkpt>
      <trkpt lat="42.65032" lon="1.68722">
        <ele>2206.837</ele>
        <time>2022-09-17T09:29:37Z</time>
      </trkpt>
      <trkpt lat="42.65032" lon="1.68722">
        <ele>2206.827</ele>
        <time>2022-09-17T09:29:39Z</time>
      </trkpt>
      <trkpt lat="42.65032" lon="1.68722">
        <ele>2206.797</ele>
        <time>2022-09-17T09:29:41Z</time>
      </trkpt>
      <trkpt lat="42.65032" lon="1.68722">
        <ele>2206.751</ele>
        <time>2022-09-17T09:29:43Z</time>
      </trkpt>
      <trkpt lat="42.65032" lon="1.68722">
        <ele>2206.749</ele>
        <time>2022-09-17T09:29:45Z</time>
      </trkpt>
      <trkpt lat="42.65032" lon="1.68722">
        <ele>2206.74</ele>
        <time>2022-09-17T09:29:47Z</time>
      </trkpt>
      <trkpt lat="42.65032" lon="1.68722">
        <ele>2206.737</ele>
        <time>2022-09-17T09:29:49Z</time>
      </trkpt>
      <trkpt lat="42.65032" lon="1.68722">
        <ele>2206.743</ele>
        <time>2022-09-17T09:29:51Z</time>
      </trkpt>
      <trkpt lat="42.65032" lon="1.68722">
        <ele>2206.541</ele>
        <time>2022-09-17T09:29:53Z</time>
      </trkpt>
      <trkpt lat="42.65032" lon="1.68723">
        <ele>2206.503</ele>
        <time>2022-09-17T09:29:55Z</time>
      </trkpt>
      <trkpt lat="42.65032" lon="1.68723">
        <ele>2206.491</ele>
        <time>2022-09-17T09:29:57Z</time>
      </trkpt>
      <trkpt lat="42.65032" lon="1.68723">
        <ele>2206.486</ele>
        <time>2022-09-17T09:29:59Z</time>
      </trkpt>
      <trkpt lat="42.65032" lon="1.68723">
        <ele>2206.214</ele>
        <time>2022-09-17T09:30:01Z</time>
      </trkpt>
      <trkpt lat="42.65033" lon="1.68722">
        <ele>2206.582</ele>
        <time>2022-09-17T09:30:04Z</time>
      </trkpt>
      <trkpt lat="42.65031" lon="1.68722">
        <ele>2206.068</ele>
        <time>2022-09-17T09:30:06Z</time>
      </trkpt>
      <trkpt lat="42.65029" lon="1.68721">
        <ele>2205.622</ele>
        <time>2022-09-17T09:30:08Z</time>
      </trkpt>
      <trkpt lat="42.65027" lon="1.6872">
        <ele>2205.915</ele>
        <time>2022-09-17T09:30:10Z</time>
      </trkpt>
      <trkpt lat="42.65025" lon="1.6872">
        <ele>2205.758</ele>
        <time>2022-09-17T09:30:12Z</time>
      </trkpt>
      <trkpt lat="42.65023" lon="1.68719">
        <ele>2205.737</ele>
        <time>2022-09-17T09:30:14Z</time>
      </trkpt>
      <trkpt lat="42.65022" lon="1.68717">
        <ele>2205.755</ele>
        <time>2022-09-17T09:30:16Z</time>
      </trkpt>
      <trkpt lat="42.65021" lon="1.68716">
        <ele>2205.295</ele>
        <time>2022-09-17T09:30:18Z</time>
      </trkpt>
      <trkpt lat="42.6502" lon="1.68714">
        <ele>2206.207</ele>
        <time>2022-09-17T09:30:20Z</time>
      </trkpt>
      <trkpt lat="42.65018" lon="1.68712">
        <ele>2206</ele>
        <time>2022-09-17T09:30:22Z</time>
      </trkpt>
      <trkpt lat="42.65017" lon="1.68711">
        <ele>2205.709</ele>
        <time>2022-09-17T09:30:24Z</time>
      </trkpt>
      <trkpt lat="42.65016" lon="1.6871">
        <ele>2205.58</ele>
        <time>2022-09-17T09:30:26Z</time>
      </trkpt>
      <trkpt lat="42.65016" lon="1.6871">
        <ele>2205.593</ele>
        <time>2022-09-17T09:30:28Z</time>
      </trkpt>
      <trkpt lat="42.65015" lon="1.68709">
        <ele>2206.319</ele>
        <time>2022-09-17T09:30:30Z</time>
      </trkpt>
      <trkpt lat="42.65013" lon="1.68708">
        <ele>2207.234</ele>
        <time>2022-09-17T09:30:32Z</time>
      </trkpt>
      <trkpt lat="42.65013" lon="1.68707">
        <ele>2207.212</ele>
        <time>2022-09-17T09:30:33Z</time>
      </trkpt>
      <trkpt lat="42.65012" lon="1.68706">
        <ele>2206.107</ele>
        <time>2022-09-17T09:30:36Z</time>
      </trkpt>
      <trkpt lat="42.65011" lon="1.68705">
        <ele>2204.95</ele>
        <time>2022-09-17T09:30:38Z</time>
      </trkpt>
      <trkpt lat="42.6501" lon="1.68703">
        <ele>2204.28</ele>
        <time>2022-09-17T09:30:40Z</time>
      </trkpt>
      <trkpt lat="42.65009" lon="1.68702">
        <ele>2204.721</ele>
        <time>2022-09-17T09:30:42Z</time>
      </trkpt>
      <trkpt lat="42.65008" lon="1.687">
        <ele>2204.226</ele>
        <time>2022-09-17T09:30:44Z</time>
      </trkpt>
      <trkpt lat="42.65007" lon="1.68699">
        <ele>2204.825</ele>
        <time>2022-09-17T09:30:46Z</time>
      </trkpt>
      <trkpt lat="42.65006" lon="1.68698">
        <ele>2204.449</ele>
        <time>2022-09-17T09:30:48Z</time>
      </trkpt>
      <trkpt lat="42.65005" lon="1.68696">
        <ele>2204.514</ele>
        <time>2022-09-17T09:30:50Z</time>
      </trkpt>
      <trkpt lat="42.65005" lon="1.68695">
        <ele>2203.931</ele>
        <time>2022-09-17T09:30:52Z</time>
      </trkpt>
      <trkpt lat="42.65004" lon="1.68694">
        <ele>2203.701</ele>
        <time>2022-09-17T09:30:54Z</time>
      </trkpt>
      <trkpt lat="42.65004" lon="1.68693">
        <ele>2203.974</ele>
        <time>2022-09-17T09:30:56Z</time>
      </trkpt>
      <trkpt lat="42.65003" lon="1.68691">
        <ele>2204.671</ele>
        <time>2022-09-17T09:30:58Z</time>
      </trkpt>
      <trkpt lat="42.65003" lon="1.6869">
        <ele>2205.409</ele>
        <time>2022-09-17T09:31:00Z</time>
      </trkpt>
      <trkpt lat="42.65002" lon="1.68688">
        <ele>2206.302</ele>
        <time>2022-09-17T09:31:02Z</time>
      </trkpt>
      <trkpt lat="42.65002" lon="1.68686">
        <ele>2206.367</ele>
        <time>2022-09-17T09:31:04Z</time>
      </trkpt>
      <trkpt lat="42.65002" lon="1.68685">
        <ele>2207.447</ele>
        <time>2022-09-17T09:31:06Z</time>
      </trkpt>
      <trkpt lat="42.65001" lon="1.68684">
        <ele>2208.386</ele>
        <time>2022-09-17T09:31:08Z</time>
      </trkpt>
      <trkpt lat="42.65001" lon="1.68682">
        <ele>2208.193</ele>
        <time>2022-09-17T09:31:10Z</time>
      </trkpt>
      <trkpt lat="42.65" lon="1.68681">
        <ele>2208.863</ele>
        <time>2022-09-17T09:31:12Z</time>
      </trkpt>
      <trkpt lat="42.65" lon="1.68681">
        <ele>2208.722</ele>
        <time>2022-09-17T09:31:14Z</time>
      </trkpt>
      <trkpt lat="42.64999" lon="1.68679">
        <ele>2208.354</ele>
        <time>2022-09-17T09:31:16Z</time>
      </trkpt>
      <trkpt lat="42.64998" lon="1.68678">
        <ele>2208.17</ele>
        <time>2022-09-17T09:31:18Z</time>
      </trkpt>
      <trkpt lat="42.64997" lon="1.68678">
        <ele>2209.22</ele>
        <time>2022-09-17T09:31:20Z</time>
      </trkpt>
      <trkpt lat="42.64997" lon="1.68676">
        <ele>2209.679</ele>
        <time>2022-09-17T09:31:22Z</time>
      </trkpt>
      <trkpt lat="42.64997" lon="1.68675">
        <ele>2210.966</ele>
        <time>2022-09-17T09:31:24Z</time>
      </trkpt>
      <trkpt lat="42.64996" lon="1.68674">
        <ele>2212.377</ele>
        <time>2022-09-17T09:31:26Z</time>
      </trkpt>
      <trkpt lat="42.64996" lon="1.68673">
        <ele>2212.762</ele>
        <time>2022-09-17T09:31:28Z</time>
      </trkpt>
      <trkpt lat="42.64996" lon="1.68672">
        <ele>2212.506</ele>
        <time>2022-09-17T09:31:30Z</time>
      </trkpt>
      <trkpt lat="42.64996" lon="1.68672">
        <ele>2212.716</ele>
        <time>2022-09-17T09:31:32Z</time>
      </trkpt>
      <trkpt lat="42.64996" lon="1.68671">
        <ele>2212.782</ele>
        <time>2022-09-17T09:31:34Z</time>
      </trkpt>
      <trkpt lat="42.64996" lon="1.6867">
        <ele>2213.727</ele>
        <time>2022-09-17T09:31:36Z</time>
      </trkpt>
      <trkpt lat="42.64995" lon="1.68669">
        <ele>2215.159</ele>
        <time>2022-09-17T09:31:38Z</time>
      </trkpt>
      <trkpt lat="42.64994" lon="1.68669">
        <ele>2215.363</ele>
        <time>2022-09-17T09:31:40Z</time>
      </trkpt>
      <trkpt lat="42.64994" lon="1.68668">
        <ele>2216.122</ele>
        <time>2022-09-17T09:31:42Z</time>
      </trkpt>
      <trkpt lat="42.64994" lon="1.68666">
        <ele>2216.646</ele>
        <time>2022-09-17T09:31:44Z</time>
      </trkpt>
      <trkpt lat="42.64993" lon="1.68664">
        <ele>2217.562</ele>
        <time>2022-09-17T09:31:46Z</time>
      </trkpt>
      <trkpt lat="42.64993" lon="1.68664">
        <ele>2217.66</ele>
        <time>2022-09-17T09:31:48Z</time>
      </trkpt>
      <trkpt lat="42.64991" lon="1.68664">
        <ele>2217.092</ele>
        <time>2022-09-17T09:31:50Z</time>
      </trkpt>
      <trkpt lat="42.64989" lon="1.68662">
        <ele>2218.001</ele>
        <time>2022-09-17T09:31:52Z</time>
      </trkpt>
      <trkpt lat="42.64988" lon="1.68661">
        <ele>2218.27</ele>
        <time>2022-09-17T09:31:54Z</time>
      </trkpt>
      <trkpt lat="42.64988" lon="1.6866">
        <ele>2217.981</ele>
        <time>2022-09-17T09:31:56Z</time>
      </trkpt>
      <trkpt lat="42.64987" lon="1.68659">
        <ele>2218.17</ele>
        <time>2022-09-17T09:31:58Z</time>
      </trkpt>
      <trkpt lat="42.64986" lon="1.68658">
        <ele>2217.925</ele>
        <time>2022-09-17T09:32:00Z</time>
      </trkpt>
      <trkpt lat="42.64985" lon="1.68657">
        <ele>2218.499</ele>
        <time>2022-09-17T09:32:02Z</time>
      </trkpt>
      <trkpt lat="42.64985" lon="1.68657">
        <ele>2219.623</ele>
        <time>2022-09-17T09:32:04Z</time>
      </trkpt>
      <trkpt lat="42.64984" lon="1.68656">
        <ele>2220.228</ele>
        <time>2022-09-17T09:32:06Z</time>
      </trkpt>
      <trkpt lat="42.64983" lon="1.68656">
        <ele>2220.207</ele>
        <time>2022-09-17T09:32:08Z</time>
      </trkpt>
      <trkpt lat="42.64981" lon="1.68656">
        <ele>2219.894</ele>
        <time>2022-09-17T09:32:10Z</time>
      </trkpt>
      <trkpt lat="42.6498" lon="1.68655">
        <ele>2219.437</ele>
        <time>2022-09-17T09:32:12Z</time>
      </trkpt>
      <trkpt lat="42.6498" lon="1.68654">
        <ele>2218.796</ele>
        <time>2022-09-17T09:32:14Z</time>
      </trkpt>
      <trkpt lat="42.6498" lon="1.68654">
        <ele>2218.798</ele>
        <time>2022-09-17T09:32:16Z</time>
      </trkpt>
      <trkpt lat="42.64979" lon="1.68654">
        <ele>2218.484</ele>
        <time>2022-09-17T09:32:18Z</time>
      </trkpt>
      <trkpt lat="42.64978" lon="1.68653">
        <ele>2218.794</ele>
        <time>2022-09-17T09:32:20Z</time>
      </trkpt>
      <trkpt lat="42.64978" lon="1.68652">
        <ele>2218.537</ele>
        <time>2022-09-17T09:32:22Z</time>
      </trkpt>
      <trkpt lat="42.64978" lon="1.68652">
        <ele>2218.427</ele>
        <time>2022-09-17T09:32:24Z</time>
      </trkpt>
      <trkpt lat="42.64977" lon="1.68652">
        <ele>2218.455</ele>
        <time>2022-09-17T09:32:26Z</time>
      </trkpt>
      <trkpt lat="42.64976" lon="1.68651">
        <ele>2217.837</ele>
        <time>2022-09-17T09:32:28Z</time>
      </trkpt>
      <trkpt lat="42.64974" lon="1.68651">
        <ele>2218.684</ele>
        <time>2022-09-17T09:32:30Z</time>
      </trkpt>
      <trkpt lat="42.64974" lon="1.68651">
        <ele>2218.516</ele>
        <time>2022-09-17T09:32:32Z</time>
      </trkpt>
      <trkpt lat="42.64972" lon="1.68651">
        <ele>2219.701</ele>
        <time>2022-09-17T09:32:34Z</time>
      </trkpt>
      <trkpt lat="42.64971" lon="1.68652">
        <ele>2220.023</ele>
        <time>2022-09-17T09:32:36Z</time>
      </trkpt>
      <trkpt lat="42.6497" lon="1.68652">
        <ele>2219.381</ele>
        <time>2022-09-17T09:32:38Z</time>
      </trkpt>
      <trkpt lat="42.64969" lon="1.68652">
        <ele>2219.151</ele>
        <time>2022-09-17T09:32:40Z</time>
      </trkpt>
      <trkpt lat="42.64968" lon="1.68652">
        <ele>2219.008</ele>
        <time>2022-09-17T09:32:42Z</time>
      </trkpt>
      <trkpt lat="42.64967" lon="1.68654">
        <ele>2219.513</ele>
        <time>2022-09-17T09:32:44Z</time>
      </trkpt>
      <trkpt lat="42.64966" lon="1.68654">
        <ele>2220.54</ele>
        <time>2022-09-17T09:32:46Z</time>
      </trkpt>
      <trkpt lat="42.64964" lon="1.68654">
        <ele>2220.724</ele>
        <time>2022-09-17T09:32:48Z</time>
      </trkpt>
      <trkpt lat="42.64962" lon="1.68655">
        <ele>2220.775</ele>
        <time>2022-09-17T09:32:50Z</time>
      </trkpt>
      <trkpt lat="42.64961" lon="1.68656">
        <ele>2221.898</ele>
        <time>2022-09-17T09:32:52Z</time>
      </trkpt>
      <trkpt lat="42.64961" lon="1.68655">
        <ele>2221.525</ele>
        <time>2022-09-17T09:32:54Z</time>
      </trkpt>
      <trkpt lat="42.6496" lon="1.68656">
        <ele>2221.502</ele>
        <time>2022-09-17T09:32:56Z</time>
      </trkpt>
      <trkpt lat="42.64959" lon="1.68656">
        <ele>2221.952</ele>
        <time>2022-09-17T09:32:58Z</time>
      </trkpt>
      <trkpt lat="42.64957" lon="1.68657">
        <ele>2221.838</ele>
        <time>2022-09-17T09:33:00Z</time>
      </trkpt>
      <trkpt lat="42.64956" lon="1.68655">
        <ele>2222.043</ele>
        <time>2022-09-17T09:33:02Z</time>
      </trkpt>
      <trkpt lat="42.64954" lon="1.68654">
        <ele>2221.889</ele>
        <time>2022-09-17T09:33:04Z</time>
      </trkpt>
      <trkpt lat="42.64953" lon="1.68652">
        <ele>2221.686</ele>
        <time>2022-09-17T09:33:06Z</time>
      </trkpt>
      <trkpt lat="42.64952" lon="1.6865">
        <ele>2221.422</ele>
        <time>2022-09-17T09:33:08Z</time>
      </trkpt>
      <trkpt lat="42.64951" lon="1.6865">
        <ele>2222.2</ele>
        <time>2022-09-17T09:33:10Z</time>
      </trkpt>
      <trkpt lat="42.64949" lon="1.6865">
        <ele>2221.418</ele>
        <time>2022-09-17T09:33:12Z</time>
      </trkpt>
      <trkpt lat="42.64948" lon="1.68649">
        <ele>2221.438</ele>
        <time>2022-09-17T09:33:14Z</time>
      </trkpt>
      <trkpt lat="42.64947" lon="1.68649">
        <ele>2220.998</ele>
        <time>2022-09-17T09:33:16Z</time>
      </trkpt>
      <trkpt lat="42.64946" lon="1.68648">
        <ele>2222.19</ele>
        <time>2022-09-17T09:33:18Z</time>
      </trkpt>
      <trkpt lat="42.64945" lon="1.68648">
        <ele>2221.331</ele>
        <time>2022-09-17T09:33:20Z</time>
      </trkpt>
      <trkpt lat="42.64944" lon="1.68648">
        <ele>2221.417</ele>
        <time>2022-09-17T09:33:22Z</time>
      </trkpt>
      <trkpt lat="42.64942" lon="1.68648">
        <ele>2221.489</ele>
        <time>2022-09-17T09:33:24Z</time>
      </trkpt>
      <trkpt lat="42.64941" lon="1.68648">
        <ele>2221.562</ele>
        <time>2022-09-17T09:33:26Z</time>
      </trkpt>
      <trkpt lat="42.6494" lon="1.68648">
        <ele>2220.96</ele>
        <time>2022-09-17T09:33:28Z</time>
      </trkpt>
      <trkpt lat="42.64937" lon="1.68648">
        <ele>2220.824</ele>
        <time>2022-09-17T09:33:30Z</time>
      </trkpt>
      <trkpt lat="42.64937" lon="1.68648">
        <ele>2220.908</ele>
        <time>2022-09-17T09:33:32Z</time>
      </trkpt>
      <trkpt lat="42.64937" lon="1.68647">
        <ele>2219.875</ele>
        <time>2022-09-17T09:33:34Z</time>
      </trkpt>
      <trkpt lat="42.64936" lon="1.68646">
        <ele>2219.982</ele>
        <time>2022-09-17T09:33:36Z</time>
      </trkpt>
      <trkpt lat="42.64936" lon="1.68646">
        <ele>2220.364</ele>
        <time>2022-09-17T09:33:38Z</time>
      </trkpt>
      <trkpt lat="42.64935" lon="1.68646">
        <ele>2220.98</ele>
        <time>2022-09-17T09:33:40Z</time>
      </trkpt>
      <trkpt lat="42.64935" lon="1.68646">
        <ele>2221.873</ele>
        <time>2022-09-17T09:33:42Z</time>
      </trkpt>
      <trkpt lat="42.64934" lon="1.68646">
        <ele>2221.451</ele>
        <time>2022-09-17T09:33:44Z</time>
      </trkpt>
      <trkpt lat="42.64933" lon="1.68645">
        <ele>2221.895</ele>
        <time>2022-09-17T09:33:46Z</time>
      </trkpt>
      <trkpt lat="42.64932" lon="1.68643">
        <ele>2220.794</ele>
        <time>2022-09-17T09:33:48Z</time>
      </trkpt>
      <trkpt lat="42.64932" lon="1.68644">
        <ele>2220.776</ele>
        <time>2022-09-17T09:33:50Z</time>
      </trkpt>
      <trkpt lat="42.64931" lon="1.68644">
        <ele>2220.788</ele>
        <time>2022-09-17T09:33:52Z</time>
      </trkpt>
      <trkpt lat="42.64929" lon="1.68642">
        <ele>2221.267</ele>
        <time>2022-09-17T09:33:54Z</time>
      </trkpt>
      <trkpt lat="42.64928" lon="1.68643">
        <ele>2221.156</ele>
        <time>2022-09-17T09:33:56Z</time>
      </trkpt>
      <trkpt lat="42.64927" lon="1.68643">
        <ele>2221.14</ele>
        <time>2022-09-17T09:33:58Z</time>
      </trkpt>
      <trkpt lat="42.64927" lon="1.68643">
        <ele>2221.621</ele>
        <time>2022-09-17T09:34:00Z</time>
      </trkpt>
      <trkpt lat="42.64927" lon="1.68644">
        <ele>2222.481</ele>
        <time>2022-09-17T09:34:02Z</time>
      </trkpt>
      <trkpt lat="42.64927" lon="1.68643">
        <ele>2223.064</ele>
        <time>2022-09-17T09:34:04Z</time>
      </trkpt>
      <trkpt lat="42.64927" lon="1.68644">
        <ele>2223.687</ele>
        <time>2022-09-17T09:34:06Z</time>
      </trkpt>
      <trkpt lat="42.64927" lon="1.68644">
        <ele>2223.236</ele>
        <time>2022-09-17T09:34:08Z</time>
      </trkpt>
      <trkpt lat="42.64926" lon="1.68642">
        <ele>2223.405</ele>
        <time>2022-09-17T09:34:10Z</time>
      </trkpt>
      <trkpt lat="42.64926" lon="1.68643">
        <ele>2224.74</ele>
        <time>2022-09-17T09:34:12Z</time>
      </trkpt>
      <trkpt lat="42.64926" lon="1.68643">
        <ele>2224.485</ele>
        <time>2022-09-17T09:34:14Z</time>
      </trkpt>
      <trkpt lat="42.64924" lon="1.68642">
        <ele>2224.659</ele>
        <time>2022-09-17T09:34:16Z</time>
      </trkpt>
      <trkpt lat="42.64923" lon="1.68641">
        <ele>2225.581</ele>
        <time>2022-09-17T09:34:18Z</time>
      </trkpt>
      <trkpt lat="42.64922" lon="1.68642">
        <ele>2225.381</ele>
        <time>2022-09-17T09:34:20Z</time>
      </trkpt>
      <trkpt lat="42.64921" lon="1.68643">
        <ele>2226.489</ele>
        <time>2022-09-17T09:34:22Z</time>
      </trkpt>
      <trkpt lat="42.64921" lon="1.68642">
        <ele>2226.565</ele>
        <time>2022-09-17T09:34:24Z</time>
      </trkpt>
      <trkpt lat="42.6492" lon="1.68642">
        <ele>2227.664</ele>
        <time>2022-09-17T09:34:26Z</time>
      </trkpt>
      <trkpt lat="42.64919" lon="1.68644">
        <ele>2228.064</ele>
        <time>2022-09-17T09:34:28Z</time>
      </trkpt>
      <trkpt lat="42.64916" lon="1.68642">
        <ele>2227.409</ele>
        <time>2022-09-17T09:34:30Z</time>
      </trkpt>
      <trkpt lat="42.64915" lon="1.68643">
        <ele>2227.867</ele>
        <time>2022-09-17T09:34:32Z</time>
      </trkpt>
      <trkpt lat="42.64914" lon="1.68644">
        <ele>2228.053</ele>
        <time>2022-09-17T09:34:34Z</time>
      </trkpt>
      <trkpt lat="42.64912" lon="1.68646">
        <ele>2228.531</ele>
        <time>2022-09-17T09:34:36Z</time>
      </trkpt>
      <trkpt lat="42.64912" lon="1.68647">
        <ele>2229.37</ele>
        <time>2022-09-17T09:34:38Z</time>
      </trkpt>
      <trkpt lat="42.64911" lon="1.68647">
        <ele>2229.251</ele>
        <time>2022-09-17T09:34:40Z</time>
      </trkpt>
      <trkpt lat="42.6491" lon="1.68648">
        <ele>2229.734</ele>
        <time>2022-09-17T09:34:42Z</time>
      </trkpt>
      <trkpt lat="42.64909" lon="1.68648">
        <ele>2230.169</ele>
        <time>2022-09-17T09:34:44Z</time>
      </trkpt>
      <trkpt lat="42.64908" lon="1.68648">
        <ele>2230.682</ele>
        <time>2022-09-17T09:34:46Z</time>
      </trkpt>
      <trkpt lat="42.64909" lon="1.68649">
        <ele>2231.178</ele>
        <time>2022-09-17T09:34:48Z</time>
      </trkpt>
      <trkpt lat="42.64909" lon="1.68649">
        <ele>2231.016</ele>
        <time>2022-09-17T09:34:50Z</time>
      </trkpt>
      <trkpt lat="42.64908" lon="1.68649">
        <ele>2231.217</ele>
        <time>2022-09-17T09:34:52Z</time>
      </trkpt>
      <trkpt lat="42.64907" lon="1.68649">
        <ele>2231.221</ele>
        <time>2022-09-17T09:34:54Z</time>
      </trkpt>
      <trkpt lat="42.64906" lon="1.68649">
        <ele>2232.608</ele>
        <time>2022-09-17T09:34:56Z</time>
      </trkpt>
      <trkpt lat="42.64906" lon="1.68649">
        <ele>2233.169</ele>
        <time>2022-09-17T09:34:58Z</time>
      </trkpt>
      <trkpt lat="42.64905" lon="1.6865">
        <ele>2234.178</ele>
        <time>2022-09-17T09:35:00Z</time>
      </trkpt>
      <trkpt lat="42.64905" lon="1.6865">
        <ele>2234.733</ele>
        <time>2022-09-17T09:35:02Z</time>
      </trkpt>
      <trkpt lat="42.64903" lon="1.6865">
        <ele>2234.359</ele>
        <time>2022-09-17T09:35:04Z</time>
      </trkpt>
      <trkpt lat="42.64902" lon="1.6865">
        <ele>2235.17</ele>
        <time>2022-09-17T09:35:06Z</time>
      </trkpt>
      <trkpt lat="42.64902" lon="1.6865">
        <ele>2235.646</ele>
        <time>2022-09-17T09:35:08Z</time>
      </trkpt>
      <trkpt lat="42.64901" lon="1.6865">
        <ele>2235.474</ele>
        <time>2022-09-17T09:35:10Z</time>
      </trkpt>
      <trkpt lat="42.64902" lon="1.68651">
        <ele>2235.973</ele>
        <time>2022-09-17T09:35:12Z</time>
      </trkpt>
      <trkpt lat="42.64902" lon="1.68651">
        <ele>2236.33</ele>
        <time>2022-09-17T09:35:14Z</time>
      </trkpt>
      <trkpt lat="42.64902" lon="1.68651">
        <ele>2236.081</ele>
        <time>2022-09-17T09:35:16Z</time>
      </trkpt>
      <trkpt lat="42.64901" lon="1.68652">
        <ele>2235.898</ele>
        <time>2022-09-17T09:35:18Z</time>
      </trkpt>
      <trkpt lat="42.64901" lon="1.68652">
        <ele>2236.168</ele>
        <time>2022-09-17T09:35:20Z</time>
      </trkpt>
      <trkpt lat="42.64901" lon="1.68653">
        <ele>2236.179</ele>
        <time>2022-09-17T09:35:22Z</time>
      </trkpt>
      <trkpt lat="42.64901" lon="1.68653">
        <ele>2237.231</ele>
        <time>2022-09-17T09:35:24Z</time>
      </trkpt>
      <trkpt lat="42.64901" lon="1.68654">
        <ele>2237.242</ele>
        <time>2022-09-17T09:35:26Z</time>
      </trkpt>
      <trkpt lat="42.64901" lon="1.68654">
        <ele>2237.284</ele>
        <time>2022-09-17T09:35:28Z</time>
      </trkpt>
      <trkpt lat="42.64901" lon="1.68654">
        <ele>2237.287</ele>
        <time>2022-09-17T09:35:30Z</time>
      </trkpt>
      <trkpt lat="42.64901" lon="1.68654">
        <ele>2238.463</ele>
        <time>2022-09-17T09:35:32Z</time>
      </trkpt>
      <trkpt lat="42.649" lon="1.68654">
        <ele>2239.07</ele>
        <time>2022-09-17T09:35:34Z</time>
      </trkpt>
      <trkpt lat="42.64899" lon="1.68654">
        <ele>2239.02</ele>
        <time>2022-09-17T09:35:36Z</time>
      </trkpt>
      <trkpt lat="42.64899" lon="1.68654">
        <ele>2239.376</ele>
        <time>2022-09-17T09:35:38Z</time>
      </trkpt>
      <trkpt lat="42.64899" lon="1.68654">
        <ele>2239.423</ele>
        <time>2022-09-17T09:35:40Z</time>
      </trkpt>
      <trkpt lat="42.64898" lon="1.68654">
        <ele>2239</ele>
        <time>2022-09-17T09:35:42Z</time>
      </trkpt>
      <trkpt lat="42.64898" lon="1.68654">
        <ele>2239.698</ele>
        <time>2022-09-17T09:35:44Z</time>
      </trkpt>
      <trkpt lat="42.64897" lon="1.68654">
        <ele>2239.626</ele>
        <time>2022-09-17T09:35:46Z</time>
      </trkpt>
      <trkpt lat="42.64896" lon="1.68654">
        <ele>2240.577</ele>
        <time>2022-09-17T09:35:48Z</time>
      </trkpt>
      <trkpt lat="42.64897" lon="1.68654">
        <ele>2240.878</ele>
        <time>2022-09-17T09:35:50Z</time>
      </trkpt>
      <trkpt lat="42.64897" lon="1.68654">
        <ele>2240.882</ele>
        <time>2022-09-17T09:35:52Z</time>
      </trkpt>
      <trkpt lat="42.64897" lon="1.68654">
        <ele>2241.498</ele>
        <time>2022-09-17T09:35:54Z</time>
      </trkpt>
      <trkpt lat="42.64897" lon="1.68654">
        <ele>2241.571</ele>
        <time>2022-09-17T09:35:56Z</time>
      </trkpt>
      <trkpt lat="42.64896" lon="1.68654">
        <ele>2241.689</ele>
        <time>2022-09-17T09:35:58Z</time>
      </trkpt>
      <trkpt lat="42.64896" lon="1.68654">
        <ele>2240.747</ele>
        <time>2022-09-17T09:36:00Z</time>
      </trkpt>
      <trkpt lat="42.64896" lon="1.68654">
        <ele>2240.71</ele>
        <time>2022-09-17T09:36:02Z</time>
      </trkpt>
      <trkpt lat="42.64895" lon="1.68655">
        <ele>2240.905</ele>
        <time>2022-09-17T09:36:04Z</time>
      </trkpt>
      <trkpt lat="42.64895" lon="1.68655">
        <ele>2240.901</ele>
        <time>2022-09-17T09:36:06Z</time>
      </trkpt>
      <trkpt lat="42.64894" lon="1.68655">
        <ele>2241.947</ele>
        <time>2022-09-17T09:36:08Z</time>
      </trkpt>
      <trkpt lat="42.64893" lon="1.68656">
        <ele>2243.267</ele>
        <time>2022-09-17T09:36:10Z</time>
      </trkpt>
      <trkpt lat="42.64893" lon="1.68656">
        <ele>2243.33</ele>
        <time>2022-09-17T09:36:12Z</time>
      </trkpt>
      <trkpt lat="42.64893" lon="1.68656">
        <ele>2244.099</ele>
        <time>2022-09-17T09:36:14Z</time>
      </trkpt>
      <trkpt lat="42.64892" lon="1.68656">
        <ele>2243.78</ele>
        <time>2022-09-17T09:36:16Z</time>
      </trkpt>
      <trkpt lat="42.64892" lon="1.68656">
        <ele>2243.251</ele>
        <time>2022-09-17T09:36:18Z</time>
      </trkpt>
      <trkpt lat="42.64892" lon="1.68657">
        <ele>2244.649</ele>
        <time>2022-09-17T09:36:20Z</time>
      </trkpt>
      <trkpt lat="42.64892" lon="1.68658">
        <ele>2244.842</ele>
        <time>2022-09-17T09:36:22Z</time>
      </trkpt>
      <trkpt lat="42.64892" lon="1.68658">
        <ele>2244.742</ele>
        <time>2022-09-17T09:36:24Z</time>
      </trkpt>
      <trkpt lat="42.64892" lon="1.68657">
        <ele>2245.241</ele>
        <time>2022-09-17T09:36:26Z</time>
      </trkpt>
      <trkpt lat="42.64892" lon="1.68656">
        <ele>2246.014</ele>
        <time>2022-09-17T09:36:28Z</time>
      </trkpt>
      <trkpt lat="42.64892" lon="1.68655">
        <ele>2246.784</ele>
        <time>2022-09-17T09:36:30Z</time>
      </trkpt>
      <trkpt lat="42.64892" lon="1.68655">
        <ele>2246.354</ele>
        <time>2022-09-17T09:36:32Z</time>
      </trkpt>
      <trkpt lat="42.64892" lon="1.68655">
        <ele>2246.032</ele>
        <time>2022-09-17T09:36:34Z</time>
      </trkpt>
      <trkpt lat="42.64891" lon="1.68654">
        <ele>2245.512</ele>
        <time>2022-09-17T09:36:36Z</time>
      </trkpt>
      <trkpt lat="42.64891" lon="1.68653">
        <ele>2245.614</ele>
        <time>2022-09-17T09:36:38Z</time>
      </trkpt>
      <trkpt lat="42.6489" lon="1.68652">
        <ele>2246.645</ele>
        <time>2022-09-17T09:36:40Z</time>
      </trkpt>
      <trkpt lat="42.64889" lon="1.68651">
        <ele>2247.946</ele>
        <time>2022-09-17T09:36:42Z</time>
      </trkpt>
      <trkpt lat="42.64889" lon="1.68651">
        <ele>2247.923</ele>
        <time>2022-09-17T09:36:44Z</time>
      </trkpt>
      <trkpt lat="42.64889" lon="1.68651">
        <ele>2248.358</ele>
        <time>2022-09-17T09:36:46Z</time>
      </trkpt>
      <trkpt lat="42.64889" lon="1.68651">
        <ele>2249.232</ele>
        <time>2022-09-17T09:36:48Z</time>
      </trkpt>
      <trkpt lat="42.64889" lon="1.68651">
        <ele>2249.308</ele>
        <time>2022-09-17T09:36:50Z</time>
      </trkpt>
      <trkpt lat="42.64888" lon="1.68651">
        <ele>2249.208</ele>
        <time>2022-09-17T09:36:52Z</time>
      </trkpt>
      <trkpt lat="42.64889" lon="1.68651">
        <ele>2250.254</ele>
        <time>2022-09-17T09:36:54Z</time>
      </trkpt>
      <trkpt lat="42.64888" lon="1.68652">
        <ele>2249.748</ele>
        <time>2022-09-17T09:36:56Z</time>
      </trkpt>
      <trkpt lat="42.64887" lon="1.68652">
        <ele>2250.323</ele>
        <time>2022-09-17T09:36:58Z</time>
      </trkpt>
      <trkpt lat="42.64886" lon="1.68652">
        <ele>2250.867</ele>
        <time>2022-09-17T09:37:00Z</time>
      </trkpt>
      <trkpt lat="42.64885" lon="1.68651">
        <ele>2251.205</ele>
        <time>2022-09-17T09:37:02Z</time>
      </trkpt>
      <trkpt lat="42.64885" lon="1.6865">
        <ele>2250.488</ele>
        <time>2022-09-17T09:37:04Z</time>
      </trkpt>
      <trkpt lat="42.64884" lon="1.68649">
        <ele>2250.149</ele>
        <time>2022-09-17T09:37:06Z</time>
      </trkpt>
      <trkpt lat="42.64884" lon="1.68649">
        <ele>2251.627</ele>
        <time>2022-09-17T09:37:08Z</time>
      </trkpt>
      <trkpt lat="42.64883" lon="1.68648">
        <ele>2250.875</ele>
        <time>2022-09-17T09:37:10Z</time>
      </trkpt>
      <trkpt lat="42.64882" lon="1.68646">
        <ele>2250.559</ele>
        <time>2022-09-17T09:37:12Z</time>
      </trkpt>
      <trkpt lat="42.6488" lon="1.68645">
        <ele>2250.171</ele>
        <time>2022-09-17T09:37:14Z</time>
      </trkpt>
      <trkpt lat="42.64878" lon="1.68645">
        <ele>2250.167</ele>
        <time>2022-09-17T09:37:16Z</time>
      </trkpt>
      <trkpt lat="42.64877" lon="1.68646">
        <ele>2249.943</ele>
        <time>2022-09-17T09:37:18Z</time>
      </trkpt>
      <trkpt lat="42.64876" lon="1.68646">
        <ele>2249.337</ele>
        <time>2022-09-17T09:37:20Z</time>
      </trkpt>
      <trkpt lat="42.64875" lon="1.68647">
        <ele>2249.826</ele>
        <time>2022-09-17T09:37:22Z</time>
      </trkpt>
      <trkpt lat="42.64874" lon="1.68645">
        <ele>2249.923</ele>
        <time>2022-09-17T09:37:24Z</time>
      </trkpt>
      <trkpt lat="42.64873" lon="1.68645">
        <ele>2249.226</ele>
        <time>2022-09-17T09:37:26Z</time>
      </trkpt>
      <trkpt lat="42.64872" lon="1.68644">
        <ele>2248.937</ele>
        <time>2022-09-17T09:37:28Z</time>
      </trkpt>
      <trkpt lat="42.6487" lon="1.68644">
        <ele>2249.099</ele>
        <time>2022-09-17T09:37:30Z</time>
      </trkpt>
      <trkpt lat="42.6487" lon="1.68643">
        <ele>2248.008</ele>
        <time>2022-09-17T09:37:32Z</time>
      </trkpt>
      <trkpt lat="42.64869" lon="1.68643">
        <ele>2248.634</ele>
        <time>2022-09-17T09:37:34Z</time>
      </trkpt>
      <trkpt lat="42.64868" lon="1.68643">
        <ele>2248.913</ele>
        <time>2022-09-17T09:37:36Z</time>
      </trkpt>
      <trkpt lat="42.64867" lon="1.68642">
        <ele>2249.902</ele>
        <time>2022-09-17T09:37:38Z</time>
      </trkpt>
      <trkpt lat="42.64866" lon="1.68641">
        <ele>2250.665</ele>
        <time>2022-09-17T09:37:40Z</time>
      </trkpt>
      <trkpt lat="42.64866" lon="1.68641">
        <ele>2251.233</ele>
        <time>2022-09-17T09:37:42Z</time>
      </trkpt>
      <trkpt lat="42.64865" lon="1.68641">
        <ele>2252.18</ele>
        <time>2022-09-17T09:37:44Z</time>
      </trkpt>
      <trkpt lat="42.64864" lon="1.6864">
        <ele>2253.749</ele>
        <time>2022-09-17T09:37:46Z</time>
      </trkpt>
      <trkpt lat="42.64865" lon="1.68639">
        <ele>2254.469</ele>
        <time>2022-09-17T09:37:48Z</time>
      </trkpt>
      <trkpt lat="42.64864" lon="1.68638">
        <ele>2254.965</ele>
        <time>2022-09-17T09:37:50Z</time>
      </trkpt>
      <trkpt lat="42.64863" lon="1.68638">
        <ele>2254.512</ele>
        <time>2022-09-17T09:37:52Z</time>
      </trkpt>
      <trkpt lat="42.64862" lon="1.68638">
        <ele>2254.552</ele>
        <time>2022-09-17T09:37:54Z</time>
      </trkpt>
      <trkpt lat="42.64861" lon="1.68639">
        <ele>2253.864</ele>
        <time>2022-09-17T09:37:56Z</time>
      </trkpt>
      <trkpt lat="42.6486" lon="1.6864">
        <ele>2252.795</ele>
        <time>2022-09-17T09:37:58Z</time>
      </trkpt>
      <trkpt lat="42.64858" lon="1.6864">
        <ele>2252.983</ele>
        <time>2022-09-17T09:38:00Z</time>
      </trkpt>
      <trkpt lat="42.64857" lon="1.68639">
        <ele>2252.766</ele>
        <time>2022-09-17T09:38:02Z</time>
      </trkpt>
      <trkpt lat="42.64856" lon="1.68639">
        <ele>2253.103</ele>
        <time>2022-09-17T09:38:04Z</time>
      </trkpt>
      <trkpt lat="42.64854" lon="1.68641">
        <ele>2252.899</ele>
        <time>2022-09-17T09:38:06Z</time>
      </trkpt>
      <trkpt lat="42.64852" lon="1.68641">
        <ele>2252.922</ele>
        <time>2022-09-17T09:38:08Z</time>
      </trkpt>
      <trkpt lat="42.64851" lon="1.68643">
        <ele>2253.506</ele>
        <time>2022-09-17T09:38:10Z</time>
      </trkpt>
      <trkpt lat="42.64849" lon="1.68642">
        <ele>2254.151</ele>
        <time>2022-09-17T09:38:12Z</time>
      </trkpt>
      <trkpt lat="42.64848" lon="1.68642">
        <ele>2254.627</ele>
        <time>2022-09-17T09:38:14Z</time>
      </trkpt>
      <trkpt lat="42.64847" lon="1.68642">
        <ele>2255.302</ele>
        <time>2022-09-17T09:38:16Z</time>
      </trkpt>
      <trkpt lat="42.64846" lon="1.68641">
        <ele>2256.39</ele>
        <time>2022-09-17T09:38:18Z</time>
      </trkpt>
      <trkpt lat="42.64844" lon="1.68639">
        <ele>2256.88</ele>
        <time>2022-09-17T09:38:20Z</time>
      </trkpt>
      <trkpt lat="42.64843" lon="1.68639">
        <ele>2257.141</ele>
        <time>2022-09-17T09:38:22Z</time>
      </trkpt>
      <trkpt lat="42.64842" lon="1.68639">
        <ele>2258.848</ele>
        <time>2022-09-17T09:38:24Z</time>
      </trkpt>
      <trkpt lat="42.64841" lon="1.68638">
        <ele>2259.373</ele>
        <time>2022-09-17T09:38:26Z</time>
      </trkpt>
      <trkpt lat="42.64841" lon="1.68637">
        <ele>2260.034</ele>
        <time>2022-09-17T09:38:28Z</time>
      </trkpt>
      <trkpt lat="42.6484" lon="1.68635">
        <ele>2260.433</ele>
        <time>2022-09-17T09:38:30Z</time>
      </trkpt>
      <trkpt lat="42.6484" lon="1.68634">
        <ele>2261.381</ele>
        <time>2022-09-17T09:38:32Z</time>
      </trkpt>
      <trkpt lat="42.6484" lon="1.68635">
        <ele>2263.384</ele>
        <time>2022-09-17T09:38:34Z</time>
      </trkpt>
      <trkpt lat="42.6484" lon="1.68634">
        <ele>2263.194</ele>
        <time>2022-09-17T09:38:36Z</time>
      </trkpt>
      <trkpt lat="42.6484" lon="1.68634">
        <ele>2261.756</ele>
        <time>2022-09-17T09:38:38Z</time>
      </trkpt>
      <trkpt lat="42.64839" lon="1.68632">
        <ele>2262.105</ele>
        <time>2022-09-17T09:38:40Z</time>
      </trkpt>
      <trkpt lat="42.64838" lon="1.68631">
        <ele>2261.599</ele>
        <time>2022-09-17T09:38:42Z</time>
      </trkpt>
      <trkpt lat="42.64839" lon="1.68632">
        <ele>2263.371</ele>
        <time>2022-09-17T09:38:44Z</time>
      </trkpt>
      <trkpt lat="42.64839" lon="1.68632">
        <ele>2263.38</ele>
        <time>2022-09-17T09:38:46Z</time>
      </trkpt>
      <trkpt lat="42.64839" lon="1.68632">
        <ele>2263.387</ele>
        <time>2022-09-17T09:38:48Z</time>
      </trkpt>
      <trkpt lat="42.64839" lon="1.68632">
        <ele>2263.394</ele>
        <time>2022-09-17T09:38:50Z</time>
      </trkpt>
      <trkpt lat="42.64839" lon="1.68632">
        <ele>2263.4</ele>
        <time>2022-09-17T09:38:52Z</time>
      </trkpt>
      <trkpt lat="42.64839" lon="1.68632">
        <ele>2263.403</ele>
        <time>2022-09-17T09:38:54Z</time>
      </trkpt>
      <trkpt lat="42.64839" lon="1.68632">
        <ele>2263.269</ele>
        <time>2022-09-17T09:38:56Z</time>
      </trkpt>
      <trkpt lat="42.64839" lon="1.68632">
        <ele>2263.301</ele>
        <time>2022-09-17T09:38:58Z</time>
      </trkpt>
      <trkpt lat="42.64839" lon="1.68632">
        <ele>2263.322</ele>
        <time>2022-09-17T09:39:00Z</time>
      </trkpt>
      <trkpt lat="42.64839" lon="1.68632">
        <ele>2263.347</ele>
        <time>2022-09-17T09:39:02Z</time>
      </trkpt>
      <trkpt lat="42.64839" lon="1.68632">
        <ele>2263.358</ele>
        <time>2022-09-17T09:39:04Z</time>
      </trkpt>
      <trkpt lat="42.64839" lon="1.68632">
        <ele>2263.371</ele>
        <time>2022-09-17T09:39:06Z</time>
      </trkpt>
      <trkpt lat="42.64839" lon="1.68632">
        <ele>2263.37</ele>
        <time>2022-09-17T09:39:08Z</time>
      </trkpt>
      <trkpt lat="42.64839" lon="1.68632">
        <ele>2263.37</ele>
        <time>2022-09-17T09:39:10Z</time>
      </trkpt>
      <trkpt lat="42.64839" lon="1.68632">
        <ele>2263.377</ele>
        <time>2022-09-17T09:39:12Z</time>
      </trkpt>
      <trkpt lat="42.64839" lon="1.68632">
        <ele>2263.391</ele>
        <time>2022-09-17T09:39:14Z</time>
      </trkpt>
      <trkpt lat="42.64839" lon="1.68632">
        <ele>2263.392</ele>
        <time>2022-09-17T09:39:16Z</time>
      </trkpt>
      <trkpt lat="42.64839" lon="1.68632">
        <ele>2263.39</ele>
        <time>2022-09-17T09:39:18Z</time>
      </trkpt>
      <trkpt lat="42.64839" lon="1.68632">
        <ele>2263.392</ele>
        <time>2022-09-17T09:39:20Z</time>
      </trkpt>
      <trkpt lat="42.64839" lon="1.68631">
        <ele>2263.516</ele>
        <time>2022-09-17T09:39:22Z</time>
      </trkpt>
      <trkpt lat="42.64839" lon="1.68632">
        <ele>2263.502</ele>
        <time>2022-09-17T09:39:24Z</time>
      </trkpt>
      <trkpt lat="42.64839" lon="1.68632">
        <ele>2263.5</ele>
        <time>2022-09-17T09:39:26Z</time>
      </trkpt>
      <trkpt lat="42.64839" lon="1.68632">
        <ele>2263.498</ele>
        <time>2022-09-17T09:39:28Z</time>
      </trkpt>
      <trkpt lat="42.64839" lon="1.68631">
        <ele>2263.495</ele>
        <time>2022-09-17T09:39:30Z</time>
      </trkpt>
      <trkpt lat="42.64839" lon="1.68631">
        <ele>2263.498</ele>
        <time>2022-09-17T09:39:32Z</time>
      </trkpt>
      <trkpt lat="42.64839" lon="1.68631">
        <ele>2263.487</ele>
        <time>2022-09-17T09:39:34Z</time>
      </trkpt>
      <trkpt lat="42.64839" lon="1.68631">
        <ele>2263.48</ele>
        <time>2022-09-17T09:39:36Z</time>
      </trkpt>
      <trkpt lat="42.64839" lon="1.6863">
        <ele>2263.281</ele>
        <time>2022-09-17T09:39:38Z</time>
      </trkpt>
      <trkpt lat="42.6484" lon="1.68627">
        <ele>2264.099</ele>
        <time>2022-09-17T09:39:40Z</time>
      </trkpt>
      <trkpt lat="42.64841" lon="1.68625">
        <ele>2263.181</ele>
        <time>2022-09-17T09:39:42Z</time>
      </trkpt>
      <trkpt lat="42.64842" lon="1.68623">
        <ele>2263.483</ele>
        <time>2022-09-17T09:39:44Z</time>
      </trkpt>
      <trkpt lat="42.64842" lon="1.6862">
        <ele>2263.678</ele>
        <time>2022-09-17T09:39:46Z</time>
      </trkpt>
      <trkpt lat="42.64842" lon="1.68618">
        <ele>2263.509</ele>
        <time>2022-09-17T09:39:48Z</time>
      </trkpt>
      <trkpt lat="42.64842" lon="1.68616">
        <ele>2263.311</ele>
        <time>2022-09-17T09:39:50Z</time>
      </trkpt>
      <trkpt lat="42.64842" lon="1.68615">
        <ele>2263.807</ele>
        <time>2022-09-17T09:39:52Z</time>
      </trkpt>
      <trkpt lat="42.64842" lon="1.68613">
        <ele>2263.393</ele>
        <time>2022-09-17T09:39:54Z</time>
      </trkpt>
      <trkpt lat="42.64843" lon="1.68612">
        <ele>2263.543</ele>
        <time>2022-09-17T09:39:56Z</time>
      </trkpt>
      <trkpt lat="42.64844" lon="1.68611">
        <ele>2264.039</ele>
        <time>2022-09-17T09:39:58Z</time>
      </trkpt>
      <trkpt lat="42.64845" lon="1.6861">
        <ele>2264.437</ele>
        <time>2022-09-17T09:40:00Z</time>
      </trkpt>
      <trkpt lat="42.64846" lon="1.68608">
        <ele>2264.534</ele>
        <time>2022-09-17T09:40:02Z</time>
      </trkpt>
      <trkpt lat="42.64846" lon="1.68607">
        <ele>2264.475</ele>
        <time>2022-09-17T09:40:04Z</time>
      </trkpt>
      <trkpt lat="42.64845" lon="1.68605">
        <ele>2264.788</ele>
        <time>2022-09-17T09:40:06Z</time>
      </trkpt>
      <trkpt lat="42.64846" lon="1.68603">
        <ele>2265.314</ele>
        <time>2022-09-17T09:40:08Z</time>
      </trkpt>
      <trkpt lat="42.64846" lon="1.68602">
        <ele>2265.501</ele>
        <time>2022-09-17T09:40:10Z</time>
      </trkpt>
      <trkpt lat="42.64846" lon="1.68601">
        <ele>2266.368</ele>
        <time>2022-09-17T09:40:12Z</time>
      </trkpt>
      <trkpt lat="42.64847" lon="1.68599">
        <ele>2266.382</ele>
        <time>2022-09-17T09:40:14Z</time>
      </trkpt>
      <trkpt lat="42.64847" lon="1.68597">
        <ele>2266.396</ele>
        <time>2022-09-17T09:40:16Z</time>
      </trkpt>
      <trkpt lat="42.64848" lon="1.68596">
        <ele>2266.285</ele>
        <time>2022-09-17T09:40:18Z</time>
      </trkpt>
      <trkpt lat="42.64848" lon="1.68595">
        <ele>2266.517</ele>
        <time>2022-09-17T09:40:20Z</time>
      </trkpt>
      <trkpt lat="42.64848" lon="1.68593">
        <ele>2266.831</ele>
        <time>2022-09-17T09:40:22Z</time>
      </trkpt>
      <trkpt lat="42.64848" lon="1.68591">
        <ele>2266.799</ele>
        <time>2022-09-17T09:40:24Z</time>
      </trkpt>
      <trkpt lat="42.64848" lon="1.6859">
        <ele>2266.928</ele>
        <time>2022-09-17T09:40:26Z</time>
      </trkpt>
      <trkpt lat="42.64849" lon="1.68589">
        <ele>2266.476</ele>
        <time>2022-09-17T09:40:28Z</time>
      </trkpt>
      <trkpt lat="42.64851" lon="1.68588">
        <ele>2267.501</ele>
        <time>2022-09-17T09:40:30Z</time>
      </trkpt>
      <trkpt lat="42.64851" lon="1.68587">
        <ele>2267.465</ele>
        <time>2022-09-17T09:40:32Z</time>
      </trkpt>
      <trkpt lat="42.64851" lon="1.68586">
        <ele>2267.65</ele>
        <time>2022-09-17T09:40:34Z</time>
      </trkpt>
      <trkpt lat="42.6485" lon="1.68586">
        <ele>2268.146</ele>
        <time>2022-09-17T09:40:36Z</time>
      </trkpt>
      <trkpt lat="42.6485" lon="1.68586">
        <ele>2268.154</ele>
        <time>2022-09-17T09:40:38Z</time>
      </trkpt>
      <trkpt lat="42.6485" lon="1.68586">
        <ele>2268.158</ele>
        <time>2022-09-17T09:40:40Z</time>
      </trkpt>
      <trkpt lat="42.6485" lon="1.68586">
        <ele>2268.161</ele>
        <time>2022-09-17T09:40:42Z</time>
      </trkpt>
      <trkpt lat="42.6485" lon="1.68586">
        <ele>2268.163</ele>
        <time>2022-09-17T09:40:44Z</time>
      </trkpt>
      <trkpt lat="42.6485" lon="1.68586">
        <ele>2268.163</ele>
        <time>2022-09-17T09:40:46Z</time>
      </trkpt>
      <trkpt lat="42.6485" lon="1.68586">
        <ele>2268.401</ele>
        <time>2022-09-17T09:40:48Z</time>
      </trkpt>
      <trkpt lat="42.6485" lon="1.68586">
        <ele>2268.595</ele>
        <time>2022-09-17T09:40:50Z</time>
      </trkpt>
      <trkpt lat="42.64851" lon="1.68586">
        <ele>2268.928</ele>
        <time>2022-09-17T09:40:52Z</time>
      </trkpt>
      <trkpt lat="42.64851" lon="1.68585">
        <ele>2269.831</ele>
        <time>2022-09-17T09:40:54Z</time>
      </trkpt>
      <trkpt lat="42.64852" lon="1.68585">
        <ele>2270.243</ele>
        <time>2022-09-17T09:40:56Z</time>
      </trkpt>
      <trkpt lat="42.64853" lon="1.68584">
        <ele>2270.001</ele>
        <time>2022-09-17T09:40:58Z</time>
      </trkpt>
      <trkpt lat="42.64854" lon="1.68583">
        <ele>2269.69</ele>
        <time>2022-09-17T09:41:00Z</time>
      </trkpt>
      <trkpt lat="42.64854" lon="1.68583">
        <ele>2270.151</ele>
        <time>2022-09-17T09:41:02Z</time>
      </trkpt>
      <trkpt lat="42.64854" lon="1.68583">
        <ele>2269.954</ele>
        <time>2022-09-17T09:41:04Z</time>
      </trkpt>
      <trkpt lat="42.64855" lon="1.68582">
        <ele>2270.16</ele>
        <time>2022-09-17T09:41:06Z</time>
      </trkpt>
      <trkpt lat="42.64855" lon="1.68582">
        <ele>2270.049</ele>
        <time>2022-09-17T09:41:08Z</time>
      </trkpt>
      <trkpt lat="42.64855" lon="1.68582">
        <ele>2270.148</ele>
        <time>2022-09-17T09:41:10Z</time>
      </trkpt>
      <trkpt lat="42.64856" lon="1.68583">
        <ele>2270.337</ele>
        <time>2022-09-17T09:41:12Z</time>
      </trkpt>
      <trkpt lat="42.64856" lon="1.68584">
        <ele>2270.869</ele>
        <time>2022-09-17T09:41:14Z</time>
      </trkpt>
      <trkpt lat="42.64857" lon="1.68583">
        <ele>2271.07</ele>
        <time>2022-09-17T09:41:16Z</time>
      </trkpt>
      <trkpt lat="42.64858" lon="1.68584">
        <ele>2271.858</ele>
        <time>2022-09-17T09:41:18Z</time>
      </trkpt>
      <trkpt lat="42.64858" lon="1.68584">
        <ele>2272.777</ele>
        <time>2022-09-17T09:41:20Z</time>
      </trkpt>
      <trkpt lat="42.64859" lon="1.68583">
        <ele>2272.935</ele>
        <time>2022-09-17T09:41:22Z</time>
      </trkpt>
      <trkpt lat="42.64858" lon="1.68582">
        <ele>2273.08</ele>
        <time>2022-09-17T09:41:24Z</time>
      </trkpt>
      <trkpt lat="42.64858" lon="1.68582">
        <ele>2272.988</ele>
        <time>2022-09-17T09:41:26Z</time>
      </trkpt>
      <trkpt lat="42.64858" lon="1.68581">
        <ele>2272.517</ele>
        <time>2022-09-17T09:41:28Z</time>
      </trkpt>
      <trkpt lat="42.64858" lon="1.6858">
        <ele>2272.185</ele>
        <time>2022-09-17T09:41:30Z</time>
      </trkpt>
      <trkpt lat="42.64858" lon="1.6858">
        <ele>2272.191</ele>
        <time>2022-09-17T09:41:32Z</time>
      </trkpt>
      <trkpt lat="42.64858" lon="1.6858">
        <ele>2273.12</ele>
        <time>2022-09-17T09:41:34Z</time>
      </trkpt>
      <trkpt lat="42.64859" lon="1.68581">
        <ele>2274.1</ele>
        <time>2022-09-17T09:41:36Z</time>
      </trkpt>
      <trkpt lat="42.64859" lon="1.68581">
        <ele>2274.099</ele>
        <time>2022-09-17T09:41:38Z</time>
      </trkpt>
      <trkpt lat="42.64859" lon="1.68581">
        <ele>2274.1</ele>
        <time>2022-09-17T09:41:40Z</time>
      </trkpt>
      <trkpt lat="42.64858" lon="1.68581">
        <ele>2273.452</ele>
        <time>2022-09-17T09:41:42Z</time>
      </trkpt>
      <trkpt lat="42.64858" lon="1.68581">
        <ele>2273.453</ele>
        <time>2022-09-17T09:41:44Z</time>
      </trkpt>
      <trkpt lat="42.64858" lon="1.68581">
        <ele>2273.45</ele>
        <time>2022-09-17T09:41:46Z</time>
      </trkpt>
      <trkpt lat="42.64858" lon="1.68581">
        <ele>2273.453</ele>
        <time>2022-09-17T09:41:48Z</time>
      </trkpt>
      <trkpt lat="42.64858" lon="1.68581">
        <ele>2273.45</ele>
        <time>2022-09-17T09:41:50Z</time>
      </trkpt>
      <trkpt lat="42.64858" lon="1.68581">
        <ele>2273.441</ele>
        <time>2022-09-17T09:41:52Z</time>
      </trkpt>
      <trkpt lat="42.64858" lon="1.68581">
        <ele>2273.442</ele>
        <time>2022-09-17T09:41:54Z</time>
      </trkpt>
      <trkpt lat="42.64858" lon="1.68581">
        <ele>2273.641</ele>
        <time>2022-09-17T09:41:56Z</time>
      </trkpt>
      <trkpt lat="42.64858" lon="1.68581">
        <ele>2273.649</ele>
        <time>2022-09-17T09:41:58Z</time>
      </trkpt>
      <trkpt lat="42.64858" lon="1.68581">
        <ele>2273.669</ele>
        <time>2022-09-17T09:42:00Z</time>
      </trkpt>
      <trkpt lat="42.64858" lon="1.68581">
        <ele>2273.671</ele>
        <time>2022-09-17T09:42:02Z</time>
      </trkpt>
      <trkpt lat="42.64858" lon="1.68581">
        <ele>2273.668</ele>
        <time>2022-09-17T09:42:04Z</time>
      </trkpt>
      <trkpt lat="42.64858" lon="1.68581">
        <ele>2273.672</ele>
        <time>2022-09-17T09:42:06Z</time>
      </trkpt>
      <trkpt lat="42.64858" lon="1.68581">
        <ele>2273.679</ele>
        <time>2022-09-17T09:42:08Z</time>
      </trkpt>
      <trkpt lat="42.64858" lon="1.68581">
        <ele>2273.685</ele>
        <time>2022-09-17T09:42:10Z</time>
      </trkpt>
      <trkpt lat="42.64858" lon="1.68581">
        <ele>2273.695</ele>
        <time>2022-09-17T09:42:12Z</time>
      </trkpt>
      <trkpt lat="42.64858" lon="1.68581">
        <ele>2273.706</ele>
        <time>2022-09-17T09:42:14Z</time>
      </trkpt>
      <trkpt lat="42.64858" lon="1.68581">
        <ele>2273.717</ele>
        <time>2022-09-17T09:42:16Z</time>
      </trkpt>
      <trkpt lat="42.64858" lon="1.68581">
        <ele>2273.717</ele>
        <time>2022-09-17T09:42:18Z</time>
      </trkpt>
      <trkpt lat="42.64858" lon="1.68581">
        <ele>2273.714</ele>
        <time>2022-09-17T09:42:20Z</time>
      </trkpt>
      <trkpt lat="42.64858" lon="1.68581">
        <ele>2273.718</ele>
        <time>2022-09-17T09:42:22Z</time>
      </trkpt>
      <trkpt lat="42.64858" lon="1.68581">
        <ele>2273.711</ele>
        <time>2022-09-17T09:42:24Z</time>
      </trkpt>
      <trkpt lat="42.64858" lon="1.68581">
        <ele>2273.697</ele>
        <time>2022-09-17T09:42:26Z</time>
      </trkpt>
      <trkpt lat="42.64858" lon="1.68581">
        <ele>2273.692</ele>
        <time>2022-09-17T09:42:28Z</time>
      </trkpt>
      <trkpt lat="42.64858" lon="1.68581">
        <ele>2273.698</ele>
        <time>2022-09-17T09:42:30Z</time>
      </trkpt>
      <trkpt lat="42.64858" lon="1.68581">
        <ele>2273.675</ele>
        <time>2022-09-17T09:42:32Z</time>
      </trkpt>
      <trkpt lat="42.64858" lon="1.68581">
        <ele>2273.677</ele>
        <time>2022-09-17T09:42:34Z</time>
      </trkpt>
      <trkpt lat="42.64858" lon="1.68581">
        <ele>2273.678</ele>
        <time>2022-09-17T09:42:36Z</time>
      </trkpt>
      <trkpt lat="42.64858" lon="1.68581">
        <ele>2273.665</ele>
        <time>2022-09-17T09:42:38Z</time>
      </trkpt>
      <trkpt lat="42.64858" lon="1.68581">
        <ele>2273.666</ele>
        <time>2022-09-17T09:42:40Z</time>
      </trkpt>
      <trkpt lat="42.64858" lon="1.68581">
        <ele>2273.652</ele>
        <time>2022-09-17T09:42:42Z</time>
      </trkpt>
      <trkpt lat="42.64858" lon="1.68581">
        <ele>2273.645</ele>
        <time>2022-09-17T09:42:44Z</time>
      </trkpt>
      <trkpt lat="42.64858" lon="1.68581">
        <ele>2273.647</ele>
        <time>2022-09-17T09:42:46Z</time>
      </trkpt>
      <trkpt lat="42.64858" lon="1.68581">
        <ele>2273.661</ele>
        <time>2022-09-17T09:42:48Z</time>
      </trkpt>
      <trkpt lat="42.64858" lon="1.68581">
        <ele>2273.66</ele>
        <time>2022-09-17T09:42:50Z</time>
      </trkpt>
      <trkpt lat="42.64858" lon="1.68581">
        <ele>2273.644</ele>
        <time>2022-09-17T09:42:52Z</time>
      </trkpt>
      <trkpt lat="42.64858" lon="1.68581">
        <ele>2273.632</ele>
        <time>2022-09-17T09:42:54Z</time>
      </trkpt>
      <trkpt lat="42.64858" lon="1.68581">
        <ele>2273.621</ele>
        <time>2022-09-17T09:42:56Z</time>
      </trkpt>
      <trkpt lat="42.64858" lon="1.68581">
        <ele>2273.605</ele>
        <time>2022-09-17T09:42:58Z</time>
      </trkpt>
      <trkpt lat="42.64858" lon="1.68581">
        <ele>2273.604</ele>
        <time>2022-09-17T09:43:00Z</time>
      </trkpt>
      <trkpt lat="42.64859" lon="1.68581">
        <ele>2274.294</ele>
        <time>2022-09-17T09:43:02Z</time>
      </trkpt>
      <trkpt lat="42.6486" lon="1.6858">
        <ele>2274.201</ele>
        <time>2022-09-17T09:43:04Z</time>
      </trkpt>
      <trkpt lat="42.6486" lon="1.68579">
        <ele>2274.527</ele>
        <time>2022-09-17T09:43:06Z</time>
      </trkpt>
      <trkpt lat="42.6486" lon="1.68578">
        <ele>2274.489</ele>
        <time>2022-09-17T09:43:08Z</time>
      </trkpt>
      <trkpt lat="42.6486" lon="1.68578">
        <ele>2274.369</ele>
        <time>2022-09-17T09:43:10Z</time>
      </trkpt>
      <trkpt lat="42.64861" lon="1.68576">
        <ele>2273.256</ele>
        <time>2022-09-17T09:43:12Z</time>
      </trkpt>
      <trkpt lat="42.6486" lon="1.68575">
        <ele>2273.616</ele>
        <time>2022-09-17T09:43:14Z</time>
      </trkpt>
      <trkpt lat="42.64861" lon="1.68575">
        <ele>2273.681</ele>
        <time>2022-09-17T09:43:16Z</time>
      </trkpt>
      <trkpt lat="42.64862" lon="1.68573">
        <ele>2273.398</ele>
        <time>2022-09-17T09:43:18Z</time>
      </trkpt>
      <trkpt lat="42.64864" lon="1.68572">
        <ele>2274.154</ele>
        <time>2022-09-17T09:43:20Z</time>
      </trkpt>
      <trkpt lat="42.64865" lon="1.68571">
        <ele>2274.672</ele>
        <time>2022-09-17T09:43:22Z</time>
      </trkpt>
      <trkpt lat="42.64866" lon="1.68572">
        <ele>2273.917</ele>
        <time>2022-09-17T09:43:24Z</time>
      </trkpt>
      <trkpt lat="42.64866" lon="1.68571">
        <ele>2274.533</ele>
        <time>2022-09-17T09:43:26Z</time>
      </trkpt>
      <trkpt lat="42.64868" lon="1.68571">
        <ele>2274.47</ele>
        <time>2022-09-17T09:43:28Z</time>
      </trkpt>
      <trkpt lat="42.64869" lon="1.68571">
        <ele>2274.443</ele>
        <time>2022-09-17T09:43:30Z</time>
      </trkpt>
      <trkpt lat="42.64871" lon="1.68571">
        <ele>2273.96</ele>
        <time>2022-09-17T09:43:32Z</time>
      </trkpt>
      <trkpt lat="42.64873" lon="1.68571">
        <ele>2273.948</ele>
        <time>2022-09-17T09:43:34Z</time>
      </trkpt>
      <trkpt lat="42.64875" lon="1.6857">
        <ele>2274.336</ele>
        <time>2022-09-17T09:43:36Z</time>
      </trkpt>
      <trkpt lat="42.64876" lon="1.6857">
        <ele>2274.041</ele>
        <time>2022-09-17T09:43:38Z</time>
      </trkpt>
      <trkpt lat="42.64879" lon="1.68569">
        <ele>2274.439</ele>
        <time>2022-09-17T09:43:40Z</time>
      </trkpt>
      <trkpt lat="42.6488" lon="1.68567">
        <ele>2274.711</ele>
        <time>2022-09-17T09:43:42Z</time>
      </trkpt>
      <trkpt lat="42.64882" lon="1.68566">
        <ele>2274.787</ele>
        <time>2022-09-17T09:43:44Z</time>
      </trkpt>
      <trkpt lat="42.64883" lon="1.68564">
        <ele>2274.578</ele>
        <time>2022-09-17T09:43:46Z</time>
      </trkpt>
      <trkpt lat="42.64885" lon="1.68562">
        <ele>2274.711</ele>
        <time>2022-09-17T09:43:48Z</time>
      </trkpt>
      <trkpt lat="42.64887" lon="1.68561">
        <ele>2274.576</ele>
        <time>2022-09-17T09:43:50Z</time>
      </trkpt>
      <trkpt lat="42.64888" lon="1.6856">
        <ele>2274.19</ele>
        <time>2022-09-17T09:43:52Z</time>
      </trkpt>
      <trkpt lat="42.6489" lon="1.6856">
        <ele>2274.426</ele>
        <time>2022-09-17T09:43:54Z</time>
      </trkpt>
      <trkpt lat="42.64892" lon="1.68559">
        <ele>2275.053</ele>
        <time>2022-09-17T09:43:56Z</time>
      </trkpt>
      <trkpt lat="42.64894" lon="1.68559">
        <ele>2275.374</ele>
        <time>2022-09-17T09:43:58Z</time>
      </trkpt>
      <trkpt lat="42.64896" lon="1.68558">
        <ele>2275.457</ele>
        <time>2022-09-17T09:44:00Z</time>
      </trkpt>
      <trkpt lat="42.64898" lon="1.68558">
        <ele>2275.82</ele>
        <time>2022-09-17T09:44:02Z</time>
      </trkpt>
      <trkpt lat="42.649" lon="1.68558">
        <ele>2276.245</ele>
        <time>2022-09-17T09:44:04Z</time>
      </trkpt>
      <trkpt lat="42.64902" lon="1.68558">
        <ele>2276.246</ele>
        <time>2022-09-17T09:44:06Z</time>
      </trkpt>
      <trkpt lat="42.64905" lon="1.68557">
        <ele>2275.812</ele>
        <time>2022-09-17T09:44:08Z</time>
      </trkpt>
      <trkpt lat="42.64907" lon="1.68557">
        <ele>2275.6</ele>
        <time>2022-09-17T09:44:10Z</time>
      </trkpt>
      <trkpt lat="42.64909" lon="1.68557">
        <ele>2275.464</ele>
        <time>2022-09-17T09:44:12Z</time>
      </trkpt>
      <trkpt lat="42.6491" lon="1.68556">
        <ele>2276.036</ele>
        <time>2022-09-17T09:44:14Z</time>
      </trkpt>
      <trkpt lat="42.64912" lon="1.68555">
        <ele>2275.878</ele>
        <time>2022-09-17T09:44:16Z</time>
      </trkpt>
      <trkpt lat="42.64913" lon="1.68552">
        <ele>2276.031</ele>
        <time>2022-09-17T09:44:18Z</time>
      </trkpt>
      <trkpt lat="42.64914" lon="1.68549">
        <ele>2275.948</ele>
        <time>2022-09-17T09:44:20Z</time>
      </trkpt>
      <trkpt lat="42.64914" lon="1.68546">
        <ele>2276.213</ele>
        <time>2022-09-17T09:44:22Z</time>
      </trkpt>
      <trkpt lat="42.64915" lon="1.68544">
        <ele>2276.201</ele>
        <time>2022-09-17T09:44:24Z</time>
      </trkpt>
      <trkpt lat="42.64915" lon="1.68541">
        <ele>2276.817</ele>
        <time>2022-09-17T09:44:26Z</time>
      </trkpt>
      <trkpt lat="42.64916" lon="1.68539">
        <ele>2277.354</ele>
        <time>2022-09-17T09:44:28Z</time>
      </trkpt>
      <trkpt lat="42.64917" lon="1.68537">
        <ele>2277.308</ele>
        <time>2022-09-17T09:44:30Z</time>
      </trkpt>
      <trkpt lat="42.64918" lon="1.68536">
        <ele>2277.679</ele>
        <time>2022-09-17T09:44:32Z</time>
      </trkpt>
      <trkpt lat="42.64919" lon="1.68535">
        <ele>2277.611</ele>
        <time>2022-09-17T09:44:34Z</time>
      </trkpt>
      <trkpt lat="42.6492" lon="1.68533">
        <ele>2277.985</ele>
        <time>2022-09-17T09:44:36Z</time>
      </trkpt>
      <trkpt lat="42.6492" lon="1.68531">
        <ele>2277.639</ele>
        <time>2022-09-17T09:44:38Z</time>
      </trkpt>
      <trkpt lat="42.64921" lon="1.6853">
        <ele>2277.4</ele>
        <time>2022-09-17T09:44:40Z</time>
      </trkpt>
      <trkpt lat="42.64922" lon="1.68528">
        <ele>2277.374</ele>
        <time>2022-09-17T09:44:42Z</time>
      </trkpt>
      <trkpt lat="42.64923" lon="1.68526">
        <ele>2277.273</ele>
        <time>2022-09-17T09:44:44Z</time>
      </trkpt>
      <trkpt lat="42.64924" lon="1.68525">
        <ele>2278.29</ele>
        <time>2022-09-17T09:44:46Z</time>
      </trkpt>
      <trkpt lat="42.64925" lon="1.68524">
        <ele>2278.794</ele>
        <time>2022-09-17T09:44:48Z</time>
      </trkpt>
      <trkpt lat="42.64926" lon="1.68522">
        <ele>2278.697</ele>
        <time>2022-09-17T09:44:50Z</time>
      </trkpt>
      <trkpt lat="42.64927" lon="1.6852">
        <ele>2279.367</ele>
        <time>2022-09-17T09:44:52Z</time>
      </trkpt>
      <trkpt lat="42.64927" lon="1.68518">
        <ele>2279.31</ele>
        <time>2022-09-17T09:44:54Z</time>
      </trkpt>
      <trkpt lat="42.64928" lon="1.68515">
        <ele>2279.41</ele>
        <time>2022-09-17T09:44:56Z</time>
      </trkpt>
      <trkpt lat="42.64928" lon="1.68513">
        <ele>2279.7</ele>
        <time>2022-09-17T09:44:58Z</time>
      </trkpt>
      <trkpt lat="42.6493" lon="1.68511">
        <ele>2280.708</ele>
        <time>2022-09-17T09:45:00Z</time>
      </trkpt>
      <trkpt lat="42.64931" lon="1.68508">
        <ele>2281.522</ele>
        <time>2022-09-17T09:45:02Z</time>
      </trkpt>
      <trkpt lat="42.64931" lon="1.68506">
        <ele>2281.472</ele>
        <time>2022-09-17T09:45:04Z</time>
      </trkpt>
      <trkpt lat="42.64931" lon="1.68503">
        <ele>2281.547</ele>
        <time>2022-09-17T09:45:06Z</time>
      </trkpt>
      <trkpt lat="42.64932" lon="1.68502">
        <ele>2282.491</ele>
        <time>2022-09-17T09:45:08Z</time>
      </trkpt>
      <trkpt lat="42.64932" lon="1.685">
        <ele>2283.449</ele>
        <time>2022-09-17T09:45:10Z</time>
      </trkpt>
      <trkpt lat="42.64933" lon="1.68498">
        <ele>2283.221</ele>
        <time>2022-09-17T09:45:12Z</time>
      </trkpt>
      <trkpt lat="42.64933" lon="1.68496">
        <ele>2283.329</ele>
        <time>2022-09-17T09:45:14Z</time>
      </trkpt>
      <trkpt lat="42.64934" lon="1.68494">
        <ele>2283.635</ele>
        <time>2022-09-17T09:45:16Z</time>
      </trkpt>
      <trkpt lat="42.64935" lon="1.68492">
        <ele>2282.671</ele>
        <time>2022-09-17T09:45:18Z</time>
      </trkpt>
      <trkpt lat="42.64936" lon="1.6849">
        <ele>2282.117</ele>
        <time>2022-09-17T09:45:20Z</time>
      </trkpt>
      <trkpt lat="42.64937" lon="1.68488">
        <ele>2282.633</ele>
        <time>2022-09-17T09:45:22Z</time>
      </trkpt>
      <trkpt lat="42.64938" lon="1.68486">
        <ele>2282.605</ele>
        <time>2022-09-17T09:45:24Z</time>
      </trkpt>
      <trkpt lat="42.64939" lon="1.68484">
        <ele>2283.352</ele>
        <time>2022-09-17T09:45:26Z</time>
      </trkpt>
      <trkpt lat="42.6494" lon="1.68482">
        <ele>2283.362</ele>
        <time>2022-09-17T09:45:28Z</time>
      </trkpt>
      <trkpt lat="42.6494" lon="1.6848">
        <ele>2283.621</ele>
        <time>2022-09-17T09:45:30Z</time>
      </trkpt>
      <trkpt lat="42.64942" lon="1.68478">
        <ele>2283.497</ele>
        <time>2022-09-17T09:45:32Z</time>
      </trkpt>
      <trkpt lat="42.64945" lon="1.68476">
        <ele>2286.365</ele>
        <time>2022-09-17T09:45:34Z</time>
      </trkpt>
      <trkpt lat="42.64947" lon="1.68472">
        <ele>2287.939</ele>
        <time>2022-09-17T09:45:36Z</time>
      </trkpt>
      <trkpt lat="42.64949" lon="1.68469">
        <ele>2289.908</ele>
        <time>2022-09-17T09:45:38Z</time>
      </trkpt>
      <trkpt lat="42.6495" lon="1.68468">
        <ele>2292.193</ele>
        <time>2022-09-17T09:45:40Z</time>
      </trkpt>
      <trkpt lat="42.6495" lon="1.68465">
        <ele>2291.743</ele>
        <time>2022-09-17T09:45:42Z</time>
      </trkpt>
      <trkpt lat="42.6495" lon="1.68463">
        <ele>2289.544</ele>
        <time>2022-09-17T09:45:44Z</time>
      </trkpt>
      <trkpt lat="42.6495" lon="1.68462">
        <ele>2289.878</ele>
        <time>2022-09-17T09:45:46Z</time>
      </trkpt>
      <trkpt lat="42.6495" lon="1.68461">
        <ele>2288.518</ele>
        <time>2022-09-17T09:45:48Z</time>
      </trkpt>
      <trkpt lat="42.6495" lon="1.6846">
        <ele>2288.401</ele>
        <time>2022-09-17T09:45:50Z</time>
      </trkpt>
      <trkpt lat="42.6495" lon="1.68458">
        <ele>2288.897</ele>
        <time>2022-09-17T09:45:52Z</time>
      </trkpt>
      <trkpt lat="42.64949" lon="1.68457">
        <ele>2288.008</ele>
        <time>2022-09-17T09:45:54Z</time>
      </trkpt>
      <trkpt lat="42.64949" lon="1.68456">
        <ele>2286.514</ele>
        <time>2022-09-17T09:45:56Z</time>
      </trkpt>
      <trkpt lat="42.64947" lon="1.68455">
        <ele>2285.239</ele>
        <time>2022-09-17T09:45:58Z</time>
      </trkpt>
      <trkpt lat="42.64946" lon="1.68455">
        <ele>2285.062</ele>
        <time>2022-09-17T09:46:00Z</time>
      </trkpt>
      <trkpt lat="42.64946" lon="1.68454">
        <ele>2285.96</ele>
        <time>2022-09-17T09:46:02Z</time>
      </trkpt>
      <trkpt lat="42.64946" lon="1.68454">
        <ele>2286.151</ele>
        <time>2022-09-17T09:46:04Z</time>
      </trkpt>
      <trkpt lat="42.64945" lon="1.68453">
        <ele>2285.858</ele>
        <time>2022-09-17T09:46:06Z</time>
      </trkpt>
      <trkpt lat="42.64944" lon="1.68453">
        <ele>2286.061</ele>
        <time>2022-09-17T09:46:08Z</time>
      </trkpt>
      <trkpt lat="42.64944" lon="1.68453">
        <ele>2286.007</ele>
        <time>2022-09-17T09:46:10Z</time>
      </trkpt>
      <trkpt lat="42.64944" lon="1.68453">
        <ele>2285.961</ele>
        <time>2022-09-17T09:46:12Z</time>
      </trkpt>
      <trkpt lat="42.64944" lon="1.68453">
        <ele>2285.976</ele>
        <time>2022-09-17T09:46:14Z</time>
      </trkpt>
      <trkpt lat="42.64944" lon="1.68453">
        <ele>2285.945</ele>
        <time>2022-09-17T09:46:16Z</time>
      </trkpt>
      <trkpt lat="42.64944" lon="1.68453">
        <ele>2285.943</ele>
        <time>2022-09-17T09:46:18Z</time>
      </trkpt>
      <trkpt lat="42.64944" lon="1.68453">
        <ele>2285.937</ele>
        <time>2022-09-17T09:46:20Z</time>
      </trkpt>
      <trkpt lat="42.64944" lon="1.68453">
        <ele>2285.866</ele>
        <time>2022-09-17T09:46:22Z</time>
      </trkpt>
      <trkpt lat="42.64944" lon="1.68453">
        <ele>2286.843</ele>
        <time>2022-09-17T09:46:24Z</time>
      </trkpt>
      <trkpt lat="42.64944" lon="1.68453">
        <ele>2286.822</ele>
        <time>2022-09-17T09:46:26Z</time>
      </trkpt>
      <trkpt lat="42.64944" lon="1.68453">
        <ele>2286.806</ele>
        <time>2022-09-17T09:46:28Z</time>
      </trkpt>
      <trkpt lat="42.64944" lon="1.68453">
        <ele>2286.822</ele>
        <time>2022-09-17T09:46:30Z</time>
      </trkpt>
      <trkpt lat="42.64944" lon="1.68454">
        <ele>2286.812</ele>
        <time>2022-09-17T09:46:32Z</time>
      </trkpt>
      <trkpt lat="42.64943" lon="1.68454">
        <ele>2286.795</ele>
        <time>2022-09-17T09:46:34Z</time>
      </trkpt>
      <trkpt lat="42.64943" lon="1.68454">
        <ele>2286.783</ele>
        <time>2022-09-17T09:46:36Z</time>
      </trkpt>
      <trkpt lat="42.64943" lon="1.68454">
        <ele>2286.736</ele>
        <time>2022-09-17T09:46:38Z</time>
      </trkpt>
      <trkpt lat="42.64943" lon="1.68454">
        <ele>2286.691</ele>
        <time>2022-09-17T09:46:40Z</time>
      </trkpt>
      <trkpt lat="42.64943" lon="1.68454">
        <ele>2286.685</ele>
        <time>2022-09-17T09:46:42Z</time>
      </trkpt>
      <trkpt lat="42.64943" lon="1.68454">
        <ele>2286.655</ele>
        <time>2022-09-17T09:46:44Z</time>
      </trkpt>
      <trkpt lat="42.64943" lon="1.68454">
        <ele>2286.666</ele>
        <time>2022-09-17T09:46:46Z</time>
      </trkpt>
      <trkpt lat="42.64943" lon="1.68454">
        <ele>2286.697</ele>
        <time>2022-09-17T09:46:48Z</time>
      </trkpt>
      <trkpt lat="42.64943" lon="1.68453">
        <ele>2286.693</ele>
        <time>2022-09-17T09:46:50Z</time>
      </trkpt>
      <trkpt lat="42.64943" lon="1.68453">
        <ele>2286.683</ele>
        <time>2022-09-17T09:46:52Z</time>
      </trkpt>
      <trkpt lat="42.64943" lon="1.68453">
        <ele>2286.687</ele>
        <time>2022-09-17T09:46:54Z</time>
      </trkpt>
      <trkpt lat="42.64943" lon="1.68453">
        <ele>2286.677</ele>
        <time>2022-09-17T09:46:56Z</time>
      </trkpt>
      <trkpt lat="42.64943" lon="1.68453">
        <ele>2286.666</ele>
        <time>2022-09-17T09:46:58Z</time>
      </trkpt>
      <trkpt lat="42.64943" lon="1.68453">
        <ele>2286.664</ele>
        <time>2022-09-17T09:47:00Z</time>
      </trkpt>
      <trkpt lat="42.64943" lon="1.68453">
        <ele>2286.664</ele>
        <time>2022-09-17T09:47:02Z</time>
      </trkpt>
      <trkpt lat="42.64943" lon="1.68453">
        <ele>2286.669</ele>
        <time>2022-09-17T09:47:04Z</time>
      </trkpt>
      <trkpt lat="42.64943" lon="1.68453">
        <ele>2286.653</ele>
        <time>2022-09-17T09:47:06Z</time>
      </trkpt>
      <trkpt lat="42.64943" lon="1.68453">
        <ele>2286.655</ele>
        <time>2022-09-17T09:47:08Z</time>
      </trkpt>
      <trkpt lat="42.64943" lon="1.68453">
        <ele>2286.665</ele>
        <time>2022-09-17T09:47:10Z</time>
      </trkpt>
      <trkpt lat="42.64943" lon="1.68453">
        <ele>2286.676</ele>
        <time>2022-09-17T09:47:12Z</time>
      </trkpt>
      <trkpt lat="42.64943" lon="1.68453">
        <ele>2286.633</ele>
        <time>2022-09-17T09:47:14Z</time>
      </trkpt>
      <trkpt lat="42.64943" lon="1.68453">
        <ele>2286.615</ele>
        <time>2022-09-17T09:47:16Z</time>
      </trkpt>
      <trkpt lat="42.64943" lon="1.68453">
        <ele>2286.627</ele>
        <time>2022-09-17T09:47:18Z</time>
      </trkpt>
      <trkpt lat="42.64943" lon="1.68453">
        <ele>2286.6</ele>
        <time>2022-09-17T09:47:20Z</time>
      </trkpt>
      <trkpt lat="42.64943" lon="1.68453">
        <ele>2286.556</ele>
        <time>2022-09-17T09:47:22Z</time>
      </trkpt>
      <trkpt lat="42.64943" lon="1.68453">
        <ele>2286.551</ele>
        <time>2022-09-17T09:47:24Z</time>
      </trkpt>
      <trkpt lat="42.64943" lon="1.68453">
        <ele>2286.763</ele>
        <time>2022-09-17T09:47:26Z</time>
      </trkpt>
      <trkpt lat="42.64943" lon="1.68453">
        <ele>2286.766</ele>
        <time>2022-09-17T09:47:28Z</time>
      </trkpt>
      <trkpt lat="42.64943" lon="1.68453">
        <ele>2286.773</ele>
        <time>2022-09-17T09:47:30Z</time>
      </trkpt>
      <trkpt lat="42.64943" lon="1.68453">
        <ele>2286.533</ele>
        <time>2022-09-17T09:47:32Z</time>
      </trkpt>
      <trkpt lat="42.64943" lon="1.68451">
        <ele>2285.258</ele>
        <time>2022-09-17T09:47:34Z</time>
      </trkpt>
      <trkpt lat="42.64944" lon="1.6845">
        <ele>2285.345</ele>
        <time>2022-09-17T09:47:36Z</time>
      </trkpt>
      <trkpt lat="42.64945" lon="1.68448">
        <ele>2284.628</ele>
        <time>2022-09-17T09:47:38Z</time>
      </trkpt>
      <trkpt lat="42.64946" lon="1.68446">
        <ele>2285.635</ele>
        <time>2022-09-17T09:47:40Z</time>
      </trkpt>
      <trkpt lat="42.64948" lon="1.68445">
        <ele>2285.398</ele>
        <time>2022-09-17T09:47:42Z</time>
      </trkpt>
      <trkpt lat="42.64949" lon="1.68444">
        <ele>2285.858</ele>
        <time>2022-09-17T09:47:44Z</time>
      </trkpt>
      <trkpt lat="42.64951" lon="1.68442">
        <ele>2286.149</ele>
        <time>2022-09-17T09:47:46Z</time>
      </trkpt>
      <trkpt lat="42.64952" lon="1.6844">
        <ele>2286.678</ele>
        <time>2022-09-17T09:47:48Z</time>
      </trkpt>
      <trkpt lat="42.64953" lon="1.68438">
        <ele>2286.529</ele>
        <time>2022-09-17T09:47:50Z</time>
      </trkpt>
      <trkpt lat="42.64955" lon="1.68437">
        <ele>2288.503</ele>
        <time>2022-09-17T09:47:52Z</time>
      </trkpt>
      <trkpt lat="42.64957" lon="1.68438">
        <ele>2288.911</ele>
        <time>2022-09-17T09:47:54Z</time>
      </trkpt>
      <trkpt lat="42.64957" lon="1.68438">
        <ele>2288.896</ele>
        <time>2022-09-17T09:47:56Z</time>
      </trkpt>
      <trkpt lat="42.64957" lon="1.68437">
        <ele>2289.102</ele>
        <time>2022-09-17T09:47:58Z</time>
      </trkpt>
      <trkpt lat="42.64957" lon="1.68435">
        <ele>2289.578</ele>
        <time>2022-09-17T09:48:00Z</time>
      </trkpt>
      <trkpt lat="42.64958" lon="1.68434">
        <ele>2289.54</ele>
        <time>2022-09-17T09:48:02Z</time>
      </trkpt>
      <trkpt lat="42.64957" lon="1.68431">
        <ele>2289.144</ele>
        <time>2022-09-17T09:48:04Z</time>
      </trkpt>
      <trkpt lat="42.64957" lon="1.68428">
        <ele>2289.31</ele>
        <time>2022-09-17T09:48:06Z</time>
      </trkpt>
      <trkpt lat="42.64956" lon="1.68426">
        <ele>2287.881</ele>
        <time>2022-09-17T09:48:08Z</time>
      </trkpt>
      <trkpt lat="42.64955" lon="1.68425">
        <ele>2288.165</ele>
        <time>2022-09-17T09:48:10Z</time>
      </trkpt>
      <trkpt lat="42.64955" lon="1.68424">
        <ele>2288.348</ele>
        <time>2022-09-17T09:48:12Z</time>
      </trkpt>
      <trkpt lat="42.64955" lon="1.68422">
        <ele>2289.128</ele>
        <time>2022-09-17T09:48:14Z</time>
      </trkpt>
      <trkpt lat="42.64954" lon="1.68421">
        <ele>2289.784</ele>
        <time>2022-09-17T09:48:16Z</time>
      </trkpt>
      <trkpt lat="42.64953" lon="1.68419">
        <ele>2290.692</ele>
        <time>2022-09-17T09:48:18Z</time>
      </trkpt>
      <trkpt lat="42.64952" lon="1.68417">
        <ele>2291.075</ele>
        <time>2022-09-17T09:48:20Z</time>
      </trkpt>
      <trkpt lat="42.64952" lon="1.68415">
        <ele>2290.5</ele>
        <time>2022-09-17T09:48:22Z</time>
      </trkpt>
      <trkpt lat="42.64952" lon="1.68414">
        <ele>2290.622</ele>
        <time>2022-09-17T09:48:24Z</time>
      </trkpt>
      <trkpt lat="42.64951" lon="1.68412">
        <ele>2290.51</ele>
        <time>2022-09-17T09:48:26Z</time>
      </trkpt>
      <trkpt lat="42.64949" lon="1.68408">
        <ele>2289.655</ele>
        <time>2022-09-17T09:48:28Z</time>
      </trkpt>
      <trkpt lat="42.64947" lon="1.68405">
        <ele>2287.887</ele>
        <time>2022-09-17T09:48:30Z</time>
      </trkpt>
      <trkpt lat="42.64948" lon="1.68401">
        <ele>2286.624</ele>
        <time>2022-09-17T09:48:32Z</time>
      </trkpt>
      <trkpt lat="42.64948" lon="1.68398">
        <ele>2286.916</ele>
        <time>2022-09-17T09:48:34Z</time>
      </trkpt>
      <trkpt lat="42.64948" lon="1.68396">
        <ele>2287.7</ele>
        <time>2022-09-17T09:48:36Z</time>
      </trkpt>
      <trkpt lat="42.64948" lon="1.68395">
        <ele>2288.284</ele>
        <time>2022-09-17T09:48:38Z</time>
      </trkpt>
      <trkpt lat="42.64947" lon="1.68394">
        <ele>2288.101</ele>
        <time>2022-09-17T09:48:40Z</time>
      </trkpt>
      <trkpt lat="42.64947" lon="1.68393">
        <ele>2288.231</ele>
        <time>2022-09-17T09:48:42Z</time>
      </trkpt>
      <trkpt lat="42.64948" lon="1.68392">
        <ele>2288.801</ele>
        <time>2022-09-17T09:48:44Z</time>
      </trkpt>
      <trkpt lat="42.64948" lon="1.6839">
        <ele>2289.221</ele>
        <time>2022-09-17T09:48:46Z</time>
      </trkpt>
      <trkpt lat="42.64949" lon="1.68389">
        <ele>2289.537</ele>
        <time>2022-09-17T09:48:48Z</time>
      </trkpt>
      <trkpt lat="42.64949" lon="1.68388">
        <ele>2289.76</ele>
        <time>2022-09-17T09:48:50Z</time>
      </trkpt>
      <trkpt lat="42.64949" lon="1.68387">
        <ele>2290.612</ele>
        <time>2022-09-17T09:48:52Z</time>
      </trkpt>
      <trkpt lat="42.64949" lon="1.68385">
        <ele>2291.198</ele>
        <time>2022-09-17T09:48:54Z</time>
      </trkpt>
      <trkpt lat="42.64949" lon="1.68384">
        <ele>2291.492</ele>
        <time>2022-09-17T09:48:56Z</time>
      </trkpt>
      <trkpt lat="42.64948" lon="1.68383">
        <ele>2293.202</ele>
        <time>2022-09-17T09:48:58Z</time>
      </trkpt>
      <trkpt lat="42.64948" lon="1.68382">
        <ele>2293.113</ele>
        <time>2022-09-17T09:49:00Z</time>
      </trkpt>
      <trkpt lat="42.64947" lon="1.68381">
        <ele>2293.495</ele>
        <time>2022-09-17T09:49:02Z</time>
      </trkpt>
      <trkpt lat="42.64947" lon="1.6838">
        <ele>2293.354</ele>
        <time>2022-09-17T09:49:04Z</time>
      </trkpt>
      <trkpt lat="42.64947" lon="1.68379">
        <ele>2293.44</ele>
        <time>2022-09-17T09:49:06Z</time>
      </trkpt>
      <trkpt lat="42.64947" lon="1.68377">
        <ele>2294.347</ele>
        <time>2022-09-17T09:49:08Z</time>
      </trkpt>
      <trkpt lat="42.64946" lon="1.68375">
        <ele>2294.13</ele>
        <time>2022-09-17T09:49:10Z</time>
      </trkpt>
      <trkpt lat="42.64946" lon="1.68374">
        <ele>2295.557</ele>
        <time>2022-09-17T09:49:12Z</time>
      </trkpt>
      <trkpt lat="42.64945" lon="1.68373">
        <ele>2296.544</ele>
        <time>2022-09-17T09:49:14Z</time>
      </trkpt>
      <trkpt lat="42.64945" lon="1.68372">
        <ele>2296.43</ele>
        <time>2022-09-17T09:49:16Z</time>
      </trkpt>
      <trkpt lat="42.64944" lon="1.68372">
        <ele>2297.713</ele>
        <time>2022-09-17T09:49:18Z</time>
      </trkpt>
      <trkpt lat="42.64943" lon="1.68371">
        <ele>2296.922</ele>
        <time>2022-09-17T09:49:20Z</time>
      </trkpt>
      <trkpt lat="42.64943" lon="1.68371">
        <ele>2297.466</ele>
        <time>2022-09-17T09:49:22Z</time>
      </trkpt>
      <trkpt lat="42.64943" lon="1.6837">
        <ele>2298.7</ele>
        <time>2022-09-17T09:49:24Z</time>
      </trkpt>
      <trkpt lat="42.64942" lon="1.68368">
        <ele>2298.431</ele>
        <time>2022-09-17T09:49:26Z</time>
      </trkpt>
      <trkpt lat="42.64943" lon="1.68367">
        <ele>2298.868</ele>
        <time>2022-09-17T09:49:28Z</time>
      </trkpt>
      <trkpt lat="42.64942" lon="1.68366">
        <ele>2298.742</ele>
        <time>2022-09-17T09:49:30Z</time>
      </trkpt>
      <trkpt lat="42.64942" lon="1.68365">
        <ele>2297.919</ele>
        <time>2022-09-17T09:49:32Z</time>
      </trkpt>
      <trkpt lat="42.64942" lon="1.68364">
        <ele>2298.166</ele>
        <time>2022-09-17T09:49:34Z</time>
      </trkpt>
      <trkpt lat="42.64941" lon="1.68363">
        <ele>2298.408</ele>
        <time>2022-09-17T09:49:36Z</time>
      </trkpt>
      <trkpt lat="42.64942" lon="1.68361">
        <ele>2298.744</ele>
        <time>2022-09-17T09:49:38Z</time>
      </trkpt>
      <trkpt lat="42.64941" lon="1.6836">
        <ele>2299.369</ele>
        <time>2022-09-17T09:49:40Z</time>
      </trkpt>
      <trkpt lat="42.64941" lon="1.68359">
        <ele>2300.443</ele>
        <time>2022-09-17T09:49:42Z</time>
      </trkpt>
      <trkpt lat="42.6494" lon="1.68358">
        <ele>2300.545</ele>
        <time>2022-09-17T09:49:44Z</time>
      </trkpt>
      <trkpt lat="42.6494" lon="1.68356">
        <ele>2300.963</ele>
        <time>2022-09-17T09:49:46Z</time>
      </trkpt>
      <trkpt lat="42.64939" lon="1.68356">
        <ele>2302.014</ele>
        <time>2022-09-17T09:49:48Z</time>
      </trkpt>
      <trkpt lat="42.64937" lon="1.68355">
        <ele>2302.259</ele>
        <time>2022-09-17T09:49:50Z</time>
      </trkpt>
      <trkpt lat="42.64937" lon="1.68354">
        <ele>2302.89</ele>
        <time>2022-09-17T09:49:52Z</time>
      </trkpt>
      <trkpt lat="42.64936" lon="1.68353">
        <ele>2302.052</ele>
        <time>2022-09-17T09:49:54Z</time>
      </trkpt>
      <trkpt lat="42.64935" lon="1.68351">
        <ele>2302.665</ele>
        <time>2022-09-17T09:49:56Z</time>
      </trkpt>
      <trkpt lat="42.64934" lon="1.6835">
        <ele>2302.623</ele>
        <time>2022-09-17T09:49:58Z</time>
      </trkpt>
      <trkpt lat="42.64934" lon="1.68349">
        <ele>2302.76</ele>
        <time>2022-09-17T09:50:00Z</time>
      </trkpt>
      <trkpt lat="42.64933" lon="1.68348">
        <ele>2303.103</ele>
        <time>2022-09-17T09:50:02Z</time>
      </trkpt>
      <trkpt lat="42.64932" lon="1.68346">
        <ele>2302.963</ele>
        <time>2022-09-17T09:50:04Z</time>
      </trkpt>
      <trkpt lat="42.64932" lon="1.68345">
        <ele>2303.759</ele>
        <time>2022-09-17T09:50:06Z</time>
      </trkpt>
      <trkpt lat="42.64932" lon="1.68343">
        <ele>2304.043</ele>
        <time>2022-09-17T09:50:08Z</time>
      </trkpt>
      <trkpt lat="42.64931" lon="1.68341">
        <ele>2305.041</ele>
        <time>2022-09-17T09:50:10Z</time>
      </trkpt>
      <trkpt lat="42.64932" lon="1.6834">
        <ele>2305.218</ele>
        <time>2022-09-17T09:50:12Z</time>
      </trkpt>
      <trkpt lat="42.64932" lon="1.68338">
        <ele>2306.149</ele>
        <time>2022-09-17T09:50:14Z</time>
      </trkpt>
      <trkpt lat="42.64931" lon="1.68336">
        <ele>2306.665</ele>
        <time>2022-09-17T09:50:16Z</time>
      </trkpt>
      <trkpt lat="42.64931" lon="1.68335">
        <ele>2306.984</ele>
        <time>2022-09-17T09:50:18Z</time>
      </trkpt>
      <trkpt lat="42.6493" lon="1.68333">
        <ele>2307.18</ele>
        <time>2022-09-17T09:50:20Z</time>
      </trkpt>
      <trkpt lat="42.6493" lon="1.68332">
        <ele>2307.189</ele>
        <time>2022-09-17T09:50:22Z</time>
      </trkpt>
      <trkpt lat="42.64929" lon="1.68332">
        <ele>2307.164</ele>
        <time>2022-09-17T09:50:24Z</time>
      </trkpt>
      <trkpt lat="42.64928" lon="1.68331">
        <ele>2306.629</ele>
        <time>2022-09-17T09:50:26Z</time>
      </trkpt>
      <trkpt lat="42.64929" lon="1.6833">
        <ele>2307.317</ele>
        <time>2022-09-17T09:50:28Z</time>
      </trkpt>
      <trkpt lat="42.64929" lon="1.68329">
        <ele>2307.719</ele>
        <time>2022-09-17T09:50:30Z</time>
      </trkpt>
      <trkpt lat="42.64928" lon="1.68328">
        <ele>2307.236</ele>
        <time>2022-09-17T09:50:32Z</time>
      </trkpt>
      <trkpt lat="42.64928" lon="1.68326">
        <ele>2307.853</ele>
        <time>2022-09-17T09:50:34Z</time>
      </trkpt>
      <trkpt lat="42.64927" lon="1.68325">
        <ele>2308.309</ele>
        <time>2022-09-17T09:50:36Z</time>
      </trkpt>
      <trkpt lat="42.64926" lon="1.68324">
        <ele>2307.927</ele>
        <time>2022-09-17T09:50:38Z</time>
      </trkpt>
      <trkpt lat="42.64926" lon="1.68323">
        <ele>2307.526</ele>
        <time>2022-09-17T09:50:40Z</time>
      </trkpt>
      <trkpt lat="42.64925" lon="1.68322">
        <ele>2307.745</ele>
        <time>2022-09-17T09:50:42Z</time>
      </trkpt>
      <trkpt lat="42.64925" lon="1.68321">
        <ele>2307.851</ele>
        <time>2022-09-17T09:50:44Z</time>
      </trkpt>
      <trkpt lat="42.64924" lon="1.6832">
        <ele>2308.51</ele>
        <time>2022-09-17T09:50:46Z</time>
      </trkpt>
      <trkpt lat="42.64923" lon="1.6832">
        <ele>2307.803</ele>
        <time>2022-09-17T09:50:48Z</time>
      </trkpt>
      <trkpt lat="42.64922" lon="1.6832">
        <ele>2307.57</ele>
        <time>2022-09-17T09:50:50Z</time>
      </trkpt>
      <trkpt lat="42.64921" lon="1.68321">
        <ele>2308.145</ele>
        <time>2022-09-17T09:50:52Z</time>
      </trkpt>
      <trkpt lat="42.64921" lon="1.6832">
        <ele>2309.465</ele>
        <time>2022-09-17T09:50:54Z</time>
      </trkpt>
      <trkpt lat="42.6492" lon="1.6832">
        <ele>2309.946</ele>
        <time>2022-09-17T09:50:56Z</time>
      </trkpt>
      <trkpt lat="42.6492" lon="1.68319">
        <ele>2309.917</ele>
        <time>2022-09-17T09:50:58Z</time>
      </trkpt>
      <trkpt lat="42.64919" lon="1.68317">
        <ele>2310.277</ele>
        <time>2022-09-17T09:51:00Z</time>
      </trkpt>
      <trkpt lat="42.64918" lon="1.68316">
        <ele>2310.513</ele>
        <time>2022-09-17T09:51:02Z</time>
      </trkpt>
      <trkpt lat="42.64918" lon="1.68315">
        <ele>2310.091</ele>
        <time>2022-09-17T09:51:04Z</time>
      </trkpt>
      <trkpt lat="42.64917" lon="1.68314">
        <ele>2309.098</ele>
        <time>2022-09-17T09:51:06Z</time>
      </trkpt>
      <trkpt lat="42.64917" lon="1.68313">
        <ele>2309.311</ele>
        <time>2022-09-17T09:51:08Z</time>
      </trkpt>
      <trkpt lat="42.64917" lon="1.68312">
        <ele>2309.797</ele>
        <time>2022-09-17T09:51:10Z</time>
      </trkpt>
      <trkpt lat="42.64917" lon="1.68311">
        <ele>2310.731</ele>
        <time>2022-09-17T09:51:12Z</time>
      </trkpt>
      <trkpt lat="42.64917" lon="1.6831">
        <ele>2310.826</ele>
        <time>2022-09-17T09:51:14Z</time>
      </trkpt>
      <trkpt lat="42.64917" lon="1.6831">
        <ele>2311.615</ele>
        <time>2022-09-17T09:51:16Z</time>
      </trkpt>
      <trkpt lat="42.64916" lon="1.68309">
        <ele>2311.104</ele>
        <time>2022-09-17T09:51:18Z</time>
      </trkpt>
      <trkpt lat="42.64916" lon="1.68307">
        <ele>2311.195</ele>
        <time>2022-09-17T09:51:20Z</time>
      </trkpt>
      <trkpt lat="42.64915" lon="1.68306">
        <ele>2311.968</ele>
        <time>2022-09-17T09:51:22Z</time>
      </trkpt>
      <trkpt lat="42.64915" lon="1.68305">
        <ele>2312.431</ele>
        <time>2022-09-17T09:51:24Z</time>
      </trkpt>
      <trkpt lat="42.64915" lon="1.68304">
        <ele>2312.851</ele>
        <time>2022-09-17T09:51:26Z</time>
      </trkpt>
      <trkpt lat="42.64915" lon="1.68302">
        <ele>2313.44</ele>
        <time>2022-09-17T09:51:28Z</time>
      </trkpt>
      <trkpt lat="42.64915" lon="1.68301">
        <ele>2313.991</ele>
        <time>2022-09-17T09:51:30Z</time>
      </trkpt>
      <trkpt lat="42.64915" lon="1.68301">
        <ele>2313.74</ele>
        <time>2022-09-17T09:51:32Z</time>
      </trkpt>
      <trkpt lat="42.64915" lon="1.68299">
        <ele>2313.868</ele>
        <time>2022-09-17T09:51:34Z</time>
      </trkpt>
      <trkpt lat="42.64914" lon="1.68298">
        <ele>2314.67</ele>
        <time>2022-09-17T09:51:36Z</time>
      </trkpt>
      <trkpt lat="42.64914" lon="1.68297">
        <ele>2314.407</ele>
        <time>2022-09-17T09:51:38Z</time>
      </trkpt>
      <trkpt lat="42.64913" lon="1.68296">
        <ele>2315.147</ele>
        <time>2022-09-17T09:51:40Z</time>
      </trkpt>
      <trkpt lat="42.64913" lon="1.68294">
        <ele>2315.519</ele>
        <time>2022-09-17T09:51:42Z</time>
      </trkpt>
      <trkpt lat="42.64913" lon="1.68293">
        <ele>2315.684</ele>
        <time>2022-09-17T09:51:44Z</time>
      </trkpt>
      <trkpt lat="42.64913" lon="1.68292">
        <ele>2315.677</ele>
        <time>2022-09-17T09:51:46Z</time>
      </trkpt>
      <trkpt lat="42.64912" lon="1.68291">
        <ele>2315.671</ele>
        <time>2022-09-17T09:51:48Z</time>
      </trkpt>
      <trkpt lat="42.64912" lon="1.6829">
        <ele>2315.852</ele>
        <time>2022-09-17T09:51:50Z</time>
      </trkpt>
      <trkpt lat="42.64912" lon="1.68289">
        <ele>2316.122</ele>
        <time>2022-09-17T09:51:52Z</time>
      </trkpt>
      <trkpt lat="42.64912" lon="1.68288">
        <ele>2316.432</ele>
        <time>2022-09-17T09:51:54Z</time>
      </trkpt>
      <trkpt lat="42.64912" lon="1.68287">
        <ele>2317.049</ele>
        <time>2022-09-17T09:51:56Z</time>
      </trkpt>
      <trkpt lat="42.64912" lon="1.68286">
        <ele>2317.234</ele>
        <time>2022-09-17T09:51:58Z</time>
      </trkpt>
      <trkpt lat="42.64912" lon="1.68285">
        <ele>2317.393</ele>
        <time>2022-09-17T09:52:00Z</time>
      </trkpt>
      <trkpt lat="42.64911" lon="1.68284">
        <ele>2317.86</ele>
        <time>2022-09-17T09:52:02Z</time>
      </trkpt>
      <trkpt lat="42.6491" lon="1.68284">
        <ele>2317.863</ele>
        <time>2022-09-17T09:52:04Z</time>
      </trkpt>
      <trkpt lat="42.6491" lon="1.68283">
        <ele>2317.082</ele>
        <time>2022-09-17T09:52:06Z</time>
      </trkpt>
      <trkpt lat="42.6491" lon="1.68281">
        <ele>2317.715</ele>
        <time>2022-09-17T09:52:08Z</time>
      </trkpt>
      <trkpt lat="42.64909" lon="1.6828">
        <ele>2318.388</ele>
        <time>2022-09-17T09:52:10Z</time>
      </trkpt>
      <trkpt lat="42.64909" lon="1.68279">
        <ele>2318.77</ele>
        <time>2022-09-17T09:52:12Z</time>
      </trkpt>
      <trkpt lat="42.64908" lon="1.68278">
        <ele>2319.389</ele>
        <time>2022-09-17T09:52:14Z</time>
      </trkpt>
      <trkpt lat="42.64908" lon="1.68277">
        <ele>2319.458</ele>
        <time>2022-09-17T09:52:16Z</time>
      </trkpt>
      <trkpt lat="42.64908" lon="1.68276">
        <ele>2320.19</ele>
        <time>2022-09-17T09:52:18Z</time>
      </trkpt>
      <trkpt lat="42.64908" lon="1.68275">
        <ele>2320.436</ele>
        <time>2022-09-17T09:52:20Z</time>
      </trkpt>
      <trkpt lat="42.64907" lon="1.68274">
        <ele>2320.408</ele>
        <time>2022-09-17T09:52:22Z</time>
      </trkpt>
      <trkpt lat="42.64907" lon="1.68273">
        <ele>2320.295</ele>
        <time>2022-09-17T09:52:24Z</time>
      </trkpt>
      <trkpt lat="42.64907" lon="1.68272">
        <ele>2320.492</ele>
        <time>2022-09-17T09:52:26Z</time>
      </trkpt>
      <trkpt lat="42.64907" lon="1.68271">
        <ele>2320.973</ele>
        <time>2022-09-17T09:52:28Z</time>
      </trkpt>
      <trkpt lat="42.64907" lon="1.68271">
        <ele>2321.684</ele>
        <time>2022-09-17T09:52:30Z</time>
      </trkpt>
      <trkpt lat="42.64906" lon="1.6827">
        <ele>2322.418</ele>
        <time>2022-09-17T09:52:32Z</time>
      </trkpt>
      <trkpt lat="42.64906" lon="1.68269">
        <ele>2322.787</ele>
        <time>2022-09-17T09:52:34Z</time>
      </trkpt>
      <trkpt lat="42.64905" lon="1.68269">
        <ele>2322.613</ele>
        <time>2022-09-17T09:52:36Z</time>
      </trkpt>
      <trkpt lat="42.64904" lon="1.68269">
        <ele>2322.674</ele>
        <time>2022-09-17T09:52:38Z</time>
      </trkpt>
      <trkpt lat="42.64904" lon="1.68268">
        <ele>2322.478</ele>
        <time>2022-09-17T09:52:40Z</time>
      </trkpt>
      <trkpt lat="42.64903" lon="1.68267">
        <ele>2321.974</ele>
        <time>2022-09-17T09:52:42Z</time>
      </trkpt>
      <trkpt lat="42.64903" lon="1.68267">
        <ele>2323.279</ele>
        <time>2022-09-17T09:52:44Z</time>
      </trkpt>
      <trkpt lat="42.64903" lon="1.68266">
        <ele>2323.829</ele>
        <time>2022-09-17T09:52:46Z</time>
      </trkpt>
      <trkpt lat="42.64902" lon="1.68265">
        <ele>2323.486</ele>
        <time>2022-09-17T09:52:48Z</time>
      </trkpt>
      <trkpt lat="42.64902" lon="1.68264">
        <ele>2323.994</ele>
        <time>2022-09-17T09:52:50Z</time>
      </trkpt>
      <trkpt lat="42.64901" lon="1.68264">
        <ele>2325.299</ele>
        <time>2022-09-17T09:52:52Z</time>
      </trkpt>
      <trkpt lat="42.649" lon="1.68263">
        <ele>2325.913</ele>
        <time>2022-09-17T09:52:54Z</time>
      </trkpt>
      <trkpt lat="42.649" lon="1.68261">
        <ele>2325.529</ele>
        <time>2022-09-17T09:52:56Z</time>
      </trkpt>
      <trkpt lat="42.64899" lon="1.68261">
        <ele>2326.04</ele>
        <time>2022-09-17T09:52:58Z</time>
      </trkpt>
      <trkpt lat="42.64898" lon="1.68259">
        <ele>2326.13</ele>
        <time>2022-09-17T09:53:00Z</time>
      </trkpt>
      <trkpt lat="42.64898" lon="1.68258">
        <ele>2326.685</ele>
        <time>2022-09-17T09:53:02Z</time>
      </trkpt>
      <trkpt lat="42.64899" lon="1.68257">
        <ele>2327.945</ele>
        <time>2022-09-17T09:53:04Z</time>
      </trkpt>
      <trkpt lat="42.64899" lon="1.68257">
        <ele>2327.958</ele>
        <time>2022-09-17T09:53:06Z</time>
      </trkpt>
      <trkpt lat="42.64899" lon="1.68256">
        <ele>2328.782</ele>
        <time>2022-09-17T09:53:08Z</time>
      </trkpt>
      <trkpt lat="42.64899" lon="1.68255">
        <ele>2329.031</ele>
        <time>2022-09-17T09:53:10Z</time>
      </trkpt>
      <trkpt lat="42.64899" lon="1.68254">
        <ele>2329.419</ele>
        <time>2022-09-17T09:53:12Z</time>
      </trkpt>
      <trkpt lat="42.64898" lon="1.68253">
        <ele>2330.042</ele>
        <time>2022-09-17T09:53:14Z</time>
      </trkpt>
      <trkpt lat="42.64897" lon="1.68253">
        <ele>2330.343</ele>
        <time>2022-09-17T09:53:16Z</time>
      </trkpt>
      <trkpt lat="42.64897" lon="1.68252">
        <ele>2330.409</ele>
        <time>2022-09-17T09:53:18Z</time>
      </trkpt>
      <trkpt lat="42.64896" lon="1.68251">
        <ele>2331.363</ele>
        <time>2022-09-17T09:53:20Z</time>
      </trkpt>
      <trkpt lat="42.64895" lon="1.68251">
        <ele>2331.971</ele>
        <time>2022-09-17T09:53:22Z</time>
      </trkpt>
      <trkpt lat="42.64894" lon="1.68252">
        <ele>2331.328</ele>
        <time>2022-09-17T09:53:24Z</time>
      </trkpt>
      <trkpt lat="42.64893" lon="1.68252">
        <ele>2331.275</ele>
        <time>2022-09-17T09:53:26Z</time>
      </trkpt>
      <trkpt lat="42.64893" lon="1.68251">
        <ele>2331.878</ele>
        <time>2022-09-17T09:53:28Z</time>
      </trkpt>
      <trkpt lat="42.64892" lon="1.68251">
        <ele>2332.566</ele>
        <time>2022-09-17T09:53:30Z</time>
      </trkpt>
      <trkpt lat="42.64892" lon="1.6825">
        <ele>2332.864</ele>
        <time>2022-09-17T09:53:32Z</time>
      </trkpt>
      <trkpt lat="42.64891" lon="1.6825">
        <ele>2333.787</ele>
        <time>2022-09-17T09:53:34Z</time>
      </trkpt>
      <trkpt lat="42.6489" lon="1.6825">
        <ele>2333.458</ele>
        <time>2022-09-17T09:53:36Z</time>
      </trkpt>
      <trkpt lat="42.6489" lon="1.6825">
        <ele>2334.521</ele>
        <time>2022-09-17T09:53:38Z</time>
      </trkpt>
      <trkpt lat="42.6489" lon="1.68249">
        <ele>2335.027</ele>
        <time>2022-09-17T09:53:40Z</time>
      </trkpt>
      <trkpt lat="42.64889" lon="1.68248">
        <ele>2335.257</ele>
        <time>2022-09-17T09:53:42Z</time>
      </trkpt>
      <trkpt lat="42.64889" lon="1.68247">
        <ele>2335.077</ele>
        <time>2022-09-17T09:53:44Z</time>
      </trkpt>
      <trkpt lat="42.64889" lon="1.68247">
        <ele>2335.655</ele>
        <time>2022-09-17T09:53:46Z</time>
      </trkpt>
      <trkpt lat="42.64888" lon="1.68246">
        <ele>2336.365</ele>
        <time>2022-09-17T09:53:48Z</time>
      </trkpt>
      <trkpt lat="42.64887" lon="1.68246">
        <ele>2337.297</ele>
        <time>2022-09-17T09:53:50Z</time>
      </trkpt>
      <trkpt lat="42.64887" lon="1.68246">
        <ele>2338.37</ele>
        <time>2022-09-17T09:53:52Z</time>
      </trkpt>
      <trkpt lat="42.64886" lon="1.68245">
        <ele>2338.687</ele>
        <time>2022-09-17T09:53:54Z</time>
      </trkpt>
      <trkpt lat="42.64886" lon="1.68245">
        <ele>2338.462</ele>
        <time>2022-09-17T09:53:56Z</time>
      </trkpt>
      <trkpt lat="42.64886" lon="1.68245">
        <ele>2338.168</ele>
        <time>2022-09-17T09:53:58Z</time>
      </trkpt>
      <trkpt lat="42.64886" lon="1.68244">
        <ele>2337.443</ele>
        <time>2022-09-17T09:54:00Z</time>
      </trkpt>
      <trkpt lat="42.64886" lon="1.68244">
        <ele>2338.174</ele>
        <time>2022-09-17T09:54:02Z</time>
      </trkpt>
      <trkpt lat="42.64886" lon="1.68244">
        <ele>2338.315</ele>
        <time>2022-09-17T09:54:04Z</time>
      </trkpt>
      <trkpt lat="42.64886" lon="1.68243">
        <ele>2338.001</ele>
        <time>2022-09-17T09:54:06Z</time>
      </trkpt>
      <trkpt lat="42.64886" lon="1.68243">
        <ele>2338.087</ele>
        <time>2022-09-17T09:54:08Z</time>
      </trkpt>
      <trkpt lat="42.64886" lon="1.68243">
        <ele>2338.084</ele>
        <time>2022-09-17T09:54:10Z</time>
      </trkpt>
      <trkpt lat="42.64886" lon="1.68243">
        <ele>2338.083</ele>
        <time>2022-09-17T09:54:12Z</time>
      </trkpt>
      <trkpt lat="42.64886" lon="1.68243">
        <ele>2338.08</ele>
        <time>2022-09-17T09:54:14Z</time>
      </trkpt>
      <trkpt lat="42.64886" lon="1.68242">
        <ele>2338.068</ele>
        <time>2022-09-17T09:54:16Z</time>
      </trkpt>
      <trkpt lat="42.64886" lon="1.68242">
        <ele>2338.05</ele>
        <time>2022-09-17T09:54:18Z</time>
      </trkpt>
      <trkpt lat="42.64886" lon="1.68242">
        <ele>2337.92</ele>
        <time>2022-09-17T09:54:20Z</time>
      </trkpt>
      <trkpt lat="42.64886" lon="1.68242">
        <ele>2337.857</ele>
        <time>2022-09-17T09:54:22Z</time>
      </trkpt>
      <trkpt lat="42.64885" lon="1.68242">
        <ele>2337.856</ele>
        <time>2022-09-17T09:54:24Z</time>
      </trkpt>
      <trkpt lat="42.64885" lon="1.68241">
        <ele>2337.5</ele>
        <time>2022-09-17T09:54:26Z</time>
      </trkpt>
      <trkpt lat="42.64884" lon="1.68241">
        <ele>2337.666</ele>
        <time>2022-09-17T09:54:28Z</time>
      </trkpt>
      <trkpt lat="42.64883" lon="1.6824">
        <ele>2337.821</ele>
        <time>2022-09-17T09:54:30Z</time>
      </trkpt>
      <trkpt lat="42.64883" lon="1.68241">
        <ele>2337.795</ele>
        <time>2022-09-17T09:54:32Z</time>
      </trkpt>
      <trkpt lat="42.64883" lon="1.68241">
        <ele>2337.795</ele>
        <time>2022-09-17T09:54:34Z</time>
      </trkpt>
      <trkpt lat="42.64883" lon="1.68241">
        <ele>2337.795</ele>
        <time>2022-09-17T09:54:36Z</time>
      </trkpt>
      <trkpt lat="42.64882" lon="1.6824">
        <ele>2337.807</ele>
        <time>2022-09-17T09:54:38Z</time>
      </trkpt>
      <trkpt lat="42.64882" lon="1.68239">
        <ele>2338.598</ele>
        <time>2022-09-17T09:54:40Z</time>
      </trkpt>
      <trkpt lat="42.64881" lon="1.68239">
        <ele>2338.832</ele>
        <time>2022-09-17T09:54:42Z</time>
      </trkpt>
      <trkpt lat="42.6488" lon="1.68238">
        <ele>2338.984</ele>
        <time>2022-09-17T09:54:44Z</time>
      </trkpt>
      <trkpt lat="42.6488" lon="1.68237">
        <ele>2339.872</ele>
        <time>2022-09-17T09:54:46Z</time>
      </trkpt>
      <trkpt lat="42.6488" lon="1.68236">
        <ele>2339.21</ele>
        <time>2022-09-17T09:54:48Z</time>
      </trkpt>
      <trkpt lat="42.64879" lon="1.68234">
        <ele>2339.144</ele>
        <time>2022-09-17T09:54:50Z</time>
      </trkpt>
      <trkpt lat="42.64879" lon="1.68233">
        <ele>2338.507</ele>
        <time>2022-09-17T09:54:52Z</time>
      </trkpt>
      <trkpt lat="42.64879" lon="1.68232">
        <ele>2337.968</ele>
        <time>2022-09-17T09:54:54Z</time>
      </trkpt>
      <trkpt lat="42.64879" lon="1.68232">
        <ele>2337.671</ele>
        <time>2022-09-17T09:54:56Z</time>
      </trkpt>
      <trkpt lat="42.64879" lon="1.68232">
        <ele>2337.671</ele>
        <time>2022-09-17T09:54:58Z</time>
      </trkpt>
      <trkpt lat="42.64879" lon="1.68232">
        <ele>2337.673</ele>
        <time>2022-09-17T09:55:00Z</time>
      </trkpt>
      <trkpt lat="42.64879" lon="1.68231">
        <ele>2337.629</ele>
        <time>2022-09-17T09:55:02Z</time>
      </trkpt>
      <trkpt lat="42.64879" lon="1.6823">
        <ele>2339.039</ele>
        <time>2022-09-17T09:55:04Z</time>
      </trkpt>
      <trkpt lat="42.64879" lon="1.68229">
        <ele>2339.196</ele>
        <time>2022-09-17T09:55:06Z</time>
      </trkpt>
      <trkpt lat="42.64879" lon="1.68229">
        <ele>2338.526</ele>
        <time>2022-09-17T09:55:08Z</time>
      </trkpt>
      <trkpt lat="42.64879" lon="1.68229">
        <ele>2338.529</ele>
        <time>2022-09-17T09:55:10Z</time>
      </trkpt>
      <trkpt lat="42.64878" lon="1.68228">
        <ele>2339.509</ele>
        <time>2022-09-17T09:55:12Z</time>
      </trkpt>
      <trkpt lat="42.64876" lon="1.68228">
        <ele>2339.223</ele>
        <time>2022-09-17T09:55:14Z</time>
      </trkpt>
      <trkpt lat="42.64876" lon="1.68229">
        <ele>2340.192</ele>
        <time>2022-09-17T09:55:16Z</time>
      </trkpt>
      <trkpt lat="42.64876" lon="1.68229">
        <ele>2340.191</ele>
        <time>2022-09-17T09:55:18Z</time>
      </trkpt>
      <trkpt lat="42.64876" lon="1.68229">
        <ele>2340.194</ele>
        <time>2022-09-17T09:55:20Z</time>
      </trkpt>
      <trkpt lat="42.64876" lon="1.68228">
        <ele>2340.266</ele>
        <time>2022-09-17T09:55:22Z</time>
      </trkpt>
      <trkpt lat="42.64875" lon="1.68228">
        <ele>2340.039</ele>
        <time>2022-09-17T09:55:24Z</time>
      </trkpt>
      <trkpt lat="42.64875" lon="1.68228">
        <ele>2340.037</ele>
        <time>2022-09-17T09:55:26Z</time>
      </trkpt>
      <trkpt lat="42.64876" lon="1.68228">
        <ele>2339.648</ele>
        <time>2022-09-17T09:55:28Z</time>
      </trkpt>
      <trkpt lat="42.64876" lon="1.68227">
        <ele>2339.852</ele>
        <time>2022-09-17T09:55:30Z</time>
      </trkpt>
      <trkpt lat="42.64874" lon="1.68225">
        <ele>2339.149</ele>
        <time>2022-09-17T09:55:32Z</time>
      </trkpt>
      <trkpt lat="42.64872" lon="1.68225">
        <ele>2339.636</ele>
        <time>2022-09-17T09:55:34Z</time>
      </trkpt>
      <trkpt lat="42.64871" lon="1.68225">
        <ele>2340.228</ele>
        <time>2022-09-17T09:55:36Z</time>
      </trkpt>
      <trkpt lat="42.6487" lon="1.68225">
        <ele>2340.483</ele>
        <time>2022-09-17T09:55:38Z</time>
      </trkpt>
      <trkpt lat="42.64871" lon="1.68225">
        <ele>2340.23</ele>
        <time>2022-09-17T09:55:40Z</time>
      </trkpt>
      <trkpt lat="42.64871" lon="1.68226">
        <ele>2340.233</ele>
        <time>2022-09-17T09:55:42Z</time>
      </trkpt>
      <trkpt lat="42.64871" lon="1.68225">
        <ele>2340.232</ele>
        <time>2022-09-17T09:55:44Z</time>
      </trkpt>
      <trkpt lat="42.64871" lon="1.68225">
        <ele>2340.207</ele>
        <time>2022-09-17T09:55:46Z</time>
      </trkpt>
      <trkpt lat="42.64871" lon="1.68225">
        <ele>2340.202</ele>
        <time>2022-09-17T09:55:48Z</time>
      </trkpt>
      <trkpt lat="42.64871" lon="1.68225">
        <ele>2340.257</ele>
        <time>2022-09-17T09:55:50Z</time>
      </trkpt>
      <trkpt lat="42.64871" lon="1.68224">
        <ele>2340.304</ele>
        <time>2022-09-17T09:55:52Z</time>
      </trkpt>
      <trkpt lat="42.64871" lon="1.68224">
        <ele>2340.335</ele>
        <time>2022-09-17T09:55:54Z</time>
      </trkpt>
      <trkpt lat="42.64871" lon="1.68224">
        <ele>2340.337</ele>
        <time>2022-09-17T09:55:56Z</time>
      </trkpt>
      <trkpt lat="42.64871" lon="1.68224">
        <ele>2340.346</ele>
        <time>2022-09-17T09:55:58Z</time>
      </trkpt>
      <trkpt lat="42.64871" lon="1.68224">
        <ele>2340.364</ele>
        <time>2022-09-17T09:56:00Z</time>
      </trkpt>
      <trkpt lat="42.64871" lon="1.68224">
        <ele>2340.373</ele>
        <time>2022-09-17T09:56:02Z</time>
      </trkpt>
      <trkpt lat="42.64871" lon="1.68224">
        <ele>2340.384</ele>
        <time>2022-09-17T09:56:04Z</time>
      </trkpt>
      <trkpt lat="42.64871" lon="1.68224">
        <ele>2341.317</ele>
        <time>2022-09-17T09:56:06Z</time>
      </trkpt>
      <trkpt lat="42.64871" lon="1.68224">
        <ele>2342.472</ele>
        <time>2022-09-17T09:56:08Z</time>
      </trkpt>
      <trkpt lat="42.64871" lon="1.68224">
        <ele>2342.467</ele>
        <time>2022-09-17T09:56:10Z</time>
      </trkpt>
      <trkpt lat="42.64871" lon="1.68224">
        <ele>2342.476</ele>
        <time>2022-09-17T09:56:12Z</time>
      </trkpt>
      <trkpt lat="42.64871" lon="1.68224">
        <ele>2343.392</ele>
        <time>2022-09-17T09:56:14Z</time>
      </trkpt>
      <trkpt lat="42.64871" lon="1.68224">
        <ele>2342.897</ele>
        <time>2022-09-17T09:56:16Z</time>
      </trkpt>
      <trkpt lat="42.64871" lon="1.68224">
        <ele>2342.886</ele>
        <time>2022-09-17T09:56:18Z</time>
      </trkpt>
      <trkpt lat="42.64871" lon="1.68224">
        <ele>2342.888</ele>
        <time>2022-09-17T09:56:20Z</time>
      </trkpt>
      <trkpt lat="42.64871" lon="1.68224">
        <ele>2342.894</ele>
        <time>2022-09-17T09:56:22Z</time>
      </trkpt>
      <trkpt lat="42.64871" lon="1.68225">
        <ele>2342.73</ele>
        <time>2022-09-17T09:56:24Z</time>
      </trkpt>
      <trkpt lat="42.64871" lon="1.68225">
        <ele>2342.71</ele>
        <time>2022-09-17T09:56:26Z</time>
      </trkpt>
      <trkpt lat="42.64871" lon="1.68225">
        <ele>2342.705</ele>
        <time>2022-09-17T09:56:28Z</time>
      </trkpt>
      <trkpt lat="42.64871" lon="1.68225">
        <ele>2342.71</ele>
        <time>2022-09-17T09:56:30Z</time>
      </trkpt>
      <trkpt lat="42.64871" lon="1.68225">
        <ele>2342.71</ele>
        <time>2022-09-17T09:56:32Z</time>
      </trkpt>
      <trkpt lat="42.64871" lon="1.68225">
        <ele>2342.713</ele>
        <time>2022-09-17T09:56:34Z</time>
      </trkpt>
      <trkpt lat="42.64871" lon="1.68225">
        <ele>2342.709</ele>
        <time>2022-09-17T09:56:36Z</time>
      </trkpt>
      <trkpt lat="42.64872" lon="1.68226">
        <ele>2342.678</ele>
        <time>2022-09-17T09:56:38Z</time>
      </trkpt>
      <trkpt lat="42.64872" lon="1.68226">
        <ele>2342.614</ele>
        <time>2022-09-17T09:56:40Z</time>
      </trkpt>
      <trkpt lat="42.64873" lon="1.68225">
        <ele>2341.902</ele>
        <time>2022-09-17T09:56:42Z</time>
      </trkpt>
      <trkpt lat="42.64873" lon="1.68224">
        <ele>2342.389</ele>
        <time>2022-09-17T09:56:44Z</time>
      </trkpt>
      <trkpt lat="42.64873" lon="1.68224">
        <ele>2342.159</ele>
        <time>2022-09-17T09:56:46Z</time>
      </trkpt>
      <trkpt lat="42.64874" lon="1.68223">
        <ele>2341.489</ele>
        <time>2022-09-17T09:56:48Z</time>
      </trkpt>
      <trkpt lat="42.64876" lon="1.68223">
        <ele>2342.059</ele>
        <time>2022-09-17T09:56:50Z</time>
      </trkpt>
      <trkpt lat="42.64878" lon="1.68222">
        <ele>2341.962</ele>
        <time>2022-09-17T09:56:52Z</time>
      </trkpt>
      <trkpt lat="42.64878" lon="1.68222">
        <ele>2342.171</ele>
        <time>2022-09-17T09:56:54Z</time>
      </trkpt>
      <trkpt lat="42.64878" lon="1.68222">
        <ele>2342.172</ele>
        <time>2022-09-17T09:56:56Z</time>
      </trkpt>
      <trkpt lat="42.64878" lon="1.68222">
        <ele>2342.172</ele>
        <time>2022-09-17T09:56:58Z</time>
      </trkpt>
      <trkpt lat="42.64878" lon="1.68222">
        <ele>2342.252</ele>
        <time>2022-09-17T09:57:00Z</time>
      </trkpt>
      <trkpt lat="42.64878" lon="1.68223">
        <ele>2342.279</ele>
        <time>2022-09-17T09:57:02Z</time>
      </trkpt>
      <trkpt lat="42.64878" lon="1.68223">
        <ele>2342.084</ele>
        <time>2022-09-17T09:57:04Z</time>
      </trkpt>
      <trkpt lat="42.64878" lon="1.68223">
        <ele>2342.082</ele>
        <time>2022-09-17T09:57:06Z</time>
      </trkpt>
      <trkpt lat="42.64878" lon="1.68225">
        <ele>2342.772</ele>
        <time>2022-09-17T09:57:08Z</time>
      </trkpt>
      <trkpt lat="42.64878" lon="1.68226">
        <ele>2343.452</ele>
        <time>2022-09-17T09:57:10Z</time>
      </trkpt>
      <trkpt lat="42.64879" lon="1.68227">
        <ele>2343.647</ele>
        <time>2022-09-17T09:57:12Z</time>
      </trkpt>
      <trkpt lat="42.64879" lon="1.68226">
        <ele>2343.715</ele>
        <time>2022-09-17T09:57:14Z</time>
      </trkpt>
      <trkpt lat="42.6488" lon="1.68225">
        <ele>2344.19</ele>
        <time>2022-09-17T09:57:16Z</time>
      </trkpt>
      <trkpt lat="42.6488" lon="1.68225">
        <ele>2344.475</ele>
        <time>2022-09-17T09:57:18Z</time>
      </trkpt>
      <trkpt lat="42.64881" lon="1.68225">
        <ele>2344.069</ele>
        <time>2022-09-17T09:57:20Z</time>
      </trkpt>
      <trkpt lat="42.64881" lon="1.68225">
        <ele>2344.166</ele>
        <time>2022-09-17T09:57:22Z</time>
      </trkpt>
      <trkpt lat="42.64881" lon="1.68225">
        <ele>2344.18</ele>
        <time>2022-09-17T09:57:24Z</time>
      </trkpt>
      <trkpt lat="42.64881" lon="1.68224">
        <ele>2343.614</ele>
        <time>2022-09-17T09:57:26Z</time>
      </trkpt>
      <trkpt lat="42.64881" lon="1.68224">
        <ele>2343.57</ele>
        <time>2022-09-17T09:57:28Z</time>
      </trkpt>
      <trkpt lat="42.64882" lon="1.68223">
        <ele>2344.247</ele>
        <time>2022-09-17T09:57:30Z</time>
      </trkpt>
      <trkpt lat="42.64883" lon="1.68223">
        <ele>2344.427</ele>
        <time>2022-09-17T09:57:32Z</time>
      </trkpt>
      <trkpt lat="42.64883" lon="1.68222">
        <ele>2345.452</ele>
        <time>2022-09-17T09:57:34Z</time>
      </trkpt>
      <trkpt lat="42.64884" lon="1.68221">
        <ele>2345.887</ele>
        <time>2022-09-17T09:57:36Z</time>
      </trkpt>
      <trkpt lat="42.64885" lon="1.68219">
        <ele>2345.94</ele>
        <time>2022-09-17T09:57:38Z</time>
      </trkpt>
      <trkpt lat="42.64885" lon="1.68218">
        <ele>2345.51</ele>
        <time>2022-09-17T09:57:40Z</time>
      </trkpt>
      <trkpt lat="42.64886" lon="1.68216">
        <ele>2345.281</ele>
        <time>2022-09-17T09:57:42Z</time>
      </trkpt>
      <trkpt lat="42.64886" lon="1.68215">
        <ele>2345.644</ele>
        <time>2022-09-17T09:57:44Z</time>
      </trkpt>
      <trkpt lat="42.64885" lon="1.68213">
        <ele>2344.806</ele>
        <time>2022-09-17T09:57:46Z</time>
      </trkpt>
      <trkpt lat="42.64885" lon="1.6821">
        <ele>2344.241</ele>
        <time>2022-09-17T09:57:48Z</time>
      </trkpt>
      <trkpt lat="42.64883" lon="1.6821">
        <ele>2344.027</ele>
        <time>2022-09-17T09:57:50Z</time>
      </trkpt>
      <trkpt lat="42.64882" lon="1.6821">
        <ele>2343.281</ele>
        <time>2022-09-17T09:57:52Z</time>
      </trkpt>
      <trkpt lat="42.6488" lon="1.68209">
        <ele>2342.477</ele>
        <time>2022-09-17T09:57:54Z</time>
      </trkpt>
      <trkpt lat="42.64881" lon="1.68208">
        <ele>2342.49</ele>
        <time>2022-09-17T09:57:56Z</time>
      </trkpt>
      <trkpt lat="42.64882" lon="1.68208">
        <ele>2343.3</ele>
        <time>2022-09-17T09:57:58Z</time>
      </trkpt>
      <trkpt lat="42.64885" lon="1.68207">
        <ele>2344.873</ele>
        <time>2022-09-17T09:58:00Z</time>
      </trkpt>
      <trkpt lat="42.64885" lon="1.68207">
        <ele>2344.828</ele>
        <time>2022-09-17T09:58:02Z</time>
      </trkpt>
      <trkpt lat="42.64885" lon="1.68207">
        <ele>2344.837</ele>
        <time>2022-09-17T09:58:04Z</time>
      </trkpt>
      <trkpt lat="42.64885" lon="1.68207">
        <ele>2344.841</ele>
        <time>2022-09-17T09:58:06Z</time>
      </trkpt>
      <trkpt lat="42.64885" lon="1.68207">
        <ele>2345.064</ele>
        <time>2022-09-17T09:58:08Z</time>
      </trkpt>
      <trkpt lat="42.64884" lon="1.68205">
        <ele>2344.966</ele>
        <time>2022-09-17T09:58:10Z</time>
      </trkpt>
      <trkpt lat="42.64885" lon="1.68205">
        <ele>2345.653</ele>
        <time>2022-09-17T09:58:12Z</time>
      </trkpt>
      <trkpt lat="42.64885" lon="1.68204">
        <ele>2346.8</ele>
        <time>2022-09-17T09:58:14Z</time>
      </trkpt>
      <trkpt lat="42.64885" lon="1.68204">
        <ele>2347.18</ele>
        <time>2022-09-17T09:58:16Z</time>
      </trkpt>
      <trkpt lat="42.64885" lon="1.68203">
        <ele>2347.434</ele>
        <time>2022-09-17T09:58:18Z</time>
      </trkpt>
      <trkpt lat="42.64885" lon="1.68202">
        <ele>2347.67</ele>
        <time>2022-09-17T09:58:20Z</time>
      </trkpt>
      <trkpt lat="42.64885" lon="1.68201">
        <ele>2347.964</ele>
        <time>2022-09-17T09:58:22Z</time>
      </trkpt>
      <trkpt lat="42.64885" lon="1.68201">
        <ele>2347.964</ele>
        <time>2022-09-17T09:58:24Z</time>
      </trkpt>
      <trkpt lat="42.64885" lon="1.682">
        <ele>2347.894</ele>
        <time>2022-09-17T09:58:26Z</time>
      </trkpt>
      <trkpt lat="42.64885" lon="1.682">
        <ele>2348.471</ele>
        <time>2022-09-17T09:58:28Z</time>
      </trkpt>
      <trkpt lat="42.64885" lon="1.68199">
        <ele>2348.687</ele>
        <time>2022-09-17T09:58:30Z</time>
      </trkpt>
      <trkpt lat="42.64885" lon="1.68198">
        <ele>2348.481</ele>
        <time>2022-09-17T09:58:32Z</time>
      </trkpt>
      <trkpt lat="42.64885" lon="1.68198">
        <ele>2348.834</ele>
        <time>2022-09-17T09:58:34Z</time>
      </trkpt>
      <trkpt lat="42.64884" lon="1.68198">
        <ele>2348.835</ele>
        <time>2022-09-17T09:58:36Z</time>
      </trkpt>
      <trkpt lat="42.64884" lon="1.68198">
        <ele>2348.835</ele>
        <time>2022-09-17T09:58:38Z</time>
      </trkpt>
      <trkpt lat="42.64884" lon="1.68197">
        <ele>2349.469</ele>
        <time>2022-09-17T09:58:40Z</time>
      </trkpt>
      <trkpt lat="42.64884" lon="1.68195">
        <ele>2349.795</ele>
        <time>2022-09-17T09:58:42Z</time>
      </trkpt>
      <trkpt lat="42.64885" lon="1.68194">
        <ele>2349.513</ele>
        <time>2022-09-17T09:58:44Z</time>
      </trkpt>
      <trkpt lat="42.64885" lon="1.68193">
        <ele>2349.071</ele>
        <time>2022-09-17T09:58:46Z</time>
      </trkpt>
      <trkpt lat="42.64884" lon="1.68191">
        <ele>2349.221</ele>
        <time>2022-09-17T09:58:48Z</time>
      </trkpt>
      <trkpt lat="42.64883" lon="1.6819">
        <ele>2348.351</ele>
        <time>2022-09-17T09:58:50Z</time>
      </trkpt>
      <trkpt lat="42.64882" lon="1.68189">
        <ele>2348.217</ele>
        <time>2022-09-17T09:58:52Z</time>
      </trkpt>
      <trkpt lat="42.64882" lon="1.68189">
        <ele>2348.194</ele>
        <time>2022-09-17T09:58:54Z</time>
      </trkpt>
      <trkpt lat="42.64881" lon="1.68188">
        <ele>2348.905</ele>
        <time>2022-09-17T09:58:56Z</time>
      </trkpt>
      <trkpt lat="42.64881" lon="1.68188">
        <ele>2348.722</ele>
        <time>2022-09-17T09:58:58Z</time>
      </trkpt>
      <trkpt lat="42.6488" lon="1.68187">
        <ele>2347.622</ele>
        <time>2022-09-17T09:59:00Z</time>
      </trkpt>
      <trkpt lat="42.6488" lon="1.68186">
        <ele>2348.587</ele>
        <time>2022-09-17T09:59:02Z</time>
      </trkpt>
      <trkpt lat="42.6488" lon="1.68186">
        <ele>2349.322</ele>
        <time>2022-09-17T09:59:04Z</time>
      </trkpt>
      <trkpt lat="42.64881" lon="1.68186">
        <ele>2349.766</ele>
        <time>2022-09-17T09:59:06Z</time>
      </trkpt>
      <trkpt lat="42.64881" lon="1.68186">
        <ele>2349.755</ele>
        <time>2022-09-17T09:59:08Z</time>
      </trkpt>
      <trkpt lat="42.64881" lon="1.68185">
        <ele>2350.371</ele>
        <time>2022-09-17T09:59:10Z</time>
      </trkpt>
      <trkpt lat="42.64881" lon="1.68185">
        <ele>2351.493</ele>
        <time>2022-09-17T09:59:12Z</time>
      </trkpt>
      <trkpt lat="42.64882" lon="1.68185">
        <ele>2352.122</ele>
        <time>2022-09-17T09:59:14Z</time>
      </trkpt>
      <trkpt lat="42.64882" lon="1.68185">
        <ele>2352.127</ele>
        <time>2022-09-17T09:59:16Z</time>
      </trkpt>
      <trkpt lat="42.64882" lon="1.68185">
        <ele>2352.132</ele>
        <time>2022-09-17T09:59:18Z</time>
      </trkpt>
      <trkpt lat="42.64882" lon="1.68185">
        <ele>2352.144</ele>
        <time>2022-09-17T09:59:20Z</time>
      </trkpt>
      <trkpt lat="42.64882" lon="1.68185">
        <ele>2352.441</ele>
        <time>2022-09-17T09:59:22Z</time>
      </trkpt>
      <trkpt lat="42.64882" lon="1.68185">
        <ele>2352.443</ele>
        <time>2022-09-17T09:59:24Z</time>
      </trkpt>
      <trkpt lat="42.64882" lon="1.68185">
        <ele>2352.449</ele>
        <time>2022-09-17T09:59:26Z</time>
      </trkpt>
      <trkpt lat="42.64882" lon="1.68185">
        <ele>2352.454</ele>
        <time>2022-09-17T09:59:28Z</time>
      </trkpt>
      <trkpt lat="42.64882" lon="1.68185">
        <ele>2352.456</ele>
        <time>2022-09-17T09:59:30Z</time>
      </trkpt>
      <trkpt lat="42.64882" lon="1.68185">
        <ele>2352.461</ele>
        <time>2022-09-17T09:59:32Z</time>
      </trkpt>
      <trkpt lat="42.64882" lon="1.68185">
        <ele>2352.461</ele>
        <time>2022-09-17T09:59:34Z</time>
      </trkpt>
      <trkpt lat="42.64882" lon="1.68185">
        <ele>2352.777</ele>
        <time>2022-09-17T09:59:36Z</time>
      </trkpt>
      <trkpt lat="42.64882" lon="1.68186">
        <ele>2353.264</ele>
        <time>2022-09-17T09:59:38Z</time>
      </trkpt>
      <trkpt lat="42.64882" lon="1.68186">
        <ele>2353.266</ele>
        <time>2022-09-17T09:59:40Z</time>
      </trkpt>
      <trkpt lat="42.64882" lon="1.68186">
        <ele>2353.283</ele>
        <time>2022-09-17T09:59:42Z</time>
      </trkpt>
      <trkpt lat="42.64882" lon="1.68186">
        <ele>2353.286</ele>
        <time>2022-09-17T09:59:44Z</time>
      </trkpt>
      <trkpt lat="42.64882" lon="1.68186">
        <ele>2353.308</ele>
        <time>2022-09-17T09:59:46Z</time>
      </trkpt>
      <trkpt lat="42.64882" lon="1.68186">
        <ele>2353.459</ele>
        <time>2022-09-17T09:59:48Z</time>
      </trkpt>
      <trkpt lat="42.64883" lon="1.68186">
        <ele>2353.522</ele>
        <time>2022-09-17T09:59:50Z</time>
      </trkpt>
      <trkpt lat="42.64883" lon="1.68186">
        <ele>2354.242</ele>
        <time>2022-09-17T09:59:52Z</time>
      </trkpt>
      <trkpt lat="42.64882" lon="1.68187">
        <ele>2354.26</ele>
        <time>2022-09-17T09:59:54Z</time>
      </trkpt>
      <trkpt lat="42.64882" lon="1.68186">
        <ele>2354.06</ele>
        <time>2022-09-17T09:59:56Z</time>
      </trkpt>
      <trkpt lat="42.64883" lon="1.68186">
        <ele>2354.665</ele>
        <time>2022-09-17T09:59:58Z</time>
      </trkpt>
      <trkpt lat="42.64883" lon="1.68186">
        <ele>2354.681</ele>
        <time>2022-09-17T10:00:00Z</time>
      </trkpt>
      <trkpt lat="42.64883" lon="1.68186">
        <ele>2355.314</ele>
        <time>2022-09-17T10:00:02Z</time>
      </trkpt>
      <trkpt lat="42.64883" lon="1.68185">
        <ele>2355.425</ele>
        <time>2022-09-17T10:00:04Z</time>
      </trkpt>
      <trkpt lat="42.64883" lon="1.68184">
        <ele>2355.763</ele>
        <time>2022-09-17T10:00:06Z</time>
      </trkpt>
      <trkpt lat="42.64882" lon="1.68182">
        <ele>2356.476</ele>
        <time>2022-09-17T10:00:08Z</time>
      </trkpt>
      <trkpt lat="42.64882" lon="1.6818">
        <ele>2357.61</ele>
        <time>2022-09-17T10:00:10Z</time>
      </trkpt>
      <trkpt lat="42.64882" lon="1.68179">
        <ele>2358.587</ele>
        <time>2022-09-17T10:00:12Z</time>
      </trkpt>
      <trkpt lat="42.64882" lon="1.68178">
        <ele>2358.909</ele>
        <time>2022-09-17T10:00:14Z</time>
      </trkpt>
      <trkpt lat="42.64882" lon="1.68176">
        <ele>2359.477</ele>
        <time>2022-09-17T10:00:16Z</time>
      </trkpt>
      <trkpt lat="42.64882" lon="1.68175">
        <ele>2360.378</ele>
        <time>2022-09-17T10:00:18Z</time>
      </trkpt>
      <trkpt lat="42.64882" lon="1.68173">
        <ele>2361.878</ele>
        <time>2022-09-17T10:00:20Z</time>
      </trkpt>
      <trkpt lat="42.64881" lon="1.68173">
        <ele>2362.069</ele>
        <time>2022-09-17T10:00:22Z</time>
      </trkpt>
      <trkpt lat="42.64881" lon="1.68173">
        <ele>2360.979</ele>
        <time>2022-09-17T10:00:24Z</time>
      </trkpt>
      <trkpt lat="42.64881" lon="1.68173">
        <ele>2361.042</ele>
        <time>2022-09-17T10:00:26Z</time>
      </trkpt>
      <trkpt lat="42.64881" lon="1.68173">
        <ele>2361.025</ele>
        <time>2022-09-17T10:00:28Z</time>
      </trkpt>
      <trkpt lat="42.64881" lon="1.68173">
        <ele>2361.01</ele>
        <time>2022-09-17T10:00:30Z</time>
      </trkpt>
      <trkpt lat="42.64881" lon="1.68173">
        <ele>2361.006</ele>
        <time>2022-09-17T10:00:32Z</time>
      </trkpt>
      <trkpt lat="42.64881" lon="1.68173">
        <ele>2361.009</ele>
        <time>2022-09-17T10:00:34Z</time>
      </trkpt>
      <trkpt lat="42.64881" lon="1.68173">
        <ele>2361.405</ele>
        <time>2022-09-17T10:00:36Z</time>
      </trkpt>
      <trkpt lat="42.64881" lon="1.68172">
        <ele>2361.534</ele>
        <time>2022-09-17T10:00:38Z</time>
      </trkpt>
      <trkpt lat="42.64881" lon="1.68172">
        <ele>2361.392</ele>
        <time>2022-09-17T10:00:40Z</time>
      </trkpt>
      <trkpt lat="42.64881" lon="1.68172">
        <ele>2361.314</ele>
        <time>2022-09-17T10:00:42Z</time>
      </trkpt>
      <trkpt lat="42.64881" lon="1.68172">
        <ele>2361.322</ele>
        <time>2022-09-17T10:00:44Z</time>
      </trkpt>
      <trkpt lat="42.64881" lon="1.68172">
        <ele>2361.314</ele>
        <time>2022-09-17T10:00:46Z</time>
      </trkpt>
      <trkpt lat="42.64881" lon="1.68172">
        <ele>2360.982</ele>
        <time>2022-09-17T10:00:48Z</time>
      </trkpt>
      <trkpt lat="42.64881" lon="1.68171">
        <ele>2361.118</ele>
        <time>2022-09-17T10:00:50Z</time>
      </trkpt>
      <trkpt lat="42.6488" lon="1.6817">
        <ele>2362.047</ele>
        <time>2022-09-17T10:00:52Z</time>
      </trkpt>
      <trkpt lat="42.6488" lon="1.68169">
        <ele>2363.527</ele>
        <time>2022-09-17T10:00:54Z</time>
      </trkpt>
      <trkpt lat="42.6488" lon="1.68168">
        <ele>2364.402</ele>
        <time>2022-09-17T10:00:56Z</time>
      </trkpt>
      <trkpt lat="42.64881" lon="1.68167">
        <ele>2364.914</ele>
        <time>2022-09-17T10:00:58Z</time>
      </trkpt>
      <trkpt lat="42.64881" lon="1.68166">
        <ele>2364.752</ele>
        <time>2022-09-17T10:01:00Z</time>
      </trkpt>
      <trkpt lat="42.6488" lon="1.68165">
        <ele>2364.256</ele>
        <time>2022-09-17T10:01:02Z</time>
      </trkpt>
      <trkpt lat="42.6488" lon="1.68163">
        <ele>2364.357</ele>
        <time>2022-09-17T10:01:04Z</time>
      </trkpt>
      <trkpt lat="42.64881" lon="1.68162">
        <ele>2365.127</ele>
        <time>2022-09-17T10:01:06Z</time>
      </trkpt>
      <trkpt lat="42.64882" lon="1.68162">
        <ele>2366.163</ele>
        <time>2022-09-17T10:01:08Z</time>
      </trkpt>
      <trkpt lat="42.64882" lon="1.68162">
        <ele>2367.797</ele>
        <time>2022-09-17T10:01:10Z</time>
      </trkpt>
      <trkpt lat="42.64882" lon="1.68161">
        <ele>2368.942</ele>
        <time>2022-09-17T10:01:12Z</time>
      </trkpt>
      <trkpt lat="42.64881" lon="1.68161">
        <ele>2368.869</ele>
        <time>2022-09-17T10:01:14Z</time>
      </trkpt>
      <trkpt lat="42.6488" lon="1.6816">
        <ele>2368.835</ele>
        <time>2022-09-17T10:01:16Z</time>
      </trkpt>
      <trkpt lat="42.6488" lon="1.68159">
        <ele>2369.293</ele>
        <time>2022-09-17T10:01:18Z</time>
      </trkpt>
      <trkpt lat="42.64879" lon="1.68158">
        <ele>2370.021</ele>
        <time>2022-09-17T10:01:20Z</time>
      </trkpt>
      <trkpt lat="42.64879" lon="1.68158">
        <ele>2370.107</ele>
        <time>2022-09-17T10:01:22Z</time>
      </trkpt>
      <trkpt lat="42.64878" lon="1.68158">
        <ele>2371.185</ele>
        <time>2022-09-17T10:01:24Z</time>
      </trkpt>
      <trkpt lat="42.64878" lon="1.68158">
        <ele>2370.91</ele>
        <time>2022-09-17T10:01:26Z</time>
      </trkpt>
      <trkpt lat="42.64877" lon="1.68158">
        <ele>2370.787</ele>
        <time>2022-09-17T10:01:28Z</time>
      </trkpt>
      <trkpt lat="42.64876" lon="1.68158">
        <ele>2371.351</ele>
        <time>2022-09-17T10:01:30Z</time>
      </trkpt>
      <trkpt lat="42.64875" lon="1.68158">
        <ele>2372.065</ele>
        <time>2022-09-17T10:01:32Z</time>
      </trkpt>
      <trkpt lat="42.64874" lon="1.68158">
        <ele>2371.973</ele>
        <time>2022-09-17T10:01:34Z</time>
      </trkpt>
      <trkpt lat="42.64874" lon="1.68159">
        <ele>2372.102</ele>
        <time>2022-09-17T10:01:36Z</time>
      </trkpt>
      <trkpt lat="42.64873" lon="1.68158">
        <ele>2372.444</ele>
        <time>2022-09-17T10:01:38Z</time>
      </trkpt>
      <trkpt lat="42.64872" lon="1.68157">
        <ele>2373.672</ele>
        <time>2022-09-17T10:01:40Z</time>
      </trkpt>
      <trkpt lat="42.64872" lon="1.68157">
        <ele>2373.273</ele>
        <time>2022-09-17T10:01:42Z</time>
      </trkpt>
      <trkpt lat="42.64872" lon="1.68157">
        <ele>2373.231</ele>
        <time>2022-09-17T10:01:44Z</time>
      </trkpt>
      <trkpt lat="42.64872" lon="1.68157">
        <ele>2373.505</ele>
        <time>2022-09-17T10:01:46Z</time>
      </trkpt>
      <trkpt lat="42.64871" lon="1.68157">
        <ele>2373.394</ele>
        <time>2022-09-17T10:01:48Z</time>
      </trkpt>
      <trkpt lat="42.64871" lon="1.68155">
        <ele>2372.748</ele>
        <time>2022-09-17T10:01:50Z</time>
      </trkpt>
      <trkpt lat="42.64871" lon="1.68155">
        <ele>2373.064</ele>
        <time>2022-09-17T10:01:52Z</time>
      </trkpt>
      <trkpt lat="42.64871" lon="1.68154">
        <ele>2372.923</ele>
        <time>2022-09-17T10:01:54Z</time>
      </trkpt>
      <trkpt lat="42.6487" lon="1.68153">
        <ele>2372.958</ele>
        <time>2022-09-17T10:01:56Z</time>
      </trkpt>
      <trkpt lat="42.6487" lon="1.68152">
        <ele>2372.84</ele>
        <time>2022-09-17T10:01:58Z</time>
      </trkpt>
      <trkpt lat="42.6487" lon="1.68152">
        <ele>2372.41</ele>
        <time>2022-09-17T10:02:00Z</time>
      </trkpt>
      <trkpt lat="42.6487" lon="1.68152">
        <ele>2372.395</ele>
        <time>2022-09-17T10:02:02Z</time>
      </trkpt>
      <trkpt lat="42.6487" lon="1.68152">
        <ele>2372.4</ele>
        <time>2022-09-17T10:02:04Z</time>
      </trkpt>
      <trkpt lat="42.6487" lon="1.68151">
        <ele>2372.406</ele>
        <time>2022-09-17T10:02:06Z</time>
      </trkpt>
      <trkpt lat="42.6487" lon="1.68151">
        <ele>2372.341</ele>
        <time>2022-09-17T10:02:08Z</time>
      </trkpt>
      <trkpt lat="42.6487" lon="1.6815">
        <ele>2372.714</ele>
        <time>2022-09-17T10:02:10Z</time>
      </trkpt>
      <trkpt lat="42.64869" lon="1.6815">
        <ele>2372.877</ele>
        <time>2022-09-17T10:02:12Z</time>
      </trkpt>
      <trkpt lat="42.6487" lon="1.68149">
        <ele>2373.978</ele>
        <time>2022-09-17T10:02:14Z</time>
      </trkpt>
      <trkpt lat="42.64869" lon="1.68147">
        <ele>2374.919</ele>
        <time>2022-09-17T10:02:16Z</time>
      </trkpt>
      <trkpt lat="42.64868" lon="1.68147">
        <ele>2375.439</ele>
        <time>2022-09-17T10:02:18Z</time>
      </trkpt>
      <trkpt lat="42.64868" lon="1.68147">
        <ele>2375.428</ele>
        <time>2022-09-17T10:02:20Z</time>
      </trkpt>
      <trkpt lat="42.64868" lon="1.68147">
        <ele>2375.426</ele>
        <time>2022-09-17T10:02:22Z</time>
      </trkpt>
      <trkpt lat="42.64868" lon="1.68147">
        <ele>2375.422</ele>
        <time>2022-09-17T10:02:24Z</time>
      </trkpt>
      <trkpt lat="42.64868" lon="1.68147">
        <ele>2375.83</ele>
        <time>2022-09-17T10:02:26Z</time>
      </trkpt>
      <trkpt lat="42.64868" lon="1.68148">
        <ele>2375.766</ele>
        <time>2022-09-17T10:02:28Z</time>
      </trkpt>
      <trkpt lat="42.64868" lon="1.68148">
        <ele>2375.767</ele>
        <time>2022-09-17T10:02:30Z</time>
      </trkpt>
      <trkpt lat="42.64868" lon="1.68148">
        <ele>2375.768</ele>
        <time>2022-09-17T10:02:32Z</time>
      </trkpt>
      <trkpt lat="42.64868" lon="1.68148">
        <ele>2375.771</ele>
        <time>2022-09-17T10:02:34Z</time>
      </trkpt>
      <trkpt lat="42.64867" lon="1.68148">
        <ele>2376.333</ele>
        <time>2022-09-17T10:02:36Z</time>
      </trkpt>
      <trkpt lat="42.64866" lon="1.68148">
        <ele>2377.094</ele>
        <time>2022-09-17T10:02:38Z</time>
      </trkpt>
      <trkpt lat="42.64866" lon="1.68149">
        <ele>2377.806</ele>
        <time>2022-09-17T10:02:40Z</time>
      </trkpt>
      <trkpt lat="42.64865" lon="1.68149">
        <ele>2378.027</ele>
        <time>2022-09-17T10:02:42Z</time>
      </trkpt>
      <trkpt lat="42.64864" lon="1.68149">
        <ele>2378.167</ele>
        <time>2022-09-17T10:02:44Z</time>
      </trkpt>
      <trkpt lat="42.64864" lon="1.68149">
        <ele>2379.142</ele>
        <time>2022-09-17T10:02:46Z</time>
      </trkpt>
      <trkpt lat="42.64863" lon="1.6815">
        <ele>2379.61</ele>
        <time>2022-09-17T10:02:49Z</time>
      </trkpt>
      <trkpt lat="42.64863" lon="1.68149">
        <ele>2379.239</ele>
        <time>2022-09-17T10:02:51Z</time>
      </trkpt>
      <trkpt lat="42.64863" lon="1.68149">
        <ele>2379.465</ele>
        <time>2022-09-17T10:02:53Z</time>
      </trkpt>
      <trkpt lat="42.64863" lon="1.68148">
        <ele>2378.721</ele>
        <time>2022-09-17T10:02:55Z</time>
      </trkpt>
      <trkpt lat="42.64863" lon="1.68148">
        <ele>2378.195</ele>
        <time>2022-09-17T10:02:57Z</time>
      </trkpt>
      <trkpt lat="42.64863" lon="1.68147">
        <ele>2378.058</ele>
        <time>2022-09-17T10:02:59Z</time>
      </trkpt>
      <trkpt lat="42.64863" lon="1.68147">
        <ele>2378.862</ele>
        <time>2022-09-17T10:03:01Z</time>
      </trkpt>
      <trkpt lat="42.64863" lon="1.68147">
        <ele>2378.859</ele>
        <time>2022-09-17T10:03:03Z</time>
      </trkpt>
      <trkpt lat="42.64863" lon="1.68145">
        <ele>2378.687</ele>
        <time>2022-09-17T10:03:05Z</time>
      </trkpt>
      <trkpt lat="42.64863" lon="1.68144">
        <ele>2378.672</ele>
        <time>2022-09-17T10:03:07Z</time>
      </trkpt>
      <trkpt lat="42.64862" lon="1.68143">
        <ele>2378.85</ele>
        <time>2022-09-17T10:03:09Z</time>
      </trkpt>
      <trkpt lat="42.64862" lon="1.68142">
        <ele>2379.064</ele>
        <time>2022-09-17T10:03:11Z</time>
      </trkpt>
      <trkpt lat="42.64861" lon="1.68142">
        <ele>2378.807</ele>
        <time>2022-09-17T10:03:13Z</time>
      </trkpt>
      <trkpt lat="42.64861" lon="1.68142">
        <ele>2378.817</ele>
        <time>2022-09-17T10:03:15Z</time>
      </trkpt>
      <trkpt lat="42.64861" lon="1.68143">
        <ele>2379.094</ele>
        <time>2022-09-17T10:03:17Z</time>
      </trkpt>
      <trkpt lat="42.6486" lon="1.68143">
        <ele>2379.26</ele>
        <time>2022-09-17T10:03:19Z</time>
      </trkpt>
      <trkpt lat="42.6486" lon="1.68143">
        <ele>2379.26</ele>
        <time>2022-09-17T10:03:21Z</time>
      </trkpt>
      <trkpt lat="42.6486" lon="1.68142">
        <ele>2379.773</ele>
        <time>2022-09-17T10:03:23Z</time>
      </trkpt>
      <trkpt lat="42.6486" lon="1.68142">
        <ele>2379.648</ele>
        <time>2022-09-17T10:03:25Z</time>
      </trkpt>
      <trkpt lat="42.64859" lon="1.68142">
        <ele>2380.327</ele>
        <time>2022-09-17T10:03:27Z</time>
      </trkpt>
      <trkpt lat="42.64859" lon="1.68141">
        <ele>2380.646</ele>
        <time>2022-09-17T10:03:29Z</time>
      </trkpt>
      <trkpt lat="42.64859" lon="1.68141">
        <ele>2381.234</ele>
        <time>2022-09-17T10:03:31Z</time>
      </trkpt>
      <trkpt lat="42.64858" lon="1.68142">
        <ele>2381.219</ele>
        <time>2022-09-17T10:03:33Z</time>
      </trkpt>
      <trkpt lat="42.64858" lon="1.68142">
        <ele>2381.232</ele>
        <time>2022-09-17T10:03:35Z</time>
      </trkpt>
      <trkpt lat="42.64858" lon="1.68142">
        <ele>2382.061</ele>
        <time>2022-09-17T10:03:37Z</time>
      </trkpt>
      <trkpt lat="42.64857" lon="1.68141">
        <ele>2382.079</ele>
        <time>2022-09-17T10:03:39Z</time>
      </trkpt>
      <trkpt lat="42.64857" lon="1.6814">
        <ele>2381.958</ele>
        <time>2022-09-17T10:03:41Z</time>
      </trkpt>
      <trkpt lat="42.64856" lon="1.68138">
        <ele>2381.661</ele>
        <time>2022-09-17T10:03:43Z</time>
      </trkpt>
      <trkpt lat="42.64856" lon="1.68138">
        <ele>2381.588</ele>
        <time>2022-09-17T10:03:45Z</time>
      </trkpt>
      <trkpt lat="42.64855" lon="1.68137">
        <ele>2383.109</ele>
        <time>2022-09-17T10:03:47Z</time>
      </trkpt>
      <trkpt lat="42.64855" lon="1.68136">
        <ele>2383.278</ele>
        <time>2022-09-17T10:03:49Z</time>
      </trkpt>
      <trkpt lat="42.64855" lon="1.68136">
        <ele>2383.296</ele>
        <time>2022-09-17T10:03:51Z</time>
      </trkpt>
      <trkpt lat="42.64855" lon="1.68136">
        <ele>2383.298</ele>
        <time>2022-09-17T10:03:53Z</time>
      </trkpt>
      <trkpt lat="42.64855" lon="1.68136">
        <ele>2383.293</ele>
        <time>2022-09-17T10:03:55Z</time>
      </trkpt>
      <trkpt lat="42.64854" lon="1.68136">
        <ele>2383.791</ele>
        <time>2022-09-17T10:03:57Z</time>
      </trkpt>
      <trkpt lat="42.64853" lon="1.68136">
        <ele>2383.755</ele>
        <time>2022-09-17T10:03:59Z</time>
      </trkpt>
      <trkpt lat="42.64853" lon="1.68134">
        <ele>2383.544</ele>
        <time>2022-09-17T10:04:01Z</time>
      </trkpt>
      <trkpt lat="42.64851" lon="1.68133">
        <ele>2383.371</ele>
        <time>2022-09-17T10:04:03Z</time>
      </trkpt>
      <trkpt lat="42.64851" lon="1.68133">
        <ele>2382.887</ele>
        <time>2022-09-17T10:04:05Z</time>
      </trkpt>
      <trkpt lat="42.6485" lon="1.68133">
        <ele>2384.182</ele>
        <time>2022-09-17T10:04:07Z</time>
      </trkpt>
      <trkpt lat="42.6485" lon="1.68132">
        <ele>2383.494</ele>
        <time>2022-09-17T10:04:09Z</time>
      </trkpt>
      <trkpt lat="42.64849" lon="1.68131">
        <ele>2383.588</ele>
        <time>2022-09-17T10:04:11Z</time>
      </trkpt>
      <trkpt lat="42.64849" lon="1.6813">
        <ele>2383.082</ele>
        <time>2022-09-17T10:04:13Z</time>
      </trkpt>
      <trkpt lat="42.64849" lon="1.6813">
        <ele>2383.031</ele>
        <time>2022-09-17T10:04:15Z</time>
      </trkpt>
      <trkpt lat="42.64849" lon="1.6813">
        <ele>2383.03</ele>
        <time>2022-09-17T10:04:17Z</time>
      </trkpt>
      <trkpt lat="42.64849" lon="1.6813">
        <ele>2383.031</ele>
        <time>2022-09-17T10:04:19Z</time>
      </trkpt>
      <trkpt lat="42.64849" lon="1.6813">
        <ele>2383.032</ele>
        <time>2022-09-17T10:04:21Z</time>
      </trkpt>
      <trkpt lat="42.64849" lon="1.6813">
        <ele>2383.032</ele>
        <time>2022-09-17T10:04:23Z</time>
      </trkpt>
      <trkpt lat="42.64849" lon="1.6813">
        <ele>2383.035</ele>
        <time>2022-09-17T10:04:25Z</time>
      </trkpt>
      <trkpt lat="42.64848" lon="1.68129">
        <ele>2383.639</ele>
        <time>2022-09-17T10:04:27Z</time>
      </trkpt>
      <trkpt lat="42.64848" lon="1.68129">
        <ele>2384.264</ele>
        <time>2022-09-17T10:04:29Z</time>
      </trkpt>
      <trkpt lat="42.64848" lon="1.68128">
        <ele>2384.459</ele>
        <time>2022-09-17T10:04:31Z</time>
      </trkpt>
      <trkpt lat="42.64847" lon="1.68128">
        <ele>2385.982</ele>
        <time>2022-09-17T10:04:33Z</time>
      </trkpt>
      <trkpt lat="42.64847" lon="1.68128">
        <ele>2386.657</ele>
        <time>2022-09-17T10:04:34Z</time>
      </trkpt>
      <trkpt lat="42.64846" lon="1.68129">
        <ele>2388.202</ele>
        <time>2022-09-17T10:04:37Z</time>
      </trkpt>
      <trkpt lat="42.64845" lon="1.6813">
        <ele>2389.163</ele>
        <time>2022-09-17T10:04:39Z</time>
      </trkpt>
      <trkpt lat="42.64845" lon="1.6813">
        <ele>2389.608</ele>
        <time>2022-09-17T10:04:41Z</time>
      </trkpt>
      <trkpt lat="42.64845" lon="1.6813">
        <ele>2390.007</ele>
        <time>2022-09-17T10:04:43Z</time>
      </trkpt>
      <trkpt lat="42.64845" lon="1.68129">
        <ele>2390.643</ele>
        <time>2022-09-17T10:04:45Z</time>
      </trkpt>
      <trkpt lat="42.64845" lon="1.6813">
        <ele>2390.758</ele>
        <time>2022-09-17T10:04:47Z</time>
      </trkpt>
      <trkpt lat="42.64844" lon="1.68129">
        <ele>2390.891</ele>
        <time>2022-09-17T10:04:49Z</time>
      </trkpt>
      <trkpt lat="42.64844" lon="1.68129">
        <ele>2391.605</ele>
        <time>2022-09-17T10:04:51Z</time>
      </trkpt>
      <trkpt lat="42.64844" lon="1.68128">
        <ele>2391.943</ele>
        <time>2022-09-17T10:04:53Z</time>
      </trkpt>
      <trkpt lat="42.64844" lon="1.68127">
        <ele>2392.505</ele>
        <time>2022-09-17T10:04:55Z</time>
      </trkpt>
      <trkpt lat="42.64843" lon="1.68126">
        <ele>2393.512</ele>
        <time>2022-09-17T10:04:57Z</time>
      </trkpt>
      <trkpt lat="42.64842" lon="1.68125">
        <ele>2393.197</ele>
        <time>2022-09-17T10:04:59Z</time>
      </trkpt>
      <trkpt lat="42.64842" lon="1.68125">
        <ele>2393.679</ele>
        <time>2022-09-17T10:05:01Z</time>
      </trkpt>
      <trkpt lat="42.64841" lon="1.68124">
        <ele>2393.745</ele>
        <time>2022-09-17T10:05:03Z</time>
      </trkpt>
      <trkpt lat="42.64841" lon="1.68123">
        <ele>2394.27</ele>
        <time>2022-09-17T10:05:05Z</time>
      </trkpt>
      <trkpt lat="42.6484" lon="1.68122">
        <ele>2395.039</ele>
        <time>2022-09-17T10:05:07Z</time>
      </trkpt>
      <trkpt lat="42.6484" lon="1.68122">
        <ele>2394.512</ele>
        <time>2022-09-17T10:05:09Z</time>
      </trkpt>
      <trkpt lat="42.6484" lon="1.6812">
        <ele>2394.879</ele>
        <time>2022-09-17T10:05:11Z</time>
      </trkpt>
      <trkpt lat="42.6484" lon="1.6812">
        <ele>2394.258</ele>
        <time>2022-09-17T10:05:13Z</time>
      </trkpt>
      <trkpt lat="42.6484" lon="1.68119">
        <ele>2395.731</ele>
        <time>2022-09-17T10:05:15Z</time>
      </trkpt>
      <trkpt lat="42.6484" lon="1.68117">
        <ele>2397.113</ele>
        <time>2022-09-17T10:05:17Z</time>
      </trkpt>
      <trkpt lat="42.6484" lon="1.68116">
        <ele>2397.799</ele>
        <time>2022-09-17T10:05:19Z</time>
      </trkpt>
      <trkpt lat="42.6484" lon="1.68116">
        <ele>2398.56</ele>
        <time>2022-09-17T10:05:21Z</time>
      </trkpt>
      <trkpt lat="42.64839" lon="1.68116">
        <ele>2399.156</ele>
        <time>2022-09-17T10:05:23Z</time>
      </trkpt>
      <trkpt lat="42.64838" lon="1.68117">
        <ele>2399.488</ele>
        <time>2022-09-17T10:05:25Z</time>
      </trkpt>
      <trkpt lat="42.64837" lon="1.68117">
        <ele>2399.589</ele>
        <time>2022-09-17T10:05:27Z</time>
      </trkpt>
      <trkpt lat="42.64836" lon="1.68116">
        <ele>2399.991</ele>
        <time>2022-09-17T10:05:29Z</time>
      </trkpt>
      <trkpt lat="42.64836" lon="1.68116">
        <ele>2400.001</ele>
        <time>2022-09-17T10:05:31Z</time>
      </trkpt>
      <trkpt lat="42.64836" lon="1.68115">
        <ele>2399.654</ele>
        <time>2022-09-17T10:05:33Z</time>
      </trkpt>
      <trkpt lat="42.64835" lon="1.68115">
        <ele>2399.948</ele>
        <time>2022-09-17T10:05:35Z</time>
      </trkpt>
      <trkpt lat="42.64835" lon="1.68114">
        <ele>2399.845</ele>
        <time>2022-09-17T10:05:37Z</time>
      </trkpt>
      <trkpt lat="42.64835" lon="1.68113">
        <ele>2400.684</ele>
        <time>2022-09-17T10:05:39Z</time>
      </trkpt>
      <trkpt lat="42.64835" lon="1.68111">
        <ele>2401.141</ele>
        <time>2022-09-17T10:05:41Z</time>
      </trkpt>
      <trkpt lat="42.64835" lon="1.6811">
        <ele>2401.55</ele>
        <time>2022-09-17T10:05:43Z</time>
      </trkpt>
      <trkpt lat="42.64834" lon="1.68109">
        <ele>2401.307</ele>
        <time>2022-09-17T10:05:45Z</time>
      </trkpt>
      <trkpt lat="42.64834" lon="1.68108">
        <ele>2402.078</ele>
        <time>2022-09-17T10:05:47Z</time>
      </trkpt>
      <trkpt lat="42.64835" lon="1.68107">
        <ele>2402.745</ele>
        <time>2022-09-17T10:05:49Z</time>
      </trkpt>
      <trkpt lat="42.64835" lon="1.68106">
        <ele>2403.289</ele>
        <time>2022-09-17T10:05:51Z</time>
      </trkpt>
      <trkpt lat="42.64835" lon="1.68105">
        <ele>2404.047</ele>
        <time>2022-09-17T10:05:53Z</time>
      </trkpt>
      <trkpt lat="42.64835" lon="1.68103">
        <ele>2404.581</ele>
        <time>2022-09-17T10:05:55Z</time>
      </trkpt>
      <trkpt lat="42.64835" lon="1.68102">
        <ele>2405.197</ele>
        <time>2022-09-17T10:05:57Z</time>
      </trkpt>
      <trkpt lat="42.64834" lon="1.68102">
        <ele>2406.004</ele>
        <time>2022-09-17T10:05:59Z</time>
      </trkpt>
      <trkpt lat="42.64834" lon="1.68101">
        <ele>2406.254</ele>
        <time>2022-09-17T10:06:01Z</time>
      </trkpt>
      <trkpt lat="42.64834" lon="1.68101">
        <ele>2406.687</ele>
        <time>2022-09-17T10:06:03Z</time>
      </trkpt>
      <trkpt lat="42.64834" lon="1.68099">
        <ele>2407.089</ele>
        <time>2022-09-17T10:06:05Z</time>
      </trkpt>
      <trkpt lat="42.64834" lon="1.68098">
        <ele>2407.222</ele>
        <time>2022-09-17T10:06:07Z</time>
      </trkpt>
      <trkpt lat="42.64834" lon="1.68097">
        <ele>2407.214</ele>
        <time>2022-09-17T10:06:09Z</time>
      </trkpt>
      <trkpt lat="42.64833" lon="1.68096">
        <ele>2407.829</ele>
        <time>2022-09-17T10:06:11Z</time>
      </trkpt>
      <trkpt lat="42.64833" lon="1.68095">
        <ele>2407.924</ele>
        <time>2022-09-17T10:06:13Z</time>
      </trkpt>
      <trkpt lat="42.64832" lon="1.68094">
        <ele>2407.004</ele>
        <time>2022-09-17T10:06:15Z</time>
      </trkpt>
      <trkpt lat="42.64832" lon="1.68093">
        <ele>2407.123</ele>
        <time>2022-09-17T10:06:17Z</time>
      </trkpt>
      <trkpt lat="42.64833" lon="1.68093">
        <ele>2407.13</ele>
        <time>2022-09-17T10:06:19Z</time>
      </trkpt>
      <trkpt lat="42.64833" lon="1.68093">
        <ele>2407.104</ele>
        <time>2022-09-17T10:06:21Z</time>
      </trkpt>
      <trkpt lat="42.64833" lon="1.68093">
        <ele>2407.07</ele>
        <time>2022-09-17T10:06:23Z</time>
      </trkpt>
      <trkpt lat="42.64833" lon="1.68093">
        <ele>2407.059</ele>
        <time>2022-09-17T10:06:25Z</time>
      </trkpt>
      <trkpt lat="42.64833" lon="1.68093">
        <ele>2407.058</ele>
        <time>2022-09-17T10:06:27Z</time>
      </trkpt>
      <trkpt lat="42.64833" lon="1.68093">
        <ele>2407.059</ele>
        <time>2022-09-17T10:06:29Z</time>
      </trkpt>
      <trkpt lat="42.64833" lon="1.68093">
        <ele>2407.062</ele>
        <time>2022-09-17T10:06:31Z</time>
      </trkpt>
      <trkpt lat="42.64832" lon="1.68093">
        <ele>2407.064</ele>
        <time>2022-09-17T10:06:33Z</time>
      </trkpt>
      <trkpt lat="42.64832" lon="1.68093">
        <ele>2407.065</ele>
        <time>2022-09-17T10:06:35Z</time>
      </trkpt>
      <trkpt lat="42.64832" lon="1.68093">
        <ele>2407.062</ele>
        <time>2022-09-17T10:06:37Z</time>
      </trkpt>
      <trkpt lat="42.64832" lon="1.68093">
        <ele>2407.064</ele>
        <time>2022-09-17T10:06:39Z</time>
      </trkpt>
      <trkpt lat="42.64832" lon="1.68093">
        <ele>2407.064</ele>
        <time>2022-09-17T10:06:41Z</time>
      </trkpt>
      <trkpt lat="42.64832" lon="1.68093">
        <ele>2407.05</ele>
        <time>2022-09-17T10:06:43Z</time>
      </trkpt>
      <trkpt lat="42.64833" lon="1.68093">
        <ele>2407.046</ele>
        <time>2022-09-17T10:06:45Z</time>
      </trkpt>
      <trkpt lat="42.64832" lon="1.68093">
        <ele>2407.04</ele>
        <time>2022-09-17T10:06:47Z</time>
      </trkpt>
      <trkpt lat="42.64832" lon="1.68093">
        <ele>2407.019</ele>
        <time>2022-09-17T10:06:49Z</time>
      </trkpt>
      <trkpt lat="42.64832" lon="1.68093">
        <ele>2407.014</ele>
        <time>2022-09-17T10:06:51Z</time>
      </trkpt>
      <trkpt lat="42.64832" lon="1.68093">
        <ele>2407.028</ele>
        <time>2022-09-17T10:06:53Z</time>
      </trkpt>
      <trkpt lat="42.64832" lon="1.68093">
        <ele>2407.028</ele>
        <time>2022-09-17T10:06:55Z</time>
      </trkpt>
      <trkpt lat="42.64832" lon="1.68093">
        <ele>2407.016</ele>
        <time>2022-09-17T10:06:57Z</time>
      </trkpt>
      <trkpt lat="42.64832" lon="1.68093">
        <ele>2407.01</ele>
        <time>2022-09-17T10:06:59Z</time>
      </trkpt>
      <trkpt lat="42.64832" lon="1.68093">
        <ele>2407.01</ele>
        <time>2022-09-17T10:07:01Z</time>
      </trkpt>
      <trkpt lat="42.64832" lon="1.68093">
        <ele>2407.004</ele>
        <time>2022-09-17T10:07:03Z</time>
      </trkpt>
      <trkpt lat="42.64832" lon="1.68093">
        <ele>2406.994</ele>
        <time>2022-09-17T10:07:05Z</time>
      </trkpt>
      <trkpt lat="42.64832" lon="1.68093">
        <ele>2406.984</ele>
        <time>2022-09-17T10:07:07Z</time>
      </trkpt>
      <trkpt lat="42.64832" lon="1.68093">
        <ele>2406.961</ele>
        <time>2022-09-17T10:07:09Z</time>
      </trkpt>
      <trkpt lat="42.64832" lon="1.68093">
        <ele>2406.949</ele>
        <time>2022-09-17T10:07:11Z</time>
      </trkpt>
      <trkpt lat="42.64832" lon="1.68093">
        <ele>2406.944</ele>
        <time>2022-09-17T10:07:13Z</time>
      </trkpt>
      <trkpt lat="42.64833" lon="1.68093">
        <ele>2407.671</ele>
        <time>2022-09-17T10:07:15Z</time>
      </trkpt>
      <trkpt lat="42.64832" lon="1.68092">
        <ele>2407.891</ele>
        <time>2022-09-17T10:07:17Z</time>
      </trkpt>
      <trkpt lat="42.64832" lon="1.68091">
        <ele>2408.378</ele>
        <time>2022-09-17T10:07:19Z</time>
      </trkpt>
      <trkpt lat="42.64832" lon="1.6809">
        <ele>2409.195</ele>
        <time>2022-09-17T10:07:21Z</time>
      </trkpt>
      <trkpt lat="42.64832" lon="1.68089">
        <ele>2410.163</ele>
        <time>2022-09-17T10:07:23Z</time>
      </trkpt>
      <trkpt lat="42.64831" lon="1.68087">
        <ele>2410.872</ele>
        <time>2022-09-17T10:07:25Z</time>
      </trkpt>
      <trkpt lat="42.64831" lon="1.68086">
        <ele>2411.651</ele>
        <time>2022-09-17T10:07:27Z</time>
      </trkpt>
      <trkpt lat="42.64832" lon="1.68085">
        <ele>2412.824</ele>
        <time>2022-09-17T10:07:29Z</time>
      </trkpt>
      <trkpt lat="42.64832" lon="1.68084">
        <ele>2413.36</ele>
        <time>2022-09-17T10:07:31Z</time>
      </trkpt>
      <trkpt lat="42.64831" lon="1.68082">
        <ele>2413.763</ele>
        <time>2022-09-17T10:07:33Z</time>
      </trkpt>
      <trkpt lat="42.64831" lon="1.68082">
        <ele>2415.072</ele>
        <time>2022-09-17T10:07:35Z</time>
      </trkpt>
      <trkpt lat="42.64831" lon="1.6808">
        <ele>2414.923</ele>
        <time>2022-09-17T10:07:37Z</time>
      </trkpt>
      <trkpt lat="42.6483" lon="1.6808">
        <ele>2416.409</ele>
        <time>2022-09-17T10:07:39Z</time>
      </trkpt>
      <trkpt lat="42.6483" lon="1.68079">
        <ele>2416.326</ele>
        <time>2022-09-17T10:07:41Z</time>
      </trkpt>
      <trkpt lat="42.6483" lon="1.68078">
        <ele>2416.778</ele>
        <time>2022-09-17T10:07:43Z</time>
      </trkpt>
      <trkpt lat="42.6483" lon="1.68077">
        <ele>2417.366</ele>
        <time>2022-09-17T10:07:45Z</time>
      </trkpt>
      <trkpt lat="42.6483" lon="1.68076">
        <ele>2417.611</ele>
        <time>2022-09-17T10:07:47Z</time>
      </trkpt>
      <trkpt lat="42.64831" lon="1.68075">
        <ele>2418.047</ele>
        <time>2022-09-17T10:07:49Z</time>
      </trkpt>
      <trkpt lat="42.64831" lon="1.68074">
        <ele>2418.086</ele>
        <time>2022-09-17T10:07:51Z</time>
      </trkpt>
      <trkpt lat="42.6483" lon="1.68074">
        <ele>2418.927</ele>
        <time>2022-09-17T10:07:53Z</time>
      </trkpt>
      <trkpt lat="42.6483" lon="1.68073">
        <ele>2419.88</ele>
        <time>2022-09-17T10:07:55Z</time>
      </trkpt>
      <trkpt lat="42.64829" lon="1.68072">
        <ele>2420.115</ele>
        <time>2022-09-17T10:07:57Z</time>
      </trkpt>
      <trkpt lat="42.64829" lon="1.68072">
        <ele>2420.247</ele>
        <time>2022-09-17T10:07:59Z</time>
      </trkpt>
      <trkpt lat="42.64829" lon="1.68073">
        <ele>2420.332</ele>
        <time>2022-09-17T10:08:01Z</time>
      </trkpt>
      <trkpt lat="42.64829" lon="1.68073">
        <ele>2420.33</ele>
        <time>2022-09-17T10:08:03Z</time>
      </trkpt>
      <trkpt lat="42.64829" lon="1.68073">
        <ele>2420.334</ele>
        <time>2022-09-17T10:08:05Z</time>
      </trkpt>
      <trkpt lat="42.64829" lon="1.68073">
        <ele>2420.335</ele>
        <time>2022-09-17T10:08:07Z</time>
      </trkpt>
      <trkpt lat="42.64829" lon="1.68073">
        <ele>2419.623</ele>
        <time>2022-09-17T10:08:09Z</time>
      </trkpt>
      <trkpt lat="42.64829" lon="1.68072">
        <ele>2420.435</ele>
        <time>2022-09-17T10:08:11Z</time>
      </trkpt>
      <trkpt lat="42.64828" lon="1.68072">
        <ele>2420.311</ele>
        <time>2022-09-17T10:08:13Z</time>
      </trkpt>
      <trkpt lat="42.64828" lon="1.68071">
        <ele>2420.338</ele>
        <time>2022-09-17T10:08:15Z</time>
      </trkpt>
      <trkpt lat="42.64827" lon="1.6807">
        <ele>2420.387</ele>
        <time>2022-09-17T10:08:18Z</time>
      </trkpt>
      <trkpt lat="42.64827" lon="1.68069">
        <ele>2420.358</ele>
        <time>2022-09-17T10:08:20Z</time>
      </trkpt>
      <trkpt lat="42.64826" lon="1.68068">
        <ele>2420.202</ele>
        <time>2022-09-17T10:08:22Z</time>
      </trkpt>
      <trkpt lat="42.64825" lon="1.68067">
        <ele>2420.577</ele>
        <time>2022-09-17T10:08:24Z</time>
      </trkpt>
      <trkpt lat="42.64825" lon="1.68067">
        <ele>2420.538</ele>
        <time>2022-09-17T10:08:26Z</time>
      </trkpt>
      <trkpt lat="42.64825" lon="1.68067">
        <ele>2420.975</ele>
        <time>2022-09-17T10:08:28Z</time>
      </trkpt>
      <trkpt lat="42.64824" lon="1.68066">
        <ele>2421.793</ele>
        <time>2022-09-17T10:08:30Z</time>
      </trkpt>
      <trkpt lat="42.64823" lon="1.68066">
        <ele>2422.475</ele>
        <time>2022-09-17T10:08:32Z</time>
      </trkpt>
      <trkpt lat="42.64823" lon="1.68067">
        <ele>2422.932</ele>
        <time>2022-09-17T10:08:34Z</time>
      </trkpt>
      <trkpt lat="42.64823" lon="1.68066">
        <ele>2423.098</ele>
        <time>2022-09-17T10:08:36Z</time>
      </trkpt>
      <trkpt lat="42.64823" lon="1.68066">
        <ele>2423.668</ele>
        <time>2022-09-17T10:08:38Z</time>
      </trkpt>
      <trkpt lat="42.64823" lon="1.68065">
        <ele>2424.38</ele>
        <time>2022-09-17T10:08:40Z</time>
      </trkpt>
      <trkpt lat="42.64823" lon="1.68065">
        <ele>2424.457</ele>
        <time>2022-09-17T10:08:42Z</time>
      </trkpt>
      <trkpt lat="42.64823" lon="1.68065">
        <ele>2424.425</ele>
        <time>2022-09-17T10:08:44Z</time>
      </trkpt>
      <trkpt lat="42.64823" lon="1.68064">
        <ele>2424.424</ele>
        <time>2022-09-17T10:08:46Z</time>
      </trkpt>
      <trkpt lat="42.64823" lon="1.68064">
        <ele>2424.428</ele>
        <time>2022-09-17T10:08:48Z</time>
      </trkpt>
      <trkpt lat="42.64823" lon="1.68064">
        <ele>2423.969</ele>
        <time>2022-09-17T10:08:50Z</time>
      </trkpt>
      <trkpt lat="42.64823" lon="1.68063">
        <ele>2424.703</ele>
        <time>2022-09-17T10:08:52Z</time>
      </trkpt>
      <trkpt lat="42.64823" lon="1.68063">
        <ele>2425.526</ele>
        <time>2022-09-17T10:08:54Z</time>
      </trkpt>
      <trkpt lat="42.64823" lon="1.68062">
        <ele>2425.777</ele>
        <time>2022-09-17T10:08:56Z</time>
      </trkpt>
      <trkpt lat="42.64822" lon="1.68062">
        <ele>2425.799</ele>
        <time>2022-09-17T10:08:58Z</time>
      </trkpt>
      <trkpt lat="42.64822" lon="1.68062">
        <ele>2425.806</ele>
        <time>2022-09-17T10:08:59Z</time>
      </trkpt>
      <trkpt lat="42.64822" lon="1.68062">
        <ele>2425.821</ele>
        <time>2022-09-17T10:09:02Z</time>
      </trkpt>
      <trkpt lat="42.64822" lon="1.68062">
        <ele>2425.589</ele>
        <time>2022-09-17T10:09:04Z</time>
      </trkpt>
      <trkpt lat="42.64822" lon="1.68062">
        <ele>2425.464</ele>
        <time>2022-09-17T10:09:06Z</time>
      </trkpt>
      <trkpt lat="42.64821" lon="1.68061">
        <ele>2425.496</ele>
        <time>2022-09-17T10:09:08Z</time>
      </trkpt>
      <trkpt lat="42.64821" lon="1.68061">
        <ele>2425.883</ele>
        <time>2022-09-17T10:09:10Z</time>
      </trkpt>
      <trkpt lat="42.6482" lon="1.6806">
        <ele>2425.959</ele>
        <time>2022-09-17T10:09:12Z</time>
      </trkpt>
      <trkpt lat="42.6482" lon="1.6806">
        <ele>2426.966</ele>
        <time>2022-09-17T10:09:14Z</time>
      </trkpt>
      <trkpt lat="42.64821" lon="1.68059">
        <ele>2427.873</ele>
        <time>2022-09-17T10:09:16Z</time>
      </trkpt>
      <trkpt lat="42.64821" lon="1.68058">
        <ele>2427.873</ele>
        <time>2022-09-17T10:09:18Z</time>
      </trkpt>
      <trkpt lat="42.6482" lon="1.68058">
        <ele>2428.085</ele>
        <time>2022-09-17T10:09:20Z</time>
      </trkpt>
      <trkpt lat="42.6482" lon="1.68057">
        <ele>2428.006</ele>
        <time>2022-09-17T10:09:22Z</time>
      </trkpt>
      <trkpt lat="42.6482" lon="1.68057">
        <ele>2428.461</ele>
        <time>2022-09-17T10:09:24Z</time>
      </trkpt>
      <trkpt lat="42.6482" lon="1.68055">
        <ele>2428.259</ele>
        <time>2022-09-17T10:09:26Z</time>
      </trkpt>
      <trkpt lat="42.64821" lon="1.68054">
        <ele>2429.093</ele>
        <time>2022-09-17T10:09:28Z</time>
      </trkpt>
      <trkpt lat="42.6482" lon="1.68054">
        <ele>2429.514</ele>
        <time>2022-09-17T10:09:30Z</time>
      </trkpt>
      <trkpt lat="42.6482" lon="1.68054">
        <ele>2429.527</ele>
        <time>2022-09-17T10:09:32Z</time>
      </trkpt>
      <trkpt lat="42.6482" lon="1.68054">
        <ele>2429.529</ele>
        <time>2022-09-17T10:09:34Z</time>
      </trkpt>
      <trkpt lat="42.64819" lon="1.68054">
        <ele>2429.899</ele>
        <time>2022-09-17T10:09:36Z</time>
      </trkpt>
      <trkpt lat="42.64819" lon="1.68053">
        <ele>2430.152</ele>
        <time>2022-09-17T10:09:38Z</time>
      </trkpt>
      <trkpt lat="42.64818" lon="1.68052">
        <ele>2430.424</ele>
        <time>2022-09-17T10:09:40Z</time>
      </trkpt>
      <trkpt lat="42.64817" lon="1.68051">
        <ele>2430.403</ele>
        <time>2022-09-17T10:09:42Z</time>
      </trkpt>
      <trkpt lat="42.64817" lon="1.6805">
        <ele>2430.907</ele>
        <time>2022-09-17T10:09:44Z</time>
      </trkpt>
      <trkpt lat="42.64817" lon="1.68049">
        <ele>2430.742</ele>
        <time>2022-09-17T10:09:46Z</time>
      </trkpt>
      <trkpt lat="42.64817" lon="1.68049">
        <ele>2430.649</ele>
        <time>2022-09-17T10:09:48Z</time>
      </trkpt>
      <trkpt lat="42.64817" lon="1.68049">
        <ele>2430.653</ele>
        <time>2022-09-17T10:09:50Z</time>
      </trkpt>
      <trkpt lat="42.64817" lon="1.6805">
        <ele>2430.986</ele>
        <time>2022-09-17T10:09:52Z</time>
      </trkpt>
      <trkpt lat="42.64817" lon="1.6805">
        <ele>2432.18</ele>
        <time>2022-09-17T10:09:54Z</time>
      </trkpt>
      <trkpt lat="42.64816" lon="1.68049">
        <ele>2432.454</ele>
        <time>2022-09-17T10:09:56Z</time>
      </trkpt>
      <trkpt lat="42.64816" lon="1.68049">
        <ele>2432.565</ele>
        <time>2022-09-17T10:09:58Z</time>
      </trkpt>
      <trkpt lat="42.64816" lon="1.68048">
        <ele>2432.064</ele>
        <time>2022-09-17T10:10:00Z</time>
      </trkpt>
      <trkpt lat="42.64815" lon="1.68048">
        <ele>2432.655</ele>
        <time>2022-09-17T10:10:02Z</time>
      </trkpt>
      <trkpt lat="42.64814" lon="1.68047">
        <ele>2433.036</ele>
        <time>2022-09-17T10:10:04Z</time>
      </trkpt>
      <trkpt lat="42.64814" lon="1.68046">
        <ele>2433.04</ele>
        <time>2022-09-17T10:10:06Z</time>
      </trkpt>
      <trkpt lat="42.64814" lon="1.68045">
        <ele>2433.814</ele>
        <time>2022-09-17T10:10:08Z</time>
      </trkpt>
      <trkpt lat="42.64814" lon="1.68045">
        <ele>2435.406</ele>
        <time>2022-09-17T10:10:10Z</time>
      </trkpt>
      <trkpt lat="42.64813" lon="1.68044">
        <ele>2435.699</ele>
        <time>2022-09-17T10:10:12Z</time>
      </trkpt>
      <trkpt lat="42.64813" lon="1.68043">
        <ele>2436.72</ele>
        <time>2022-09-17T10:10:14Z</time>
      </trkpt>
      <trkpt lat="42.64813" lon="1.68042">
        <ele>2437.396</ele>
        <time>2022-09-17T10:10:16Z</time>
      </trkpt>
      <trkpt lat="42.64813" lon="1.68042">
        <ele>2437.489</ele>
        <time>2022-09-17T10:10:18Z</time>
      </trkpt>
      <trkpt lat="42.64813" lon="1.68042">
        <ele>2437.429</ele>
        <time>2022-09-17T10:10:20Z</time>
      </trkpt>
      <trkpt lat="42.64812" lon="1.68042">
        <ele>2437.737</ele>
        <time>2022-09-17T10:10:22Z</time>
      </trkpt>
      <trkpt lat="42.64811" lon="1.68041">
        <ele>2437.943</ele>
        <time>2022-09-17T10:10:24Z</time>
      </trkpt>
      <trkpt lat="42.6481" lon="1.6804">
        <ele>2437.987</ele>
        <time>2022-09-17T10:10:26Z</time>
      </trkpt>
      <trkpt lat="42.6481" lon="1.68041">
        <ele>2438.288</ele>
        <time>2022-09-17T10:10:28Z</time>
      </trkpt>
      <trkpt lat="42.6481" lon="1.68041">
        <ele>2438.289</ele>
        <time>2022-09-17T10:10:30Z</time>
      </trkpt>
      <trkpt lat="42.6481" lon="1.68041">
        <ele>2438.289</ele>
        <time>2022-09-17T10:10:32Z</time>
      </trkpt>
      <trkpt lat="42.6481" lon="1.68041">
        <ele>2438.293</ele>
        <time>2022-09-17T10:10:34Z</time>
      </trkpt>
      <trkpt lat="42.6481" lon="1.68041">
        <ele>2438.473</ele>
        <time>2022-09-17T10:10:36Z</time>
      </trkpt>
      <trkpt lat="42.64809" lon="1.68041">
        <ele>2438.98</ele>
        <time>2022-09-17T10:10:38Z</time>
      </trkpt>
      <trkpt lat="42.64809" lon="1.6804">
        <ele>2439.076</ele>
        <time>2022-09-17T10:10:40Z</time>
      </trkpt>
      <trkpt lat="42.64809" lon="1.68039">
        <ele>2439.492</ele>
        <time>2022-09-17T10:10:42Z</time>
      </trkpt>
      <trkpt lat="42.64809" lon="1.68039">
        <ele>2439.514</ele>
        <time>2022-09-17T10:10:44Z</time>
      </trkpt>
      <trkpt lat="42.64808" lon="1.68039">
        <ele>2439.532</ele>
        <time>2022-09-17T10:10:46Z</time>
      </trkpt>
      <trkpt lat="42.64808" lon="1.68039">
        <ele>2438.824</ele>
        <time>2022-09-17T10:10:48Z</time>
      </trkpt>
      <trkpt lat="42.64808" lon="1.68038">
        <ele>2439.418</ele>
        <time>2022-09-17T10:10:50Z</time>
      </trkpt>
      <trkpt lat="42.64807" lon="1.68038">
        <ele>2439.074</ele>
        <time>2022-09-17T10:10:52Z</time>
      </trkpt>
      <trkpt lat="42.64807" lon="1.68037">
        <ele>2439.672</ele>
        <time>2022-09-17T10:10:54Z</time>
      </trkpt>
      <trkpt lat="42.64806" lon="1.68036">
        <ele>2439.75</ele>
        <time>2022-09-17T10:10:56Z</time>
      </trkpt>
      <trkpt lat="42.64806" lon="1.68036">
        <ele>2439.758</ele>
        <time>2022-09-17T10:10:58Z</time>
      </trkpt>
      <trkpt lat="42.64806" lon="1.68036">
        <ele>2439.765</ele>
        <time>2022-09-17T10:11:00Z</time>
      </trkpt>
      <trkpt lat="42.64806" lon="1.68036">
        <ele>2440.091</ele>
        <time>2022-09-17T10:11:02Z</time>
      </trkpt>
      <trkpt lat="42.64806" lon="1.68035">
        <ele>2440.339</ele>
        <time>2022-09-17T10:11:04Z</time>
      </trkpt>
      <trkpt lat="42.64805" lon="1.68035">
        <ele>2440.924</ele>
        <time>2022-09-17T10:11:06Z</time>
      </trkpt>
      <trkpt lat="42.64805" lon="1.68034">
        <ele>2442.015</ele>
        <time>2022-09-17T10:11:08Z</time>
      </trkpt>
      <trkpt lat="42.64804" lon="1.68034">
        <ele>2441.813</ele>
        <time>2022-09-17T10:11:10Z</time>
      </trkpt>
      <trkpt lat="42.64803" lon="1.68033">
        <ele>2443.036</ele>
        <time>2022-09-17T10:11:12Z</time>
      </trkpt>
      <trkpt lat="42.64803" lon="1.68033">
        <ele>2443.431</ele>
        <time>2022-09-17T10:11:14Z</time>
      </trkpt>
      <trkpt lat="42.64803" lon="1.68034">
        <ele>2443.431</ele>
        <time>2022-09-17T10:11:16Z</time>
      </trkpt>
      <trkpt lat="42.64802" lon="1.68033">
        <ele>2444.097</ele>
        <time>2022-09-17T10:11:18Z</time>
      </trkpt>
      <trkpt lat="42.64802" lon="1.68032">
        <ele>2444.509</ele>
        <time>2022-09-17T10:11:20Z</time>
      </trkpt>
      <trkpt lat="42.64801" lon="1.68031">
        <ele>2444.454</ele>
        <time>2022-09-17T10:11:22Z</time>
      </trkpt>
      <trkpt lat="42.648" lon="1.68031">
        <ele>2444.847</ele>
        <time>2022-09-17T10:11:24Z</time>
      </trkpt>
      <trkpt lat="42.64799" lon="1.6803">
        <ele>2445.028</ele>
        <time>2022-09-17T10:11:26Z</time>
      </trkpt>
      <trkpt lat="42.64798" lon="1.6803">
        <ele>2445.394</ele>
        <time>2022-09-17T10:11:28Z</time>
      </trkpt>
      <trkpt lat="42.64798" lon="1.68029">
        <ele>2446.513</ele>
        <time>2022-09-17T10:11:30Z</time>
      </trkpt>
      <trkpt lat="42.64797" lon="1.68028">
        <ele>2448.026</ele>
        <time>2022-09-17T10:11:32Z</time>
      </trkpt>
      <trkpt lat="42.64797" lon="1.68028">
        <ele>2448.029</ele>
        <time>2022-09-17T10:11:34Z</time>
      </trkpt>
      <trkpt lat="42.64797" lon="1.68028">
        <ele>2448.026</ele>
        <time>2022-09-17T10:11:36Z</time>
      </trkpt>
      <trkpt lat="42.64797" lon="1.68028">
        <ele>2448.456</ele>
        <time>2022-09-17T10:11:38Z</time>
      </trkpt>
      <trkpt lat="42.64797" lon="1.68029">
        <ele>2448.467</ele>
        <time>2022-09-17T10:11:40Z</time>
      </trkpt>
      <trkpt lat="42.64797" lon="1.68029">
        <ele>2448.47</ele>
        <time>2022-09-17T10:11:42Z</time>
      </trkpt>
      <trkpt lat="42.64797" lon="1.68029">
        <ele>2448.469</ele>
        <time>2022-09-17T10:11:44Z</time>
      </trkpt>
      <trkpt lat="42.64797" lon="1.68029">
        <ele>2448.472</ele>
        <time>2022-09-17T10:11:46Z</time>
      </trkpt>
      <trkpt lat="42.64797" lon="1.68029">
        <ele>2448.474</ele>
        <time>2022-09-17T10:11:48Z</time>
      </trkpt>
      <trkpt lat="42.64797" lon="1.68029">
        <ele>2448.473</ele>
        <time>2022-09-17T10:11:50Z</time>
      </trkpt>
      <trkpt lat="42.64797" lon="1.68029">
        <ele>2448.473</ele>
        <time>2022-09-17T10:11:52Z</time>
      </trkpt>
      <trkpt lat="42.64797" lon="1.68028">
        <ele>2448.617</ele>
        <time>2022-09-17T10:11:54Z</time>
      </trkpt>
      <trkpt lat="42.64797" lon="1.68028">
        <ele>2449.878</ele>
        <time>2022-09-17T10:11:56Z</time>
      </trkpt>
      <trkpt lat="42.64795" lon="1.68027">
        <ele>2449.658</ele>
        <time>2022-09-17T10:11:58Z</time>
      </trkpt>
      <trkpt lat="42.64794" lon="1.68027">
        <ele>2450.052</ele>
        <time>2022-09-17T10:12:00Z</time>
      </trkpt>
      <trkpt lat="42.64793" lon="1.68026">
        <ele>2450.638</ele>
        <time>2022-09-17T10:12:02Z</time>
      </trkpt>
      <trkpt lat="42.64792" lon="1.68025">
        <ele>2451.589</ele>
        <time>2022-09-17T10:12:04Z</time>
      </trkpt>
      <trkpt lat="42.64792" lon="1.68025">
        <ele>2451.417</ele>
        <time>2022-09-17T10:12:06Z</time>
      </trkpt>
      <trkpt lat="42.64792" lon="1.68025">
        <ele>2451.426</ele>
        <time>2022-09-17T10:12:08Z</time>
      </trkpt>
      <trkpt lat="42.64792" lon="1.68025">
        <ele>2451.435</ele>
        <time>2022-09-17T10:12:10Z</time>
      </trkpt>
      <trkpt lat="42.64792" lon="1.68025">
        <ele>2451.445</ele>
        <time>2022-09-17T10:12:12Z</time>
      </trkpt>
      <trkpt lat="42.64792" lon="1.68025">
        <ele>2451.448</ele>
        <time>2022-09-17T10:12:14Z</time>
      </trkpt>
      <trkpt lat="42.64792" lon="1.68025">
        <ele>2451.446</ele>
        <time>2022-09-17T10:12:16Z</time>
      </trkpt>
      <trkpt lat="42.64792" lon="1.68024">
        <ele>2451.437</ele>
        <time>2022-09-17T10:12:18Z</time>
      </trkpt>
      <trkpt lat="42.64791" lon="1.68024">
        <ele>2452.136</ele>
        <time>2022-09-17T10:12:20Z</time>
      </trkpt>
      <trkpt lat="42.6479" lon="1.68025">
        <ele>2452.49</ele>
        <time>2022-09-17T10:12:22Z</time>
      </trkpt>
      <trkpt lat="42.64789" lon="1.68024">
        <ele>2452.778</ele>
        <time>2022-09-17T10:12:24Z</time>
      </trkpt>
      <trkpt lat="42.64788" lon="1.68024">
        <ele>2452.861</ele>
        <time>2022-09-17T10:12:26Z</time>
      </trkpt>
      <trkpt lat="42.64788" lon="1.68024">
        <ele>2453.759</ele>
        <time>2022-09-17T10:12:28Z</time>
      </trkpt>
      <trkpt lat="42.64787" lon="1.68023">
        <ele>2453.948</ele>
        <time>2022-09-17T10:12:30Z</time>
      </trkpt>
      <trkpt lat="42.64787" lon="1.68022">
        <ele>2453.469</ele>
        <time>2022-09-17T10:12:32Z</time>
      </trkpt>
      <trkpt lat="42.64787" lon="1.68021">
        <ele>2454.716</ele>
        <time>2022-09-17T10:12:34Z</time>
      </trkpt>
      <trkpt lat="42.64786" lon="1.68021">
        <ele>2454.629</ele>
        <time>2022-09-17T10:12:36Z</time>
      </trkpt>
      <trkpt lat="42.64785" lon="1.68021">
        <ele>2454.938</ele>
        <time>2022-09-17T10:12:38Z</time>
      </trkpt>
      <trkpt lat="42.64784" lon="1.6802">
        <ele>2454.886</ele>
        <time>2022-09-17T10:12:40Z</time>
      </trkpt>
      <trkpt lat="42.64783" lon="1.68021">
        <ele>2454.97</ele>
        <time>2022-09-17T10:12:42Z</time>
      </trkpt>
      <trkpt lat="42.64783" lon="1.68021">
        <ele>2455.504</ele>
        <time>2022-09-17T10:12:44Z</time>
      </trkpt>
      <trkpt lat="42.64783" lon="1.68021">
        <ele>2455.506</ele>
        <time>2022-09-17T10:12:46Z</time>
      </trkpt>
      <trkpt lat="42.64783" lon="1.68021">
        <ele>2455.502</ele>
        <time>2022-09-17T10:12:48Z</time>
      </trkpt>
      <trkpt lat="42.64783" lon="1.68021">
        <ele>2455.493</ele>
        <time>2022-09-17T10:12:50Z</time>
      </trkpt>
      <trkpt lat="42.64783" lon="1.68021">
        <ele>2455.486</ele>
        <time>2022-09-17T10:12:52Z</time>
      </trkpt>
      <trkpt lat="42.64783" lon="1.68021">
        <ele>2455.481</ele>
        <time>2022-09-17T10:12:54Z</time>
      </trkpt>
      <trkpt lat="42.64783" lon="1.68022">
        <ele>2455.564</ele>
        <time>2022-09-17T10:12:56Z</time>
      </trkpt>
      <trkpt lat="42.64783" lon="1.68022">
        <ele>2456.631</ele>
        <time>2022-09-17T10:12:58Z</time>
      </trkpt>
      <trkpt lat="42.64781" lon="1.68021">
        <ele>2457.019</ele>
        <time>2022-09-17T10:13:00Z</time>
      </trkpt>
      <trkpt lat="42.6478" lon="1.68021">
        <ele>2457.256</ele>
        <time>2022-09-17T10:13:02Z</time>
      </trkpt>
      <trkpt lat="42.6478" lon="1.68021">
        <ele>2457.567</ele>
        <time>2022-09-17T10:13:04Z</time>
      </trkpt>
      <trkpt lat="42.64779" lon="1.68021">
        <ele>2457.84</ele>
        <time>2022-09-17T10:13:06Z</time>
      </trkpt>
      <trkpt lat="42.64779" lon="1.68021">
        <ele>2457.82</ele>
        <time>2022-09-17T10:13:08Z</time>
      </trkpt>
      <trkpt lat="42.64779" lon="1.68021">
        <ele>2457.817</ele>
        <time>2022-09-17T10:13:10Z</time>
      </trkpt>
      <trkpt lat="42.64779" lon="1.68021">
        <ele>2457.821</ele>
        <time>2022-09-17T10:13:12Z</time>
      </trkpt>
      <trkpt lat="42.64779" lon="1.68021">
        <ele>2457.821</ele>
        <time>2022-09-17T10:13:14Z</time>
      </trkpt>
      <trkpt lat="42.64779" lon="1.68021">
        <ele>2458.62</ele>
        <time>2022-09-17T10:13:16Z</time>
      </trkpt>
      <trkpt lat="42.64778" lon="1.6802">
        <ele>2458.727</ele>
        <time>2022-09-17T10:13:18Z</time>
      </trkpt>
      <trkpt lat="42.64778" lon="1.68019">
        <ele>2458.354</ele>
        <time>2022-09-17T10:13:20Z</time>
      </trkpt>
      <trkpt lat="42.64777" lon="1.68019">
        <ele>2457.914</ele>
        <time>2022-09-17T10:13:22Z</time>
      </trkpt>
      <trkpt lat="42.64777" lon="1.68018">
        <ele>2458.006</ele>
        <time>2022-09-17T10:13:24Z</time>
      </trkpt>
      <trkpt lat="42.64777" lon="1.68016">
        <ele>2458.205</ele>
        <time>2022-09-17T10:13:26Z</time>
      </trkpt>
      <trkpt lat="42.64777" lon="1.68015">
        <ele>2458.838</ele>
        <time>2022-09-17T10:13:28Z</time>
      </trkpt>
      <trkpt lat="42.64776" lon="1.68014">
        <ele>2459.654</ele>
        <time>2022-09-17T10:13:30Z</time>
      </trkpt>
      <trkpt lat="42.64776" lon="1.68013">
        <ele>2459.327</ele>
        <time>2022-09-17T10:13:32Z</time>
      </trkpt>
      <trkpt lat="42.64775" lon="1.68012">
        <ele>2459.26</ele>
        <time>2022-09-17T10:13:34Z</time>
      </trkpt>
      <trkpt lat="42.64774" lon="1.6801">
        <ele>2458.799</ele>
        <time>2022-09-17T10:13:36Z</time>
      </trkpt>
      <trkpt lat="42.64773" lon="1.6801">
        <ele>2458.189</ele>
        <time>2022-09-17T10:13:38Z</time>
      </trkpt>
      <trkpt lat="42.64772" lon="1.68009">
        <ele>2458.563</ele>
        <time>2022-09-17T10:13:40Z</time>
      </trkpt>
      <trkpt lat="42.64771" lon="1.6801">
        <ele>2458.628</ele>
        <time>2022-09-17T10:13:42Z</time>
      </trkpt>
      <trkpt lat="42.6477" lon="1.6801">
        <ele>2458.518</ele>
        <time>2022-09-17T10:13:44Z</time>
      </trkpt>
      <trkpt lat="42.64769" lon="1.6801">
        <ele>2459.36</ele>
        <time>2022-09-17T10:13:46Z</time>
      </trkpt>
      <trkpt lat="42.64768" lon="1.6801">
        <ele>2459.62</ele>
        <time>2022-09-17T10:13:48Z</time>
      </trkpt>
      <trkpt lat="42.64767" lon="1.68011">
        <ele>2459.812</ele>
        <time>2022-09-17T10:13:50Z</time>
      </trkpt>
      <trkpt lat="42.64765" lon="1.6801">
        <ele>2460.106</ele>
        <time>2022-09-17T10:13:52Z</time>
      </trkpt>
      <trkpt lat="42.64765" lon="1.6801">
        <ele>2460.634</ele>
        <time>2022-09-17T10:13:54Z</time>
      </trkpt>
      <trkpt lat="42.64763" lon="1.68009">
        <ele>2460.298</ele>
        <time>2022-09-17T10:13:56Z</time>
      </trkpt>
      <trkpt lat="42.64763" lon="1.68008">
        <ele>2461.1</ele>
        <time>2022-09-17T10:13:58Z</time>
      </trkpt>
      <trkpt lat="42.64763" lon="1.68008">
        <ele>2461.104</ele>
        <time>2022-09-17T10:14:00Z</time>
      </trkpt>
      <trkpt lat="42.64763" lon="1.68008">
        <ele>2461.103</ele>
        <time>2022-09-17T10:14:02Z</time>
      </trkpt>
      <trkpt lat="42.64763" lon="1.68008">
        <ele>2461.104</ele>
        <time>2022-09-17T10:14:04Z</time>
      </trkpt>
      <trkpt lat="42.64763" lon="1.68008">
        <ele>2461.104</ele>
        <time>2022-09-17T10:14:06Z</time>
      </trkpt>
      <trkpt lat="42.64763" lon="1.68008">
        <ele>2461.109</ele>
        <time>2022-09-17T10:14:08Z</time>
      </trkpt>
      <trkpt lat="42.64763" lon="1.68008">
        <ele>2461.108</ele>
        <time>2022-09-17T10:14:10Z</time>
      </trkpt>
      <trkpt lat="42.64763" lon="1.68008">
        <ele>2461.106</ele>
        <time>2022-09-17T10:14:12Z</time>
      </trkpt>
      <trkpt lat="42.64763" lon="1.68008">
        <ele>2461.106</ele>
        <time>2022-09-17T10:14:14Z</time>
      </trkpt>
      <trkpt lat="42.64763" lon="1.68007">
        <ele>2461.663</ele>
        <time>2022-09-17T10:14:16Z</time>
      </trkpt>
      <trkpt lat="42.64762" lon="1.68007">
        <ele>2461.96</ele>
        <time>2022-09-17T10:14:18Z</time>
      </trkpt>
      <trkpt lat="42.64761" lon="1.68006">
        <ele>2461.955</ele>
        <time>2022-09-17T10:14:20Z</time>
      </trkpt>
      <trkpt lat="42.64761" lon="1.68006">
        <ele>2461.655</ele>
        <time>2022-09-17T10:14:22Z</time>
      </trkpt>
      <trkpt lat="42.64761" lon="1.68005">
        <ele>2461.793</ele>
        <time>2022-09-17T10:14:24Z</time>
      </trkpt>
      <trkpt lat="42.6476" lon="1.68004">
        <ele>2461.521</ele>
        <time>2022-09-17T10:14:26Z</time>
      </trkpt>
      <trkpt lat="42.6476" lon="1.68003">
        <ele>2461.875</ele>
        <time>2022-09-17T10:14:28Z</time>
      </trkpt>
      <trkpt lat="42.64759" lon="1.68002">
        <ele>2461.402</ele>
        <time>2022-09-17T10:14:30Z</time>
      </trkpt>
      <trkpt lat="42.64759" lon="1.68001">
        <ele>2461.299</ele>
        <time>2022-09-17T10:14:32Z</time>
      </trkpt>
      <trkpt lat="42.64758" lon="1.68001">
        <ele>2461.511</ele>
        <time>2022-09-17T10:14:34Z</time>
      </trkpt>
      <trkpt lat="42.64757" lon="1.68001">
        <ele>2461.119</ele>
        <time>2022-09-17T10:14:36Z</time>
      </trkpt>
      <trkpt lat="42.64757" lon="1.68">
        <ele>2461.68</ele>
        <time>2022-09-17T10:14:38Z</time>
      </trkpt>
      <trkpt lat="42.64756" lon="1.68">
        <ele>2462.79</ele>
        <time>2022-09-17T10:14:40Z</time>
      </trkpt>
      <trkpt lat="42.64756" lon="1.68">
        <ele>2463.757</ele>
        <time>2022-09-17T10:14:42Z</time>
      </trkpt>
      <trkpt lat="42.64755" lon="1.67999">
        <ele>2463.601</ele>
        <time>2022-09-17T10:14:44Z</time>
      </trkpt>
      <trkpt lat="42.64754" lon="1.67998">
        <ele>2463.719</ele>
        <time>2022-09-17T10:14:46Z</time>
      </trkpt>
      <trkpt lat="42.64753" lon="1.67998">
        <ele>2464.268</ele>
        <time>2022-09-17T10:14:48Z</time>
      </trkpt>
      <trkpt lat="42.64753" lon="1.67998">
        <ele>2464.221</ele>
        <time>2022-09-17T10:14:50Z</time>
      </trkpt>
      <trkpt lat="42.64753" lon="1.67998">
        <ele>2463.663</ele>
        <time>2022-09-17T10:14:52Z</time>
      </trkpt>
      <trkpt lat="42.64753" lon="1.67998">
        <ele>2463.656</ele>
        <time>2022-09-17T10:14:54Z</time>
      </trkpt>
      <trkpt lat="42.64753" lon="1.67998">
        <ele>2463.656</ele>
        <time>2022-09-17T10:14:56Z</time>
      </trkpt>
      <trkpt lat="42.64753" lon="1.67999">
        <ele>2463.653</ele>
        <time>2022-09-17T10:14:58Z</time>
      </trkpt>
      <trkpt lat="42.64753" lon="1.67999">
        <ele>2463.651</ele>
        <time>2022-09-17T10:15:00Z</time>
      </trkpt>
      <trkpt lat="42.64752" lon="1.67998">
        <ele>2463.419</ele>
        <time>2022-09-17T10:15:02Z</time>
      </trkpt>
      <trkpt lat="42.64751" lon="1.67998">
        <ele>2463.699</ele>
        <time>2022-09-17T10:15:04Z</time>
      </trkpt>
      <trkpt lat="42.6475" lon="1.67998">
        <ele>2464.279</ele>
        <time>2022-09-17T10:15:06Z</time>
      </trkpt>
      <trkpt lat="42.64749" lon="1.67998">
        <ele>2464.764</ele>
        <time>2022-09-17T10:15:08Z</time>
      </trkpt>
      <trkpt lat="42.64749" lon="1.67997">
        <ele>2464.89</ele>
        <time>2022-09-17T10:15:10Z</time>
      </trkpt>
      <trkpt lat="42.64748" lon="1.67998">
        <ele>2465.275</ele>
        <time>2022-09-17T10:15:12Z</time>
      </trkpt>
      <trkpt lat="42.64747" lon="1.67999">
        <ele>2465.787</ele>
        <time>2022-09-17T10:15:14Z</time>
      </trkpt>
      <trkpt lat="42.64747" lon="1.67999">
        <ele>2467.004</ele>
        <time>2022-09-17T10:15:16Z</time>
      </trkpt>
      <trkpt lat="42.64746" lon="1.67999">
        <ele>2466.961</ele>
        <time>2022-09-17T10:15:18Z</time>
      </trkpt>
      <trkpt lat="42.64746" lon="1.67999">
        <ele>2466.962</ele>
        <time>2022-09-17T10:15:20Z</time>
      </trkpt>
      <trkpt lat="42.64746" lon="1.67999">
        <ele>2466.962</ele>
        <time>2022-09-17T10:15:22Z</time>
      </trkpt>
      <trkpt lat="42.64746" lon="1.67999">
        <ele>2466.972</ele>
        <time>2022-09-17T10:15:24Z</time>
      </trkpt>
      <trkpt lat="42.64746" lon="1.67999">
        <ele>2466.97</ele>
        <time>2022-09-17T10:15:26Z</time>
      </trkpt>
      <trkpt lat="42.64746" lon="1.67999">
        <ele>2466.97</ele>
        <time>2022-09-17T10:15:28Z</time>
      </trkpt>
      <trkpt lat="42.64746" lon="1.67999">
        <ele>2466.969</ele>
        <time>2022-09-17T10:15:30Z</time>
      </trkpt>
      <trkpt lat="42.64746" lon="1.67999">
        <ele>2466.971</ele>
        <time>2022-09-17T10:15:32Z</time>
      </trkpt>
      <trkpt lat="42.64746" lon="1.67999">
        <ele>2466.978</ele>
        <time>2022-09-17T10:15:34Z</time>
      </trkpt>
      <trkpt lat="42.64746" lon="1.67999">
        <ele>2466.983</ele>
        <time>2022-09-17T10:15:36Z</time>
      </trkpt>
      <trkpt lat="42.64746" lon="1.67999">
        <ele>2466.988</ele>
        <time>2022-09-17T10:15:38Z</time>
      </trkpt>
      <trkpt lat="42.64746" lon="1.67999">
        <ele>2466.987</ele>
        <time>2022-09-17T10:15:40Z</time>
      </trkpt>
      <trkpt lat="42.64746" lon="1.67999">
        <ele>2466.993</ele>
        <time>2022-09-17T10:15:42Z</time>
      </trkpt>
      <trkpt lat="42.64746" lon="1.67999">
        <ele>2466.996</ele>
        <time>2022-09-17T10:15:44Z</time>
      </trkpt>
      <trkpt lat="42.64746" lon="1.67999">
        <ele>2466.999</ele>
        <time>2022-09-17T10:15:46Z</time>
      </trkpt>
      <trkpt lat="42.64746" lon="1.67999">
        <ele>2467.005</ele>
        <time>2022-09-17T10:15:48Z</time>
      </trkpt>
      <trkpt lat="42.64746" lon="1.67999">
        <ele>2467.004</ele>
        <time>2022-09-17T10:15:50Z</time>
      </trkpt>
      <trkpt lat="42.64746" lon="1.67999">
        <ele>2467.021</ele>
        <time>2022-09-17T10:15:52Z</time>
      </trkpt>
      <trkpt lat="42.64746" lon="1.67999">
        <ele>2467.042</ele>
        <time>2022-09-17T10:15:54Z</time>
      </trkpt>
      <trkpt lat="42.64746" lon="1.67999">
        <ele>2467.058</ele>
        <time>2022-09-17T10:15:56Z</time>
      </trkpt>
      <trkpt lat="42.64746" lon="1.67999">
        <ele>2467.07</ele>
        <time>2022-09-17T10:15:58Z</time>
      </trkpt>
      <trkpt lat="42.64746" lon="1.67999">
        <ele>2467.072</ele>
        <time>2022-09-17T10:16:00Z</time>
      </trkpt>
      <trkpt lat="42.64746" lon="1.67999">
        <ele>2467.075</ele>
        <time>2022-09-17T10:16:02Z</time>
      </trkpt>
      <trkpt lat="42.64746" lon="1.67999">
        <ele>2467.08</ele>
        <time>2022-09-17T10:16:04Z</time>
      </trkpt>
      <trkpt lat="42.64746" lon="1.67999">
        <ele>2467.083</ele>
        <time>2022-09-17T10:16:06Z</time>
      </trkpt>
      <trkpt lat="42.64746" lon="1.67999">
        <ele>2467.085</ele>
        <time>2022-09-17T10:16:08Z</time>
      </trkpt>
      <trkpt lat="42.64746" lon="1.67999">
        <ele>2467.089</ele>
        <time>2022-09-17T10:16:10Z</time>
      </trkpt>
      <trkpt lat="42.64746" lon="1.67999">
        <ele>2467.088</ele>
        <time>2022-09-17T10:16:12Z</time>
      </trkpt>
      <trkpt lat="42.64746" lon="1.67999">
        <ele>2467.095</ele>
        <time>2022-09-17T10:16:14Z</time>
      </trkpt>
      <trkpt lat="42.64746" lon="1.67999">
        <ele>2467.103</ele>
        <time>2022-09-17T10:16:16Z</time>
      </trkpt>
      <trkpt lat="42.64746" lon="1.67999">
        <ele>2467.104</ele>
        <time>2022-09-17T10:16:18Z</time>
      </trkpt>
      <trkpt lat="42.64746" lon="1.67999">
        <ele>2467.109</ele>
        <time>2022-09-17T10:16:20Z</time>
      </trkpt>
      <trkpt lat="42.64746" lon="1.67999">
        <ele>2467.116</ele>
        <time>2022-09-17T10:16:22Z</time>
      </trkpt>
      <trkpt lat="42.64746" lon="1.67999">
        <ele>2467.12</ele>
        <time>2022-09-17T10:16:24Z</time>
      </trkpt>
      <trkpt lat="42.64746" lon="1.67999">
        <ele>2467.124</ele>
        <time>2022-09-17T10:16:26Z</time>
      </trkpt>
      <trkpt lat="42.64746" lon="1.67999">
        <ele>2467.123</ele>
        <time>2022-09-17T10:16:27Z</time>
      </trkpt>
      <trkpt lat="42.64746" lon="1.67999">
        <ele>2467.127</ele>
        <time>2022-09-17T10:16:30Z</time>
      </trkpt>
      <trkpt lat="42.64746" lon="1.67999">
        <ele>2467.137</ele>
        <time>2022-09-17T10:16:32Z</time>
      </trkpt>
      <trkpt lat="42.64746" lon="1.67999">
        <ele>2467.137</ele>
        <time>2022-09-17T10:16:34Z</time>
      </trkpt>
      <trkpt lat="42.64746" lon="1.67999">
        <ele>2467.139</ele>
        <time>2022-09-17T10:16:36Z</time>
      </trkpt>
      <trkpt lat="42.64746" lon="1.67999">
        <ele>2467.147</ele>
        <time>2022-09-17T10:16:38Z</time>
      </trkpt>
      <trkpt lat="42.64746" lon="1.67999">
        <ele>2467.145</ele>
        <time>2022-09-17T10:16:40Z</time>
      </trkpt>
      <trkpt lat="42.64746" lon="1.67999">
        <ele>2467.146</ele>
        <time>2022-09-17T10:16:42Z</time>
      </trkpt>
      <trkpt lat="42.64746" lon="1.67999">
        <ele>2467.145</ele>
        <time>2022-09-17T10:16:44Z</time>
      </trkpt>
      <trkpt lat="42.64746" lon="1.67999">
        <ele>2467.145</ele>
        <time>2022-09-17T10:16:46Z</time>
      </trkpt>
      <trkpt lat="42.64746" lon="1.67999">
        <ele>2467.147</ele>
        <time>2022-09-17T10:16:48Z</time>
      </trkpt>
      <trkpt lat="42.64746" lon="1.67999">
        <ele>2467.155</ele>
        <time>2022-09-17T10:16:50Z</time>
      </trkpt>
      <trkpt lat="42.64746" lon="1.67999">
        <ele>2467.16</ele>
        <time>2022-09-17T10:16:52Z</time>
      </trkpt>
      <trkpt lat="42.64746" lon="1.67999">
        <ele>2467.167</ele>
        <time>2022-09-17T10:16:54Z</time>
      </trkpt>
      <trkpt lat="42.64746" lon="1.67999">
        <ele>2467.173</ele>
        <time>2022-09-17T10:16:56Z</time>
      </trkpt>
      <trkpt lat="42.64746" lon="1.67999">
        <ele>2467.181</ele>
        <time>2022-09-17T10:16:58Z</time>
      </trkpt>
      <trkpt lat="42.64746" lon="1.67999">
        <ele>2467.185</ele>
        <time>2022-09-17T10:17:00Z</time>
      </trkpt>
      <trkpt lat="42.64746" lon="1.67999">
        <ele>2467.183</ele>
        <time>2022-09-17T10:17:02Z</time>
      </trkpt>
      <trkpt lat="42.64746" lon="1.67999">
        <ele>2467.184</ele>
        <time>2022-09-17T10:17:04Z</time>
      </trkpt>
      <trkpt lat="42.64746" lon="1.67999">
        <ele>2467.185</ele>
        <time>2022-09-17T10:17:06Z</time>
      </trkpt>
      <trkpt lat="42.64746" lon="1.67998">
        <ele>2467.189</ele>
        <time>2022-09-17T10:17:08Z</time>
      </trkpt>
      <trkpt lat="42.64746" lon="1.67998">
        <ele>2467.697</ele>
        <time>2022-09-17T10:17:10Z</time>
      </trkpt>
      <trkpt lat="42.64746" lon="1.67998">
        <ele>2467.7</ele>
        <time>2022-09-17T10:17:12Z</time>
      </trkpt>
      <trkpt lat="42.64746" lon="1.67998">
        <ele>2467.706</ele>
        <time>2022-09-17T10:17:14Z</time>
      </trkpt>
      <trkpt lat="42.64746" lon="1.67998">
        <ele>2467.704</ele>
        <time>2022-09-17T10:17:16Z</time>
      </trkpt>
      <trkpt lat="42.64746" lon="1.67998">
        <ele>2467.709</ele>
        <time>2022-09-17T10:17:18Z</time>
      </trkpt>
      <trkpt lat="42.64746" lon="1.67998">
        <ele>2467.711</ele>
        <time>2022-09-17T10:17:20Z</time>
      </trkpt>
      <trkpt lat="42.64746" lon="1.67998">
        <ele>2467.713</ele>
        <time>2022-09-17T10:17:22Z</time>
      </trkpt>
      <trkpt lat="42.64746" lon="1.67998">
        <ele>2467.716</ele>
        <time>2022-09-17T10:17:24Z</time>
      </trkpt>
      <trkpt lat="42.64746" lon="1.67998">
        <ele>2467.719</ele>
        <time>2022-09-17T10:17:26Z</time>
      </trkpt>
      <trkpt lat="42.64746" lon="1.67998">
        <ele>2467.721</ele>
        <time>2022-09-17T10:17:28Z</time>
      </trkpt>
      <trkpt lat="42.64746" lon="1.67998">
        <ele>2467.729</ele>
        <time>2022-09-17T10:17:30Z</time>
      </trkpt>
      <trkpt lat="42.64746" lon="1.67998">
        <ele>2467.667</ele>
        <time>2022-09-17T10:17:32Z</time>
      </trkpt>
      <trkpt lat="42.64746" lon="1.67998">
        <ele>2467.682</ele>
        <time>2022-09-17T10:17:34Z</time>
      </trkpt>
      <trkpt lat="42.64746" lon="1.67998">
        <ele>2467.692</ele>
        <time>2022-09-17T10:17:36Z</time>
      </trkpt>
      <trkpt lat="42.64746" lon="1.67998">
        <ele>2467.451</ele>
        <time>2022-09-17T10:17:38Z</time>
      </trkpt>
      <trkpt lat="42.64745" lon="1.67998">
        <ele>2467.772</ele>
        <time>2022-09-17T10:17:40Z</time>
      </trkpt>
      <trkpt lat="42.64744" lon="1.67999">
        <ele>2468.101</ele>
        <time>2022-09-17T10:17:42Z</time>
      </trkpt>
      <trkpt lat="42.64743" lon="1.67999">
        <ele>2467.438</ele>
        <time>2022-09-17T10:17:44Z</time>
      </trkpt>
      <trkpt lat="42.64742" lon="1.67999">
        <ele>2467.435</ele>
        <time>2022-09-17T10:17:46Z</time>
      </trkpt>
      <trkpt lat="42.6474" lon="1.67998">
        <ele>2468.002</ele>
        <time>2022-09-17T10:17:48Z</time>
      </trkpt>
      <trkpt lat="42.6474" lon="1.67998">
        <ele>2468.561</ele>
        <time>2022-09-17T10:17:50Z</time>
      </trkpt>
      <trkpt lat="42.6474" lon="1.67999">
        <ele>2468.811</ele>
        <time>2022-09-17T10:17:52Z</time>
      </trkpt>
      <trkpt lat="42.6474" lon="1.67999">
        <ele>2468.811</ele>
        <time>2022-09-17T10:17:54Z</time>
      </trkpt>
      <trkpt lat="42.64739" lon="1.67999">
        <ele>2469.438</ele>
        <time>2022-09-17T10:17:56Z</time>
      </trkpt>
      <trkpt lat="42.64738" lon="1.67999">
        <ele>2469.856</ele>
        <time>2022-09-17T10:17:58Z</time>
      </trkpt>
      <trkpt lat="42.64737" lon="1.67999">
        <ele>2469.305</ele>
        <time>2022-09-17T10:18:00Z</time>
      </trkpt>
      <trkpt lat="42.64736" lon="1.67998">
        <ele>2469.266</ele>
        <time>2022-09-17T10:18:02Z</time>
      </trkpt>
      <trkpt lat="42.64734" lon="1.67998">
        <ele>2470.58</ele>
        <time>2022-09-17T10:18:04Z</time>
      </trkpt>
      <trkpt lat="42.64734" lon="1.67997">
        <ele>2470.738</ele>
        <time>2022-09-17T10:18:06Z</time>
      </trkpt>
      <trkpt lat="42.64734" lon="1.67997">
        <ele>2471.605</ele>
        <time>2022-09-17T10:18:08Z</time>
      </trkpt>
      <trkpt lat="42.64733" lon="1.67997">
        <ele>2470.956</ele>
        <time>2022-09-17T10:18:10Z</time>
      </trkpt>
      <trkpt lat="42.64732" lon="1.67997">
        <ele>2471.103</ele>
        <time>2022-09-17T10:18:12Z</time>
      </trkpt>
      <trkpt lat="42.64732" lon="1.67997">
        <ele>2471.497</ele>
        <time>2022-09-17T10:18:14Z</time>
      </trkpt>
      <trkpt lat="42.64731" lon="1.67997">
        <ele>2471.049</ele>
        <time>2022-09-17T10:18:16Z</time>
      </trkpt>
      <trkpt lat="42.64731" lon="1.67998">
        <ele>2471.511</ele>
        <time>2022-09-17T10:18:18Z</time>
      </trkpt>
      <trkpt lat="42.64731" lon="1.67999">
        <ele>2471.537</ele>
        <time>2022-09-17T10:18:20Z</time>
      </trkpt>
      <trkpt lat="42.6473" lon="1.68">
        <ele>2471.888</ele>
        <time>2022-09-17T10:18:22Z</time>
      </trkpt>
      <trkpt lat="42.64729" lon="1.68001">
        <ele>2472.395</ele>
        <time>2022-09-17T10:18:24Z</time>
      </trkpt>
      <trkpt lat="42.64728" lon="1.68002">
        <ele>2473.46</ele>
        <time>2022-09-17T10:18:26Z</time>
      </trkpt>
      <trkpt lat="42.64728" lon="1.68003">
        <ele>2473.869</ele>
        <time>2022-09-17T10:18:28Z</time>
      </trkpt>
      <trkpt lat="42.64727" lon="1.68004">
        <ele>2474.84</ele>
        <time>2022-09-17T10:18:30Z</time>
      </trkpt>
      <trkpt lat="42.64727" lon="1.68005">
        <ele>2475.445</ele>
        <time>2022-09-17T10:18:32Z</time>
      </trkpt>
      <trkpt lat="42.64727" lon="1.68007">
        <ele>2476.233</ele>
        <time>2022-09-17T10:18:34Z</time>
      </trkpt>
      <trkpt lat="42.64727" lon="1.68008">
        <ele>2477.055</ele>
        <time>2022-09-17T10:18:36Z</time>
      </trkpt>
      <trkpt lat="42.64726" lon="1.68009">
        <ele>2477.288</ele>
        <time>2022-09-17T10:18:38Z</time>
      </trkpt>
      <trkpt lat="42.64726" lon="1.6801">
        <ele>2477.614</ele>
        <time>2022-09-17T10:18:40Z</time>
      </trkpt>
      <trkpt lat="42.64725" lon="1.68009">
        <ele>2477.643</ele>
        <time>2022-09-17T10:18:42Z</time>
      </trkpt>
      <trkpt lat="42.64724" lon="1.6801">
        <ele>2478.7</ele>
        <time>2022-09-17T10:18:44Z</time>
      </trkpt>
      <trkpt lat="42.64724" lon="1.68011">
        <ele>2479.321</ele>
        <time>2022-09-17T10:18:46Z</time>
      </trkpt>
      <trkpt lat="42.64723" lon="1.68013">
        <ele>2479.437</ele>
        <time>2022-09-17T10:18:48Z</time>
      </trkpt>
      <trkpt lat="42.64723" lon="1.68013">
        <ele>2479.175</ele>
        <time>2022-09-17T10:18:50Z</time>
      </trkpt>
      <trkpt lat="42.64722" lon="1.68014">
        <ele>2479.669</ele>
        <time>2022-09-17T10:18:52Z</time>
      </trkpt>
      <trkpt lat="42.64722" lon="1.68015">
        <ele>2479.704</ele>
        <time>2022-09-17T10:18:54Z</time>
      </trkpt>
      <trkpt lat="42.64721" lon="1.68016">
        <ele>2480.512</ele>
        <time>2022-09-17T10:18:56Z</time>
      </trkpt>
      <trkpt lat="42.6472" lon="1.68016">
        <ele>2480.452</ele>
        <time>2022-09-17T10:18:58Z</time>
      </trkpt>
      <trkpt lat="42.64719" lon="1.68015">
        <ele>2481.277</ele>
        <time>2022-09-17T10:19:00Z</time>
      </trkpt>
      <trkpt lat="42.64719" lon="1.68015">
        <ele>2481.168</ele>
        <time>2022-09-17T10:19:02Z</time>
      </trkpt>
      <trkpt lat="42.64719" lon="1.68015">
        <ele>2481.146</ele>
        <time>2022-09-17T10:19:04Z</time>
      </trkpt>
      <trkpt lat="42.64718" lon="1.68015">
        <ele>2481.789</ele>
        <time>2022-09-17T10:19:06Z</time>
      </trkpt>
      <trkpt lat="42.64717" lon="1.68016">
        <ele>2482.803</ele>
        <time>2022-09-17T10:19:08Z</time>
      </trkpt>
      <trkpt lat="42.64717" lon="1.68017">
        <ele>2483.362</ele>
        <time>2022-09-17T10:19:10Z</time>
      </trkpt>
      <trkpt lat="42.64716" lon="1.68018">
        <ele>2483.741</ele>
        <time>2022-09-17T10:19:12Z</time>
      </trkpt>
      <trkpt lat="42.64716" lon="1.6802">
        <ele>2483.996</ele>
        <time>2022-09-17T10:19:14Z</time>
      </trkpt>
      <trkpt lat="42.64716" lon="1.68021">
        <ele>2484.183</ele>
        <time>2022-09-17T10:19:16Z</time>
      </trkpt>
      <trkpt lat="42.64715" lon="1.68021">
        <ele>2483.579</ele>
        <time>2022-09-17T10:19:18Z</time>
      </trkpt>
      <trkpt lat="42.64715" lon="1.68022">
        <ele>2484.245</ele>
        <time>2022-09-17T10:19:20Z</time>
      </trkpt>
      <trkpt lat="42.64715" lon="1.68023">
        <ele>2484.074</ele>
        <time>2022-09-17T10:19:22Z</time>
      </trkpt>
      <trkpt lat="42.64715" lon="1.68023">
        <ele>2483.868</ele>
        <time>2022-09-17T10:19:24Z</time>
      </trkpt>
      <trkpt lat="42.64715" lon="1.68023">
        <ele>2483.862</ele>
        <time>2022-09-17T10:19:26Z</time>
      </trkpt>
      <trkpt lat="42.64715" lon="1.68024">
        <ele>2484.452</ele>
        <time>2022-09-17T10:19:28Z</time>
      </trkpt>
      <trkpt lat="42.64715" lon="1.68024">
        <ele>2484.451</ele>
        <time>2022-09-17T10:19:30Z</time>
      </trkpt>
      <trkpt lat="42.64715" lon="1.68024">
        <ele>2484.45</ele>
        <time>2022-09-17T10:19:32Z</time>
      </trkpt>
      <trkpt lat="42.64715" lon="1.68024">
        <ele>2484.448</ele>
        <time>2022-09-17T10:19:34Z</time>
      </trkpt>
      <trkpt lat="42.64715" lon="1.68025">
        <ele>2484.728</ele>
        <time>2022-09-17T10:19:36Z</time>
      </trkpt>
      <trkpt lat="42.64714" lon="1.68026">
        <ele>2485.696</ele>
        <time>2022-09-17T10:19:38Z</time>
      </trkpt>
      <trkpt lat="42.64713" lon="1.68027">
        <ele>2486.082</ele>
        <time>2022-09-17T10:19:40Z</time>
      </trkpt>
      <trkpt lat="42.64713" lon="1.68029">
        <ele>2487.111</ele>
        <time>2022-09-17T10:19:42Z</time>
      </trkpt>
      <trkpt lat="42.64712" lon="1.6803">
        <ele>2487.91</ele>
        <time>2022-09-17T10:19:44Z</time>
      </trkpt>
      <trkpt lat="42.64712" lon="1.68031">
        <ele>2487.961</ele>
        <time>2022-09-17T10:19:46Z</time>
      </trkpt>
      <trkpt lat="42.64712" lon="1.68031">
        <ele>2488.103</ele>
        <time>2022-09-17T10:19:48Z</time>
      </trkpt>
      <trkpt lat="42.64712" lon="1.68031">
        <ele>2487.96</ele>
        <time>2022-09-17T10:19:50Z</time>
      </trkpt>
      <trkpt lat="42.64712" lon="1.68031">
        <ele>2487.963</ele>
        <time>2022-09-17T10:19:52Z</time>
      </trkpt>
      <trkpt lat="42.64712" lon="1.68031">
        <ele>2487.957</ele>
        <time>2022-09-17T10:19:54Z</time>
      </trkpt>
      <trkpt lat="42.64712" lon="1.68031">
        <ele>2487.95</ele>
        <time>2022-09-17T10:19:56Z</time>
      </trkpt>
      <trkpt lat="42.64712" lon="1.68032">
        <ele>2487.772</ele>
        <time>2022-09-17T10:19:58Z</time>
      </trkpt>
      <trkpt lat="42.64712" lon="1.68034">
        <ele>2486.876</ele>
        <time>2022-09-17T10:20:00Z</time>
      </trkpt>
      <trkpt lat="42.64711" lon="1.68035">
        <ele>2487.045</ele>
        <time>2022-09-17T10:20:02Z</time>
      </trkpt>
      <trkpt lat="42.64711" lon="1.68037">
        <ele>2486.95</ele>
        <time>2022-09-17T10:20:04Z</time>
      </trkpt>
      <trkpt lat="42.64711" lon="1.68038">
        <ele>2486.507</ele>
        <time>2022-09-17T10:20:06Z</time>
      </trkpt>
      <trkpt lat="42.6471" lon="1.68039">
        <ele>2485.794</ele>
        <time>2022-09-17T10:20:08Z</time>
      </trkpt>
      <trkpt lat="42.64709" lon="1.6804">
        <ele>2485.311</ele>
        <time>2022-09-17T10:20:10Z</time>
      </trkpt>
      <trkpt lat="42.64709" lon="1.6804">
        <ele>2485.277</ele>
        <time>2022-09-17T10:20:12Z</time>
      </trkpt>
      <trkpt lat="42.64708" lon="1.68041">
        <ele>2484.636</ele>
        <time>2022-09-17T10:20:14Z</time>
      </trkpt>
      <trkpt lat="42.64708" lon="1.68042">
        <ele>2485.811</ele>
        <time>2022-09-17T10:20:16Z</time>
      </trkpt>
      <trkpt lat="42.64708" lon="1.68043">
        <ele>2485.606</ele>
        <time>2022-09-17T10:20:18Z</time>
      </trkpt>
      <trkpt lat="42.64707" lon="1.68044">
        <ele>2486.38</ele>
        <time>2022-09-17T10:20:20Z</time>
      </trkpt>
      <trkpt lat="42.64706" lon="1.68045">
        <ele>2486.499</ele>
        <time>2022-09-17T10:20:22Z</time>
      </trkpt>
      <trkpt lat="42.64706" lon="1.68047">
        <ele>2486.997</ele>
        <time>2022-09-17T10:20:24Z</time>
      </trkpt>
      <trkpt lat="42.64705" lon="1.68048">
        <ele>2488.261</ele>
        <time>2022-09-17T10:20:26Z</time>
      </trkpt>
      <trkpt lat="42.64704" lon="1.6805">
        <ele>2488.631</ele>
        <time>2022-09-17T10:20:28Z</time>
      </trkpt>
      <trkpt lat="42.64704" lon="1.68051">
        <ele>2489.219</ele>
        <time>2022-09-17T10:20:30Z</time>
      </trkpt>
      <trkpt lat="42.64703" lon="1.68052">
        <ele>2489.387</ele>
        <time>2022-09-17T10:20:32Z</time>
      </trkpt>
      <trkpt lat="42.64701" lon="1.68052">
        <ele>2489.553</ele>
        <time>2022-09-17T10:20:34Z</time>
      </trkpt>
      <trkpt lat="42.64701" lon="1.68053">
        <ele>2490.544</ele>
        <time>2022-09-17T10:20:36Z</time>
      </trkpt>
      <trkpt lat="42.647" lon="1.68053">
        <ele>2489.585</ele>
        <time>2022-09-17T10:20:38Z</time>
      </trkpt>
      <trkpt lat="42.64699" lon="1.68052">
        <ele>2489.61</ele>
        <time>2022-09-17T10:20:40Z</time>
      </trkpt>
      <trkpt lat="42.64698" lon="1.68052">
        <ele>2489.649</ele>
        <time>2022-09-17T10:20:42Z</time>
      </trkpt>
      <trkpt lat="42.64697" lon="1.68052">
        <ele>2490.34</ele>
        <time>2022-09-17T10:20:44Z</time>
      </trkpt>
      <trkpt lat="42.64696" lon="1.6805">
        <ele>2491.141</ele>
        <time>2022-09-17T10:20:46Z</time>
      </trkpt>
      <trkpt lat="42.64696" lon="1.68049">
        <ele>2491.041</ele>
        <time>2022-09-17T10:20:48Z</time>
      </trkpt>
      <trkpt lat="42.64696" lon="1.68048">
        <ele>2491.213</ele>
        <time>2022-09-17T10:20:50Z</time>
      </trkpt>
      <trkpt lat="42.64695" lon="1.68047">
        <ele>2492.36</ele>
        <time>2022-09-17T10:20:52Z</time>
      </trkpt>
      <trkpt lat="42.64694" lon="1.68048">
        <ele>2492.191</ele>
        <time>2022-09-17T10:20:54Z</time>
      </trkpt>
      <trkpt lat="42.64693" lon="1.68048">
        <ele>2492.224</ele>
        <time>2022-09-17T10:20:56Z</time>
      </trkpt>
      <trkpt lat="42.64693" lon="1.68048">
        <ele>2492.449</ele>
        <time>2022-09-17T10:20:58Z</time>
      </trkpt>
      <trkpt lat="42.64693" lon="1.68048">
        <ele>2492.45</ele>
        <time>2022-09-17T10:21:00Z</time>
      </trkpt>
      <trkpt lat="42.64693" lon="1.68048">
        <ele>2492.443</ele>
        <time>2022-09-17T10:21:02Z</time>
      </trkpt>
      <trkpt lat="42.64693" lon="1.68048">
        <ele>2492.442</ele>
        <time>2022-09-17T10:21:04Z</time>
      </trkpt>
      <trkpt lat="42.64692" lon="1.68049">
        <ele>2492.45</ele>
        <time>2022-09-17T10:21:06Z</time>
      </trkpt>
      <trkpt lat="42.64692" lon="1.6805">
        <ele>2492.55</ele>
        <time>2022-09-17T10:21:08Z</time>
      </trkpt>
      <trkpt lat="42.64691" lon="1.6805">
        <ele>2492.989</ele>
        <time>2022-09-17T10:21:10Z</time>
      </trkpt>
      <trkpt lat="42.64691" lon="1.6805">
        <ele>2493.474</ele>
        <time>2022-09-17T10:21:12Z</time>
      </trkpt>
      <trkpt lat="42.6469" lon="1.68049">
        <ele>2492.511</ele>
        <time>2022-09-17T10:21:14Z</time>
      </trkpt>
      <trkpt lat="42.64689" lon="1.68049">
        <ele>2491.653</ele>
        <time>2022-09-17T10:21:16Z</time>
      </trkpt>
      <trkpt lat="42.64689" lon="1.68049">
        <ele>2491.724</ele>
        <time>2022-09-17T10:21:18Z</time>
      </trkpt>
      <trkpt lat="42.6469" lon="1.68049">
        <ele>2491.728</ele>
        <time>2022-09-17T10:21:20Z</time>
      </trkpt>
      <trkpt lat="42.6469" lon="1.68049">
        <ele>2491.738</ele>
        <time>2022-09-17T10:21:22Z</time>
      </trkpt>
      <trkpt lat="42.64689" lon="1.68049">
        <ele>2492.23</ele>
        <time>2022-09-17T10:21:24Z</time>
      </trkpt>
      <trkpt lat="42.64688" lon="1.6805">
        <ele>2492.523</ele>
        <time>2022-09-17T10:21:26Z</time>
      </trkpt>
      <trkpt lat="42.64687" lon="1.6805">
        <ele>2492.862</ele>
        <time>2022-09-17T10:21:28Z</time>
      </trkpt>
      <trkpt lat="42.64687" lon="1.68051">
        <ele>2493.254</ele>
        <time>2022-09-17T10:21:30Z</time>
      </trkpt>
      <trkpt lat="42.64686" lon="1.68051">
        <ele>2493.906</ele>
        <time>2022-09-17T10:21:32Z</time>
      </trkpt>
      <trkpt lat="42.64686" lon="1.68052">
        <ele>2494.889</ele>
        <time>2022-09-17T10:21:34Z</time>
      </trkpt>
      <trkpt lat="42.64686" lon="1.68052">
        <ele>2494.807</ele>
        <time>2022-09-17T10:21:36Z</time>
      </trkpt>
      <trkpt lat="42.64686" lon="1.68052">
        <ele>2495.052</ele>
        <time>2022-09-17T10:21:38Z</time>
      </trkpt>
      <trkpt lat="42.64685" lon="1.68052">
        <ele>2495.422</ele>
        <time>2022-09-17T10:21:40Z</time>
      </trkpt>
      <trkpt lat="42.64685" lon="1.68052">
        <ele>2495.777</ele>
        <time>2022-09-17T10:21:42Z</time>
      </trkpt>
      <trkpt lat="42.64684" lon="1.68052">
        <ele>2496.346</ele>
        <time>2022-09-17T10:21:44Z</time>
      </trkpt>
      <trkpt lat="42.64684" lon="1.68052">
        <ele>2496.56</ele>
        <time>2022-09-17T10:21:46Z</time>
      </trkpt>
      <trkpt lat="42.64683" lon="1.68052">
        <ele>2496.857</ele>
        <time>2022-09-17T10:21:48Z</time>
      </trkpt>
      <trkpt lat="42.64683" lon="1.68052">
        <ele>2496.985</ele>
        <time>2022-09-17T10:21:50Z</time>
      </trkpt>
      <trkpt lat="42.64683" lon="1.68052">
        <ele>2496.993</ele>
        <time>2022-09-17T10:21:52Z</time>
      </trkpt>
      <trkpt lat="42.64683" lon="1.68052">
        <ele>2496.994</ele>
        <time>2022-09-17T10:21:54Z</time>
      </trkpt>
      <trkpt lat="42.64683" lon="1.68052">
        <ele>2496.995</ele>
        <time>2022-09-17T10:21:56Z</time>
      </trkpt>
      <trkpt lat="42.64683" lon="1.68052">
        <ele>2496.999</ele>
        <time>2022-09-17T10:21:58Z</time>
      </trkpt>
      <trkpt lat="42.64683" lon="1.68052">
        <ele>2497</ele>
        <time>2022-09-17T10:22:00Z</time>
      </trkpt>
      <trkpt lat="42.64683" lon="1.68052">
        <ele>2497.519</ele>
        <time>2022-09-17T10:22:02Z</time>
      </trkpt>
      <trkpt lat="42.64682" lon="1.68053">
        <ele>2498.142</ele>
        <time>2022-09-17T10:22:04Z</time>
      </trkpt>
      <trkpt lat="42.64681" lon="1.68053">
        <ele>2498.862</ele>
        <time>2022-09-17T10:22:06Z</time>
      </trkpt>
      <trkpt lat="42.6468" lon="1.68053">
        <ele>2499.142</ele>
        <time>2022-09-17T10:22:08Z</time>
      </trkpt>
      <trkpt lat="42.64679" lon="1.68054">
        <ele>2499.569</ele>
        <time>2022-09-17T10:22:10Z</time>
      </trkpt>
      <trkpt lat="42.64678" lon="1.68054">
        <ele>2500.11</ele>
        <time>2022-09-17T10:22:12Z</time>
      </trkpt>
      <trkpt lat="42.64677" lon="1.68055">
        <ele>2500.751</ele>
        <time>2022-09-17T10:22:14Z</time>
      </trkpt>
      <trkpt lat="42.64676" lon="1.68054">
        <ele>2501.633</ele>
        <time>2022-09-17T10:22:16Z</time>
      </trkpt>
      <trkpt lat="42.64676" lon="1.68055">
        <ele>2503.302</ele>
        <time>2022-09-17T10:22:18Z</time>
      </trkpt>
      <trkpt lat="42.64675" lon="1.68055">
        <ele>2503.979</ele>
        <time>2022-09-17T10:22:20Z</time>
      </trkpt>
      <trkpt lat="42.64675" lon="1.68055">
        <ele>2504.743</ele>
        <time>2022-09-17T10:22:22Z</time>
      </trkpt>
      <trkpt lat="42.64674" lon="1.68055">
        <ele>2504.99</ele>
        <time>2022-09-17T10:22:24Z</time>
      </trkpt>
      <trkpt lat="42.64673" lon="1.68055">
        <ele>2504.94</ele>
        <time>2022-09-17T10:22:26Z</time>
      </trkpt>
      <trkpt lat="42.64672" lon="1.68055">
        <ele>2504.835</ele>
        <time>2022-09-17T10:22:28Z</time>
      </trkpt>
      <trkpt lat="42.64671" lon="1.68055">
        <ele>2504.531</ele>
        <time>2022-09-17T10:22:30Z</time>
      </trkpt>
      <trkpt lat="42.6467" lon="1.68055">
        <ele>2503.269</ele>
        <time>2022-09-17T10:22:32Z</time>
      </trkpt>
      <trkpt lat="42.6467" lon="1.68055">
        <ele>2504.221</ele>
        <time>2022-09-17T10:22:34Z</time>
      </trkpt>
      <trkpt lat="42.6467" lon="1.68054">
        <ele>2503.867</ele>
        <time>2022-09-17T10:22:36Z</time>
      </trkpt>
      <trkpt lat="42.6467" lon="1.68053">
        <ele>2503.1</ele>
        <time>2022-09-17T10:22:38Z</time>
      </trkpt>
      <trkpt lat="42.6467" lon="1.68052">
        <ele>2502.857</ele>
        <time>2022-09-17T10:22:40Z</time>
      </trkpt>
      <trkpt lat="42.6467" lon="1.68052">
        <ele>2502.854</ele>
        <time>2022-09-17T10:22:42Z</time>
      </trkpt>
      <trkpt lat="42.6467" lon="1.68051">
        <ele>2502.389</ele>
        <time>2022-09-17T10:22:44Z</time>
      </trkpt>
      <trkpt lat="42.6467" lon="1.6805">
        <ele>2502.036</ele>
        <time>2022-09-17T10:22:46Z</time>
      </trkpt>
      <trkpt lat="42.6467" lon="1.68048">
        <ele>2503.124</ele>
        <time>2022-09-17T10:22:48Z</time>
      </trkpt>
      <trkpt lat="42.6467" lon="1.68048">
        <ele>2503.641</ele>
        <time>2022-09-17T10:22:50Z</time>
      </trkpt>
      <trkpt lat="42.6467" lon="1.68047">
        <ele>2503.476</ele>
        <time>2022-09-17T10:22:52Z</time>
      </trkpt>
      <trkpt lat="42.64669" lon="1.68046">
        <ele>2502.726</ele>
        <time>2022-09-17T10:22:54Z</time>
      </trkpt>
      <trkpt lat="42.64668" lon="1.68044">
        <ele>2502.605</ele>
        <time>2022-09-17T10:22:56Z</time>
      </trkpt>
      <trkpt lat="42.64668" lon="1.68043">
        <ele>2503.849</ele>
        <time>2022-09-17T10:22:58Z</time>
      </trkpt>
      <trkpt lat="42.64667" lon="1.68043">
        <ele>2504.004</ele>
        <time>2022-09-17T10:23:00Z</time>
      </trkpt>
      <trkpt lat="42.64667" lon="1.68043">
        <ele>2504.095</ele>
        <time>2022-09-17T10:23:02Z</time>
      </trkpt>
      <trkpt lat="42.64667" lon="1.68043">
        <ele>2504.107</ele>
        <time>2022-09-17T10:23:04Z</time>
      </trkpt>
      <trkpt lat="42.64667" lon="1.68043">
        <ele>2504.118</ele>
        <time>2022-09-17T10:23:06Z</time>
      </trkpt>
      <trkpt lat="42.64667" lon="1.68043">
        <ele>2504.125</ele>
        <time>2022-09-17T10:23:08Z</time>
      </trkpt>
      <trkpt lat="42.64667" lon="1.68043">
        <ele>2504.135</ele>
        <time>2022-09-17T10:23:10Z</time>
      </trkpt>
      <trkpt lat="42.64667" lon="1.68043">
        <ele>2504.142</ele>
        <time>2022-09-17T10:23:12Z</time>
      </trkpt>
      <trkpt lat="42.64667" lon="1.68043">
        <ele>2504.151</ele>
        <time>2022-09-17T10:23:14Z</time>
      </trkpt>
      <trkpt lat="42.64667" lon="1.68043">
        <ele>2504.153</ele>
        <time>2022-09-17T10:23:16Z</time>
      </trkpt>
      <trkpt lat="42.64667" lon="1.68043">
        <ele>2504.151</ele>
        <time>2022-09-17T10:23:18Z</time>
      </trkpt>
      <trkpt lat="42.64667" lon="1.68043">
        <ele>2504.152</ele>
        <time>2022-09-17T10:23:20Z</time>
      </trkpt>
      <trkpt lat="42.64667" lon="1.68043">
        <ele>2504.165</ele>
        <time>2022-09-17T10:23:22Z</time>
      </trkpt>
      <trkpt lat="42.64667" lon="1.68042">
        <ele>2504.702</ele>
        <time>2022-09-17T10:23:24Z</time>
      </trkpt>
      <trkpt lat="42.64667" lon="1.68042">
        <ele>2504.496</ele>
        <time>2022-09-17T10:23:26Z</time>
      </trkpt>
      <trkpt lat="42.64667" lon="1.68042">
        <ele>2504.509</ele>
        <time>2022-09-17T10:23:28Z</time>
      </trkpt>
      <trkpt lat="42.64667" lon="1.68042">
        <ele>2504.513</ele>
        <time>2022-09-17T10:23:30Z</time>
      </trkpt>
      <trkpt lat="42.64667" lon="1.68042">
        <ele>2504.521</ele>
        <time>2022-09-17T10:23:32Z</time>
      </trkpt>
      <trkpt lat="42.64667" lon="1.68042">
        <ele>2504.528</ele>
        <time>2022-09-17T10:23:34Z</time>
      </trkpt>
      <trkpt lat="42.64667" lon="1.6804">
        <ele>2505.282</ele>
        <time>2022-09-17T10:23:36Z</time>
      </trkpt>
      <trkpt lat="42.64667" lon="1.68039">
        <ele>2506.06</ele>
        <time>2022-09-17T10:23:38Z</time>
      </trkpt>
      <trkpt lat="42.64667" lon="1.6804">
        <ele>2506.824</ele>
        <time>2022-09-17T10:23:40Z</time>
      </trkpt>
      <trkpt lat="42.64667" lon="1.6804">
        <ele>2506.831</ele>
        <time>2022-09-17T10:23:42Z</time>
      </trkpt>
      <trkpt lat="42.64667" lon="1.6804">
        <ele>2506.834</ele>
        <time>2022-09-17T10:23:44Z</time>
      </trkpt>
      <trkpt lat="42.64667" lon="1.6804">
        <ele>2506.84</ele>
        <time>2022-09-17T10:23:46Z</time>
      </trkpt>
      <trkpt lat="42.64667" lon="1.6804">
        <ele>2506.842</ele>
        <time>2022-09-17T10:23:48Z</time>
      </trkpt>
      <trkpt lat="42.64667" lon="1.6804">
        <ele>2506.837</ele>
        <time>2022-09-17T10:23:50Z</time>
      </trkpt>
      <trkpt lat="42.64667" lon="1.6804">
        <ele>2506.845</ele>
        <time>2022-09-17T10:23:52Z</time>
      </trkpt>
      <trkpt lat="42.64667" lon="1.6804">
        <ele>2506.855</ele>
        <time>2022-09-17T10:23:54Z</time>
      </trkpt>
      <trkpt lat="42.64667" lon="1.68038">
        <ele>2507.345</ele>
        <time>2022-09-17T10:23:56Z</time>
      </trkpt>
      <trkpt lat="42.64667" lon="1.68037">
        <ele>2507.126</ele>
        <time>2022-09-17T10:23:58Z</time>
      </trkpt>
      <trkpt lat="42.64666" lon="1.68035">
        <ele>2507.433</ele>
        <time>2022-09-17T10:24:00Z</time>
      </trkpt>
      <trkpt lat="42.64666" lon="1.68035">
        <ele>2507.343</ele>
        <time>2022-09-17T10:24:02Z</time>
      </trkpt>
      <trkpt lat="42.64665" lon="1.68034">
        <ele>2507.551</ele>
        <time>2022-09-17T10:24:04Z</time>
      </trkpt>
      <trkpt lat="42.64664" lon="1.68034">
        <ele>2508.3</ele>
        <time>2022-09-17T10:24:06Z</time>
      </trkpt>
      <trkpt lat="42.64663" lon="1.68034">
        <ele>2509.641</ele>
        <time>2022-09-17T10:24:08Z</time>
      </trkpt>
      <trkpt lat="42.64662" lon="1.68034">
        <ele>2509.973</ele>
        <time>2022-09-17T10:24:10Z</time>
      </trkpt>
      <trkpt lat="42.64661" lon="1.68034">
        <ele>2509.61</ele>
        <time>2022-09-17T10:24:11Z</time>
      </trkpt>
      <trkpt lat="42.6466" lon="1.68034">
        <ele>2510.807</ele>
        <time>2022-09-17T10:24:14Z</time>
      </trkpt>
      <trkpt lat="42.64659" lon="1.68034">
        <ele>2511.401</ele>
        <time>2022-09-17T10:24:16Z</time>
      </trkpt>
      <trkpt lat="42.64659" lon="1.68034">
        <ele>2512.649</ele>
        <time>2022-09-17T10:24:18Z</time>
      </trkpt>
      <trkpt lat="42.64658" lon="1.68034">
        <ele>2512.99</ele>
        <time>2022-09-17T10:24:20Z</time>
      </trkpt>
      <trkpt lat="42.64658" lon="1.68035">
        <ele>2513.655</ele>
        <time>2022-09-17T10:24:22Z</time>
      </trkpt>
      <trkpt lat="42.64657" lon="1.68036">
        <ele>2513.768</ele>
        <time>2022-09-17T10:24:24Z</time>
      </trkpt>
      <trkpt lat="42.64656" lon="1.68035">
        <ele>2513.643</ele>
        <time>2022-09-17T10:24:26Z</time>
      </trkpt>
      <trkpt lat="42.64656" lon="1.68035">
        <ele>2513.716</ele>
        <time>2022-09-17T10:24:28Z</time>
      </trkpt>
      <trkpt lat="42.64656" lon="1.68034">
        <ele>2513.552</ele>
        <time>2022-09-17T10:24:30Z</time>
      </trkpt>
      <trkpt lat="42.64656" lon="1.68034">
        <ele>2513.69</ele>
        <time>2022-09-17T10:24:32Z</time>
      </trkpt>
      <trkpt lat="42.64656" lon="1.68034">
        <ele>2514.928</ele>
        <time>2022-09-17T10:24:34Z</time>
      </trkpt>
      <trkpt lat="42.64656" lon="1.68034">
        <ele>2514.939</ele>
        <time>2022-09-17T10:24:36Z</time>
      </trkpt>
      <trkpt lat="42.64656" lon="1.68034">
        <ele>2514.949</ele>
        <time>2022-09-17T10:24:38Z</time>
      </trkpt>
      <trkpt lat="42.64656" lon="1.68034">
        <ele>2514.948</ele>
        <time>2022-09-17T10:24:40Z</time>
      </trkpt>
      <trkpt lat="42.64655" lon="1.68034">
        <ele>2515.228</ele>
        <time>2022-09-17T10:24:42Z</time>
      </trkpt>
      <trkpt lat="42.64655" lon="1.68033">
        <ele>2515.196</ele>
        <time>2022-09-17T10:24:44Z</time>
      </trkpt>
      <trkpt lat="42.64654" lon="1.68032">
        <ele>2514.928</ele>
        <time>2022-09-17T10:24:46Z</time>
      </trkpt>
      <trkpt lat="42.64653" lon="1.68031">
        <ele>2515.043</ele>
        <time>2022-09-17T10:24:48Z</time>
      </trkpt>
      <trkpt lat="42.64653" lon="1.68032">
        <ele>2515.44</ele>
        <time>2022-09-17T10:24:50Z</time>
      </trkpt>
      <trkpt lat="42.64653" lon="1.68031">
        <ele>2515.812</ele>
        <time>2022-09-17T10:24:52Z</time>
      </trkpt>
      <trkpt lat="42.64652" lon="1.68032">
        <ele>2515.707</ele>
        <time>2022-09-17T10:24:54Z</time>
      </trkpt>
      <trkpt lat="42.64652" lon="1.68032">
        <ele>2515.991</ele>
        <time>2022-09-17T10:24:56Z</time>
      </trkpt>
      <trkpt lat="42.64651" lon="1.68032">
        <ele>2517.325</ele>
        <time>2022-09-17T10:24:58Z</time>
      </trkpt>
      <trkpt lat="42.6465" lon="1.68032">
        <ele>2517.6</ele>
        <time>2022-09-17T10:25:00Z</time>
      </trkpt>
      <trkpt lat="42.6465" lon="1.6803">
        <ele>2517.262</ele>
        <time>2022-09-17T10:25:02Z</time>
      </trkpt>
      <trkpt lat="42.6465" lon="1.6803">
        <ele>2517.293</ele>
        <time>2022-09-17T10:25:04Z</time>
      </trkpt>
      <trkpt lat="42.6465" lon="1.68029">
        <ele>2517.067</ele>
        <time>2022-09-17T10:25:06Z</time>
      </trkpt>
      <trkpt lat="42.6465" lon="1.68027">
        <ele>2517.768</ele>
        <time>2022-09-17T10:25:08Z</time>
      </trkpt>
      <trkpt lat="42.64649" lon="1.68026">
        <ele>2518.264</ele>
        <time>2022-09-17T10:25:10Z</time>
      </trkpt>
      <trkpt lat="42.64649" lon="1.68026">
        <ele>2518.264</ele>
        <time>2022-09-17T10:25:12Z</time>
      </trkpt>
      <trkpt lat="42.64649" lon="1.68026">
        <ele>2518.863</ele>
        <time>2022-09-17T10:25:14Z</time>
      </trkpt>
      <trkpt lat="42.64649" lon="1.68024">
        <ele>2519.302</ele>
        <time>2022-09-17T10:25:16Z</time>
      </trkpt>
      <trkpt lat="42.64649" lon="1.68024">
        <ele>2519.558</ele>
        <time>2022-09-17T10:25:18Z</time>
      </trkpt>
      <trkpt lat="42.64649" lon="1.68023">
        <ele>2520.108</ele>
        <time>2022-09-17T10:25:20Z</time>
      </trkpt>
      <trkpt lat="42.64648" lon="1.68023">
        <ele>2520.197</ele>
        <time>2022-09-17T10:25:22Z</time>
      </trkpt>
      <trkpt lat="42.64648" lon="1.68022">
        <ele>2519.969</ele>
        <time>2022-09-17T10:25:24Z</time>
      </trkpt>
      <trkpt lat="42.64648" lon="1.68022">
        <ele>2519.976</ele>
        <time>2022-09-17T10:25:26Z</time>
      </trkpt>
      <trkpt lat="42.64648" lon="1.68022">
        <ele>2519.977</ele>
        <time>2022-09-17T10:25:28Z</time>
      </trkpt>
      <trkpt lat="42.64648" lon="1.68022">
        <ele>2519.451</ele>
        <time>2022-09-17T10:25:30Z</time>
      </trkpt>
      <trkpt lat="42.64648" lon="1.68022">
        <ele>2519.449</ele>
        <time>2022-09-17T10:25:32Z</time>
      </trkpt>
      <trkpt lat="42.64648" lon="1.68022">
        <ele>2519.456</ele>
        <time>2022-09-17T10:25:34Z</time>
      </trkpt>
      <trkpt lat="42.64648" lon="1.68022">
        <ele>2519.46</ele>
        <time>2022-09-17T10:25:36Z</time>
      </trkpt>
      <trkpt lat="42.64648" lon="1.68022">
        <ele>2519.462</ele>
        <time>2022-09-17T10:25:38Z</time>
      </trkpt>
      <trkpt lat="42.64648" lon="1.68022">
        <ele>2519.464</ele>
        <time>2022-09-17T10:25:40Z</time>
      </trkpt>
      <trkpt lat="42.64648" lon="1.68022">
        <ele>2519.464</ele>
        <time>2022-09-17T10:25:42Z</time>
      </trkpt>
      <trkpt lat="42.64648" lon="1.68022">
        <ele>2519.46</ele>
        <time>2022-09-17T10:25:44Z</time>
      </trkpt>
      <trkpt lat="42.64648" lon="1.68022">
        <ele>2519.469</ele>
        <time>2022-09-17T10:25:46Z</time>
      </trkpt>
      <trkpt lat="42.64648" lon="1.68022">
        <ele>2519.48</ele>
        <time>2022-09-17T10:25:48Z</time>
      </trkpt>
      <trkpt lat="42.64648" lon="1.68022">
        <ele>2519.486</ele>
        <time>2022-09-17T10:25:50Z</time>
      </trkpt>
      <trkpt lat="42.64648" lon="1.68022">
        <ele>2519.499</ele>
        <time>2022-09-17T10:25:52Z</time>
      </trkpt>
      <trkpt lat="42.64648" lon="1.68021">
        <ele>2519.221</ele>
        <time>2022-09-17T10:25:54Z</time>
      </trkpt>
      <trkpt lat="42.64648" lon="1.6802">
        <ele>2518.89</ele>
        <time>2022-09-17T10:25:56Z</time>
      </trkpt>
      <trkpt lat="42.64648" lon="1.68019">
        <ele>2518.841</ele>
        <time>2022-09-17T10:25:58Z</time>
      </trkpt>
      <trkpt lat="42.64647" lon="1.68019">
        <ele>2519.481</ele>
        <time>2022-09-17T10:26:00Z</time>
      </trkpt>
      <trkpt lat="42.64647" lon="1.68019">
        <ele>2519.64</ele>
        <time>2022-09-17T10:26:02Z</time>
      </trkpt>
      <trkpt lat="42.64647" lon="1.68019">
        <ele>2519.641</ele>
        <time>2022-09-17T10:26:04Z</time>
      </trkpt>
      <trkpt lat="42.64647" lon="1.68019">
        <ele>2519.64</ele>
        <time>2022-09-17T10:26:06Z</time>
      </trkpt>
      <trkpt lat="42.64647" lon="1.68018">
        <ele>2520.496</ele>
        <time>2022-09-17T10:26:08Z</time>
      </trkpt>
      <trkpt lat="42.64645" lon="1.68018">
        <ele>2519.71</ele>
        <time>2022-09-17T10:26:10Z</time>
      </trkpt>
      <trkpt lat="42.64644" lon="1.68016">
        <ele>2519.789</ele>
        <time>2022-09-17T10:26:12Z</time>
      </trkpt>
      <trkpt lat="42.64644" lon="1.68016">
        <ele>2519.763</ele>
        <time>2022-09-17T10:26:14Z</time>
      </trkpt>
      <trkpt lat="42.64644" lon="1.68016">
        <ele>2519.605</ele>
        <time>2022-09-17T10:26:16Z</time>
      </trkpt>
      <trkpt lat="42.64643" lon="1.68015">
        <ele>2519.91</ele>
        <time>2022-09-17T10:26:18Z</time>
      </trkpt>
      <trkpt lat="42.64643" lon="1.68015">
        <ele>2519.744</ele>
        <time>2022-09-17T10:26:20Z</time>
      </trkpt>
      <trkpt lat="42.64643" lon="1.68015">
        <ele>2519.985</ele>
        <time>2022-09-17T10:26:22Z</time>
      </trkpt>
      <trkpt lat="42.64642" lon="1.68014">
        <ele>2520.699</ele>
        <time>2022-09-17T10:26:24Z</time>
      </trkpt>
      <trkpt lat="42.64642" lon="1.68014">
        <ele>2520.703</ele>
        <time>2022-09-17T10:26:26Z</time>
      </trkpt>
      <trkpt lat="42.64642" lon="1.68014">
        <ele>2520.701</ele>
        <time>2022-09-17T10:26:28Z</time>
      </trkpt>
      <trkpt lat="42.64642" lon="1.68014">
        <ele>2520.697</ele>
        <time>2022-09-17T10:26:30Z</time>
      </trkpt>
      <trkpt lat="42.64642" lon="1.68014">
        <ele>2520.695</ele>
        <time>2022-09-17T10:26:32Z</time>
      </trkpt>
      <trkpt lat="42.64642" lon="1.68013">
        <ele>2520.665</ele>
        <time>2022-09-17T10:26:34Z</time>
      </trkpt>
      <trkpt lat="42.64641" lon="1.68013">
        <ele>2521.409</ele>
        <time>2022-09-17T10:26:36Z</time>
      </trkpt>
      <trkpt lat="42.64641" lon="1.68013">
        <ele>2521.278</ele>
        <time>2022-09-17T10:26:38Z</time>
      </trkpt>
      <trkpt lat="42.6464" lon="1.68015">
        <ele>2521.497</ele>
        <time>2022-09-17T10:26:40Z</time>
      </trkpt>
      <trkpt lat="42.6464" lon="1.68016">
        <ele>2521.661</ele>
        <time>2022-09-17T10:26:42Z</time>
      </trkpt>
      <trkpt lat="42.64639" lon="1.68016">
        <ele>2521.03</ele>
        <time>2022-09-17T10:26:44Z</time>
      </trkpt>
      <trkpt lat="42.64638" lon="1.68017">
        <ele>2520.645</ele>
        <time>2022-09-17T10:26:46Z</time>
      </trkpt>
      <trkpt lat="42.64638" lon="1.68017">
        <ele>2520.768</ele>
        <time>2022-09-17T10:26:48Z</time>
      </trkpt>
      <trkpt lat="42.64637" lon="1.68016">
        <ele>2521.439</ele>
        <time>2022-09-17T10:26:50Z</time>
      </trkpt>
      <trkpt lat="42.64637" lon="1.68015">
        <ele>2522.025</ele>
        <time>2022-09-17T10:26:52Z</time>
      </trkpt>
      <trkpt lat="42.64636" lon="1.68015">
        <ele>2522.568</ele>
        <time>2022-09-17T10:26:54Z</time>
      </trkpt>
      <trkpt lat="42.64636" lon="1.68014">
        <ele>2522.927</ele>
        <time>2022-09-17T10:26:56Z</time>
      </trkpt>
      <trkpt lat="42.64636" lon="1.68014">
        <ele>2523.322</ele>
        <time>2022-09-17T10:26:58Z</time>
      </trkpt>
      <trkpt lat="42.64635" lon="1.68015">
        <ele>2522.819</ele>
        <time>2022-09-17T10:27:00Z</time>
      </trkpt>
      <trkpt lat="42.64635" lon="1.68015">
        <ele>2523.532</ele>
        <time>2022-09-17T10:27:02Z</time>
      </trkpt>
      <trkpt lat="42.64634" lon="1.68015">
        <ele>2523.4</ele>
        <time>2022-09-17T10:27:04Z</time>
      </trkpt>
      <trkpt lat="42.64632" lon="1.68015">
        <ele>2523.516</ele>
        <time>2022-09-17T10:27:06Z</time>
      </trkpt>
      <trkpt lat="42.64631" lon="1.68015">
        <ele>2523.829</ele>
        <time>2022-09-17T10:27:08Z</time>
      </trkpt>
      <trkpt lat="42.64631" lon="1.68016">
        <ele>2523.953</ele>
        <time>2022-09-17T10:27:10Z</time>
      </trkpt>
      <trkpt lat="42.6463" lon="1.68016">
        <ele>2524.115</ele>
        <time>2022-09-17T10:27:12Z</time>
      </trkpt>
      <trkpt lat="42.64629" lon="1.68016">
        <ele>2525.045</ele>
        <time>2022-09-17T10:27:14Z</time>
      </trkpt>
      <trkpt lat="42.64628" lon="1.68016">
        <ele>2525.896</ele>
        <time>2022-09-17T10:27:16Z</time>
      </trkpt>
      <trkpt lat="42.64628" lon="1.68015">
        <ele>2525.711</ele>
        <time>2022-09-17T10:27:18Z</time>
      </trkpt>
      <trkpt lat="42.64628" lon="1.68015">
        <ele>2525.551</ele>
        <time>2022-09-17T10:27:20Z</time>
      </trkpt>
      <trkpt lat="42.64628" lon="1.68015">
        <ele>2525.841</ele>
        <time>2022-09-17T10:27:22Z</time>
      </trkpt>
      <trkpt lat="42.64627" lon="1.68015">
        <ele>2525.933</ele>
        <time>2022-09-17T10:27:24Z</time>
      </trkpt>
      <trkpt lat="42.64626" lon="1.68015">
        <ele>2526.603</ele>
        <time>2022-09-17T10:27:26Z</time>
      </trkpt>
      <trkpt lat="42.64626" lon="1.68015">
        <ele>2526.852</ele>
        <time>2022-09-17T10:27:28Z</time>
      </trkpt>
      <trkpt lat="42.64625" lon="1.68015">
        <ele>2527.597</ele>
        <time>2022-09-17T10:27:30Z</time>
      </trkpt>
      <trkpt lat="42.64624" lon="1.68015">
        <ele>2527.749</ele>
        <time>2022-09-17T10:27:32Z</time>
      </trkpt>
      <trkpt lat="42.64625" lon="1.68016">
        <ele>2528.141</ele>
        <time>2022-09-17T10:27:34Z</time>
      </trkpt>
      <trkpt lat="42.64624" lon="1.68016">
        <ele>2528.034</ele>
        <time>2022-09-17T10:27:36Z</time>
      </trkpt>
      <trkpt lat="42.64623" lon="1.68016">
        <ele>2528.11</ele>
        <time>2022-09-17T10:27:38Z</time>
      </trkpt>
      <trkpt lat="42.64623" lon="1.68016">
        <ele>2528.621</ele>
        <time>2022-09-17T10:27:40Z</time>
      </trkpt>
      <trkpt lat="42.64623" lon="1.68014">
        <ele>2528.734</ele>
        <time>2022-09-17T10:27:42Z</time>
      </trkpt>
      <trkpt lat="42.64623" lon="1.68014">
        <ele>2528.47</ele>
        <time>2022-09-17T10:27:44Z</time>
      </trkpt>
      <trkpt lat="42.64623" lon="1.68014">
        <ele>2528.527</ele>
        <time>2022-09-17T10:27:46Z</time>
      </trkpt>
      <trkpt lat="42.64624" lon="1.68013">
        <ele>2529.827</ele>
        <time>2022-09-17T10:27:48Z</time>
      </trkpt>
      <trkpt lat="42.64624" lon="1.68012">
        <ele>2530.141</ele>
        <time>2022-09-17T10:27:50Z</time>
      </trkpt>
      <trkpt lat="42.64623" lon="1.68011">
        <ele>2530.768</ele>
        <time>2022-09-17T10:27:52Z</time>
      </trkpt>
      <trkpt lat="42.64623" lon="1.6801">
        <ele>2531.314</ele>
        <time>2022-09-17T10:27:54Z</time>
      </trkpt>
      <trkpt lat="42.64623" lon="1.6801">
        <ele>2531.487</ele>
        <time>2022-09-17T10:27:56Z</time>
      </trkpt>
      <trkpt lat="42.64623" lon="1.68008">
        <ele>2532.165</ele>
        <time>2022-09-17T10:27:58Z</time>
      </trkpt>
      <trkpt lat="42.64622" lon="1.68006">
        <ele>2532.395</ele>
        <time>2022-09-17T10:28:00Z</time>
      </trkpt>
      <trkpt lat="42.64621" lon="1.68007">
        <ele>2533.323</ele>
        <time>2022-09-17T10:28:02Z</time>
      </trkpt>
      <trkpt lat="42.64621" lon="1.68008">
        <ele>2534.236</ele>
        <time>2022-09-17T10:28:04Z</time>
      </trkpt>
      <trkpt lat="42.6462" lon="1.68009">
        <ele>2534.799</ele>
        <time>2022-09-17T10:28:06Z</time>
      </trkpt>
      <trkpt lat="42.64619" lon="1.68009">
        <ele>2535.111</ele>
        <time>2022-09-17T10:28:08Z</time>
      </trkpt>
      <trkpt lat="42.64618" lon="1.68009">
        <ele>2535.621</ele>
        <time>2022-09-17T10:28:10Z</time>
      </trkpt>
      <trkpt lat="42.64618" lon="1.68009">
        <ele>2535.059</ele>
        <time>2022-09-17T10:28:12Z</time>
      </trkpt>
      <trkpt lat="42.64617" lon="1.6801">
        <ele>2536.105</ele>
        <time>2022-09-17T10:28:14Z</time>
      </trkpt>
      <trkpt lat="42.64616" lon="1.6801">
        <ele>2536.915</ele>
        <time>2022-09-17T10:28:16Z</time>
      </trkpt>
      <trkpt lat="42.64615" lon="1.68011">
        <ele>2537.727</ele>
        <time>2022-09-17T10:28:18Z</time>
      </trkpt>
      <trkpt lat="42.64614" lon="1.68012">
        <ele>2538.881</ele>
        <time>2022-09-17T10:28:20Z</time>
      </trkpt>
      <trkpt lat="42.64614" lon="1.68013">
        <ele>2539.091</ele>
        <time>2022-09-17T10:28:22Z</time>
      </trkpt>
      <trkpt lat="42.64613" lon="1.68013">
        <ele>2539.531</ele>
        <time>2022-09-17T10:28:24Z</time>
      </trkpt>
      <trkpt lat="42.64612" lon="1.68014">
        <ele>2539.713</ele>
        <time>2022-09-17T10:28:26Z</time>
      </trkpt>
      <trkpt lat="42.64612" lon="1.68015">
        <ele>2539.929</ele>
        <time>2022-09-17T10:28:28Z</time>
      </trkpt>
      <trkpt lat="42.64611" lon="1.68015">
        <ele>2540.412</ele>
        <time>2022-09-17T10:28:30Z</time>
      </trkpt>
      <trkpt lat="42.6461" lon="1.68016">
        <ele>2540.919</ele>
        <time>2022-09-17T10:28:32Z</time>
      </trkpt>
      <trkpt lat="42.64609" lon="1.68016">
        <ele>2541.229</ele>
        <time>2022-09-17T10:28:34Z</time>
      </trkpt>
      <trkpt lat="42.64608" lon="1.68016">
        <ele>2540.851</ele>
        <time>2022-09-17T10:28:36Z</time>
      </trkpt>
      <trkpt lat="42.64608" lon="1.68016">
        <ele>2540.933</ele>
        <time>2022-09-17T10:28:38Z</time>
      </trkpt>
      <trkpt lat="42.64608" lon="1.68016">
        <ele>2540.937</ele>
        <time>2022-09-17T10:28:40Z</time>
      </trkpt>
      <trkpt lat="42.64608" lon="1.68016">
        <ele>2540.939</ele>
        <time>2022-09-17T10:28:42Z</time>
      </trkpt>
      <trkpt lat="42.64608" lon="1.68016">
        <ele>2540.94</ele>
        <time>2022-09-17T10:28:44Z</time>
      </trkpt>
      <trkpt lat="42.64608" lon="1.68016">
        <ele>2540.938</ele>
        <time>2022-09-17T10:28:46Z</time>
      </trkpt>
      <trkpt lat="42.64608" lon="1.68016">
        <ele>2540.938</ele>
        <time>2022-09-17T10:28:48Z</time>
      </trkpt>
      <trkpt lat="42.64608" lon="1.68016">
        <ele>2540.938</ele>
        <time>2022-09-17T10:28:50Z</time>
      </trkpt>
      <trkpt lat="42.64608" lon="1.68016">
        <ele>2540.938</ele>
        <time>2022-09-17T10:28:52Z</time>
      </trkpt>
      <trkpt lat="42.64608" lon="1.68016">
        <ele>2540.933</ele>
        <time>2022-09-17T10:28:54Z</time>
      </trkpt>
      <trkpt lat="42.64608" lon="1.68016">
        <ele>2540.933</ele>
        <time>2022-09-17T10:28:56Z</time>
      </trkpt>
      <trkpt lat="42.64608" lon="1.68016">
        <ele>2540.927</ele>
        <time>2022-09-17T10:28:58Z</time>
      </trkpt>
      <trkpt lat="42.64607" lon="1.68015">
        <ele>2540.947</ele>
        <time>2022-09-17T10:29:00Z</time>
      </trkpt>
      <trkpt lat="42.64606" lon="1.68014">
        <ele>2541.15</ele>
        <time>2022-09-17T10:29:02Z</time>
      </trkpt>
      <trkpt lat="42.64606" lon="1.68014">
        <ele>2541.139</ele>
        <time>2022-09-17T10:29:04Z</time>
      </trkpt>
      <trkpt lat="42.64606" lon="1.68014">
        <ele>2540.953</ele>
        <time>2022-09-17T10:29:06Z</time>
      </trkpt>
      <trkpt lat="42.64605" lon="1.68013">
        <ele>2541.058</ele>
        <time>2022-09-17T10:29:08Z</time>
      </trkpt>
      <trkpt lat="42.64605" lon="1.68013">
        <ele>2541.07</ele>
        <time>2022-09-17T10:29:10Z</time>
      </trkpt>
      <trkpt lat="42.64604" lon="1.68013">
        <ele>2541.357</ele>
        <time>2022-09-17T10:29:12Z</time>
      </trkpt>
      <trkpt lat="42.64603" lon="1.68011">
        <ele>2540.563</ele>
        <time>2022-09-17T10:29:14Z</time>
      </trkpt>
      <trkpt lat="42.64601" lon="1.68012">
        <ele>2539.403</ele>
        <time>2022-09-17T10:29:16Z</time>
      </trkpt>
      <trkpt lat="42.64599" lon="1.6801">
        <ele>2538.799</ele>
        <time>2022-09-17T10:29:18Z</time>
      </trkpt>
      <trkpt lat="42.64598" lon="1.68008">
        <ele>2538.072</ele>
        <time>2022-09-17T10:29:20Z</time>
      </trkpt>
      <trkpt lat="42.64597" lon="1.68007">
        <ele>2537.404</ele>
        <time>2022-09-17T10:29:22Z</time>
      </trkpt>
      <trkpt lat="42.64598" lon="1.68007">
        <ele>2537.698</ele>
        <time>2022-09-17T10:29:24Z</time>
      </trkpt>
      <trkpt lat="42.64597" lon="1.68007">
        <ele>2537.738</ele>
        <time>2022-09-17T10:29:26Z</time>
      </trkpt>
      <trkpt lat="42.64597" lon="1.68007">
        <ele>2537.763</ele>
        <time>2022-09-17T10:29:28Z</time>
      </trkpt>
      <trkpt lat="42.64597" lon="1.68007">
        <ele>2537.789</ele>
        <time>2022-09-17T10:29:30Z</time>
      </trkpt>
      <trkpt lat="42.64597" lon="1.68007">
        <ele>2537.809</ele>
        <time>2022-09-17T10:29:32Z</time>
      </trkpt>
      <trkpt lat="42.64597" lon="1.68007">
        <ele>2537.826</ele>
        <time>2022-09-17T10:29:34Z</time>
      </trkpt>
      <trkpt lat="42.64597" lon="1.68007">
        <ele>2537.836</ele>
        <time>2022-09-17T10:29:36Z</time>
      </trkpt>
      <trkpt lat="42.64597" lon="1.68007">
        <ele>2537.847</ele>
        <time>2022-09-17T10:29:38Z</time>
      </trkpt>
      <trkpt lat="42.64597" lon="1.68007">
        <ele>2537.858</ele>
        <time>2022-09-17T10:29:40Z</time>
      </trkpt>
      <trkpt lat="42.64597" lon="1.68007">
        <ele>2537.872</ele>
        <time>2022-09-17T10:29:42Z</time>
      </trkpt>
      <trkpt lat="42.64597" lon="1.68007">
        <ele>2537.878</ele>
        <time>2022-09-17T10:29:44Z</time>
      </trkpt>
      <trkpt lat="42.64598" lon="1.68007">
        <ele>2538.337</ele>
        <time>2022-09-17T10:29:46Z</time>
      </trkpt>
      <trkpt lat="42.64597" lon="1.68005">
        <ele>2539.704</ele>
        <time>2022-09-17T10:29:48Z</time>
      </trkpt>
      <trkpt lat="42.64597" lon="1.68004">
        <ele>2539.711</ele>
        <time>2022-09-17T10:29:50Z</time>
      </trkpt>
      <trkpt lat="42.64596" lon="1.68002">
        <ele>2539.28</ele>
        <time>2022-09-17T10:29:52Z</time>
      </trkpt>
      <trkpt lat="42.64596" lon="1.68">
        <ele>2540.127</ele>
        <time>2022-09-17T10:29:54Z</time>
      </trkpt>
      <trkpt lat="42.64596" lon="1.67999">
        <ele>2541.047</ele>
        <time>2022-09-17T10:29:56Z</time>
      </trkpt>
      <trkpt lat="42.64596" lon="1.67997">
        <ele>2541.725</ele>
        <time>2022-09-17T10:29:58Z</time>
      </trkpt>
      <trkpt lat="42.64596" lon="1.67996">
        <ele>2542.348</ele>
        <time>2022-09-17T10:30:00Z</time>
      </trkpt>
      <trkpt lat="42.64596" lon="1.67995">
        <ele>2543.326</ele>
        <time>2022-09-17T10:30:02Z</time>
      </trkpt>
      <trkpt lat="42.64596" lon="1.67994">
        <ele>2543.679</ele>
        <time>2022-09-17T10:30:04Z</time>
      </trkpt>
      <trkpt lat="42.64595" lon="1.67992">
        <ele>2544.018</ele>
        <time>2022-09-17T10:30:06Z</time>
      </trkpt>
      <trkpt lat="42.64595" lon="1.6799">
        <ele>2544.538</ele>
        <time>2022-09-17T10:30:08Z</time>
      </trkpt>
      <trkpt lat="42.64595" lon="1.67988">
        <ele>2544.884</ele>
        <time>2022-09-17T10:30:10Z</time>
      </trkpt>
      <trkpt lat="42.64595" lon="1.67986">
        <ele>2544.852</ele>
        <time>2022-09-17T10:30:12Z</time>
      </trkpt>
      <trkpt lat="42.64595" lon="1.67984">
        <ele>2544.778</ele>
        <time>2022-09-17T10:30:14Z</time>
      </trkpt>
      <trkpt lat="42.64594" lon="1.67982">
        <ele>2544.937</ele>
        <time>2022-09-17T10:30:16Z</time>
      </trkpt>
      <trkpt lat="42.64594" lon="1.67983">
        <ele>2545.004</ele>
        <time>2022-09-17T10:30:18Z</time>
      </trkpt>
      <trkpt lat="42.64594" lon="1.67983">
        <ele>2545.005</ele>
        <time>2022-09-17T10:30:20Z</time>
      </trkpt>
      <trkpt lat="42.64594" lon="1.67983">
        <ele>2545.008</ele>
        <time>2022-09-17T10:30:22Z</time>
      </trkpt>
      <trkpt lat="42.64594" lon="1.67983">
        <ele>2545.01</ele>
        <time>2022-09-17T10:30:24Z</time>
      </trkpt>
      <trkpt lat="42.64594" lon="1.67981">
        <ele>2545.405</ele>
        <time>2022-09-17T10:30:26Z</time>
      </trkpt>
      <trkpt lat="42.64592" lon="1.67979">
        <ele>2546.285</ele>
        <time>2022-09-17T10:30:28Z</time>
      </trkpt>
      <trkpt lat="42.64591" lon="1.67978">
        <ele>2546.837</ele>
        <time>2022-09-17T10:30:30Z</time>
      </trkpt>
      <trkpt lat="42.6459" lon="1.67977">
        <ele>2547.016</ele>
        <time>2022-09-17T10:30:32Z</time>
      </trkpt>
      <trkpt lat="42.64589" lon="1.67975">
        <ele>2546.799</ele>
        <time>2022-09-17T10:30:34Z</time>
      </trkpt>
      <trkpt lat="42.64588" lon="1.67974">
        <ele>2546.926</ele>
        <time>2022-09-17T10:30:36Z</time>
      </trkpt>
      <trkpt lat="42.64587" lon="1.67972">
        <ele>2547.351</ele>
        <time>2022-09-17T10:30:38Z</time>
      </trkpt>
      <trkpt lat="42.64585" lon="1.67971">
        <ele>2547.773</ele>
        <time>2022-09-17T10:30:40Z</time>
      </trkpt>
      <trkpt lat="42.64584" lon="1.67969">
        <ele>2548.08</ele>
        <time>2022-09-17T10:30:42Z</time>
      </trkpt>
      <trkpt lat="42.64583" lon="1.67968">
        <ele>2548.207</ele>
        <time>2022-09-17T10:30:44Z</time>
      </trkpt>
      <trkpt lat="42.64582" lon="1.67966">
        <ele>2549.165</ele>
        <time>2022-09-17T10:30:46Z</time>
      </trkpt>
      <trkpt lat="42.64582" lon="1.67965">
        <ele>2549.304</ele>
        <time>2022-09-17T10:30:48Z</time>
      </trkpt>
      <trkpt lat="42.64581" lon="1.67964">
        <ele>2549.702</ele>
        <time>2022-09-17T10:30:50Z</time>
      </trkpt>
      <trkpt lat="42.6458" lon="1.67962">
        <ele>2550.107</ele>
        <time>2022-09-17T10:30:52Z</time>
      </trkpt>
      <trkpt lat="42.6458" lon="1.67962">
        <ele>2549.995</ele>
        <time>2022-09-17T10:30:54Z</time>
      </trkpt>
      <trkpt lat="42.6458" lon="1.67962">
        <ele>2549.995</ele>
        <time>2022-09-17T10:30:56Z</time>
      </trkpt>
      <trkpt lat="42.6458" lon="1.67962">
        <ele>2549.993</ele>
        <time>2022-09-17T10:30:58Z</time>
      </trkpt>
      <trkpt lat="42.6458" lon="1.67962">
        <ele>2549.996</ele>
        <time>2022-09-17T10:31:00Z</time>
      </trkpt>
      <trkpt lat="42.6458" lon="1.67962">
        <ele>2549.996</ele>
        <time>2022-09-17T10:31:02Z</time>
      </trkpt>
      <trkpt lat="42.6458" lon="1.67961">
        <ele>2550.61</ele>
        <time>2022-09-17T10:31:04Z</time>
      </trkpt>
      <trkpt lat="42.64579" lon="1.6796">
        <ele>2550.49</ele>
        <time>2022-09-17T10:31:06Z</time>
      </trkpt>
      <trkpt lat="42.64578" lon="1.67959">
        <ele>2551.166</ele>
        <time>2022-09-17T10:31:08Z</time>
      </trkpt>
      <trkpt lat="42.64577" lon="1.67959">
        <ele>2551.234</ele>
        <time>2022-09-17T10:31:10Z</time>
      </trkpt>
      <trkpt lat="42.64577" lon="1.67959">
        <ele>2551.236</ele>
        <time>2022-09-17T10:31:12Z</time>
      </trkpt>
      <trkpt lat="42.64577" lon="1.67959">
        <ele>2551.238</ele>
        <time>2022-09-17T10:31:14Z</time>
      </trkpt>
      <trkpt lat="42.64577" lon="1.67959">
        <ele>2551.24</ele>
        <time>2022-09-17T10:31:16Z</time>
      </trkpt>
      <trkpt lat="42.64577" lon="1.67959">
        <ele>2551.243</ele>
        <time>2022-09-17T10:31:18Z</time>
      </trkpt>
      <trkpt lat="42.64577" lon="1.67958">
        <ele>2551.201</ele>
        <time>2022-09-17T10:31:20Z</time>
      </trkpt>
      <trkpt lat="42.64577" lon="1.67956">
        <ele>2551.08</ele>
        <time>2022-09-17T10:31:22Z</time>
      </trkpt>
      <trkpt lat="42.64576" lon="1.67955">
        <ele>2551.361</ele>
        <time>2022-09-17T10:31:24Z</time>
      </trkpt>
      <trkpt lat="42.64576" lon="1.67955">
        <ele>2551.382</ele>
        <time>2022-09-17T10:31:26Z</time>
      </trkpt>
      <trkpt lat="42.64575" lon="1.67954">
        <ele>2551.482</ele>
        <time>2022-09-17T10:31:28Z</time>
      </trkpt>
      <trkpt lat="42.64574" lon="1.67952">
        <ele>2551.395</ele>
        <time>2022-09-17T10:31:30Z</time>
      </trkpt>
      <trkpt lat="42.64574" lon="1.67951">
        <ele>2550.879</ele>
        <time>2022-09-17T10:31:32Z</time>
      </trkpt>
      <trkpt lat="42.64574" lon="1.6795">
        <ele>2551.182</ele>
        <time>2022-09-17T10:31:34Z</time>
      </trkpt>
      <trkpt lat="42.64573" lon="1.6795">
        <ele>2551.666</ele>
        <time>2022-09-17T10:31:36Z</time>
      </trkpt>
      <trkpt lat="42.64573" lon="1.67949">
        <ele>2551.398</ele>
        <time>2022-09-17T10:31:38Z</time>
      </trkpt>
      <trkpt lat="42.64572" lon="1.67949">
        <ele>2551.389</ele>
        <time>2022-09-17T10:31:40Z</time>
      </trkpt>
      <trkpt lat="42.64572" lon="1.67948">
        <ele>2551.571</ele>
        <time>2022-09-17T10:31:42Z</time>
      </trkpt>
      <trkpt lat="42.6457" lon="1.67947">
        <ele>2551.477</ele>
        <time>2022-09-17T10:31:44Z</time>
      </trkpt>
      <trkpt lat="42.6457" lon="1.67947">
        <ele>2551.206</ele>
        <time>2022-09-17T10:31:46Z</time>
      </trkpt>
      <trkpt lat="42.64569" lon="1.67946">
        <ele>2550.726</ele>
        <time>2022-09-17T10:31:48Z</time>
      </trkpt>
      <trkpt lat="42.64569" lon="1.67945">
        <ele>2550.96</ele>
        <time>2022-09-17T10:31:50Z</time>
      </trkpt>
      <trkpt lat="42.64568" lon="1.67944">
        <ele>2551.079</ele>
        <time>2022-09-17T10:31:52Z</time>
      </trkpt>
      <trkpt lat="42.64567" lon="1.67943">
        <ele>2551.074</ele>
        <time>2022-09-17T10:31:54Z</time>
      </trkpt>
      <trkpt lat="42.64566" lon="1.67942">
        <ele>2551.216</ele>
        <time>2022-09-17T10:31:56Z</time>
      </trkpt>
      <trkpt lat="42.64566" lon="1.67941">
        <ele>2551.759</ele>
        <time>2022-09-17T10:31:58Z</time>
      </trkpt>
      <trkpt lat="42.64566" lon="1.67941">
        <ele>2552.151</ele>
        <time>2022-09-17T10:32:00Z</time>
      </trkpt>
      <trkpt lat="42.64565" lon="1.6794">
        <ele>2552.292</ele>
        <time>2022-09-17T10:32:02Z</time>
      </trkpt>
      <trkpt lat="42.64564" lon="1.67939">
        <ele>2552.086</ele>
        <time>2022-09-17T10:32:04Z</time>
      </trkpt>
      <trkpt lat="42.64563" lon="1.67938">
        <ele>2551.62</ele>
        <time>2022-09-17T10:32:06Z</time>
      </trkpt>
      <trkpt lat="42.64563" lon="1.67937">
        <ele>2551.347</ele>
        <time>2022-09-17T10:32:08Z</time>
      </trkpt>
      <trkpt lat="42.64562" lon="1.67936">
        <ele>2551.135</ele>
        <time>2022-09-17T10:32:10Z</time>
      </trkpt>
      <trkpt lat="42.6456" lon="1.67936">
        <ele>2551.4</ele>
        <time>2022-09-17T10:32:12Z</time>
      </trkpt>
      <trkpt lat="42.6456" lon="1.67936">
        <ele>2551.579</ele>
        <time>2022-09-17T10:32:14Z</time>
      </trkpt>
      <trkpt lat="42.64558" lon="1.67936">
        <ele>2551.973</ele>
        <time>2022-09-17T10:32:16Z</time>
      </trkpt>
      <trkpt lat="42.64557" lon="1.67937">
        <ele>2552.018</ele>
        <time>2022-09-17T10:32:18Z</time>
      </trkpt>
      <trkpt lat="42.64556" lon="1.67937">
        <ele>2552.893</ele>
        <time>2022-09-17T10:32:20Z</time>
      </trkpt>
      <trkpt lat="42.64555" lon="1.67937">
        <ele>2552.998</ele>
        <time>2022-09-17T10:32:22Z</time>
      </trkpt>
      <trkpt lat="42.64554" lon="1.67937">
        <ele>2553.306</ele>
        <time>2022-09-17T10:32:24Z</time>
      </trkpt>
      <trkpt lat="42.64553" lon="1.67937">
        <ele>2552.738</ele>
        <time>2022-09-17T10:32:26Z</time>
      </trkpt>
      <trkpt lat="42.64552" lon="1.67936">
        <ele>2552.364</ele>
        <time>2022-09-17T10:32:28Z</time>
      </trkpt>
      <trkpt lat="42.64551" lon="1.67936">
        <ele>2552.643</ele>
        <time>2022-09-17T10:32:30Z</time>
      </trkpt>
      <trkpt lat="42.6455" lon="1.67935">
        <ele>2552.459</ele>
        <time>2022-09-17T10:32:32Z</time>
      </trkpt>
      <trkpt lat="42.64549" lon="1.67935">
        <ele>2552.316</ele>
        <time>2022-09-17T10:32:34Z</time>
      </trkpt>
      <trkpt lat="42.64548" lon="1.67935">
        <ele>2552.763</ele>
        <time>2022-09-17T10:32:36Z</time>
      </trkpt>
      <trkpt lat="42.64547" lon="1.67934">
        <ele>2552.863</ele>
        <time>2022-09-17T10:32:38Z</time>
      </trkpt>
      <trkpt lat="42.64547" lon="1.67934">
        <ele>2552.701</ele>
        <time>2022-09-17T10:32:40Z</time>
      </trkpt>
      <trkpt lat="42.64547" lon="1.67934">
        <ele>2552.696</ele>
        <time>2022-09-17T10:32:42Z</time>
      </trkpt>
      <trkpt lat="42.64547" lon="1.67934">
        <ele>2552.691</ele>
        <time>2022-09-17T10:32:44Z</time>
      </trkpt>
      <trkpt lat="42.64547" lon="1.67934">
        <ele>2552.689</ele>
        <time>2022-09-17T10:32:46Z</time>
      </trkpt>
      <trkpt lat="42.64547" lon="1.67934">
        <ele>2552.685</ele>
        <time>2022-09-17T10:32:48Z</time>
      </trkpt>
      <trkpt lat="42.64547" lon="1.67934">
        <ele>2552.679</ele>
        <time>2022-09-17T10:32:51Z</time>
      </trkpt>
      <trkpt lat="42.64547" lon="1.67934">
        <ele>2552.675</ele>
        <time>2022-09-17T10:32:53Z</time>
      </trkpt>
      <trkpt lat="42.64547" lon="1.67935">
        <ele>2552.494</ele>
        <time>2022-09-17T10:32:55Z</time>
      </trkpt>
      <trkpt lat="42.64548" lon="1.67935">
        <ele>2552.503</ele>
        <time>2022-09-17T10:32:57Z</time>
      </trkpt>
      <trkpt lat="42.64548" lon="1.67935">
        <ele>2552.663</ele>
        <time>2022-09-17T10:32:59Z</time>
      </trkpt>
      <trkpt lat="42.64548" lon="1.67935">
        <ele>2552.669</ele>
        <time>2022-09-17T10:33:01Z</time>
      </trkpt>
      <trkpt lat="42.64548" lon="1.67935">
        <ele>2552.676</ele>
        <time>2022-09-17T10:33:03Z</time>
      </trkpt>
      <trkpt lat="42.64548" lon="1.67935">
        <ele>2552.686</ele>
        <time>2022-09-17T10:33:05Z</time>
      </trkpt>
      <trkpt lat="42.64548" lon="1.67935">
        <ele>2552.694</ele>
        <time>2022-09-17T10:33:07Z</time>
      </trkpt>
      <trkpt lat="42.64548" lon="1.67934">
        <ele>2553.213</ele>
        <time>2022-09-17T10:33:09Z</time>
      </trkpt>
      <trkpt lat="42.64548" lon="1.67933">
        <ele>2553.365</ele>
        <time>2022-09-17T10:33:11Z</time>
      </trkpt>
      <trkpt lat="42.64548" lon="1.67933">
        <ele>2553.314</ele>
        <time>2022-09-17T10:33:13Z</time>
      </trkpt>
      <trkpt lat="42.64548" lon="1.67932">
        <ele>2553.455</ele>
        <time>2022-09-17T10:33:15Z</time>
      </trkpt>
      <trkpt lat="42.64548" lon="1.67932">
        <ele>2553.451</ele>
        <time>2022-09-17T10:33:17Z</time>
      </trkpt>
      <trkpt lat="42.64547" lon="1.67933">
        <ele>2553.449</ele>
        <time>2022-09-17T10:33:19Z</time>
      </trkpt>
      <trkpt lat="42.64547" lon="1.67933">
        <ele>2553.451</ele>
        <time>2022-09-17T10:33:21Z</time>
      </trkpt>
      <trkpt lat="42.64547" lon="1.67933">
        <ele>2553.45</ele>
        <time>2022-09-17T10:33:23Z</time>
      </trkpt>
      <trkpt lat="42.64547" lon="1.67933">
        <ele>2553.452</ele>
        <time>2022-09-17T10:33:25Z</time>
      </trkpt>
      <trkpt lat="42.64547" lon="1.67933">
        <ele>2553.453</ele>
        <time>2022-09-17T10:33:27Z</time>
      </trkpt>
      <trkpt lat="42.64547" lon="1.67933">
        <ele>2553.45</ele>
        <time>2022-09-17T10:33:29Z</time>
      </trkpt>
      <trkpt lat="42.64547" lon="1.67933">
        <ele>2553.45</ele>
        <time>2022-09-17T10:33:31Z</time>
      </trkpt>
      <trkpt lat="42.64548" lon="1.67933">
        <ele>2553.459</ele>
        <time>2022-09-17T10:33:33Z</time>
      </trkpt>
      <trkpt lat="42.64548" lon="1.67933">
        <ele>2553.202</ele>
        <time>2022-09-17T10:33:35Z</time>
      </trkpt>
      <trkpt lat="42.64548" lon="1.67933">
        <ele>2553.668</ele>
        <time>2022-09-17T10:33:37Z</time>
      </trkpt>
      <trkpt lat="42.64548" lon="1.67933">
        <ele>2553.263</ele>
        <time>2022-09-17T10:33:39Z</time>
      </trkpt>
      <trkpt lat="42.64548" lon="1.67933">
        <ele>2553.249</ele>
        <time>2022-09-17T10:33:41Z</time>
      </trkpt>
      <trkpt lat="42.64548" lon="1.67933">
        <ele>2553.246</ele>
        <time>2022-09-17T10:33:43Z</time>
      </trkpt>
      <trkpt lat="42.64548" lon="1.67932">
        <ele>2553.712</ele>
        <time>2022-09-17T10:33:45Z</time>
      </trkpt>
      <trkpt lat="42.64548" lon="1.67932">
        <ele>2553.723</ele>
        <time>2022-09-17T10:33:47Z</time>
      </trkpt>
      <trkpt lat="42.64548" lon="1.67932">
        <ele>2553.375</ele>
        <time>2022-09-17T10:33:49Z</time>
      </trkpt>
      <trkpt lat="42.64548" lon="1.67932">
        <ele>2553.36</ele>
        <time>2022-09-17T10:33:51Z</time>
      </trkpt>
      <trkpt lat="42.64548" lon="1.67932">
        <ele>2553.355</ele>
        <time>2022-09-17T10:33:53Z</time>
      </trkpt>
      <trkpt lat="42.64548" lon="1.67932">
        <ele>2553.351</ele>
        <time>2022-09-17T10:33:55Z</time>
      </trkpt>
      <trkpt lat="42.64548" lon="1.67932">
        <ele>2553.343</ele>
        <time>2022-09-17T10:33:57Z</time>
      </trkpt>
      <trkpt lat="42.64548" lon="1.67932">
        <ele>2553.339</ele>
        <time>2022-09-17T10:33:59Z</time>
      </trkpt>
      <trkpt lat="42.64548" lon="1.67932">
        <ele>2553.329</ele>
        <time>2022-09-17T10:34:01Z</time>
      </trkpt>
      <trkpt lat="42.64548" lon="1.67932">
        <ele>2553.327</ele>
        <time>2022-09-17T10:34:03Z</time>
      </trkpt>
      <trkpt lat="42.64548" lon="1.67932">
        <ele>2553.295</ele>
        <time>2022-09-17T10:34:05Z</time>
      </trkpt>
      <trkpt lat="42.64548" lon="1.67932">
        <ele>2553.296</ele>
        <time>2022-09-17T10:34:07Z</time>
      </trkpt>
      <trkpt lat="42.64548" lon="1.67932">
        <ele>2553.297</ele>
        <time>2022-09-17T10:34:09Z</time>
      </trkpt>
      <trkpt lat="42.64548" lon="1.67932">
        <ele>2553.3</ele>
        <time>2022-09-17T10:34:11Z</time>
      </trkpt>
      <trkpt lat="42.64548" lon="1.67932">
        <ele>2553.302</ele>
        <time>2022-09-17T10:34:13Z</time>
      </trkpt>
      <trkpt lat="42.64548" lon="1.67932">
        <ele>2553.307</ele>
        <time>2022-09-17T10:34:15Z</time>
      </trkpt>
      <trkpt lat="42.64548" lon="1.67932">
        <ele>2553.302</ele>
        <time>2022-09-17T10:34:17Z</time>
      </trkpt>
      <trkpt lat="42.64548" lon="1.67932">
        <ele>2553.301</ele>
        <time>2022-09-17T10:34:19Z</time>
      </trkpt>
      <trkpt lat="42.64548" lon="1.67932">
        <ele>2553.301</ele>
        <time>2022-09-17T10:34:21Z</time>
      </trkpt>
      <trkpt lat="42.64548" lon="1.67932">
        <ele>2553.303</ele>
        <time>2022-09-17T10:34:23Z</time>
      </trkpt>
      <trkpt lat="42.64548" lon="1.67932">
        <ele>2553.307</ele>
        <time>2022-09-17T10:34:25Z</time>
      </trkpt>
      <trkpt lat="42.64548" lon="1.67932">
        <ele>2553.307</ele>
        <time>2022-09-17T10:34:27Z</time>
      </trkpt>
      <trkpt lat="42.64548" lon="1.67932">
        <ele>2553.307</ele>
        <time>2022-09-17T10:34:29Z</time>
      </trkpt>
      <trkpt lat="42.64548" lon="1.67932">
        <ele>2553.309</ele>
        <time>2022-09-17T10:34:31Z</time>
      </trkpt>
      <trkpt lat="42.64548" lon="1.67932">
        <ele>2553.304</ele>
        <time>2022-09-17T10:34:33Z</time>
      </trkpt>
      <trkpt lat="42.64548" lon="1.67932">
        <ele>2553.304</ele>
        <time>2022-09-17T10:34:35Z</time>
      </trkpt>
      <trkpt lat="42.64548" lon="1.67932">
        <ele>2553.309</ele>
        <time>2022-09-17T10:34:37Z</time>
      </trkpt>
      <trkpt lat="42.64548" lon="1.67932">
        <ele>2553.308</ele>
        <time>2022-09-17T10:34:39Z</time>
      </trkpt>
      <trkpt lat="42.64548" lon="1.67932">
        <ele>2553.421</ele>
        <time>2022-09-17T10:34:41Z</time>
      </trkpt>
      <trkpt lat="42.64548" lon="1.67932">
        <ele>2553.549</ele>
        <time>2022-09-17T10:34:43Z</time>
      </trkpt>
      <trkpt lat="42.64548" lon="1.67932">
        <ele>2553.56</ele>
        <time>2022-09-17T10:34:45Z</time>
      </trkpt>
      <trkpt lat="42.64548" lon="1.67932">
        <ele>2553.679</ele>
        <time>2022-09-17T10:34:47Z</time>
      </trkpt>
      <trkpt lat="42.64548" lon="1.67932">
        <ele>2553.593</ele>
        <time>2022-09-17T10:34:49Z</time>
      </trkpt>
      <trkpt lat="42.64547" lon="1.67933">
        <ele>2553.537</ele>
        <time>2022-09-17T10:34:51Z</time>
      </trkpt>
      <trkpt lat="42.64547" lon="1.67933">
        <ele>2554.057</ele>
        <time>2022-09-17T10:34:53Z</time>
      </trkpt>
      <trkpt lat="42.64546" lon="1.67933">
        <ele>2554.011</ele>
        <time>2022-09-17T10:34:55Z</time>
      </trkpt>
      <trkpt lat="42.64546" lon="1.67933">
        <ele>2554.011</ele>
        <time>2022-09-17T10:34:57Z</time>
      </trkpt>
      <trkpt lat="42.64546" lon="1.67933">
        <ele>2554.011</ele>
        <time>2022-09-17T10:34:59Z</time>
      </trkpt>
      <trkpt lat="42.64546" lon="1.67933">
        <ele>2554.01</ele>
        <time>2022-09-17T10:35:01Z</time>
      </trkpt>
      <trkpt lat="42.64546" lon="1.67933">
        <ele>2554.009</ele>
        <time>2022-09-17T10:35:03Z</time>
      </trkpt>
      <trkpt lat="42.64546" lon="1.67933">
        <ele>2553.864</ele>
        <time>2022-09-17T10:35:05Z</time>
      </trkpt>
      <trkpt lat="42.64546" lon="1.67934">
        <ele>2553.562</ele>
        <time>2022-09-17T10:35:07Z</time>
      </trkpt>
      <trkpt lat="42.64546" lon="1.67934">
        <ele>2553.566</ele>
        <time>2022-09-17T10:35:09Z</time>
      </trkpt>
      <trkpt lat="42.64547" lon="1.67934">
        <ele>2553.566</ele>
        <time>2022-09-17T10:35:11Z</time>
      </trkpt>
      <trkpt lat="42.64547" lon="1.67934">
        <ele>2553.563</ele>
        <time>2022-09-17T10:35:13Z</time>
      </trkpt>
      <trkpt lat="42.64547" lon="1.67934">
        <ele>2553.558</ele>
        <time>2022-09-17T10:35:15Z</time>
      </trkpt>
      <trkpt lat="42.64547" lon="1.67934">
        <ele>2553.6</ele>
        <time>2022-09-17T10:35:17Z</time>
      </trkpt>
      <trkpt lat="42.64547" lon="1.67934">
        <ele>2553.602</ele>
        <time>2022-09-17T10:35:19Z</time>
      </trkpt>
      <trkpt lat="42.64547" lon="1.67934">
        <ele>2553.604</ele>
        <time>2022-09-17T10:35:21Z</time>
      </trkpt>
      <trkpt lat="42.64547" lon="1.67935">
        <ele>2553.683</ele>
        <time>2022-09-17T10:35:23Z</time>
      </trkpt>
      <trkpt lat="42.64546" lon="1.67935">
        <ele>2553.854</ele>
        <time>2022-09-17T10:35:25Z</time>
      </trkpt>
      <trkpt lat="42.64547" lon="1.67935">
        <ele>2554.003</ele>
        <time>2022-09-17T10:35:27Z</time>
      </trkpt>
      <trkpt lat="42.64547" lon="1.67935">
        <ele>2554.053</ele>
        <time>2022-09-17T10:35:29Z</time>
      </trkpt>
      <trkpt lat="42.64547" lon="1.67936">
        <ele>2553.978</ele>
        <time>2022-09-17T10:35:31Z</time>
      </trkpt>
      <trkpt lat="42.64548" lon="1.67935">
        <ele>2553.812</ele>
        <time>2022-09-17T10:35:33Z</time>
      </trkpt>
      <trkpt lat="42.64548" lon="1.67935">
        <ele>2553.805</ele>
        <time>2022-09-17T10:35:35Z</time>
      </trkpt>
      <trkpt lat="42.64548" lon="1.67935">
        <ele>2553.803</ele>
        <time>2022-09-17T10:35:37Z</time>
      </trkpt>
      <trkpt lat="42.64548" lon="1.67935">
        <ele>2553.804</ele>
        <time>2022-09-17T10:35:39Z</time>
      </trkpt>
      <trkpt lat="42.64548" lon="1.67935">
        <ele>2553.807</ele>
        <time>2022-09-17T10:35:41Z</time>
      </trkpt>
      <trkpt lat="42.64548" lon="1.67935">
        <ele>2553.804</ele>
        <time>2022-09-17T10:35:43Z</time>
      </trkpt>
      <trkpt lat="42.64548" lon="1.67935">
        <ele>2553.803</ele>
        <time>2022-09-17T10:35:45Z</time>
      </trkpt>
      <trkpt lat="42.64548" lon="1.67935">
        <ele>2553.801</ele>
        <time>2022-09-17T10:35:47Z</time>
      </trkpt>
      <trkpt lat="42.64548" lon="1.67935">
        <ele>2553.259</ele>
        <time>2022-09-17T10:35:49Z</time>
      </trkpt>
      <trkpt lat="42.64548" lon="1.67935">
        <ele>2553.261</ele>
        <time>2022-09-17T10:35:51Z</time>
      </trkpt>
      <trkpt lat="42.64548" lon="1.67935">
        <ele>2553.067</ele>
        <time>2022-09-17T10:35:53Z</time>
      </trkpt>
      <trkpt lat="42.64548" lon="1.67935">
        <ele>2553.066</ele>
        <time>2022-09-17T10:35:55Z</time>
      </trkpt>
      <trkpt lat="42.64548" lon="1.67935">
        <ele>2553.065</ele>
        <time>2022-09-17T10:35:57Z</time>
      </trkpt>
      <trkpt lat="42.64548" lon="1.67935">
        <ele>2553.067</ele>
        <time>2022-09-17T10:35:59Z</time>
      </trkpt>
      <trkpt lat="42.64548" lon="1.67935">
        <ele>2553.068</ele>
        <time>2022-09-17T10:36:01Z</time>
      </trkpt>
      <trkpt lat="42.64548" lon="1.67935">
        <ele>2553.065</ele>
        <time>2022-09-17T10:36:03Z</time>
      </trkpt>
      <trkpt lat="42.64548" lon="1.67935">
        <ele>2553.067</ele>
        <time>2022-09-17T10:36:05Z</time>
      </trkpt>
      <trkpt lat="42.64548" lon="1.67935">
        <ele>2553.067</ele>
        <time>2022-09-17T10:36:07Z</time>
      </trkpt>
      <trkpt lat="42.64548" lon="1.67934">
        <ele>2552.922</ele>
        <time>2022-09-17T10:36:09Z</time>
      </trkpt>
      <trkpt lat="42.64548" lon="1.67935">
        <ele>2552.527</ele>
        <time>2022-09-17T10:36:11Z</time>
      </trkpt>
      <trkpt lat="42.64548" lon="1.67935">
        <ele>2552.526</ele>
        <time>2022-09-17T10:36:13Z</time>
      </trkpt>
      <trkpt lat="42.64548" lon="1.67935">
        <ele>2552.526</ele>
        <time>2022-09-17T10:36:15Z</time>
      </trkpt>
      <trkpt lat="42.64548" lon="1.67935">
        <ele>2552.526</ele>
        <time>2022-09-17T10:36:17Z</time>
      </trkpt>
      <trkpt lat="42.64548" lon="1.67935">
        <ele>2552.527</ele>
        <time>2022-09-17T10:36:19Z</time>
      </trkpt>
      <trkpt lat="42.64548" lon="1.67935">
        <ele>2552.526</ele>
        <time>2022-09-17T10:36:21Z</time>
      </trkpt>
      <trkpt lat="42.64548" lon="1.67935">
        <ele>2552.528</ele>
        <time>2022-09-17T10:36:23Z</time>
      </trkpt>
      <trkpt lat="42.64548" lon="1.67935">
        <ele>2552.529</ele>
        <time>2022-09-17T10:36:25Z</time>
      </trkpt>
      <trkpt lat="42.64548" lon="1.67935">
        <ele>2552.527</ele>
        <time>2022-09-17T10:36:27Z</time>
      </trkpt>
      <trkpt lat="42.64548" lon="1.67935">
        <ele>2552.527</ele>
        <time>2022-09-17T10:36:29Z</time>
      </trkpt>
      <trkpt lat="42.64548" lon="1.67935">
        <ele>2552.528</ele>
        <time>2022-09-17T10:36:31Z</time>
      </trkpt>
      <trkpt lat="42.64548" lon="1.67935">
        <ele>2552.528</ele>
        <time>2022-09-17T10:36:33Z</time>
      </trkpt>
      <trkpt lat="42.64548" lon="1.67935">
        <ele>2552.528</ele>
        <time>2022-09-17T10:36:35Z</time>
      </trkpt>
      <trkpt lat="42.64548" lon="1.67935">
        <ele>2552.532</ele>
        <time>2022-09-17T10:36:37Z</time>
      </trkpt>
      <trkpt lat="42.64548" lon="1.67935">
        <ele>2552.534</ele>
        <time>2022-09-17T10:36:39Z</time>
      </trkpt>
      <trkpt lat="42.64548" lon="1.67935">
        <ele>2552.533</ele>
        <time>2022-09-17T10:36:41Z</time>
      </trkpt>
      <trkpt lat="42.64548" lon="1.67935">
        <ele>2552.534</ele>
        <time>2022-09-17T10:36:43Z</time>
      </trkpt>
      <trkpt lat="42.64548" lon="1.67935">
        <ele>2552.536</ele>
        <time>2022-09-17T10:36:45Z</time>
      </trkpt>
      <trkpt lat="42.64548" lon="1.67935">
        <ele>2552.533</ele>
        <time>2022-09-17T10:36:47Z</time>
      </trkpt>
      <trkpt lat="42.64548" lon="1.67935">
        <ele>2552.532</ele>
        <time>2022-09-17T10:36:49Z</time>
      </trkpt>
      <trkpt lat="42.64548" lon="1.67935">
        <ele>2552.533</ele>
        <time>2022-09-17T10:36:51Z</time>
      </trkpt>
      <trkpt lat="42.64548" lon="1.67935">
        <ele>2552.533</ele>
        <time>2022-09-17T10:36:53Z</time>
      </trkpt>
      <trkpt lat="42.64548" lon="1.67935">
        <ele>2552.533</ele>
        <time>2022-09-17T10:36:55Z</time>
      </trkpt>
      <trkpt lat="42.64548" lon="1.67935">
        <ele>2552.535</ele>
        <time>2022-09-17T10:36:57Z</time>
      </trkpt>
      <trkpt lat="42.64548" lon="1.67935">
        <ele>2552.533</ele>
        <time>2022-09-17T10:36:59Z</time>
      </trkpt>
      <trkpt lat="42.64548" lon="1.67934">
        <ele>2552.41</ele>
        <time>2022-09-17T10:37:01Z</time>
      </trkpt>
      <trkpt lat="42.64548" lon="1.67934">
        <ele>2552.436</ele>
        <time>2022-09-17T10:37:03Z</time>
      </trkpt>
      <trkpt lat="42.64548" lon="1.67934">
        <ele>2552.439</ele>
        <time>2022-09-17T10:37:05Z</time>
      </trkpt>
      <trkpt lat="42.64548" lon="1.67934">
        <ele>2552.437</ele>
        <time>2022-09-17T10:37:07Z</time>
      </trkpt>
      <trkpt lat="42.64548" lon="1.67934">
        <ele>2552.437</ele>
        <time>2022-09-17T10:37:09Z</time>
      </trkpt>
      <trkpt lat="42.64548" lon="1.67934">
        <ele>2552.435</ele>
        <time>2022-09-17T10:37:11Z</time>
      </trkpt>
      <trkpt lat="42.64548" lon="1.67934">
        <ele>2552.433</ele>
        <time>2022-09-17T10:37:13Z</time>
      </trkpt>
      <trkpt lat="42.64548" lon="1.67934">
        <ele>2552.432</ele>
        <time>2022-09-17T10:37:15Z</time>
      </trkpt>
      <trkpt lat="42.64548" lon="1.67934">
        <ele>2552.432</ele>
        <time>2022-09-17T10:37:17Z</time>
      </trkpt>
      <trkpt lat="42.64548" lon="1.67934">
        <ele>2552.431</ele>
        <time>2022-09-17T10:37:19Z</time>
      </trkpt>
      <trkpt lat="42.64548" lon="1.67934">
        <ele>2552.433</ele>
        <time>2022-09-17T10:37:21Z</time>
      </trkpt>
      <trkpt lat="42.64548" lon="1.67934">
        <ele>2552.432</ele>
        <time>2022-09-17T10:37:23Z</time>
      </trkpt>
      <trkpt lat="42.64548" lon="1.67934">
        <ele>2552.431</ele>
        <time>2022-09-17T10:37:25Z</time>
      </trkpt>
      <trkpt lat="42.64548" lon="1.67934">
        <ele>2552.432</ele>
        <time>2022-09-17T10:37:27Z</time>
      </trkpt>
      <trkpt lat="42.64548" lon="1.67934">
        <ele>2552.431</ele>
        <time>2022-09-17T10:37:29Z</time>
      </trkpt>
      <trkpt lat="42.64548" lon="1.67934">
        <ele>2552.429</ele>
        <time>2022-09-17T10:37:31Z</time>
      </trkpt>
      <trkpt lat="42.64548" lon="1.67934">
        <ele>2552.43</ele>
        <time>2022-09-17T10:37:33Z</time>
      </trkpt>
      <trkpt lat="42.64548" lon="1.67934">
        <ele>2552.431</ele>
        <time>2022-09-17T10:37:35Z</time>
      </trkpt>
      <trkpt lat="42.64548" lon="1.67934">
        <ele>2552.43</ele>
        <time>2022-09-17T10:37:37Z</time>
      </trkpt>
      <trkpt lat="42.64548" lon="1.67934">
        <ele>2552.431</ele>
        <time>2022-09-17T10:37:39Z</time>
      </trkpt>
      <trkpt lat="42.64548" lon="1.67934">
        <ele>2552.434</ele>
        <time>2022-09-17T10:37:41Z</time>
      </trkpt>
      <trkpt lat="42.64548" lon="1.67934">
        <ele>2552.432</ele>
        <time>2022-09-17T10:37:43Z</time>
      </trkpt>
      <trkpt lat="42.64548" lon="1.67934">
        <ele>2552.433</ele>
        <time>2022-09-17T10:37:45Z</time>
      </trkpt>
      <trkpt lat="42.64548" lon="1.67934">
        <ele>2552.433</ele>
        <time>2022-09-17T10:37:47Z</time>
      </trkpt>
      <trkpt lat="42.64548" lon="1.67934">
        <ele>2552.434</ele>
        <time>2022-09-17T10:37:49Z</time>
      </trkpt>
      <trkpt lat="42.64548" lon="1.67934">
        <ele>2552.435</ele>
        <time>2022-09-17T10:37:51Z</time>
      </trkpt>
      <trkpt lat="42.64548" lon="1.67934">
        <ele>2552.436</ele>
        <time>2022-09-17T10:37:53Z</time>
      </trkpt>
      <trkpt lat="42.64548" lon="1.67934">
        <ele>2552.434</ele>
        <time>2022-09-17T10:37:55Z</time>
      </trkpt>
      <trkpt lat="42.64548" lon="1.67934">
        <ele>2552.433</ele>
        <time>2022-09-17T10:37:57Z</time>
      </trkpt>
      <trkpt lat="42.64548" lon="1.67934">
        <ele>2552.432</ele>
        <time>2022-09-17T10:37:59Z</time>
      </trkpt>
      <trkpt lat="42.64548" lon="1.67934">
        <ele>2552.432</ele>
        <time>2022-09-17T10:38:01Z</time>
      </trkpt>
      <trkpt lat="42.64548" lon="1.67934">
        <ele>2552.434</ele>
        <time>2022-09-17T10:38:03Z</time>
      </trkpt>
      <trkpt lat="42.64548" lon="1.67934">
        <ele>2552.436</ele>
        <time>2022-09-17T10:38:05Z</time>
      </trkpt>
      <trkpt lat="42.64548" lon="1.67934">
        <ele>2552.437</ele>
        <time>2022-09-17T10:38:07Z</time>
      </trkpt>
      <trkpt lat="42.64548" lon="1.67934">
        <ele>2552.437</ele>
        <time>2022-09-17T10:38:09Z</time>
      </trkpt>
      <trkpt lat="42.64548" lon="1.67934">
        <ele>2552.441</ele>
        <time>2022-09-17T10:38:11Z</time>
      </trkpt>
      <trkpt lat="42.64548" lon="1.67934">
        <ele>2552.438</ele>
        <time>2022-09-17T10:38:13Z</time>
      </trkpt>
      <trkpt lat="42.64548" lon="1.67934">
        <ele>2552.442</ele>
        <time>2022-09-17T10:38:15Z</time>
      </trkpt>
      <trkpt lat="42.64548" lon="1.67934">
        <ele>2552.444</ele>
        <time>2022-09-17T10:38:17Z</time>
      </trkpt>
      <trkpt lat="42.64548" lon="1.67934">
        <ele>2552.444</ele>
        <time>2022-09-17T10:38:19Z</time>
      </trkpt>
      <trkpt lat="42.64548" lon="1.67934">
        <ele>2552.448</ele>
        <time>2022-09-17T10:38:21Z</time>
      </trkpt>
      <trkpt lat="42.64548" lon="1.67934">
        <ele>2552.447</ele>
        <time>2022-09-17T10:38:23Z</time>
      </trkpt>
      <trkpt lat="42.64548" lon="1.67935">
        <ele>2552.477</ele>
        <time>2022-09-17T10:38:25Z</time>
      </trkpt>
      <trkpt lat="42.64548" lon="1.67935">
        <ele>2552.657</ele>
        <time>2022-09-17T10:38:27Z</time>
      </trkpt>
      <trkpt lat="42.64548" lon="1.67935">
        <ele>2552.659</ele>
        <time>2022-09-17T10:38:29Z</time>
      </trkpt>
      <trkpt lat="42.64548" lon="1.67935">
        <ele>2552.659</ele>
        <time>2022-09-17T10:38:31Z</time>
      </trkpt>
      <trkpt lat="42.64548" lon="1.67935">
        <ele>2552.661</ele>
        <time>2022-09-17T10:38:33Z</time>
      </trkpt>
      <trkpt lat="42.64548" lon="1.67935">
        <ele>2552.663</ele>
        <time>2022-09-17T10:38:35Z</time>
      </trkpt>
      <trkpt lat="42.64548" lon="1.67935">
        <ele>2552.667</ele>
        <time>2022-09-17T10:38:37Z</time>
      </trkpt>
      <trkpt lat="42.64548" lon="1.67935">
        <ele>2552.517</ele>
        <time>2022-09-17T10:38:39Z</time>
      </trkpt>
      <trkpt lat="42.64548" lon="1.67935">
        <ele>2552.518</ele>
        <time>2022-09-17T10:38:41Z</time>
      </trkpt>
      <trkpt lat="42.64548" lon="1.67935">
        <ele>2552.521</ele>
        <time>2022-09-17T10:38:43Z</time>
      </trkpt>
      <trkpt lat="42.64548" lon="1.67935">
        <ele>2552.518</ele>
        <time>2022-09-17T10:38:45Z</time>
      </trkpt>
      <trkpt lat="42.64548" lon="1.67935">
        <ele>2552.518</ele>
        <time>2022-09-17T10:38:47Z</time>
      </trkpt>
      <trkpt lat="42.64548" lon="1.67935">
        <ele>2552.52</ele>
        <time>2022-09-17T10:38:49Z</time>
      </trkpt>
      <trkpt lat="42.64548" lon="1.67935">
        <ele>2552.52</ele>
        <time>2022-09-17T10:38:51Z</time>
      </trkpt>
      <trkpt lat="42.64548" lon="1.67935">
        <ele>2552.519</ele>
        <time>2022-09-17T10:38:53Z</time>
      </trkpt>
      <trkpt lat="42.64548" lon="1.67935">
        <ele>2552.518</ele>
        <time>2022-09-17T10:38:55Z</time>
      </trkpt>
      <trkpt lat="42.64548" lon="1.67935">
        <ele>2552.519</ele>
        <time>2022-09-17T10:38:57Z</time>
      </trkpt>
      <trkpt lat="42.64548" lon="1.67935">
        <ele>2552.52</ele>
        <time>2022-09-17T10:38:59Z</time>
      </trkpt>
      <trkpt lat="42.64548" lon="1.67935">
        <ele>2552.521</ele>
        <time>2022-09-17T10:39:01Z</time>
      </trkpt>
      <trkpt lat="42.64548" lon="1.67935">
        <ele>2552.633</ele>
        <time>2022-09-17T10:39:03Z</time>
      </trkpt>
      <trkpt lat="42.64548" lon="1.67935">
        <ele>2552.655</ele>
        <time>2022-09-17T10:39:05Z</time>
      </trkpt>
      <trkpt lat="42.64548" lon="1.67935">
        <ele>2552.657</ele>
        <time>2022-09-17T10:39:07Z</time>
      </trkpt>
      <trkpt lat="42.64548" lon="1.67935">
        <ele>2552.656</ele>
        <time>2022-09-17T10:39:09Z</time>
      </trkpt>
      <trkpt lat="42.64548" lon="1.67935">
        <ele>2552.659</ele>
        <time>2022-09-17T10:39:11Z</time>
      </trkpt>
      <trkpt lat="42.64548" lon="1.67935">
        <ele>2552.658</ele>
        <time>2022-09-17T10:39:13Z</time>
      </trkpt>
      <trkpt lat="42.64548" lon="1.67935">
        <ele>2552.659</ele>
        <time>2022-09-17T10:39:15Z</time>
      </trkpt>
      <trkpt lat="42.64548" lon="1.67935">
        <ele>2552.66</ele>
        <time>2022-09-17T10:39:17Z</time>
      </trkpt>
      <trkpt lat="42.64548" lon="1.67935">
        <ele>2552.663</ele>
        <time>2022-09-17T10:39:19Z</time>
      </trkpt>
      <trkpt lat="42.64548" lon="1.67935">
        <ele>2552.666</ele>
        <time>2022-09-17T10:39:21Z</time>
      </trkpt>
      <trkpt lat="42.64548" lon="1.67935">
        <ele>2552.666</ele>
        <time>2022-09-17T10:39:23Z</time>
      </trkpt>
      <trkpt lat="42.64548" lon="1.67935">
        <ele>2552.664</ele>
        <time>2022-09-17T10:39:25Z</time>
      </trkpt>
      <trkpt lat="42.64548" lon="1.67935">
        <ele>2552.664</ele>
        <time>2022-09-17T10:39:27Z</time>
      </trkpt>
      <trkpt lat="42.64548" lon="1.67935">
        <ele>2552.664</ele>
        <time>2022-09-17T10:39:29Z</time>
      </trkpt>
      <trkpt lat="42.64548" lon="1.67935">
        <ele>2552.664</ele>
        <time>2022-09-17T10:39:31Z</time>
      </trkpt>
      <trkpt lat="42.64548" lon="1.67935">
        <ele>2552.664</ele>
        <time>2022-09-17T10:39:33Z</time>
      </trkpt>
      <trkpt lat="42.64548" lon="1.67935">
        <ele>2552.666</ele>
        <time>2022-09-17T10:39:35Z</time>
      </trkpt>
      <trkpt lat="42.64548" lon="1.67935">
        <ele>2552.669</ele>
        <time>2022-09-17T10:39:37Z</time>
      </trkpt>
      <trkpt lat="42.64548" lon="1.67935">
        <ele>2552.667</ele>
        <time>2022-09-17T10:39:39Z</time>
      </trkpt>
      <trkpt lat="42.64548" lon="1.67935">
        <ele>2552.667</ele>
        <time>2022-09-17T10:39:41Z</time>
      </trkpt>
      <trkpt lat="42.64548" lon="1.67935">
        <ele>2552.669</ele>
        <time>2022-09-17T10:39:43Z</time>
      </trkpt>
      <trkpt lat="42.64548" lon="1.67935">
        <ele>2552.67</ele>
        <time>2022-09-17T10:39:45Z</time>
      </trkpt>
      <trkpt lat="42.64548" lon="1.67935">
        <ele>2552.671</ele>
        <time>2022-09-17T10:39:47Z</time>
      </trkpt>
      <trkpt lat="42.64548" lon="1.67935">
        <ele>2552.671</ele>
        <time>2022-09-17T10:39:49Z</time>
      </trkpt>
      <trkpt lat="42.64548" lon="1.67935">
        <ele>2552.672</ele>
        <time>2022-09-17T10:39:51Z</time>
      </trkpt>
      <trkpt lat="42.64548" lon="1.67935">
        <ele>2552.672</ele>
        <time>2022-09-17T10:39:53Z</time>
      </trkpt>
      <trkpt lat="42.64548" lon="1.67935">
        <ele>2552.673</ele>
        <time>2022-09-17T10:39:55Z</time>
      </trkpt>
      <trkpt lat="42.64548" lon="1.67935">
        <ele>2552.673</ele>
        <time>2022-09-17T10:39:57Z</time>
      </trkpt>
      <trkpt lat="42.64548" lon="1.67935">
        <ele>2552.677</ele>
        <time>2022-09-17T10:39:59Z</time>
      </trkpt>
      <trkpt lat="42.64548" lon="1.67935">
        <ele>2552.68</ele>
        <time>2022-09-17T10:40:01Z</time>
      </trkpt>
      <trkpt lat="42.64548" lon="1.67935">
        <ele>2552.68</ele>
        <time>2022-09-17T10:40:03Z</time>
      </trkpt>
      <trkpt lat="42.64548" lon="1.67935">
        <ele>2552.682</ele>
        <time>2022-09-17T10:40:05Z</time>
      </trkpt>
      <trkpt lat="42.64548" lon="1.67935">
        <ele>2552.682</ele>
        <time>2022-09-17T10:40:07Z</time>
      </trkpt>
      <trkpt lat="42.64548" lon="1.67935">
        <ele>2552.681</ele>
        <time>2022-09-17T10:40:09Z</time>
      </trkpt>
      <trkpt lat="42.64548" lon="1.67935">
        <ele>2552.683</ele>
        <time>2022-09-17T10:40:11Z</time>
      </trkpt>
      <trkpt lat="42.64548" lon="1.67935">
        <ele>2552.683</ele>
        <time>2022-09-17T10:40:13Z</time>
      </trkpt>
      <trkpt lat="42.64548" lon="1.67935">
        <ele>2552.686</ele>
        <time>2022-09-17T10:40:15Z</time>
      </trkpt>
      <trkpt lat="42.64548" lon="1.67935">
        <ele>2552.687</ele>
        <time>2022-09-17T10:40:17Z</time>
      </trkpt>
      <trkpt lat="42.64548" lon="1.67935">
        <ele>2552.687</ele>
        <time>2022-09-17T10:40:19Z</time>
      </trkpt>
      <trkpt lat="42.64548" lon="1.67935">
        <ele>2552.687</ele>
        <time>2022-09-17T10:40:21Z</time>
      </trkpt>
      <trkpt lat="42.64548" lon="1.67935">
        <ele>2552.686</ele>
        <time>2022-09-17T10:40:23Z</time>
      </trkpt>
      <trkpt lat="42.64548" lon="1.67935">
        <ele>2552.689</ele>
        <time>2022-09-17T10:40:25Z</time>
      </trkpt>
      <trkpt lat="42.64548" lon="1.67935">
        <ele>2552.688</ele>
        <time>2022-09-17T10:40:27Z</time>
      </trkpt>
      <trkpt lat="42.64548" lon="1.67935">
        <ele>2552.687</ele>
        <time>2022-09-17T10:40:29Z</time>
      </trkpt>
      <trkpt lat="42.64548" lon="1.67935">
        <ele>2552.654</ele>
        <time>2022-09-17T10:40:31Z</time>
      </trkpt>
      <trkpt lat="42.64548" lon="1.67935">
        <ele>2552.68</ele>
        <time>2022-09-17T10:40:33Z</time>
      </trkpt>
      <trkpt lat="42.64548" lon="1.67935">
        <ele>2552.678</ele>
        <time>2022-09-17T10:40:35Z</time>
      </trkpt>
      <trkpt lat="42.64548" lon="1.67935">
        <ele>2552.68</ele>
        <time>2022-09-17T10:40:37Z</time>
      </trkpt>
      <trkpt lat="42.64548" lon="1.67935">
        <ele>2552.681</ele>
        <time>2022-09-17T10:40:39Z</time>
      </trkpt>
      <trkpt lat="42.64548" lon="1.67935">
        <ele>2552.68</ele>
        <time>2022-09-17T10:40:41Z</time>
      </trkpt>
      <trkpt lat="42.64548" lon="1.67935">
        <ele>2552.679</ele>
        <time>2022-09-17T10:40:43Z</time>
      </trkpt>
      <trkpt lat="42.64548" lon="1.67935">
        <ele>2552.678</ele>
        <time>2022-09-17T10:40:45Z</time>
      </trkpt>
      <trkpt lat="42.64548" lon="1.67935">
        <ele>2552.68</ele>
        <time>2022-09-17T10:40:47Z</time>
      </trkpt>
      <trkpt lat="42.64548" lon="1.67935">
        <ele>2552.678</ele>
        <time>2022-09-17T10:40:49Z</time>
      </trkpt>
      <trkpt lat="42.64548" lon="1.67935">
        <ele>2552.679</ele>
        <time>2022-09-17T10:40:51Z</time>
      </trkpt>
      <trkpt lat="42.64548" lon="1.67935">
        <ele>2552.677</ele>
        <time>2022-09-17T10:40:53Z</time>
      </trkpt>
      <trkpt lat="42.64548" lon="1.67935">
        <ele>2552.679</ele>
        <time>2022-09-17T10:40:55Z</time>
      </trkpt>
      <trkpt lat="42.64548" lon="1.67935">
        <ele>2552.679</ele>
        <time>2022-09-17T10:40:57Z</time>
      </trkpt>
      <trkpt lat="42.64548" lon="1.67935">
        <ele>2552.682</ele>
        <time>2022-09-17T10:40:59Z</time>
      </trkpt>
      <trkpt lat="42.64548" lon="1.67935">
        <ele>2552.683</ele>
        <time>2022-09-17T10:41:01Z</time>
      </trkpt>
      <trkpt lat="42.64548" lon="1.67935">
        <ele>2552.684</ele>
        <time>2022-09-17T10:41:03Z</time>
      </trkpt>
      <trkpt lat="42.64548" lon="1.67935">
        <ele>2552.685</ele>
        <time>2022-09-17T10:41:05Z</time>
      </trkpt>
      <trkpt lat="42.64548" lon="1.67935">
        <ele>2552.685</ele>
        <time>2022-09-17T10:41:07Z</time>
      </trkpt>
      <trkpt lat="42.64548" lon="1.67935">
        <ele>2552.69</ele>
        <time>2022-09-17T10:41:09Z</time>
      </trkpt>
      <trkpt lat="42.64548" lon="1.67935">
        <ele>2552.692</ele>
        <time>2022-09-17T10:41:11Z</time>
      </trkpt>
      <trkpt lat="42.64548" lon="1.67935">
        <ele>2552.695</ele>
        <time>2022-09-17T10:41:13Z</time>
      </trkpt>
      <trkpt lat="42.64548" lon="1.67935">
        <ele>2552.695</ele>
        <time>2022-09-17T10:41:15Z</time>
      </trkpt>
      <trkpt lat="42.64548" lon="1.67935">
        <ele>2552.695</ele>
        <time>2022-09-17T10:41:17Z</time>
      </trkpt>
      <trkpt lat="42.64548" lon="1.67935">
        <ele>2552.696</ele>
        <time>2022-09-17T10:41:19Z</time>
      </trkpt>
      <trkpt lat="42.64548" lon="1.67935">
        <ele>2552.697</ele>
        <time>2022-09-17T10:41:21Z</time>
      </trkpt>
      <trkpt lat="42.64548" lon="1.67935">
        <ele>2552.698</ele>
        <time>2022-09-17T10:41:23Z</time>
      </trkpt>
      <trkpt lat="42.64548" lon="1.67935">
        <ele>2552.699</ele>
        <time>2022-09-17T10:41:25Z</time>
      </trkpt>
      <trkpt lat="42.64548" lon="1.67935">
        <ele>2552.699</ele>
        <time>2022-09-17T10:41:27Z</time>
      </trkpt>
      <trkpt lat="42.64548" lon="1.67935">
        <ele>2552.699</ele>
        <time>2022-09-17T10:41:29Z</time>
      </trkpt>
      <trkpt lat="42.64548" lon="1.67935">
        <ele>2552.702</ele>
        <time>2022-09-17T10:41:31Z</time>
      </trkpt>
      <trkpt lat="42.64548" lon="1.67935">
        <ele>2552.802</ele>
        <time>2022-09-17T10:41:33Z</time>
      </trkpt>
      <trkpt lat="42.64548" lon="1.67935">
        <ele>2552.805</ele>
        <time>2022-09-17T10:41:35Z</time>
      </trkpt>
      <trkpt lat="42.64548" lon="1.67935">
        <ele>2552.806</ele>
        <time>2022-09-17T10:41:38Z</time>
      </trkpt>
      <trkpt lat="42.64548" lon="1.67935">
        <ele>2552.805</ele>
        <time>2022-09-17T10:41:40Z</time>
      </trkpt>
      <trkpt lat="42.64548" lon="1.67935">
        <ele>2552.805</ele>
        <time>2022-09-17T10:41:42Z</time>
      </trkpt>
      <trkpt lat="42.64548" lon="1.67935">
        <ele>2552.801</ele>
        <time>2022-09-17T10:41:44Z</time>
      </trkpt>
      <trkpt lat="42.64548" lon="1.67935">
        <ele>2552.802</ele>
        <time>2022-09-17T10:41:46Z</time>
      </trkpt>
      <trkpt lat="42.64548" lon="1.67935">
        <ele>2552.802</ele>
        <time>2022-09-17T10:41:48Z</time>
      </trkpt>
      <trkpt lat="42.64548" lon="1.67935">
        <ele>2552.802</ele>
        <time>2022-09-17T10:41:50Z</time>
      </trkpt>
      <trkpt lat="42.64548" lon="1.67935">
        <ele>2552.799</ele>
        <time>2022-09-17T10:41:52Z</time>
      </trkpt>
      <trkpt lat="42.64548" lon="1.67935">
        <ele>2552.799</ele>
        <time>2022-09-17T10:41:54Z</time>
      </trkpt>
      <trkpt lat="42.64548" lon="1.67935">
        <ele>2552.797</ele>
        <time>2022-09-17T10:41:56Z</time>
      </trkpt>
      <trkpt lat="42.64548" lon="1.67935">
        <ele>2552.796</ele>
        <time>2022-09-17T10:41:58Z</time>
      </trkpt>
      <trkpt lat="42.64548" lon="1.67935">
        <ele>2552.796</ele>
        <time>2022-09-17T10:42:00Z</time>
      </trkpt>
      <trkpt lat="42.64548" lon="1.67935">
        <ele>2552.797</ele>
        <time>2022-09-17T10:42:02Z</time>
      </trkpt>
      <trkpt lat="42.64548" lon="1.67935">
        <ele>2552.798</ele>
        <time>2022-09-17T10:42:04Z</time>
      </trkpt>
      <trkpt lat="42.64548" lon="1.67935">
        <ele>2552.799</ele>
        <time>2022-09-17T10:42:06Z</time>
      </trkpt>
      <trkpt lat="42.64548" lon="1.67935">
        <ele>2552.802</ele>
        <time>2022-09-17T10:42:08Z</time>
      </trkpt>
      <trkpt lat="42.64548" lon="1.67935">
        <ele>2552.8</ele>
        <time>2022-09-17T10:42:10Z</time>
      </trkpt>
      <trkpt lat="42.64548" lon="1.67935">
        <ele>2552.798</ele>
        <time>2022-09-17T10:42:12Z</time>
      </trkpt>
      <trkpt lat="42.64548" lon="1.67935">
        <ele>2552.8</ele>
        <time>2022-09-17T10:42:14Z</time>
      </trkpt>
      <trkpt lat="42.64548" lon="1.67935">
        <ele>2552.803</ele>
        <time>2022-09-17T10:42:16Z</time>
      </trkpt>
      <trkpt lat="42.64548" lon="1.67935">
        <ele>2552.801</ele>
        <time>2022-09-17T10:42:18Z</time>
      </trkpt>
      <trkpt lat="42.64548" lon="1.67935">
        <ele>2552.802</ele>
        <time>2022-09-17T10:42:20Z</time>
      </trkpt>
      <trkpt lat="42.64548" lon="1.67935">
        <ele>2552.806</ele>
        <time>2022-09-17T10:42:22Z</time>
      </trkpt>
      <trkpt lat="42.64548" lon="1.67935">
        <ele>2552.809</ele>
        <time>2022-09-17T10:42:24Z</time>
      </trkpt>
      <trkpt lat="42.64548" lon="1.67935">
        <ele>2552.812</ele>
        <time>2022-09-17T10:42:26Z</time>
      </trkpt>
      <trkpt lat="42.64548" lon="1.67935">
        <ele>2552.817</ele>
        <time>2022-09-17T10:42:28Z</time>
      </trkpt>
      <trkpt lat="42.64548" lon="1.67935">
        <ele>2552.819</ele>
        <time>2022-09-17T10:42:30Z</time>
      </trkpt>
      <trkpt lat="42.64548" lon="1.67935">
        <ele>2552.818</ele>
        <time>2022-09-17T10:42:32Z</time>
      </trkpt>
      <trkpt lat="42.64548" lon="1.67935">
        <ele>2552.819</ele>
        <time>2022-09-17T10:42:34Z</time>
      </trkpt>
      <trkpt lat="42.64548" lon="1.67935">
        <ele>2552.818</ele>
        <time>2022-09-17T10:42:36Z</time>
      </trkpt>
      <trkpt lat="42.64548" lon="1.67935">
        <ele>2552.816</ele>
        <time>2022-09-17T10:42:38Z</time>
      </trkpt>
      <trkpt lat="42.64548" lon="1.67935">
        <ele>2552.815</ele>
        <time>2022-09-17T10:42:40Z</time>
      </trkpt>
      <trkpt lat="42.64548" lon="1.67935">
        <ele>2552.815</ele>
        <time>2022-09-17T10:42:42Z</time>
      </trkpt>
      <trkpt lat="42.64548" lon="1.67935">
        <ele>2552.815</ele>
        <time>2022-09-17T10:42:44Z</time>
      </trkpt>
      <trkpt lat="42.64548" lon="1.67935">
        <ele>2552.82</ele>
        <time>2022-09-17T10:42:46Z</time>
      </trkpt>
      <trkpt lat="42.64548" lon="1.67935">
        <ele>2552.823</ele>
        <time>2022-09-17T10:42:48Z</time>
      </trkpt>
      <trkpt lat="42.64548" lon="1.67935">
        <ele>2552.822</ele>
        <time>2022-09-17T10:42:50Z</time>
      </trkpt>
      <trkpt lat="42.64548" lon="1.67935">
        <ele>2552.829</ele>
        <time>2022-09-17T10:42:52Z</time>
      </trkpt>
      <trkpt lat="42.64548" lon="1.67935">
        <ele>2552.829</ele>
        <time>2022-09-17T10:42:54Z</time>
      </trkpt>
      <trkpt lat="42.64548" lon="1.67935">
        <ele>2552.825</ele>
        <time>2022-09-17T10:42:56Z</time>
      </trkpt>
      <trkpt lat="42.64548" lon="1.67935">
        <ele>2552.826</ele>
        <time>2022-09-17T10:42:58Z</time>
      </trkpt>
      <trkpt lat="42.64548" lon="1.67935">
        <ele>2552.825</ele>
        <time>2022-09-17T10:43:00Z</time>
      </trkpt>
      <trkpt lat="42.64548" lon="1.67935">
        <ele>2552.826</ele>
        <time>2022-09-17T10:43:02Z</time>
      </trkpt>
      <trkpt lat="42.64548" lon="1.67935">
        <ele>2552.827</ele>
        <time>2022-09-17T10:43:04Z</time>
      </trkpt>
      <trkpt lat="42.64548" lon="1.67935">
        <ele>2552.829</ele>
        <time>2022-09-17T10:43:06Z</time>
      </trkpt>
      <trkpt lat="42.64548" lon="1.67935">
        <ele>2552.827</ele>
        <time>2022-09-17T10:43:08Z</time>
      </trkpt>
      <trkpt lat="42.64548" lon="1.67935">
        <ele>2552.829</ele>
        <time>2022-09-17T10:43:10Z</time>
      </trkpt>
      <trkpt lat="42.64548" lon="1.67935">
        <ele>2552.829</ele>
        <time>2022-09-17T10:43:12Z</time>
      </trkpt>
      <trkpt lat="42.64548" lon="1.67935">
        <ele>2552.831</ele>
        <time>2022-09-17T10:43:14Z</time>
      </trkpt>
      <trkpt lat="42.64548" lon="1.67935">
        <ele>2552.832</ele>
        <time>2022-09-17T10:43:16Z</time>
      </trkpt>
      <trkpt lat="42.64548" lon="1.67935">
        <ele>2552.832</ele>
        <time>2022-09-17T10:43:18Z</time>
      </trkpt>
      <trkpt lat="42.64548" lon="1.67935">
        <ele>2552.834</ele>
        <time>2022-09-17T10:43:20Z</time>
      </trkpt>
      <trkpt lat="42.64548" lon="1.67935">
        <ele>2552.834</ele>
        <time>2022-09-17T10:43:22Z</time>
      </trkpt>
      <trkpt lat="42.64548" lon="1.67935">
        <ele>2552.834</ele>
        <time>2022-09-17T10:43:24Z</time>
      </trkpt>
      <trkpt lat="42.64548" lon="1.67935">
        <ele>2552.835</ele>
        <time>2022-09-17T10:43:26Z</time>
      </trkpt>
      <trkpt lat="42.64548" lon="1.67935">
        <ele>2552.835</ele>
        <time>2022-09-17T10:43:28Z</time>
      </trkpt>
      <trkpt lat="42.64548" lon="1.67935">
        <ele>2552.835</ele>
        <time>2022-09-17T10:43:30Z</time>
      </trkpt>
      <trkpt lat="42.64548" lon="1.67935">
        <ele>2552.838</ele>
        <time>2022-09-17T10:43:32Z</time>
      </trkpt>
      <trkpt lat="42.64548" lon="1.67935">
        <ele>2552.84</ele>
        <time>2022-09-17T10:43:34Z</time>
      </trkpt>
      <trkpt lat="42.64548" lon="1.67935">
        <ele>2552.845</ele>
        <time>2022-09-17T10:43:36Z</time>
      </trkpt>
      <trkpt lat="42.64548" lon="1.67935">
        <ele>2552.846</ele>
        <time>2022-09-17T10:43:38Z</time>
      </trkpt>
      <trkpt lat="42.64548" lon="1.67935">
        <ele>2552.845</ele>
        <time>2022-09-17T10:43:40Z</time>
      </trkpt>
      <trkpt lat="42.64548" lon="1.67935">
        <ele>2552.845</ele>
        <time>2022-09-17T10:43:42Z</time>
      </trkpt>
      <trkpt lat="42.64548" lon="1.67935">
        <ele>2552.846</ele>
        <time>2022-09-17T10:43:44Z</time>
      </trkpt>
      <trkpt lat="42.64548" lon="1.67935">
        <ele>2552.845</ele>
        <time>2022-09-17T10:43:46Z</time>
      </trkpt>
      <trkpt lat="42.64548" lon="1.67935">
        <ele>2552.845</ele>
        <time>2022-09-17T10:43:48Z</time>
      </trkpt>
      <trkpt lat="42.64548" lon="1.67935">
        <ele>2552.845</ele>
        <time>2022-09-17T10:43:50Z</time>
      </trkpt>
      <trkpt lat="42.64548" lon="1.67935">
        <ele>2552.846</ele>
        <time>2022-09-17T10:43:52Z</time>
      </trkpt>
      <trkpt lat="42.64548" lon="1.67935">
        <ele>2552.847</ele>
        <time>2022-09-17T10:43:54Z</time>
      </trkpt>
      <trkpt lat="42.64548" lon="1.67935">
        <ele>2552.846</ele>
        <time>2022-09-17T10:43:56Z</time>
      </trkpt>
      <trkpt lat="42.64548" lon="1.67935">
        <ele>2552.847</ele>
        <time>2022-09-17T10:43:58Z</time>
      </trkpt>
      <trkpt lat="42.64548" lon="1.67935">
        <ele>2552.848</ele>
        <time>2022-09-17T10:44:00Z</time>
      </trkpt>
      <trkpt lat="42.64548" lon="1.67935">
        <ele>2552.85</ele>
        <time>2022-09-17T10:44:02Z</time>
      </trkpt>
      <trkpt lat="42.64548" lon="1.67935">
        <ele>2552.851</ele>
        <time>2022-09-17T10:44:04Z</time>
      </trkpt>
      <trkpt lat="42.64548" lon="1.67935">
        <ele>2552.851</ele>
        <time>2022-09-17T10:44:06Z</time>
      </trkpt>
      <trkpt lat="42.64548" lon="1.67935">
        <ele>2552.853</ele>
        <time>2022-09-17T10:44:08Z</time>
      </trkpt>
      <trkpt lat="42.64548" lon="1.67935">
        <ele>2552.856</ele>
        <time>2022-09-17T10:44:10Z</time>
      </trkpt>
      <trkpt lat="42.64548" lon="1.67935">
        <ele>2552.856</ele>
        <time>2022-09-17T10:44:12Z</time>
      </trkpt>
      <trkpt lat="42.64548" lon="1.67935">
        <ele>2552.855</ele>
        <time>2022-09-17T10:44:14Z</time>
      </trkpt>
      <trkpt lat="42.64548" lon="1.67935">
        <ele>2552.857</ele>
        <time>2022-09-17T10:44:16Z</time>
      </trkpt>
      <trkpt lat="42.64548" lon="1.67935">
        <ele>2552.856</ele>
        <time>2022-09-17T10:44:18Z</time>
      </trkpt>
      <trkpt lat="42.64548" lon="1.67935">
        <ele>2552.857</ele>
        <time>2022-09-17T10:44:20Z</time>
      </trkpt>
      <trkpt lat="42.64548" lon="1.67935">
        <ele>2552.855</ele>
        <time>2022-09-17T10:44:22Z</time>
      </trkpt>
      <trkpt lat="42.64548" lon="1.67935">
        <ele>2552.854</ele>
        <time>2022-09-17T10:44:24Z</time>
      </trkpt>
      <trkpt lat="42.64548" lon="1.67935">
        <ele>2552.856</ele>
        <time>2022-09-17T10:44:26Z</time>
      </trkpt>
      <trkpt lat="42.64548" lon="1.67935">
        <ele>2552.857</ele>
        <time>2022-09-17T10:44:28Z</time>
      </trkpt>
      <trkpt lat="42.64548" lon="1.67935">
        <ele>2552.856</ele>
        <time>2022-09-17T10:44:30Z</time>
      </trkpt>
      <trkpt lat="42.64548" lon="1.67935">
        <ele>2552.856</ele>
        <time>2022-09-17T10:44:32Z</time>
      </trkpt>
      <trkpt lat="42.64548" lon="1.67935">
        <ele>2552.858</ele>
        <time>2022-09-17T10:44:34Z</time>
      </trkpt>
      <trkpt lat="42.64548" lon="1.67935">
        <ele>2552.861</ele>
        <time>2022-09-17T10:44:36Z</time>
      </trkpt>
      <trkpt lat="42.64548" lon="1.67935">
        <ele>2552.863</ele>
        <time>2022-09-17T10:44:38Z</time>
      </trkpt>
      <trkpt lat="42.64548" lon="1.67935">
        <ele>2552.864</ele>
        <time>2022-09-17T10:44:40Z</time>
      </trkpt>
      <trkpt lat="42.64548" lon="1.67935">
        <ele>2552.866</ele>
        <time>2022-09-17T10:44:42Z</time>
      </trkpt>
      <trkpt lat="42.64548" lon="1.67935">
        <ele>2552.868</ele>
        <time>2022-09-17T10:44:44Z</time>
      </trkpt>
      <trkpt lat="42.64548" lon="1.67935">
        <ele>2552.869</ele>
        <time>2022-09-17T10:44:46Z</time>
      </trkpt>
      <trkpt lat="42.64548" lon="1.67935">
        <ele>2552.867</ele>
        <time>2022-09-17T10:44:48Z</time>
      </trkpt>
      <trkpt lat="42.64548" lon="1.67935">
        <ele>2552.866</ele>
        <time>2022-09-17T10:44:50Z</time>
      </trkpt>
      <trkpt lat="42.64548" lon="1.67935">
        <ele>2552.869</ele>
        <time>2022-09-17T10:44:52Z</time>
      </trkpt>
      <trkpt lat="42.64548" lon="1.67935">
        <ele>2552.868</ele>
        <time>2022-09-17T10:44:54Z</time>
      </trkpt>
      <trkpt lat="42.64548" lon="1.67935">
        <ele>2552.87</ele>
        <time>2022-09-17T10:44:56Z</time>
      </trkpt>
      <trkpt lat="42.64548" lon="1.67935">
        <ele>2552.869</ele>
        <time>2022-09-17T10:44:58Z</time>
      </trkpt>
      <trkpt lat="42.64548" lon="1.67935">
        <ele>2552.872</ele>
        <time>2022-09-17T10:45:00Z</time>
      </trkpt>
      <trkpt lat="42.64548" lon="1.67935">
        <ele>2552.874</ele>
        <time>2022-09-17T10:45:02Z</time>
      </trkpt>
      <trkpt lat="42.64548" lon="1.67935">
        <ele>2552.875</ele>
        <time>2022-09-17T10:45:04Z</time>
      </trkpt>
      <trkpt lat="42.64548" lon="1.67935">
        <ele>2552.874</ele>
        <time>2022-09-17T10:45:06Z</time>
      </trkpt>
      <trkpt lat="42.64548" lon="1.67935">
        <ele>2552.876</ele>
        <time>2022-09-17T10:45:08Z</time>
      </trkpt>
      <trkpt lat="42.64548" lon="1.67935">
        <ele>2552.876</ele>
        <time>2022-09-17T10:45:10Z</time>
      </trkpt>
      <trkpt lat="42.64548" lon="1.67935">
        <ele>2552.878</ele>
        <time>2022-09-17T10:45:12Z</time>
      </trkpt>
      <trkpt lat="42.64548" lon="1.67935">
        <ele>2552.88</ele>
        <time>2022-09-17T10:45:14Z</time>
      </trkpt>
      <trkpt lat="42.64548" lon="1.67935">
        <ele>2552.879</ele>
        <time>2022-09-17T10:45:16Z</time>
      </trkpt>
      <trkpt lat="42.64548" lon="1.67935">
        <ele>2552.881</ele>
        <time>2022-09-17T10:45:18Z</time>
      </trkpt>
      <trkpt lat="42.64548" lon="1.67935">
        <ele>2552.881</ele>
        <time>2022-09-17T10:45:20Z</time>
      </trkpt>
      <trkpt lat="42.64548" lon="1.67935">
        <ele>2552.882</ele>
        <time>2022-09-17T10:45:22Z</time>
      </trkpt>
      <trkpt lat="42.64548" lon="1.67935">
        <ele>2552.882</ele>
        <time>2022-09-17T10:45:24Z</time>
      </trkpt>
      <trkpt lat="42.64548" lon="1.67935">
        <ele>2552.883</ele>
        <time>2022-09-17T10:45:26Z</time>
      </trkpt>
      <trkpt lat="42.64548" lon="1.67935">
        <ele>2552.885</ele>
        <time>2022-09-17T10:45:28Z</time>
      </trkpt>
      <trkpt lat="42.64548" lon="1.67935">
        <ele>2552.882</ele>
        <time>2022-09-17T10:45:30Z</time>
      </trkpt>
      <trkpt lat="42.64548" lon="1.67935">
        <ele>2552.881</ele>
        <time>2022-09-17T10:45:32Z</time>
      </trkpt>
      <trkpt lat="42.64548" lon="1.67935">
        <ele>2552.882</ele>
        <time>2022-09-17T10:45:34Z</time>
      </trkpt>
      <trkpt lat="42.64548" lon="1.67935">
        <ele>2552.884</ele>
        <time>2022-09-17T10:45:36Z</time>
      </trkpt>
      <trkpt lat="42.64548" lon="1.67935">
        <ele>2552.887</ele>
        <time>2022-09-17T10:45:38Z</time>
      </trkpt>
      <trkpt lat="42.64548" lon="1.67935">
        <ele>2552.89</ele>
        <time>2022-09-17T10:45:40Z</time>
      </trkpt>
      <trkpt lat="42.64548" lon="1.67935">
        <ele>2553.118</ele>
        <time>2022-09-17T10:45:42Z</time>
      </trkpt>
      <trkpt lat="42.64547" lon="1.67935">
        <ele>2553.142</ele>
        <time>2022-09-17T10:45:44Z</time>
      </trkpt>
      <trkpt lat="42.64547" lon="1.67935">
        <ele>2553.14</ele>
        <time>2022-09-17T10:45:46Z</time>
      </trkpt>
      <trkpt lat="42.64547" lon="1.67935">
        <ele>2553.139</ele>
        <time>2022-09-17T10:45:48Z</time>
      </trkpt>
      <trkpt lat="42.64547" lon="1.67935">
        <ele>2553.139</ele>
        <time>2022-09-17T10:45:50Z</time>
      </trkpt>
      <trkpt lat="42.64547" lon="1.67935">
        <ele>2553.141</ele>
        <time>2022-09-17T10:45:52Z</time>
      </trkpt>
      <trkpt lat="42.64547" lon="1.67935">
        <ele>2553.14</ele>
        <time>2022-09-17T10:45:54Z</time>
      </trkpt>
      <trkpt lat="42.64547" lon="1.67935">
        <ele>2553.141</ele>
        <time>2022-09-17T10:45:56Z</time>
      </trkpt>
      <trkpt lat="42.64547" lon="1.67935">
        <ele>2553.141</ele>
        <time>2022-09-17T10:45:58Z</time>
      </trkpt>
      <trkpt lat="42.64547" lon="1.67935">
        <ele>2553.141</ele>
        <time>2022-09-17T10:46:00Z</time>
      </trkpt>
      <trkpt lat="42.64547" lon="1.67935">
        <ele>2553.143</ele>
        <time>2022-09-17T10:46:02Z</time>
      </trkpt>
      <trkpt lat="42.64547" lon="1.67935">
        <ele>2553.146</ele>
        <time>2022-09-17T10:46:04Z</time>
      </trkpt>
      <trkpt lat="42.64547" lon="1.67935">
        <ele>2553.149</ele>
        <time>2022-09-17T10:46:06Z</time>
      </trkpt>
      <trkpt lat="42.64547" lon="1.67935">
        <ele>2553.152</ele>
        <time>2022-09-17T10:46:08Z</time>
      </trkpt>
      <trkpt lat="42.64547" lon="1.67935">
        <ele>2553.152</ele>
        <time>2022-09-17T10:46:10Z</time>
      </trkpt>
      <trkpt lat="42.64547" lon="1.67935">
        <ele>2553.152</ele>
        <time>2022-09-17T10:46:12Z</time>
      </trkpt>
      <trkpt lat="42.64547" lon="1.67935">
        <ele>2553.156</ele>
        <time>2022-09-17T10:46:14Z</time>
      </trkpt>
      <trkpt lat="42.64547" lon="1.67935">
        <ele>2553.156</ele>
        <time>2022-09-17T10:46:16Z</time>
      </trkpt>
      <trkpt lat="42.64547" lon="1.67935">
        <ele>2553.158</ele>
        <time>2022-09-17T10:46:18Z</time>
      </trkpt>
      <trkpt lat="42.64547" lon="1.67935">
        <ele>2553.158</ele>
        <time>2022-09-17T10:46:20Z</time>
      </trkpt>
      <trkpt lat="42.64547" lon="1.67935">
        <ele>2553.163</ele>
        <time>2022-09-17T10:46:22Z</time>
      </trkpt>
      <trkpt lat="42.64547" lon="1.67935">
        <ele>2553.162</ele>
        <time>2022-09-17T10:46:24Z</time>
      </trkpt>
      <trkpt lat="42.64547" lon="1.67935">
        <ele>2553.164</ele>
        <time>2022-09-17T10:46:26Z</time>
      </trkpt>
      <trkpt lat="42.64547" lon="1.67935">
        <ele>2553.167</ele>
        <time>2022-09-17T10:46:28Z</time>
      </trkpt>
      <trkpt lat="42.64547" lon="1.67935">
        <ele>2553.168</ele>
        <time>2022-09-17T10:46:30Z</time>
      </trkpt>
      <trkpt lat="42.64547" lon="1.67935">
        <ele>2553.173</ele>
        <time>2022-09-17T10:46:32Z</time>
      </trkpt>
      <trkpt lat="42.64547" lon="1.67935">
        <ele>2553.174</ele>
        <time>2022-09-17T10:46:34Z</time>
      </trkpt>
      <trkpt lat="42.64547" lon="1.67935">
        <ele>2553.174</ele>
        <time>2022-09-17T10:46:36Z</time>
      </trkpt>
      <trkpt lat="42.64547" lon="1.67935">
        <ele>2553.174</ele>
        <time>2022-09-17T10:46:38Z</time>
      </trkpt>
      <trkpt lat="42.64547" lon="1.67935">
        <ele>2553.172</ele>
        <time>2022-09-17T10:46:40Z</time>
      </trkpt>
      <trkpt lat="42.64547" lon="1.67935">
        <ele>2553.173</ele>
        <time>2022-09-17T10:46:42Z</time>
      </trkpt>
      <trkpt lat="42.64547" lon="1.67935">
        <ele>2553.175</ele>
        <time>2022-09-17T10:46:44Z</time>
      </trkpt>
      <trkpt lat="42.64547" lon="1.67935">
        <ele>2553.176</ele>
        <time>2022-09-17T10:46:46Z</time>
      </trkpt>
      <trkpt lat="42.64547" lon="1.67935">
        <ele>2553.179</ele>
        <time>2022-09-17T10:46:48Z</time>
      </trkpt>
      <trkpt lat="42.64547" lon="1.67935">
        <ele>2553.179</ele>
        <time>2022-09-17T10:46:50Z</time>
      </trkpt>
      <trkpt lat="42.64547" lon="1.67935">
        <ele>2553.183</ele>
        <time>2022-09-17T10:46:52Z</time>
      </trkpt>
      <trkpt lat="42.64547" lon="1.67935">
        <ele>2553.184</ele>
        <time>2022-09-17T10:46:54Z</time>
      </trkpt>
      <trkpt lat="42.64547" lon="1.67935">
        <ele>2553.184</ele>
        <time>2022-09-17T10:46:56Z</time>
      </trkpt>
      <trkpt lat="42.64547" lon="1.67935">
        <ele>2553.186</ele>
        <time>2022-09-17T10:46:58Z</time>
      </trkpt>
      <trkpt lat="42.64547" lon="1.67935">
        <ele>2553.187</ele>
        <time>2022-09-17T10:47:00Z</time>
      </trkpt>
      <trkpt lat="42.64547" lon="1.67935">
        <ele>2553.185</ele>
        <time>2022-09-17T10:47:02Z</time>
      </trkpt>
      <trkpt lat="42.64547" lon="1.67935">
        <ele>2553.185</ele>
        <time>2022-09-17T10:47:04Z</time>
      </trkpt>
      <trkpt lat="42.64547" lon="1.67935">
        <ele>2553.184</ele>
        <time>2022-09-17T10:47:06Z</time>
      </trkpt>
      <trkpt lat="42.64547" lon="1.67935">
        <ele>2553.186</ele>
        <time>2022-09-17T10:47:08Z</time>
      </trkpt>
      <trkpt lat="42.64547" lon="1.67935">
        <ele>2553.186</ele>
        <time>2022-09-17T10:47:10Z</time>
      </trkpt>
      <trkpt lat="42.64547" lon="1.67935">
        <ele>2553.183</ele>
        <time>2022-09-17T10:47:12Z</time>
      </trkpt>
      <trkpt lat="42.64547" lon="1.67935">
        <ele>2553.184</ele>
        <time>2022-09-17T10:47:14Z</time>
      </trkpt>
      <trkpt lat="42.64547" lon="1.67935">
        <ele>2553.183</ele>
        <time>2022-09-17T10:47:16Z</time>
      </trkpt>
      <trkpt lat="42.64547" lon="1.67935">
        <ele>2553.184</ele>
        <time>2022-09-17T10:47:18Z</time>
      </trkpt>
      <trkpt lat="42.64547" lon="1.67935">
        <ele>2553.183</ele>
        <time>2022-09-17T10:47:20Z</time>
      </trkpt>
      <trkpt lat="42.64547" lon="1.67935">
        <ele>2553.185</ele>
        <time>2022-09-17T10:47:22Z</time>
      </trkpt>
      <trkpt lat="42.64547" lon="1.67935">
        <ele>2553.184</ele>
        <time>2022-09-17T10:47:24Z</time>
      </trkpt>
      <trkpt lat="42.64547" lon="1.67935">
        <ele>2553.184</ele>
        <time>2022-09-17T10:47:26Z</time>
      </trkpt>
      <trkpt lat="42.64547" lon="1.67935">
        <ele>2553.183</ele>
        <time>2022-09-17T10:47:28Z</time>
      </trkpt>
      <trkpt lat="42.64547" lon="1.67935">
        <ele>2553.184</ele>
        <time>2022-09-17T10:47:30Z</time>
      </trkpt>
      <trkpt lat="42.64547" lon="1.67935">
        <ele>2553.184</ele>
        <time>2022-09-17T10:47:32Z</time>
      </trkpt>
      <trkpt lat="42.64547" lon="1.67935">
        <ele>2553.185</ele>
        <time>2022-09-17T10:47:34Z</time>
      </trkpt>
      <trkpt lat="42.64547" lon="1.67935">
        <ele>2553.187</ele>
        <time>2022-09-17T10:47:36Z</time>
      </trkpt>
      <trkpt lat="42.64547" lon="1.67935">
        <ele>2553.185</ele>
        <time>2022-09-17T10:47:38Z</time>
      </trkpt>
      <trkpt lat="42.64547" lon="1.67935">
        <ele>2553.188</ele>
        <time>2022-09-17T10:47:40Z</time>
      </trkpt>
      <trkpt lat="42.64547" lon="1.67935">
        <ele>2553.191</ele>
        <time>2022-09-17T10:47:42Z</time>
      </trkpt>
      <trkpt lat="42.64547" lon="1.67935">
        <ele>2553.192</ele>
        <time>2022-09-17T10:47:44Z</time>
      </trkpt>
      <trkpt lat="42.64547" lon="1.67935">
        <ele>2553.191</ele>
        <time>2022-09-17T10:47:46Z</time>
      </trkpt>
      <trkpt lat="42.64547" lon="1.67935">
        <ele>2553.194</ele>
        <time>2022-09-17T10:47:48Z</time>
      </trkpt>
      <trkpt lat="42.64547" lon="1.67935">
        <ele>2553.193</ele>
        <time>2022-09-17T10:47:50Z</time>
      </trkpt>
      <trkpt lat="42.64547" lon="1.67935">
        <ele>2553.193</ele>
        <time>2022-09-17T10:47:52Z</time>
      </trkpt>
      <trkpt lat="42.64547" lon="1.67935">
        <ele>2553.19</ele>
        <time>2022-09-17T10:47:54Z</time>
      </trkpt>
      <trkpt lat="42.64547" lon="1.67935">
        <ele>2553.191</ele>
        <time>2022-09-17T10:47:55Z</time>
      </trkpt>
      <trkpt lat="42.64547" lon="1.67935">
        <ele>2553.195</ele>
        <time>2022-09-17T10:47:58Z</time>
      </trkpt>
      <trkpt lat="42.64547" lon="1.67935">
        <ele>2553.196</ele>
        <time>2022-09-17T10:48:00Z</time>
      </trkpt>
      <trkpt lat="42.64547" lon="1.67935">
        <ele>2553.196</ele>
        <time>2022-09-17T10:48:02Z</time>
      </trkpt>
      <trkpt lat="42.64547" lon="1.67935">
        <ele>2553.195</ele>
        <time>2022-09-17T10:48:04Z</time>
      </trkpt>
      <trkpt lat="42.64547" lon="1.67935">
        <ele>2553.194</ele>
        <time>2022-09-17T10:48:06Z</time>
      </trkpt>
      <trkpt lat="42.64548" lon="1.67935">
        <ele>2553.225</ele>
        <time>2022-09-17T10:48:08Z</time>
      </trkpt>
      <trkpt lat="42.64548" lon="1.67935">
        <ele>2553.198</ele>
        <time>2022-09-17T10:48:10Z</time>
      </trkpt>
      <trkpt lat="42.64548" lon="1.67935">
        <ele>2553.197</ele>
        <time>2022-09-17T10:48:12Z</time>
      </trkpt>
      <trkpt lat="42.64548" lon="1.67935">
        <ele>2553.198</ele>
        <time>2022-09-17T10:48:14Z</time>
      </trkpt>
      <trkpt lat="42.64548" lon="1.67935">
        <ele>2553.197</ele>
        <time>2022-09-17T10:48:16Z</time>
      </trkpt>
      <trkpt lat="42.64548" lon="1.67935">
        <ele>2553.2</ele>
        <time>2022-09-17T10:48:18Z</time>
      </trkpt>
      <trkpt lat="42.64548" lon="1.67935">
        <ele>2553.201</ele>
        <time>2022-09-17T10:48:20Z</time>
      </trkpt>
      <trkpt lat="42.64548" lon="1.67935">
        <ele>2553.198</ele>
        <time>2022-09-17T10:48:22Z</time>
      </trkpt>
      <trkpt lat="42.64548" lon="1.67935">
        <ele>2553.201</ele>
        <time>2022-09-17T10:48:24Z</time>
      </trkpt>
      <trkpt lat="42.64548" lon="1.67935">
        <ele>2553.2</ele>
        <time>2022-09-17T10:48:26Z</time>
      </trkpt>
      <trkpt lat="42.64548" lon="1.67935">
        <ele>2553.197</ele>
        <time>2022-09-17T10:48:28Z</time>
      </trkpt>
      <trkpt lat="42.64548" lon="1.67935">
        <ele>2553.197</ele>
        <time>2022-09-17T10:48:30Z</time>
      </trkpt>
      <trkpt lat="42.64548" lon="1.67935">
        <ele>2553.197</ele>
        <time>2022-09-17T10:48:32Z</time>
      </trkpt>
      <trkpt lat="42.64548" lon="1.67935">
        <ele>2553.196</ele>
        <time>2022-09-17T10:48:34Z</time>
      </trkpt>
      <trkpt lat="42.64548" lon="1.67935">
        <ele>2553.198</ele>
        <time>2022-09-17T10:48:36Z</time>
      </trkpt>
      <trkpt lat="42.64548" lon="1.67935">
        <ele>2553.201</ele>
        <time>2022-09-17T10:48:38Z</time>
      </trkpt>
      <trkpt lat="42.64548" lon="1.67935">
        <ele>2553.201</ele>
        <time>2022-09-17T10:48:40Z</time>
      </trkpt>
      <trkpt lat="42.64548" lon="1.67935">
        <ele>2553.202</ele>
        <time>2022-09-17T10:48:42Z</time>
      </trkpt>
      <trkpt lat="42.64548" lon="1.67935">
        <ele>2553.202</ele>
        <time>2022-09-17T10:48:44Z</time>
      </trkpt>
      <trkpt lat="42.64548" lon="1.67935">
        <ele>2553.203</ele>
        <time>2022-09-17T10:48:46Z</time>
      </trkpt>
      <trkpt lat="42.64548" lon="1.67935">
        <ele>2553.205</ele>
        <time>2022-09-17T10:48:48Z</time>
      </trkpt>
      <trkpt lat="42.64548" lon="1.67935">
        <ele>2553.207</ele>
        <time>2022-09-17T10:48:50Z</time>
      </trkpt>
      <trkpt lat="42.64548" lon="1.67935">
        <ele>2553.21</ele>
        <time>2022-09-17T10:48:52Z</time>
      </trkpt>
      <trkpt lat="42.64548" lon="1.67935">
        <ele>2553.212</ele>
        <time>2022-09-17T10:48:54Z</time>
      </trkpt>
      <trkpt lat="42.64548" lon="1.67935">
        <ele>2553.213</ele>
        <time>2022-09-17T10:48:56Z</time>
      </trkpt>
      <trkpt lat="42.64548" lon="1.67935">
        <ele>2553.215</ele>
        <time>2022-09-17T10:48:58Z</time>
      </trkpt>
      <trkpt lat="42.64548" lon="1.67935">
        <ele>2553.217</ele>
        <time>2022-09-17T10:49:00Z</time>
      </trkpt>
      <trkpt lat="42.64548" lon="1.67935">
        <ele>2553.219</ele>
        <time>2022-09-17T10:49:02Z</time>
      </trkpt>
      <trkpt lat="42.64548" lon="1.67935">
        <ele>2553.222</ele>
        <time>2022-09-17T10:49:04Z</time>
      </trkpt>
      <trkpt lat="42.64548" lon="1.67935">
        <ele>2553.22</ele>
        <time>2022-09-17T10:49:06Z</time>
      </trkpt>
      <trkpt lat="42.64548" lon="1.67935">
        <ele>2553.221</ele>
        <time>2022-09-17T10:49:08Z</time>
      </trkpt>
      <trkpt lat="42.64548" lon="1.67935">
        <ele>2553.22</ele>
        <time>2022-09-17T10:49:10Z</time>
      </trkpt>
      <trkpt lat="42.64548" lon="1.67935">
        <ele>2553.22</ele>
        <time>2022-09-17T10:49:12Z</time>
      </trkpt>
      <trkpt lat="42.64548" lon="1.67935">
        <ele>2553.219</ele>
        <time>2022-09-17T10:49:14Z</time>
      </trkpt>
      <trkpt lat="42.64548" lon="1.67935">
        <ele>2553.22</ele>
        <time>2022-09-17T10:49:16Z</time>
      </trkpt>
      <trkpt lat="42.64548" lon="1.67935">
        <ele>2553.222</ele>
        <time>2022-09-17T10:49:18Z</time>
      </trkpt>
      <trkpt lat="42.64548" lon="1.67935">
        <ele>2553.226</ele>
        <time>2022-09-17T10:49:20Z</time>
      </trkpt>
      <trkpt lat="42.64548" lon="1.67935">
        <ele>2553.224</ele>
        <time>2022-09-17T10:49:22Z</time>
      </trkpt>
      <trkpt lat="42.64548" lon="1.67935">
        <ele>2553.227</ele>
        <time>2022-09-17T10:49:24Z</time>
      </trkpt>
      <trkpt lat="42.64548" lon="1.67935">
        <ele>2553.229</ele>
        <time>2022-09-17T10:49:26Z</time>
      </trkpt>
      <trkpt lat="42.64548" lon="1.67935">
        <ele>2553.225</ele>
        <time>2022-09-17T10:49:28Z</time>
      </trkpt>
      <trkpt lat="42.64548" lon="1.67935">
        <ele>2553.226</ele>
        <time>2022-09-17T10:49:30Z</time>
      </trkpt>
      <trkpt lat="42.64548" lon="1.67935">
        <ele>2553.227</ele>
        <time>2022-09-17T10:49:32Z</time>
      </trkpt>
      <trkpt lat="42.64548" lon="1.67935">
        <ele>2553.228</ele>
        <time>2022-09-17T10:49:34Z</time>
      </trkpt>
      <trkpt lat="42.64548" lon="1.67935">
        <ele>2553.228</ele>
        <time>2022-09-17T10:49:36Z</time>
      </trkpt>
      <trkpt lat="42.64548" lon="1.67935">
        <ele>2553.228</ele>
        <time>2022-09-17T10:49:38Z</time>
      </trkpt>
      <trkpt lat="42.64548" lon="1.67935">
        <ele>2553.231</ele>
        <time>2022-09-17T10:49:40Z</time>
      </trkpt>
      <trkpt lat="42.64548" lon="1.67935">
        <ele>2553.232</ele>
        <time>2022-09-17T10:49:42Z</time>
      </trkpt>
      <trkpt lat="42.64548" lon="1.67935">
        <ele>2553.234</ele>
        <time>2022-09-17T10:49:44Z</time>
      </trkpt>
      <trkpt lat="42.64548" lon="1.67935">
        <ele>2553.24</ele>
        <time>2022-09-17T10:49:46Z</time>
      </trkpt>
      <trkpt lat="42.64548" lon="1.67935">
        <ele>2553.241</ele>
        <time>2022-09-17T10:49:48Z</time>
      </trkpt>
      <trkpt lat="42.64548" lon="1.67935">
        <ele>2553.239</ele>
        <time>2022-09-17T10:49:50Z</time>
      </trkpt>
      <trkpt lat="42.64548" lon="1.67935">
        <ele>2553.239</ele>
        <time>2022-09-17T10:49:52Z</time>
      </trkpt>
      <trkpt lat="42.64548" lon="1.67935">
        <ele>2553.242</ele>
        <time>2022-09-17T10:49:54Z</time>
      </trkpt>
      <trkpt lat="42.64548" lon="1.67935">
        <ele>2553.238</ele>
        <time>2022-09-17T10:49:56Z</time>
      </trkpt>
      <trkpt lat="42.64548" lon="1.67935">
        <ele>2553.237</ele>
        <time>2022-09-17T10:49:58Z</time>
      </trkpt>
      <trkpt lat="42.64548" lon="1.67935">
        <ele>2553.236</ele>
        <time>2022-09-17T10:50:00Z</time>
      </trkpt>
      <trkpt lat="42.64548" lon="1.67935">
        <ele>2553.234</ele>
        <time>2022-09-17T10:50:02Z</time>
      </trkpt>
      <trkpt lat="42.64548" lon="1.67935">
        <ele>2553.234</ele>
        <time>2022-09-17T10:50:04Z</time>
      </trkpt>
      <trkpt lat="42.64548" lon="1.67935">
        <ele>2553.233</ele>
        <time>2022-09-17T10:50:06Z</time>
      </trkpt>
      <trkpt lat="42.64548" lon="1.67935">
        <ele>2553.234</ele>
        <time>2022-09-17T10:50:08Z</time>
      </trkpt>
      <trkpt lat="42.64548" lon="1.67935">
        <ele>2553.235</ele>
        <time>2022-09-17T10:50:10Z</time>
      </trkpt>
      <trkpt lat="42.64548" lon="1.67935">
        <ele>2553.236</ele>
        <time>2022-09-17T10:50:12Z</time>
      </trkpt>
      <trkpt lat="42.64548" lon="1.67935">
        <ele>2553.234</ele>
        <time>2022-09-17T10:50:14Z</time>
      </trkpt>
      <trkpt lat="42.64548" lon="1.67935">
        <ele>2553.236</ele>
        <time>2022-09-17T10:50:16Z</time>
      </trkpt>
      <trkpt lat="42.64548" lon="1.67935">
        <ele>2553.237</ele>
        <time>2022-09-17T10:50:18Z</time>
      </trkpt>
      <trkpt lat="42.64548" lon="1.67935">
        <ele>2553.233</ele>
        <time>2022-09-17T10:50:20Z</time>
      </trkpt>
      <trkpt lat="42.64548" lon="1.67935">
        <ele>2553.235</ele>
        <time>2022-09-17T10:50:22Z</time>
      </trkpt>
      <trkpt lat="42.64548" lon="1.67935">
        <ele>2553.231</ele>
        <time>2022-09-17T10:50:24Z</time>
      </trkpt>
      <trkpt lat="42.64548" lon="1.67935">
        <ele>2553.234</ele>
        <time>2022-09-17T10:50:26Z</time>
      </trkpt>
      <trkpt lat="42.64548" lon="1.67935">
        <ele>2553.231</ele>
        <time>2022-09-17T10:50:28Z</time>
      </trkpt>
      <trkpt lat="42.64548" lon="1.67935">
        <ele>2553.23</ele>
        <time>2022-09-17T10:50:30Z</time>
      </trkpt>
      <trkpt lat="42.64548" lon="1.67935">
        <ele>2553.23</ele>
        <time>2022-09-17T10:50:32Z</time>
      </trkpt>
      <trkpt lat="42.64548" lon="1.67935">
        <ele>2553.231</ele>
        <time>2022-09-17T10:50:34Z</time>
      </trkpt>
      <trkpt lat="42.64548" lon="1.67935">
        <ele>2553.236</ele>
        <time>2022-09-17T10:50:36Z</time>
      </trkpt>
      <trkpt lat="42.64548" lon="1.67935">
        <ele>2553.239</ele>
        <time>2022-09-17T10:50:38Z</time>
      </trkpt>
      <trkpt lat="42.64548" lon="1.67935">
        <ele>2553.242</ele>
        <time>2022-09-17T10:50:40Z</time>
      </trkpt>
      <trkpt lat="42.64548" lon="1.67935">
        <ele>2553.243</ele>
        <time>2022-09-17T10:50:42Z</time>
      </trkpt>
      <trkpt lat="42.64548" lon="1.67935">
        <ele>2553.242</ele>
        <time>2022-09-17T10:50:44Z</time>
      </trkpt>
      <trkpt lat="42.64548" lon="1.67935">
        <ele>2553.241</ele>
        <time>2022-09-17T10:50:46Z</time>
      </trkpt>
      <trkpt lat="42.64548" lon="1.67935">
        <ele>2553.24</ele>
        <time>2022-09-17T10:50:48Z</time>
      </trkpt>
      <trkpt lat="42.64548" lon="1.67935">
        <ele>2553.241</ele>
        <time>2022-09-17T10:50:50Z</time>
      </trkpt>
      <trkpt lat="42.64548" lon="1.67935">
        <ele>2553.243</ele>
        <time>2022-09-17T10:50:52Z</time>
      </trkpt>
      <trkpt lat="42.64548" lon="1.67935">
        <ele>2553.244</ele>
        <time>2022-09-17T10:50:54Z</time>
      </trkpt>
      <trkpt lat="42.64548" lon="1.67935">
        <ele>2553.249</ele>
        <time>2022-09-17T10:50:56Z</time>
      </trkpt>
      <trkpt lat="42.64548" lon="1.67935">
        <ele>2553.25</ele>
        <time>2022-09-17T10:50:58Z</time>
      </trkpt>
      <trkpt lat="42.64548" lon="1.67935">
        <ele>2553.251</ele>
        <time>2022-09-17T10:51:00Z</time>
      </trkpt>
      <trkpt lat="42.64548" lon="1.67935">
        <ele>2553.255</ele>
        <time>2022-09-17T10:51:02Z</time>
      </trkpt>
      <trkpt lat="42.64548" lon="1.67935">
        <ele>2553.257</ele>
        <time>2022-09-17T10:51:04Z</time>
      </trkpt>
      <trkpt lat="42.64548" lon="1.67935">
        <ele>2553.257</ele>
        <time>2022-09-17T10:51:06Z</time>
      </trkpt>
      <trkpt lat="42.64548" lon="1.67935">
        <ele>2553.258</ele>
        <time>2022-09-17T10:51:08Z</time>
      </trkpt>
      <trkpt lat="42.64548" lon="1.67935">
        <ele>2553.256</ele>
        <time>2022-09-17T10:51:10Z</time>
      </trkpt>
      <trkpt lat="42.64548" lon="1.67935">
        <ele>2553.256</ele>
        <time>2022-09-17T10:51:12Z</time>
      </trkpt>
      <trkpt lat="42.64548" lon="1.67935">
        <ele>2553.257</ele>
        <time>2022-09-17T10:51:14Z</time>
      </trkpt>
      <trkpt lat="42.64548" lon="1.67935">
        <ele>2553.257</ele>
        <time>2022-09-17T10:51:16Z</time>
      </trkpt>
      <trkpt lat="42.64548" lon="1.67935">
        <ele>2553.257</ele>
        <time>2022-09-17T10:51:18Z</time>
      </trkpt>
      <trkpt lat="42.64548" lon="1.67935">
        <ele>2553.259</ele>
        <time>2022-09-17T10:51:20Z</time>
      </trkpt>
      <trkpt lat="42.64548" lon="1.67935">
        <ele>2553.26</ele>
        <time>2022-09-17T10:51:22Z</time>
      </trkpt>
      <trkpt lat="42.64548" lon="1.67935">
        <ele>2553.261</ele>
        <time>2022-09-17T10:51:25Z</time>
      </trkpt>
      <trkpt lat="42.64548" lon="1.67935">
        <ele>2553.262</ele>
        <time>2022-09-17T10:51:27Z</time>
      </trkpt>
      <trkpt lat="42.64548" lon="1.67935">
        <ele>2553.263</ele>
        <time>2022-09-17T10:51:29Z</time>
      </trkpt>
      <trkpt lat="42.64548" lon="1.67935">
        <ele>2553.261</ele>
        <time>2022-09-17T10:51:31Z</time>
      </trkpt>
      <trkpt lat="42.64548" lon="1.67935">
        <ele>2553.26</ele>
        <time>2022-09-17T10:51:33Z</time>
      </trkpt>
      <trkpt lat="42.64548" lon="1.67935">
        <ele>2553.257</ele>
        <time>2022-09-17T10:51:35Z</time>
      </trkpt>
      <trkpt lat="42.64548" lon="1.67935">
        <ele>2553.26</ele>
        <time>2022-09-17T10:51:37Z</time>
      </trkpt>
      <trkpt lat="42.64548" lon="1.67935">
        <ele>2553.259</ele>
        <time>2022-09-17T10:51:39Z</time>
      </trkpt>
      <trkpt lat="42.64548" lon="1.67935">
        <ele>2553.26</ele>
        <time>2022-09-17T10:51:41Z</time>
      </trkpt>
      <trkpt lat="42.64548" lon="1.67935">
        <ele>2553.26</ele>
        <time>2022-09-17T10:51:43Z</time>
      </trkpt>
      <trkpt lat="42.64548" lon="1.67935">
        <ele>2553.261</ele>
        <time>2022-09-17T10:51:45Z</time>
      </trkpt>
      <trkpt lat="42.64548" lon="1.67935">
        <ele>2553.259</ele>
        <time>2022-09-17T10:51:47Z</time>
      </trkpt>
      <trkpt lat="42.64548" lon="1.67935">
        <ele>2553.257</ele>
        <time>2022-09-17T10:51:49Z</time>
      </trkpt>
      <trkpt lat="42.64548" lon="1.67935">
        <ele>2553.257</ele>
        <time>2022-09-17T10:51:51Z</time>
      </trkpt>
      <trkpt lat="42.64548" lon="1.67935">
        <ele>2553.257</ele>
        <time>2022-09-17T10:51:53Z</time>
      </trkpt>
      <trkpt lat="42.64548" lon="1.67935">
        <ele>2553.255</ele>
        <time>2022-09-17T10:51:55Z</time>
      </trkpt>
      <trkpt lat="42.64548" lon="1.67935">
        <ele>2553.253</ele>
        <time>2022-09-17T10:51:57Z</time>
      </trkpt>
      <trkpt lat="42.64548" lon="1.67935">
        <ele>2553.255</ele>
        <time>2022-09-17T10:51:59Z</time>
      </trkpt>
      <trkpt lat="42.64548" lon="1.67935">
        <ele>2553.257</ele>
        <time>2022-09-17T10:52:01Z</time>
      </trkpt>
      <trkpt lat="42.64548" lon="1.67935">
        <ele>2553.256</ele>
        <time>2022-09-17T10:52:03Z</time>
      </trkpt>
      <trkpt lat="42.64548" lon="1.67935">
        <ele>2553.258</ele>
        <time>2022-09-17T10:52:05Z</time>
      </trkpt>
      <trkpt lat="42.64548" lon="1.67935">
        <ele>2553.255</ele>
        <time>2022-09-17T10:52:07Z</time>
      </trkpt>
      <trkpt lat="42.64548" lon="1.67935">
        <ele>2553.254</ele>
        <time>2022-09-17T10:52:09Z</time>
      </trkpt>
      <trkpt lat="42.64548" lon="1.67935">
        <ele>2553.255</ele>
        <time>2022-09-17T10:52:11Z</time>
      </trkpt>
      <trkpt lat="42.64548" lon="1.67935">
        <ele>2553.257</ele>
        <time>2022-09-17T10:52:13Z</time>
      </trkpt>
      <trkpt lat="42.64548" lon="1.67935">
        <ele>2553.259</ele>
        <time>2022-09-17T10:52:15Z</time>
      </trkpt>
      <trkpt lat="42.64548" lon="1.67935">
        <ele>2553.263</ele>
        <time>2022-09-17T10:52:17Z</time>
      </trkpt>
      <trkpt lat="42.64548" lon="1.67935">
        <ele>2553.264</ele>
        <time>2022-09-17T10:52:19Z</time>
      </trkpt>
      <trkpt lat="42.64548" lon="1.67935">
        <ele>2553.264</ele>
        <time>2022-09-17T10:52:21Z</time>
      </trkpt>
      <trkpt lat="42.64548" lon="1.67935">
        <ele>2553.266</ele>
        <time>2022-09-17T10:52:23Z</time>
      </trkpt>
      <trkpt lat="42.64548" lon="1.67935">
        <ele>2553.268</ele>
        <time>2022-09-17T10:52:25Z</time>
      </trkpt>
      <trkpt lat="42.64548" lon="1.67935">
        <ele>2553.264</ele>
        <time>2022-09-17T10:52:27Z</time>
      </trkpt>
      <trkpt lat="42.64548" lon="1.67935">
        <ele>2553.263</ele>
        <time>2022-09-17T10:52:29Z</time>
      </trkpt>
      <trkpt lat="42.64548" lon="1.67935">
        <ele>2553.263</ele>
        <time>2022-09-17T10:52:31Z</time>
      </trkpt>
      <trkpt lat="42.64548" lon="1.67935">
        <ele>2553.265</ele>
        <time>2022-09-17T10:52:33Z</time>
      </trkpt>
      <trkpt lat="42.64548" lon="1.67935">
        <ele>2553.269</ele>
        <time>2022-09-17T10:52:35Z</time>
      </trkpt>
      <trkpt lat="42.64548" lon="1.67935">
        <ele>2553.268</ele>
        <time>2022-09-17T10:52:37Z</time>
      </trkpt>
      <trkpt lat="42.64548" lon="1.67935">
        <ele>2553.268</ele>
        <time>2022-09-17T10:52:39Z</time>
      </trkpt>
      <trkpt lat="42.64548" lon="1.67935">
        <ele>2553.268</ele>
        <time>2022-09-17T10:52:41Z</time>
      </trkpt>
      <trkpt lat="42.64548" lon="1.67935">
        <ele>2553.267</ele>
        <time>2022-09-17T10:52:43Z</time>
      </trkpt>
      <trkpt lat="42.64548" lon="1.67935">
        <ele>2553.268</ele>
        <time>2022-09-17T10:52:45Z</time>
      </trkpt>
      <trkpt lat="42.64548" lon="1.67935">
        <ele>2553.269</ele>
        <time>2022-09-17T10:52:47Z</time>
      </trkpt>
      <trkpt lat="42.64548" lon="1.67935">
        <ele>2553.271</ele>
        <time>2022-09-17T10:52:49Z</time>
      </trkpt>
      <trkpt lat="42.64548" lon="1.67935">
        <ele>2553.271</ele>
        <time>2022-09-17T10:52:51Z</time>
      </trkpt>
      <trkpt lat="42.64548" lon="1.67935">
        <ele>2553.27</ele>
        <time>2022-09-17T10:52:53Z</time>
      </trkpt>
      <trkpt lat="42.64548" lon="1.67935">
        <ele>2553.271</ele>
        <time>2022-09-17T10:52:55Z</time>
      </trkpt>
      <trkpt lat="42.64548" lon="1.67935">
        <ele>2553.27</ele>
        <time>2022-09-17T10:52:57Z</time>
      </trkpt>
      <trkpt lat="42.64548" lon="1.67935">
        <ele>2553.267</ele>
        <time>2022-09-17T10:52:59Z</time>
      </trkpt>
      <trkpt lat="42.64548" lon="1.67935">
        <ele>2553.268</ele>
        <time>2022-09-17T10:53:01Z</time>
      </trkpt>
      <trkpt lat="42.64548" lon="1.67935">
        <ele>2553.264</ele>
        <time>2022-09-17T10:53:03Z</time>
      </trkpt>
      <trkpt lat="42.64548" lon="1.67935">
        <ele>2553.263</ele>
        <time>2022-09-17T10:53:05Z</time>
      </trkpt>
      <trkpt lat="42.64548" lon="1.67935">
        <ele>2553.262</ele>
        <time>2022-09-17T10:53:07Z</time>
      </trkpt>
      <trkpt lat="42.64548" lon="1.67935">
        <ele>2553.264</ele>
        <time>2022-09-17T10:53:09Z</time>
      </trkpt>
      <trkpt lat="42.64548" lon="1.67935">
        <ele>2553.262</ele>
        <time>2022-09-17T10:53:11Z</time>
      </trkpt>
      <trkpt lat="42.64548" lon="1.67935">
        <ele>2553.262</ele>
        <time>2022-09-17T10:53:13Z</time>
      </trkpt>
      <trkpt lat="42.64548" lon="1.67935">
        <ele>2553.261</ele>
        <time>2022-09-17T10:53:15Z</time>
      </trkpt>
      <trkpt lat="42.64548" lon="1.67935">
        <ele>2553.263</ele>
        <time>2022-09-17T10:53:17Z</time>
      </trkpt>
      <trkpt lat="42.64548" lon="1.67935">
        <ele>2553.261</ele>
        <time>2022-09-17T10:53:19Z</time>
      </trkpt>
      <trkpt lat="42.64548" lon="1.67935">
        <ele>2553.261</ele>
        <time>2022-09-17T10:53:21Z</time>
      </trkpt>
      <trkpt lat="42.64548" lon="1.67935">
        <ele>2553.261</ele>
        <time>2022-09-17T10:53:23Z</time>
      </trkpt>
      <trkpt lat="42.64548" lon="1.67935">
        <ele>2553.263</ele>
        <time>2022-09-17T10:53:25Z</time>
      </trkpt>
      <trkpt lat="42.64548" lon="1.67935">
        <ele>2553.262</ele>
        <time>2022-09-17T10:53:27Z</time>
      </trkpt>
      <trkpt lat="42.64548" lon="1.67935">
        <ele>2553.261</ele>
        <time>2022-09-17T10:53:29Z</time>
      </trkpt>
      <trkpt lat="42.64548" lon="1.67935">
        <ele>2553.263</ele>
        <time>2022-09-17T10:53:31Z</time>
      </trkpt>
      <trkpt lat="42.64548" lon="1.67935">
        <ele>2553.264</ele>
        <time>2022-09-17T10:53:33Z</time>
      </trkpt>
      <trkpt lat="42.64548" lon="1.67935">
        <ele>2553.265</ele>
        <time>2022-09-17T10:53:35Z</time>
      </trkpt>
      <trkpt lat="42.64548" lon="1.67935">
        <ele>2553.266</ele>
        <time>2022-09-17T10:53:37Z</time>
      </trkpt>
      <trkpt lat="42.64548" lon="1.67935">
        <ele>2553.265</ele>
        <time>2022-09-17T10:53:39Z</time>
      </trkpt>
      <trkpt lat="42.64548" lon="1.67935">
        <ele>2553.264</ele>
        <time>2022-09-17T10:53:41Z</time>
      </trkpt>
      <trkpt lat="42.64548" lon="1.67935">
        <ele>2553.264</ele>
        <time>2022-09-17T10:53:43Z</time>
      </trkpt>
      <trkpt lat="42.64548" lon="1.67935">
        <ele>2553.262</ele>
        <time>2022-09-17T10:53:45Z</time>
      </trkpt>
      <trkpt lat="42.64548" lon="1.67935">
        <ele>2553.263</ele>
        <time>2022-09-17T10:53:47Z</time>
      </trkpt>
      <trkpt lat="42.64548" lon="1.67935">
        <ele>2553.265</ele>
        <time>2022-09-17T10:53:49Z</time>
      </trkpt>
      <trkpt lat="42.64548" lon="1.67935">
        <ele>2553.264</ele>
        <time>2022-09-17T10:53:51Z</time>
      </trkpt>
      <trkpt lat="42.64548" lon="1.67935">
        <ele>2553.262</ele>
        <time>2022-09-17T10:53:53Z</time>
      </trkpt>
      <trkpt lat="42.64548" lon="1.67935">
        <ele>2553.261</ele>
        <time>2022-09-17T10:53:55Z</time>
      </trkpt>
      <trkpt lat="42.64548" lon="1.67935">
        <ele>2553.261</ele>
        <time>2022-09-17T10:53:57Z</time>
      </trkpt>
      <trkpt lat="42.64548" lon="1.67935">
        <ele>2553.26</ele>
        <time>2022-09-17T10:53:59Z</time>
      </trkpt>
      <trkpt lat="42.64548" lon="1.67935">
        <ele>2553.261</ele>
        <time>2022-09-17T10:54:01Z</time>
      </trkpt>
      <trkpt lat="42.64548" lon="1.67935">
        <ele>2553.259</ele>
        <time>2022-09-17T10:54:03Z</time>
      </trkpt>
      <trkpt lat="42.64548" lon="1.67935">
        <ele>2553.258</ele>
        <time>2022-09-17T10:54:05Z</time>
      </trkpt>
      <trkpt lat="42.64548" lon="1.67935">
        <ele>2553.256</ele>
        <time>2022-09-17T10:54:07Z</time>
      </trkpt>
      <trkpt lat="42.64548" lon="1.67935">
        <ele>2553.257</ele>
        <time>2022-09-17T10:54:09Z</time>
      </trkpt>
      <trkpt lat="42.64548" lon="1.67935">
        <ele>2553.259</ele>
        <time>2022-09-17T10:54:11Z</time>
      </trkpt>
      <trkpt lat="42.64548" lon="1.67935">
        <ele>2553.258</ele>
        <time>2022-09-17T10:54:13Z</time>
      </trkpt>
      <trkpt lat="42.64548" lon="1.67935">
        <ele>2553.258</ele>
        <time>2022-09-17T10:54:15Z</time>
      </trkpt>
      <trkpt lat="42.64548" lon="1.67935">
        <ele>2553.257</ele>
        <time>2022-09-17T10:54:17Z</time>
      </trkpt>
      <trkpt lat="42.64548" lon="1.67935">
        <ele>2553.257</ele>
        <time>2022-09-17T10:54:19Z</time>
      </trkpt>
      <trkpt lat="42.64548" lon="1.67935">
        <ele>2553.256</ele>
        <time>2022-09-17T10:54:21Z</time>
      </trkpt>
      <trkpt lat="42.64548" lon="1.67935">
        <ele>2553.254</ele>
        <time>2022-09-17T10:54:23Z</time>
      </trkpt>
      <trkpt lat="42.64548" lon="1.67935">
        <ele>2553.253</ele>
        <time>2022-09-17T10:54:25Z</time>
      </trkpt>
      <trkpt lat="42.64548" lon="1.67935">
        <ele>2553.254</ele>
        <time>2022-09-17T10:54:27Z</time>
      </trkpt>
      <trkpt lat="42.64548" lon="1.67935">
        <ele>2553.255</ele>
        <time>2022-09-17T10:54:29Z</time>
      </trkpt>
      <trkpt lat="42.64548" lon="1.67935">
        <ele>2553.255</ele>
        <time>2022-09-17T10:54:31Z</time>
      </trkpt>
      <trkpt lat="42.64548" lon="1.67935">
        <ele>2553.26</ele>
        <time>2022-09-17T10:54:33Z</time>
      </trkpt>
      <trkpt lat="42.64548" lon="1.67935">
        <ele>2553.262</ele>
        <time>2022-09-17T10:54:35Z</time>
      </trkpt>
      <trkpt lat="42.64548" lon="1.67935">
        <ele>2553.261</ele>
        <time>2022-09-17T10:54:37Z</time>
      </trkpt>
      <trkpt lat="42.64548" lon="1.67935">
        <ele>2553.261</ele>
        <time>2022-09-17T10:54:39Z</time>
      </trkpt>
      <trkpt lat="42.64548" lon="1.67935">
        <ele>2553.261</ele>
        <time>2022-09-17T10:54:41Z</time>
      </trkpt>
      <trkpt lat="42.64548" lon="1.67935">
        <ele>2553.261</ele>
        <time>2022-09-17T10:54:43Z</time>
      </trkpt>
      <trkpt lat="42.64548" lon="1.67935">
        <ele>2553.26</ele>
        <time>2022-09-17T10:54:45Z</time>
      </trkpt>
      <trkpt lat="42.64548" lon="1.67935">
        <ele>2553.262</ele>
        <time>2022-09-17T10:54:47Z</time>
      </trkpt>
      <trkpt lat="42.64548" lon="1.67935">
        <ele>2553.258</ele>
        <time>2022-09-17T10:54:49Z</time>
      </trkpt>
      <trkpt lat="42.64548" lon="1.67935">
        <ele>2553.257</ele>
        <time>2022-09-17T10:54:51Z</time>
      </trkpt>
      <trkpt lat="42.64548" lon="1.67935">
        <ele>2553.256</ele>
        <time>2022-09-17T10:54:53Z</time>
      </trkpt>
      <trkpt lat="42.64548" lon="1.67935">
        <ele>2553.253</ele>
        <time>2022-09-17T10:54:55Z</time>
      </trkpt>
      <trkpt lat="42.64548" lon="1.67935">
        <ele>2553.251</ele>
        <time>2022-09-17T10:54:57Z</time>
      </trkpt>
      <trkpt lat="42.64548" lon="1.67935">
        <ele>2553.249</ele>
        <time>2022-09-17T10:54:59Z</time>
      </trkpt>
      <trkpt lat="42.64548" lon="1.67935">
        <ele>2553.249</ele>
        <time>2022-09-17T10:55:01Z</time>
      </trkpt>
      <trkpt lat="42.64548" lon="1.67935">
        <ele>2553.253</ele>
        <time>2022-09-17T10:55:03Z</time>
      </trkpt>
      <trkpt lat="42.64548" lon="1.67935">
        <ele>2553.251</ele>
        <time>2022-09-17T10:55:05Z</time>
      </trkpt>
      <trkpt lat="42.64548" lon="1.67935">
        <ele>2553.252</ele>
        <time>2022-09-17T10:55:07Z</time>
      </trkpt>
      <trkpt lat="42.64548" lon="1.67935">
        <ele>2553.252</ele>
        <time>2022-09-17T10:55:09Z</time>
      </trkpt>
      <trkpt lat="42.64548" lon="1.67935">
        <ele>2553.254</ele>
        <time>2022-09-17T10:55:11Z</time>
      </trkpt>
      <trkpt lat="42.64548" lon="1.67935">
        <ele>2553.251</ele>
        <time>2022-09-17T10:55:13Z</time>
      </trkpt>
      <trkpt lat="42.64548" lon="1.67935">
        <ele>2553.251</ele>
        <time>2022-09-17T10:55:15Z</time>
      </trkpt>
      <trkpt lat="42.64548" lon="1.67935">
        <ele>2553.252</ele>
        <time>2022-09-17T10:55:17Z</time>
      </trkpt>
      <trkpt lat="42.64548" lon="1.67935">
        <ele>2553.251</ele>
        <time>2022-09-17T10:55:19Z</time>
      </trkpt>
      <trkpt lat="42.64548" lon="1.67935">
        <ele>2553.25</ele>
        <time>2022-09-17T10:55:21Z</time>
      </trkpt>
      <trkpt lat="42.64548" lon="1.67935">
        <ele>2553.248</ele>
        <time>2022-09-17T10:55:23Z</time>
      </trkpt>
      <trkpt lat="42.64548" lon="1.67935">
        <ele>2553.247</ele>
        <time>2022-09-17T10:55:25Z</time>
      </trkpt>
      <trkpt lat="42.64548" lon="1.67935">
        <ele>2553.247</ele>
        <time>2022-09-17T10:55:27Z</time>
      </trkpt>
      <trkpt lat="42.64548" lon="1.67935">
        <ele>2553.245</ele>
        <time>2022-09-17T10:55:29Z</time>
      </trkpt>
      <trkpt lat="42.64548" lon="1.67935">
        <ele>2553.243</ele>
        <time>2022-09-17T10:55:31Z</time>
      </trkpt>
      <trkpt lat="42.64548" lon="1.67935">
        <ele>2553.244</ele>
        <time>2022-09-17T10:55:33Z</time>
      </trkpt>
      <trkpt lat="42.64548" lon="1.67935">
        <ele>2553.244</ele>
        <time>2022-09-17T10:55:35Z</time>
      </trkpt>
      <trkpt lat="42.64548" lon="1.67935">
        <ele>2553.245</ele>
        <time>2022-09-17T10:55:37Z</time>
      </trkpt>
      <trkpt lat="42.64548" lon="1.67935">
        <ele>2553.246</ele>
        <time>2022-09-17T10:55:39Z</time>
      </trkpt>
      <trkpt lat="42.64548" lon="1.67935">
        <ele>2553.249</ele>
        <time>2022-09-17T10:55:41Z</time>
      </trkpt>
      <trkpt lat="42.64548" lon="1.67935">
        <ele>2553.251</ele>
        <time>2022-09-17T10:55:43Z</time>
      </trkpt>
      <trkpt lat="42.64548" lon="1.67935">
        <ele>2553.251</ele>
        <time>2022-09-17T10:55:45Z</time>
      </trkpt>
      <trkpt lat="42.64548" lon="1.67935">
        <ele>2553.255</ele>
        <time>2022-09-17T10:55:47Z</time>
      </trkpt>
      <trkpt lat="42.64548" lon="1.67935">
        <ele>2553.258</ele>
        <time>2022-09-17T10:55:49Z</time>
      </trkpt>
      <trkpt lat="42.64548" lon="1.67935">
        <ele>2553.257</ele>
        <time>2022-09-17T10:55:51Z</time>
      </trkpt>
      <trkpt lat="42.64548" lon="1.67935">
        <ele>2553.257</ele>
        <time>2022-09-17T10:55:53Z</time>
      </trkpt>
      <trkpt lat="42.64548" lon="1.67935">
        <ele>2553.259</ele>
        <time>2022-09-17T10:55:55Z</time>
      </trkpt>
      <trkpt lat="42.64548" lon="1.67935">
        <ele>2553.257</ele>
        <time>2022-09-17T10:55:57Z</time>
      </trkpt>
      <trkpt lat="42.64548" lon="1.67935">
        <ele>2553.261</ele>
        <time>2022-09-17T10:55:59Z</time>
      </trkpt>
      <trkpt lat="42.64548" lon="1.67935">
        <ele>2553.262</ele>
        <time>2022-09-17T10:56:01Z</time>
      </trkpt>
      <trkpt lat="42.64548" lon="1.67935">
        <ele>2553.259</ele>
        <time>2022-09-17T10:56:03Z</time>
      </trkpt>
      <trkpt lat="42.64548" lon="1.67935">
        <ele>2553.257</ele>
        <time>2022-09-17T10:56:05Z</time>
      </trkpt>
      <trkpt lat="42.64548" lon="1.67935">
        <ele>2553.254</ele>
        <time>2022-09-17T10:56:07Z</time>
      </trkpt>
      <trkpt lat="42.64548" lon="1.67935">
        <ele>2553.251</ele>
        <time>2022-09-17T10:56:09Z</time>
      </trkpt>
      <trkpt lat="42.64548" lon="1.67935">
        <ele>2553.251</ele>
        <time>2022-09-17T10:56:11Z</time>
      </trkpt>
      <trkpt lat="42.64548" lon="1.67935">
        <ele>2553.253</ele>
        <time>2022-09-17T10:56:13Z</time>
      </trkpt>
      <trkpt lat="42.64548" lon="1.67935">
        <ele>2553.252</ele>
        <time>2022-09-17T10:56:15Z</time>
      </trkpt>
      <trkpt lat="42.64548" lon="1.67935">
        <ele>2553.25</ele>
        <time>2022-09-17T10:56:17Z</time>
      </trkpt>
      <trkpt lat="42.64548" lon="1.67935">
        <ele>2553.251</ele>
        <time>2022-09-17T10:56:19Z</time>
      </trkpt>
      <trkpt lat="42.64548" lon="1.67935">
        <ele>2553.25</ele>
        <time>2022-09-17T10:56:21Z</time>
      </trkpt>
      <trkpt lat="42.64548" lon="1.67935">
        <ele>2553.251</ele>
        <time>2022-09-17T10:56:23Z</time>
      </trkpt>
      <trkpt lat="42.64548" lon="1.67935">
        <ele>2553.249</ele>
        <time>2022-09-17T10:56:25Z</time>
      </trkpt>
      <trkpt lat="42.64548" lon="1.67935">
        <ele>2553.247</ele>
        <time>2022-09-17T10:56:27Z</time>
      </trkpt>
      <trkpt lat="42.64548" lon="1.67935">
        <ele>2553.245</ele>
        <time>2022-09-17T10:56:29Z</time>
      </trkpt>
      <trkpt lat="42.64548" lon="1.67935">
        <ele>2553.243</ele>
        <time>2022-09-17T10:56:31Z</time>
      </trkpt>
      <trkpt lat="42.64548" lon="1.67935">
        <ele>2553.244</ele>
        <time>2022-09-17T10:56:33Z</time>
      </trkpt>
      <trkpt lat="42.64548" lon="1.67935">
        <ele>2553.242</ele>
        <time>2022-09-17T10:56:35Z</time>
      </trkpt>
      <trkpt lat="42.64548" lon="1.67935">
        <ele>2553.244</ele>
        <time>2022-09-17T10:56:37Z</time>
      </trkpt>
      <trkpt lat="42.64548" lon="1.67935">
        <ele>2553.244</ele>
        <time>2022-09-17T10:56:39Z</time>
      </trkpt>
      <trkpt lat="42.64548" lon="1.67935">
        <ele>2553.244</ele>
        <time>2022-09-17T10:56:41Z</time>
      </trkpt>
      <trkpt lat="42.64548" lon="1.67935">
        <ele>2553.243</ele>
        <time>2022-09-17T10:56:43Z</time>
      </trkpt>
      <trkpt lat="42.64548" lon="1.67935">
        <ele>2553.244</ele>
        <time>2022-09-17T10:56:45Z</time>
      </trkpt>
      <trkpt lat="42.64548" lon="1.67935">
        <ele>2553.242</ele>
        <time>2022-09-17T10:56:47Z</time>
      </trkpt>
      <trkpt lat="42.64548" lon="1.67935">
        <ele>2553.241</ele>
        <time>2022-09-17T10:56:49Z</time>
      </trkpt>
      <trkpt lat="42.64548" lon="1.67935">
        <ele>2553.243</ele>
        <time>2022-09-17T10:56:51Z</time>
      </trkpt>
      <trkpt lat="42.64548" lon="1.67935">
        <ele>2553.245</ele>
        <time>2022-09-17T10:56:53Z</time>
      </trkpt>
      <trkpt lat="42.64548" lon="1.67935">
        <ele>2553.246</ele>
        <time>2022-09-17T10:56:55Z</time>
      </trkpt>
      <trkpt lat="42.64548" lon="1.67935">
        <ele>2553.246</ele>
        <time>2022-09-17T10:56:57Z</time>
      </trkpt>
      <trkpt lat="42.64548" lon="1.67935">
        <ele>2553.245</ele>
        <time>2022-09-17T10:56:59Z</time>
      </trkpt>
      <trkpt lat="42.64548" lon="1.67935">
        <ele>2553.244</ele>
        <time>2022-09-17T10:57:01Z</time>
      </trkpt>
      <trkpt lat="42.64548" lon="1.67935">
        <ele>2553.245</ele>
        <time>2022-09-17T10:57:03Z</time>
      </trkpt>
      <trkpt lat="42.64548" lon="1.67935">
        <ele>2553.248</ele>
        <time>2022-09-17T10:57:05Z</time>
      </trkpt>
      <trkpt lat="42.64548" lon="1.67935">
        <ele>2553.248</ele>
        <time>2022-09-17T10:57:07Z</time>
      </trkpt>
      <trkpt lat="42.64548" lon="1.67935">
        <ele>2553.244</ele>
        <time>2022-09-17T10:57:09Z</time>
      </trkpt>
      <trkpt lat="42.64548" lon="1.67935">
        <ele>2553.243</ele>
        <time>2022-09-17T10:57:11Z</time>
      </trkpt>
      <trkpt lat="42.64548" lon="1.67935">
        <ele>2553.239</ele>
        <time>2022-09-17T10:57:13Z</time>
      </trkpt>
      <trkpt lat="42.64548" lon="1.67935">
        <ele>2553.242</ele>
        <time>2022-09-17T10:57:15Z</time>
      </trkpt>
      <trkpt lat="42.64548" lon="1.67935">
        <ele>2553.241</ele>
        <time>2022-09-17T10:57:17Z</time>
      </trkpt>
      <trkpt lat="42.64548" lon="1.67935">
        <ele>2553.242</ele>
        <time>2022-09-17T10:57:19Z</time>
      </trkpt>
      <trkpt lat="42.64548" lon="1.67935">
        <ele>2553.241</ele>
        <time>2022-09-17T10:57:21Z</time>
      </trkpt>
      <trkpt lat="42.64548" lon="1.67935">
        <ele>2553.24</ele>
        <time>2022-09-17T10:57:23Z</time>
      </trkpt>
      <trkpt lat="42.64548" lon="1.67935">
        <ele>2553.241</ele>
        <time>2022-09-17T10:57:25Z</time>
      </trkpt>
      <trkpt lat="42.64548" lon="1.67935">
        <ele>2553.24</ele>
        <time>2022-09-17T10:57:27Z</time>
      </trkpt>
      <trkpt lat="42.64548" lon="1.67935">
        <ele>2553.242</ele>
        <time>2022-09-17T10:57:29Z</time>
      </trkpt>
      <trkpt lat="42.64548" lon="1.67935">
        <ele>2553.241</ele>
        <time>2022-09-17T10:57:31Z</time>
      </trkpt>
      <trkpt lat="42.64548" lon="1.67935">
        <ele>2553.242</ele>
        <time>2022-09-17T10:57:33Z</time>
      </trkpt>
      <trkpt lat="42.64548" lon="1.67935">
        <ele>2553.245</ele>
        <time>2022-09-17T10:57:35Z</time>
      </trkpt>
      <trkpt lat="42.64548" lon="1.67935">
        <ele>2553.244</ele>
        <time>2022-09-17T10:57:37Z</time>
      </trkpt>
      <trkpt lat="42.64548" lon="1.67935">
        <ele>2553.242</ele>
        <time>2022-09-17T10:57:39Z</time>
      </trkpt>
      <trkpt lat="42.64548" lon="1.67935">
        <ele>2553.243</ele>
        <time>2022-09-17T10:57:41Z</time>
      </trkpt>
      <trkpt lat="42.64548" lon="1.67935">
        <ele>2553.243</ele>
        <time>2022-09-17T10:57:43Z</time>
      </trkpt>
      <trkpt lat="42.64548" lon="1.67935">
        <ele>2553.246</ele>
        <time>2022-09-17T10:57:45Z</time>
      </trkpt>
      <trkpt lat="42.64548" lon="1.67935">
        <ele>2553.244</ele>
        <time>2022-09-17T10:57:47Z</time>
      </trkpt>
      <trkpt lat="42.64548" lon="1.67935">
        <ele>2553.245</ele>
        <time>2022-09-17T10:57:49Z</time>
      </trkpt>
      <trkpt lat="42.64548" lon="1.67935">
        <ele>2553.244</ele>
        <time>2022-09-17T10:57:51Z</time>
      </trkpt>
      <trkpt lat="42.64548" lon="1.67935">
        <ele>2553.244</ele>
        <time>2022-09-17T10:57:53Z</time>
      </trkpt>
      <trkpt lat="42.64548" lon="1.67935">
        <ele>2553.243</ele>
        <time>2022-09-17T10:57:55Z</time>
      </trkpt>
      <trkpt lat="42.64548" lon="1.67935">
        <ele>2553.244</ele>
        <time>2022-09-17T10:57:57Z</time>
      </trkpt>
      <trkpt lat="42.64548" lon="1.67935">
        <ele>2553.243</ele>
        <time>2022-09-17T10:57:59Z</time>
      </trkpt>
      <trkpt lat="42.64548" lon="1.67935">
        <ele>2553.243</ele>
        <time>2022-09-17T10:58:01Z</time>
      </trkpt>
      <trkpt lat="42.64548" lon="1.67935">
        <ele>2553.245</ele>
        <time>2022-09-17T10:58:03Z</time>
      </trkpt>
      <trkpt lat="42.64548" lon="1.67935">
        <ele>2553.245</ele>
        <time>2022-09-17T10:58:05Z</time>
      </trkpt>
      <trkpt lat="42.64548" lon="1.67935">
        <ele>2553.246</ele>
        <time>2022-09-17T10:58:07Z</time>
      </trkpt>
      <trkpt lat="42.64548" lon="1.67935">
        <ele>2553.246</ele>
        <time>2022-09-17T10:58:09Z</time>
      </trkpt>
      <trkpt lat="42.64548" lon="1.67935">
        <ele>2553.247</ele>
        <time>2022-09-17T10:58:11Z</time>
      </trkpt>
      <trkpt lat="42.64548" lon="1.67935">
        <ele>2553.248</ele>
        <time>2022-09-17T10:58:13Z</time>
      </trkpt>
      <trkpt lat="42.64548" lon="1.67935">
        <ele>2553.25</ele>
        <time>2022-09-17T10:58:15Z</time>
      </trkpt>
      <trkpt lat="42.64548" lon="1.67935">
        <ele>2553.25</ele>
        <time>2022-09-17T10:58:17Z</time>
      </trkpt>
      <trkpt lat="42.64548" lon="1.67935">
        <ele>2553.25</ele>
        <time>2022-09-17T10:58:19Z</time>
      </trkpt>
      <trkpt lat="42.64548" lon="1.67935">
        <ele>2553.249</ele>
        <time>2022-09-17T10:58:21Z</time>
      </trkpt>
      <trkpt lat="42.64548" lon="1.67935">
        <ele>2553.251</ele>
        <time>2022-09-17T10:58:23Z</time>
      </trkpt>
      <trkpt lat="42.64548" lon="1.67935">
        <ele>2553.253</ele>
        <time>2022-09-17T10:58:25Z</time>
      </trkpt>
      <trkpt lat="42.64548" lon="1.67935">
        <ele>2553.251</ele>
        <time>2022-09-17T10:58:27Z</time>
      </trkpt>
      <trkpt lat="42.64548" lon="1.67935">
        <ele>2553.25</ele>
        <time>2022-09-17T10:58:29Z</time>
      </trkpt>
      <trkpt lat="42.64548" lon="1.67935">
        <ele>2553.249</ele>
        <time>2022-09-17T10:58:31Z</time>
      </trkpt>
      <trkpt lat="42.64548" lon="1.67935">
        <ele>2553.248</ele>
        <time>2022-09-17T10:58:33Z</time>
      </trkpt>
      <trkpt lat="42.64548" lon="1.67935">
        <ele>2553.249</ele>
        <time>2022-09-17T10:58:35Z</time>
      </trkpt>
      <trkpt lat="42.64548" lon="1.67935">
        <ele>2553.248</ele>
        <time>2022-09-17T10:58:37Z</time>
      </trkpt>
      <trkpt lat="42.64548" lon="1.67935">
        <ele>2553.248</ele>
        <time>2022-09-17T10:58:39Z</time>
      </trkpt>
      <trkpt lat="42.64548" lon="1.67935">
        <ele>2553.248</ele>
        <time>2022-09-17T10:58:41Z</time>
      </trkpt>
      <trkpt lat="42.64548" lon="1.67935">
        <ele>2553.248</ele>
        <time>2022-09-17T10:58:43Z</time>
      </trkpt>
      <trkpt lat="42.64548" lon="1.67935">
        <ele>2553.247</ele>
        <time>2022-09-17T10:58:45Z</time>
      </trkpt>
      <trkpt lat="42.64548" lon="1.67935">
        <ele>2553.244</ele>
        <time>2022-09-17T10:58:47Z</time>
      </trkpt>
      <trkpt lat="42.64548" lon="1.67935">
        <ele>2553.245</ele>
        <time>2022-09-17T10:58:49Z</time>
      </trkpt>
      <trkpt lat="42.64548" lon="1.67935">
        <ele>2553.246</ele>
        <time>2022-09-17T10:58:51Z</time>
      </trkpt>
      <trkpt lat="42.64548" lon="1.67935">
        <ele>2553.245</ele>
        <time>2022-09-17T10:58:53Z</time>
      </trkpt>
      <trkpt lat="42.64548" lon="1.67935">
        <ele>2553.244</ele>
        <time>2022-09-17T10:58:55Z</time>
      </trkpt>
      <trkpt lat="42.64548" lon="1.67935">
        <ele>2553.245</ele>
        <time>2022-09-17T10:58:57Z</time>
      </trkpt>
      <trkpt lat="42.64548" lon="1.67935">
        <ele>2553.246</ele>
        <time>2022-09-17T10:58:59Z</time>
      </trkpt>
      <trkpt lat="42.64548" lon="1.67935">
        <ele>2553.246</ele>
        <time>2022-09-17T10:59:01Z</time>
      </trkpt>
      <trkpt lat="42.64548" lon="1.67935">
        <ele>2553.246</ele>
        <time>2022-09-17T10:59:03Z</time>
      </trkpt>
      <trkpt lat="42.64548" lon="1.67935">
        <ele>2553.247</ele>
        <time>2022-09-17T10:59:05Z</time>
      </trkpt>
      <trkpt lat="42.64548" lon="1.67935">
        <ele>2553.246</ele>
        <time>2022-09-17T10:59:07Z</time>
      </trkpt>
      <trkpt lat="42.64548" lon="1.67935">
        <ele>2553.248</ele>
        <time>2022-09-17T10:59:09Z</time>
      </trkpt>
      <trkpt lat="42.64548" lon="1.67935">
        <ele>2553.248</ele>
        <time>2022-09-17T10:59:11Z</time>
      </trkpt>
      <trkpt lat="42.64548" lon="1.67935">
        <ele>2553.247</ele>
        <time>2022-09-17T10:59:13Z</time>
      </trkpt>
      <trkpt lat="42.64548" lon="1.67935">
        <ele>2553.247</ele>
        <time>2022-09-17T10:59:15Z</time>
      </trkpt>
      <trkpt lat="42.64548" lon="1.67935">
        <ele>2553.249</ele>
        <time>2022-09-17T10:59:17Z</time>
      </trkpt>
      <trkpt lat="42.64548" lon="1.67935">
        <ele>2553.248</ele>
        <time>2022-09-17T10:59:19Z</time>
      </trkpt>
      <trkpt lat="42.64548" lon="1.67935">
        <ele>2553.248</ele>
        <time>2022-09-17T10:59:21Z</time>
      </trkpt>
      <trkpt lat="42.64548" lon="1.67935">
        <ele>2553.247</ele>
        <time>2022-09-17T10:59:23Z</time>
      </trkpt>
      <trkpt lat="42.64548" lon="1.67935">
        <ele>2553.25</ele>
        <time>2022-09-17T10:59:25Z</time>
      </trkpt>
      <trkpt lat="42.64548" lon="1.67935">
        <ele>2553.251</ele>
        <time>2022-09-17T10:59:27Z</time>
      </trkpt>
      <trkpt lat="42.64548" lon="1.67935">
        <ele>2553.254</ele>
        <time>2022-09-17T10:59:29Z</time>
      </trkpt>
      <trkpt lat="42.64548" lon="1.67935">
        <ele>2553.255</ele>
        <time>2022-09-17T10:59:31Z</time>
      </trkpt>
      <trkpt lat="42.64548" lon="1.67935">
        <ele>2553.255</ele>
        <time>2022-09-17T10:59:33Z</time>
      </trkpt>
      <trkpt lat="42.64548" lon="1.67935">
        <ele>2553.255</ele>
        <time>2022-09-17T10:59:35Z</time>
      </trkpt>
      <trkpt lat="42.64548" lon="1.67935">
        <ele>2553.256</ele>
        <time>2022-09-17T10:59:37Z</time>
      </trkpt>
      <trkpt lat="42.64548" lon="1.67935">
        <ele>2553.258</ele>
        <time>2022-09-17T10:59:39Z</time>
      </trkpt>
      <trkpt lat="42.64548" lon="1.67935">
        <ele>2553.257</ele>
        <time>2022-09-17T10:59:41Z</time>
      </trkpt>
      <trkpt lat="42.64548" lon="1.67935">
        <ele>2553.257</ele>
        <time>2022-09-17T10:59:43Z</time>
      </trkpt>
      <trkpt lat="42.64548" lon="1.67935">
        <ele>2553.26</ele>
        <time>2022-09-17T10:59:45Z</time>
      </trkpt>
      <trkpt lat="42.64548" lon="1.67935">
        <ele>2553.26</ele>
        <time>2022-09-17T10:59:47Z</time>
      </trkpt>
      <trkpt lat="42.64548" lon="1.67935">
        <ele>2553.259</ele>
        <time>2022-09-17T10:59:49Z</time>
      </trkpt>
      <trkpt lat="42.64548" lon="1.67935">
        <ele>2553.256</ele>
        <time>2022-09-17T10:59:51Z</time>
      </trkpt>
      <trkpt lat="42.64548" lon="1.67935">
        <ele>2553.256</ele>
        <time>2022-09-17T10:59:53Z</time>
      </trkpt>
      <trkpt lat="42.64548" lon="1.67935">
        <ele>2553.258</ele>
        <time>2022-09-17T10:59:55Z</time>
      </trkpt>
      <trkpt lat="42.64548" lon="1.67935">
        <ele>2553.262</ele>
        <time>2022-09-17T10:59:57Z</time>
      </trkpt>
      <trkpt lat="42.64548" lon="1.67935">
        <ele>2553.266</ele>
        <time>2022-09-17T10:59:59Z</time>
      </trkpt>
      <trkpt lat="42.64548" lon="1.67935">
        <ele>2553.266</ele>
        <time>2022-09-17T11:00:01Z</time>
      </trkpt>
      <trkpt lat="42.64548" lon="1.67935">
        <ele>2553.264</ele>
        <time>2022-09-17T11:00:03Z</time>
      </trkpt>
      <trkpt lat="42.64548" lon="1.67935">
        <ele>2553.266</ele>
        <time>2022-09-17T11:00:05Z</time>
      </trkpt>
      <trkpt lat="42.64548" lon="1.67935">
        <ele>2553.264</ele>
        <time>2022-09-17T11:00:07Z</time>
      </trkpt>
      <trkpt lat="42.64548" lon="1.67935">
        <ele>2553.265</ele>
        <time>2022-09-17T11:00:09Z</time>
      </trkpt>
      <trkpt lat="42.64548" lon="1.67935">
        <ele>2553.267</ele>
        <time>2022-09-17T11:00:11Z</time>
      </trkpt>
      <trkpt lat="42.64548" lon="1.67935">
        <ele>2553.265</ele>
        <time>2022-09-17T11:00:13Z</time>
      </trkpt>
      <trkpt lat="42.64548" lon="1.67935">
        <ele>2553.265</ele>
        <time>2022-09-17T11:00:15Z</time>
      </trkpt>
      <trkpt lat="42.64548" lon="1.67935">
        <ele>2553.265</ele>
        <time>2022-09-17T11:00:17Z</time>
      </trkpt>
      <trkpt lat="42.64548" lon="1.67935">
        <ele>2553.267</ele>
        <time>2022-09-17T11:00:19Z</time>
      </trkpt>
      <trkpt lat="42.64548" lon="1.67935">
        <ele>2553.268</ele>
        <time>2022-09-17T11:00:21Z</time>
      </trkpt>
      <trkpt lat="42.64548" lon="1.67935">
        <ele>2553.264</ele>
        <time>2022-09-17T11:00:23Z</time>
      </trkpt>
      <trkpt lat="42.64548" lon="1.67935">
        <ele>2553.266</ele>
        <time>2022-09-17T11:00:25Z</time>
      </trkpt>
      <trkpt lat="42.64548" lon="1.67935">
        <ele>2553.267</ele>
        <time>2022-09-17T11:00:27Z</time>
      </trkpt>
      <trkpt lat="42.64548" lon="1.67935">
        <ele>2553.268</ele>
        <time>2022-09-17T11:00:29Z</time>
      </trkpt>
      <trkpt lat="42.64548" lon="1.67935">
        <ele>2553.267</ele>
        <time>2022-09-17T11:00:31Z</time>
      </trkpt>
      <trkpt lat="42.64548" lon="1.67935">
        <ele>2553.268</ele>
        <time>2022-09-17T11:00:33Z</time>
      </trkpt>
      <trkpt lat="42.64548" lon="1.67935">
        <ele>2553.27</ele>
        <time>2022-09-17T11:00:35Z</time>
      </trkpt>
      <trkpt lat="42.64548" lon="1.67935">
        <ele>2553.27</ele>
        <time>2022-09-17T11:00:37Z</time>
      </trkpt>
      <trkpt lat="42.64548" lon="1.67935">
        <ele>2553.273</ele>
        <time>2022-09-17T11:00:39Z</time>
      </trkpt>
      <trkpt lat="42.64548" lon="1.67935">
        <ele>2553.273</ele>
        <time>2022-09-17T11:00:41Z</time>
      </trkpt>
      <trkpt lat="42.64548" lon="1.67935">
        <ele>2553.272</ele>
        <time>2022-09-17T11:00:43Z</time>
      </trkpt>
      <trkpt lat="42.64548" lon="1.67935">
        <ele>2553.275</ele>
        <time>2022-09-17T11:00:45Z</time>
      </trkpt>
      <trkpt lat="42.64548" lon="1.67935">
        <ele>2553.278</ele>
        <time>2022-09-17T11:00:47Z</time>
      </trkpt>
      <trkpt lat="42.64548" lon="1.67935">
        <ele>2553.278</ele>
        <time>2022-09-17T11:00:49Z</time>
      </trkpt>
      <trkpt lat="42.64548" lon="1.67935">
        <ele>2553.277</ele>
        <time>2022-09-17T11:00:51Z</time>
      </trkpt>
      <trkpt lat="42.64548" lon="1.67935">
        <ele>2553.276</ele>
        <time>2022-09-17T11:00:53Z</time>
      </trkpt>
      <trkpt lat="42.64548" lon="1.67935">
        <ele>2553.276</ele>
        <time>2022-09-17T11:00:55Z</time>
      </trkpt>
      <trkpt lat="42.64548" lon="1.67935">
        <ele>2553.276</ele>
        <time>2022-09-17T11:00:57Z</time>
      </trkpt>
      <trkpt lat="42.64548" lon="1.67939">
        <ele>2550.804</ele>
        <time>2022-09-17T11:17:20Z</time>
      </trkpt>
      <trkpt lat="42.64551" lon="1.67939">
        <ele>2560.983</ele>
        <time>2022-09-17T11:17:23Z</time>
      </trkpt>
      <trkpt lat="42.64551" lon="1.67939">
        <ele>2561.383</ele>
        <time>2022-09-17T11:17:25Z</time>
      </trkpt>
      <trkpt lat="42.64551" lon="1.67938">
        <ele>2562.025</ele>
        <time>2022-09-17T11:17:27Z</time>
      </trkpt>
      <trkpt lat="42.64552" lon="1.67938">
        <ele>2562.861</ele>
        <time>2022-09-17T11:17:29Z</time>
      </trkpt>
      <trkpt lat="42.64551" lon="1.67937">
        <ele>2562.617</ele>
        <time>2022-09-17T11:17:31Z</time>
      </trkpt>
      <trkpt lat="42.64551" lon="1.67937">
        <ele>2562.546</ele>
        <time>2022-09-17T11:17:33Z</time>
      </trkpt>
      <trkpt lat="42.64551" lon="1.67937">
        <ele>2562.503</ele>
        <time>2022-09-17T11:17:36Z</time>
      </trkpt>
      <trkpt lat="42.64551" lon="1.67937">
        <ele>2562.51</ele>
        <time>2022-09-17T11:17:38Z</time>
      </trkpt>
      <trkpt lat="42.64551" lon="1.67937">
        <ele>2562.495</ele>
        <time>2022-09-17T11:17:40Z</time>
      </trkpt>
      <trkpt lat="42.64551" lon="1.67937">
        <ele>2562.491</ele>
        <time>2022-09-17T11:17:42Z</time>
      </trkpt>
      <trkpt lat="42.6455" lon="1.67937">
        <ele>2561.831</ele>
        <time>2022-09-17T11:17:44Z</time>
      </trkpt>
      <trkpt lat="42.6455" lon="1.67937">
        <ele>2559.474</ele>
        <time>2022-09-17T11:17:47Z</time>
      </trkpt>
      <trkpt lat="42.6455" lon="1.67937">
        <ele>2559.517</ele>
        <time>2022-09-17T11:17:49Z</time>
      </trkpt>
      <trkpt lat="42.6455" lon="1.67937">
        <ele>2559.062</ele>
        <time>2022-09-17T11:17:51Z</time>
      </trkpt>
      <trkpt lat="42.6455" lon="1.67937">
        <ele>2558.664</ele>
        <time>2022-09-17T11:17:53Z</time>
      </trkpt>
      <trkpt lat="42.6455" lon="1.67937">
        <ele>2558.719</ele>
        <time>2022-09-17T11:17:55Z</time>
      </trkpt>
      <trkpt lat="42.6455" lon="1.67937">
        <ele>2558.525</ele>
        <time>2022-09-17T11:17:57Z</time>
      </trkpt>
      <trkpt lat="42.64551" lon="1.67937">
        <ele>2559.249</ele>
        <time>2022-09-17T11:17:59Z</time>
      </trkpt>
      <trkpt lat="42.64551" lon="1.67936">
        <ele>2557.227</ele>
        <time>2022-09-17T11:18:01Z</time>
      </trkpt>
      <trkpt lat="42.64551" lon="1.67937">
        <ele>2556.715</ele>
        <time>2022-09-17T11:18:03Z</time>
      </trkpt>
      <trkpt lat="42.64551" lon="1.67936">
        <ele>2555.493</ele>
        <time>2022-09-17T11:18:06Z</time>
      </trkpt>
      <trkpt lat="42.64551" lon="1.67936">
        <ele>2555.469</ele>
        <time>2022-09-17T11:18:08Z</time>
      </trkpt>
      <trkpt lat="42.64551" lon="1.67936">
        <ele>2555.585</ele>
        <time>2022-09-17T11:18:10Z</time>
      </trkpt>
      <trkpt lat="42.64551" lon="1.67936">
        <ele>2555.632</ele>
        <time>2022-09-17T11:18:12Z</time>
      </trkpt>
      <trkpt lat="42.64551" lon="1.67936">
        <ele>2555.527</ele>
        <time>2022-09-17T11:18:14Z</time>
      </trkpt>
      <trkpt lat="42.64552" lon="1.67935">
        <ele>2555.6</ele>
        <time>2022-09-17T11:18:16Z</time>
      </trkpt>
      <trkpt lat="42.64552" lon="1.67935">
        <ele>2555.626</ele>
        <time>2022-09-17T11:18:18Z</time>
      </trkpt>
      <trkpt lat="42.64552" lon="1.67935">
        <ele>2555.635</ele>
        <time>2022-09-17T11:18:20Z</time>
      </trkpt>
      <trkpt lat="42.64552" lon="1.67935">
        <ele>2555.636</ele>
        <time>2022-09-17T11:18:22Z</time>
      </trkpt>
      <trkpt lat="42.64552" lon="1.67935">
        <ele>2555.629</ele>
        <time>2022-09-17T11:18:24Z</time>
      </trkpt>
      <trkpt lat="42.64552" lon="1.67935">
        <ele>2555.637</ele>
        <time>2022-09-17T11:18:26Z</time>
      </trkpt>
      <trkpt lat="42.64552" lon="1.67935">
        <ele>2555.633</ele>
        <time>2022-09-17T11:18:28Z</time>
      </trkpt>
      <trkpt lat="42.64552" lon="1.67935">
        <ele>2555.63</ele>
        <time>2022-09-17T11:18:30Z</time>
      </trkpt>
      <trkpt lat="42.64552" lon="1.67935">
        <ele>2555.633</ele>
        <time>2022-09-17T11:18:32Z</time>
      </trkpt>
      <trkpt lat="42.64552" lon="1.67935">
        <ele>2555.638</ele>
        <time>2022-09-17T11:18:34Z</time>
      </trkpt>
      <trkpt lat="42.64552" lon="1.67935">
        <ele>2555.644</ele>
        <time>2022-09-17T11:18:36Z</time>
      </trkpt>
      <trkpt lat="42.64552" lon="1.67935">
        <ele>2555.644</ele>
        <time>2022-09-17T11:18:38Z</time>
      </trkpt>
      <trkpt lat="42.64552" lon="1.67935">
        <ele>2555.644</ele>
        <time>2022-09-17T11:18:40Z</time>
      </trkpt>
      <trkpt lat="42.64552" lon="1.67935">
        <ele>2556.323</ele>
        <time>2022-09-17T11:18:42Z</time>
      </trkpt>
      <trkpt lat="42.64552" lon="1.67935">
        <ele>2556.488</ele>
        <time>2022-09-17T11:18:44Z</time>
      </trkpt>
      <trkpt lat="42.64552" lon="1.67935">
        <ele>2556.677</ele>
        <time>2022-09-17T11:18:46Z</time>
      </trkpt>
      <trkpt lat="42.64552" lon="1.67935">
        <ele>2556.894</ele>
        <time>2022-09-17T11:18:48Z</time>
      </trkpt>
      <trkpt lat="42.64552" lon="1.67935">
        <ele>2556.143</ele>
        <time>2022-09-17T11:18:50Z</time>
      </trkpt>
      <trkpt lat="42.64552" lon="1.67934">
        <ele>2555.911</ele>
        <time>2022-09-17T11:18:52Z</time>
      </trkpt>
      <trkpt lat="42.64551" lon="1.67934">
        <ele>2555.953</ele>
        <time>2022-09-17T11:18:54Z</time>
      </trkpt>
      <trkpt lat="42.64551" lon="1.67934">
        <ele>2555.978</ele>
        <time>2022-09-17T11:18:56Z</time>
      </trkpt>
      <trkpt lat="42.64551" lon="1.67934">
        <ele>2555.715</ele>
        <time>2022-09-17T11:18:58Z</time>
      </trkpt>
      <trkpt lat="42.64551" lon="1.67934">
        <ele>2556.195</ele>
        <time>2022-09-17T11:19:00Z</time>
      </trkpt>
      <trkpt lat="42.64552" lon="1.67934">
        <ele>2556.485</ele>
        <time>2022-09-17T11:19:02Z</time>
      </trkpt>
      <trkpt lat="42.64552" lon="1.67934">
        <ele>2556.422</ele>
        <time>2022-09-17T11:19:04Z</time>
      </trkpt>
      <trkpt lat="42.64552" lon="1.67934">
        <ele>2556.411</ele>
        <time>2022-09-17T11:19:06Z</time>
      </trkpt>
      <trkpt lat="42.64552" lon="1.67934">
        <ele>2556.366</ele>
        <time>2022-09-17T11:19:08Z</time>
      </trkpt>
      <trkpt lat="42.64552" lon="1.67934">
        <ele>2556.368</ele>
        <time>2022-09-17T11:19:10Z</time>
      </trkpt>
      <trkpt lat="42.64552" lon="1.67934">
        <ele>2556.368</ele>
        <time>2022-09-17T11:19:12Z</time>
      </trkpt>
      <trkpt lat="42.64552" lon="1.67934">
        <ele>2556.37</ele>
        <time>2022-09-17T11:19:14Z</time>
      </trkpt>
      <trkpt lat="42.64552" lon="1.67934">
        <ele>2556.366</ele>
        <time>2022-09-17T11:19:16Z</time>
      </trkpt>
      <trkpt lat="42.64553" lon="1.67934">
        <ele>2555.139</ele>
        <time>2022-09-17T11:19:18Z</time>
      </trkpt>
      <trkpt lat="42.64553" lon="1.67934">
        <ele>2554.573</ele>
        <time>2022-09-17T11:19:20Z</time>
      </trkpt>
      <trkpt lat="42.64553" lon="1.67934">
        <ele>2554.767</ele>
        <time>2022-09-17T11:19:22Z</time>
      </trkpt>
      <trkpt lat="42.64554" lon="1.67935">
        <ele>2555.453</ele>
        <time>2022-09-17T11:19:24Z</time>
      </trkpt>
      <trkpt lat="42.64553" lon="1.67935">
        <ele>2555.603</ele>
        <time>2022-09-17T11:19:26Z</time>
      </trkpt>
      <trkpt lat="42.64553" lon="1.67934">
        <ele>2556.264</ele>
        <time>2022-09-17T11:19:28Z</time>
      </trkpt>
      <trkpt lat="42.64554" lon="1.67934">
        <ele>2557.718</ele>
        <time>2022-09-17T11:19:30Z</time>
      </trkpt>
      <trkpt lat="42.64554" lon="1.67934">
        <ele>2558.323</ele>
        <time>2022-09-17T11:19:32Z</time>
      </trkpt>
      <trkpt lat="42.64554" lon="1.67934">
        <ele>2558.481</ele>
        <time>2022-09-17T11:19:34Z</time>
      </trkpt>
      <trkpt lat="42.64554" lon="1.67934">
        <ele>2559.379</ele>
        <time>2022-09-17T11:19:36Z</time>
      </trkpt>
      <trkpt lat="42.64554" lon="1.67934">
        <ele>2559.549</ele>
        <time>2022-09-17T11:19:38Z</time>
      </trkpt>
      <trkpt lat="42.64555" lon="1.67934">
        <ele>2559.165</ele>
        <time>2022-09-17T11:19:40Z</time>
      </trkpt>
      <trkpt lat="42.64555" lon="1.67933">
        <ele>2559.111</ele>
        <time>2022-09-17T11:19:42Z</time>
      </trkpt>
      <trkpt lat="42.64555" lon="1.67933">
        <ele>2558.85</ele>
        <time>2022-09-17T11:19:44Z</time>
      </trkpt>
      <trkpt lat="42.64555" lon="1.67932">
        <ele>2559.273</ele>
        <time>2022-09-17T11:19:46Z</time>
      </trkpt>
      <trkpt lat="42.64555" lon="1.67931">
        <ele>2559.183</ele>
        <time>2022-09-17T11:19:48Z</time>
      </trkpt>
      <trkpt lat="42.64554" lon="1.6793">
        <ele>2559.288</ele>
        <time>2022-09-17T11:19:50Z</time>
      </trkpt>
      <trkpt lat="42.64554" lon="1.67929">
        <ele>2558.821</ele>
        <time>2022-09-17T11:19:52Z</time>
      </trkpt>
      <trkpt lat="42.64554" lon="1.67929">
        <ele>2559.135</ele>
        <time>2022-09-17T11:19:54Z</time>
      </trkpt>
      <trkpt lat="42.64554" lon="1.67929">
        <ele>2558.85</ele>
        <time>2022-09-17T11:19:56Z</time>
      </trkpt>
      <trkpt lat="42.64553" lon="1.67929">
        <ele>2558.743</ele>
        <time>2022-09-17T11:19:58Z</time>
      </trkpt>
      <trkpt lat="42.64552" lon="1.67928">
        <ele>2558.175</ele>
        <time>2022-09-17T11:20:00Z</time>
      </trkpt>
      <trkpt lat="42.64551" lon="1.67927">
        <ele>2558.393</ele>
        <time>2022-09-17T11:20:02Z</time>
      </trkpt>
      <trkpt lat="42.64549" lon="1.67927">
        <ele>2558.129</ele>
        <time>2022-09-17T11:20:04Z</time>
      </trkpt>
      <trkpt lat="42.64548" lon="1.67926">
        <ele>2557.944</ele>
        <time>2022-09-17T11:20:06Z</time>
      </trkpt>
      <trkpt lat="42.64548" lon="1.67927">
        <ele>2557.475</ele>
        <time>2022-09-17T11:20:08Z</time>
      </trkpt>
      <trkpt lat="42.64548" lon="1.67927">
        <ele>2557.627</ele>
        <time>2022-09-17T11:20:10Z</time>
      </trkpt>
      <trkpt lat="42.64547" lon="1.67927">
        <ele>2556.881</ele>
        <time>2022-09-17T11:20:12Z</time>
      </trkpt>
      <trkpt lat="42.64547" lon="1.67927">
        <ele>2556.89</ele>
        <time>2022-09-17T11:20:14Z</time>
      </trkpt>
      <trkpt lat="42.64547" lon="1.67926">
        <ele>2556.934</ele>
        <time>2022-09-17T11:20:16Z</time>
      </trkpt>
      <trkpt lat="42.64547" lon="1.67926">
        <ele>2556.708</ele>
        <time>2022-09-17T11:20:18Z</time>
      </trkpt>
      <trkpt lat="42.64547" lon="1.67926">
        <ele>2556.709</ele>
        <time>2022-09-17T11:20:20Z</time>
      </trkpt>
      <trkpt lat="42.64546" lon="1.67926">
        <ele>2556.873</ele>
        <time>2022-09-17T11:20:22Z</time>
      </trkpt>
      <trkpt lat="42.64546" lon="1.67926">
        <ele>2557.013</ele>
        <time>2022-09-17T11:20:24Z</time>
      </trkpt>
      <trkpt lat="42.64545" lon="1.67926">
        <ele>2557.351</ele>
        <time>2022-09-17T11:20:26Z</time>
      </trkpt>
      <trkpt lat="42.64545" lon="1.67926">
        <ele>2557.509</ele>
        <time>2022-09-17T11:20:28Z</time>
      </trkpt>
      <trkpt lat="42.64545" lon="1.67926">
        <ele>2557.362</ele>
        <time>2022-09-17T11:20:30Z</time>
      </trkpt>
      <trkpt lat="42.64544" lon="1.67926">
        <ele>2557.563</ele>
        <time>2022-09-17T11:20:32Z</time>
      </trkpt>
      <trkpt lat="42.64544" lon="1.67926">
        <ele>2557.886</ele>
        <time>2022-09-17T11:20:34Z</time>
      </trkpt>
      <trkpt lat="42.64544" lon="1.67926">
        <ele>2557.72</ele>
        <time>2022-09-17T11:20:36Z</time>
      </trkpt>
      <trkpt lat="42.64545" lon="1.67924">
        <ele>2557.419</ele>
        <time>2022-09-17T11:20:38Z</time>
      </trkpt>
      <trkpt lat="42.64545" lon="1.67923">
        <ele>2558.28</ele>
        <time>2022-09-17T11:20:40Z</time>
      </trkpt>
      <trkpt lat="42.64544" lon="1.67923">
        <ele>2558.528</ele>
        <time>2022-09-17T11:20:42Z</time>
      </trkpt>
      <trkpt lat="42.64544" lon="1.67923">
        <ele>2557.924</ele>
        <time>2022-09-17T11:20:44Z</time>
      </trkpt>
      <trkpt lat="42.64544" lon="1.67923">
        <ele>2558.306</ele>
        <time>2022-09-17T11:20:46Z</time>
      </trkpt>
      <trkpt lat="42.64544" lon="1.67923">
        <ele>2558.752</ele>
        <time>2022-09-17T11:20:48Z</time>
      </trkpt>
      <trkpt lat="42.64544" lon="1.67923">
        <ele>2559.232</ele>
        <time>2022-09-17T11:20:50Z</time>
      </trkpt>
      <trkpt lat="42.64544" lon="1.67924">
        <ele>2559.509</ele>
        <time>2022-09-17T11:20:52Z</time>
      </trkpt>
      <trkpt lat="42.64544" lon="1.67924">
        <ele>2559.634</ele>
        <time>2022-09-17T11:20:54Z</time>
      </trkpt>
      <trkpt lat="42.64544" lon="1.67924">
        <ele>2560.284</ele>
        <time>2022-09-17T11:20:56Z</time>
      </trkpt>
      <trkpt lat="42.64544" lon="1.67924">
        <ele>2560.364</ele>
        <time>2022-09-17T11:20:58Z</time>
      </trkpt>
      <trkpt lat="42.64544" lon="1.67924">
        <ele>2560.556</ele>
        <time>2022-09-17T11:21:00Z</time>
      </trkpt>
      <trkpt lat="42.64543" lon="1.67924">
        <ele>2560.71</ele>
        <time>2022-09-17T11:21:02Z</time>
      </trkpt>
      <trkpt lat="42.64543" lon="1.67924">
        <ele>2559.831</ele>
        <time>2022-09-17T11:21:04Z</time>
      </trkpt>
      <trkpt lat="42.64542" lon="1.67925">
        <ele>2559.581</ele>
        <time>2022-09-17T11:21:06Z</time>
      </trkpt>
      <trkpt lat="42.64542" lon="1.67925">
        <ele>2559.566</ele>
        <time>2022-09-17T11:21:08Z</time>
      </trkpt>
      <trkpt lat="42.64542" lon="1.67925">
        <ele>2559.288</ele>
        <time>2022-09-17T11:21:10Z</time>
      </trkpt>
      <trkpt lat="42.64543" lon="1.67925">
        <ele>2559.085</ele>
        <time>2022-09-17T11:21:12Z</time>
      </trkpt>
      <trkpt lat="42.64543" lon="1.67925">
        <ele>2558.871</ele>
        <time>2022-09-17T11:21:14Z</time>
      </trkpt>
      <trkpt lat="42.64543" lon="1.67925">
        <ele>2558.688</ele>
        <time>2022-09-17T11:21:16Z</time>
      </trkpt>
      <trkpt lat="42.64543" lon="1.67925">
        <ele>2557.996</ele>
        <time>2022-09-17T11:21:18Z</time>
      </trkpt>
      <trkpt lat="42.64543" lon="1.67925">
        <ele>2557.716</ele>
        <time>2022-09-17T11:21:20Z</time>
      </trkpt>
      <trkpt lat="42.64542" lon="1.67925">
        <ele>2557.533</ele>
        <time>2022-09-17T11:21:22Z</time>
      </trkpt>
      <trkpt lat="42.64542" lon="1.67925">
        <ele>2557.283</ele>
        <time>2022-09-17T11:21:24Z</time>
      </trkpt>
      <trkpt lat="42.64542" lon="1.67925">
        <ele>2557.305</ele>
        <time>2022-09-17T11:21:26Z</time>
      </trkpt>
      <trkpt lat="42.64542" lon="1.67925">
        <ele>2557.295</ele>
        <time>2022-09-17T11:21:28Z</time>
      </trkpt>
      <trkpt lat="42.64542" lon="1.67925">
        <ele>2557.295</ele>
        <time>2022-09-17T11:21:30Z</time>
      </trkpt>
      <trkpt lat="42.64542" lon="1.67925">
        <ele>2557.291</ele>
        <time>2022-09-17T11:21:32Z</time>
      </trkpt>
      <trkpt lat="42.64542" lon="1.67925">
        <ele>2557.289</ele>
        <time>2022-09-17T11:21:34Z</time>
      </trkpt>
      <trkpt lat="42.64542" lon="1.67925">
        <ele>2557.293</ele>
        <time>2022-09-17T11:21:36Z</time>
      </trkpt>
      <trkpt lat="42.64542" lon="1.67925">
        <ele>2557.293</ele>
        <time>2022-09-17T11:21:38Z</time>
      </trkpt>
      <trkpt lat="42.64542" lon="1.67925">
        <ele>2557.29</ele>
        <time>2022-09-17T11:21:40Z</time>
      </trkpt>
      <trkpt lat="42.64542" lon="1.67925">
        <ele>2557.288</ele>
        <time>2022-09-17T11:21:42Z</time>
      </trkpt>
      <trkpt lat="42.64542" lon="1.67925">
        <ele>2557.281</ele>
        <time>2022-09-17T11:21:44Z</time>
      </trkpt>
      <trkpt lat="42.64542" lon="1.67925">
        <ele>2557.278</ele>
        <time>2022-09-17T11:21:46Z</time>
      </trkpt>
      <trkpt lat="42.64542" lon="1.67925">
        <ele>2557.374</ele>
        <time>2022-09-17T11:21:48Z</time>
      </trkpt>
      <trkpt lat="42.64542" lon="1.67924">
        <ele>2557.279</ele>
        <time>2022-09-17T11:21:50Z</time>
      </trkpt>
      <trkpt lat="42.64542" lon="1.67924">
        <ele>2556.652</ele>
        <time>2022-09-17T11:21:52Z</time>
      </trkpt>
      <trkpt lat="42.64541" lon="1.67924">
        <ele>2556.207</ele>
        <time>2022-09-17T11:21:54Z</time>
      </trkpt>
      <trkpt lat="42.64542" lon="1.67924">
        <ele>2556.453</ele>
        <time>2022-09-17T11:21:56Z</time>
      </trkpt>
      <trkpt lat="42.64542" lon="1.67924">
        <ele>2556.561</ele>
        <time>2022-09-17T11:21:58Z</time>
      </trkpt>
      <trkpt lat="42.64542" lon="1.67924">
        <ele>2556.631</ele>
        <time>2022-09-17T11:22:00Z</time>
      </trkpt>
      <trkpt lat="42.64542" lon="1.67925">
        <ele>2556.472</ele>
        <time>2022-09-17T11:22:02Z</time>
      </trkpt>
      <trkpt lat="42.64542" lon="1.67925">
        <ele>2556.222</ele>
        <time>2022-09-17T11:22:04Z</time>
      </trkpt>
      <trkpt lat="42.64542" lon="1.67925">
        <ele>2556.103</ele>
        <time>2022-09-17T11:22:06Z</time>
      </trkpt>
      <trkpt lat="42.64542" lon="1.67925">
        <ele>2556.1</ele>
        <time>2022-09-17T11:22:08Z</time>
      </trkpt>
      <trkpt lat="42.64542" lon="1.67925">
        <ele>2556.094</ele>
        <time>2022-09-17T11:22:10Z</time>
      </trkpt>
      <trkpt lat="42.64542" lon="1.67925">
        <ele>2556.093</ele>
        <time>2022-09-17T11:22:12Z</time>
      </trkpt>
      <trkpt lat="42.64542" lon="1.67925">
        <ele>2556.088</ele>
        <time>2022-09-17T11:22:14Z</time>
      </trkpt>
      <trkpt lat="42.64542" lon="1.67925">
        <ele>2556.077</ele>
        <time>2022-09-17T11:22:16Z</time>
      </trkpt>
      <trkpt lat="42.64542" lon="1.67925">
        <ele>2556.079</ele>
        <time>2022-09-17T11:22:18Z</time>
      </trkpt>
      <trkpt lat="42.64542" lon="1.67925">
        <ele>2556.075</ele>
        <time>2022-09-17T11:22:20Z</time>
      </trkpt>
      <trkpt lat="42.64542" lon="1.67925">
        <ele>2556.117</ele>
        <time>2022-09-17T11:22:22Z</time>
      </trkpt>
      <trkpt lat="42.64542" lon="1.67925">
        <ele>2556.096</ele>
        <time>2022-09-17T11:22:24Z</time>
      </trkpt>
      <trkpt lat="42.64542" lon="1.67925">
        <ele>2555.841</ele>
        <time>2022-09-17T11:22:26Z</time>
      </trkpt>
      <trkpt lat="42.64542" lon="1.67925">
        <ele>2555.722</ele>
        <time>2022-09-17T11:22:28Z</time>
      </trkpt>
      <trkpt lat="42.64542" lon="1.67924">
        <ele>2555.554</ele>
        <time>2022-09-17T11:22:30Z</time>
      </trkpt>
      <trkpt lat="42.64542" lon="1.67924">
        <ele>2555.517</ele>
        <time>2022-09-17T11:22:32Z</time>
      </trkpt>
      <trkpt lat="42.64541" lon="1.67924">
        <ele>2555.596</ele>
        <time>2022-09-17T11:22:34Z</time>
      </trkpt>
      <trkpt lat="42.64541" lon="1.67924">
        <ele>2555.596</ele>
        <time>2022-09-17T11:22:36Z</time>
      </trkpt>
      <trkpt lat="42.64541" lon="1.67924">
        <ele>2555.598</ele>
        <time>2022-09-17T11:22:38Z</time>
      </trkpt>
      <trkpt lat="42.64541" lon="1.67924">
        <ele>2555.603</ele>
        <time>2022-09-17T11:22:40Z</time>
      </trkpt>
      <trkpt lat="42.64541" lon="1.67924">
        <ele>2556.207</ele>
        <time>2022-09-17T11:22:42Z</time>
      </trkpt>
      <trkpt lat="42.64541" lon="1.67924">
        <ele>2555.542</ele>
        <time>2022-09-17T11:22:44Z</time>
      </trkpt>
      <trkpt lat="42.64541" lon="1.67924">
        <ele>2555.141</ele>
        <time>2022-09-17T11:22:46Z</time>
      </trkpt>
      <trkpt lat="42.64541" lon="1.67924">
        <ele>2554.913</ele>
        <time>2022-09-17T11:22:48Z</time>
      </trkpt>
      <trkpt lat="42.64541" lon="1.67923">
        <ele>2554.507</ele>
        <time>2022-09-17T11:22:50Z</time>
      </trkpt>
      <trkpt lat="42.64541" lon="1.67924">
        <ele>2554.309</ele>
        <time>2022-09-17T11:22:52Z</time>
      </trkpt>
      <trkpt lat="42.64541" lon="1.67924">
        <ele>2554.245</ele>
        <time>2022-09-17T11:22:54Z</time>
      </trkpt>
      <trkpt lat="42.64541" lon="1.67924">
        <ele>2554.237</ele>
        <time>2022-09-17T11:22:56Z</time>
      </trkpt>
      <trkpt lat="42.64541" lon="1.67924">
        <ele>2554.234</ele>
        <time>2022-09-17T11:22:58Z</time>
      </trkpt>
      <trkpt lat="42.64541" lon="1.67924">
        <ele>2554.229</ele>
        <time>2022-09-17T11:23:00Z</time>
      </trkpt>
      <trkpt lat="42.64541" lon="1.67924">
        <ele>2554.222</ele>
        <time>2022-09-17T11:23:02Z</time>
      </trkpt>
      <trkpt lat="42.6454" lon="1.67924">
        <ele>2553.892</ele>
        <time>2022-09-17T11:23:04Z</time>
      </trkpt>
      <trkpt lat="42.6454" lon="1.67923">
        <ele>2554.277</ele>
        <time>2022-09-17T11:23:06Z</time>
      </trkpt>
      <trkpt lat="42.6454" lon="1.67923">
        <ele>2554.126</ele>
        <time>2022-09-17T11:23:08Z</time>
      </trkpt>
      <trkpt lat="42.64539" lon="1.67923">
        <ele>2554.13</ele>
        <time>2022-09-17T11:23:10Z</time>
      </trkpt>
      <trkpt lat="42.6454" lon="1.67923">
        <ele>2554.047</ele>
        <time>2022-09-17T11:23:12Z</time>
      </trkpt>
      <trkpt lat="42.64539" lon="1.67923">
        <ele>2553.979</ele>
        <time>2022-09-17T11:23:14Z</time>
      </trkpt>
      <trkpt lat="42.64539" lon="1.67923">
        <ele>2553.665</ele>
        <time>2022-09-17T11:23:16Z</time>
      </trkpt>
      <trkpt lat="42.64539" lon="1.67923">
        <ele>2553.109</ele>
        <time>2022-09-17T11:23:18Z</time>
      </trkpt>
      <trkpt lat="42.64539" lon="1.67922">
        <ele>2553.18</ele>
        <time>2022-09-17T11:23:20Z</time>
      </trkpt>
      <trkpt lat="42.64539" lon="1.67922">
        <ele>2553.099</ele>
        <time>2022-09-17T11:23:22Z</time>
      </trkpt>
      <trkpt lat="42.64539" lon="1.67921">
        <ele>2552.631</ele>
        <time>2022-09-17T11:23:24Z</time>
      </trkpt>
      <trkpt lat="42.64539" lon="1.67921">
        <ele>2552.517</ele>
        <time>2022-09-17T11:23:26Z</time>
      </trkpt>
      <trkpt lat="42.64539" lon="1.6792">
        <ele>2552.191</ele>
        <time>2022-09-17T11:23:28Z</time>
      </trkpt>
      <trkpt lat="42.64539" lon="1.6792">
        <ele>2552.201</ele>
        <time>2022-09-17T11:23:30Z</time>
      </trkpt>
      <trkpt lat="42.64539" lon="1.6792">
        <ele>2552.452</ele>
        <time>2022-09-17T11:23:32Z</time>
      </trkpt>
      <trkpt lat="42.64539" lon="1.67919">
        <ele>2552.288</ele>
        <time>2022-09-17T11:23:34Z</time>
      </trkpt>
      <trkpt lat="42.64539" lon="1.67919">
        <ele>2552.695</ele>
        <time>2022-09-17T11:23:36Z</time>
      </trkpt>
      <trkpt lat="42.64539" lon="1.67919">
        <ele>2553.153</ele>
        <time>2022-09-17T11:23:38Z</time>
      </trkpt>
      <trkpt lat="42.64539" lon="1.67919">
        <ele>2553.413</ele>
        <time>2022-09-17T11:23:40Z</time>
      </trkpt>
      <trkpt lat="42.64539" lon="1.67919">
        <ele>2553.552</ele>
        <time>2022-09-17T11:23:42Z</time>
      </trkpt>
      <trkpt lat="42.64539" lon="1.67919">
        <ele>2553.579</ele>
        <time>2022-09-17T11:23:44Z</time>
      </trkpt>
      <trkpt lat="42.64538" lon="1.67918">
        <ele>2553.328</ele>
        <time>2022-09-17T11:23:46Z</time>
      </trkpt>
      <trkpt lat="42.64538" lon="1.67918">
        <ele>2553.032</ele>
        <time>2022-09-17T11:23:48Z</time>
      </trkpt>
      <trkpt lat="42.64538" lon="1.67918">
        <ele>2552.257</ele>
        <time>2022-09-17T11:23:50Z</time>
      </trkpt>
      <trkpt lat="42.64538" lon="1.67917">
        <ele>2551.87</ele>
        <time>2022-09-17T11:23:52Z</time>
      </trkpt>
      <trkpt lat="42.64537" lon="1.67916">
        <ele>2550.932</ele>
        <time>2022-09-17T11:23:54Z</time>
      </trkpt>
      <trkpt lat="42.64537" lon="1.67915">
        <ele>2550.847</ele>
        <time>2022-09-17T11:23:56Z</time>
      </trkpt>
      <trkpt lat="42.64537" lon="1.67914">
        <ele>2549.639</ele>
        <time>2022-09-17T11:23:58Z</time>
      </trkpt>
      <trkpt lat="42.64536" lon="1.67913">
        <ele>2549.34</ele>
        <time>2022-09-17T11:24:00Z</time>
      </trkpt>
      <trkpt lat="42.64536" lon="1.67913">
        <ele>2548.875</ele>
        <time>2022-09-17T11:24:02Z</time>
      </trkpt>
      <trkpt lat="42.64536" lon="1.67912">
        <ele>2548.899</ele>
        <time>2022-09-17T11:24:04Z</time>
      </trkpt>
      <trkpt lat="42.64536" lon="1.67912">
        <ele>2548.569</ele>
        <time>2022-09-17T11:24:06Z</time>
      </trkpt>
      <trkpt lat="42.64535" lon="1.67911">
        <ele>2548.326</ele>
        <time>2022-09-17T11:24:08Z</time>
      </trkpt>
      <trkpt lat="42.64535" lon="1.6791">
        <ele>2547.839</ele>
        <time>2022-09-17T11:24:10Z</time>
      </trkpt>
      <trkpt lat="42.64535" lon="1.67908">
        <ele>2545.818</ele>
        <time>2022-09-17T11:24:12Z</time>
      </trkpt>
      <trkpt lat="42.64534" lon="1.67907">
        <ele>2546.393</ele>
        <time>2022-09-17T11:24:14Z</time>
      </trkpt>
      <trkpt lat="42.64534" lon="1.67906">
        <ele>2546.419</ele>
        <time>2022-09-17T11:24:16Z</time>
      </trkpt>
      <trkpt lat="42.64534" lon="1.67904">
        <ele>2545.97</ele>
        <time>2022-09-17T11:24:18Z</time>
      </trkpt>
      <trkpt lat="42.64534" lon="1.67904">
        <ele>2546.305</ele>
        <time>2022-09-17T11:24:20Z</time>
      </trkpt>
      <trkpt lat="42.64534" lon="1.67903">
        <ele>2545.043</ele>
        <time>2022-09-17T11:24:22Z</time>
      </trkpt>
      <trkpt lat="42.64533" lon="1.67903">
        <ele>2544.279</ele>
        <time>2022-09-17T11:24:24Z</time>
      </trkpt>
      <trkpt lat="42.64533" lon="1.67902">
        <ele>2543.23</ele>
        <time>2022-09-17T11:24:26Z</time>
      </trkpt>
      <trkpt lat="42.64532" lon="1.67901">
        <ele>2544.008</ele>
        <time>2022-09-17T11:24:28Z</time>
      </trkpt>
      <trkpt lat="42.64532" lon="1.679">
        <ele>2542.466</ele>
        <time>2022-09-17T11:24:30Z</time>
      </trkpt>
      <trkpt lat="42.64531" lon="1.67899">
        <ele>2542.152</ele>
        <time>2022-09-17T11:24:32Z</time>
      </trkpt>
      <trkpt lat="42.64531" lon="1.67897">
        <ele>2541.303</ele>
        <time>2022-09-17T11:24:34Z</time>
      </trkpt>
      <trkpt lat="42.64531" lon="1.67896">
        <ele>2540.773</ele>
        <time>2022-09-17T11:24:36Z</time>
      </trkpt>
      <trkpt lat="42.64531" lon="1.67894">
        <ele>2540.319</ele>
        <time>2022-09-17T11:24:38Z</time>
      </trkpt>
      <trkpt lat="42.64531" lon="1.67893">
        <ele>2539.18</ele>
        <time>2022-09-17T11:24:40Z</time>
      </trkpt>
      <trkpt lat="42.64532" lon="1.67891">
        <ele>2538.385</ele>
        <time>2022-09-17T11:24:42Z</time>
      </trkpt>
      <trkpt lat="42.64532" lon="1.67889">
        <ele>2538.746</ele>
        <time>2022-09-17T11:24:44Z</time>
      </trkpt>
      <trkpt lat="42.64532" lon="1.67888">
        <ele>2539.424</ele>
        <time>2022-09-17T11:24:46Z</time>
      </trkpt>
      <trkpt lat="42.64532" lon="1.67886">
        <ele>2539.314</ele>
        <time>2022-09-17T11:24:48Z</time>
      </trkpt>
      <trkpt lat="42.64532" lon="1.67884">
        <ele>2539.141</ele>
        <time>2022-09-17T11:24:50Z</time>
      </trkpt>
      <trkpt lat="42.64532" lon="1.67883">
        <ele>2539.814</ele>
        <time>2022-09-17T11:24:52Z</time>
      </trkpt>
      <trkpt lat="42.64531" lon="1.67882">
        <ele>2540.453</ele>
        <time>2022-09-17T11:24:54Z</time>
      </trkpt>
      <trkpt lat="42.64531" lon="1.67881">
        <ele>2541.319</ele>
        <time>2022-09-17T11:24:56Z</time>
      </trkpt>
      <trkpt lat="42.64531" lon="1.67881">
        <ele>2541.29</ele>
        <time>2022-09-17T11:24:58Z</time>
      </trkpt>
      <trkpt lat="42.6453" lon="1.67881">
        <ele>2541.294</ele>
        <time>2022-09-17T11:25:00Z</time>
      </trkpt>
      <trkpt lat="42.6453" lon="1.6788">
        <ele>2541.005</ele>
        <time>2022-09-17T11:25:02Z</time>
      </trkpt>
      <trkpt lat="42.6453" lon="1.6788">
        <ele>2540.745</ele>
        <time>2022-09-17T11:25:04Z</time>
      </trkpt>
      <trkpt lat="42.6453" lon="1.6788">
        <ele>2540.616</ele>
        <time>2022-09-17T11:25:06Z</time>
      </trkpt>
      <trkpt lat="42.64529" lon="1.67879">
        <ele>2541.291</ele>
        <time>2022-09-17T11:25:08Z</time>
      </trkpt>
      <trkpt lat="42.64529" lon="1.67878">
        <ele>2540.522</ele>
        <time>2022-09-17T11:25:10Z</time>
      </trkpt>
      <trkpt lat="42.64529" lon="1.67878">
        <ele>2538.832</ele>
        <time>2022-09-17T11:25:12Z</time>
      </trkpt>
      <trkpt lat="42.64528" lon="1.67878">
        <ele>2538.653</ele>
        <time>2022-09-17T11:25:14Z</time>
      </trkpt>
      <trkpt lat="42.64528" lon="1.67877">
        <ele>2538.118</ele>
        <time>2022-09-17T11:25:16Z</time>
      </trkpt>
      <trkpt lat="42.64528" lon="1.67876">
        <ele>2538.297</ele>
        <time>2022-09-17T11:25:18Z</time>
      </trkpt>
      <trkpt lat="42.64528" lon="1.67876">
        <ele>2538.3</ele>
        <time>2022-09-17T11:25:20Z</time>
      </trkpt>
      <trkpt lat="42.64528" lon="1.67876">
        <ele>2538.028</ele>
        <time>2022-09-17T11:25:22Z</time>
      </trkpt>
      <trkpt lat="42.64528" lon="1.67875">
        <ele>2537.791</ele>
        <time>2022-09-17T11:25:24Z</time>
      </trkpt>
      <trkpt lat="42.64528" lon="1.67875">
        <ele>2537.972</ele>
        <time>2022-09-17T11:25:26Z</time>
      </trkpt>
      <trkpt lat="42.64528" lon="1.67874">
        <ele>2538.133</ele>
        <time>2022-09-17T11:25:28Z</time>
      </trkpt>
      <trkpt lat="42.64528" lon="1.67874">
        <ele>2537.544</ele>
        <time>2022-09-17T11:25:30Z</time>
      </trkpt>
      <trkpt lat="42.64527" lon="1.67875">
        <ele>2537.472</ele>
        <time>2022-09-17T11:25:32Z</time>
      </trkpt>
      <trkpt lat="42.64527" lon="1.67875">
        <ele>2537.762</ele>
        <time>2022-09-17T11:25:34Z</time>
      </trkpt>
      <trkpt lat="42.64527" lon="1.67875">
        <ele>2537.761</ele>
        <time>2022-09-17T11:25:36Z</time>
      </trkpt>
      <trkpt lat="42.64527" lon="1.67874">
        <ele>2537.071</ele>
        <time>2022-09-17T11:25:38Z</time>
      </trkpt>
      <trkpt lat="42.64526" lon="1.67873">
        <ele>2536.385</ele>
        <time>2022-09-17T11:25:40Z</time>
      </trkpt>
      <trkpt lat="42.64526" lon="1.67871">
        <ele>2535.864</ele>
        <time>2022-09-17T11:25:42Z</time>
      </trkpt>
      <trkpt lat="42.64525" lon="1.67871">
        <ele>2535.006</ele>
        <time>2022-09-17T11:25:44Z</time>
      </trkpt>
      <trkpt lat="42.64525" lon="1.6787">
        <ele>2534.13</ele>
        <time>2022-09-17T11:25:46Z</time>
      </trkpt>
      <trkpt lat="42.64525" lon="1.67869">
        <ele>2534.062</ele>
        <time>2022-09-17T11:25:48Z</time>
      </trkpt>
      <trkpt lat="42.64524" lon="1.67869">
        <ele>2533.721</ele>
        <time>2022-09-17T11:25:50Z</time>
      </trkpt>
      <trkpt lat="42.64524" lon="1.67868">
        <ele>2533.548</ele>
        <time>2022-09-17T11:25:52Z</time>
      </trkpt>
      <trkpt lat="42.64523" lon="1.67868">
        <ele>2532.944</ele>
        <time>2022-09-17T11:25:54Z</time>
      </trkpt>
      <trkpt lat="42.64523" lon="1.67867">
        <ele>2531.796</ele>
        <time>2022-09-17T11:25:56Z</time>
      </trkpt>
      <trkpt lat="42.64522" lon="1.67867">
        <ele>2531.971</ele>
        <time>2022-09-17T11:25:58Z</time>
      </trkpt>
      <trkpt lat="42.64522" lon="1.67867">
        <ele>2532.235</ele>
        <time>2022-09-17T11:26:00Z</time>
      </trkpt>
      <trkpt lat="42.64522" lon="1.67867">
        <ele>2531.751</ele>
        <time>2022-09-17T11:26:02Z</time>
      </trkpt>
      <trkpt lat="42.64522" lon="1.67865">
        <ele>2531.224</ele>
        <time>2022-09-17T11:26:04Z</time>
      </trkpt>
      <trkpt lat="42.64522" lon="1.67863">
        <ele>2530.768</ele>
        <time>2022-09-17T11:26:06Z</time>
      </trkpt>
      <trkpt lat="42.64523" lon="1.67862">
        <ele>2530.59</ele>
        <time>2022-09-17T11:26:08Z</time>
      </trkpt>
      <trkpt lat="42.64523" lon="1.67862">
        <ele>2530.478</ele>
        <time>2022-09-17T11:26:10Z</time>
      </trkpt>
      <trkpt lat="42.64522" lon="1.67861">
        <ele>2531.242</ele>
        <time>2022-09-17T11:26:12Z</time>
      </trkpt>
      <trkpt lat="42.64522" lon="1.67861">
        <ele>2531.411</ele>
        <time>2022-09-17T11:26:14Z</time>
      </trkpt>
      <trkpt lat="42.64521" lon="1.6786">
        <ele>2531.21</ele>
        <time>2022-09-17T11:26:16Z</time>
      </trkpt>
      <trkpt lat="42.64521" lon="1.6786">
        <ele>2531.684</ele>
        <time>2022-09-17T11:26:18Z</time>
      </trkpt>
      <trkpt lat="42.6452" lon="1.6786">
        <ele>2531.747</ele>
        <time>2022-09-17T11:26:20Z</time>
      </trkpt>
      <trkpt lat="42.64519" lon="1.67861">
        <ele>2530.465</ele>
        <time>2022-09-17T11:26:22Z</time>
      </trkpt>
      <trkpt lat="42.64519" lon="1.67861">
        <ele>2530.605</ele>
        <time>2022-09-17T11:26:24Z</time>
      </trkpt>
      <trkpt lat="42.64518" lon="1.67862">
        <ele>2529.19</ele>
        <time>2022-09-17T11:26:26Z</time>
      </trkpt>
      <trkpt lat="42.64518" lon="1.67862">
        <ele>2529.181</ele>
        <time>2022-09-17T11:26:28Z</time>
      </trkpt>
      <trkpt lat="42.64518" lon="1.67862">
        <ele>2529.164</ele>
        <time>2022-09-17T11:26:30Z</time>
      </trkpt>
      <trkpt lat="42.64518" lon="1.67862">
        <ele>2529.155</ele>
        <time>2022-09-17T11:26:32Z</time>
      </trkpt>
      <trkpt lat="42.64518" lon="1.67862">
        <ele>2529.128</ele>
        <time>2022-09-17T11:26:34Z</time>
      </trkpt>
      <trkpt lat="42.64518" lon="1.67862">
        <ele>2529.112</ele>
        <time>2022-09-17T11:26:36Z</time>
      </trkpt>
      <trkpt lat="42.64518" lon="1.67862">
        <ele>2529.103</ele>
        <time>2022-09-17T11:26:38Z</time>
      </trkpt>
      <trkpt lat="42.64518" lon="1.67862">
        <ele>2529.085</ele>
        <time>2022-09-17T11:26:40Z</time>
      </trkpt>
      <trkpt lat="42.64518" lon="1.67862">
        <ele>2529.062</ele>
        <time>2022-09-17T11:26:42Z</time>
      </trkpt>
      <trkpt lat="42.64518" lon="1.67862">
        <ele>2529.044</ele>
        <time>2022-09-17T11:26:44Z</time>
      </trkpt>
      <trkpt lat="42.64517" lon="1.67863">
        <ele>2528.258</ele>
        <time>2022-09-17T11:26:46Z</time>
      </trkpt>
      <trkpt lat="42.64516" lon="1.67862">
        <ele>2527.484</ele>
        <time>2022-09-17T11:26:48Z</time>
      </trkpt>
      <trkpt lat="42.64516" lon="1.67862">
        <ele>2526.179</ele>
        <time>2022-09-17T11:26:50Z</time>
      </trkpt>
      <trkpt lat="42.64515" lon="1.67863">
        <ele>2525.895</ele>
        <time>2022-09-17T11:26:52Z</time>
      </trkpt>
      <trkpt lat="42.64515" lon="1.67864">
        <ele>2525.298</ele>
        <time>2022-09-17T11:26:54Z</time>
      </trkpt>
      <trkpt lat="42.64514" lon="1.67865">
        <ele>2524.61</ele>
        <time>2022-09-17T11:26:56Z</time>
      </trkpt>
      <trkpt lat="42.64514" lon="1.67864">
        <ele>2524.661</ele>
        <time>2022-09-17T11:26:58Z</time>
      </trkpt>
      <trkpt lat="42.64514" lon="1.67864">
        <ele>2524.467</ele>
        <time>2022-09-17T11:27:00Z</time>
      </trkpt>
      <trkpt lat="42.64513" lon="1.67865">
        <ele>2524.344</ele>
        <time>2022-09-17T11:27:02Z</time>
      </trkpt>
      <trkpt lat="42.64513" lon="1.67865">
        <ele>2524.06</ele>
        <time>2022-09-17T11:27:04Z</time>
      </trkpt>
      <trkpt lat="42.64512" lon="1.67865">
        <ele>2523.237</ele>
        <time>2022-09-17T11:27:06Z</time>
      </trkpt>
      <trkpt lat="42.64512" lon="1.67864">
        <ele>2522.089</ele>
        <time>2022-09-17T11:27:08Z</time>
      </trkpt>
      <trkpt lat="42.64512" lon="1.67863">
        <ele>2521.403</ele>
        <time>2022-09-17T11:27:10Z</time>
      </trkpt>
      <trkpt lat="42.64511" lon="1.67863">
        <ele>2520.777</ele>
        <time>2022-09-17T11:27:12Z</time>
      </trkpt>
      <trkpt lat="42.64511" lon="1.67863">
        <ele>2520.494</ele>
        <time>2022-09-17T11:27:14Z</time>
      </trkpt>
      <trkpt lat="42.64511" lon="1.67861">
        <ele>2520.262</ele>
        <time>2022-09-17T11:27:16Z</time>
      </trkpt>
      <trkpt lat="42.64511" lon="1.6786">
        <ele>2520.393</ele>
        <time>2022-09-17T11:27:18Z</time>
      </trkpt>
      <trkpt lat="42.6451" lon="1.6786">
        <ele>2520.121</ele>
        <time>2022-09-17T11:27:20Z</time>
      </trkpt>
      <trkpt lat="42.6451" lon="1.67859">
        <ele>2520.369</ele>
        <time>2022-09-17T11:27:22Z</time>
      </trkpt>
      <trkpt lat="42.6451" lon="1.67858">
        <ele>2519.844</ele>
        <time>2022-09-17T11:27:24Z</time>
      </trkpt>
      <trkpt lat="42.6451" lon="1.67857">
        <ele>2519.157</ele>
        <time>2022-09-17T11:27:26Z</time>
      </trkpt>
      <trkpt lat="42.64509" lon="1.67857">
        <ele>2518.257</ele>
        <time>2022-09-17T11:27:28Z</time>
      </trkpt>
      <trkpt lat="42.64509" lon="1.67855">
        <ele>2518.379</ele>
        <time>2022-09-17T11:27:30Z</time>
      </trkpt>
      <trkpt lat="42.64509" lon="1.67854">
        <ele>2518.361</ele>
        <time>2022-09-17T11:27:32Z</time>
      </trkpt>
      <trkpt lat="42.64509" lon="1.67853">
        <ele>2517.876</ele>
        <time>2022-09-17T11:27:34Z</time>
      </trkpt>
      <trkpt lat="42.64508" lon="1.67852">
        <ele>2517.872</ele>
        <time>2022-09-17T11:27:36Z</time>
      </trkpt>
      <trkpt lat="42.64508" lon="1.67851">
        <ele>2516.943</ele>
        <time>2022-09-17T11:27:38Z</time>
      </trkpt>
      <trkpt lat="42.64508" lon="1.67851">
        <ele>2517.938</ele>
        <time>2022-09-17T11:27:40Z</time>
      </trkpt>
      <trkpt lat="42.64507" lon="1.67851">
        <ele>2517.205</ele>
        <time>2022-09-17T11:27:42Z</time>
      </trkpt>
      <trkpt lat="42.64507" lon="1.67851">
        <ele>2516.836</ele>
        <time>2022-09-17T11:27:44Z</time>
      </trkpt>
      <trkpt lat="42.64507" lon="1.67851">
        <ele>2516.649</ele>
        <time>2022-09-17T11:27:46Z</time>
      </trkpt>
      <trkpt lat="42.64507" lon="1.67851">
        <ele>2516.829</ele>
        <time>2022-09-17T11:27:48Z</time>
      </trkpt>
      <trkpt lat="42.64507" lon="1.67849">
        <ele>2517.177</ele>
        <time>2022-09-17T11:27:50Z</time>
      </trkpt>
      <trkpt lat="42.64507" lon="1.67848">
        <ele>2516.769</ele>
        <time>2022-09-17T11:27:52Z</time>
      </trkpt>
      <trkpt lat="42.64506" lon="1.67848">
        <ele>2515.429</ele>
        <time>2022-09-17T11:27:54Z</time>
      </trkpt>
      <trkpt lat="42.64505" lon="1.67847">
        <ele>2514.337</ele>
        <time>2022-09-17T11:27:56Z</time>
      </trkpt>
      <trkpt lat="42.64505" lon="1.67846">
        <ele>2513.527</ele>
        <time>2022-09-17T11:27:58Z</time>
      </trkpt>
      <trkpt lat="42.64505" lon="1.67846">
        <ele>2513.407</ele>
        <time>2022-09-17T11:28:00Z</time>
      </trkpt>
      <trkpt lat="42.64504" lon="1.67845">
        <ele>2513.953</ele>
        <time>2022-09-17T11:28:02Z</time>
      </trkpt>
      <trkpt lat="42.64504" lon="1.67845">
        <ele>2513.665</ele>
        <time>2022-09-17T11:28:04Z</time>
      </trkpt>
      <trkpt lat="42.64503" lon="1.67846">
        <ele>2512.541</ele>
        <time>2022-09-17T11:28:06Z</time>
      </trkpt>
      <trkpt lat="42.64503" lon="1.67846">
        <ele>2511.327</ele>
        <time>2022-09-17T11:28:08Z</time>
      </trkpt>
      <trkpt lat="42.64502" lon="1.67847">
        <ele>2510.714</ele>
        <time>2022-09-17T11:28:10Z</time>
      </trkpt>
      <trkpt lat="42.64502" lon="1.67847">
        <ele>2510.701</ele>
        <time>2022-09-17T11:28:12Z</time>
      </trkpt>
      <trkpt lat="42.64501" lon="1.67848">
        <ele>2510.347</ele>
        <time>2022-09-17T11:28:14Z</time>
      </trkpt>
      <trkpt lat="42.64501" lon="1.67848">
        <ele>2510.855</ele>
        <time>2022-09-17T11:28:16Z</time>
      </trkpt>
      <trkpt lat="42.645" lon="1.67849">
        <ele>2510.603</ele>
        <time>2022-09-17T11:28:18Z</time>
      </trkpt>
      <trkpt lat="42.645" lon="1.67849">
        <ele>2509.997</ele>
        <time>2022-09-17T11:28:20Z</time>
      </trkpt>
      <trkpt lat="42.64499" lon="1.67849">
        <ele>2509.716</ele>
        <time>2022-09-17T11:28:22Z</time>
      </trkpt>
      <trkpt lat="42.64498" lon="1.6785">
        <ele>2509.271</ele>
        <time>2022-09-17T11:28:24Z</time>
      </trkpt>
      <trkpt lat="42.64498" lon="1.6785">
        <ele>2509.328</ele>
        <time>2022-09-17T11:28:26Z</time>
      </trkpt>
      <trkpt lat="42.64497" lon="1.67851">
        <ele>2508.769</ele>
        <time>2022-09-17T11:28:28Z</time>
      </trkpt>
      <trkpt lat="42.64496" lon="1.67852">
        <ele>2508.975</ele>
        <time>2022-09-17T11:28:30Z</time>
      </trkpt>
      <trkpt lat="42.64496" lon="1.67852">
        <ele>2509.403</ele>
        <time>2022-09-17T11:28:32Z</time>
      </trkpt>
      <trkpt lat="42.64495" lon="1.67853">
        <ele>2509.467</ele>
        <time>2022-09-17T11:28:34Z</time>
      </trkpt>
      <trkpt lat="42.64495" lon="1.67853">
        <ele>2509.301</ele>
        <time>2022-09-17T11:28:36Z</time>
      </trkpt>
      <trkpt lat="42.64494" lon="1.67854">
        <ele>2508.582</ele>
        <time>2022-09-17T11:28:38Z</time>
      </trkpt>
      <trkpt lat="42.64493" lon="1.67854">
        <ele>2508.141</ele>
        <time>2022-09-17T11:28:40Z</time>
      </trkpt>
      <trkpt lat="42.64492" lon="1.67854">
        <ele>2507.825</ele>
        <time>2022-09-17T11:28:42Z</time>
      </trkpt>
      <trkpt lat="42.64492" lon="1.67854">
        <ele>2507.912</ele>
        <time>2022-09-17T11:28:44Z</time>
      </trkpt>
      <trkpt lat="42.64491" lon="1.67855">
        <ele>2507.602</ele>
        <time>2022-09-17T11:28:46Z</time>
      </trkpt>
      <trkpt lat="42.64492" lon="1.67857">
        <ele>2507.472</ele>
        <time>2022-09-17T11:28:48Z</time>
      </trkpt>
      <trkpt lat="42.64492" lon="1.67858">
        <ele>2507.084</ele>
        <time>2022-09-17T11:28:50Z</time>
      </trkpt>
      <trkpt lat="42.64491" lon="1.67858">
        <ele>2505.861</ele>
        <time>2022-09-17T11:28:52Z</time>
      </trkpt>
      <trkpt lat="42.64491" lon="1.67858">
        <ele>2505.174</ele>
        <time>2022-09-17T11:28:54Z</time>
      </trkpt>
      <trkpt lat="42.64491" lon="1.67857">
        <ele>2505.447</ele>
        <time>2022-09-17T11:28:56Z</time>
      </trkpt>
      <trkpt lat="42.64491" lon="1.67856">
        <ele>2505.009</ele>
        <time>2022-09-17T11:28:58Z</time>
      </trkpt>
      <trkpt lat="42.6449" lon="1.67855">
        <ele>2504.603</ele>
        <time>2022-09-17T11:29:00Z</time>
      </trkpt>
      <trkpt lat="42.6449" lon="1.67853">
        <ele>2504.034</ele>
        <time>2022-09-17T11:29:02Z</time>
      </trkpt>
      <trkpt lat="42.6449" lon="1.67852">
        <ele>2503.762</ele>
        <time>2022-09-17T11:29:04Z</time>
      </trkpt>
      <trkpt lat="42.6449" lon="1.67851">
        <ele>2503.423</ele>
        <time>2022-09-17T11:29:06Z</time>
      </trkpt>
      <trkpt lat="42.6449" lon="1.67851">
        <ele>2502.969</ele>
        <time>2022-09-17T11:29:08Z</time>
      </trkpt>
      <trkpt lat="42.64489" lon="1.6785">
        <ele>2502.656</ele>
        <time>2022-09-17T11:29:10Z</time>
      </trkpt>
      <trkpt lat="42.64489" lon="1.6785">
        <ele>2502.164</ele>
        <time>2022-09-17T11:29:12Z</time>
      </trkpt>
      <trkpt lat="42.64488" lon="1.67849">
        <ele>2501.965</ele>
        <time>2022-09-17T11:29:14Z</time>
      </trkpt>
      <trkpt lat="42.64488" lon="1.67848">
        <ele>2502.09</ele>
        <time>2022-09-17T11:29:16Z</time>
      </trkpt>
      <trkpt lat="42.64488" lon="1.67846">
        <ele>2501.639</ele>
        <time>2022-09-17T11:29:18Z</time>
      </trkpt>
      <trkpt lat="42.64488" lon="1.67844">
        <ele>2501.012</ele>
        <time>2022-09-17T11:29:20Z</time>
      </trkpt>
      <trkpt lat="42.64487" lon="1.67846">
        <ele>2498.769</ele>
        <time>2022-09-17T11:29:22Z</time>
      </trkpt>
      <trkpt lat="42.64487" lon="1.67846">
        <ele>2498.963</ele>
        <time>2022-09-17T11:29:24Z</time>
      </trkpt>
      <trkpt lat="42.64487" lon="1.67845">
        <ele>2498.885</ele>
        <time>2022-09-17T11:29:26Z</time>
      </trkpt>
      <trkpt lat="42.64487" lon="1.67844">
        <ele>2498.926</ele>
        <time>2022-09-17T11:29:28Z</time>
      </trkpt>
      <trkpt lat="42.64487" lon="1.67843">
        <ele>2499.966</ele>
        <time>2022-09-17T11:29:30Z</time>
      </trkpt>
      <trkpt lat="42.64487" lon="1.67841">
        <ele>2500.476</ele>
        <time>2022-09-17T11:29:32Z</time>
      </trkpt>
      <trkpt lat="42.64487" lon="1.6784">
        <ele>2498.433</ele>
        <time>2022-09-17T11:29:34Z</time>
      </trkpt>
      <trkpt lat="42.64485" lon="1.6784">
        <ele>2497.166</ele>
        <time>2022-09-17T11:29:36Z</time>
      </trkpt>
      <trkpt lat="42.64484" lon="1.6784">
        <ele>2496.962</ele>
        <time>2022-09-17T11:29:38Z</time>
      </trkpt>
      <trkpt lat="42.64483" lon="1.67841">
        <ele>2496.705</ele>
        <time>2022-09-17T11:29:40Z</time>
      </trkpt>
      <trkpt lat="42.64483" lon="1.67841">
        <ele>2496.454</ele>
        <time>2022-09-17T11:29:42Z</time>
      </trkpt>
      <trkpt lat="42.64482" lon="1.67842">
        <ele>2495.189</ele>
        <time>2022-09-17T11:29:44Z</time>
      </trkpt>
      <trkpt lat="42.64482" lon="1.67842">
        <ele>2494.9</ele>
        <time>2022-09-17T11:29:46Z</time>
      </trkpt>
      <trkpt lat="42.64481" lon="1.67843">
        <ele>2494.132</ele>
        <time>2022-09-17T11:29:48Z</time>
      </trkpt>
      <trkpt lat="42.6448" lon="1.67842">
        <ele>2493.568</ele>
        <time>2022-09-17T11:29:50Z</time>
      </trkpt>
      <trkpt lat="42.64479" lon="1.67843">
        <ele>2492.7</ele>
        <time>2022-09-17T11:29:52Z</time>
      </trkpt>
      <trkpt lat="42.64478" lon="1.67843">
        <ele>2492.28</ele>
        <time>2022-09-17T11:29:54Z</time>
      </trkpt>
      <trkpt lat="42.64477" lon="1.67844">
        <ele>2492.437</ele>
        <time>2022-09-17T11:29:56Z</time>
      </trkpt>
      <trkpt lat="42.64477" lon="1.67846">
        <ele>2492.08</ele>
        <time>2022-09-17T11:29:58Z</time>
      </trkpt>
      <trkpt lat="42.64476" lon="1.67847">
        <ele>2491.456</ele>
        <time>2022-09-17T11:30:00Z</time>
      </trkpt>
      <trkpt lat="42.64476" lon="1.67848">
        <ele>2490.61</ele>
        <time>2022-09-17T11:30:02Z</time>
      </trkpt>
      <trkpt lat="42.64476" lon="1.67849">
        <ele>2490.812</ele>
        <time>2022-09-17T11:30:04Z</time>
      </trkpt>
      <trkpt lat="42.64476" lon="1.67851">
        <ele>2489.403</ele>
        <time>2022-09-17T11:30:06Z</time>
      </trkpt>
      <trkpt lat="42.64474" lon="1.67852">
        <ele>2488.03</ele>
        <time>2022-09-17T11:30:08Z</time>
      </trkpt>
      <trkpt lat="42.64473" lon="1.67852">
        <ele>2486.392</ele>
        <time>2022-09-17T11:30:10Z</time>
      </trkpt>
      <trkpt lat="42.64472" lon="1.6785">
        <ele>2486.708</ele>
        <time>2022-09-17T11:30:12Z</time>
      </trkpt>
      <trkpt lat="42.64472" lon="1.67847">
        <ele>2488.251</ele>
        <time>2022-09-17T11:30:14Z</time>
      </trkpt>
      <trkpt lat="42.64473" lon="1.67846">
        <ele>2488.9</ele>
        <time>2022-09-17T11:30:16Z</time>
      </trkpt>
      <trkpt lat="42.64473" lon="1.67844">
        <ele>2489.148</ele>
        <time>2022-09-17T11:30:18Z</time>
      </trkpt>
      <trkpt lat="42.64473" lon="1.67843">
        <ele>2488.845</ele>
        <time>2022-09-17T11:30:20Z</time>
      </trkpt>
      <trkpt lat="42.64473" lon="1.67843">
        <ele>2488.967</ele>
        <time>2022-09-17T11:30:22Z</time>
      </trkpt>
      <trkpt lat="42.64473" lon="1.67844">
        <ele>2488.642</ele>
        <time>2022-09-17T11:30:24Z</time>
      </trkpt>
      <trkpt lat="42.64472" lon="1.67843">
        <ele>2487.875</ele>
        <time>2022-09-17T11:30:26Z</time>
      </trkpt>
      <trkpt lat="42.64472" lon="1.67843">
        <ele>2487.805</ele>
        <time>2022-09-17T11:30:28Z</time>
      </trkpt>
      <trkpt lat="42.64471" lon="1.67842">
        <ele>2487.473</ele>
        <time>2022-09-17T11:30:30Z</time>
      </trkpt>
      <trkpt lat="42.64471" lon="1.67842">
        <ele>2487.061</ele>
        <time>2022-09-17T11:30:32Z</time>
      </trkpt>
      <trkpt lat="42.64471" lon="1.67841">
        <ele>2486.346</ele>
        <time>2022-09-17T11:30:34Z</time>
      </trkpt>
      <trkpt lat="42.6447" lon="1.67842">
        <ele>2485.42</ele>
        <time>2022-09-17T11:30:36Z</time>
      </trkpt>
      <trkpt lat="42.64469" lon="1.67841">
        <ele>2484.934</ele>
        <time>2022-09-17T11:30:38Z</time>
      </trkpt>
      <trkpt lat="42.64468" lon="1.67841">
        <ele>2485.267</ele>
        <time>2022-09-17T11:30:40Z</time>
      </trkpt>
      <trkpt lat="42.64467" lon="1.67841">
        <ele>2484.825</ele>
        <time>2022-09-17T11:30:42Z</time>
      </trkpt>
      <trkpt lat="42.64467" lon="1.67841">
        <ele>2485.262</ele>
        <time>2022-09-17T11:30:44Z</time>
      </trkpt>
      <trkpt lat="42.64466" lon="1.67841">
        <ele>2484.936</ele>
        <time>2022-09-17T11:30:46Z</time>
      </trkpt>
      <trkpt lat="42.64466" lon="1.67841">
        <ele>2484.085</ele>
        <time>2022-09-17T11:30:48Z</time>
      </trkpt>
      <trkpt lat="42.64465" lon="1.67841">
        <ele>2483.716</ele>
        <time>2022-09-17T11:30:50Z</time>
      </trkpt>
      <trkpt lat="42.64465" lon="1.67841">
        <ele>2482.774</ele>
        <time>2022-09-17T11:30:52Z</time>
      </trkpt>
      <trkpt lat="42.64465" lon="1.6784">
        <ele>2482.953</ele>
        <time>2022-09-17T11:30:54Z</time>
      </trkpt>
      <trkpt lat="42.64464" lon="1.6784">
        <ele>2483.049</ele>
        <time>2022-09-17T11:30:56Z</time>
      </trkpt>
      <trkpt lat="42.64464" lon="1.6784">
        <ele>2482.881</ele>
        <time>2022-09-17T11:30:58Z</time>
      </trkpt>
      <trkpt lat="42.64464" lon="1.67839">
        <ele>2483.045</ele>
        <time>2022-09-17T11:31:00Z</time>
      </trkpt>
      <trkpt lat="42.64464" lon="1.67839">
        <ele>2483.095</ele>
        <time>2022-09-17T11:31:02Z</time>
      </trkpt>
      <trkpt lat="42.64463" lon="1.67839">
        <ele>2482.095</ele>
        <time>2022-09-17T11:31:04Z</time>
      </trkpt>
      <trkpt lat="42.64462" lon="1.67839">
        <ele>2482.021</ele>
        <time>2022-09-17T11:31:07Z</time>
      </trkpt>
      <trkpt lat="42.64462" lon="1.67839">
        <ele>2482.005</ele>
        <time>2022-09-17T11:31:09Z</time>
      </trkpt>
      <trkpt lat="42.64461" lon="1.67839">
        <ele>2481.274</ele>
        <time>2022-09-17T11:31:11Z</time>
      </trkpt>
      <trkpt lat="42.64461" lon="1.67839">
        <ele>2481.473</ele>
        <time>2022-09-17T11:31:13Z</time>
      </trkpt>
      <trkpt lat="42.64461" lon="1.67839">
        <ele>2481.451</ele>
        <time>2022-09-17T11:31:15Z</time>
      </trkpt>
      <trkpt lat="42.6446" lon="1.67839">
        <ele>2481.117</ele>
        <time>2022-09-17T11:31:17Z</time>
      </trkpt>
      <trkpt lat="42.6446" lon="1.67839">
        <ele>2480.731</ele>
        <time>2022-09-17T11:31:19Z</time>
      </trkpt>
      <trkpt lat="42.64459" lon="1.67839">
        <ele>2480.221</ele>
        <time>2022-09-17T11:31:21Z</time>
      </trkpt>
      <trkpt lat="42.64459" lon="1.67839">
        <ele>2480.258</ele>
        <time>2022-09-17T11:31:23Z</time>
      </trkpt>
      <trkpt lat="42.64459" lon="1.67838">
        <ele>2481.124</ele>
        <time>2022-09-17T11:31:25Z</time>
      </trkpt>
      <trkpt lat="42.64458" lon="1.67838">
        <ele>2479.721</ele>
        <time>2022-09-17T11:31:27Z</time>
      </trkpt>
      <trkpt lat="42.64458" lon="1.67838">
        <ele>2479.197</ele>
        <time>2022-09-17T11:31:29Z</time>
      </trkpt>
      <trkpt lat="42.64457" lon="1.67836">
        <ele>2478.829</ele>
        <time>2022-09-17T11:31:31Z</time>
      </trkpt>
      <trkpt lat="42.64458" lon="1.67836">
        <ele>2478.351</ele>
        <time>2022-09-17T11:31:33Z</time>
      </trkpt>
      <trkpt lat="42.64458" lon="1.67835">
        <ele>2478.457</ele>
        <time>2022-09-17T11:31:35Z</time>
      </trkpt>
      <trkpt lat="42.64457" lon="1.67834">
        <ele>2477.755</ele>
        <time>2022-09-17T11:31:37Z</time>
      </trkpt>
      <trkpt lat="42.64457" lon="1.67833">
        <ele>2476.949</ele>
        <time>2022-09-17T11:31:39Z</time>
      </trkpt>
      <trkpt lat="42.64456" lon="1.67833">
        <ele>2474.83</ele>
        <time>2022-09-17T11:31:41Z</time>
      </trkpt>
      <trkpt lat="42.64455" lon="1.67832">
        <ele>2474.218</ele>
        <time>2022-09-17T11:31:43Z</time>
      </trkpt>
      <trkpt lat="42.64454" lon="1.67831">
        <ele>2474.085</ele>
        <time>2022-09-17T11:31:45Z</time>
      </trkpt>
      <trkpt lat="42.64455" lon="1.6783">
        <ele>2474.49</ele>
        <time>2022-09-17T11:31:47Z</time>
      </trkpt>
      <trkpt lat="42.64455" lon="1.67829">
        <ele>2473.886</ele>
        <time>2022-09-17T11:31:49Z</time>
      </trkpt>
      <trkpt lat="42.64454" lon="1.67829">
        <ele>2473.257</ele>
        <time>2022-09-17T11:31:51Z</time>
      </trkpt>
      <trkpt lat="42.64453" lon="1.67828">
        <ele>2472.97</ele>
        <time>2022-09-17T11:31:53Z</time>
      </trkpt>
      <trkpt lat="42.64453" lon="1.67828">
        <ele>2472.627</ele>
        <time>2022-09-17T11:31:55Z</time>
      </trkpt>
      <trkpt lat="42.64452" lon="1.67827">
        <ele>2473.408</ele>
        <time>2022-09-17T11:31:57Z</time>
      </trkpt>
      <trkpt lat="42.64451" lon="1.67828">
        <ele>2473.405</ele>
        <time>2022-09-17T11:31:59Z</time>
      </trkpt>
      <trkpt lat="42.64451" lon="1.67827">
        <ele>2473.149</ele>
        <time>2022-09-17T11:32:01Z</time>
      </trkpt>
      <trkpt lat="42.6445" lon="1.67827">
        <ele>2472.833</ele>
        <time>2022-09-17T11:32:03Z</time>
      </trkpt>
      <trkpt lat="42.6445" lon="1.67826">
        <ele>2472.954</ele>
        <time>2022-09-17T11:32:05Z</time>
      </trkpt>
      <trkpt lat="42.6445" lon="1.67825">
        <ele>2471.659</ele>
        <time>2022-09-17T11:32:07Z</time>
      </trkpt>
      <trkpt lat="42.64449" lon="1.67824">
        <ele>2471.246</ele>
        <time>2022-09-17T11:32:09Z</time>
      </trkpt>
      <trkpt lat="42.64448" lon="1.67824">
        <ele>2469.492</ele>
        <time>2022-09-17T11:32:11Z</time>
      </trkpt>
      <trkpt lat="42.64447" lon="1.67824">
        <ele>2469.329</ele>
        <time>2022-09-17T11:32:13Z</time>
      </trkpt>
      <trkpt lat="42.64446" lon="1.67823">
        <ele>2468.714</ele>
        <time>2022-09-17T11:32:15Z</time>
      </trkpt>
      <trkpt lat="42.64446" lon="1.67822">
        <ele>2468.587</ele>
        <time>2022-09-17T11:32:17Z</time>
      </trkpt>
      <trkpt lat="42.64446" lon="1.67821">
        <ele>2467.796</ele>
        <time>2022-09-17T11:32:19Z</time>
      </trkpt>
      <trkpt lat="42.64445" lon="1.67821">
        <ele>2466.984</ele>
        <time>2022-09-17T11:32:21Z</time>
      </trkpt>
      <trkpt lat="42.64444" lon="1.67821">
        <ele>2466.764</ele>
        <time>2022-09-17T11:32:23Z</time>
      </trkpt>
      <trkpt lat="42.64443" lon="1.67821">
        <ele>2466.651</ele>
        <time>2022-09-17T11:32:25Z</time>
      </trkpt>
      <trkpt lat="42.64443" lon="1.67819">
        <ele>2466.851</ele>
        <time>2022-09-17T11:32:27Z</time>
      </trkpt>
      <trkpt lat="42.64442" lon="1.67818">
        <ele>2466.288</ele>
        <time>2022-09-17T11:32:29Z</time>
      </trkpt>
      <trkpt lat="42.64441" lon="1.67817">
        <ele>2466.11</ele>
        <time>2022-09-17T11:32:31Z</time>
      </trkpt>
      <trkpt lat="42.64441" lon="1.67817">
        <ele>2466.02</ele>
        <time>2022-09-17T11:32:33Z</time>
      </trkpt>
      <trkpt lat="42.6444" lon="1.67816">
        <ele>2465.613</ele>
        <time>2022-09-17T11:32:35Z</time>
      </trkpt>
      <trkpt lat="42.64439" lon="1.67814">
        <ele>2464.946</ele>
        <time>2022-09-17T11:32:37Z</time>
      </trkpt>
      <trkpt lat="42.64439" lon="1.67813">
        <ele>2464.353</ele>
        <time>2022-09-17T11:32:39Z</time>
      </trkpt>
      <trkpt lat="42.64439" lon="1.67811">
        <ele>2463.291</ele>
        <time>2022-09-17T11:32:41Z</time>
      </trkpt>
      <trkpt lat="42.64438" lon="1.67809">
        <ele>2463.4</ele>
        <time>2022-09-17T11:32:43Z</time>
      </trkpt>
      <trkpt lat="42.64437" lon="1.67808">
        <ele>2462.371</ele>
        <time>2022-09-17T11:32:45Z</time>
      </trkpt>
      <trkpt lat="42.64436" lon="1.67807">
        <ele>2461.331</ele>
        <time>2022-09-17T11:32:47Z</time>
      </trkpt>
      <trkpt lat="42.64435" lon="1.67805">
        <ele>2460.551</ele>
        <time>2022-09-17T11:32:49Z</time>
      </trkpt>
      <trkpt lat="42.64434" lon="1.67804">
        <ele>2460.152</ele>
        <time>2022-09-17T11:32:51Z</time>
      </trkpt>
      <trkpt lat="42.64433" lon="1.67803">
        <ele>2459.315</ele>
        <time>2022-09-17T11:32:53Z</time>
      </trkpt>
      <trkpt lat="42.64431" lon="1.67802">
        <ele>2457.717</ele>
        <time>2022-09-17T11:32:55Z</time>
      </trkpt>
      <trkpt lat="42.6443" lon="1.678">
        <ele>2457.302</ele>
        <time>2022-09-17T11:32:57Z</time>
      </trkpt>
      <trkpt lat="42.6443" lon="1.67799">
        <ele>2457.912</ele>
        <time>2022-09-17T11:32:59Z</time>
      </trkpt>
      <trkpt lat="42.6443" lon="1.67798">
        <ele>2457.372</ele>
        <time>2022-09-17T11:33:01Z</time>
      </trkpt>
      <trkpt lat="42.64429" lon="1.67797">
        <ele>2455.508</ele>
        <time>2022-09-17T11:33:03Z</time>
      </trkpt>
      <trkpt lat="42.64427" lon="1.67796">
        <ele>2455.667</ele>
        <time>2022-09-17T11:33:05Z</time>
      </trkpt>
      <trkpt lat="42.64426" lon="1.67795">
        <ele>2454.236</ele>
        <time>2022-09-17T11:33:07Z</time>
      </trkpt>
      <trkpt lat="42.64425" lon="1.67795">
        <ele>2453.662</ele>
        <time>2022-09-17T11:33:09Z</time>
      </trkpt>
      <trkpt lat="42.64424" lon="1.67795">
        <ele>2452.744</ele>
        <time>2022-09-17T11:33:11Z</time>
      </trkpt>
      <trkpt lat="42.64424" lon="1.67794">
        <ele>2452.949</ele>
        <time>2022-09-17T11:33:13Z</time>
      </trkpt>
      <trkpt lat="42.64423" lon="1.67793">
        <ele>2452.044</ele>
        <time>2022-09-17T11:33:15Z</time>
      </trkpt>
      <trkpt lat="42.64422" lon="1.67794">
        <ele>2452.999</ele>
        <time>2022-09-17T11:33:17Z</time>
      </trkpt>
      <trkpt lat="42.64421" lon="1.67794">
        <ele>2453.151</ele>
        <time>2022-09-17T11:33:19Z</time>
      </trkpt>
      <trkpt lat="42.6442" lon="1.67795">
        <ele>2452.555</ele>
        <time>2022-09-17T11:33:21Z</time>
      </trkpt>
      <trkpt lat="42.64419" lon="1.67795">
        <ele>2452.129</ele>
        <time>2022-09-17T11:33:23Z</time>
      </trkpt>
      <trkpt lat="42.64418" lon="1.67796">
        <ele>2451.792</ele>
        <time>2022-09-17T11:33:25Z</time>
      </trkpt>
      <trkpt lat="42.64418" lon="1.67796">
        <ele>2452.077</ele>
        <time>2022-09-17T11:33:27Z</time>
      </trkpt>
      <trkpt lat="42.64416" lon="1.67796">
        <ele>2451.43</ele>
        <time>2022-09-17T11:33:29Z</time>
      </trkpt>
      <trkpt lat="42.64415" lon="1.67797">
        <ele>2451.25</ele>
        <time>2022-09-17T11:33:31Z</time>
      </trkpt>
      <trkpt lat="42.64414" lon="1.67798">
        <ele>2451.253</ele>
        <time>2022-09-17T11:33:33Z</time>
      </trkpt>
      <trkpt lat="42.64413" lon="1.67798">
        <ele>2450.643</ele>
        <time>2022-09-17T11:33:35Z</time>
      </trkpt>
      <trkpt lat="42.64412" lon="1.67799">
        <ele>2450.569</ele>
        <time>2022-09-17T11:33:37Z</time>
      </trkpt>
      <trkpt lat="42.64411" lon="1.678">
        <ele>2450.264</ele>
        <time>2022-09-17T11:33:39Z</time>
      </trkpt>
      <trkpt lat="42.64411" lon="1.678">
        <ele>2450.26</ele>
        <time>2022-09-17T11:33:41Z</time>
      </trkpt>
      <trkpt lat="42.6441" lon="1.67801">
        <ele>2449.698</ele>
        <time>2022-09-17T11:33:43Z</time>
      </trkpt>
      <trkpt lat="42.6441" lon="1.67801">
        <ele>2449.511</ele>
        <time>2022-09-17T11:33:45Z</time>
      </trkpt>
      <trkpt lat="42.64409" lon="1.67802">
        <ele>2449.759</ele>
        <time>2022-09-17T11:33:47Z</time>
      </trkpt>
      <trkpt lat="42.64409" lon="1.67803">
        <ele>2449.417</ele>
        <time>2022-09-17T11:33:49Z</time>
      </trkpt>
      <trkpt lat="42.64408" lon="1.67804">
        <ele>2449.696</ele>
        <time>2022-09-17T11:33:51Z</time>
      </trkpt>
      <trkpt lat="42.64408" lon="1.67804">
        <ele>2449.172</ele>
        <time>2022-09-17T11:33:53Z</time>
      </trkpt>
      <trkpt lat="42.64408" lon="1.67804">
        <ele>2449.165</ele>
        <time>2022-09-17T11:33:55Z</time>
      </trkpt>
      <trkpt lat="42.64408" lon="1.67804">
        <ele>2449.161</ele>
        <time>2022-09-17T11:33:57Z</time>
      </trkpt>
      <trkpt lat="42.64408" lon="1.67804">
        <ele>2449.154</ele>
        <time>2022-09-17T11:33:59Z</time>
      </trkpt>
      <trkpt lat="42.64408" lon="1.67804">
        <ele>2449.148</ele>
        <time>2022-09-17T11:34:01Z</time>
      </trkpt>
      <trkpt lat="42.64408" lon="1.67804">
        <ele>2449.136</ele>
        <time>2022-09-17T11:34:03Z</time>
      </trkpt>
      <trkpt lat="42.64408" lon="1.67804">
        <ele>2449.134</ele>
        <time>2022-09-17T11:34:05Z</time>
      </trkpt>
      <trkpt lat="42.64408" lon="1.67804">
        <ele>2449.134</ele>
        <time>2022-09-17T11:34:07Z</time>
      </trkpt>
      <trkpt lat="42.64408" lon="1.67804">
        <ele>2449.116</ele>
        <time>2022-09-17T11:34:09Z</time>
      </trkpt>
      <trkpt lat="42.64408" lon="1.67804">
        <ele>2449.106</ele>
        <time>2022-09-17T11:34:11Z</time>
      </trkpt>
      <trkpt lat="42.64408" lon="1.67804">
        <ele>2449.11</ele>
        <time>2022-09-17T11:34:13Z</time>
      </trkpt>
      <trkpt lat="42.64408" lon="1.67804">
        <ele>2449.112</ele>
        <time>2022-09-17T11:34:15Z</time>
      </trkpt>
      <trkpt lat="42.64408" lon="1.67804">
        <ele>2449.111</ele>
        <time>2022-09-17T11:34:17Z</time>
      </trkpt>
      <trkpt lat="42.64408" lon="1.67804">
        <ele>2449.006</ele>
        <time>2022-09-17T11:34:19Z</time>
      </trkpt>
      <trkpt lat="42.64408" lon="1.67805">
        <ele>2449.4</ele>
        <time>2022-09-17T11:34:21Z</time>
      </trkpt>
      <trkpt lat="42.64409" lon="1.67805">
        <ele>2449.395</ele>
        <time>2022-09-17T11:34:23Z</time>
      </trkpt>
      <trkpt lat="42.6441" lon="1.67806">
        <ele>2449.222</ele>
        <time>2022-09-17T11:34:25Z</time>
      </trkpt>
      <trkpt lat="42.64409" lon="1.67806">
        <ele>2448.81</ele>
        <time>2022-09-17T11:34:27Z</time>
      </trkpt>
      <trkpt lat="42.64409" lon="1.67806">
        <ele>2448.475</ele>
        <time>2022-09-17T11:34:29Z</time>
      </trkpt>
      <trkpt lat="42.64409" lon="1.67806">
        <ele>2448.441</ele>
        <time>2022-09-17T11:34:31Z</time>
      </trkpt>
      <trkpt lat="42.64409" lon="1.67806">
        <ele>2448.449</ele>
        <time>2022-09-17T11:34:33Z</time>
      </trkpt>
      <trkpt lat="42.64409" lon="1.67805">
        <ele>2448.345</ele>
        <time>2022-09-17T11:34:35Z</time>
      </trkpt>
      <trkpt lat="42.64409" lon="1.67806">
        <ele>2448.126</ele>
        <time>2022-09-17T11:34:37Z</time>
      </trkpt>
      <trkpt lat="42.64409" lon="1.67808">
        <ele>2447.579</ele>
        <time>2022-09-17T11:34:39Z</time>
      </trkpt>
      <trkpt lat="42.64408" lon="1.6781">
        <ele>2447</ele>
        <time>2022-09-17T11:34:41Z</time>
      </trkpt>
      <trkpt lat="42.64408" lon="1.67812">
        <ele>2447.003</ele>
        <time>2022-09-17T11:34:43Z</time>
      </trkpt>
      <trkpt lat="42.64407" lon="1.67813">
        <ele>2446.616</ele>
        <time>2022-09-17T11:34:45Z</time>
      </trkpt>
      <trkpt lat="42.64407" lon="1.67814">
        <ele>2446.569</ele>
        <time>2022-09-17T11:34:47Z</time>
      </trkpt>
      <trkpt lat="42.64406" lon="1.67815">
        <ele>2446.109</ele>
        <time>2022-09-17T11:34:49Z</time>
      </trkpt>
      <trkpt lat="42.64406" lon="1.67817">
        <ele>2445.468</ele>
        <time>2022-09-17T11:34:51Z</time>
      </trkpt>
      <trkpt lat="42.64406" lon="1.67818">
        <ele>2444.886</ele>
        <time>2022-09-17T11:34:53Z</time>
      </trkpt>
      <trkpt lat="42.64405" lon="1.67818">
        <ele>2445.394</ele>
        <time>2022-09-17T11:34:55Z</time>
      </trkpt>
      <trkpt lat="42.64404" lon="1.67819">
        <ele>2444.638</ele>
        <time>2022-09-17T11:34:57Z</time>
      </trkpt>
      <trkpt lat="42.64404" lon="1.67819">
        <ele>2444.758</ele>
        <time>2022-09-17T11:34:59Z</time>
      </trkpt>
      <trkpt lat="42.64404" lon="1.6782">
        <ele>2444.559</ele>
        <time>2022-09-17T11:35:00Z</time>
      </trkpt>
      <trkpt lat="42.64403" lon="1.67821">
        <ele>2444.29</ele>
        <time>2022-09-17T11:35:03Z</time>
      </trkpt>
      <trkpt lat="42.64403" lon="1.67823">
        <ele>2444.276</ele>
        <time>2022-09-17T11:35:05Z</time>
      </trkpt>
      <trkpt lat="42.64402" lon="1.67823">
        <ele>2443.953</ele>
        <time>2022-09-17T11:35:07Z</time>
      </trkpt>
      <trkpt lat="42.64402" lon="1.67825">
        <ele>2443.792</ele>
        <time>2022-09-17T11:35:09Z</time>
      </trkpt>
      <trkpt lat="42.64402" lon="1.67826">
        <ele>2443.284</ele>
        <time>2022-09-17T11:35:11Z</time>
      </trkpt>
      <trkpt lat="42.64401" lon="1.67827">
        <ele>2442.822</ele>
        <time>2022-09-17T11:35:14Z</time>
      </trkpt>
      <trkpt lat="42.644" lon="1.67828">
        <ele>2442.537</ele>
        <time>2022-09-17T11:35:16Z</time>
      </trkpt>
      <trkpt lat="42.644" lon="1.67829">
        <ele>2442.473</ele>
        <time>2022-09-17T11:35:18Z</time>
      </trkpt>
      <trkpt lat="42.644" lon="1.67829">
        <ele>2443.125</ele>
        <time>2022-09-17T11:35:20Z</time>
      </trkpt>
      <trkpt lat="42.64399" lon="1.6783">
        <ele>2443.236</ele>
        <time>2022-09-17T11:35:22Z</time>
      </trkpt>
      <trkpt lat="42.64399" lon="1.67831">
        <ele>2442.633</ele>
        <time>2022-09-17T11:35:24Z</time>
      </trkpt>
      <trkpt lat="42.64398" lon="1.6783">
        <ele>2442.011</ele>
        <time>2022-09-17T11:35:26Z</time>
      </trkpt>
      <trkpt lat="42.64398" lon="1.67831">
        <ele>2441.801</ele>
        <time>2022-09-17T11:35:28Z</time>
      </trkpt>
      <trkpt lat="42.64398" lon="1.67831">
        <ele>2441.594</ele>
        <time>2022-09-17T11:35:30Z</time>
      </trkpt>
      <trkpt lat="42.64398" lon="1.67831">
        <ele>2441.406</ele>
        <time>2022-09-17T11:35:32Z</time>
      </trkpt>
      <trkpt lat="42.64398" lon="1.67832">
        <ele>2440.926</ele>
        <time>2022-09-17T11:35:34Z</time>
      </trkpt>
      <trkpt lat="42.64398" lon="1.67834">
        <ele>2440.189</ele>
        <time>2022-09-17T11:35:36Z</time>
      </trkpt>
      <trkpt lat="42.64398" lon="1.67836">
        <ele>2439.254</ele>
        <time>2022-09-17T11:35:38Z</time>
      </trkpt>
      <trkpt lat="42.64398" lon="1.67836">
        <ele>2439.205</ele>
        <time>2022-09-17T11:35:40Z</time>
      </trkpt>
      <trkpt lat="42.64397" lon="1.67837">
        <ele>2438.711</ele>
        <time>2022-09-17T11:35:42Z</time>
      </trkpt>
      <trkpt lat="42.64397" lon="1.67839">
        <ele>2438.39</ele>
        <time>2022-09-17T11:35:44Z</time>
      </trkpt>
      <trkpt lat="42.64396" lon="1.67839">
        <ele>2437.67</ele>
        <time>2022-09-17T11:35:46Z</time>
      </trkpt>
      <trkpt lat="42.64396" lon="1.67841">
        <ele>2437.204</ele>
        <time>2022-09-17T11:35:48Z</time>
      </trkpt>
      <trkpt lat="42.64396" lon="1.67842">
        <ele>2437.202</ele>
        <time>2022-09-17T11:35:50Z</time>
      </trkpt>
      <trkpt lat="42.64395" lon="1.67844">
        <ele>2436.513</ele>
        <time>2022-09-17T11:35:52Z</time>
      </trkpt>
      <trkpt lat="42.64394" lon="1.67845">
        <ele>2436.055</ele>
        <time>2022-09-17T11:35:54Z</time>
      </trkpt>
      <trkpt lat="42.64395" lon="1.67848">
        <ele>2435.561</ele>
        <time>2022-09-17T11:35:56Z</time>
      </trkpt>
      <trkpt lat="42.64394" lon="1.67849">
        <ele>2434.793</ele>
        <time>2022-09-17T11:35:58Z</time>
      </trkpt>
      <trkpt lat="42.64394" lon="1.67851">
        <ele>2434.306</ele>
        <time>2022-09-17T11:36:00Z</time>
      </trkpt>
      <trkpt lat="42.64393" lon="1.67853">
        <ele>2433.469</ele>
        <time>2022-09-17T11:36:02Z</time>
      </trkpt>
      <trkpt lat="42.64392" lon="1.67855">
        <ele>2433.489</ele>
        <time>2022-09-17T11:36:04Z</time>
      </trkpt>
      <trkpt lat="42.64392" lon="1.67857">
        <ele>2433.196</ele>
        <time>2022-09-17T11:36:06Z</time>
      </trkpt>
      <trkpt lat="42.64391" lon="1.67857">
        <ele>2432.588</ele>
        <time>2022-09-17T11:36:08Z</time>
      </trkpt>
      <trkpt lat="42.6439" lon="1.67857">
        <ele>2432.931</ele>
        <time>2022-09-17T11:36:10Z</time>
      </trkpt>
      <trkpt lat="42.64389" lon="1.67858">
        <ele>2432.123</ele>
        <time>2022-09-17T11:36:12Z</time>
      </trkpt>
      <trkpt lat="42.64389" lon="1.67859">
        <ele>2431.265</ele>
        <time>2022-09-17T11:36:14Z</time>
      </trkpt>
      <trkpt lat="42.64388" lon="1.6786">
        <ele>2431.19</ele>
        <time>2022-09-17T11:36:16Z</time>
      </trkpt>
      <trkpt lat="42.64386" lon="1.67862">
        <ele>2431.308</ele>
        <time>2022-09-17T11:36:18Z</time>
      </trkpt>
      <trkpt lat="42.64387" lon="1.67864">
        <ele>2429.627</ele>
        <time>2022-09-17T11:36:20Z</time>
      </trkpt>
      <trkpt lat="42.64387" lon="1.67865">
        <ele>2428.94</ele>
        <time>2022-09-17T11:36:22Z</time>
      </trkpt>
      <trkpt lat="42.64387" lon="1.67867">
        <ele>2427.848</ele>
        <time>2022-09-17T11:36:24Z</time>
      </trkpt>
      <trkpt lat="42.64387" lon="1.67869">
        <ele>2427.99</ele>
        <time>2022-09-17T11:36:26Z</time>
      </trkpt>
      <trkpt lat="42.64387" lon="1.67869">
        <ele>2427.676</ele>
        <time>2022-09-17T11:36:28Z</time>
      </trkpt>
      <trkpt lat="42.64387" lon="1.67869">
        <ele>2427.669</ele>
        <time>2022-09-17T11:36:30Z</time>
      </trkpt>
      <trkpt lat="42.64387" lon="1.67869">
        <ele>2427.666</ele>
        <time>2022-09-17T11:36:32Z</time>
      </trkpt>
      <trkpt lat="42.64387" lon="1.67869">
        <ele>2427.52</ele>
        <time>2022-09-17T11:36:34Z</time>
      </trkpt>
      <trkpt lat="42.64387" lon="1.67869">
        <ele>2427.722</ele>
        <time>2022-09-17T11:36:36Z</time>
      </trkpt>
      <trkpt lat="42.64386" lon="1.67871">
        <ele>2427.372</ele>
        <time>2022-09-17T11:36:38Z</time>
      </trkpt>
      <trkpt lat="42.64385" lon="1.67871">
        <ele>2427.44</ele>
        <time>2022-09-17T11:36:40Z</time>
      </trkpt>
      <trkpt lat="42.64384" lon="1.67871">
        <ele>2427.071</ele>
        <time>2022-09-17T11:36:42Z</time>
      </trkpt>
      <trkpt lat="42.64384" lon="1.67872">
        <ele>2426.634</ele>
        <time>2022-09-17T11:36:44Z</time>
      </trkpt>
      <trkpt lat="42.64383" lon="1.67871">
        <ele>2425.981</ele>
        <time>2022-09-17T11:36:46Z</time>
      </trkpt>
      <trkpt lat="42.64382" lon="1.67871">
        <ele>2425.503</ele>
        <time>2022-09-17T11:36:48Z</time>
      </trkpt>
      <trkpt lat="42.6438" lon="1.67871">
        <ele>2425.141</ele>
        <time>2022-09-17T11:36:50Z</time>
      </trkpt>
      <trkpt lat="42.6438" lon="1.67871">
        <ele>2425.133</ele>
        <time>2022-09-17T11:36:52Z</time>
      </trkpt>
      <trkpt lat="42.6438" lon="1.67871">
        <ele>2424.986</ele>
        <time>2022-09-17T11:36:54Z</time>
      </trkpt>
      <trkpt lat="42.6438" lon="1.67872">
        <ele>2424.277</ele>
        <time>2022-09-17T11:36:56Z</time>
      </trkpt>
      <trkpt lat="42.64379" lon="1.67872">
        <ele>2424.179</ele>
        <time>2022-09-17T11:36:58Z</time>
      </trkpt>
      <trkpt lat="42.64378" lon="1.67872">
        <ele>2423.492</ele>
        <time>2022-09-17T11:37:00Z</time>
      </trkpt>
      <trkpt lat="42.64378" lon="1.67871">
        <ele>2422.254</ele>
        <time>2022-09-17T11:37:02Z</time>
      </trkpt>
      <trkpt lat="42.64378" lon="1.67871">
        <ele>2422.349</ele>
        <time>2022-09-17T11:37:04Z</time>
      </trkpt>
      <trkpt lat="42.64377" lon="1.6787">
        <ele>2422.131</ele>
        <time>2022-09-17T11:37:06Z</time>
      </trkpt>
      <trkpt lat="42.64377" lon="1.6787">
        <ele>2421.258</ele>
        <time>2022-09-17T11:37:08Z</time>
      </trkpt>
      <trkpt lat="42.64376" lon="1.67869">
        <ele>2421.141</ele>
        <time>2022-09-17T11:37:10Z</time>
      </trkpt>
      <trkpt lat="42.64376" lon="1.67868">
        <ele>2420.288</ele>
        <time>2022-09-17T11:37:12Z</time>
      </trkpt>
      <trkpt lat="42.64375" lon="1.67868">
        <ele>2419.818</ele>
        <time>2022-09-17T11:37:14Z</time>
      </trkpt>
      <trkpt lat="42.64375" lon="1.67868">
        <ele>2420.316</ele>
        <time>2022-09-17T11:37:16Z</time>
      </trkpt>
      <trkpt lat="42.64375" lon="1.67868">
        <ele>2419.483</ele>
        <time>2022-09-17T11:37:18Z</time>
      </trkpt>
      <trkpt lat="42.64374" lon="1.67868">
        <ele>2419.118</ele>
        <time>2022-09-17T11:37:20Z</time>
      </trkpt>
      <trkpt lat="42.64374" lon="1.67867">
        <ele>2418.543</ele>
        <time>2022-09-17T11:37:22Z</time>
      </trkpt>
      <trkpt lat="42.64373" lon="1.67866">
        <ele>2417.889</ele>
        <time>2022-09-17T11:37:24Z</time>
      </trkpt>
      <trkpt lat="42.64373" lon="1.67866">
        <ele>2417.096</ele>
        <time>2022-09-17T11:37:26Z</time>
      </trkpt>
      <trkpt lat="42.64372" lon="1.67865">
        <ele>2417.035</ele>
        <time>2022-09-17T11:37:28Z</time>
      </trkpt>
      <trkpt lat="42.64372" lon="1.67865">
        <ele>2417.186</ele>
        <time>2022-09-17T11:37:30Z</time>
      </trkpt>
      <trkpt lat="42.64371" lon="1.67866">
        <ele>2416.911</ele>
        <time>2022-09-17T11:37:32Z</time>
      </trkpt>
      <trkpt lat="42.64369" lon="1.67867">
        <ele>2416.056</ele>
        <time>2022-09-17T11:37:34Z</time>
      </trkpt>
      <trkpt lat="42.64369" lon="1.67869">
        <ele>2416.331</ele>
        <time>2022-09-17T11:37:36Z</time>
      </trkpt>
      <trkpt lat="42.64369" lon="1.67871">
        <ele>2416.225</ele>
        <time>2022-09-17T11:37:38Z</time>
      </trkpt>
      <trkpt lat="42.64368" lon="1.67872">
        <ele>2417.813</ele>
        <time>2022-09-17T11:37:40Z</time>
      </trkpt>
      <trkpt lat="42.64367" lon="1.67872">
        <ele>2417.968</ele>
        <time>2022-09-17T11:37:42Z</time>
      </trkpt>
      <trkpt lat="42.64366" lon="1.67873">
        <ele>2417.825</ele>
        <time>2022-09-17T11:37:44Z</time>
      </trkpt>
      <trkpt lat="42.64365" lon="1.67874">
        <ele>2417.718</ele>
        <time>2022-09-17T11:37:46Z</time>
      </trkpt>
      <trkpt lat="42.64365" lon="1.67875">
        <ele>2416.979</ele>
        <time>2022-09-17T11:37:48Z</time>
      </trkpt>
      <trkpt lat="42.64365" lon="1.67876">
        <ele>2416.9</ele>
        <time>2022-09-17T11:37:50Z</time>
      </trkpt>
      <trkpt lat="42.64366" lon="1.67876">
        <ele>2416.478</ele>
        <time>2022-09-17T11:37:52Z</time>
      </trkpt>
      <trkpt lat="42.64366" lon="1.67877">
        <ele>2416.36</ele>
        <time>2022-09-17T11:37:54Z</time>
      </trkpt>
      <trkpt lat="42.64366" lon="1.67879">
        <ele>2416.237</ele>
        <time>2022-09-17T11:37:56Z</time>
      </trkpt>
      <trkpt lat="42.64366" lon="1.6788">
        <ele>2415.401</ele>
        <time>2022-09-17T11:37:58Z</time>
      </trkpt>
      <trkpt lat="42.64365" lon="1.67881">
        <ele>2414.224</ele>
        <time>2022-09-17T11:38:00Z</time>
      </trkpt>
      <trkpt lat="42.64365" lon="1.67882">
        <ele>2413.415</ele>
        <time>2022-09-17T11:38:02Z</time>
      </trkpt>
      <trkpt lat="42.64364" lon="1.67882">
        <ele>2413.151</ele>
        <time>2022-09-17T11:38:04Z</time>
      </trkpt>
      <trkpt lat="42.64364" lon="1.67882">
        <ele>2412.423</ele>
        <time>2022-09-17T11:38:06Z</time>
      </trkpt>
      <trkpt lat="42.64363" lon="1.67881">
        <ele>2411.164</ele>
        <time>2022-09-17T11:38:08Z</time>
      </trkpt>
      <trkpt lat="42.64363" lon="1.67881">
        <ele>2410.536</ele>
        <time>2022-09-17T11:38:10Z</time>
      </trkpt>
      <trkpt lat="42.64363" lon="1.6788">
        <ele>2410.02</ele>
        <time>2022-09-17T11:38:12Z</time>
      </trkpt>
      <trkpt lat="42.64362" lon="1.6788">
        <ele>2408.72</ele>
        <time>2022-09-17T11:38:14Z</time>
      </trkpt>
      <trkpt lat="42.64361" lon="1.67879">
        <ele>2407.968</ele>
        <time>2022-09-17T11:38:16Z</time>
      </trkpt>
      <trkpt lat="42.64361" lon="1.67878">
        <ele>2407.993</ele>
        <time>2022-09-17T11:38:18Z</time>
      </trkpt>
      <trkpt lat="42.64361" lon="1.67877">
        <ele>2407.676</ele>
        <time>2022-09-17T11:38:20Z</time>
      </trkpt>
      <trkpt lat="42.6436" lon="1.67876">
        <ele>2406.843</ele>
        <time>2022-09-17T11:38:22Z</time>
      </trkpt>
      <trkpt lat="42.6436" lon="1.67875">
        <ele>2406.186</ele>
        <time>2022-09-17T11:38:24Z</time>
      </trkpt>
      <trkpt lat="42.64359" lon="1.67874">
        <ele>2405.772</ele>
        <time>2022-09-17T11:38:26Z</time>
      </trkpt>
      <trkpt lat="42.64359" lon="1.67873">
        <ele>2404.83</ele>
        <time>2022-09-17T11:38:28Z</time>
      </trkpt>
      <trkpt lat="42.64358" lon="1.67873">
        <ele>2404.957</ele>
        <time>2022-09-17T11:38:30Z</time>
      </trkpt>
      <trkpt lat="42.64358" lon="1.67874">
        <ele>2404.481</ele>
        <time>2022-09-17T11:38:32Z</time>
      </trkpt>
      <trkpt lat="42.64356" lon="1.67874">
        <ele>2404.845</ele>
        <time>2022-09-17T11:38:34Z</time>
      </trkpt>
      <trkpt lat="42.64355" lon="1.67875">
        <ele>2405.487</ele>
        <time>2022-09-17T11:38:36Z</time>
      </trkpt>
      <trkpt lat="42.64353" lon="1.67875">
        <ele>2404.889</ele>
        <time>2022-09-17T11:38:38Z</time>
      </trkpt>
      <trkpt lat="42.64352" lon="1.67875">
        <ele>2404.374</ele>
        <time>2022-09-17T11:38:40Z</time>
      </trkpt>
      <trkpt lat="42.64351" lon="1.67877">
        <ele>2404.614</ele>
        <time>2022-09-17T11:38:42Z</time>
      </trkpt>
      <trkpt lat="42.64351" lon="1.67877">
        <ele>2403.905</ele>
        <time>2022-09-17T11:38:44Z</time>
      </trkpt>
      <trkpt lat="42.6435" lon="1.67877">
        <ele>2404.128</ele>
        <time>2022-09-17T11:38:46Z</time>
      </trkpt>
      <trkpt lat="42.64351" lon="1.67877">
        <ele>2404.137</ele>
        <time>2022-09-17T11:38:48Z</time>
      </trkpt>
      <trkpt lat="42.64351" lon="1.67877">
        <ele>2403.875</ele>
        <time>2022-09-17T11:38:50Z</time>
      </trkpt>
      <trkpt lat="42.6435" lon="1.67877">
        <ele>2403.673</ele>
        <time>2022-09-17T11:38:52Z</time>
      </trkpt>
      <trkpt lat="42.64349" lon="1.67878">
        <ele>2403.463</ele>
        <time>2022-09-17T11:38:54Z</time>
      </trkpt>
      <trkpt lat="42.64348" lon="1.67879">
        <ele>2402.529</ele>
        <time>2022-09-17T11:38:56Z</time>
      </trkpt>
      <trkpt lat="42.64348" lon="1.67881">
        <ele>2402.627</ele>
        <time>2022-09-17T11:38:58Z</time>
      </trkpt>
      <trkpt lat="42.64347" lon="1.67883">
        <ele>2401.741</ele>
        <time>2022-09-17T11:39:00Z</time>
      </trkpt>
      <trkpt lat="42.64346" lon="1.67883">
        <ele>2401.258</ele>
        <time>2022-09-17T11:39:02Z</time>
      </trkpt>
      <trkpt lat="42.64346" lon="1.67883">
        <ele>2401.931</ele>
        <time>2022-09-17T11:39:04Z</time>
      </trkpt>
      <trkpt lat="42.64346" lon="1.67883">
        <ele>2402.09</ele>
        <time>2022-09-17T11:39:06Z</time>
      </trkpt>
      <trkpt lat="42.64346" lon="1.67884">
        <ele>2400.231</ele>
        <time>2022-09-17T11:39:08Z</time>
      </trkpt>
      <trkpt lat="42.64346" lon="1.67881">
        <ele>2398.478</ele>
        <time>2022-09-17T11:39:10Z</time>
      </trkpt>
      <trkpt lat="42.64347" lon="1.67879">
        <ele>2397.743</ele>
        <time>2022-09-17T11:39:12Z</time>
      </trkpt>
      <trkpt lat="42.64348" lon="1.67878">
        <ele>2399.487</ele>
        <time>2022-09-17T11:39:14Z</time>
      </trkpt>
      <trkpt lat="42.64349" lon="1.67876">
        <ele>2401.283</ele>
        <time>2022-09-17T11:39:16Z</time>
      </trkpt>
      <trkpt lat="42.64349" lon="1.67875">
        <ele>2402.735</ele>
        <time>2022-09-17T11:39:18Z</time>
      </trkpt>
      <trkpt lat="42.64349" lon="1.67874">
        <ele>2402.826</ele>
        <time>2022-09-17T11:39:20Z</time>
      </trkpt>
      <trkpt lat="42.64349" lon="1.67873">
        <ele>2403.859</ele>
        <time>2022-09-17T11:39:22Z</time>
      </trkpt>
      <trkpt lat="42.64349" lon="1.67872">
        <ele>2404.404</ele>
        <time>2022-09-17T11:39:24Z</time>
      </trkpt>
      <trkpt lat="42.64348" lon="1.6787">
        <ele>2405.847</ele>
        <time>2022-09-17T11:39:26Z</time>
      </trkpt>
      <trkpt lat="42.64348" lon="1.6787">
        <ele>2404.34</ele>
        <time>2022-09-17T11:39:28Z</time>
      </trkpt>
      <trkpt lat="42.64347" lon="1.6787">
        <ele>2401.674</ele>
        <time>2022-09-17T11:39:30Z</time>
      </trkpt>
      <trkpt lat="42.64344" lon="1.6787">
        <ele>2400.27</ele>
        <time>2022-09-17T11:39:32Z</time>
      </trkpt>
      <trkpt lat="42.64341" lon="1.67872">
        <ele>2399.64</ele>
        <time>2022-09-17T11:39:34Z</time>
      </trkpt>
      <trkpt lat="42.6434" lon="1.67873">
        <ele>2399.495</ele>
        <time>2022-09-17T11:39:36Z</time>
      </trkpt>
      <trkpt lat="42.64339" lon="1.67874">
        <ele>2399.091</ele>
        <time>2022-09-17T11:39:38Z</time>
      </trkpt>
      <trkpt lat="42.64339" lon="1.67876">
        <ele>2399.277</ele>
        <time>2022-09-17T11:39:40Z</time>
      </trkpt>
      <trkpt lat="42.64338" lon="1.67879">
        <ele>2398.798</ele>
        <time>2022-09-17T11:39:42Z</time>
      </trkpt>
      <trkpt lat="42.64337" lon="1.67881">
        <ele>2398.251</ele>
        <time>2022-09-17T11:39:44Z</time>
      </trkpt>
      <trkpt lat="42.64337" lon="1.67882">
        <ele>2398.015</ele>
        <time>2022-09-17T11:39:46Z</time>
      </trkpt>
      <trkpt lat="42.64336" lon="1.67883">
        <ele>2397.248</ele>
        <time>2022-09-17T11:39:48Z</time>
      </trkpt>
      <trkpt lat="42.64335" lon="1.67885">
        <ele>2396.62</ele>
        <time>2022-09-17T11:39:50Z</time>
      </trkpt>
      <trkpt lat="42.64334" lon="1.67886">
        <ele>2398.222</ele>
        <time>2022-09-17T11:39:52Z</time>
      </trkpt>
      <trkpt lat="42.64333" lon="1.6789">
        <ele>2397.672</ele>
        <time>2022-09-17T11:39:54Z</time>
      </trkpt>
      <trkpt lat="42.64332" lon="1.67891">
        <ele>2398.857</ele>
        <time>2022-09-17T11:39:56Z</time>
      </trkpt>
      <trkpt lat="42.6433" lon="1.67892">
        <ele>2399.538</ele>
        <time>2022-09-17T11:39:58Z</time>
      </trkpt>
      <trkpt lat="42.64331" lon="1.67894">
        <ele>2396.78</ele>
        <time>2022-09-17T11:40:00Z</time>
      </trkpt>
      <trkpt lat="42.64331" lon="1.67896">
        <ele>2396.831</ele>
        <time>2022-09-17T11:40:02Z</time>
      </trkpt>
      <trkpt lat="42.64332" lon="1.67897">
        <ele>2396.581</ele>
        <time>2022-09-17T11:40:04Z</time>
      </trkpt>
      <trkpt lat="42.64332" lon="1.67898">
        <ele>2396.626</ele>
        <time>2022-09-17T11:40:06Z</time>
      </trkpt>
      <trkpt lat="42.64332" lon="1.67899">
        <ele>2396.42</ele>
        <time>2022-09-17T11:40:08Z</time>
      </trkpt>
      <trkpt lat="42.64331" lon="1.67897">
        <ele>2394.58</ele>
        <time>2022-09-17T11:40:10Z</time>
      </trkpt>
      <trkpt lat="42.6433" lon="1.67894">
        <ele>2394.17</ele>
        <time>2022-09-17T11:40:12Z</time>
      </trkpt>
      <trkpt lat="42.6433" lon="1.67892">
        <ele>2393.022</ele>
        <time>2022-09-17T11:40:14Z</time>
      </trkpt>
      <trkpt lat="42.64331" lon="1.67891">
        <ele>2392.922</ele>
        <time>2022-09-17T11:40:16Z</time>
      </trkpt>
      <trkpt lat="42.64331" lon="1.67892">
        <ele>2392.659</ele>
        <time>2022-09-17T11:40:18Z</time>
      </trkpt>
      <trkpt lat="42.64332" lon="1.6789">
        <ele>2392.507</ele>
        <time>2022-09-17T11:40:20Z</time>
      </trkpt>
      <trkpt lat="42.64332" lon="1.67889">
        <ele>2392.103</ele>
        <time>2022-09-17T11:40:22Z</time>
      </trkpt>
      <trkpt lat="42.64332" lon="1.67888">
        <ele>2390.244</ele>
        <time>2022-09-17T11:40:24Z</time>
      </trkpt>
      <trkpt lat="42.64331" lon="1.67888">
        <ele>2389.737</ele>
        <time>2022-09-17T11:40:26Z</time>
      </trkpt>
      <trkpt lat="42.64331" lon="1.67889">
        <ele>2389.478</ele>
        <time>2022-09-17T11:40:28Z</time>
      </trkpt>
      <trkpt lat="42.6433" lon="1.67889">
        <ele>2389.272</ele>
        <time>2022-09-17T11:40:30Z</time>
      </trkpt>
      <trkpt lat="42.64331" lon="1.6789">
        <ele>2388.832</ele>
        <time>2022-09-17T11:40:32Z</time>
      </trkpt>
      <trkpt lat="42.64331" lon="1.6789">
        <ele>2388.823</ele>
        <time>2022-09-17T11:40:34Z</time>
      </trkpt>
      <trkpt lat="42.64331" lon="1.6789">
        <ele>2388.763</ele>
        <time>2022-09-17T11:40:36Z</time>
      </trkpt>
      <trkpt lat="42.64331" lon="1.67889">
        <ele>2388.448</ele>
        <time>2022-09-17T11:40:38Z</time>
      </trkpt>
      <trkpt lat="42.64332" lon="1.67888">
        <ele>2387.869</ele>
        <time>2022-09-17T11:40:40Z</time>
      </trkpt>
      <trkpt lat="42.64332" lon="1.67888">
        <ele>2385.567</ele>
        <time>2022-09-17T11:40:42Z</time>
      </trkpt>
      <trkpt lat="42.64332" lon="1.67888">
        <ele>2384.963</ele>
        <time>2022-09-17T11:40:44Z</time>
      </trkpt>
      <trkpt lat="42.64332" lon="1.67888">
        <ele>2385.009</ele>
        <time>2022-09-17T11:40:46Z</time>
      </trkpt>
      <trkpt lat="42.64331" lon="1.67888">
        <ele>2384.687</ele>
        <time>2022-09-17T11:40:48Z</time>
      </trkpt>
      <trkpt lat="42.6433" lon="1.67888">
        <ele>2384.003</ele>
        <time>2022-09-17T11:40:50Z</time>
      </trkpt>
      <trkpt lat="42.6433" lon="1.67888">
        <ele>2383.235</ele>
        <time>2022-09-17T11:40:52Z</time>
      </trkpt>
      <trkpt lat="42.6433" lon="1.67886">
        <ele>2382.929</ele>
        <time>2022-09-17T11:40:54Z</time>
      </trkpt>
      <trkpt lat="42.6433" lon="1.67885">
        <ele>2382.328</ele>
        <time>2022-09-17T11:40:56Z</time>
      </trkpt>
      <trkpt lat="42.6433" lon="1.67884">
        <ele>2382.027</ele>
        <time>2022-09-17T11:40:58Z</time>
      </trkpt>
      <trkpt lat="42.6433" lon="1.67883">
        <ele>2381.402</ele>
        <time>2022-09-17T11:41:00Z</time>
      </trkpt>
      <trkpt lat="42.64329" lon="1.67883">
        <ele>2381.195</ele>
        <time>2022-09-17T11:41:02Z</time>
      </trkpt>
      <trkpt lat="42.64329" lon="1.67882">
        <ele>2380.619</ele>
        <time>2022-09-17T11:41:04Z</time>
      </trkpt>
      <trkpt lat="42.64328" lon="1.67882">
        <ele>2380.698</ele>
        <time>2022-09-17T11:41:06Z</time>
      </trkpt>
      <trkpt lat="42.64327" lon="1.67881">
        <ele>2380.08</ele>
        <time>2022-09-17T11:41:08Z</time>
      </trkpt>
      <trkpt lat="42.64327" lon="1.6788">
        <ele>2378.896</ele>
        <time>2022-09-17T11:41:10Z</time>
      </trkpt>
      <trkpt lat="42.64326" lon="1.67879">
        <ele>2378.069</ele>
        <time>2022-09-17T11:41:12Z</time>
      </trkpt>
      <trkpt lat="42.64326" lon="1.67879">
        <ele>2376.958</ele>
        <time>2022-09-17T11:41:14Z</time>
      </trkpt>
      <trkpt lat="42.64325" lon="1.67878">
        <ele>2375.632</ele>
        <time>2022-09-17T11:41:16Z</time>
      </trkpt>
      <trkpt lat="42.64325" lon="1.67878">
        <ele>2374.407</ele>
        <time>2022-09-17T11:41:18Z</time>
      </trkpt>
      <trkpt lat="42.64324" lon="1.67877">
        <ele>2373.588</ele>
        <time>2022-09-17T11:41:20Z</time>
      </trkpt>
      <trkpt lat="42.64323" lon="1.67879">
        <ele>2372.686</ele>
        <time>2022-09-17T11:41:22Z</time>
      </trkpt>
      <trkpt lat="42.64323" lon="1.6788">
        <ele>2372.746</ele>
        <time>2022-09-17T11:41:24Z</time>
      </trkpt>
      <trkpt lat="42.6432" lon="1.6788">
        <ele>2372.463</ele>
        <time>2022-09-17T11:41:26Z</time>
      </trkpt>
      <trkpt lat="42.64316" lon="1.67883">
        <ele>2372.551</ele>
        <time>2022-09-17T11:41:28Z</time>
      </trkpt>
      <trkpt lat="42.64316" lon="1.67884">
        <ele>2372.557</ele>
        <time>2022-09-17T11:41:30Z</time>
      </trkpt>
      <trkpt lat="42.64314" lon="1.67884">
        <ele>2372.776</ele>
        <time>2022-09-17T11:41:32Z</time>
      </trkpt>
      <trkpt lat="42.64314" lon="1.67887">
        <ele>2373.916</ele>
        <time>2022-09-17T11:41:34Z</time>
      </trkpt>
      <trkpt lat="42.64313" lon="1.67887">
        <ele>2374.488</ele>
        <time>2022-09-17T11:41:36Z</time>
      </trkpt>
      <trkpt lat="42.64312" lon="1.67887">
        <ele>2375.867</ele>
        <time>2022-09-17T11:41:38Z</time>
      </trkpt>
      <trkpt lat="42.6431" lon="1.67887">
        <ele>2376.113</ele>
        <time>2022-09-17T11:41:40Z</time>
      </trkpt>
      <trkpt lat="42.6431" lon="1.67889">
        <ele>2375.446</ele>
        <time>2022-09-17T11:41:42Z</time>
      </trkpt>
      <trkpt lat="42.6431" lon="1.6789">
        <ele>2373.949</ele>
        <time>2022-09-17T11:41:44Z</time>
      </trkpt>
      <trkpt lat="42.6431" lon="1.67891">
        <ele>2373.062</ele>
        <time>2022-09-17T11:41:46Z</time>
      </trkpt>
      <trkpt lat="42.6431" lon="1.67893">
        <ele>2374.878</ele>
        <time>2022-09-17T11:41:48Z</time>
      </trkpt>
      <trkpt lat="42.6431" lon="1.67894">
        <ele>2374.467</ele>
        <time>2022-09-17T11:41:50Z</time>
      </trkpt>
      <trkpt lat="42.6431" lon="1.67896">
        <ele>2374.376</ele>
        <time>2022-09-17T11:41:52Z</time>
      </trkpt>
      <trkpt lat="42.64311" lon="1.67897">
        <ele>2372.878</ele>
        <time>2022-09-17T11:41:54Z</time>
      </trkpt>
      <trkpt lat="42.64311" lon="1.67898">
        <ele>2372.102</ele>
        <time>2022-09-17T11:41:56Z</time>
      </trkpt>
      <trkpt lat="42.64311" lon="1.679">
        <ele>2372.068</ele>
        <time>2022-09-17T11:41:58Z</time>
      </trkpt>
      <trkpt lat="42.64311" lon="1.67902">
        <ele>2371.514</ele>
        <time>2022-09-17T11:42:00Z</time>
      </trkpt>
      <trkpt lat="42.64311" lon="1.67903">
        <ele>2371.019</ele>
        <time>2022-09-17T11:42:02Z</time>
      </trkpt>
      <trkpt lat="42.64312" lon="1.67905">
        <ele>2370.887</ele>
        <time>2022-09-17T11:42:04Z</time>
      </trkpt>
      <trkpt lat="42.64312" lon="1.67907">
        <ele>2370.398</ele>
        <time>2022-09-17T11:42:06Z</time>
      </trkpt>
      <trkpt lat="42.64312" lon="1.67908">
        <ele>2369.939</ele>
        <time>2022-09-17T11:42:08Z</time>
      </trkpt>
      <trkpt lat="42.64312" lon="1.67909">
        <ele>2368.678</ele>
        <time>2022-09-17T11:42:10Z</time>
      </trkpt>
      <trkpt lat="42.64312" lon="1.6791">
        <ele>2368.43</ele>
        <time>2022-09-17T11:42:12Z</time>
      </trkpt>
      <trkpt lat="42.64312" lon="1.6791">
        <ele>2368.427</ele>
        <time>2022-09-17T11:42:14Z</time>
      </trkpt>
      <trkpt lat="42.64313" lon="1.6791">
        <ele>2368.418</ele>
        <time>2022-09-17T11:42:16Z</time>
      </trkpt>
      <trkpt lat="42.64313" lon="1.6791">
        <ele>2368.414</ele>
        <time>2022-09-17T11:42:18Z</time>
      </trkpt>
      <trkpt lat="42.64313" lon="1.6791">
        <ele>2368.413</ele>
        <time>2022-09-17T11:42:20Z</time>
      </trkpt>
      <trkpt lat="42.64313" lon="1.6791">
        <ele>2368.412</ele>
        <time>2022-09-17T11:42:22Z</time>
      </trkpt>
      <trkpt lat="42.64313" lon="1.6791">
        <ele>2368.41</ele>
        <time>2022-09-17T11:42:24Z</time>
      </trkpt>
      <trkpt lat="42.64313" lon="1.6791">
        <ele>2368.407</ele>
        <time>2022-09-17T11:42:26Z</time>
      </trkpt>
      <trkpt lat="42.64313" lon="1.6791">
        <ele>2368.091</ele>
        <time>2022-09-17T11:42:28Z</time>
      </trkpt>
      <trkpt lat="42.64312" lon="1.6791">
        <ele>2367.211</ele>
        <time>2022-09-17T11:42:30Z</time>
      </trkpt>
      <trkpt lat="42.64312" lon="1.6791">
        <ele>2366.47</ele>
        <time>2022-09-17T11:42:32Z</time>
      </trkpt>
      <trkpt lat="42.64312" lon="1.67911">
        <ele>2365.481</ele>
        <time>2022-09-17T11:42:34Z</time>
      </trkpt>
      <trkpt lat="42.64312" lon="1.67911">
        <ele>2365.107</ele>
        <time>2022-09-17T11:42:36Z</time>
      </trkpt>
      <trkpt lat="42.64312" lon="1.67912">
        <ele>2364.929</ele>
        <time>2022-09-17T11:42:38Z</time>
      </trkpt>
      <trkpt lat="42.64311" lon="1.67914">
        <ele>2362.135</ele>
        <time>2022-09-17T11:42:40Z</time>
      </trkpt>
      <trkpt lat="42.6431" lon="1.6791">
        <ele>2361.911</ele>
        <time>2022-09-17T11:42:42Z</time>
      </trkpt>
      <trkpt lat="42.6431" lon="1.6791">
        <ele>2361.541</ele>
        <time>2022-09-17T11:42:44Z</time>
      </trkpt>
      <trkpt lat="42.64309" lon="1.6791">
        <ele>2360.489</ele>
        <time>2022-09-17T11:42:46Z</time>
      </trkpt>
      <trkpt lat="42.64308" lon="1.67909">
        <ele>2360.032</ele>
        <time>2022-09-17T11:42:48Z</time>
      </trkpt>
      <trkpt lat="42.64307" lon="1.67909">
        <ele>2359.495</ele>
        <time>2022-09-17T11:42:50Z</time>
      </trkpt>
      <trkpt lat="42.64307" lon="1.67908">
        <ele>2358.981</ele>
        <time>2022-09-17T11:42:52Z</time>
      </trkpt>
      <trkpt lat="42.64306" lon="1.67907">
        <ele>2358.637</ele>
        <time>2022-09-17T11:42:54Z</time>
      </trkpt>
      <trkpt lat="42.64305" lon="1.67907">
        <ele>2358.226</ele>
        <time>2022-09-17T11:42:56Z</time>
      </trkpt>
      <trkpt lat="42.64304" lon="1.67907">
        <ele>2357.368</ele>
        <time>2022-09-17T11:42:58Z</time>
      </trkpt>
      <trkpt lat="42.64303" lon="1.67907">
        <ele>2356.437</ele>
        <time>2022-09-17T11:43:00Z</time>
      </trkpt>
      <trkpt lat="42.64302" lon="1.67907">
        <ele>2355.505</ele>
        <time>2022-09-17T11:43:02Z</time>
      </trkpt>
      <trkpt lat="42.64302" lon="1.67907">
        <ele>2355.34</ele>
        <time>2022-09-17T11:43:04Z</time>
      </trkpt>
      <trkpt lat="42.64301" lon="1.67905">
        <ele>2355.861</ele>
        <time>2022-09-17T11:43:06Z</time>
      </trkpt>
      <trkpt lat="42.64301" lon="1.67905">
        <ele>2355.86</ele>
        <time>2022-09-17T11:43:08Z</time>
      </trkpt>
      <trkpt lat="42.64301" lon="1.67905">
        <ele>2355.86</ele>
        <time>2022-09-17T11:43:10Z</time>
      </trkpt>
      <trkpt lat="42.64301" lon="1.67905">
        <ele>2355.866</ele>
        <time>2022-09-17T11:43:12Z</time>
      </trkpt>
      <trkpt lat="42.643" lon="1.67905">
        <ele>2355.788</ele>
        <time>2022-09-17T11:43:14Z</time>
      </trkpt>
      <trkpt lat="42.64299" lon="1.67905">
        <ele>2355.151</ele>
        <time>2022-09-17T11:43:16Z</time>
      </trkpt>
      <trkpt lat="42.64298" lon="1.67905">
        <ele>2354.401</ele>
        <time>2022-09-17T11:43:18Z</time>
      </trkpt>
      <trkpt lat="42.64297" lon="1.67905">
        <ele>2353.627</ele>
        <time>2022-09-17T11:43:20Z</time>
      </trkpt>
      <trkpt lat="42.64296" lon="1.67907">
        <ele>2352.857</ele>
        <time>2022-09-17T11:43:22Z</time>
      </trkpt>
      <trkpt lat="42.64295" lon="1.67907">
        <ele>2352.288</ele>
        <time>2022-09-17T11:43:24Z</time>
      </trkpt>
      <trkpt lat="42.64294" lon="1.67905">
        <ele>2351.822</ele>
        <time>2022-09-17T11:43:26Z</time>
      </trkpt>
      <trkpt lat="42.64292" lon="1.67906">
        <ele>2352.156</ele>
        <time>2022-09-17T11:43:28Z</time>
      </trkpt>
      <trkpt lat="42.6429" lon="1.67908">
        <ele>2351.536</ele>
        <time>2022-09-17T11:43:30Z</time>
      </trkpt>
      <trkpt lat="42.64289" lon="1.67908">
        <ele>2350.598</ele>
        <time>2022-09-17T11:43:32Z</time>
      </trkpt>
      <trkpt lat="42.64288" lon="1.67907">
        <ele>2351.003</ele>
        <time>2022-09-17T11:43:34Z</time>
      </trkpt>
      <trkpt lat="42.64287" lon="1.67906">
        <ele>2351.419</ele>
        <time>2022-09-17T11:43:36Z</time>
      </trkpt>
      <trkpt lat="42.64285" lon="1.67906">
        <ele>2350.596</ele>
        <time>2022-09-17T11:43:38Z</time>
      </trkpt>
      <trkpt lat="42.64284" lon="1.67906">
        <ele>2349.836</ele>
        <time>2022-09-17T11:43:40Z</time>
      </trkpt>
      <trkpt lat="42.64283" lon="1.67906">
        <ele>2348.973</ele>
        <time>2022-09-17T11:43:42Z</time>
      </trkpt>
      <trkpt lat="42.64282" lon="1.67905">
        <ele>2348.333</ele>
        <time>2022-09-17T11:43:44Z</time>
      </trkpt>
      <trkpt lat="42.64281" lon="1.67902">
        <ele>2347.519</ele>
        <time>2022-09-17T11:43:46Z</time>
      </trkpt>
      <trkpt lat="42.6428" lon="1.679">
        <ele>2347.81</ele>
        <time>2022-09-17T11:43:48Z</time>
      </trkpt>
      <trkpt lat="42.64278" lon="1.67899">
        <ele>2346.668</ele>
        <time>2022-09-17T11:43:50Z</time>
      </trkpt>
      <trkpt lat="42.64276" lon="1.67898">
        <ele>2346.881</ele>
        <time>2022-09-17T11:43:52Z</time>
      </trkpt>
      <trkpt lat="42.64275" lon="1.67897">
        <ele>2346.42</ele>
        <time>2022-09-17T11:43:54Z</time>
      </trkpt>
      <trkpt lat="42.64273" lon="1.67896">
        <ele>2345.941</ele>
        <time>2022-09-17T11:43:56Z</time>
      </trkpt>
      <trkpt lat="42.64271" lon="1.67894">
        <ele>2346.484</ele>
        <time>2022-09-17T11:43:58Z</time>
      </trkpt>
      <trkpt lat="42.6427" lon="1.67892">
        <ele>2346.162</ele>
        <time>2022-09-17T11:44:00Z</time>
      </trkpt>
      <trkpt lat="42.64268" lon="1.6789">
        <ele>2345.1</ele>
        <time>2022-09-17T11:44:02Z</time>
      </trkpt>
      <trkpt lat="42.64266" lon="1.67889">
        <ele>2345.521</ele>
        <time>2022-09-17T11:44:04Z</time>
      </trkpt>
      <trkpt lat="42.64264" lon="1.67888">
        <ele>2344.891</ele>
        <time>2022-09-17T11:44:06Z</time>
      </trkpt>
      <trkpt lat="42.64263" lon="1.67887">
        <ele>2345.643</ele>
        <time>2022-09-17T11:44:08Z</time>
      </trkpt>
      <trkpt lat="42.64262" lon="1.67884">
        <ele>2345.156</ele>
        <time>2022-09-17T11:44:10Z</time>
      </trkpt>
      <trkpt lat="42.64261" lon="1.67882">
        <ele>2345.55</ele>
        <time>2022-09-17T11:44:12Z</time>
      </trkpt>
      <trkpt lat="42.6426" lon="1.67879">
        <ele>2345.705</ele>
        <time>2022-09-17T11:44:14Z</time>
      </trkpt>
      <trkpt lat="42.6426" lon="1.6788">
        <ele>2344.424</ele>
        <time>2022-09-17T11:44:16Z</time>
      </trkpt>
      <trkpt lat="42.6426" lon="1.6788">
        <ele>2343.956</ele>
        <time>2022-09-17T11:44:18Z</time>
      </trkpt>
      <trkpt lat="42.6426" lon="1.67878">
        <ele>2343.83</ele>
        <time>2022-09-17T11:44:20Z</time>
      </trkpt>
      <trkpt lat="42.6426" lon="1.67876">
        <ele>2342.911</ele>
        <time>2022-09-17T11:44:22Z</time>
      </trkpt>
      <trkpt lat="42.6426" lon="1.67874">
        <ele>2343.618</ele>
        <time>2022-09-17T11:44:24Z</time>
      </trkpt>
      <trkpt lat="42.6426" lon="1.6787">
        <ele>2343.375</ele>
        <time>2022-09-17T11:44:26Z</time>
      </trkpt>
      <trkpt lat="42.64259" lon="1.67867">
        <ele>2343.688</ele>
        <time>2022-09-17T11:44:28Z</time>
      </trkpt>
      <trkpt lat="42.64259" lon="1.67865">
        <ele>2343.391</ele>
        <time>2022-09-17T11:44:30Z</time>
      </trkpt>
      <trkpt lat="42.6426" lon="1.67864">
        <ele>2343.016</ele>
        <time>2022-09-17T11:44:32Z</time>
      </trkpt>
      <trkpt lat="42.6426" lon="1.67864">
        <ele>2343.004</ele>
        <time>2022-09-17T11:44:34Z</time>
      </trkpt>
      <trkpt lat="42.64259" lon="1.67862">
        <ele>2342.725</ele>
        <time>2022-09-17T11:44:36Z</time>
      </trkpt>
      <trkpt lat="42.64259" lon="1.67863">
        <ele>2344.13</ele>
        <time>2022-09-17T11:44:38Z</time>
      </trkpt>
      <trkpt lat="42.6426" lon="1.67864">
        <ele>2344.145</ele>
        <time>2022-09-17T11:44:40Z</time>
      </trkpt>
      <trkpt lat="42.6426" lon="1.67864">
        <ele>2344.125</ele>
        <time>2022-09-17T11:44:42Z</time>
      </trkpt>
      <trkpt lat="42.6426" lon="1.67864">
        <ele>2344.711</ele>
        <time>2022-09-17T11:44:44Z</time>
      </trkpt>
      <trkpt lat="42.6426" lon="1.67864">
        <ele>2344.682</ele>
        <time>2022-09-17T11:44:46Z</time>
      </trkpt>
      <trkpt lat="42.6426" lon="1.67864">
        <ele>2344.676</ele>
        <time>2022-09-17T11:44:48Z</time>
      </trkpt>
      <trkpt lat="42.6426" lon="1.67864">
        <ele>2344.728</ele>
        <time>2022-09-17T11:44:50Z</time>
      </trkpt>
      <trkpt lat="42.6426" lon="1.67864">
        <ele>2345.271</ele>
        <time>2022-09-17T11:44:52Z</time>
      </trkpt>
      <trkpt lat="42.6426" lon="1.67864">
        <ele>2345.284</ele>
        <time>2022-09-17T11:44:54Z</time>
      </trkpt>
      <trkpt lat="42.6426" lon="1.67864">
        <ele>2345.298</ele>
        <time>2022-09-17T11:44:56Z</time>
      </trkpt>
      <trkpt lat="42.64259" lon="1.67864">
        <ele>2343.724</ele>
        <time>2022-09-17T11:44:58Z</time>
      </trkpt>
      <trkpt lat="42.64259" lon="1.67863">
        <ele>2343.843</ele>
        <time>2022-09-17T11:45:00Z</time>
      </trkpt>
      <trkpt lat="42.64259" lon="1.67863">
        <ele>2343.834</ele>
        <time>2022-09-17T11:45:02Z</time>
      </trkpt>
      <trkpt lat="42.64259" lon="1.67863">
        <ele>2343.836</ele>
        <time>2022-09-17T11:45:04Z</time>
      </trkpt>
      <trkpt lat="42.64259" lon="1.67863">
        <ele>2343.834</ele>
        <time>2022-09-17T11:45:06Z</time>
      </trkpt>
      <trkpt lat="42.64259" lon="1.67863">
        <ele>2343.689</ele>
        <time>2022-09-17T11:45:08Z</time>
      </trkpt>
      <trkpt lat="42.64258" lon="1.67863">
        <ele>2344.283</ele>
        <time>2022-09-17T11:45:10Z</time>
      </trkpt>
      <trkpt lat="42.64259" lon="1.67863">
        <ele>2344.276</ele>
        <time>2022-09-17T11:45:12Z</time>
      </trkpt>
      <trkpt lat="42.64259" lon="1.67863">
        <ele>2343.361</ele>
        <time>2022-09-17T11:45:14Z</time>
      </trkpt>
      <trkpt lat="42.64258" lon="1.6786">
        <ele>2342.307</ele>
        <time>2022-09-17T11:45:16Z</time>
      </trkpt>
      <trkpt lat="42.64258" lon="1.67855">
        <ele>2344.405</ele>
        <time>2022-09-17T11:45:18Z</time>
      </trkpt>
      <trkpt lat="42.64258" lon="1.67849">
        <ele>2346.179</ele>
        <time>2022-09-17T11:45:20Z</time>
      </trkpt>
      <trkpt lat="42.64259" lon="1.67845">
        <ele>2347.987</ele>
        <time>2022-09-17T11:45:22Z</time>
      </trkpt>
      <trkpt lat="42.6426" lon="1.67842">
        <ele>2345.452</ele>
        <time>2022-09-17T11:45:24Z</time>
      </trkpt>
      <trkpt lat="42.6426" lon="1.6784">
        <ele>2346.105</ele>
        <time>2022-09-17T11:45:26Z</time>
      </trkpt>
      <trkpt lat="42.6426" lon="1.67838">
        <ele>2346.123</ele>
        <time>2022-09-17T11:45:28Z</time>
      </trkpt>
      <trkpt lat="42.6426" lon="1.67836">
        <ele>2344.849</ele>
        <time>2022-09-17T11:45:30Z</time>
      </trkpt>
      <trkpt lat="42.6426" lon="1.67838">
        <ele>2342.298</ele>
        <time>2022-09-17T11:45:32Z</time>
      </trkpt>
      <trkpt lat="42.64261" lon="1.67837">
        <ele>2341.823</ele>
        <time>2022-09-17T11:45:34Z</time>
      </trkpt>
      <trkpt lat="42.64261" lon="1.67835">
        <ele>2342.409</ele>
        <time>2022-09-17T11:45:36Z</time>
      </trkpt>
      <trkpt lat="42.6426" lon="1.67833">
        <ele>2344.37</ele>
        <time>2022-09-17T11:45:38Z</time>
      </trkpt>
      <trkpt lat="42.6426" lon="1.67833">
        <ele>2344.171</ele>
        <time>2022-09-17T11:45:40Z</time>
      </trkpt>
      <trkpt lat="42.64259" lon="1.67833">
        <ele>2344.148</ele>
        <time>2022-09-17T11:45:42Z</time>
      </trkpt>
      <trkpt lat="42.64259" lon="1.67833">
        <ele>2344.146</ele>
        <time>2022-09-17T11:45:44Z</time>
      </trkpt>
      <trkpt lat="42.64259" lon="1.67833">
        <ele>2344.145</ele>
        <time>2022-09-17T11:45:46Z</time>
      </trkpt>
      <trkpt lat="42.64259" lon="1.67833">
        <ele>2344.129</ele>
        <time>2022-09-17T11:45:48Z</time>
      </trkpt>
      <trkpt lat="42.64259" lon="1.67833">
        <ele>2344.117</ele>
        <time>2022-09-17T11:45:50Z</time>
      </trkpt>
      <trkpt lat="42.64259" lon="1.67833">
        <ele>2344.11</ele>
        <time>2022-09-17T11:45:52Z</time>
      </trkpt>
      <trkpt lat="42.64259" lon="1.67833">
        <ele>2344.124</ele>
        <time>2022-09-17T11:45:54Z</time>
      </trkpt>
      <trkpt lat="42.64259" lon="1.67833">
        <ele>2344.128</ele>
        <time>2022-09-17T11:45:56Z</time>
      </trkpt>
      <trkpt lat="42.64259" lon="1.67833">
        <ele>2344.115</ele>
        <time>2022-09-17T11:45:58Z</time>
      </trkpt>
      <trkpt lat="42.64259" lon="1.67833">
        <ele>2344.088</ele>
        <time>2022-09-17T11:46:00Z</time>
      </trkpt>
      <trkpt lat="42.64259" lon="1.67833">
        <ele>2344.096</ele>
        <time>2022-09-17T11:46:02Z</time>
      </trkpt>
      <trkpt lat="42.64259" lon="1.67833">
        <ele>2344.059</ele>
        <time>2022-09-17T11:46:04Z</time>
      </trkpt>
      <trkpt lat="42.64259" lon="1.67833">
        <ele>2344.045</ele>
        <time>2022-09-17T11:46:06Z</time>
      </trkpt>
      <trkpt lat="42.64259" lon="1.67833">
        <ele>2344.023</ele>
        <time>2022-09-17T11:46:08Z</time>
      </trkpt>
      <trkpt lat="42.64259" lon="1.67833">
        <ele>2344.017</ele>
        <time>2022-09-17T11:46:10Z</time>
      </trkpt>
      <trkpt lat="42.64259" lon="1.67833">
        <ele>2343.982</ele>
        <time>2022-09-17T11:46:12Z</time>
      </trkpt>
      <trkpt lat="42.64259" lon="1.67833">
        <ele>2343.963</ele>
        <time>2022-09-17T11:46:14Z</time>
      </trkpt>
      <trkpt lat="42.64259" lon="1.67833">
        <ele>2343.955</ele>
        <time>2022-09-17T11:46:16Z</time>
      </trkpt>
      <trkpt lat="42.64259" lon="1.67833">
        <ele>2343.472</ele>
        <time>2022-09-17T11:46:18Z</time>
      </trkpt>
      <trkpt lat="42.64259" lon="1.67833">
        <ele>2343.442</ele>
        <time>2022-09-17T11:46:20Z</time>
      </trkpt>
      <trkpt lat="42.64259" lon="1.67833">
        <ele>2343.439</ele>
        <time>2022-09-17T11:46:22Z</time>
      </trkpt>
      <trkpt lat="42.64259" lon="1.67833">
        <ele>2343.449</ele>
        <time>2022-09-17T11:46:24Z</time>
      </trkpt>
      <trkpt lat="42.64259" lon="1.67833">
        <ele>2343.444</ele>
        <time>2022-09-17T11:46:26Z</time>
      </trkpt>
      <trkpt lat="42.64258" lon="1.67833">
        <ele>2343.286</ele>
        <time>2022-09-17T11:46:28Z</time>
      </trkpt>
      <trkpt lat="42.64258" lon="1.67833">
        <ele>2343.284</ele>
        <time>2022-09-17T11:46:30Z</time>
      </trkpt>
      <trkpt lat="42.64258" lon="1.67833">
        <ele>2343.283</ele>
        <time>2022-09-17T11:46:32Z</time>
      </trkpt>
      <trkpt lat="42.64258" lon="1.67833">
        <ele>2343.283</ele>
        <time>2022-09-17T11:46:34Z</time>
      </trkpt>
      <trkpt lat="42.64258" lon="1.67833">
        <ele>2343.271</ele>
        <time>2022-09-17T11:46:36Z</time>
      </trkpt>
      <trkpt lat="42.64258" lon="1.67833">
        <ele>2343.277</ele>
        <time>2022-09-17T11:46:38Z</time>
      </trkpt>
      <trkpt lat="42.64258" lon="1.67833">
        <ele>2343.29</ele>
        <time>2022-09-17T11:46:40Z</time>
      </trkpt>
      <trkpt lat="42.64258" lon="1.67833">
        <ele>2343.292</ele>
        <time>2022-09-17T11:46:42Z</time>
      </trkpt>
      <trkpt lat="42.64258" lon="1.67833">
        <ele>2343.294</ele>
        <time>2022-09-17T11:46:44Z</time>
      </trkpt>
      <trkpt lat="42.64258" lon="1.67833">
        <ele>2343.287</ele>
        <time>2022-09-17T11:46:46Z</time>
      </trkpt>
      <trkpt lat="42.64258" lon="1.67833">
        <ele>2343.287</ele>
        <time>2022-09-17T11:46:48Z</time>
      </trkpt>
      <trkpt lat="42.64258" lon="1.67833">
        <ele>2342.977</ele>
        <time>2022-09-17T11:46:50Z</time>
      </trkpt>
      <trkpt lat="42.64258" lon="1.67836">
        <ele>2343.007</ele>
        <time>2022-09-17T11:46:52Z</time>
      </trkpt>
      <trkpt lat="42.64259" lon="1.67839">
        <ele>2342.639</ele>
        <time>2022-09-17T11:46:54Z</time>
      </trkpt>
      <trkpt lat="42.6426" lon="1.6784">
        <ele>2342.438</ele>
        <time>2022-09-17T11:46:56Z</time>
      </trkpt>
      <trkpt lat="42.64261" lon="1.67842">
        <ele>2342.009</ele>
        <time>2022-09-17T11:46:58Z</time>
      </trkpt>
      <trkpt lat="42.64258" lon="1.67844">
        <ele>2342.653</ele>
        <time>2022-09-17T11:47:00Z</time>
      </trkpt>
      <trkpt lat="42.64258" lon="1.67846">
        <ele>2342.925</ele>
        <time>2022-09-17T11:47:02Z</time>
      </trkpt>
      <trkpt lat="42.64258" lon="1.67846">
        <ele>2342.92</ele>
        <time>2022-09-17T11:47:04Z</time>
      </trkpt>
      <trkpt lat="42.64258" lon="1.67846">
        <ele>2342.92</ele>
        <time>2022-09-17T11:47:06Z</time>
      </trkpt>
      <trkpt lat="42.64258" lon="1.67846">
        <ele>2342.918</ele>
        <time>2022-09-17T11:47:08Z</time>
      </trkpt>
      <trkpt lat="42.64258" lon="1.67846">
        <ele>2342.916</ele>
        <time>2022-09-17T11:47:10Z</time>
      </trkpt>
      <trkpt lat="42.64258" lon="1.67846">
        <ele>2342.917</ele>
        <time>2022-09-17T11:47:12Z</time>
      </trkpt>
      <trkpt lat="42.64258" lon="1.67846">
        <ele>2342.918</ele>
        <time>2022-09-17T11:47:14Z</time>
      </trkpt>
      <trkpt lat="42.64258" lon="1.67846">
        <ele>2342.919</ele>
        <time>2022-09-17T11:47:16Z</time>
      </trkpt>
      <trkpt lat="42.64258" lon="1.67846">
        <ele>2342.918</ele>
        <time>2022-09-17T11:47:18Z</time>
      </trkpt>
      <trkpt lat="42.64258" lon="1.67846">
        <ele>2342.919</ele>
        <time>2022-09-17T11:47:20Z</time>
      </trkpt>
      <trkpt lat="42.64258" lon="1.67846">
        <ele>2342.913</ele>
        <time>2022-09-17T11:47:22Z</time>
      </trkpt>
      <trkpt lat="42.64258" lon="1.67846">
        <ele>2342.912</ele>
        <time>2022-09-17T11:47:24Z</time>
      </trkpt>
      <trkpt lat="42.64258" lon="1.67846">
        <ele>2342.905</ele>
        <time>2022-09-17T11:47:26Z</time>
      </trkpt>
      <trkpt lat="42.64258" lon="1.67846">
        <ele>2342.899</ele>
        <time>2022-09-17T11:47:28Z</time>
      </trkpt>
      <trkpt lat="42.64258" lon="1.67846">
        <ele>2342.895</ele>
        <time>2022-09-17T11:47:30Z</time>
      </trkpt>
      <trkpt lat="42.64258" lon="1.67846">
        <ele>2342.892</ele>
        <time>2022-09-17T11:47:32Z</time>
      </trkpt>
      <trkpt lat="42.64258" lon="1.67846">
        <ele>2342.892</ele>
        <time>2022-09-17T11:47:34Z</time>
      </trkpt>
      <trkpt lat="42.64258" lon="1.67846">
        <ele>2342.891</ele>
        <time>2022-09-17T11:47:36Z</time>
      </trkpt>
      <trkpt lat="42.64258" lon="1.67846">
        <ele>2342.891</ele>
        <time>2022-09-17T11:47:38Z</time>
      </trkpt>
      <trkpt lat="42.64258" lon="1.67846">
        <ele>2342.893</ele>
        <time>2022-09-17T11:47:40Z</time>
      </trkpt>
      <trkpt lat="42.64258" lon="1.67846">
        <ele>2342.892</ele>
        <time>2022-09-17T11:47:42Z</time>
      </trkpt>
      <trkpt lat="42.64258" lon="1.67846">
        <ele>2342.888</ele>
        <time>2022-09-17T11:47:44Z</time>
      </trkpt>
      <trkpt lat="42.64258" lon="1.67846">
        <ele>2342.885</ele>
        <time>2022-09-17T11:47:46Z</time>
      </trkpt>
      <trkpt lat="42.64258" lon="1.67846">
        <ele>2342.881</ele>
        <time>2022-09-17T11:47:48Z</time>
      </trkpt>
      <trkpt lat="42.64258" lon="1.67846">
        <ele>2342.88</ele>
        <time>2022-09-17T11:47:50Z</time>
      </trkpt>
      <trkpt lat="42.64258" lon="1.67846">
        <ele>2342.878</ele>
        <time>2022-09-17T11:47:52Z</time>
      </trkpt>
      <trkpt lat="42.64258" lon="1.67846">
        <ele>2342.873</ele>
        <time>2022-09-17T11:47:54Z</time>
      </trkpt>
      <trkpt lat="42.64258" lon="1.67846">
        <ele>2342.868</ele>
        <time>2022-09-17T11:47:56Z</time>
      </trkpt>
      <trkpt lat="42.64258" lon="1.67846">
        <ele>2342.868</ele>
        <time>2022-09-17T11:47:58Z</time>
      </trkpt>
      <trkpt lat="42.64258" lon="1.67846">
        <ele>2342.862</ele>
        <time>2022-09-17T11:48:00Z</time>
      </trkpt>
      <trkpt lat="42.64258" lon="1.67846">
        <ele>2342.861</ele>
        <time>2022-09-17T11:48:02Z</time>
      </trkpt>
      <trkpt lat="42.64258" lon="1.67846">
        <ele>2342.86</ele>
        <time>2022-09-17T11:48:04Z</time>
      </trkpt>
      <trkpt lat="42.64259" lon="1.67845">
        <ele>2343.002</ele>
        <time>2022-09-17T11:48:06Z</time>
      </trkpt>
      <trkpt lat="42.64259" lon="1.67844">
        <ele>2342.63</ele>
        <time>2022-09-17T11:48:08Z</time>
      </trkpt>
      <trkpt lat="42.64259" lon="1.67843">
        <ele>2342.702</ele>
        <time>2022-09-17T11:48:10Z</time>
      </trkpt>
      <trkpt lat="42.64259" lon="1.67843">
        <ele>2342.709</ele>
        <time>2022-09-17T11:48:12Z</time>
      </trkpt>
      <trkpt lat="42.64259" lon="1.67843">
        <ele>2342.711</ele>
        <time>2022-09-17T11:48:14Z</time>
      </trkpt>
      <trkpt lat="42.64258" lon="1.67843">
        <ele>2343.621</ele>
        <time>2022-09-17T11:48:16Z</time>
      </trkpt>
      <trkpt lat="42.64258" lon="1.67841">
        <ele>2343.213</ele>
        <time>2022-09-17T11:48:18Z</time>
      </trkpt>
      <trkpt lat="42.64258" lon="1.6784">
        <ele>2342.694</ele>
        <time>2022-09-17T11:48:20Z</time>
      </trkpt>
      <trkpt lat="42.64258" lon="1.6784">
        <ele>2342.409</ele>
        <time>2022-09-17T11:48:22Z</time>
      </trkpt>
      <trkpt lat="42.64258" lon="1.67836">
        <ele>2342.362</ele>
        <time>2022-09-17T11:48:24Z</time>
      </trkpt>
      <trkpt lat="42.64258" lon="1.67836">
        <ele>2342.365</ele>
        <time>2022-09-17T11:48:26Z</time>
      </trkpt>
      <trkpt lat="42.64258" lon="1.67836">
        <ele>2342.361</ele>
        <time>2022-09-17T11:48:28Z</time>
      </trkpt>
      <trkpt lat="42.64259" lon="1.67836">
        <ele>2342.289</ele>
        <time>2022-09-17T11:48:30Z</time>
      </trkpt>
      <trkpt lat="42.64259" lon="1.67836">
        <ele>2342.286</ele>
        <time>2022-09-17T11:48:32Z</time>
      </trkpt>
      <trkpt lat="42.64259" lon="1.67836">
        <ele>2342.284</ele>
        <time>2022-09-17T11:48:34Z</time>
      </trkpt>
      <trkpt lat="42.64259" lon="1.67836">
        <ele>2342.277</ele>
        <time>2022-09-17T11:48:36Z</time>
      </trkpt>
      <trkpt lat="42.64259" lon="1.67836">
        <ele>2342.271</ele>
        <time>2022-09-17T11:48:38Z</time>
      </trkpt>
      <trkpt lat="42.64259" lon="1.67836">
        <ele>2342.27</ele>
        <time>2022-09-17T11:48:40Z</time>
      </trkpt>
      <trkpt lat="42.64259" lon="1.67836">
        <ele>2342.266</ele>
        <time>2022-09-17T11:48:42Z</time>
      </trkpt>
      <trkpt lat="42.64259" lon="1.67836">
        <ele>2342.265</ele>
        <time>2022-09-17T11:48:44Z</time>
      </trkpt>
      <trkpt lat="42.64259" lon="1.67836">
        <ele>2342.275</ele>
        <time>2022-09-17T11:48:46Z</time>
      </trkpt>
      <trkpt lat="42.64259" lon="1.67836">
        <ele>2342.278</ele>
        <time>2022-09-17T11:48:48Z</time>
      </trkpt>
      <trkpt lat="42.64259" lon="1.67836">
        <ele>2342.169</ele>
        <time>2022-09-17T11:48:50Z</time>
      </trkpt>
      <trkpt lat="42.64258" lon="1.67834">
        <ele>2342.088</ele>
        <time>2022-09-17T11:48:52Z</time>
      </trkpt>
      <trkpt lat="42.64258" lon="1.67834">
        <ele>2342.333</ele>
        <time>2022-09-17T11:48:54Z</time>
      </trkpt>
      <trkpt lat="42.64258" lon="1.67835">
        <ele>2342.447</ele>
        <time>2022-09-17T11:48:56Z</time>
      </trkpt>
      <trkpt lat="42.64257" lon="1.67836">
        <ele>2342.463</ele>
        <time>2022-09-17T11:48:58Z</time>
      </trkpt>
      <trkpt lat="42.64257" lon="1.67836">
        <ele>2342.447</ele>
        <time>2022-09-17T11:49:00Z</time>
      </trkpt>
      <trkpt lat="42.64257" lon="1.67836">
        <ele>2342.447</ele>
        <time>2022-09-17T11:49:02Z</time>
      </trkpt>
      <trkpt lat="42.64257" lon="1.67835">
        <ele>2342.595</ele>
        <time>2022-09-17T11:49:04Z</time>
      </trkpt>
      <trkpt lat="42.64257" lon="1.67835">
        <ele>2343.933</ele>
        <time>2022-09-17T11:49:06Z</time>
      </trkpt>
      <trkpt lat="42.64257" lon="1.67835">
        <ele>2343.674</ele>
        <time>2022-09-17T11:49:08Z</time>
      </trkpt>
      <trkpt lat="42.64257" lon="1.67836">
        <ele>2343.65</ele>
        <time>2022-09-17T11:49:10Z</time>
      </trkpt>
      <trkpt lat="42.64257" lon="1.67836">
        <ele>2343.637</ele>
        <time>2022-09-17T11:49:12Z</time>
      </trkpt>
      <trkpt lat="42.64257" lon="1.67836">
        <ele>2343.628</ele>
        <time>2022-09-17T11:49:14Z</time>
      </trkpt>
      <trkpt lat="42.64257" lon="1.67836">
        <ele>2343.626</ele>
        <time>2022-09-17T11:49:16Z</time>
      </trkpt>
      <trkpt lat="42.64257" lon="1.67836">
        <ele>2343.629</ele>
        <time>2022-09-17T11:49:18Z</time>
      </trkpt>
      <trkpt lat="42.64257" lon="1.67836">
        <ele>2343.62</ele>
        <time>2022-09-17T11:49:20Z</time>
      </trkpt>
      <trkpt lat="42.64256" lon="1.67836">
        <ele>2343.063</ele>
        <time>2022-09-17T11:49:22Z</time>
      </trkpt>
      <trkpt lat="42.64256" lon="1.67836">
        <ele>2342.907</ele>
        <time>2022-09-17T11:49:24Z</time>
      </trkpt>
      <trkpt lat="42.64256" lon="1.67837">
        <ele>2342.977</ele>
        <time>2022-09-17T11:49:26Z</time>
      </trkpt>
      <trkpt lat="42.64256" lon="1.67837">
        <ele>2342.842</ele>
        <time>2022-09-17T11:49:28Z</time>
      </trkpt>
      <trkpt lat="42.64256" lon="1.67836">
        <ele>2342.444</ele>
        <time>2022-09-17T11:49:30Z</time>
      </trkpt>
      <trkpt lat="42.64256" lon="1.67836">
        <ele>2342.106</ele>
        <time>2022-09-17T11:49:32Z</time>
      </trkpt>
      <trkpt lat="42.64255" lon="1.67834">
        <ele>2341.577</ele>
        <time>2022-09-17T11:49:34Z</time>
      </trkpt>
      <trkpt lat="42.64254" lon="1.67833">
        <ele>2341.912</ele>
        <time>2022-09-17T11:49:36Z</time>
      </trkpt>
      <trkpt lat="42.64254" lon="1.67832">
        <ele>2341.89</ele>
        <time>2022-09-17T11:49:38Z</time>
      </trkpt>
      <trkpt lat="42.64254" lon="1.67831">
        <ele>2341.045</ele>
        <time>2022-09-17T11:49:40Z</time>
      </trkpt>
      <trkpt lat="42.64253" lon="1.67829">
        <ele>2340.506</ele>
        <time>2022-09-17T11:49:42Z</time>
      </trkpt>
      <trkpt lat="42.64252" lon="1.67828">
        <ele>2339.354</ele>
        <time>2022-09-17T11:49:44Z</time>
      </trkpt>
      <trkpt lat="42.64251" lon="1.67827">
        <ele>2339.35</ele>
        <time>2022-09-17T11:49:46Z</time>
      </trkpt>
      <trkpt lat="42.64249" lon="1.67826">
        <ele>2339.205</ele>
        <time>2022-09-17T11:49:48Z</time>
      </trkpt>
      <trkpt lat="42.64248" lon="1.67825">
        <ele>2338.676</ele>
        <time>2022-09-17T11:49:50Z</time>
      </trkpt>
      <trkpt lat="42.64247" lon="1.67824">
        <ele>2337.275</ele>
        <time>2022-09-17T11:49:52Z</time>
      </trkpt>
      <trkpt lat="42.64246" lon="1.67823">
        <ele>2336.872</ele>
        <time>2022-09-17T11:49:54Z</time>
      </trkpt>
      <trkpt lat="42.64244" lon="1.67823">
        <ele>2337.443</ele>
        <time>2022-09-17T11:49:56Z</time>
      </trkpt>
      <trkpt lat="42.64243" lon="1.67822">
        <ele>2336.454</ele>
        <time>2022-09-17T11:49:58Z</time>
      </trkpt>
      <trkpt lat="42.64241" lon="1.67822">
        <ele>2335.103</ele>
        <time>2022-09-17T11:50:00Z</time>
      </trkpt>
      <trkpt lat="42.6424" lon="1.67821">
        <ele>2334.539</ele>
        <time>2022-09-17T11:50:02Z</time>
      </trkpt>
      <trkpt lat="42.64239" lon="1.67821">
        <ele>2334.888</ele>
        <time>2022-09-17T11:50:04Z</time>
      </trkpt>
      <trkpt lat="42.64238" lon="1.6782">
        <ele>2334.876</ele>
        <time>2022-09-17T11:50:06Z</time>
      </trkpt>
      <trkpt lat="42.64238" lon="1.67818">
        <ele>2334.268</ele>
        <time>2022-09-17T11:50:08Z</time>
      </trkpt>
      <trkpt lat="42.64237" lon="1.67818">
        <ele>2333.417</ele>
        <time>2022-09-17T11:50:10Z</time>
      </trkpt>
      <trkpt lat="42.64236" lon="1.67817">
        <ele>2333.412</ele>
        <time>2022-09-17T11:50:12Z</time>
      </trkpt>
      <trkpt lat="42.64235" lon="1.67817">
        <ele>2333.22</ele>
        <time>2022-09-17T11:50:14Z</time>
      </trkpt>
      <trkpt lat="42.64233" lon="1.67817">
        <ele>2332.211</ele>
        <time>2022-09-17T11:50:16Z</time>
      </trkpt>
      <trkpt lat="42.64232" lon="1.67817">
        <ele>2331.474</ele>
        <time>2022-09-17T11:50:18Z</time>
      </trkpt>
      <trkpt lat="42.64231" lon="1.67817">
        <ele>2330.598</ele>
        <time>2022-09-17T11:50:20Z</time>
      </trkpt>
      <trkpt lat="42.64229" lon="1.67817">
        <ele>2330.66</ele>
        <time>2022-09-17T11:50:22Z</time>
      </trkpt>
      <trkpt lat="42.64228" lon="1.67817">
        <ele>2330.011</ele>
        <time>2022-09-17T11:50:24Z</time>
      </trkpt>
      <trkpt lat="42.64227" lon="1.67817">
        <ele>2328.851</ele>
        <time>2022-09-17T11:50:26Z</time>
      </trkpt>
      <trkpt lat="42.64225" lon="1.67816">
        <ele>2327.286</ele>
        <time>2022-09-17T11:50:28Z</time>
      </trkpt>
      <trkpt lat="42.64224" lon="1.67815">
        <ele>2326.699</ele>
        <time>2022-09-17T11:50:30Z</time>
      </trkpt>
      <trkpt lat="42.64222" lon="1.67815">
        <ele>2326.884</ele>
        <time>2022-09-17T11:50:32Z</time>
      </trkpt>
      <trkpt lat="42.6422" lon="1.67815">
        <ele>2326.901</ele>
        <time>2022-09-17T11:50:34Z</time>
      </trkpt>
      <trkpt lat="42.64219" lon="1.67814">
        <ele>2326.264</ele>
        <time>2022-09-17T11:50:36Z</time>
      </trkpt>
      <trkpt lat="42.64218" lon="1.67813">
        <ele>2325.93</ele>
        <time>2022-09-17T11:50:38Z</time>
      </trkpt>
      <trkpt lat="42.64217" lon="1.67813">
        <ele>2324.749</ele>
        <time>2022-09-17T11:50:40Z</time>
      </trkpt>
      <trkpt lat="42.64215" lon="1.67812">
        <ele>2323.965</ele>
        <time>2022-09-17T11:50:42Z</time>
      </trkpt>
      <trkpt lat="42.64214" lon="1.67811">
        <ele>2323.658</ele>
        <time>2022-09-17T11:50:44Z</time>
      </trkpt>
      <trkpt lat="42.64213" lon="1.67812">
        <ele>2323.141</ele>
        <time>2022-09-17T11:50:46Z</time>
      </trkpt>
      <trkpt lat="42.64212" lon="1.67811">
        <ele>2322.817</ele>
        <time>2022-09-17T11:50:48Z</time>
      </trkpt>
      <trkpt lat="42.64212" lon="1.6781">
        <ele>2322.076</ele>
        <time>2022-09-17T11:50:50Z</time>
      </trkpt>
      <trkpt lat="42.64211" lon="1.67809">
        <ele>2321.186</ele>
        <time>2022-09-17T11:50:52Z</time>
      </trkpt>
      <trkpt lat="42.6421" lon="1.67809">
        <ele>2320.805</ele>
        <time>2022-09-17T11:50:54Z</time>
      </trkpt>
      <trkpt lat="42.64209" lon="1.67808">
        <ele>2320.138</ele>
        <time>2022-09-17T11:50:56Z</time>
      </trkpt>
      <trkpt lat="42.64207" lon="1.67807">
        <ele>2319.977</ele>
        <time>2022-09-17T11:50:58Z</time>
      </trkpt>
      <trkpt lat="42.64205" lon="1.67805">
        <ele>2319.228</ele>
        <time>2022-09-17T11:51:00Z</time>
      </trkpt>
      <trkpt lat="42.64204" lon="1.67803">
        <ele>2318.472</ele>
        <time>2022-09-17T11:51:02Z</time>
      </trkpt>
      <trkpt lat="42.64203" lon="1.67803">
        <ele>2317.844</ele>
        <time>2022-09-17T11:51:04Z</time>
      </trkpt>
      <trkpt lat="42.64203" lon="1.67803">
        <ele>2317.847</ele>
        <time>2022-09-17T11:51:06Z</time>
      </trkpt>
      <trkpt lat="42.64203" lon="1.67803">
        <ele>2317.599</ele>
        <time>2022-09-17T11:51:08Z</time>
      </trkpt>
      <trkpt lat="42.64203" lon="1.67802">
        <ele>2315.955</ele>
        <time>2022-09-17T11:51:10Z</time>
      </trkpt>
      <trkpt lat="42.64202" lon="1.678">
        <ele>2316.334</ele>
        <time>2022-09-17T11:51:12Z</time>
      </trkpt>
      <trkpt lat="42.64201" lon="1.67799">
        <ele>2316.669</ele>
        <time>2022-09-17T11:51:14Z</time>
      </trkpt>
      <trkpt lat="42.642" lon="1.67798">
        <ele>2316.919</ele>
        <time>2022-09-17T11:51:16Z</time>
      </trkpt>
      <trkpt lat="42.64199" lon="1.67797">
        <ele>2316.477</ele>
        <time>2022-09-17T11:51:18Z</time>
      </trkpt>
      <trkpt lat="42.64198" lon="1.67796">
        <ele>2316.445</ele>
        <time>2022-09-17T11:51:20Z</time>
      </trkpt>
      <trkpt lat="42.64198" lon="1.67796">
        <ele>2316.131</ele>
        <time>2022-09-17T11:51:22Z</time>
      </trkpt>
      <trkpt lat="42.64198" lon="1.67796">
        <ele>2316.12</ele>
        <time>2022-09-17T11:51:24Z</time>
      </trkpt>
      <trkpt lat="42.64198" lon="1.67796">
        <ele>2316.108</ele>
        <time>2022-09-17T11:51:26Z</time>
      </trkpt>
      <trkpt lat="42.64198" lon="1.67796">
        <ele>2315.543</ele>
        <time>2022-09-17T11:51:28Z</time>
      </trkpt>
      <trkpt lat="42.64197" lon="1.67794">
        <ele>2316.071</ele>
        <time>2022-09-17T11:51:30Z</time>
      </trkpt>
      <trkpt lat="42.64195" lon="1.67792">
        <ele>2314.618</ele>
        <time>2022-09-17T11:51:32Z</time>
      </trkpt>
      <trkpt lat="42.64193" lon="1.6779">
        <ele>2314.338</ele>
        <time>2022-09-17T11:51:34Z</time>
      </trkpt>
      <trkpt lat="42.64192" lon="1.67789">
        <ele>2313.579</ele>
        <time>2022-09-17T11:51:36Z</time>
      </trkpt>
      <trkpt lat="42.6419" lon="1.67787">
        <ele>2313.379</ele>
        <time>2022-09-17T11:51:38Z</time>
      </trkpt>
      <trkpt lat="42.64187" lon="1.67785">
        <ele>2314.774</ele>
        <time>2022-09-17T11:51:40Z</time>
      </trkpt>
      <trkpt lat="42.64185" lon="1.67783">
        <ele>2314.203</ele>
        <time>2022-09-17T11:51:42Z</time>
      </trkpt>
      <trkpt lat="42.64184" lon="1.6778">
        <ele>2314.724</ele>
        <time>2022-09-17T11:51:44Z</time>
      </trkpt>
      <trkpt lat="42.64183" lon="1.67777">
        <ele>2314.493</ele>
        <time>2022-09-17T11:51:46Z</time>
      </trkpt>
      <trkpt lat="42.64181" lon="1.67774">
        <ele>2315.229</ele>
        <time>2022-09-17T11:51:48Z</time>
      </trkpt>
      <trkpt lat="42.6418" lon="1.67771">
        <ele>2315.028</ele>
        <time>2022-09-17T11:51:50Z</time>
      </trkpt>
      <trkpt lat="42.64178" lon="1.67769">
        <ele>2314.686</ele>
        <time>2022-09-17T11:51:52Z</time>
      </trkpt>
      <trkpt lat="42.64177" lon="1.67767">
        <ele>2313.643</ele>
        <time>2022-09-17T11:51:54Z</time>
      </trkpt>
      <trkpt lat="42.64176" lon="1.67765">
        <ele>2312.536</ele>
        <time>2022-09-17T11:51:56Z</time>
      </trkpt>
      <trkpt lat="42.64175" lon="1.67764">
        <ele>2311.871</ele>
        <time>2022-09-17T11:51:58Z</time>
      </trkpt>
      <trkpt lat="42.64173" lon="1.67763">
        <ele>2311.122</ele>
        <time>2022-09-17T11:52:00Z</time>
      </trkpt>
      <trkpt lat="42.64173" lon="1.6776">
        <ele>2309.89</ele>
        <time>2022-09-17T11:52:02Z</time>
      </trkpt>
      <trkpt lat="42.64172" lon="1.67759">
        <ele>2308.658</ele>
        <time>2022-09-17T11:52:04Z</time>
      </trkpt>
      <trkpt lat="42.64171" lon="1.67757">
        <ele>2308.404</ele>
        <time>2022-09-17T11:52:06Z</time>
      </trkpt>
      <trkpt lat="42.64169" lon="1.67755">
        <ele>2307.093</ele>
        <time>2022-09-17T11:52:08Z</time>
      </trkpt>
      <trkpt lat="42.64167" lon="1.67753">
        <ele>2307.946</ele>
        <time>2022-09-17T11:52:10Z</time>
      </trkpt>
      <trkpt lat="42.64165" lon="1.67751">
        <ele>2308.389</ele>
        <time>2022-09-17T11:52:12Z</time>
      </trkpt>
      <trkpt lat="42.64164" lon="1.67749">
        <ele>2307.175</ele>
        <time>2022-09-17T11:52:14Z</time>
      </trkpt>
      <trkpt lat="42.64163" lon="1.67747">
        <ele>2306.876</ele>
        <time>2022-09-17T11:52:16Z</time>
      </trkpt>
      <trkpt lat="42.64161" lon="1.67746">
        <ele>2305.383</ele>
        <time>2022-09-17T11:52:18Z</time>
      </trkpt>
      <trkpt lat="42.64159" lon="1.67743">
        <ele>2304.756</ele>
        <time>2022-09-17T11:52:20Z</time>
      </trkpt>
      <trkpt lat="42.64158" lon="1.67742">
        <ele>2304.883</ele>
        <time>2022-09-17T11:52:22Z</time>
      </trkpt>
      <trkpt lat="42.64156" lon="1.6774">
        <ele>2304.238</ele>
        <time>2022-09-17T11:52:24Z</time>
      </trkpt>
      <trkpt lat="42.64156" lon="1.67738">
        <ele>2303.946</ele>
        <time>2022-09-17T11:52:26Z</time>
      </trkpt>
      <trkpt lat="42.64155" lon="1.67735">
        <ele>2304.398</ele>
        <time>2022-09-17T11:52:28Z</time>
      </trkpt>
      <trkpt lat="42.64154" lon="1.67733">
        <ele>2302.921</ele>
        <time>2022-09-17T11:52:30Z</time>
      </trkpt>
      <trkpt lat="42.64153" lon="1.6773">
        <ele>2302.197</ele>
        <time>2022-09-17T11:52:32Z</time>
      </trkpt>
      <trkpt lat="42.64152" lon="1.67728">
        <ele>2301.251</ele>
        <time>2022-09-17T11:52:34Z</time>
      </trkpt>
      <trkpt lat="42.6415" lon="1.67725">
        <ele>2299.865</ele>
        <time>2022-09-17T11:52:36Z</time>
      </trkpt>
      <trkpt lat="42.64149" lon="1.67723">
        <ele>2301.191</ele>
        <time>2022-09-17T11:52:38Z</time>
      </trkpt>
      <trkpt lat="42.64147" lon="1.67722">
        <ele>2300.294</ele>
        <time>2022-09-17T11:52:40Z</time>
      </trkpt>
      <trkpt lat="42.64145" lon="1.67719">
        <ele>2298.662</ele>
        <time>2022-09-17T11:52:42Z</time>
      </trkpt>
      <trkpt lat="42.64143" lon="1.67717">
        <ele>2298.282</ele>
        <time>2022-09-17T11:52:44Z</time>
      </trkpt>
      <trkpt lat="42.64141" lon="1.67714">
        <ele>2297.752</ele>
        <time>2022-09-17T11:52:46Z</time>
      </trkpt>
      <trkpt lat="42.64139" lon="1.67713">
        <ele>2298.545</ele>
        <time>2022-09-17T11:52:48Z</time>
      </trkpt>
      <trkpt lat="42.64137" lon="1.67712">
        <ele>2299.587</ele>
        <time>2022-09-17T11:52:50Z</time>
      </trkpt>
      <trkpt lat="42.64136" lon="1.67711">
        <ele>2299.474</ele>
        <time>2022-09-17T11:52:52Z</time>
      </trkpt>
      <trkpt lat="42.64135" lon="1.67709">
        <ele>2299.161</ele>
        <time>2022-09-17T11:52:54Z</time>
      </trkpt>
      <trkpt lat="42.64134" lon="1.67706">
        <ele>2298.482</ele>
        <time>2022-09-17T11:52:56Z</time>
      </trkpt>
      <trkpt lat="42.64133" lon="1.67704">
        <ele>2298.709</ele>
        <time>2022-09-17T11:52:58Z</time>
      </trkpt>
      <trkpt lat="42.64132" lon="1.67703">
        <ele>2298.791</ele>
        <time>2022-09-17T11:53:00Z</time>
      </trkpt>
      <trkpt lat="42.64131" lon="1.67699">
        <ele>2299.421</ele>
        <time>2022-09-17T11:53:02Z</time>
      </trkpt>
      <trkpt lat="42.64129" lon="1.67697">
        <ele>2298.707</ele>
        <time>2022-09-17T11:53:04Z</time>
      </trkpt>
      <trkpt lat="42.64127" lon="1.67696">
        <ele>2298.343</ele>
        <time>2022-09-17T11:53:06Z</time>
      </trkpt>
      <trkpt lat="42.64126" lon="1.67695">
        <ele>2297.632</ele>
        <time>2022-09-17T11:53:08Z</time>
      </trkpt>
      <trkpt lat="42.64125" lon="1.67693">
        <ele>2298.281</ele>
        <time>2022-09-17T11:53:10Z</time>
      </trkpt>
      <trkpt lat="42.64124" lon="1.6769">
        <ele>2298.701</ele>
        <time>2022-09-17T11:53:12Z</time>
      </trkpt>
      <trkpt lat="42.64124" lon="1.67688">
        <ele>2299.375</ele>
        <time>2022-09-17T11:53:14Z</time>
      </trkpt>
      <trkpt lat="42.64123" lon="1.67686">
        <ele>2299.601</ele>
        <time>2022-09-17T11:53:16Z</time>
      </trkpt>
      <trkpt lat="42.64122" lon="1.67685">
        <ele>2300.052</ele>
        <time>2022-09-17T11:53:18Z</time>
      </trkpt>
      <trkpt lat="42.64121" lon="1.67683">
        <ele>2299.888</ele>
        <time>2022-09-17T11:53:20Z</time>
      </trkpt>
      <trkpt lat="42.6412" lon="1.67682">
        <ele>2300.713</ele>
        <time>2022-09-17T11:53:22Z</time>
      </trkpt>
      <trkpt lat="42.64119" lon="1.6768">
        <ele>2301.031</ele>
        <time>2022-09-17T11:53:24Z</time>
      </trkpt>
      <trkpt lat="42.64118" lon="1.67679">
        <ele>2301.37</ele>
        <time>2022-09-17T11:53:26Z</time>
      </trkpt>
      <trkpt lat="42.64117" lon="1.67677">
        <ele>2301.028</ele>
        <time>2022-09-17T11:53:28Z</time>
      </trkpt>
      <trkpt lat="42.64116" lon="1.67676">
        <ele>2300.618</ele>
        <time>2022-09-17T11:53:30Z</time>
      </trkpt>
      <trkpt lat="42.64115" lon="1.67675">
        <ele>2300.555</ele>
        <time>2022-09-17T11:53:32Z</time>
      </trkpt>
      <trkpt lat="42.64114" lon="1.67674">
        <ele>2300.272</ele>
        <time>2022-09-17T11:53:34Z</time>
      </trkpt>
      <trkpt lat="42.64112" lon="1.67673">
        <ele>2299.763</ele>
        <time>2022-09-17T11:53:36Z</time>
      </trkpt>
      <trkpt lat="42.64111" lon="1.67671">
        <ele>2298.774</ele>
        <time>2022-09-17T11:53:38Z</time>
      </trkpt>
      <trkpt lat="42.6411" lon="1.6767">
        <ele>2299.845</ele>
        <time>2022-09-17T11:53:40Z</time>
      </trkpt>
      <trkpt lat="42.64109" lon="1.67668">
        <ele>2298.326</ele>
        <time>2022-09-17T11:53:42Z</time>
      </trkpt>
      <trkpt lat="42.64108" lon="1.67666">
        <ele>2298.113</ele>
        <time>2022-09-17T11:53:44Z</time>
      </trkpt>
      <trkpt lat="42.64108" lon="1.67664">
        <ele>2296.43</ele>
        <time>2022-09-17T11:53:46Z</time>
      </trkpt>
      <trkpt lat="42.64107" lon="1.67662">
        <ele>2296.682</ele>
        <time>2022-09-17T11:53:48Z</time>
      </trkpt>
      <trkpt lat="42.64107" lon="1.6766">
        <ele>2295.274</ele>
        <time>2022-09-17T11:53:50Z</time>
      </trkpt>
      <trkpt lat="42.64106" lon="1.67657">
        <ele>2294.681</ele>
        <time>2022-09-17T11:53:52Z</time>
      </trkpt>
      <trkpt lat="42.64105" lon="1.67655">
        <ele>2293.64</ele>
        <time>2022-09-17T11:53:54Z</time>
      </trkpt>
      <trkpt lat="42.64104" lon="1.67654">
        <ele>2293.241</ele>
        <time>2022-09-17T11:53:56Z</time>
      </trkpt>
      <trkpt lat="42.64103" lon="1.67652">
        <ele>2294.245</ele>
        <time>2022-09-17T11:53:58Z</time>
      </trkpt>
      <trkpt lat="42.64102" lon="1.67651">
        <ele>2293.973</ele>
        <time>2022-09-17T11:54:00Z</time>
      </trkpt>
      <trkpt lat="42.64101" lon="1.6765">
        <ele>2294.52</ele>
        <time>2022-09-17T11:54:02Z</time>
      </trkpt>
      <trkpt lat="42.64099" lon="1.67649">
        <ele>2294.13</ele>
        <time>2022-09-17T11:54:04Z</time>
      </trkpt>
      <trkpt lat="42.64098" lon="1.67648">
        <ele>2294.555</ele>
        <time>2022-09-17T11:54:06Z</time>
      </trkpt>
      <trkpt lat="42.64097" lon="1.67647">
        <ele>2295.444</ele>
        <time>2022-09-17T11:54:08Z</time>
      </trkpt>
      <trkpt lat="42.64096" lon="1.67645">
        <ele>2294.882</ele>
        <time>2022-09-17T11:54:10Z</time>
      </trkpt>
      <trkpt lat="42.64095" lon="1.67643">
        <ele>2295.373</ele>
        <time>2022-09-17T11:54:12Z</time>
      </trkpt>
      <trkpt lat="42.64094" lon="1.67641">
        <ele>2295.454</ele>
        <time>2022-09-17T11:54:14Z</time>
      </trkpt>
      <trkpt lat="42.64093" lon="1.67639">
        <ele>2295.503</ele>
        <time>2022-09-17T11:54:16Z</time>
      </trkpt>
      <trkpt lat="42.64093" lon="1.67638">
        <ele>2294.264</ele>
        <time>2022-09-17T11:54:18Z</time>
      </trkpt>
      <trkpt lat="42.64092" lon="1.67636">
        <ele>2293.349</ele>
        <time>2022-09-17T11:54:20Z</time>
      </trkpt>
      <trkpt lat="42.64092" lon="1.67634">
        <ele>2292.845</ele>
        <time>2022-09-17T11:54:22Z</time>
      </trkpt>
      <trkpt lat="42.64091" lon="1.67631">
        <ele>2292.601</ele>
        <time>2022-09-17T11:54:24Z</time>
      </trkpt>
      <trkpt lat="42.64091" lon="1.67629">
        <ele>2292.184</ele>
        <time>2022-09-17T11:54:26Z</time>
      </trkpt>
      <trkpt lat="42.6409" lon="1.67627">
        <ele>2291.133</ele>
        <time>2022-09-17T11:54:28Z</time>
      </trkpt>
      <trkpt lat="42.6409" lon="1.67625">
        <ele>2290.799</ele>
        <time>2022-09-17T11:54:30Z</time>
      </trkpt>
      <trkpt lat="42.6409" lon="1.67622">
        <ele>2290.525</ele>
        <time>2022-09-17T11:54:32Z</time>
      </trkpt>
      <trkpt lat="42.6409" lon="1.67619">
        <ele>2290.159</ele>
        <time>2022-09-17T11:54:34Z</time>
      </trkpt>
      <trkpt lat="42.6409" lon="1.67616">
        <ele>2289.518</ele>
        <time>2022-09-17T11:54:36Z</time>
      </trkpt>
      <trkpt lat="42.6409" lon="1.67613">
        <ele>2289.531</ele>
        <time>2022-09-17T11:54:38Z</time>
      </trkpt>
      <trkpt lat="42.64089" lon="1.6761">
        <ele>2289.768</ele>
        <time>2022-09-17T11:54:40Z</time>
      </trkpt>
      <trkpt lat="42.64088" lon="1.67607">
        <ele>2288.846</ele>
        <time>2022-09-17T11:54:42Z</time>
      </trkpt>
      <trkpt lat="42.64087" lon="1.67605">
        <ele>2289.205</ele>
        <time>2022-09-17T11:54:44Z</time>
      </trkpt>
      <trkpt lat="42.64086" lon="1.67602">
        <ele>2289.262</ele>
        <time>2022-09-17T11:54:46Z</time>
      </trkpt>
      <trkpt lat="42.64085" lon="1.676">
        <ele>2288.933</ele>
        <time>2022-09-17T11:54:48Z</time>
      </trkpt>
      <trkpt lat="42.64084" lon="1.67597">
        <ele>2289.2</ele>
        <time>2022-09-17T11:54:50Z</time>
      </trkpt>
      <trkpt lat="42.64084" lon="1.67595">
        <ele>2289.302</ele>
        <time>2022-09-17T11:54:52Z</time>
      </trkpt>
      <trkpt lat="42.64082" lon="1.67593">
        <ele>2289.154</ele>
        <time>2022-09-17T11:54:54Z</time>
      </trkpt>
      <trkpt lat="42.64081" lon="1.67591">
        <ele>2289.278</ele>
        <time>2022-09-17T11:54:56Z</time>
      </trkpt>
      <trkpt lat="42.64079" lon="1.67589">
        <ele>2288.564</ele>
        <time>2022-09-17T11:54:58Z</time>
      </trkpt>
      <trkpt lat="42.64078" lon="1.67588">
        <ele>2289.251</ele>
        <time>2022-09-17T11:55:00Z</time>
      </trkpt>
      <trkpt lat="42.64077" lon="1.67585">
        <ele>2288.894</ele>
        <time>2022-09-17T11:55:02Z</time>
      </trkpt>
      <trkpt lat="42.64077" lon="1.67582">
        <ele>2289.312</ele>
        <time>2022-09-17T11:55:04Z</time>
      </trkpt>
      <trkpt lat="42.64076" lon="1.6758">
        <ele>2289.537</ele>
        <time>2022-09-17T11:55:06Z</time>
      </trkpt>
      <trkpt lat="42.64075" lon="1.67577">
        <ele>2288.636</ele>
        <time>2022-09-17T11:55:08Z</time>
      </trkpt>
      <trkpt lat="42.64074" lon="1.67574">
        <ele>2288.553</ele>
        <time>2022-09-17T11:55:10Z</time>
      </trkpt>
      <trkpt lat="42.64073" lon="1.67571">
        <ele>2287.998</ele>
        <time>2022-09-17T11:55:12Z</time>
      </trkpt>
      <trkpt lat="42.64072" lon="1.67568">
        <ele>2287.168</ele>
        <time>2022-09-17T11:55:14Z</time>
      </trkpt>
      <trkpt lat="42.64071" lon="1.67566">
        <ele>2286.75</ele>
        <time>2022-09-17T11:55:16Z</time>
      </trkpt>
      <trkpt lat="42.6407" lon="1.67564">
        <ele>2287.361</ele>
        <time>2022-09-17T11:55:18Z</time>
      </trkpt>
      <trkpt lat="42.64069" lon="1.67561">
        <ele>2287.575</ele>
        <time>2022-09-17T11:55:20Z</time>
      </trkpt>
      <trkpt lat="42.64069" lon="1.67559">
        <ele>2287.327</ele>
        <time>2022-09-17T11:55:22Z</time>
      </trkpt>
      <trkpt lat="42.64067" lon="1.67556">
        <ele>2287.835</ele>
        <time>2022-09-17T11:55:24Z</time>
      </trkpt>
      <trkpt lat="42.64066" lon="1.67554">
        <ele>2286.823</ele>
        <time>2022-09-17T11:55:26Z</time>
      </trkpt>
      <trkpt lat="42.64065" lon="1.67552">
        <ele>2286.379</ele>
        <time>2022-09-17T11:55:28Z</time>
      </trkpt>
      <trkpt lat="42.64064" lon="1.67549">
        <ele>2287.653</ele>
        <time>2022-09-17T11:55:30Z</time>
      </trkpt>
      <trkpt lat="42.64062" lon="1.67547">
        <ele>2287.839</ele>
        <time>2022-09-17T11:55:32Z</time>
      </trkpt>
      <trkpt lat="42.64061" lon="1.67545">
        <ele>2288.292</ele>
        <time>2022-09-17T11:55:34Z</time>
      </trkpt>
      <trkpt lat="42.64059" lon="1.67544">
        <ele>2288.299</ele>
        <time>2022-09-17T11:55:36Z</time>
      </trkpt>
      <trkpt lat="42.64057" lon="1.67543">
        <ele>2289.073</ele>
        <time>2022-09-17T11:55:38Z</time>
      </trkpt>
      <trkpt lat="42.64055" lon="1.67542">
        <ele>2289.293</ele>
        <time>2022-09-17T11:55:40Z</time>
      </trkpt>
      <trkpt lat="42.64054" lon="1.67541">
        <ele>2289.927</ele>
        <time>2022-09-17T11:55:42Z</time>
      </trkpt>
      <trkpt lat="42.64052" lon="1.67539">
        <ele>2291.18</ele>
        <time>2022-09-17T11:55:44Z</time>
      </trkpt>
      <trkpt lat="42.6405" lon="1.67537">
        <ele>2292.247</ele>
        <time>2022-09-17T11:55:46Z</time>
      </trkpt>
      <trkpt lat="42.64048" lon="1.67536">
        <ele>2291.94</ele>
        <time>2022-09-17T11:55:48Z</time>
      </trkpt>
      <trkpt lat="42.64047" lon="1.67534">
        <ele>2292.04</ele>
        <time>2022-09-17T11:55:50Z</time>
      </trkpt>
      <trkpt lat="42.64045" lon="1.67533">
        <ele>2292.471</ele>
        <time>2022-09-17T11:55:52Z</time>
      </trkpt>
      <trkpt lat="42.64044" lon="1.67531">
        <ele>2292.245</ele>
        <time>2022-09-17T11:55:54Z</time>
      </trkpt>
      <trkpt lat="42.64043" lon="1.6753">
        <ele>2291.999</ele>
        <time>2022-09-17T11:55:56Z</time>
      </trkpt>
      <trkpt lat="42.64041" lon="1.67529">
        <ele>2291.712</ele>
        <time>2022-09-17T11:55:58Z</time>
      </trkpt>
      <trkpt lat="42.6404" lon="1.67527">
        <ele>2291.541</ele>
        <time>2022-09-17T11:56:00Z</time>
      </trkpt>
      <trkpt lat="42.64038" lon="1.67525">
        <ele>2291.149</ele>
        <time>2022-09-17T11:56:02Z</time>
      </trkpt>
      <trkpt lat="42.64037" lon="1.67523">
        <ele>2290.347</ele>
        <time>2022-09-17T11:56:04Z</time>
      </trkpt>
      <trkpt lat="42.64035" lon="1.67521">
        <ele>2289.467</ele>
        <time>2022-09-17T11:56:06Z</time>
      </trkpt>
      <trkpt lat="42.64033" lon="1.67519">
        <ele>2288.642</ele>
        <time>2022-09-17T11:56:08Z</time>
      </trkpt>
      <trkpt lat="42.64032" lon="1.67517">
        <ele>2287.379</ele>
        <time>2022-09-17T11:56:10Z</time>
      </trkpt>
      <trkpt lat="42.6403" lon="1.67516">
        <ele>2287.664</ele>
        <time>2022-09-17T11:56:12Z</time>
      </trkpt>
      <trkpt lat="42.64028" lon="1.67514">
        <ele>2288.695</ele>
        <time>2022-09-17T11:56:14Z</time>
      </trkpt>
      <trkpt lat="42.64027" lon="1.67512">
        <ele>2288.247</ele>
        <time>2022-09-17T11:56:16Z</time>
      </trkpt>
      <trkpt lat="42.64026" lon="1.6751">
        <ele>2287.858</ele>
        <time>2022-09-17T11:56:18Z</time>
      </trkpt>
      <trkpt lat="42.64024" lon="1.67508">
        <ele>2288.697</ele>
        <time>2022-09-17T11:56:20Z</time>
      </trkpt>
      <trkpt lat="42.64023" lon="1.67506">
        <ele>2288.279</ele>
        <time>2022-09-17T11:56:22Z</time>
      </trkpt>
      <trkpt lat="42.64021" lon="1.67504">
        <ele>2287.706</ele>
        <time>2022-09-17T11:56:24Z</time>
      </trkpt>
      <trkpt lat="42.64019" lon="1.67503">
        <ele>2287.52</ele>
        <time>2022-09-17T11:56:26Z</time>
      </trkpt>
      <trkpt lat="42.64018" lon="1.67501">
        <ele>2287.096</ele>
        <time>2022-09-17T11:56:28Z</time>
      </trkpt>
      <trkpt lat="42.64017" lon="1.675">
        <ele>2287.773</ele>
        <time>2022-09-17T11:56:30Z</time>
      </trkpt>
      <trkpt lat="42.64015" lon="1.67498">
        <ele>2286.826</ele>
        <time>2022-09-17T11:56:32Z</time>
      </trkpt>
      <trkpt lat="42.64013" lon="1.67497">
        <ele>2287.265</ele>
        <time>2022-09-17T11:56:34Z</time>
      </trkpt>
      <trkpt lat="42.64012" lon="1.67495">
        <ele>2287.212</ele>
        <time>2022-09-17T11:56:36Z</time>
      </trkpt>
      <trkpt lat="42.64011" lon="1.67494">
        <ele>2287.514</ele>
        <time>2022-09-17T11:56:38Z</time>
      </trkpt>
      <trkpt lat="42.64009" lon="1.67492">
        <ele>2287.198</ele>
        <time>2022-09-17T11:56:40Z</time>
      </trkpt>
      <trkpt lat="42.64007" lon="1.67491">
        <ele>2287.18</ele>
        <time>2022-09-17T11:56:42Z</time>
      </trkpt>
      <trkpt lat="42.64006" lon="1.67489">
        <ele>2286.612</ele>
        <time>2022-09-17T11:56:44Z</time>
      </trkpt>
      <trkpt lat="42.64005" lon="1.67488">
        <ele>2286.658</ele>
        <time>2022-09-17T11:56:46Z</time>
      </trkpt>
      <trkpt lat="42.64003" lon="1.67487">
        <ele>2285.81</ele>
        <time>2022-09-17T11:56:48Z</time>
      </trkpt>
      <trkpt lat="42.64002" lon="1.67486">
        <ele>2286.273</ele>
        <time>2022-09-17T11:56:50Z</time>
      </trkpt>
      <trkpt lat="42.64001" lon="1.67484">
        <ele>2286.055</ele>
        <time>2022-09-17T11:56:52Z</time>
      </trkpt>
      <trkpt lat="42.64" lon="1.67483">
        <ele>2286.345</ele>
        <time>2022-09-17T11:56:54Z</time>
      </trkpt>
      <trkpt lat="42.63999" lon="1.6748">
        <ele>2285.672</ele>
        <time>2022-09-17T11:56:56Z</time>
      </trkpt>
      <trkpt lat="42.63998" lon="1.67478">
        <ele>2285.781</ele>
        <time>2022-09-17T11:56:58Z</time>
      </trkpt>
      <trkpt lat="42.63996" lon="1.67477">
        <ele>2284.891</ele>
        <time>2022-09-17T11:57:00Z</time>
      </trkpt>
      <trkpt lat="42.63995" lon="1.67475">
        <ele>2283.968</ele>
        <time>2022-09-17T11:57:02Z</time>
      </trkpt>
      <trkpt lat="42.63994" lon="1.67472">
        <ele>2283.7</ele>
        <time>2022-09-17T11:57:04Z</time>
      </trkpt>
      <trkpt lat="42.63993" lon="1.6747">
        <ele>2283.956</ele>
        <time>2022-09-17T11:57:06Z</time>
      </trkpt>
      <trkpt lat="42.63993" lon="1.67468">
        <ele>2284.06</ele>
        <time>2022-09-17T11:57:08Z</time>
      </trkpt>
      <trkpt lat="42.63993" lon="1.67465">
        <ele>2283.632</ele>
        <time>2022-09-17T11:57:10Z</time>
      </trkpt>
      <trkpt lat="42.63992" lon="1.67463">
        <ele>2283.211</ele>
        <time>2022-09-17T11:57:12Z</time>
      </trkpt>
      <trkpt lat="42.63992" lon="1.67461">
        <ele>2282.942</ele>
        <time>2022-09-17T11:57:14Z</time>
      </trkpt>
      <trkpt lat="42.63992" lon="1.67459">
        <ele>2282.016</ele>
        <time>2022-09-17T11:57:16Z</time>
      </trkpt>
      <trkpt lat="42.63992" lon="1.67456">
        <ele>2283.911</ele>
        <time>2022-09-17T11:57:18Z</time>
      </trkpt>
      <trkpt lat="42.63991" lon="1.67454">
        <ele>2283.754</ele>
        <time>2022-09-17T11:57:20Z</time>
      </trkpt>
      <trkpt lat="42.63991" lon="1.67453">
        <ele>2283.159</ele>
        <time>2022-09-17T11:57:22Z</time>
      </trkpt>
      <trkpt lat="42.63989" lon="1.67451">
        <ele>2283.493</ele>
        <time>2022-09-17T11:57:24Z</time>
      </trkpt>
      <trkpt lat="42.63988" lon="1.6745">
        <ele>2282.478</ele>
        <time>2022-09-17T11:57:26Z</time>
      </trkpt>
      <trkpt lat="42.63986" lon="1.67448">
        <ele>2282.72</ele>
        <time>2022-09-17T11:57:28Z</time>
      </trkpt>
      <trkpt lat="42.63984" lon="1.67445">
        <ele>2282.489</ele>
        <time>2022-09-17T11:57:30Z</time>
      </trkpt>
      <trkpt lat="42.63983" lon="1.67443">
        <ele>2281.988</ele>
        <time>2022-09-17T11:57:32Z</time>
      </trkpt>
      <trkpt lat="42.63981" lon="1.67441">
        <ele>2281.222</ele>
        <time>2022-09-17T11:57:34Z</time>
      </trkpt>
      <trkpt lat="42.6398" lon="1.6744">
        <ele>2280.388</ele>
        <time>2022-09-17T11:57:36Z</time>
      </trkpt>
      <trkpt lat="42.63979" lon="1.67438">
        <ele>2281.108</ele>
        <time>2022-09-17T11:57:38Z</time>
      </trkpt>
      <trkpt lat="42.63978" lon="1.67436">
        <ele>2279.307</ele>
        <time>2022-09-17T11:57:40Z</time>
      </trkpt>
      <trkpt lat="42.63977" lon="1.67435">
        <ele>2278.726</ele>
        <time>2022-09-17T11:57:42Z</time>
      </trkpt>
      <trkpt lat="42.63976" lon="1.67433">
        <ele>2278.162</ele>
        <time>2022-09-17T11:57:44Z</time>
      </trkpt>
      <trkpt lat="42.63975" lon="1.67432">
        <ele>2277.98</ele>
        <time>2022-09-17T11:57:46Z</time>
      </trkpt>
      <trkpt lat="42.63974" lon="1.67432">
        <ele>2278.103</ele>
        <time>2022-09-17T11:57:48Z</time>
      </trkpt>
      <trkpt lat="42.63972" lon="1.6743">
        <ele>2278.109</ele>
        <time>2022-09-17T11:57:50Z</time>
      </trkpt>
      <trkpt lat="42.63971" lon="1.67428">
        <ele>2279.086</ele>
        <time>2022-09-17T11:57:52Z</time>
      </trkpt>
      <trkpt lat="42.6397" lon="1.67425">
        <ele>2279.567</ele>
        <time>2022-09-17T11:57:54Z</time>
      </trkpt>
      <trkpt lat="42.63969" lon="1.67422">
        <ele>2280.244</ele>
        <time>2022-09-17T11:57:56Z</time>
      </trkpt>
      <trkpt lat="42.63967" lon="1.67419">
        <ele>2280.628</ele>
        <time>2022-09-17T11:57:58Z</time>
      </trkpt>
      <trkpt lat="42.63967" lon="1.67418">
        <ele>2280.305</ele>
        <time>2022-09-17T11:58:00Z</time>
      </trkpt>
      <trkpt lat="42.63967" lon="1.67415">
        <ele>2280.579</ele>
        <time>2022-09-17T11:58:02Z</time>
      </trkpt>
      <trkpt lat="42.63967" lon="1.67413">
        <ele>2281.332</ele>
        <time>2022-09-17T11:58:04Z</time>
      </trkpt>
      <trkpt lat="42.63966" lon="1.67411">
        <ele>2281.397</ele>
        <time>2022-09-17T11:58:06Z</time>
      </trkpt>
      <trkpt lat="42.63965" lon="1.67408">
        <ele>2281.158</ele>
        <time>2022-09-17T11:58:08Z</time>
      </trkpt>
      <trkpt lat="42.63964" lon="1.67406">
        <ele>2281.989</ele>
        <time>2022-09-17T11:58:10Z</time>
      </trkpt>
      <trkpt lat="42.63963" lon="1.67404">
        <ele>2281.95</ele>
        <time>2022-09-17T11:58:12Z</time>
      </trkpt>
      <trkpt lat="42.63963" lon="1.67403">
        <ele>2281.64</ele>
        <time>2022-09-17T11:58:14Z</time>
      </trkpt>
      <trkpt lat="42.63962" lon="1.67401">
        <ele>2281.627</ele>
        <time>2022-09-17T11:58:16Z</time>
      </trkpt>
      <trkpt lat="42.63961" lon="1.67399">
        <ele>2281.225</ele>
        <time>2022-09-17T11:58:18Z</time>
      </trkpt>
      <trkpt lat="42.6396" lon="1.67397">
        <ele>2281.06</ele>
        <time>2022-09-17T11:58:20Z</time>
      </trkpt>
      <trkpt lat="42.63958" lon="1.67395">
        <ele>2281.445</ele>
        <time>2022-09-17T11:58:22Z</time>
      </trkpt>
      <trkpt lat="42.63957" lon="1.67393">
        <ele>2280.537</ele>
        <time>2022-09-17T11:58:24Z</time>
      </trkpt>
      <trkpt lat="42.63955" lon="1.67391">
        <ele>2280.033</ele>
        <time>2022-09-17T11:58:26Z</time>
      </trkpt>
      <trkpt lat="42.63954" lon="1.67389">
        <ele>2279.256</ele>
        <time>2022-09-17T11:58:28Z</time>
      </trkpt>
      <trkpt lat="42.63952" lon="1.67385">
        <ele>2279.3</ele>
        <time>2022-09-17T11:58:30Z</time>
      </trkpt>
      <trkpt lat="42.63951" lon="1.67382">
        <ele>2280.024</ele>
        <time>2022-09-17T11:58:32Z</time>
      </trkpt>
      <trkpt lat="42.63949" lon="1.6738">
        <ele>2278.49</ele>
        <time>2022-09-17T11:58:34Z</time>
      </trkpt>
      <trkpt lat="42.63948" lon="1.67378">
        <ele>2279.295</ele>
        <time>2022-09-17T11:58:36Z</time>
      </trkpt>
      <trkpt lat="42.63947" lon="1.67376">
        <ele>2277.988</ele>
        <time>2022-09-17T11:58:38Z</time>
      </trkpt>
      <trkpt lat="42.63946" lon="1.67374">
        <ele>2277.21</ele>
        <time>2022-09-17T11:58:40Z</time>
      </trkpt>
      <trkpt lat="42.63944" lon="1.67373">
        <ele>2276.807</ele>
        <time>2022-09-17T11:58:42Z</time>
      </trkpt>
      <trkpt lat="42.63943" lon="1.67371">
        <ele>2276.757</ele>
        <time>2022-09-17T11:58:44Z</time>
      </trkpt>
      <trkpt lat="42.63942" lon="1.67369">
        <ele>2276.656</ele>
        <time>2022-09-17T11:58:46Z</time>
      </trkpt>
      <trkpt lat="42.6394" lon="1.67366">
        <ele>2275.904</ele>
        <time>2022-09-17T11:58:48Z</time>
      </trkpt>
      <trkpt lat="42.63939" lon="1.67365">
        <ele>2277.084</ele>
        <time>2022-09-17T11:58:50Z</time>
      </trkpt>
      <trkpt lat="42.63938" lon="1.67363">
        <ele>2276.743</ele>
        <time>2022-09-17T11:58:52Z</time>
      </trkpt>
      <trkpt lat="42.63937" lon="1.67361">
        <ele>2277.509</ele>
        <time>2022-09-17T11:58:54Z</time>
      </trkpt>
      <trkpt lat="42.63935" lon="1.67357">
        <ele>2278.55</ele>
        <time>2022-09-17T11:58:56Z</time>
      </trkpt>
      <trkpt lat="42.63934" lon="1.67352">
        <ele>2279.788</ele>
        <time>2022-09-17T11:58:58Z</time>
      </trkpt>
      <trkpt lat="42.63933" lon="1.67349">
        <ele>2280.989</ele>
        <time>2022-09-17T11:59:00Z</time>
      </trkpt>
      <trkpt lat="42.63932" lon="1.67348">
        <ele>2280.654</ele>
        <time>2022-09-17T11:59:02Z</time>
      </trkpt>
      <trkpt lat="42.63931" lon="1.67347">
        <ele>2280.713</ele>
        <time>2022-09-17T11:59:04Z</time>
      </trkpt>
      <trkpt lat="42.63931" lon="1.67345">
        <ele>2282.309</ele>
        <time>2022-09-17T11:59:06Z</time>
      </trkpt>
      <trkpt lat="42.63931" lon="1.67344">
        <ele>2283.251</ele>
        <time>2022-09-17T11:59:08Z</time>
      </trkpt>
      <trkpt lat="42.63931" lon="1.67342">
        <ele>2283.032</ele>
        <time>2022-09-17T11:59:10Z</time>
      </trkpt>
      <trkpt lat="42.63931" lon="1.6734">
        <ele>2283.532</ele>
        <time>2022-09-17T11:59:12Z</time>
      </trkpt>
      <trkpt lat="42.6393" lon="1.67339">
        <ele>2283.631</ele>
        <time>2022-09-17T11:59:14Z</time>
      </trkpt>
      <trkpt lat="42.6393" lon="1.67337">
        <ele>2283.909</ele>
        <time>2022-09-17T11:59:16Z</time>
      </trkpt>
      <trkpt lat="42.63929" lon="1.67336">
        <ele>2283.589</ele>
        <time>2022-09-17T11:59:18Z</time>
      </trkpt>
      <trkpt lat="42.63928" lon="1.67334">
        <ele>2282.906</ele>
        <time>2022-09-17T11:59:20Z</time>
      </trkpt>
      <trkpt lat="42.63928" lon="1.67333">
        <ele>2282.721</ele>
        <time>2022-09-17T11:59:22Z</time>
      </trkpt>
      <trkpt lat="42.63927" lon="1.67332">
        <ele>2282.348</ele>
        <time>2022-09-17T11:59:24Z</time>
      </trkpt>
      <trkpt lat="42.63926" lon="1.67331">
        <ele>2282.12</ele>
        <time>2022-09-17T11:59:26Z</time>
      </trkpt>
      <trkpt lat="42.63926" lon="1.67331">
        <ele>2281.712</ele>
        <time>2022-09-17T11:59:28Z</time>
      </trkpt>
      <trkpt lat="42.63924" lon="1.67332">
        <ele>2282.065</ele>
        <time>2022-09-17T11:59:30Z</time>
      </trkpt>
      <trkpt lat="42.63924" lon="1.67332">
        <ele>2281.896</ele>
        <time>2022-09-17T11:59:32Z</time>
      </trkpt>
      <trkpt lat="42.63924" lon="1.67332">
        <ele>2281.882</ele>
        <time>2022-09-17T11:59:34Z</time>
      </trkpt>
      <trkpt lat="42.63924" lon="1.67332">
        <ele>2281.539</ele>
        <time>2022-09-17T11:59:36Z</time>
      </trkpt>
      <trkpt lat="42.63924" lon="1.67332">
        <ele>2281.727</ele>
        <time>2022-09-17T11:59:38Z</time>
      </trkpt>
      <trkpt lat="42.63923" lon="1.67332">
        <ele>2281.494</ele>
        <time>2022-09-17T11:59:40Z</time>
      </trkpt>
      <trkpt lat="42.63924" lon="1.67332">
        <ele>2281.421</ele>
        <time>2022-09-17T11:59:42Z</time>
      </trkpt>
      <trkpt lat="42.63924" lon="1.67332">
        <ele>2281.392</ele>
        <time>2022-09-17T11:59:44Z</time>
      </trkpt>
      <trkpt lat="42.63923" lon="1.67332">
        <ele>2281.334</ele>
        <time>2022-09-17T11:59:46Z</time>
      </trkpt>
      <trkpt lat="42.63923" lon="1.67332">
        <ele>2281.305</ele>
        <time>2022-09-17T11:59:48Z</time>
      </trkpt>
      <trkpt lat="42.63923" lon="1.67332">
        <ele>2281.292</ele>
        <time>2022-09-17T11:59:50Z</time>
      </trkpt>
      <trkpt lat="42.63923" lon="1.67332">
        <ele>2281.264</ele>
        <time>2022-09-17T11:59:52Z</time>
      </trkpt>
      <trkpt lat="42.63923" lon="1.67332">
        <ele>2281.234</ele>
        <time>2022-09-17T11:59:54Z</time>
      </trkpt>
      <trkpt lat="42.63923" lon="1.67332">
        <ele>2281.211</ele>
        <time>2022-09-17T11:59:56Z</time>
      </trkpt>
      <trkpt lat="42.63923" lon="1.67332">
        <ele>2281.191</ele>
        <time>2022-09-17T11:59:58Z</time>
      </trkpt>
      <trkpt lat="42.63923" lon="1.67332">
        <ele>2281.179</ele>
        <time>2022-09-17T12:00:00Z</time>
      </trkpt>
      <trkpt lat="42.63923" lon="1.67332">
        <ele>2281.136</ele>
        <time>2022-09-17T12:00:02Z</time>
      </trkpt>
      <trkpt lat="42.63923" lon="1.67332">
        <ele>2281.126</ele>
        <time>2022-09-17T12:00:04Z</time>
      </trkpt>
      <trkpt lat="42.63923" lon="1.67332">
        <ele>2281.113</ele>
        <time>2022-09-17T12:00:06Z</time>
      </trkpt>
      <trkpt lat="42.63923" lon="1.67332">
        <ele>2281.089</ele>
        <time>2022-09-17T12:00:08Z</time>
      </trkpt>
      <trkpt lat="42.63923" lon="1.67332">
        <ele>2281.06</ele>
        <time>2022-09-17T12:00:10Z</time>
      </trkpt>
      <trkpt lat="42.63923" lon="1.67332">
        <ele>2281.044</ele>
        <time>2022-09-17T12:00:12Z</time>
      </trkpt>
      <trkpt lat="42.63923" lon="1.67332">
        <ele>2281.034</ele>
        <time>2022-09-17T12:00:14Z</time>
      </trkpt>
      <trkpt lat="42.63923" lon="1.67332">
        <ele>2280.993</ele>
        <time>2022-09-17T12:00:16Z</time>
      </trkpt>
      <trkpt lat="42.63923" lon="1.67332">
        <ele>2280.944</ele>
        <time>2022-09-17T12:00:18Z</time>
      </trkpt>
      <trkpt lat="42.63923" lon="1.67332">
        <ele>2280.897</ele>
        <time>2022-09-17T12:00:20Z</time>
      </trkpt>
      <trkpt lat="42.63923" lon="1.6733">
        <ele>2281.281</ele>
        <time>2022-09-17T12:00:22Z</time>
      </trkpt>
      <trkpt lat="42.63922" lon="1.67328">
        <ele>2282.874</ele>
        <time>2022-09-17T12:00:24Z</time>
      </trkpt>
      <trkpt lat="42.63921" lon="1.67327">
        <ele>2282.743</ele>
        <time>2022-09-17T12:00:26Z</time>
      </trkpt>
      <trkpt lat="42.63919" lon="1.67327">
        <ele>2283.31</ele>
        <time>2022-09-17T12:00:28Z</time>
      </trkpt>
      <trkpt lat="42.63918" lon="1.67325">
        <ele>2282.879</ele>
        <time>2022-09-17T12:00:30Z</time>
      </trkpt>
      <trkpt lat="42.63918" lon="1.67324">
        <ele>2282.005</ele>
        <time>2022-09-17T12:00:32Z</time>
      </trkpt>
      <trkpt lat="42.63917" lon="1.67321">
        <ele>2280.377</ele>
        <time>2022-09-17T12:00:34Z</time>
      </trkpt>
      <trkpt lat="42.63917" lon="1.67319">
        <ele>2280.624</ele>
        <time>2022-09-17T12:00:36Z</time>
      </trkpt>
      <trkpt lat="42.63917" lon="1.67316">
        <ele>2280.54</ele>
        <time>2022-09-17T12:00:38Z</time>
      </trkpt>
      <trkpt lat="42.63915" lon="1.67314">
        <ele>2280.758</ele>
        <time>2022-09-17T12:00:40Z</time>
      </trkpt>
      <trkpt lat="42.63915" lon="1.67312">
        <ele>2281.298</ele>
        <time>2022-09-17T12:00:42Z</time>
      </trkpt>
      <trkpt lat="42.63914" lon="1.6731">
        <ele>2281.363</ele>
        <time>2022-09-17T12:00:44Z</time>
      </trkpt>
      <trkpt lat="42.63914" lon="1.67307">
        <ele>2282.715</ele>
        <time>2022-09-17T12:00:46Z</time>
      </trkpt>
      <trkpt lat="42.63913" lon="1.67306">
        <ele>2282.241</ele>
        <time>2022-09-17T12:00:48Z</time>
      </trkpt>
      <trkpt lat="42.63912" lon="1.67305">
        <ele>2283.751</ele>
        <time>2022-09-17T12:00:50Z</time>
      </trkpt>
      <trkpt lat="42.63911" lon="1.67304">
        <ele>2281.861</ele>
        <time>2022-09-17T12:00:52Z</time>
      </trkpt>
      <trkpt lat="42.6391" lon="1.67302">
        <ele>2281.384</ele>
        <time>2022-09-17T12:00:54Z</time>
      </trkpt>
      <trkpt lat="42.6391" lon="1.673">
        <ele>2281.195</ele>
        <time>2022-09-17T12:00:56Z</time>
      </trkpt>
      <trkpt lat="42.63909" lon="1.67298">
        <ele>2280.697</ele>
        <time>2022-09-17T12:00:58Z</time>
      </trkpt>
      <trkpt lat="42.63908" lon="1.67298">
        <ele>2279.481</ele>
        <time>2022-09-17T12:01:00Z</time>
      </trkpt>
      <trkpt lat="42.63909" lon="1.67301">
        <ele>2278.56</ele>
        <time>2022-09-17T12:01:02Z</time>
      </trkpt>
      <trkpt lat="42.63909" lon="1.673">
        <ele>2278.913</ele>
        <time>2022-09-17T12:01:04Z</time>
      </trkpt>
      <trkpt lat="42.63908" lon="1.67298">
        <ele>2278.998</ele>
        <time>2022-09-17T12:01:06Z</time>
      </trkpt>
      <trkpt lat="42.63908" lon="1.67297">
        <ele>2278.65</ele>
        <time>2022-09-17T12:01:08Z</time>
      </trkpt>
      <trkpt lat="42.63908" lon="1.67297">
        <ele>2278.614</ele>
        <time>2022-09-17T12:01:10Z</time>
      </trkpt>
      <trkpt lat="42.63908" lon="1.67295">
        <ele>2278.884</ele>
        <time>2022-09-17T12:01:12Z</time>
      </trkpt>
      <trkpt lat="42.63906" lon="1.67294">
        <ele>2278.566</ele>
        <time>2022-09-17T12:01:14Z</time>
      </trkpt>
      <trkpt lat="42.63905" lon="1.67293">
        <ele>2277.092</ele>
        <time>2022-09-17T12:01:16Z</time>
      </trkpt>
      <trkpt lat="42.63904" lon="1.67291">
        <ele>2275.639</ele>
        <time>2022-09-17T12:01:18Z</time>
      </trkpt>
      <trkpt lat="42.63903" lon="1.67289">
        <ele>2276.096</ele>
        <time>2022-09-17T12:01:20Z</time>
      </trkpt>
      <trkpt lat="42.63902" lon="1.67286">
        <ele>2276.939</ele>
        <time>2022-09-17T12:01:22Z</time>
      </trkpt>
      <trkpt lat="42.639" lon="1.67284">
        <ele>2277.427</ele>
        <time>2022-09-17T12:01:24Z</time>
      </trkpt>
      <trkpt lat="42.63899" lon="1.67282">
        <ele>2276.664</ele>
        <time>2022-09-17T12:01:26Z</time>
      </trkpt>
      <trkpt lat="42.63897" lon="1.67279">
        <ele>2276.886</ele>
        <time>2022-09-17T12:01:28Z</time>
      </trkpt>
      <trkpt lat="42.63896" lon="1.67276">
        <ele>2277.205</ele>
        <time>2022-09-17T12:01:30Z</time>
      </trkpt>
      <trkpt lat="42.63895" lon="1.67273">
        <ele>2277.317</ele>
        <time>2022-09-17T12:01:32Z</time>
      </trkpt>
      <trkpt lat="42.63894" lon="1.6727">
        <ele>2276.806</ele>
        <time>2022-09-17T12:01:34Z</time>
      </trkpt>
      <trkpt lat="42.63893" lon="1.67267">
        <ele>2276.561</ele>
        <time>2022-09-17T12:01:36Z</time>
      </trkpt>
      <trkpt lat="42.63892" lon="1.67265">
        <ele>2276.902</ele>
        <time>2022-09-17T12:01:38Z</time>
      </trkpt>
      <trkpt lat="42.63891" lon="1.67263">
        <ele>2277.566</ele>
        <time>2022-09-17T12:01:40Z</time>
      </trkpt>
      <trkpt lat="42.63889" lon="1.67261">
        <ele>2277.926</ele>
        <time>2022-09-17T12:01:42Z</time>
      </trkpt>
      <trkpt lat="42.63888" lon="1.67259">
        <ele>2278.047</ele>
        <time>2022-09-17T12:01:44Z</time>
      </trkpt>
      <trkpt lat="42.63887" lon="1.67257">
        <ele>2277.216</ele>
        <time>2022-09-17T12:01:46Z</time>
      </trkpt>
      <trkpt lat="42.63886" lon="1.67255">
        <ele>2278.232</ele>
        <time>2022-09-17T12:01:48Z</time>
      </trkpt>
      <trkpt lat="42.63885" lon="1.67253">
        <ele>2279.599</ele>
        <time>2022-09-17T12:01:50Z</time>
      </trkpt>
      <trkpt lat="42.63884" lon="1.67251">
        <ele>2280.503</ele>
        <time>2022-09-17T12:01:52Z</time>
      </trkpt>
      <trkpt lat="42.63882" lon="1.67248">
        <ele>2281.678</ele>
        <time>2022-09-17T12:01:54Z</time>
      </trkpt>
      <trkpt lat="42.63881" lon="1.67247">
        <ele>2282.457</ele>
        <time>2022-09-17T12:01:56Z</time>
      </trkpt>
      <trkpt lat="42.63879" lon="1.67246">
        <ele>2282.952</ele>
        <time>2022-09-17T12:01:58Z</time>
      </trkpt>
      <trkpt lat="42.63877" lon="1.67244">
        <ele>2283.212</ele>
        <time>2022-09-17T12:02:00Z</time>
      </trkpt>
      <trkpt lat="42.63876" lon="1.67243">
        <ele>2283.271</ele>
        <time>2022-09-17T12:02:02Z</time>
      </trkpt>
      <trkpt lat="42.63875" lon="1.67241">
        <ele>2282.557</ele>
        <time>2022-09-17T12:02:04Z</time>
      </trkpt>
      <trkpt lat="42.63873" lon="1.67238">
        <ele>2281.287</ele>
        <time>2022-09-17T12:02:06Z</time>
      </trkpt>
      <trkpt lat="42.63873" lon="1.67236">
        <ele>2281.744</ele>
        <time>2022-09-17T12:02:08Z</time>
      </trkpt>
      <trkpt lat="42.63871" lon="1.67233">
        <ele>2281.583</ele>
        <time>2022-09-17T12:02:10Z</time>
      </trkpt>
      <trkpt lat="42.6387" lon="1.6723">
        <ele>2281.24</ele>
        <time>2022-09-17T12:02:12Z</time>
      </trkpt>
      <trkpt lat="42.63869" lon="1.67228">
        <ele>2281.813</ele>
        <time>2022-09-17T12:02:14Z</time>
      </trkpt>
      <trkpt lat="42.63868" lon="1.67225">
        <ele>2281.226</ele>
        <time>2022-09-17T12:02:16Z</time>
      </trkpt>
      <trkpt lat="42.63867" lon="1.67223">
        <ele>2281.213</ele>
        <time>2022-09-17T12:02:18Z</time>
      </trkpt>
      <trkpt lat="42.63866" lon="1.67221">
        <ele>2280.055</ele>
        <time>2022-09-17T12:02:20Z</time>
      </trkpt>
      <trkpt lat="42.63865" lon="1.67219">
        <ele>2280.035</ele>
        <time>2022-09-17T12:02:22Z</time>
      </trkpt>
      <trkpt lat="42.63863" lon="1.67217">
        <ele>2279.269</ele>
        <time>2022-09-17T12:02:24Z</time>
      </trkpt>
      <trkpt lat="42.63862" lon="1.67215">
        <ele>2277.859</ele>
        <time>2022-09-17T12:02:26Z</time>
      </trkpt>
      <trkpt lat="42.63861" lon="1.67213">
        <ele>2276.781</ele>
        <time>2022-09-17T12:02:28Z</time>
      </trkpt>
      <trkpt lat="42.6386" lon="1.67211">
        <ele>2276.34</ele>
        <time>2022-09-17T12:02:30Z</time>
      </trkpt>
      <trkpt lat="42.63858" lon="1.67209">
        <ele>2276.25</ele>
        <time>2022-09-17T12:02:32Z</time>
      </trkpt>
      <trkpt lat="42.63856" lon="1.67208">
        <ele>2275.745</ele>
        <time>2022-09-17T12:02:34Z</time>
      </trkpt>
      <trkpt lat="42.63855" lon="1.67207">
        <ele>2275.494</ele>
        <time>2022-09-17T12:02:36Z</time>
      </trkpt>
      <trkpt lat="42.63854" lon="1.67205">
        <ele>2275.361</ele>
        <time>2022-09-17T12:02:38Z</time>
      </trkpt>
      <trkpt lat="42.63852" lon="1.67203">
        <ele>2275.62</ele>
        <time>2022-09-17T12:02:40Z</time>
      </trkpt>
      <trkpt lat="42.6385" lon="1.67202">
        <ele>2275.865</ele>
        <time>2022-09-17T12:02:42Z</time>
      </trkpt>
      <trkpt lat="42.63849" lon="1.672">
        <ele>2275.587</ele>
        <time>2022-09-17T12:02:44Z</time>
      </trkpt>
      <trkpt lat="42.63847" lon="1.67199">
        <ele>2274.504</ele>
        <time>2022-09-17T12:02:46Z</time>
      </trkpt>
      <trkpt lat="42.63846" lon="1.67197">
        <ele>2275.269</ele>
        <time>2022-09-17T12:02:48Z</time>
      </trkpt>
      <trkpt lat="42.63845" lon="1.67196">
        <ele>2274.297</ele>
        <time>2022-09-17T12:02:50Z</time>
      </trkpt>
      <trkpt lat="42.63843" lon="1.67195">
        <ele>2274.309</ele>
        <time>2022-09-17T12:02:52Z</time>
      </trkpt>
      <trkpt lat="42.63841" lon="1.67193">
        <ele>2273.704</ele>
        <time>2022-09-17T12:02:54Z</time>
      </trkpt>
      <trkpt lat="42.6384" lon="1.67192">
        <ele>2273.729</ele>
        <time>2022-09-17T12:02:56Z</time>
      </trkpt>
      <trkpt lat="42.63838" lon="1.6719">
        <ele>2272.856</ele>
        <time>2022-09-17T12:02:58Z</time>
      </trkpt>
      <trkpt lat="42.63836" lon="1.67188">
        <ele>2271.815</ele>
        <time>2022-09-17T12:03:00Z</time>
      </trkpt>
      <trkpt lat="42.63835" lon="1.67186">
        <ele>2272.001</ele>
        <time>2022-09-17T12:03:02Z</time>
      </trkpt>
      <trkpt lat="42.63834" lon="1.67184">
        <ele>2271.94</ele>
        <time>2022-09-17T12:03:04Z</time>
      </trkpt>
      <trkpt lat="42.63832" lon="1.67181">
        <ele>2272.445</ele>
        <time>2022-09-17T12:03:06Z</time>
      </trkpt>
      <trkpt lat="42.63831" lon="1.67179">
        <ele>2272.841</ele>
        <time>2022-09-17T12:03:08Z</time>
      </trkpt>
      <trkpt lat="42.6383" lon="1.67177">
        <ele>2272.364</ele>
        <time>2022-09-17T12:03:10Z</time>
      </trkpt>
      <trkpt lat="42.63829" lon="1.67175">
        <ele>2272.311</ele>
        <time>2022-09-17T12:03:12Z</time>
      </trkpt>
      <trkpt lat="42.63828" lon="1.67172">
        <ele>2272.354</ele>
        <time>2022-09-17T12:03:14Z</time>
      </trkpt>
      <trkpt lat="42.63827" lon="1.67171">
        <ele>2272.11</ele>
        <time>2022-09-17T12:03:16Z</time>
      </trkpt>
      <trkpt lat="42.63827" lon="1.67169">
        <ele>2271.762</ele>
        <time>2022-09-17T12:03:18Z</time>
      </trkpt>
      <trkpt lat="42.63826" lon="1.67168">
        <ele>2271.966</ele>
        <time>2022-09-17T12:03:20Z</time>
      </trkpt>
      <trkpt lat="42.63825" lon="1.67166">
        <ele>2271.019</ele>
        <time>2022-09-17T12:03:22Z</time>
      </trkpt>
      <trkpt lat="42.63824" lon="1.67164">
        <ele>2270.739</ele>
        <time>2022-09-17T12:03:24Z</time>
      </trkpt>
      <trkpt lat="42.63824" lon="1.67162">
        <ele>2270.158</ele>
        <time>2022-09-17T12:03:26Z</time>
      </trkpt>
      <trkpt lat="42.63822" lon="1.67159">
        <ele>2269.299</ele>
        <time>2022-09-17T12:03:28Z</time>
      </trkpt>
      <trkpt lat="42.63821" lon="1.67157">
        <ele>2268.86</ele>
        <time>2022-09-17T12:03:30Z</time>
      </trkpt>
      <trkpt lat="42.63819" lon="1.67156">
        <ele>2268.176</ele>
        <time>2022-09-17T12:03:32Z</time>
      </trkpt>
      <trkpt lat="42.63818" lon="1.67154">
        <ele>2268.011</ele>
        <time>2022-09-17T12:03:34Z</time>
      </trkpt>
      <trkpt lat="42.63817" lon="1.67152">
        <ele>2268.311</ele>
        <time>2022-09-17T12:03:36Z</time>
      </trkpt>
      <trkpt lat="42.63816" lon="1.67151">
        <ele>2268.317</ele>
        <time>2022-09-17T12:03:38Z</time>
      </trkpt>
      <trkpt lat="42.63815" lon="1.67149">
        <ele>2267.997</ele>
        <time>2022-09-17T12:03:40Z</time>
      </trkpt>
      <trkpt lat="42.63813" lon="1.67149">
        <ele>2268.064</ele>
        <time>2022-09-17T12:03:42Z</time>
      </trkpt>
      <trkpt lat="42.63812" lon="1.67147">
        <ele>2267.678</ele>
        <time>2022-09-17T12:03:44Z</time>
      </trkpt>
      <trkpt lat="42.63812" lon="1.67146">
        <ele>2266.83</ele>
        <time>2022-09-17T12:03:46Z</time>
      </trkpt>
      <trkpt lat="42.63812" lon="1.67144">
        <ele>2265.155</ele>
        <time>2022-09-17T12:03:48Z</time>
      </trkpt>
      <trkpt lat="42.63811" lon="1.67143">
        <ele>2264.947</ele>
        <time>2022-09-17T12:03:50Z</time>
      </trkpt>
      <trkpt lat="42.6381" lon="1.67141">
        <ele>2264.316</ele>
        <time>2022-09-17T12:03:52Z</time>
      </trkpt>
      <trkpt lat="42.63809" lon="1.6714">
        <ele>2264.165</ele>
        <time>2022-09-17T12:03:54Z</time>
      </trkpt>
      <trkpt lat="42.63807" lon="1.67138">
        <ele>2262.9</ele>
        <time>2022-09-17T12:03:56Z</time>
      </trkpt>
      <trkpt lat="42.63806" lon="1.67136">
        <ele>2262.098</ele>
        <time>2022-09-17T12:03:58Z</time>
      </trkpt>
      <trkpt lat="42.63805" lon="1.67133">
        <ele>2261.674</ele>
        <time>2022-09-17T12:04:00Z</time>
      </trkpt>
      <trkpt lat="42.63804" lon="1.67131">
        <ele>2261.112</ele>
        <time>2022-09-17T12:04:02Z</time>
      </trkpt>
      <trkpt lat="42.63803" lon="1.67129">
        <ele>2260.264</ele>
        <time>2022-09-17T12:04:04Z</time>
      </trkpt>
      <trkpt lat="42.63802" lon="1.67127">
        <ele>2259.895</ele>
        <time>2022-09-17T12:04:06Z</time>
      </trkpt>
      <trkpt lat="42.63801" lon="1.67126">
        <ele>2259.773</ele>
        <time>2022-09-17T12:04:08Z</time>
      </trkpt>
      <trkpt lat="42.638" lon="1.67124">
        <ele>2259.936</ele>
        <time>2022-09-17T12:04:10Z</time>
      </trkpt>
      <trkpt lat="42.63799" lon="1.67123">
        <ele>2259.804</ele>
        <time>2022-09-17T12:04:12Z</time>
      </trkpt>
      <trkpt lat="42.63798" lon="1.67121">
        <ele>2259.451</ele>
        <time>2022-09-17T12:04:14Z</time>
      </trkpt>
      <trkpt lat="42.63796" lon="1.6712">
        <ele>2259.34</ele>
        <time>2022-09-17T12:04:16Z</time>
      </trkpt>
      <trkpt lat="42.63796" lon="1.67118">
        <ele>2259.285</ele>
        <time>2022-09-17T12:04:18Z</time>
      </trkpt>
      <trkpt lat="42.63795" lon="1.67116">
        <ele>2259.078</ele>
        <time>2022-09-17T12:04:20Z</time>
      </trkpt>
      <trkpt lat="42.63795" lon="1.67114">
        <ele>2258.925</ele>
        <time>2022-09-17T12:04:22Z</time>
      </trkpt>
      <trkpt lat="42.63795" lon="1.67113">
        <ele>2255.974</ele>
        <time>2022-09-17T12:04:24Z</time>
      </trkpt>
      <trkpt lat="42.63796" lon="1.67112">
        <ele>2256.083</ele>
        <time>2022-09-17T12:04:26Z</time>
      </trkpt>
      <trkpt lat="42.63795" lon="1.67111">
        <ele>2255.437</ele>
        <time>2022-09-17T12:04:28Z</time>
      </trkpt>
      <trkpt lat="42.63794" lon="1.67109">
        <ele>2256.054</ele>
        <time>2022-09-17T12:04:30Z</time>
      </trkpt>
      <trkpt lat="42.63794" lon="1.67107">
        <ele>2254.706</ele>
        <time>2022-09-17T12:04:32Z</time>
      </trkpt>
      <trkpt lat="42.63794" lon="1.67106">
        <ele>2254.061</ele>
        <time>2022-09-17T12:04:34Z</time>
      </trkpt>
      <trkpt lat="42.63793" lon="1.67104">
        <ele>2253.793</ele>
        <time>2022-09-17T12:04:36Z</time>
      </trkpt>
      <trkpt lat="42.63792" lon="1.67101">
        <ele>2253.635</ele>
        <time>2022-09-17T12:04:38Z</time>
      </trkpt>
      <trkpt lat="42.63791" lon="1.67099">
        <ele>2252.975</ele>
        <time>2022-09-17T12:04:40Z</time>
      </trkpt>
      <trkpt lat="42.6379" lon="1.67097">
        <ele>2252.513</ele>
        <time>2022-09-17T12:04:42Z</time>
      </trkpt>
      <trkpt lat="42.63789" lon="1.67096">
        <ele>2250.991</ele>
        <time>2022-09-17T12:04:44Z</time>
      </trkpt>
      <trkpt lat="42.63788" lon="1.67094">
        <ele>2250.577</ele>
        <time>2022-09-17T12:04:46Z</time>
      </trkpt>
      <trkpt lat="42.63786" lon="1.67093">
        <ele>2249.491</ele>
        <time>2022-09-17T12:04:48Z</time>
      </trkpt>
      <trkpt lat="42.63785" lon="1.67091">
        <ele>2248.739</ele>
        <time>2022-09-17T12:04:50Z</time>
      </trkpt>
      <trkpt lat="42.63784" lon="1.67089">
        <ele>2247.324</ele>
        <time>2022-09-17T12:04:52Z</time>
      </trkpt>
      <trkpt lat="42.63783" lon="1.67088">
        <ele>2247.51</ele>
        <time>2022-09-17T12:04:54Z</time>
      </trkpt>
      <trkpt lat="42.63781" lon="1.67087">
        <ele>2246.991</ele>
        <time>2022-09-17T12:04:56Z</time>
      </trkpt>
      <trkpt lat="42.63779" lon="1.67085">
        <ele>2245.701</ele>
        <time>2022-09-17T12:04:58Z</time>
      </trkpt>
      <trkpt lat="42.63777" lon="1.67084">
        <ele>2245.095</ele>
        <time>2022-09-17T12:05:00Z</time>
      </trkpt>
      <trkpt lat="42.63776" lon="1.67082">
        <ele>2245.174</ele>
        <time>2022-09-17T12:05:02Z</time>
      </trkpt>
      <trkpt lat="42.63775" lon="1.67079">
        <ele>2244.182</ele>
        <time>2022-09-17T12:05:04Z</time>
      </trkpt>
      <trkpt lat="42.63773" lon="1.67078">
        <ele>2243.781</ele>
        <time>2022-09-17T12:05:06Z</time>
      </trkpt>
      <trkpt lat="42.63772" lon="1.67076">
        <ele>2243.825</ele>
        <time>2022-09-17T12:05:08Z</time>
      </trkpt>
      <trkpt lat="42.63772" lon="1.67074">
        <ele>2243.968</ele>
        <time>2022-09-17T12:05:10Z</time>
      </trkpt>
      <trkpt lat="42.63771" lon="1.67072">
        <ele>2243.972</ele>
        <time>2022-09-17T12:05:12Z</time>
      </trkpt>
      <trkpt lat="42.6377" lon="1.6707">
        <ele>2243.837</ele>
        <time>2022-09-17T12:05:14Z</time>
      </trkpt>
      <trkpt lat="42.63769" lon="1.67068">
        <ele>2243.543</ele>
        <time>2022-09-17T12:05:16Z</time>
      </trkpt>
      <trkpt lat="42.63768" lon="1.67066">
        <ele>2242.482</ele>
        <time>2022-09-17T12:05:18Z</time>
      </trkpt>
      <trkpt lat="42.63767" lon="1.67064">
        <ele>2242.501</ele>
        <time>2022-09-17T12:05:20Z</time>
      </trkpt>
      <trkpt lat="42.63766" lon="1.67062">
        <ele>2243.623</ele>
        <time>2022-09-17T12:05:22Z</time>
      </trkpt>
      <trkpt lat="42.63765" lon="1.6706">
        <ele>2244.504</ele>
        <time>2022-09-17T12:05:24Z</time>
      </trkpt>
      <trkpt lat="42.63765" lon="1.67058">
        <ele>2242.331</ele>
        <time>2022-09-17T12:05:26Z</time>
      </trkpt>
      <trkpt lat="42.63765" lon="1.67057">
        <ele>2243.65</ele>
        <time>2022-09-17T12:05:28Z</time>
      </trkpt>
      <trkpt lat="42.63764" lon="1.67055">
        <ele>2244.959</ele>
        <time>2022-09-17T12:05:30Z</time>
      </trkpt>
      <trkpt lat="42.63764" lon="1.67054">
        <ele>2245.584</ele>
        <time>2022-09-17T12:05:32Z</time>
      </trkpt>
      <trkpt lat="42.63763" lon="1.67053">
        <ele>2245.093</ele>
        <time>2022-09-17T12:05:34Z</time>
      </trkpt>
      <trkpt lat="42.63763" lon="1.67052">
        <ele>2244.2</ele>
        <time>2022-09-17T12:05:36Z</time>
      </trkpt>
      <trkpt lat="42.63764" lon="1.67051">
        <ele>2243.865</ele>
        <time>2022-09-17T12:05:38Z</time>
      </trkpt>
      <trkpt lat="42.63764" lon="1.67049">
        <ele>2244.105</ele>
        <time>2022-09-17T12:05:40Z</time>
      </trkpt>
      <trkpt lat="42.63763" lon="1.67047">
        <ele>2243.221</ele>
        <time>2022-09-17T12:05:42Z</time>
      </trkpt>
      <trkpt lat="42.63762" lon="1.67045">
        <ele>2242.521</ele>
        <time>2022-09-17T12:05:44Z</time>
      </trkpt>
      <trkpt lat="42.63761" lon="1.67044">
        <ele>2241.507</ele>
        <time>2022-09-17T12:05:46Z</time>
      </trkpt>
      <trkpt lat="42.6376" lon="1.67042">
        <ele>2241.451</ele>
        <time>2022-09-17T12:05:48Z</time>
      </trkpt>
      <trkpt lat="42.6376" lon="1.67041">
        <ele>2241.325</ele>
        <time>2022-09-17T12:05:50Z</time>
      </trkpt>
      <trkpt lat="42.63759" lon="1.6704">
        <ele>2241.606</ele>
        <time>2022-09-17T12:05:52Z</time>
      </trkpt>
      <trkpt lat="42.63758" lon="1.6704">
        <ele>2241.581</ele>
        <time>2022-09-17T12:05:54Z</time>
      </trkpt>
      <trkpt lat="42.63758" lon="1.67038">
        <ele>2240.766</ele>
        <time>2022-09-17T12:05:56Z</time>
      </trkpt>
      <trkpt lat="42.63757" lon="1.67037">
        <ele>2240.547</ele>
        <time>2022-09-17T12:05:58Z</time>
      </trkpt>
      <trkpt lat="42.63756" lon="1.67036">
        <ele>2239.832</ele>
        <time>2022-09-17T12:06:00Z</time>
      </trkpt>
      <trkpt lat="42.63754" lon="1.67035">
        <ele>2240.486</ele>
        <time>2022-09-17T12:06:02Z</time>
      </trkpt>
      <trkpt lat="42.63753" lon="1.67034">
        <ele>2239.608</ele>
        <time>2022-09-17T12:06:04Z</time>
      </trkpt>
      <trkpt lat="42.63752" lon="1.67034">
        <ele>2238.511</ele>
        <time>2022-09-17T12:06:06Z</time>
      </trkpt>
      <trkpt lat="42.6375" lon="1.67033">
        <ele>2238.023</ele>
        <time>2022-09-17T12:06:08Z</time>
      </trkpt>
      <trkpt lat="42.63749" lon="1.67032">
        <ele>2237.398</ele>
        <time>2022-09-17T12:06:10Z</time>
      </trkpt>
      <trkpt lat="42.63748" lon="1.6703">
        <ele>2237.215</ele>
        <time>2022-09-17T12:06:12Z</time>
      </trkpt>
      <trkpt lat="42.63748" lon="1.67028">
        <ele>2236.621</ele>
        <time>2022-09-17T12:06:14Z</time>
      </trkpt>
      <trkpt lat="42.63747" lon="1.67026">
        <ele>2235.903</ele>
        <time>2022-09-17T12:06:16Z</time>
      </trkpt>
      <trkpt lat="42.63746" lon="1.67025">
        <ele>2236.399</ele>
        <time>2022-09-17T12:06:18Z</time>
      </trkpt>
      <trkpt lat="42.63745" lon="1.67025">
        <ele>2235.633</ele>
        <time>2022-09-17T12:06:20Z</time>
      </trkpt>
      <trkpt lat="42.63743" lon="1.67024">
        <ele>2235.338</ele>
        <time>2022-09-17T12:06:22Z</time>
      </trkpt>
      <trkpt lat="42.63742" lon="1.67023">
        <ele>2235.3</ele>
        <time>2022-09-17T12:06:24Z</time>
      </trkpt>
      <trkpt lat="42.63741" lon="1.67021">
        <ele>2235.096</ele>
        <time>2022-09-17T12:06:26Z</time>
      </trkpt>
      <trkpt lat="42.6374" lon="1.6702">
        <ele>2235.935</ele>
        <time>2022-09-17T12:06:28Z</time>
      </trkpt>
      <trkpt lat="42.6374" lon="1.67018">
        <ele>2236.864</ele>
        <time>2022-09-17T12:06:30Z</time>
      </trkpt>
      <trkpt lat="42.63738" lon="1.67017">
        <ele>2236.784</ele>
        <time>2022-09-17T12:06:32Z</time>
      </trkpt>
      <trkpt lat="42.63737" lon="1.67016">
        <ele>2236.376</ele>
        <time>2022-09-17T12:06:34Z</time>
      </trkpt>
      <trkpt lat="42.63736" lon="1.67016">
        <ele>2236.563</ele>
        <time>2022-09-17T12:06:36Z</time>
      </trkpt>
      <trkpt lat="42.63734" lon="1.67017">
        <ele>2237.159</ele>
        <time>2022-09-17T12:06:38Z</time>
      </trkpt>
      <trkpt lat="42.63733" lon="1.67017">
        <ele>2237.136</ele>
        <time>2022-09-17T12:06:40Z</time>
      </trkpt>
      <trkpt lat="42.63732" lon="1.67017">
        <ele>2236.338</ele>
        <time>2022-09-17T12:06:42Z</time>
      </trkpt>
      <trkpt lat="42.63732" lon="1.67017">
        <ele>2235.702</ele>
        <time>2022-09-17T12:06:44Z</time>
      </trkpt>
      <trkpt lat="42.63731" lon="1.67017">
        <ele>2235.215</ele>
        <time>2022-09-17T12:06:46Z</time>
      </trkpt>
      <trkpt lat="42.63729" lon="1.67016">
        <ele>2234.583</ele>
        <time>2022-09-17T12:06:48Z</time>
      </trkpt>
      <trkpt lat="42.63728" lon="1.67016">
        <ele>2233.881</ele>
        <time>2022-09-17T12:06:50Z</time>
      </trkpt>
      <trkpt lat="42.63728" lon="1.67015">
        <ele>2232.903</ele>
        <time>2022-09-17T12:06:52Z</time>
      </trkpt>
      <trkpt lat="42.63727" lon="1.67014">
        <ele>2232.729</ele>
        <time>2022-09-17T12:06:54Z</time>
      </trkpt>
      <trkpt lat="42.63725" lon="1.67013">
        <ele>2232.021</ele>
        <time>2022-09-17T12:06:56Z</time>
      </trkpt>
      <trkpt lat="42.63724" lon="1.67012">
        <ele>2232.213</ele>
        <time>2022-09-17T12:06:58Z</time>
      </trkpt>
      <trkpt lat="42.63723" lon="1.67011">
        <ele>2233.516</ele>
        <time>2022-09-17T12:07:00Z</time>
      </trkpt>
      <trkpt lat="42.63722" lon="1.6701">
        <ele>2233.081</ele>
        <time>2022-09-17T12:07:02Z</time>
      </trkpt>
      <trkpt lat="42.63722" lon="1.67009">
        <ele>2233.351</ele>
        <time>2022-09-17T12:07:04Z</time>
      </trkpt>
      <trkpt lat="42.63721" lon="1.67008">
        <ele>2232.929</ele>
        <time>2022-09-17T12:07:06Z</time>
      </trkpt>
      <trkpt lat="42.6372" lon="1.67006">
        <ele>2232.121</ele>
        <time>2022-09-17T12:07:08Z</time>
      </trkpt>
      <trkpt lat="42.63719" lon="1.67005">
        <ele>2231.955</ele>
        <time>2022-09-17T12:07:10Z</time>
      </trkpt>
      <trkpt lat="42.63718" lon="1.67004">
        <ele>2231.575</ele>
        <time>2022-09-17T12:07:12Z</time>
      </trkpt>
      <trkpt lat="42.63717" lon="1.67003">
        <ele>2231.515</ele>
        <time>2022-09-17T12:07:14Z</time>
      </trkpt>
      <trkpt lat="42.63717" lon="1.67002">
        <ele>2232.703</ele>
        <time>2022-09-17T12:07:16Z</time>
      </trkpt>
      <trkpt lat="42.63716" lon="1.67001">
        <ele>2232.904</ele>
        <time>2022-09-17T12:07:18Z</time>
      </trkpt>
      <trkpt lat="42.63715" lon="1.67001">
        <ele>2231.52</ele>
        <time>2022-09-17T12:07:20Z</time>
      </trkpt>
      <trkpt lat="42.63714" lon="1.67001">
        <ele>2230.824</ele>
        <time>2022-09-17T12:07:22Z</time>
      </trkpt>
      <trkpt lat="42.63713" lon="1.67">
        <ele>2230.037</ele>
        <time>2022-09-17T12:07:24Z</time>
      </trkpt>
      <trkpt lat="42.63712" lon="1.66998">
        <ele>2229.424</ele>
        <time>2022-09-17T12:07:26Z</time>
      </trkpt>
      <trkpt lat="42.63711" lon="1.66997">
        <ele>2228.867</ele>
        <time>2022-09-17T12:07:28Z</time>
      </trkpt>
      <trkpt lat="42.63709" lon="1.66996">
        <ele>2227.93</ele>
        <time>2022-09-17T12:07:30Z</time>
      </trkpt>
      <trkpt lat="42.63708" lon="1.66995">
        <ele>2227.709</ele>
        <time>2022-09-17T12:07:32Z</time>
      </trkpt>
      <trkpt lat="42.63707" lon="1.66994">
        <ele>2227.831</ele>
        <time>2022-09-17T12:07:34Z</time>
      </trkpt>
      <trkpt lat="42.63706" lon="1.66993">
        <ele>2227.332</ele>
        <time>2022-09-17T12:07:36Z</time>
      </trkpt>
      <trkpt lat="42.63705" lon="1.66991">
        <ele>2226.759</ele>
        <time>2022-09-17T12:07:38Z</time>
      </trkpt>
      <trkpt lat="42.63704" lon="1.6699">
        <ele>2226.936</ele>
        <time>2022-09-17T12:07:40Z</time>
      </trkpt>
      <trkpt lat="42.63702" lon="1.66989">
        <ele>2226.076</ele>
        <time>2022-09-17T12:07:42Z</time>
      </trkpt>
      <trkpt lat="42.63701" lon="1.66988">
        <ele>2225.765</ele>
        <time>2022-09-17T12:07:44Z</time>
      </trkpt>
      <trkpt lat="42.637" lon="1.66986">
        <ele>2225.092</ele>
        <time>2022-09-17T12:07:46Z</time>
      </trkpt>
      <trkpt lat="42.63699" lon="1.66984">
        <ele>2225.346</ele>
        <time>2022-09-17T12:07:48Z</time>
      </trkpt>
      <trkpt lat="42.63698" lon="1.66983">
        <ele>2224.676</ele>
        <time>2022-09-17T12:07:50Z</time>
      </trkpt>
      <trkpt lat="42.63698" lon="1.66981">
        <ele>2224.081</ele>
        <time>2022-09-17T12:07:52Z</time>
      </trkpt>
      <trkpt lat="42.63697" lon="1.6698">
        <ele>2224.387</ele>
        <time>2022-09-17T12:07:54Z</time>
      </trkpt>
      <trkpt lat="42.63697" lon="1.66979">
        <ele>2224.384</ele>
        <time>2022-09-17T12:07:56Z</time>
      </trkpt>
      <trkpt lat="42.63696" lon="1.66978">
        <ele>2224.065</ele>
        <time>2022-09-17T12:07:58Z</time>
      </trkpt>
      <trkpt lat="42.63695" lon="1.66976">
        <ele>2224.065</ele>
        <time>2022-09-17T12:08:00Z</time>
      </trkpt>
      <trkpt lat="42.63694" lon="1.66976">
        <ele>2224.501</ele>
        <time>2022-09-17T12:08:02Z</time>
      </trkpt>
      <trkpt lat="42.63693" lon="1.66975">
        <ele>2224.917</ele>
        <time>2022-09-17T12:08:04Z</time>
      </trkpt>
      <trkpt lat="42.63692" lon="1.66974">
        <ele>2224.375</ele>
        <time>2022-09-17T12:08:06Z</time>
      </trkpt>
      <trkpt lat="42.63691" lon="1.66974">
        <ele>2224.613</ele>
        <time>2022-09-17T12:08:08Z</time>
      </trkpt>
      <trkpt lat="42.6369" lon="1.66973">
        <ele>2224.921</ele>
        <time>2022-09-17T12:08:10Z</time>
      </trkpt>
      <trkpt lat="42.6369" lon="1.66973">
        <ele>2223.303</ele>
        <time>2022-09-17T12:08:12Z</time>
      </trkpt>
      <trkpt lat="42.63688" lon="1.66972">
        <ele>2222.679</ele>
        <time>2022-09-17T12:08:14Z</time>
      </trkpt>
      <trkpt lat="42.63688" lon="1.66971">
        <ele>2221.576</ele>
        <time>2022-09-17T12:08:16Z</time>
      </trkpt>
      <trkpt lat="42.63687" lon="1.6697">
        <ele>2220.989</ele>
        <time>2022-09-17T12:08:18Z</time>
      </trkpt>
      <trkpt lat="42.63686" lon="1.6697">
        <ele>2220.819</ele>
        <time>2022-09-17T12:08:20Z</time>
      </trkpt>
      <trkpt lat="42.63685" lon="1.6697">
        <ele>2221.256</ele>
        <time>2022-09-17T12:08:22Z</time>
      </trkpt>
      <trkpt lat="42.63684" lon="1.66969">
        <ele>2220.209</ele>
        <time>2022-09-17T12:08:24Z</time>
      </trkpt>
      <trkpt lat="42.63683" lon="1.66967">
        <ele>2219.583</ele>
        <time>2022-09-17T12:08:26Z</time>
      </trkpt>
      <trkpt lat="42.63681" lon="1.66966">
        <ele>2219.044</ele>
        <time>2022-09-17T12:08:28Z</time>
      </trkpt>
      <trkpt lat="42.6368" lon="1.66966">
        <ele>2218.449</ele>
        <time>2022-09-17T12:08:30Z</time>
      </trkpt>
      <trkpt lat="42.6368" lon="1.66965">
        <ele>2217.343</ele>
        <time>2022-09-17T12:08:32Z</time>
      </trkpt>
      <trkpt lat="42.63679" lon="1.66964">
        <ele>2217.306</ele>
        <time>2022-09-17T12:08:34Z</time>
      </trkpt>
      <trkpt lat="42.63677" lon="1.66965">
        <ele>2216.694</ele>
        <time>2022-09-17T12:08:36Z</time>
      </trkpt>
      <trkpt lat="42.63676" lon="1.66965">
        <ele>2216.001</ele>
        <time>2022-09-17T12:08:38Z</time>
      </trkpt>
      <trkpt lat="42.63675" lon="1.66965">
        <ele>2215.755</ele>
        <time>2022-09-17T12:08:40Z</time>
      </trkpt>
      <trkpt lat="42.63673" lon="1.66965">
        <ele>2215.083</ele>
        <time>2022-09-17T12:08:42Z</time>
      </trkpt>
      <trkpt lat="42.63673" lon="1.66963">
        <ele>2215.275</ele>
        <time>2022-09-17T12:08:44Z</time>
      </trkpt>
      <trkpt lat="42.63672" lon="1.66961">
        <ele>2215.325</ele>
        <time>2022-09-17T12:08:46Z</time>
      </trkpt>
      <trkpt lat="42.63671" lon="1.6696">
        <ele>2214.667</ele>
        <time>2022-09-17T12:08:48Z</time>
      </trkpt>
      <trkpt lat="42.6367" lon="1.66958">
        <ele>2213.568</ele>
        <time>2022-09-17T12:08:50Z</time>
      </trkpt>
      <trkpt lat="42.63668" lon="1.66956">
        <ele>2212.341</ele>
        <time>2022-09-17T12:08:52Z</time>
      </trkpt>
      <trkpt lat="42.63667" lon="1.66954">
        <ele>2211.546</ele>
        <time>2022-09-17T12:08:54Z</time>
      </trkpt>
      <trkpt lat="42.63666" lon="1.66953">
        <ele>2211.971</ele>
        <time>2022-09-17T12:08:56Z</time>
      </trkpt>
      <trkpt lat="42.63664" lon="1.66952">
        <ele>2211.723</ele>
        <time>2022-09-17T12:08:58Z</time>
      </trkpt>
      <trkpt lat="42.63662" lon="1.66952">
        <ele>2210.729</ele>
        <time>2022-09-17T12:09:00Z</time>
      </trkpt>
      <trkpt lat="42.63661" lon="1.66951">
        <ele>2210.5</ele>
        <time>2022-09-17T12:09:02Z</time>
      </trkpt>
      <trkpt lat="42.63659" lon="1.6695">
        <ele>2210.089</ele>
        <time>2022-09-17T12:09:04Z</time>
      </trkpt>
      <trkpt lat="42.63658" lon="1.66949">
        <ele>2210.018</ele>
        <time>2022-09-17T12:09:06Z</time>
      </trkpt>
      <trkpt lat="42.63656" lon="1.66948">
        <ele>2208.935</ele>
        <time>2022-09-17T12:09:08Z</time>
      </trkpt>
      <trkpt lat="42.63654" lon="1.66946">
        <ele>2207.6</ele>
        <time>2022-09-17T12:09:10Z</time>
      </trkpt>
      <trkpt lat="42.63652" lon="1.66945">
        <ele>2208.045</ele>
        <time>2022-09-17T12:09:12Z</time>
      </trkpt>
      <trkpt lat="42.63651" lon="1.66944">
        <ele>2207.538</ele>
        <time>2022-09-17T12:09:14Z</time>
      </trkpt>
      <trkpt lat="42.63649" lon="1.66942">
        <ele>2207.157</ele>
        <time>2022-09-17T12:09:16Z</time>
      </trkpt>
      <trkpt lat="42.63647" lon="1.6694">
        <ele>2207.103</ele>
        <time>2022-09-17T12:09:18Z</time>
      </trkpt>
      <trkpt lat="42.63646" lon="1.66939">
        <ele>2207.095</ele>
        <time>2022-09-17T12:09:20Z</time>
      </trkpt>
      <trkpt lat="42.63644" lon="1.66937">
        <ele>2206.375</ele>
        <time>2022-09-17T12:09:22Z</time>
      </trkpt>
      <trkpt lat="42.63643" lon="1.66935">
        <ele>2206.118</ele>
        <time>2022-09-17T12:09:24Z</time>
      </trkpt>
      <trkpt lat="42.63642" lon="1.66933">
        <ele>2205.845</ele>
        <time>2022-09-17T12:09:26Z</time>
      </trkpt>
      <trkpt lat="42.63641" lon="1.66931">
        <ele>2205.827</ele>
        <time>2022-09-17T12:09:28Z</time>
      </trkpt>
      <trkpt lat="42.63639" lon="1.66929">
        <ele>2205.372</ele>
        <time>2022-09-17T12:09:30Z</time>
      </trkpt>
      <trkpt lat="42.63638" lon="1.66927">
        <ele>2205.02</ele>
        <time>2022-09-17T12:09:32Z</time>
      </trkpt>
      <trkpt lat="42.63637" lon="1.66925">
        <ele>2205.003</ele>
        <time>2022-09-17T12:09:34Z</time>
      </trkpt>
      <trkpt lat="42.63635" lon="1.66923">
        <ele>2204.572</ele>
        <time>2022-09-17T12:09:36Z</time>
      </trkpt>
      <trkpt lat="42.63633" lon="1.66922">
        <ele>2205.753</ele>
        <time>2022-09-17T12:09:38Z</time>
      </trkpt>
      <trkpt lat="42.63632" lon="1.66919">
        <ele>2206.585</ele>
        <time>2022-09-17T12:09:40Z</time>
      </trkpt>
      <trkpt lat="42.63631" lon="1.66917">
        <ele>2206.305</ele>
        <time>2022-09-17T12:09:42Z</time>
      </trkpt>
      <trkpt lat="42.6363" lon="1.66915">
        <ele>2205.584</ele>
        <time>2022-09-17T12:09:44Z</time>
      </trkpt>
      <trkpt lat="42.63628" lon="1.66914">
        <ele>2205.426</ele>
        <time>2022-09-17T12:09:46Z</time>
      </trkpt>
      <trkpt lat="42.63627" lon="1.66911">
        <ele>2205.546</ele>
        <time>2022-09-17T12:09:48Z</time>
      </trkpt>
      <trkpt lat="42.63627" lon="1.6691">
        <ele>2204.582</ele>
        <time>2022-09-17T12:09:50Z</time>
      </trkpt>
      <trkpt lat="42.63626" lon="1.66909">
        <ele>2204.537</ele>
        <time>2022-09-17T12:09:52Z</time>
      </trkpt>
      <trkpt lat="42.63625" lon="1.66908">
        <ele>2205.136</ele>
        <time>2022-09-17T12:09:54Z</time>
      </trkpt>
      <trkpt lat="42.63624" lon="1.66907">
        <ele>2204.715</ele>
        <time>2022-09-17T12:09:56Z</time>
      </trkpt>
      <trkpt lat="42.63623" lon="1.66906">
        <ele>2204.146</ele>
        <time>2022-09-17T12:09:58Z</time>
      </trkpt>
      <trkpt lat="42.63622" lon="1.66905">
        <ele>2203.392</ele>
        <time>2022-09-17T12:10:00Z</time>
      </trkpt>
      <trkpt lat="42.63621" lon="1.66904">
        <ele>2203.194</ele>
        <time>2022-09-17T12:10:02Z</time>
      </trkpt>
      <trkpt lat="42.6362" lon="1.66903">
        <ele>2203.843</ele>
        <time>2022-09-17T12:10:04Z</time>
      </trkpt>
      <trkpt lat="42.63619" lon="1.66902">
        <ele>2203.848</ele>
        <time>2022-09-17T12:10:06Z</time>
      </trkpt>
      <trkpt lat="42.63617" lon="1.66902">
        <ele>2203.358</ele>
        <time>2022-09-17T12:10:08Z</time>
      </trkpt>
      <trkpt lat="42.63616" lon="1.66902">
        <ele>2202.932</ele>
        <time>2022-09-17T12:10:10Z</time>
      </trkpt>
      <trkpt lat="42.63614" lon="1.669">
        <ele>2202.716</ele>
        <time>2022-09-17T12:10:12Z</time>
      </trkpt>
      <trkpt lat="42.63612" lon="1.66899">
        <ele>2202.459</ele>
        <time>2022-09-17T12:10:14Z</time>
      </trkpt>
      <trkpt lat="42.63611" lon="1.66899">
        <ele>2202.269</ele>
        <time>2022-09-17T12:10:16Z</time>
      </trkpt>
      <trkpt lat="42.63609" lon="1.66898">
        <ele>2201.582</ele>
        <time>2022-09-17T12:10:18Z</time>
      </trkpt>
      <trkpt lat="42.63607" lon="1.66897">
        <ele>2201.203</ele>
        <time>2022-09-17T12:10:20Z</time>
      </trkpt>
      <trkpt lat="42.63606" lon="1.66895">
        <ele>2201.69</ele>
        <time>2022-09-17T12:10:22Z</time>
      </trkpt>
      <trkpt lat="42.63606" lon="1.66893">
        <ele>2201.355</ele>
        <time>2022-09-17T12:10:24Z</time>
      </trkpt>
      <trkpt lat="42.63606" lon="1.66891">
        <ele>2201.548</ele>
        <time>2022-09-17T12:10:26Z</time>
      </trkpt>
      <trkpt lat="42.63606" lon="1.6689">
        <ele>2201.452</ele>
        <time>2022-09-17T12:10:28Z</time>
      </trkpt>
      <trkpt lat="42.63605" lon="1.66889">
        <ele>2201.312</ele>
        <time>2022-09-17T12:10:30Z</time>
      </trkpt>
      <trkpt lat="42.63603" lon="1.66889">
        <ele>2202.527</ele>
        <time>2022-09-17T12:10:32Z</time>
      </trkpt>
      <trkpt lat="42.63603" lon="1.66888">
        <ele>2202.716</ele>
        <time>2022-09-17T12:10:34Z</time>
      </trkpt>
      <trkpt lat="42.63602" lon="1.66886">
        <ele>2203.376</ele>
        <time>2022-09-17T12:10:36Z</time>
      </trkpt>
      <trkpt lat="42.63601" lon="1.66884">
        <ele>2203.393</ele>
        <time>2022-09-17T12:10:38Z</time>
      </trkpt>
      <trkpt lat="42.636" lon="1.66882">
        <ele>2204.707</ele>
        <time>2022-09-17T12:10:40Z</time>
      </trkpt>
      <trkpt lat="42.636" lon="1.6688">
        <ele>2205.522</ele>
        <time>2022-09-17T12:10:42Z</time>
      </trkpt>
      <trkpt lat="42.63599" lon="1.66878">
        <ele>2205.866</ele>
        <time>2022-09-17T12:10:44Z</time>
      </trkpt>
      <trkpt lat="42.63599" lon="1.66876">
        <ele>2205.888</ele>
        <time>2022-09-17T12:10:46Z</time>
      </trkpt>
      <trkpt lat="42.636" lon="1.66875">
        <ele>2205.216</ele>
        <time>2022-09-17T12:10:48Z</time>
      </trkpt>
      <trkpt lat="42.63599" lon="1.66873">
        <ele>2205.048</ele>
        <time>2022-09-17T12:10:50Z</time>
      </trkpt>
      <trkpt lat="42.63599" lon="1.66872">
        <ele>2204.198</ele>
        <time>2022-09-17T12:10:52Z</time>
      </trkpt>
      <trkpt lat="42.63599" lon="1.66872">
        <ele>2204.82</ele>
        <time>2022-09-17T12:10:54Z</time>
      </trkpt>
      <trkpt lat="42.63599" lon="1.66871">
        <ele>2204.774</ele>
        <time>2022-09-17T12:10:56Z</time>
      </trkpt>
      <trkpt lat="42.63599" lon="1.6687">
        <ele>2203.518</ele>
        <time>2022-09-17T12:10:58Z</time>
      </trkpt>
      <trkpt lat="42.63598" lon="1.66869">
        <ele>2204.16</ele>
        <time>2022-09-17T12:11:00Z</time>
      </trkpt>
      <trkpt lat="42.63598" lon="1.66868">
        <ele>2203.251</ele>
        <time>2022-09-17T12:11:02Z</time>
      </trkpt>
      <trkpt lat="42.63598" lon="1.66867">
        <ele>2201.655</ele>
        <time>2022-09-17T12:11:04Z</time>
      </trkpt>
      <trkpt lat="42.63598" lon="1.66866">
        <ele>2200.111</ele>
        <time>2022-09-17T12:11:06Z</time>
      </trkpt>
      <trkpt lat="42.63598" lon="1.66864">
        <ele>2198.397</ele>
        <time>2022-09-17T12:11:08Z</time>
      </trkpt>
      <trkpt lat="42.63598" lon="1.66863">
        <ele>2198.735</ele>
        <time>2022-09-17T12:11:10Z</time>
      </trkpt>
      <trkpt lat="42.63598" lon="1.66862">
        <ele>2198.369</ele>
        <time>2022-09-17T12:11:12Z</time>
      </trkpt>
      <trkpt lat="42.63598" lon="1.6686">
        <ele>2199.181</ele>
        <time>2022-09-17T12:11:14Z</time>
      </trkpt>
      <trkpt lat="42.63598" lon="1.6686">
        <ele>2199.126</ele>
        <time>2022-09-17T12:11:16Z</time>
      </trkpt>
      <trkpt lat="42.63597" lon="1.66858">
        <ele>2199.237</ele>
        <time>2022-09-17T12:11:18Z</time>
      </trkpt>
      <trkpt lat="42.63597" lon="1.66857">
        <ele>2199.045</ele>
        <time>2022-09-17T12:11:20Z</time>
      </trkpt>
      <trkpt lat="42.63596" lon="1.66856">
        <ele>2199.888</ele>
        <time>2022-09-17T12:11:22Z</time>
      </trkpt>
      <trkpt lat="42.63596" lon="1.66856">
        <ele>2198.958</ele>
        <time>2022-09-17T12:11:24Z</time>
      </trkpt>
      <trkpt lat="42.63595" lon="1.66855">
        <ele>2197.986</ele>
        <time>2022-09-17T12:11:26Z</time>
      </trkpt>
      <trkpt lat="42.63594" lon="1.66853">
        <ele>2196.841</ele>
        <time>2022-09-17T12:11:28Z</time>
      </trkpt>
      <trkpt lat="42.63593" lon="1.66852">
        <ele>2195.634</ele>
        <time>2022-09-17T12:11:30Z</time>
      </trkpt>
      <trkpt lat="42.63592" lon="1.6685">
        <ele>2194.996</ele>
        <time>2022-09-17T12:11:32Z</time>
      </trkpt>
      <trkpt lat="42.63591" lon="1.66849">
        <ele>2194.386</ele>
        <time>2022-09-17T12:11:34Z</time>
      </trkpt>
      <trkpt lat="42.6359" lon="1.66847">
        <ele>2192.97</ele>
        <time>2022-09-17T12:11:36Z</time>
      </trkpt>
      <trkpt lat="42.6359" lon="1.66845">
        <ele>2192.325</ele>
        <time>2022-09-17T12:11:38Z</time>
      </trkpt>
      <trkpt lat="42.63589" lon="1.66843">
        <ele>2191.58</ele>
        <time>2022-09-17T12:11:40Z</time>
      </trkpt>
      <trkpt lat="42.63588" lon="1.66841">
        <ele>2190.74</ele>
        <time>2022-09-17T12:11:42Z</time>
      </trkpt>
      <trkpt lat="42.63587" lon="1.66839">
        <ele>2190.284</ele>
        <time>2022-09-17T12:11:44Z</time>
      </trkpt>
      <trkpt lat="42.63586" lon="1.66838">
        <ele>2189.335</ele>
        <time>2022-09-17T12:11:46Z</time>
      </trkpt>
      <trkpt lat="42.63585" lon="1.66836">
        <ele>2189.146</ele>
        <time>2022-09-17T12:11:48Z</time>
      </trkpt>
      <trkpt lat="42.63585" lon="1.66835">
        <ele>2188.585</ele>
        <time>2022-09-17T12:11:50Z</time>
      </trkpt>
      <trkpt lat="42.63584" lon="1.66834">
        <ele>2189.033</ele>
        <time>2022-09-17T12:11:52Z</time>
      </trkpt>
      <trkpt lat="42.63583" lon="1.66833">
        <ele>2188.613</ele>
        <time>2022-09-17T12:11:54Z</time>
      </trkpt>
      <trkpt lat="42.63583" lon="1.66831">
        <ele>2189.493</ele>
        <time>2022-09-17T12:11:56Z</time>
      </trkpt>
      <trkpt lat="42.63582" lon="1.6683">
        <ele>2188.177</ele>
        <time>2022-09-17T12:11:58Z</time>
      </trkpt>
      <trkpt lat="42.63582" lon="1.66828">
        <ele>2187.523</ele>
        <time>2022-09-17T12:12:00Z</time>
      </trkpt>
      <trkpt lat="42.63581" lon="1.66828">
        <ele>2187.803</ele>
        <time>2022-09-17T12:12:02Z</time>
      </trkpt>
      <trkpt lat="42.6358" lon="1.66826">
        <ele>2186.7</ele>
        <time>2022-09-17T12:12:04Z</time>
      </trkpt>
      <trkpt lat="42.6358" lon="1.66825">
        <ele>2186.769</ele>
        <time>2022-09-17T12:12:06Z</time>
      </trkpt>
      <trkpt lat="42.6358" lon="1.66824">
        <ele>2186.438</ele>
        <time>2022-09-17T12:12:08Z</time>
      </trkpt>
      <trkpt lat="42.6358" lon="1.66823">
        <ele>2186.967</ele>
        <time>2022-09-17T12:12:10Z</time>
      </trkpt>
      <trkpt lat="42.6358" lon="1.66822">
        <ele>2186.623</ele>
        <time>2022-09-17T12:12:12Z</time>
      </trkpt>
      <trkpt lat="42.6358" lon="1.66821">
        <ele>2186.897</ele>
        <time>2022-09-17T12:12:14Z</time>
      </trkpt>
      <trkpt lat="42.63579" lon="1.6682">
        <ele>2186.339</ele>
        <time>2022-09-17T12:12:16Z</time>
      </trkpt>
      <trkpt lat="42.6358" lon="1.66819">
        <ele>2185.636</ele>
        <time>2022-09-17T12:12:18Z</time>
      </trkpt>
      <trkpt lat="42.63579" lon="1.66818">
        <ele>2184.512</ele>
        <time>2022-09-17T12:12:20Z</time>
      </trkpt>
      <trkpt lat="42.63579" lon="1.66817">
        <ele>2183.974</ele>
        <time>2022-09-17T12:12:22Z</time>
      </trkpt>
      <trkpt lat="42.63579" lon="1.66816">
        <ele>2183.319</ele>
        <time>2022-09-17T12:12:24Z</time>
      </trkpt>
      <trkpt lat="42.63579" lon="1.66815">
        <ele>2182.049</ele>
        <time>2022-09-17T12:12:26Z</time>
      </trkpt>
      <trkpt lat="42.63579" lon="1.66814">
        <ele>2182.347</ele>
        <time>2022-09-17T12:12:28Z</time>
      </trkpt>
      <trkpt lat="42.63579" lon="1.66813">
        <ele>2182.031</ele>
        <time>2022-09-17T12:12:30Z</time>
      </trkpt>
      <trkpt lat="42.63578" lon="1.66812">
        <ele>2182.653</ele>
        <time>2022-09-17T12:12:32Z</time>
      </trkpt>
      <trkpt lat="42.63578" lon="1.66811">
        <ele>2182.859</ele>
        <time>2022-09-17T12:12:34Z</time>
      </trkpt>
      <trkpt lat="42.63577" lon="1.6681">
        <ele>2182.381</ele>
        <time>2022-09-17T12:12:36Z</time>
      </trkpt>
      <trkpt lat="42.63576" lon="1.66809">
        <ele>2182.624</ele>
        <time>2022-09-17T12:12:38Z</time>
      </trkpt>
      <trkpt lat="42.63576" lon="1.66809">
        <ele>2182.814</ele>
        <time>2022-09-17T12:12:40Z</time>
      </trkpt>
      <trkpt lat="42.63575" lon="1.66808">
        <ele>2182.166</ele>
        <time>2022-09-17T12:12:42Z</time>
      </trkpt>
      <trkpt lat="42.63575" lon="1.66808">
        <ele>2181.497</ele>
        <time>2022-09-17T12:12:44Z</time>
      </trkpt>
      <trkpt lat="42.63575" lon="1.66808">
        <ele>2180.129</ele>
        <time>2022-09-17T12:12:46Z</time>
      </trkpt>
      <trkpt lat="42.63575" lon="1.66807">
        <ele>2178.846</ele>
        <time>2022-09-17T12:12:48Z</time>
      </trkpt>
      <trkpt lat="42.63575" lon="1.66806">
        <ele>2178.723</ele>
        <time>2022-09-17T12:12:50Z</time>
      </trkpt>
      <trkpt lat="42.63574" lon="1.66804">
        <ele>2178.527</ele>
        <time>2022-09-17T12:12:52Z</time>
      </trkpt>
      <trkpt lat="42.63574" lon="1.66803">
        <ele>2177.501</ele>
        <time>2022-09-17T12:12:54Z</time>
      </trkpt>
      <trkpt lat="42.63573" lon="1.66802">
        <ele>2175.274</ele>
        <time>2022-09-17T12:12:56Z</time>
      </trkpt>
      <trkpt lat="42.63572" lon="1.66801">
        <ele>2174.486</ele>
        <time>2022-09-17T12:12:58Z</time>
      </trkpt>
      <trkpt lat="42.63571" lon="1.668">
        <ele>2174.07</ele>
        <time>2022-09-17T12:13:00Z</time>
      </trkpt>
      <trkpt lat="42.6357" lon="1.66798">
        <ele>2174.317</ele>
        <time>2022-09-17T12:13:02Z</time>
      </trkpt>
      <trkpt lat="42.63569" lon="1.66796">
        <ele>2172.813</ele>
        <time>2022-09-17T12:13:04Z</time>
      </trkpt>
      <trkpt lat="42.63569" lon="1.66794">
        <ele>2171.178</ele>
        <time>2022-09-17T12:13:06Z</time>
      </trkpt>
      <trkpt lat="42.63568" lon="1.66792">
        <ele>2172.393</ele>
        <time>2022-09-17T12:13:08Z</time>
      </trkpt>
      <trkpt lat="42.63567" lon="1.66789">
        <ele>2171.61</ele>
        <time>2022-09-17T12:13:10Z</time>
      </trkpt>
      <trkpt lat="42.63566" lon="1.66788">
        <ele>2170.292</ele>
        <time>2022-09-17T12:13:12Z</time>
      </trkpt>
      <trkpt lat="42.63566" lon="1.66786">
        <ele>2169.152</ele>
        <time>2022-09-17T12:13:14Z</time>
      </trkpt>
      <trkpt lat="42.63565" lon="1.66784">
        <ele>2169.43</ele>
        <time>2022-09-17T12:13:16Z</time>
      </trkpt>
      <trkpt lat="42.63564" lon="1.66782">
        <ele>2168.419</ele>
        <time>2022-09-17T12:13:18Z</time>
      </trkpt>
      <trkpt lat="42.63563" lon="1.6678">
        <ele>2168.487</ele>
        <time>2022-09-17T12:13:20Z</time>
      </trkpt>
      <trkpt lat="42.63562" lon="1.66778">
        <ele>2168.591</ele>
        <time>2022-09-17T12:13:22Z</time>
      </trkpt>
      <trkpt lat="42.63561" lon="1.66777">
        <ele>2168.982</ele>
        <time>2022-09-17T12:13:24Z</time>
      </trkpt>
      <trkpt lat="42.6356" lon="1.66775">
        <ele>2169.5</ele>
        <time>2022-09-17T12:13:26Z</time>
      </trkpt>
      <trkpt lat="42.63558" lon="1.66774">
        <ele>2167.998</ele>
        <time>2022-09-17T12:13:28Z</time>
      </trkpt>
      <trkpt lat="42.63557" lon="1.66772">
        <ele>2167.206</ele>
        <time>2022-09-17T12:13:30Z</time>
      </trkpt>
      <trkpt lat="42.63555" lon="1.66772">
        <ele>2165.384</ele>
        <time>2022-09-17T12:13:32Z</time>
      </trkpt>
      <trkpt lat="42.63553" lon="1.6677">
        <ele>2164.079</ele>
        <time>2022-09-17T12:13:34Z</time>
      </trkpt>
      <trkpt lat="42.63551" lon="1.66769">
        <ele>2162.327</ele>
        <time>2022-09-17T12:13:36Z</time>
      </trkpt>
      <trkpt lat="42.6355" lon="1.66766">
        <ele>2161.265</ele>
        <time>2022-09-17T12:13:38Z</time>
      </trkpt>
      <trkpt lat="42.63549" lon="1.66765">
        <ele>2160.913</ele>
        <time>2022-09-17T12:13:40Z</time>
      </trkpt>
      <trkpt lat="42.63548" lon="1.66763">
        <ele>2159.453</ele>
        <time>2022-09-17T12:13:42Z</time>
      </trkpt>
      <trkpt lat="42.63546" lon="1.66762">
        <ele>2159.008</ele>
        <time>2022-09-17T12:13:44Z</time>
      </trkpt>
      <trkpt lat="42.63544" lon="1.6676">
        <ele>2157.488</ele>
        <time>2022-09-17T12:13:46Z</time>
      </trkpt>
      <trkpt lat="42.63543" lon="1.66759">
        <ele>2156.855</ele>
        <time>2022-09-17T12:13:48Z</time>
      </trkpt>
      <trkpt lat="42.63541" lon="1.66758">
        <ele>2156.648</ele>
        <time>2022-09-17T12:13:50Z</time>
      </trkpt>
      <trkpt lat="42.63539" lon="1.66756">
        <ele>2155.883</ele>
        <time>2022-09-17T12:13:52Z</time>
      </trkpt>
      <trkpt lat="42.63538" lon="1.66755">
        <ele>2155.794</ele>
        <time>2022-09-17T12:13:54Z</time>
      </trkpt>
      <trkpt lat="42.63537" lon="1.66754">
        <ele>2155.006</ele>
        <time>2022-09-17T12:13:56Z</time>
      </trkpt>
      <trkpt lat="42.63535" lon="1.66753">
        <ele>2154.895</ele>
        <time>2022-09-17T12:13:58Z</time>
      </trkpt>
      <trkpt lat="42.63534" lon="1.66751">
        <ele>2154.288</ele>
        <time>2022-09-17T12:14:00Z</time>
      </trkpt>
      <trkpt lat="42.63533" lon="1.6675">
        <ele>2153.73</ele>
        <time>2022-09-17T12:14:02Z</time>
      </trkpt>
      <trkpt lat="42.63532" lon="1.66749">
        <ele>2154.871</ele>
        <time>2022-09-17T12:14:04Z</time>
      </trkpt>
      <trkpt lat="42.63531" lon="1.66747">
        <ele>2154.342</ele>
        <time>2022-09-17T12:14:06Z</time>
      </trkpt>
      <trkpt lat="42.63529" lon="1.66747">
        <ele>2152.471</ele>
        <time>2022-09-17T12:14:08Z</time>
      </trkpt>
      <trkpt lat="42.63528" lon="1.66745">
        <ele>2151.689</ele>
        <time>2022-09-17T12:14:10Z</time>
      </trkpt>
      <trkpt lat="42.63526" lon="1.66743">
        <ele>2152.213</ele>
        <time>2022-09-17T12:14:12Z</time>
      </trkpt>
      <trkpt lat="42.63524" lon="1.66742">
        <ele>2152.141</ele>
        <time>2022-09-17T12:14:14Z</time>
      </trkpt>
      <trkpt lat="42.63523" lon="1.66741">
        <ele>2152.503</ele>
        <time>2022-09-17T12:14:16Z</time>
      </trkpt>
      <trkpt lat="42.63521" lon="1.66741">
        <ele>2151.488</ele>
        <time>2022-09-17T12:14:18Z</time>
      </trkpt>
      <trkpt lat="42.63519" lon="1.6674">
        <ele>2150.843</ele>
        <time>2022-09-17T12:14:20Z</time>
      </trkpt>
      <trkpt lat="42.63517" lon="1.66739">
        <ele>2150.652</ele>
        <time>2022-09-17T12:14:22Z</time>
      </trkpt>
      <trkpt lat="42.63516" lon="1.66738">
        <ele>2150.638</ele>
        <time>2022-09-17T12:14:24Z</time>
      </trkpt>
      <trkpt lat="42.63515" lon="1.66736">
        <ele>2150.069</ele>
        <time>2022-09-17T12:14:26Z</time>
      </trkpt>
      <trkpt lat="42.63513" lon="1.66734">
        <ele>2149.639</ele>
        <time>2022-09-17T12:14:28Z</time>
      </trkpt>
      <trkpt lat="42.63512" lon="1.66731">
        <ele>2149.304</ele>
        <time>2022-09-17T12:14:30Z</time>
      </trkpt>
      <trkpt lat="42.63511" lon="1.66729">
        <ele>2147.995</ele>
        <time>2022-09-17T12:14:32Z</time>
      </trkpt>
      <trkpt lat="42.63509" lon="1.66727">
        <ele>2146.49</ele>
        <time>2022-09-17T12:14:34Z</time>
      </trkpt>
      <trkpt lat="42.63507" lon="1.66725">
        <ele>2146.636</ele>
        <time>2022-09-17T12:14:36Z</time>
      </trkpt>
      <trkpt lat="42.63506" lon="1.66723">
        <ele>2145.752</ele>
        <time>2022-09-17T12:14:38Z</time>
      </trkpt>
      <trkpt lat="42.63504" lon="1.66721">
        <ele>2145.238</ele>
        <time>2022-09-17T12:14:40Z</time>
      </trkpt>
      <trkpt lat="42.63503" lon="1.6672">
        <ele>2144.614</ele>
        <time>2022-09-17T12:14:42Z</time>
      </trkpt>
      <trkpt lat="42.63501" lon="1.66719">
        <ele>2144.256</ele>
        <time>2022-09-17T12:14:44Z</time>
      </trkpt>
      <trkpt lat="42.63499" lon="1.66718">
        <ele>2143.808</ele>
        <time>2022-09-17T12:14:46Z</time>
      </trkpt>
      <trkpt lat="42.63498" lon="1.66717">
        <ele>2143.256</ele>
        <time>2022-09-17T12:14:48Z</time>
      </trkpt>
      <trkpt lat="42.63497" lon="1.66716">
        <ele>2142.58</ele>
        <time>2022-09-17T12:14:50Z</time>
      </trkpt>
      <trkpt lat="42.63496" lon="1.66714">
        <ele>2143.059</ele>
        <time>2022-09-17T12:14:52Z</time>
      </trkpt>
      <trkpt lat="42.63495" lon="1.66712">
        <ele>2142.583</ele>
        <time>2022-09-17T12:14:54Z</time>
      </trkpt>
      <trkpt lat="42.63494" lon="1.66711">
        <ele>2142.519</ele>
        <time>2022-09-17T12:14:56Z</time>
      </trkpt>
      <trkpt lat="42.63492" lon="1.66709">
        <ele>2142.698</ele>
        <time>2022-09-17T12:14:58Z</time>
      </trkpt>
      <trkpt lat="42.63491" lon="1.66708">
        <ele>2142.233</ele>
        <time>2022-09-17T12:15:00Z</time>
      </trkpt>
      <trkpt lat="42.63489" lon="1.66707">
        <ele>2141.098</ele>
        <time>2022-09-17T12:15:02Z</time>
      </trkpt>
      <trkpt lat="42.63488" lon="1.66706">
        <ele>2139.876</ele>
        <time>2022-09-17T12:15:04Z</time>
      </trkpt>
      <trkpt lat="42.63486" lon="1.66705">
        <ele>2139.416</ele>
        <time>2022-09-17T12:15:06Z</time>
      </trkpt>
      <trkpt lat="42.63485" lon="1.66703">
        <ele>2139.955</ele>
        <time>2022-09-17T12:15:08Z</time>
      </trkpt>
      <trkpt lat="42.63484" lon="1.66701">
        <ele>2140.36</ele>
        <time>2022-09-17T12:15:10Z</time>
      </trkpt>
      <trkpt lat="42.63483" lon="1.667">
        <ele>2140.514</ele>
        <time>2022-09-17T12:15:12Z</time>
      </trkpt>
      <trkpt lat="42.63482" lon="1.66698">
        <ele>2140.706</ele>
        <time>2022-09-17T12:15:14Z</time>
      </trkpt>
      <trkpt lat="42.63481" lon="1.66697">
        <ele>2140.706</ele>
        <time>2022-09-17T12:15:16Z</time>
      </trkpt>
      <trkpt lat="42.63481" lon="1.66695">
        <ele>2140.769</ele>
        <time>2022-09-17T12:15:18Z</time>
      </trkpt>
      <trkpt lat="42.63479" lon="1.66694">
        <ele>2140.08</ele>
        <time>2022-09-17T12:15:20Z</time>
      </trkpt>
      <trkpt lat="42.63479" lon="1.66693">
        <ele>2139.805</ele>
        <time>2022-09-17T12:15:22Z</time>
      </trkpt>
      <trkpt lat="42.63477" lon="1.66693">
        <ele>2139.962</ele>
        <time>2022-09-17T12:15:24Z</time>
      </trkpt>
      <trkpt lat="42.63476" lon="1.66692">
        <ele>2139.827</ele>
        <time>2022-09-17T12:15:26Z</time>
      </trkpt>
      <trkpt lat="42.63476" lon="1.6669">
        <ele>2139.542</ele>
        <time>2022-09-17T12:15:28Z</time>
      </trkpt>
      <trkpt lat="42.63474" lon="1.66688">
        <ele>2139.819</ele>
        <time>2022-09-17T12:15:30Z</time>
      </trkpt>
      <trkpt lat="42.63473" lon="1.66687">
        <ele>2139.272</ele>
        <time>2022-09-17T12:15:32Z</time>
      </trkpt>
      <trkpt lat="42.63472" lon="1.66686">
        <ele>2138.723</ele>
        <time>2022-09-17T12:15:34Z</time>
      </trkpt>
      <trkpt lat="42.6347" lon="1.66684">
        <ele>2138.406</ele>
        <time>2022-09-17T12:15:36Z</time>
      </trkpt>
      <trkpt lat="42.63469" lon="1.66683">
        <ele>2138.22</ele>
        <time>2022-09-17T12:15:38Z</time>
      </trkpt>
      <trkpt lat="42.63469" lon="1.66682">
        <ele>2138.928</ele>
        <time>2022-09-17T12:15:40Z</time>
      </trkpt>
      <trkpt lat="42.63467" lon="1.66681">
        <ele>2138.632</ele>
        <time>2022-09-17T12:15:42Z</time>
      </trkpt>
      <trkpt lat="42.63466" lon="1.6668">
        <ele>2138.171</ele>
        <time>2022-09-17T12:15:44Z</time>
      </trkpt>
      <trkpt lat="42.63465" lon="1.66678">
        <ele>2137.334</ele>
        <time>2022-09-17T12:15:46Z</time>
      </trkpt>
      <trkpt lat="42.63464" lon="1.66676">
        <ele>2136.428</ele>
        <time>2022-09-17T12:15:48Z</time>
      </trkpt>
      <trkpt lat="42.63463" lon="1.66674">
        <ele>2136.08</ele>
        <time>2022-09-17T12:15:50Z</time>
      </trkpt>
      <trkpt lat="42.63462" lon="1.66672">
        <ele>2137.376</ele>
        <time>2022-09-17T12:15:52Z</time>
      </trkpt>
      <trkpt lat="42.63461" lon="1.6667">
        <ele>2136.725</ele>
        <time>2022-09-17T12:15:54Z</time>
      </trkpt>
      <trkpt lat="42.6346" lon="1.66669">
        <ele>2135.737</ele>
        <time>2022-09-17T12:15:56Z</time>
      </trkpt>
      <trkpt lat="42.63459" lon="1.66667">
        <ele>2135.77</ele>
        <time>2022-09-17T12:15:58Z</time>
      </trkpt>
      <trkpt lat="42.63459" lon="1.66666">
        <ele>2135.228</ele>
        <time>2022-09-17T12:16:00Z</time>
      </trkpt>
      <trkpt lat="42.63458" lon="1.66664">
        <ele>2135.25</ele>
        <time>2022-09-17T12:16:02Z</time>
      </trkpt>
      <trkpt lat="42.63457" lon="1.66661">
        <ele>2134.193</ele>
        <time>2022-09-17T12:16:04Z</time>
      </trkpt>
      <trkpt lat="42.63457" lon="1.6666">
        <ele>2134.186</ele>
        <time>2022-09-17T12:16:06Z</time>
      </trkpt>
      <trkpt lat="42.63456" lon="1.66658">
        <ele>2134.081</ele>
        <time>2022-09-17T12:16:08Z</time>
      </trkpt>
      <trkpt lat="42.63456" lon="1.66657">
        <ele>2134.206</ele>
        <time>2022-09-17T12:16:10Z</time>
      </trkpt>
      <trkpt lat="42.63455" lon="1.66656">
        <ele>2134.852</ele>
        <time>2022-09-17T12:16:12Z</time>
      </trkpt>
      <trkpt lat="42.63454" lon="1.66655">
        <ele>2134.895</ele>
        <time>2022-09-17T12:16:14Z</time>
      </trkpt>
      <trkpt lat="42.63453" lon="1.66654">
        <ele>2134.795</ele>
        <time>2022-09-17T12:16:16Z</time>
      </trkpt>
      <trkpt lat="42.63452" lon="1.66652">
        <ele>2134.415</ele>
        <time>2022-09-17T12:16:18Z</time>
      </trkpt>
      <trkpt lat="42.63451" lon="1.66651">
        <ele>2134.487</ele>
        <time>2022-09-17T12:16:20Z</time>
      </trkpt>
      <trkpt lat="42.63451" lon="1.66649">
        <ele>2134.47</ele>
        <time>2022-09-17T12:16:22Z</time>
      </trkpt>
      <trkpt lat="42.6345" lon="1.66648">
        <ele>2134.227</ele>
        <time>2022-09-17T12:16:24Z</time>
      </trkpt>
      <trkpt lat="42.6345" lon="1.66647">
        <ele>2133.315</ele>
        <time>2022-09-17T12:16:26Z</time>
      </trkpt>
      <trkpt lat="42.63451" lon="1.66645">
        <ele>2132.78</ele>
        <time>2022-09-17T12:16:28Z</time>
      </trkpt>
      <trkpt lat="42.63451" lon="1.66644">
        <ele>2132.994</ele>
        <time>2022-09-17T12:16:30Z</time>
      </trkpt>
      <trkpt lat="42.63451" lon="1.66643">
        <ele>2132.653</ele>
        <time>2022-09-17T12:16:32Z</time>
      </trkpt>
      <trkpt lat="42.63451" lon="1.66642">
        <ele>2134.062</ele>
        <time>2022-09-17T12:16:34Z</time>
      </trkpt>
      <trkpt lat="42.63451" lon="1.66641">
        <ele>2133.726</ele>
        <time>2022-09-17T12:16:36Z</time>
      </trkpt>
      <trkpt lat="42.63451" lon="1.6664">
        <ele>2133.83</ele>
        <time>2022-09-17T12:16:38Z</time>
      </trkpt>
      <trkpt lat="42.63451" lon="1.66639">
        <ele>2133.805</ele>
        <time>2022-09-17T12:16:40Z</time>
      </trkpt>
      <trkpt lat="42.63451" lon="1.66639">
        <ele>2133.532</ele>
        <time>2022-09-17T12:16:42Z</time>
      </trkpt>
      <trkpt lat="42.6345" lon="1.66638">
        <ele>2133.481</ele>
        <time>2022-09-17T12:16:44Z</time>
      </trkpt>
      <trkpt lat="42.6345" lon="1.66636">
        <ele>2133.189</ele>
        <time>2022-09-17T12:16:46Z</time>
      </trkpt>
      <trkpt lat="42.6345" lon="1.66635">
        <ele>2132.922</ele>
        <time>2022-09-17T12:16:48Z</time>
      </trkpt>
      <trkpt lat="42.63449" lon="1.66635">
        <ele>2133.143</ele>
        <time>2022-09-17T12:16:50Z</time>
      </trkpt>
      <trkpt lat="42.63449" lon="1.66635">
        <ele>2133.678</ele>
        <time>2022-09-17T12:16:52Z</time>
      </trkpt>
      <trkpt lat="42.63449" lon="1.66635">
        <ele>2133.659</ele>
        <time>2022-09-17T12:16:54Z</time>
      </trkpt>
      <trkpt lat="42.63449" lon="1.66634">
        <ele>2134.176</ele>
        <time>2022-09-17T12:16:56Z</time>
      </trkpt>
      <trkpt lat="42.63448" lon="1.66633">
        <ele>2134.604</ele>
        <time>2022-09-17T12:16:58Z</time>
      </trkpt>
      <trkpt lat="42.63448" lon="1.66632">
        <ele>2133.511</ele>
        <time>2022-09-17T12:17:00Z</time>
      </trkpt>
      <trkpt lat="42.63448" lon="1.6663">
        <ele>2133.448</ele>
        <time>2022-09-17T12:17:02Z</time>
      </trkpt>
      <trkpt lat="42.63448" lon="1.6663">
        <ele>2133.399</ele>
        <time>2022-09-17T12:17:04Z</time>
      </trkpt>
      <trkpt lat="42.63448" lon="1.66629">
        <ele>2133.55</ele>
        <time>2022-09-17T12:17:06Z</time>
      </trkpt>
      <trkpt lat="42.63447" lon="1.66628">
        <ele>2133.412</ele>
        <time>2022-09-17T12:17:08Z</time>
      </trkpt>
      <trkpt lat="42.63447" lon="1.66628">
        <ele>2133.159</ele>
        <time>2022-09-17T12:17:10Z</time>
      </trkpt>
      <trkpt lat="42.63447" lon="1.66628">
        <ele>2133.142</ele>
        <time>2022-09-17T12:17:12Z</time>
      </trkpt>
      <trkpt lat="42.63447" lon="1.66628">
        <ele>2133.132</ele>
        <time>2022-09-17T12:17:14Z</time>
      </trkpt>
      <trkpt lat="42.63447" lon="1.66628">
        <ele>2133.125</ele>
        <time>2022-09-17T12:17:16Z</time>
      </trkpt>
      <trkpt lat="42.63446" lon="1.66626">
        <ele>2133.392</ele>
        <time>2022-09-17T12:17:18Z</time>
      </trkpt>
      <trkpt lat="42.63445" lon="1.66625">
        <ele>2133.825</ele>
        <time>2022-09-17T12:17:20Z</time>
      </trkpt>
      <trkpt lat="42.63444" lon="1.66624">
        <ele>2134.859</ele>
        <time>2022-09-17T12:17:22Z</time>
      </trkpt>
      <trkpt lat="42.63443" lon="1.66622">
        <ele>2134.139</ele>
        <time>2022-09-17T12:17:24Z</time>
      </trkpt>
      <trkpt lat="42.63443" lon="1.66621">
        <ele>2134.3</ele>
        <time>2022-09-17T12:17:26Z</time>
      </trkpt>
      <trkpt lat="42.63442" lon="1.66619">
        <ele>2133.555</ele>
        <time>2022-09-17T12:17:28Z</time>
      </trkpt>
      <trkpt lat="42.63442" lon="1.66619">
        <ele>2133.095</ele>
        <time>2022-09-17T12:17:30Z</time>
      </trkpt>
      <trkpt lat="42.63442" lon="1.66618">
        <ele>2131.575</ele>
        <time>2022-09-17T12:17:32Z</time>
      </trkpt>
      <trkpt lat="42.63441" lon="1.66617">
        <ele>2129.967</ele>
        <time>2022-09-17T12:17:34Z</time>
      </trkpt>
      <trkpt lat="42.63441" lon="1.66616">
        <ele>2128.027</ele>
        <time>2022-09-17T12:17:36Z</time>
      </trkpt>
      <trkpt lat="42.6344" lon="1.66614">
        <ele>2127.027</ele>
        <time>2022-09-17T12:17:38Z</time>
      </trkpt>
      <trkpt lat="42.63439" lon="1.66613">
        <ele>2125.896</ele>
        <time>2022-09-17T12:17:40Z</time>
      </trkpt>
      <trkpt lat="42.63438" lon="1.66611">
        <ele>2125.02</ele>
        <time>2022-09-17T12:17:42Z</time>
      </trkpt>
      <trkpt lat="42.63437" lon="1.6661">
        <ele>2124.835</ele>
        <time>2022-09-17T12:17:44Z</time>
      </trkpt>
      <trkpt lat="42.63436" lon="1.66609">
        <ele>2123.94</ele>
        <time>2022-09-17T12:17:46Z</time>
      </trkpt>
      <trkpt lat="42.63435" lon="1.66608">
        <ele>2123.589</ele>
        <time>2022-09-17T12:17:48Z</time>
      </trkpt>
      <trkpt lat="42.63434" lon="1.66606">
        <ele>2124.878</ele>
        <time>2022-09-17T12:17:50Z</time>
      </trkpt>
      <trkpt lat="42.63434" lon="1.66604">
        <ele>2125.547</ele>
        <time>2022-09-17T12:17:52Z</time>
      </trkpt>
      <trkpt lat="42.63433" lon="1.66602">
        <ele>2125.355</ele>
        <time>2022-09-17T12:17:54Z</time>
      </trkpt>
      <trkpt lat="42.63432" lon="1.666">
        <ele>2125.393</ele>
        <time>2022-09-17T12:17:56Z</time>
      </trkpt>
      <trkpt lat="42.63431" lon="1.66598">
        <ele>2125.739</ele>
        <time>2022-09-17T12:17:58Z</time>
      </trkpt>
      <trkpt lat="42.6343" lon="1.66597">
        <ele>2124.725</ele>
        <time>2022-09-17T12:18:00Z</time>
      </trkpt>
      <trkpt lat="42.63429" lon="1.66595">
        <ele>2123.659</ele>
        <time>2022-09-17T12:18:02Z</time>
      </trkpt>
      <trkpt lat="42.63429" lon="1.66593">
        <ele>2122.751</ele>
        <time>2022-09-17T12:18:04Z</time>
      </trkpt>
      <trkpt lat="42.63428" lon="1.66592">
        <ele>2121.672</ele>
        <time>2022-09-17T12:18:06Z</time>
      </trkpt>
      <trkpt lat="42.63428" lon="1.6659">
        <ele>2121.064</ele>
        <time>2022-09-17T12:18:08Z</time>
      </trkpt>
      <trkpt lat="42.63427" lon="1.66589">
        <ele>2119.535</ele>
        <time>2022-09-17T12:18:10Z</time>
      </trkpt>
      <trkpt lat="42.63426" lon="1.66587">
        <ele>2121.12</ele>
        <time>2022-09-17T12:18:12Z</time>
      </trkpt>
      <trkpt lat="42.63425" lon="1.66585">
        <ele>2121.25</ele>
        <time>2022-09-17T12:18:14Z</time>
      </trkpt>
      <trkpt lat="42.63424" lon="1.66583">
        <ele>2121.476</ele>
        <time>2022-09-17T12:18:16Z</time>
      </trkpt>
      <trkpt lat="42.63423" lon="1.66582">
        <ele>2121.501</ele>
        <time>2022-09-17T12:18:18Z</time>
      </trkpt>
      <trkpt lat="42.63422" lon="1.66581">
        <ele>2121.989</ele>
        <time>2022-09-17T12:18:20Z</time>
      </trkpt>
      <trkpt lat="42.63421" lon="1.6658">
        <ele>2122.828</ele>
        <time>2022-09-17T12:18:22Z</time>
      </trkpt>
      <trkpt lat="42.6342" lon="1.66579">
        <ele>2122.379</ele>
        <time>2022-09-17T12:18:24Z</time>
      </trkpt>
      <trkpt lat="42.63419" lon="1.66579">
        <ele>2123.577</ele>
        <time>2022-09-17T12:18:26Z</time>
      </trkpt>
      <trkpt lat="42.63419" lon="1.6658">
        <ele>2123.065</ele>
        <time>2022-09-17T12:18:28Z</time>
      </trkpt>
      <trkpt lat="42.63419" lon="1.6658">
        <ele>2123.057</ele>
        <time>2022-09-17T12:18:30Z</time>
      </trkpt>
      <trkpt lat="42.63419" lon="1.6658">
        <ele>2123.057</ele>
        <time>2022-09-17T12:18:32Z</time>
      </trkpt>
      <trkpt lat="42.63419" lon="1.6658">
        <ele>2123.055</ele>
        <time>2022-09-17T12:18:34Z</time>
      </trkpt>
      <trkpt lat="42.63419" lon="1.6658">
        <ele>2123.048</ele>
        <time>2022-09-17T12:18:36Z</time>
      </trkpt>
      <trkpt lat="42.63418" lon="1.66579">
        <ele>2123.925</ele>
        <time>2022-09-17T12:18:38Z</time>
      </trkpt>
      <trkpt lat="42.63416" lon="1.66579">
        <ele>2123.656</ele>
        <time>2022-09-17T12:18:40Z</time>
      </trkpt>
      <trkpt lat="42.63415" lon="1.66578">
        <ele>2125.782</ele>
        <time>2022-09-17T12:18:42Z</time>
      </trkpt>
      <trkpt lat="42.63413" lon="1.66578">
        <ele>2126.423</ele>
        <time>2022-09-17T12:18:44Z</time>
      </trkpt>
      <trkpt lat="42.63412" lon="1.66577">
        <ele>2126.861</ele>
        <time>2022-09-17T12:18:46Z</time>
      </trkpt>
      <trkpt lat="42.63412" lon="1.66577">
        <ele>2127.675</ele>
        <time>2022-09-17T12:18:48Z</time>
      </trkpt>
      <trkpt lat="42.63411" lon="1.66578">
        <ele>2127.308</ele>
        <time>2022-09-17T12:18:50Z</time>
      </trkpt>
      <trkpt lat="42.63411" lon="1.6658">
        <ele>2125.861</ele>
        <time>2022-09-17T12:18:52Z</time>
      </trkpt>
      <trkpt lat="42.6341" lon="1.66581">
        <ele>2127.287</ele>
        <time>2022-09-17T12:18:54Z</time>
      </trkpt>
      <trkpt lat="42.6341" lon="1.66581">
        <ele>2127.312</ele>
        <time>2022-09-17T12:18:56Z</time>
      </trkpt>
      <trkpt lat="42.6341" lon="1.66581">
        <ele>2127.298</ele>
        <time>2022-09-17T12:18:58Z</time>
      </trkpt>
      <trkpt lat="42.6341" lon="1.66581">
        <ele>2127.305</ele>
        <time>2022-09-17T12:19:00Z</time>
      </trkpt>
      <trkpt lat="42.6341" lon="1.66581">
        <ele>2127.04</ele>
        <time>2022-09-17T12:19:02Z</time>
      </trkpt>
      <trkpt lat="42.6341" lon="1.6658">
        <ele>2126.53</ele>
        <time>2022-09-17T12:19:04Z</time>
      </trkpt>
      <trkpt lat="42.6341" lon="1.6658">
        <ele>2126.352</ele>
        <time>2022-09-17T12:19:06Z</time>
      </trkpt>
      <trkpt lat="42.63409" lon="1.66581">
        <ele>2124.884</ele>
        <time>2022-09-17T12:19:08Z</time>
      </trkpt>
      <trkpt lat="42.63409" lon="1.66583">
        <ele>2122.639</ele>
        <time>2022-09-17T12:19:10Z</time>
      </trkpt>
      <trkpt lat="42.63408" lon="1.66586">
        <ele>2122.938</ele>
        <time>2022-09-17T12:19:12Z</time>
      </trkpt>
      <trkpt lat="42.63406" lon="1.66589">
        <ele>2123.29</ele>
        <time>2022-09-17T12:19:14Z</time>
      </trkpt>
      <trkpt lat="42.63408" lon="1.66587">
        <ele>2121.918</ele>
        <time>2022-09-17T12:19:16Z</time>
      </trkpt>
      <trkpt lat="42.63408" lon="1.66588">
        <ele>2120.149</ele>
        <time>2022-09-17T12:19:18Z</time>
      </trkpt>
      <trkpt lat="42.63408" lon="1.66588">
        <ele>2120.429</ele>
        <time>2022-09-17T12:19:20Z</time>
      </trkpt>
      <trkpt lat="42.63407" lon="1.66588">
        <ele>2120.069</ele>
        <time>2022-09-17T12:19:22Z</time>
      </trkpt>
      <trkpt lat="42.63407" lon="1.66588">
        <ele>2119.046</ele>
        <time>2022-09-17T12:19:24Z</time>
      </trkpt>
      <trkpt lat="42.63406" lon="1.66588">
        <ele>2118.33</ele>
        <time>2022-09-17T12:19:26Z</time>
      </trkpt>
      <trkpt lat="42.63406" lon="1.66588">
        <ele>2118.256</ele>
        <time>2022-09-17T12:19:28Z</time>
      </trkpt>
      <trkpt lat="42.63405" lon="1.66589">
        <ele>2117.398</ele>
        <time>2022-09-17T12:19:30Z</time>
      </trkpt>
      <trkpt lat="42.63405" lon="1.6659">
        <ele>2116.508</ele>
        <time>2022-09-17T12:19:32Z</time>
      </trkpt>
      <trkpt lat="42.63405" lon="1.66591">
        <ele>2114.865</ele>
        <time>2022-09-17T12:19:34Z</time>
      </trkpt>
      <trkpt lat="42.63404" lon="1.66592">
        <ele>2113.919</ele>
        <time>2022-09-17T12:19:36Z</time>
      </trkpt>
      <trkpt lat="42.63403" lon="1.66593">
        <ele>2113.365</ele>
        <time>2022-09-17T12:19:38Z</time>
      </trkpt>
      <trkpt lat="42.63402" lon="1.66594">
        <ele>2113.454</ele>
        <time>2022-09-17T12:19:40Z</time>
      </trkpt>
      <trkpt lat="42.63402" lon="1.66594">
        <ele>2114.58</ele>
        <time>2022-09-17T12:19:42Z</time>
      </trkpt>
      <trkpt lat="42.63401" lon="1.66595">
        <ele>2113.919</ele>
        <time>2022-09-17T12:19:44Z</time>
      </trkpt>
      <trkpt lat="42.634" lon="1.66596">
        <ele>2114.227</ele>
        <time>2022-09-17T12:19:46Z</time>
      </trkpt>
      <trkpt lat="42.63399" lon="1.66598">
        <ele>2112.608</ele>
        <time>2022-09-17T12:19:48Z</time>
      </trkpt>
      <trkpt lat="42.63399" lon="1.66599">
        <ele>2111.99</ele>
        <time>2022-09-17T12:19:50Z</time>
      </trkpt>
      <trkpt lat="42.63398" lon="1.666">
        <ele>2111.807</ele>
        <time>2022-09-17T12:19:52Z</time>
      </trkpt>
      <trkpt lat="42.63398" lon="1.66601">
        <ele>2111.437</ele>
        <time>2022-09-17T12:19:54Z</time>
      </trkpt>
      <trkpt lat="42.63396" lon="1.666">
        <ele>2111.883</ele>
        <time>2022-09-17T12:19:56Z</time>
      </trkpt>
      <trkpt lat="42.63396" lon="1.666">
        <ele>2111.451</ele>
        <time>2022-09-17T12:19:58Z</time>
      </trkpt>
      <trkpt lat="42.63395" lon="1.666">
        <ele>2110.733</ele>
        <time>2022-09-17T12:20:00Z</time>
      </trkpt>
      <trkpt lat="42.63394" lon="1.66601">
        <ele>2110.04</ele>
        <time>2022-09-17T12:20:02Z</time>
      </trkpt>
      <trkpt lat="42.63394" lon="1.66599">
        <ele>2110.242</ele>
        <time>2022-09-17T12:20:04Z</time>
      </trkpt>
      <trkpt lat="42.63393" lon="1.66597">
        <ele>2110.902</ele>
        <time>2022-09-17T12:20:06Z</time>
      </trkpt>
      <trkpt lat="42.63392" lon="1.66596">
        <ele>2109.436</ele>
        <time>2022-09-17T12:20:08Z</time>
      </trkpt>
      <trkpt lat="42.63391" lon="1.66596">
        <ele>2107.927</ele>
        <time>2022-09-17T12:20:10Z</time>
      </trkpt>
      <trkpt lat="42.6339" lon="1.66596">
        <ele>2106.865</ele>
        <time>2022-09-17T12:20:12Z</time>
      </trkpt>
      <trkpt lat="42.63389" lon="1.66597">
        <ele>2106.418</ele>
        <time>2022-09-17T12:20:14Z</time>
      </trkpt>
      <trkpt lat="42.63388" lon="1.66598">
        <ele>2105.973</ele>
        <time>2022-09-17T12:20:16Z</time>
      </trkpt>
      <trkpt lat="42.63387" lon="1.66599">
        <ele>2104.428</ele>
        <time>2022-09-17T12:20:18Z</time>
      </trkpt>
      <trkpt lat="42.63386" lon="1.666">
        <ele>2103.613</ele>
        <time>2022-09-17T12:20:20Z</time>
      </trkpt>
      <trkpt lat="42.63386" lon="1.66602">
        <ele>2102.988</ele>
        <time>2022-09-17T12:20:22Z</time>
      </trkpt>
      <trkpt lat="42.63384" lon="1.66605">
        <ele>2101.334</ele>
        <time>2022-09-17T12:20:24Z</time>
      </trkpt>
      <trkpt lat="42.63384" lon="1.66608">
        <ele>2101.102</ele>
        <time>2022-09-17T12:20:26Z</time>
      </trkpt>
      <trkpt lat="42.63384" lon="1.6661">
        <ele>2099.268</ele>
        <time>2022-09-17T12:20:28Z</time>
      </trkpt>
      <trkpt lat="42.63384" lon="1.66612">
        <ele>2098.708</ele>
        <time>2022-09-17T12:20:30Z</time>
      </trkpt>
      <trkpt lat="42.63385" lon="1.66613">
        <ele>2098.624</ele>
        <time>2022-09-17T12:20:32Z</time>
      </trkpt>
      <trkpt lat="42.63384" lon="1.66614">
        <ele>2097.97</ele>
        <time>2022-09-17T12:20:34Z</time>
      </trkpt>
      <trkpt lat="42.63384" lon="1.66616">
        <ele>2098.746</ele>
        <time>2022-09-17T12:20:36Z</time>
      </trkpt>
      <trkpt lat="42.63384" lon="1.66618">
        <ele>2098.157</ele>
        <time>2022-09-17T12:20:38Z</time>
      </trkpt>
      <trkpt lat="42.63384" lon="1.6662">
        <ele>2097.53</ele>
        <time>2022-09-17T12:20:40Z</time>
      </trkpt>
      <trkpt lat="42.63384" lon="1.66622">
        <ele>2096.686</ele>
        <time>2022-09-17T12:20:42Z</time>
      </trkpt>
      <trkpt lat="42.63383" lon="1.66625">
        <ele>2095.591</ele>
        <time>2022-09-17T12:20:44Z</time>
      </trkpt>
      <trkpt lat="42.63383" lon="1.66626">
        <ele>2093.323</ele>
        <time>2022-09-17T12:20:46Z</time>
      </trkpt>
      <trkpt lat="42.63382" lon="1.66626">
        <ele>2093.616</ele>
        <time>2022-09-17T12:20:48Z</time>
      </trkpt>
      <trkpt lat="42.63381" lon="1.66626">
        <ele>2093.108</ele>
        <time>2022-09-17T12:20:50Z</time>
      </trkpt>
      <trkpt lat="42.6338" lon="1.66625">
        <ele>2093.28</ele>
        <time>2022-09-17T12:20:52Z</time>
      </trkpt>
      <trkpt lat="42.63378" lon="1.66624">
        <ele>2093.764</ele>
        <time>2022-09-17T12:20:54Z</time>
      </trkpt>
      <trkpt lat="42.63377" lon="1.66625">
        <ele>2093.683</ele>
        <time>2022-09-17T12:20:56Z</time>
      </trkpt>
      <trkpt lat="42.63376" lon="1.66624">
        <ele>2093.288</ele>
        <time>2022-09-17T12:20:58Z</time>
      </trkpt>
      <trkpt lat="42.63375" lon="1.66622">
        <ele>2092.402</ele>
        <time>2022-09-17T12:21:00Z</time>
      </trkpt>
      <trkpt lat="42.63373" lon="1.66623">
        <ele>2091.454</ele>
        <time>2022-09-17T12:21:02Z</time>
      </trkpt>
      <trkpt lat="42.63372" lon="1.66623">
        <ele>2091.347</ele>
        <time>2022-09-17T12:21:04Z</time>
      </trkpt>
      <trkpt lat="42.63371" lon="1.66624">
        <ele>2090.618</ele>
        <time>2022-09-17T12:21:06Z</time>
      </trkpt>
      <trkpt lat="42.63369" lon="1.66625">
        <ele>2089.46</ele>
        <time>2022-09-17T12:21:08Z</time>
      </trkpt>
      <trkpt lat="42.63368" lon="1.66625">
        <ele>2089.438</ele>
        <time>2022-09-17T12:21:10Z</time>
      </trkpt>
      <trkpt lat="42.63367" lon="1.66626">
        <ele>2088.676</ele>
        <time>2022-09-17T12:21:12Z</time>
      </trkpt>
      <trkpt lat="42.63367" lon="1.66627">
        <ele>2087.523</ele>
        <time>2022-09-17T12:21:14Z</time>
      </trkpt>
      <trkpt lat="42.63367" lon="1.66626">
        <ele>2086.61</ele>
        <time>2022-09-17T12:21:16Z</time>
      </trkpt>
      <trkpt lat="42.63367" lon="1.66626">
        <ele>2085.621</ele>
        <time>2022-09-17T12:21:18Z</time>
      </trkpt>
      <trkpt lat="42.63366" lon="1.66627">
        <ele>2084.463</ele>
        <time>2022-09-17T12:21:20Z</time>
      </trkpt>
      <trkpt lat="42.63366" lon="1.66626">
        <ele>2085.843</ele>
        <time>2022-09-17T12:21:22Z</time>
      </trkpt>
      <trkpt lat="42.63366" lon="1.66625">
        <ele>2085.905</ele>
        <time>2022-09-17T12:21:24Z</time>
      </trkpt>
      <trkpt lat="42.63365" lon="1.66625">
        <ele>2086.996</ele>
        <time>2022-09-17T12:21:26Z</time>
      </trkpt>
      <trkpt lat="42.63364" lon="1.66624">
        <ele>2087.022</ele>
        <time>2022-09-17T12:21:28Z</time>
      </trkpt>
      <trkpt lat="42.63363" lon="1.66624">
        <ele>2087.289</ele>
        <time>2022-09-17T12:21:30Z</time>
      </trkpt>
      <trkpt lat="42.63361" lon="1.66625">
        <ele>2088.814</ele>
        <time>2022-09-17T12:21:32Z</time>
      </trkpt>
      <trkpt lat="42.63361" lon="1.66626">
        <ele>2087.613</ele>
        <time>2022-09-17T12:21:34Z</time>
      </trkpt>
      <trkpt lat="42.63361" lon="1.66627">
        <ele>2086.724</ele>
        <time>2022-09-17T12:21:36Z</time>
      </trkpt>
      <trkpt lat="42.6336" lon="1.66628">
        <ele>2086.709</ele>
        <time>2022-09-17T12:21:38Z</time>
      </trkpt>
      <trkpt lat="42.63359" lon="1.66629">
        <ele>2087.079</ele>
        <time>2022-09-17T12:21:40Z</time>
      </trkpt>
      <trkpt lat="42.63358" lon="1.6663">
        <ele>2084.627</ele>
        <time>2022-09-17T12:21:42Z</time>
      </trkpt>
      <trkpt lat="42.63358" lon="1.6663">
        <ele>2084.631</ele>
        <time>2022-09-17T12:21:44Z</time>
      </trkpt>
      <trkpt lat="42.63357" lon="1.6663">
        <ele>2086.377</ele>
        <time>2022-09-17T12:21:46Z</time>
      </trkpt>
      <trkpt lat="42.63356" lon="1.66631">
        <ele>2086.17</ele>
        <time>2022-09-17T12:21:48Z</time>
      </trkpt>
      <trkpt lat="42.63355" lon="1.6663">
        <ele>2085.581</ele>
        <time>2022-09-17T12:21:50Z</time>
      </trkpt>
      <trkpt lat="42.63353" lon="1.6663">
        <ele>2085.64</ele>
        <time>2022-09-17T12:21:52Z</time>
      </trkpt>
      <trkpt lat="42.63352" lon="1.6663">
        <ele>2085.045</ele>
        <time>2022-09-17T12:21:54Z</time>
      </trkpt>
      <trkpt lat="42.63352" lon="1.66631">
        <ele>2084.706</ele>
        <time>2022-09-17T12:21:56Z</time>
      </trkpt>
      <trkpt lat="42.63351" lon="1.66632">
        <ele>2081.789</ele>
        <time>2022-09-17T12:21:58Z</time>
      </trkpt>
      <trkpt lat="42.63351" lon="1.66637">
        <ele>2078.401</ele>
        <time>2022-09-17T12:22:00Z</time>
      </trkpt>
      <trkpt lat="42.63351" lon="1.66641">
        <ele>2076.217</ele>
        <time>2022-09-17T12:22:02Z</time>
      </trkpt>
      <trkpt lat="42.63351" lon="1.66645">
        <ele>2075.772</ele>
        <time>2022-09-17T12:22:04Z</time>
      </trkpt>
      <trkpt lat="42.6335" lon="1.66647">
        <ele>2073.66</ele>
        <time>2022-09-17T12:22:06Z</time>
      </trkpt>
      <trkpt lat="42.63349" lon="1.66647">
        <ele>2073.271</ele>
        <time>2022-09-17T12:22:08Z</time>
      </trkpt>
      <trkpt lat="42.63348" lon="1.6665">
        <ele>2071.56</ele>
        <time>2022-09-17T12:22:10Z</time>
      </trkpt>
      <trkpt lat="42.63346" lon="1.66652">
        <ele>2071.165</ele>
        <time>2022-09-17T12:22:12Z</time>
      </trkpt>
      <trkpt lat="42.63346" lon="1.66654">
        <ele>2070.83</ele>
        <time>2022-09-17T12:22:14Z</time>
      </trkpt>
      <trkpt lat="42.63345" lon="1.66656">
        <ele>2069.012</ele>
        <time>2022-09-17T12:22:16Z</time>
      </trkpt>
      <trkpt lat="42.63343" lon="1.66657">
        <ele>2067.724</ele>
        <time>2022-09-17T12:22:18Z</time>
      </trkpt>
      <trkpt lat="42.63342" lon="1.66659">
        <ele>2066.495</ele>
        <time>2022-09-17T12:22:20Z</time>
      </trkpt>
      <trkpt lat="42.63341" lon="1.66663">
        <ele>2065.559</ele>
        <time>2022-09-17T12:22:22Z</time>
      </trkpt>
      <trkpt lat="42.6334" lon="1.66665">
        <ele>2064.728</ele>
        <time>2022-09-17T12:22:24Z</time>
      </trkpt>
      <trkpt lat="42.63339" lon="1.66668">
        <ele>2063.619</ele>
        <time>2022-09-17T12:22:26Z</time>
      </trkpt>
      <trkpt lat="42.63339" lon="1.6667">
        <ele>2062.95</ele>
        <time>2022-09-17T12:22:28Z</time>
      </trkpt>
      <trkpt lat="42.63338" lon="1.66672">
        <ele>2063.496</ele>
        <time>2022-09-17T12:22:30Z</time>
      </trkpt>
      <trkpt lat="42.63337" lon="1.66674">
        <ele>2062.464</ele>
        <time>2022-09-17T12:22:32Z</time>
      </trkpt>
      <trkpt lat="42.63336" lon="1.66676">
        <ele>2061.871</ele>
        <time>2022-09-17T12:22:34Z</time>
      </trkpt>
      <trkpt lat="42.63334" lon="1.66678">
        <ele>2061.534</ele>
        <time>2022-09-17T12:22:36Z</time>
      </trkpt>
      <trkpt lat="42.63333" lon="1.6668">
        <ele>2060.059</ele>
        <time>2022-09-17T12:22:38Z</time>
      </trkpt>
      <trkpt lat="42.63332" lon="1.66683">
        <ele>2060.167</ele>
        <time>2022-09-17T12:22:40Z</time>
      </trkpt>
      <trkpt lat="42.6333" lon="1.66684">
        <ele>2061.17</ele>
        <time>2022-09-17T12:22:42Z</time>
      </trkpt>
      <trkpt lat="42.63329" lon="1.66682">
        <ele>2061.116</ele>
        <time>2022-09-17T12:22:44Z</time>
      </trkpt>
      <trkpt lat="42.6333" lon="1.66682">
        <ele>2061.133</ele>
        <time>2022-09-17T12:22:46Z</time>
      </trkpt>
      <trkpt lat="42.6333" lon="1.66682">
        <ele>2061.114</ele>
        <time>2022-09-17T12:22:48Z</time>
      </trkpt>
      <trkpt lat="42.63329" lon="1.66682">
        <ele>2060.948</ele>
        <time>2022-09-17T12:22:50Z</time>
      </trkpt>
      <trkpt lat="42.63329" lon="1.66684">
        <ele>2061.223</ele>
        <time>2022-09-17T12:22:52Z</time>
      </trkpt>
      <trkpt lat="42.63329" lon="1.66684">
        <ele>2061.181</ele>
        <time>2022-09-17T12:22:54Z</time>
      </trkpt>
      <trkpt lat="42.63329" lon="1.66684">
        <ele>2061.167</ele>
        <time>2022-09-17T12:22:56Z</time>
      </trkpt>
      <trkpt lat="42.63329" lon="1.66684">
        <ele>2061.154</ele>
        <time>2022-09-17T12:22:58Z</time>
      </trkpt>
      <trkpt lat="42.63329" lon="1.66684">
        <ele>2061.283</ele>
        <time>2022-09-17T12:23:00Z</time>
      </trkpt>
      <trkpt lat="42.63329" lon="1.66684">
        <ele>2061.241</ele>
        <time>2022-09-17T12:23:02Z</time>
      </trkpt>
      <trkpt lat="42.63329" lon="1.66684">
        <ele>2061.221</ele>
        <time>2022-09-17T12:23:04Z</time>
      </trkpt>
      <trkpt lat="42.63329" lon="1.66684">
        <ele>2061.215</ele>
        <time>2022-09-17T12:23:06Z</time>
      </trkpt>
      <trkpt lat="42.63329" lon="1.66684">
        <ele>2061.21</ele>
        <time>2022-09-17T12:23:08Z</time>
      </trkpt>
      <trkpt lat="42.63329" lon="1.66684">
        <ele>2061.218</ele>
        <time>2022-09-17T12:23:10Z</time>
      </trkpt>
      <trkpt lat="42.63329" lon="1.66684">
        <ele>2061.209</ele>
        <time>2022-09-17T12:23:12Z</time>
      </trkpt>
      <trkpt lat="42.63329" lon="1.66684">
        <ele>2061.208</ele>
        <time>2022-09-17T12:23:14Z</time>
      </trkpt>
      <trkpt lat="42.63329" lon="1.66684">
        <ele>2060.461</ele>
        <time>2022-09-17T12:23:16Z</time>
      </trkpt>
      <trkpt lat="42.63328" lon="1.66686">
        <ele>2060.663</ele>
        <time>2022-09-17T12:23:18Z</time>
      </trkpt>
      <trkpt lat="42.63328" lon="1.66688">
        <ele>2061.261</ele>
        <time>2022-09-17T12:23:20Z</time>
      </trkpt>
      <trkpt lat="42.63328" lon="1.66691">
        <ele>2062.194</ele>
        <time>2022-09-17T12:23:22Z</time>
      </trkpt>
      <trkpt lat="42.63329" lon="1.66693">
        <ele>2063.271</ele>
        <time>2022-09-17T12:23:24Z</time>
      </trkpt>
      <trkpt lat="42.63328" lon="1.66696">
        <ele>2063.549</ele>
        <time>2022-09-17T12:23:26Z</time>
      </trkpt>
      <trkpt lat="42.63328" lon="1.66699">
        <ele>2063.657</ele>
        <time>2022-09-17T12:23:28Z</time>
      </trkpt>
      <trkpt lat="42.63327" lon="1.66701">
        <ele>2063.166</ele>
        <time>2022-09-17T12:23:30Z</time>
      </trkpt>
      <trkpt lat="42.63327" lon="1.66704">
        <ele>2062.3</ele>
        <time>2022-09-17T12:23:32Z</time>
      </trkpt>
      <trkpt lat="42.63327" lon="1.66707">
        <ele>2062.3</ele>
        <time>2022-09-17T12:23:34Z</time>
      </trkpt>
      <trkpt lat="42.63328" lon="1.6671">
        <ele>2061.814</ele>
        <time>2022-09-17T12:23:36Z</time>
      </trkpt>
      <trkpt lat="42.63328" lon="1.66713">
        <ele>2061.901</ele>
        <time>2022-09-17T12:23:38Z</time>
      </trkpt>
      <trkpt lat="42.63329" lon="1.66716">
        <ele>2062.641</ele>
        <time>2022-09-17T12:23:40Z</time>
      </trkpt>
      <trkpt lat="42.6333" lon="1.66717">
        <ele>2063.034</ele>
        <time>2022-09-17T12:23:42Z</time>
      </trkpt>
      <trkpt lat="42.63331" lon="1.66717">
        <ele>2062.502</ele>
        <time>2022-09-17T12:23:44Z</time>
      </trkpt>
      <trkpt lat="42.63332" lon="1.66719">
        <ele>2063.025</ele>
        <time>2022-09-17T12:23:46Z</time>
      </trkpt>
      <trkpt lat="42.63332" lon="1.66722">
        <ele>2063.486</ele>
        <time>2022-09-17T12:23:48Z</time>
      </trkpt>
      <trkpt lat="42.63333" lon="1.66725">
        <ele>2061.986</ele>
        <time>2022-09-17T12:23:50Z</time>
      </trkpt>
      <trkpt lat="42.63333" lon="1.66726">
        <ele>2062.897</ele>
        <time>2022-09-17T12:23:52Z</time>
      </trkpt>
      <trkpt lat="42.63332" lon="1.66729">
        <ele>2062.684</ele>
        <time>2022-09-17T12:23:54Z</time>
      </trkpt>
      <trkpt lat="42.63332" lon="1.66731">
        <ele>2062.381</ele>
        <time>2022-09-17T12:23:56Z</time>
      </trkpt>
      <trkpt lat="42.63332" lon="1.66733">
        <ele>2062.169</ele>
        <time>2022-09-17T12:23:58Z</time>
      </trkpt>
      <trkpt lat="42.63333" lon="1.66735">
        <ele>2061.451</ele>
        <time>2022-09-17T12:24:00Z</time>
      </trkpt>
      <trkpt lat="42.63334" lon="1.66737">
        <ele>2059.867</ele>
        <time>2022-09-17T12:24:02Z</time>
      </trkpt>
      <trkpt lat="42.63335" lon="1.66741">
        <ele>2059.235</ele>
        <time>2022-09-17T12:24:04Z</time>
      </trkpt>
      <trkpt lat="42.63335" lon="1.66744">
        <ele>2058.992</ele>
        <time>2022-09-17T12:24:06Z</time>
      </trkpt>
      <trkpt lat="42.63336" lon="1.66746">
        <ele>2058.493</ele>
        <time>2022-09-17T12:24:08Z</time>
      </trkpt>
      <trkpt lat="42.63337" lon="1.66749">
        <ele>2058.663</ele>
        <time>2022-09-17T12:24:10Z</time>
      </trkpt>
      <trkpt lat="42.63337" lon="1.66753">
        <ele>2059.436</ele>
        <time>2022-09-17T12:24:12Z</time>
      </trkpt>
      <trkpt lat="42.63337" lon="1.66756">
        <ele>2059.334</ele>
        <time>2022-09-17T12:24:14Z</time>
      </trkpt>
      <trkpt lat="42.63337" lon="1.6676">
        <ele>2058.015</ele>
        <time>2022-09-17T12:24:16Z</time>
      </trkpt>
      <trkpt lat="42.63338" lon="1.66763">
        <ele>2057.473</ele>
        <time>2022-09-17T12:24:18Z</time>
      </trkpt>
      <trkpt lat="42.63339" lon="1.66765">
        <ele>2056.807</ele>
        <time>2022-09-17T12:24:20Z</time>
      </trkpt>
      <trkpt lat="42.6334" lon="1.66768">
        <ele>2056.672</ele>
        <time>2022-09-17T12:24:22Z</time>
      </trkpt>
      <trkpt lat="42.63341" lon="1.66771">
        <ele>2056.621</ele>
        <time>2022-09-17T12:24:24Z</time>
      </trkpt>
      <trkpt lat="42.63342" lon="1.66772">
        <ele>2057.761</ele>
        <time>2022-09-17T12:24:26Z</time>
      </trkpt>
      <trkpt lat="42.63343" lon="1.66775">
        <ele>2057.663</ele>
        <time>2022-09-17T12:24:28Z</time>
      </trkpt>
      <trkpt lat="42.63345" lon="1.66778">
        <ele>2057.104</ele>
        <time>2022-09-17T12:24:30Z</time>
      </trkpt>
      <trkpt lat="42.63345" lon="1.6678">
        <ele>2057.049</ele>
        <time>2022-09-17T12:24:32Z</time>
      </trkpt>
      <trkpt lat="42.63345" lon="1.66783">
        <ele>2056.466</ele>
        <time>2022-09-17T12:24:34Z</time>
      </trkpt>
      <trkpt lat="42.63346" lon="1.66785">
        <ele>2056.449</ele>
        <time>2022-09-17T12:24:36Z</time>
      </trkpt>
      <trkpt lat="42.63347" lon="1.66787">
        <ele>2057.226</ele>
        <time>2022-09-17T12:24:38Z</time>
      </trkpt>
      <trkpt lat="42.63348" lon="1.66789">
        <ele>2057.662</ele>
        <time>2022-09-17T12:24:40Z</time>
      </trkpt>
      <trkpt lat="42.63349" lon="1.66791">
        <ele>2057.606</ele>
        <time>2022-09-17T12:24:42Z</time>
      </trkpt>
      <trkpt lat="42.6335" lon="1.66793">
        <ele>2057.86</ele>
        <time>2022-09-17T12:24:44Z</time>
      </trkpt>
      <trkpt lat="42.63351" lon="1.66794">
        <ele>2057.142</ele>
        <time>2022-09-17T12:24:46Z</time>
      </trkpt>
      <trkpt lat="42.63353" lon="1.66796">
        <ele>2055.964</ele>
        <time>2022-09-17T12:24:48Z</time>
      </trkpt>
      <trkpt lat="42.63354" lon="1.66798">
        <ele>2055.345</ele>
        <time>2022-09-17T12:24:50Z</time>
      </trkpt>
      <trkpt lat="42.63355" lon="1.66801">
        <ele>2055.445</ele>
        <time>2022-09-17T12:24:52Z</time>
      </trkpt>
      <trkpt lat="42.63355" lon="1.66804">
        <ele>2054.738</ele>
        <time>2022-09-17T12:24:54Z</time>
      </trkpt>
      <trkpt lat="42.63355" lon="1.66806">
        <ele>2054.085</ele>
        <time>2022-09-17T12:24:56Z</time>
      </trkpt>
      <trkpt lat="42.63356" lon="1.6681">
        <ele>2054.109</ele>
        <time>2022-09-17T12:24:58Z</time>
      </trkpt>
      <trkpt lat="42.63357" lon="1.66813">
        <ele>2054.29</ele>
        <time>2022-09-17T12:25:00Z</time>
      </trkpt>
      <trkpt lat="42.63359" lon="1.66815">
        <ele>2053.056</ele>
        <time>2022-09-17T12:25:02Z</time>
      </trkpt>
      <trkpt lat="42.6336" lon="1.66817">
        <ele>2053.329</ele>
        <time>2022-09-17T12:25:04Z</time>
      </trkpt>
      <trkpt lat="42.63361" lon="1.66819">
        <ele>2053.289</ele>
        <time>2022-09-17T12:25:06Z</time>
      </trkpt>
      <trkpt lat="42.63361" lon="1.66822">
        <ele>2052.714</ele>
        <time>2022-09-17T12:25:08Z</time>
      </trkpt>
      <trkpt lat="42.63361" lon="1.66825">
        <ele>2051.371</ele>
        <time>2022-09-17T12:25:10Z</time>
      </trkpt>
      <trkpt lat="42.63362" lon="1.66828">
        <ele>2051.533</ele>
        <time>2022-09-17T12:25:12Z</time>
      </trkpt>
      <trkpt lat="42.63363" lon="1.6683">
        <ele>2051.177</ele>
        <time>2022-09-17T12:25:14Z</time>
      </trkpt>
      <trkpt lat="42.63364" lon="1.66832">
        <ele>2051.034</ele>
        <time>2022-09-17T12:25:16Z</time>
      </trkpt>
      <trkpt lat="42.63364" lon="1.66834">
        <ele>2050.684</ele>
        <time>2022-09-17T12:25:18Z</time>
      </trkpt>
      <trkpt lat="42.63365" lon="1.66836">
        <ele>2050.591</ele>
        <time>2022-09-17T12:25:20Z</time>
      </trkpt>
      <trkpt lat="42.63364" lon="1.66838">
        <ele>2050.301</ele>
        <time>2022-09-17T12:25:22Z</time>
      </trkpt>
      <trkpt lat="42.63366" lon="1.66841">
        <ele>2051.052</ele>
        <time>2022-09-17T12:25:24Z</time>
      </trkpt>
      <trkpt lat="42.63367" lon="1.66841">
        <ele>2050.915</ele>
        <time>2022-09-17T12:25:26Z</time>
      </trkpt>
      <trkpt lat="42.63367" lon="1.66842">
        <ele>2050.506</ele>
        <time>2022-09-17T12:25:28Z</time>
      </trkpt>
      <trkpt lat="42.63368" lon="1.66843">
        <ele>2050.759</ele>
        <time>2022-09-17T12:25:30Z</time>
      </trkpt>
      <trkpt lat="42.63371" lon="1.66845">
        <ele>2052.068</ele>
        <time>2022-09-17T12:25:32Z</time>
      </trkpt>
      <trkpt lat="42.63372" lon="1.66846">
        <ele>2053.023</ele>
        <time>2022-09-17T12:25:34Z</time>
      </trkpt>
      <trkpt lat="42.63373" lon="1.66848">
        <ele>2052.236</ele>
        <time>2022-09-17T12:25:36Z</time>
      </trkpt>
      <trkpt lat="42.63374" lon="1.66849">
        <ele>2051.941</ele>
        <time>2022-09-17T12:25:38Z</time>
      </trkpt>
      <trkpt lat="42.63373" lon="1.6685">
        <ele>2051.266</ele>
        <time>2022-09-17T12:25:40Z</time>
      </trkpt>
      <trkpt lat="42.63374" lon="1.66852">
        <ele>2051.395</ele>
        <time>2022-09-17T12:25:42Z</time>
      </trkpt>
      <trkpt lat="42.63374" lon="1.66854">
        <ele>2050.774</ele>
        <time>2022-09-17T12:25:44Z</time>
      </trkpt>
      <trkpt lat="42.63374" lon="1.66855">
        <ele>2050.974</ele>
        <time>2022-09-17T12:25:46Z</time>
      </trkpt>
      <trkpt lat="42.63373" lon="1.66856">
        <ele>2050.327</ele>
        <time>2022-09-17T12:25:48Z</time>
      </trkpt>
      <trkpt lat="42.63373" lon="1.66858">
        <ele>2050.043</ele>
        <time>2022-09-17T12:25:50Z</time>
      </trkpt>
      <trkpt lat="42.63374" lon="1.66859">
        <ele>2049.995</ele>
        <time>2022-09-17T12:25:52Z</time>
      </trkpt>
      <trkpt lat="42.63373" lon="1.6686">
        <ele>2049.423</ele>
        <time>2022-09-17T12:25:54Z</time>
      </trkpt>
      <trkpt lat="42.63375" lon="1.66862">
        <ele>2048.724</ele>
        <time>2022-09-17T12:25:56Z</time>
      </trkpt>
      <trkpt lat="42.63375" lon="1.66862">
        <ele>2048.809</ele>
        <time>2022-09-17T12:25:58Z</time>
      </trkpt>
      <trkpt lat="42.63376" lon="1.66862">
        <ele>2048.654</ele>
        <time>2022-09-17T12:26:00Z</time>
      </trkpt>
      <trkpt lat="42.63377" lon="1.66864">
        <ele>2048.52</ele>
        <time>2022-09-17T12:26:02Z</time>
      </trkpt>
      <trkpt lat="42.63378" lon="1.66865">
        <ele>2048.221</ele>
        <time>2022-09-17T12:26:04Z</time>
      </trkpt>
      <trkpt lat="42.63378" lon="1.66866">
        <ele>2048.055</ele>
        <time>2022-09-17T12:26:06Z</time>
      </trkpt>
      <trkpt lat="42.63377" lon="1.66869">
        <ele>2047.489</ele>
        <time>2022-09-17T12:26:08Z</time>
      </trkpt>
      <trkpt lat="42.63377" lon="1.6687">
        <ele>2046.654</ele>
        <time>2022-09-17T12:26:10Z</time>
      </trkpt>
      <trkpt lat="42.63377" lon="1.66872">
        <ele>2046.175</ele>
        <time>2022-09-17T12:26:12Z</time>
      </trkpt>
      <trkpt lat="42.63377" lon="1.66874">
        <ele>2045.921</ele>
        <time>2022-09-17T12:26:14Z</time>
      </trkpt>
      <trkpt lat="42.63377" lon="1.66875">
        <ele>2045.472</ele>
        <time>2022-09-17T12:26:16Z</time>
      </trkpt>
      <trkpt lat="42.63377" lon="1.66877">
        <ele>2045.486</ele>
        <time>2022-09-17T12:26:18Z</time>
      </trkpt>
      <trkpt lat="42.63377" lon="1.66881">
        <ele>2044.52</ele>
        <time>2022-09-17T12:26:20Z</time>
      </trkpt>
      <trkpt lat="42.63377" lon="1.66883">
        <ele>2044.659</ele>
        <time>2022-09-17T12:26:22Z</time>
      </trkpt>
      <trkpt lat="42.63377" lon="1.66886">
        <ele>2044.782</ele>
        <time>2022-09-17T12:26:24Z</time>
      </trkpt>
      <trkpt lat="42.63378" lon="1.66888">
        <ele>2044.718</ele>
        <time>2022-09-17T12:26:26Z</time>
      </trkpt>
      <trkpt lat="42.63378" lon="1.6689">
        <ele>2044.12</ele>
        <time>2022-09-17T12:26:28Z</time>
      </trkpt>
      <trkpt lat="42.63379" lon="1.66892">
        <ele>2044.102</ele>
        <time>2022-09-17T12:26:30Z</time>
      </trkpt>
      <trkpt lat="42.6338" lon="1.66894">
        <ele>2043.777</ele>
        <time>2022-09-17T12:26:32Z</time>
      </trkpt>
      <trkpt lat="42.6338" lon="1.66896">
        <ele>2044.155</ele>
        <time>2022-09-17T12:26:34Z</time>
      </trkpt>
      <trkpt lat="42.63381" lon="1.66899">
        <ele>2043.817</ele>
        <time>2022-09-17T12:26:36Z</time>
      </trkpt>
      <trkpt lat="42.63382" lon="1.66901">
        <ele>2043.708</ele>
        <time>2022-09-17T12:26:38Z</time>
      </trkpt>
      <trkpt lat="42.63383" lon="1.66903">
        <ele>2042.948</ele>
        <time>2022-09-17T12:26:40Z</time>
      </trkpt>
      <trkpt lat="42.63383" lon="1.66906">
        <ele>2043.24</ele>
        <time>2022-09-17T12:26:42Z</time>
      </trkpt>
      <trkpt lat="42.63384" lon="1.66908">
        <ele>2043.014</ele>
        <time>2022-09-17T12:26:44Z</time>
      </trkpt>
      <trkpt lat="42.63386" lon="1.66909">
        <ele>2042.593</ele>
        <time>2022-09-17T12:26:46Z</time>
      </trkpt>
      <trkpt lat="42.63388" lon="1.66912">
        <ele>2041.784</ele>
        <time>2022-09-17T12:26:48Z</time>
      </trkpt>
      <trkpt lat="42.63388" lon="1.66915">
        <ele>2043.631</ele>
        <time>2022-09-17T12:26:50Z</time>
      </trkpt>
      <trkpt lat="42.63389" lon="1.66917">
        <ele>2043.816</ele>
        <time>2022-09-17T12:26:52Z</time>
      </trkpt>
      <trkpt lat="42.6339" lon="1.66919">
        <ele>2043.918</ele>
        <time>2022-09-17T12:26:54Z</time>
      </trkpt>
      <trkpt lat="42.63392" lon="1.6692">
        <ele>2043.164</ele>
        <time>2022-09-17T12:26:56Z</time>
      </trkpt>
      <trkpt lat="42.63392" lon="1.66921">
        <ele>2042.448</ele>
        <time>2022-09-17T12:26:58Z</time>
      </trkpt>
      <trkpt lat="42.63393" lon="1.66923">
        <ele>2042.67</ele>
        <time>2022-09-17T12:27:00Z</time>
      </trkpt>
      <trkpt lat="42.63394" lon="1.66924">
        <ele>2042.373</ele>
        <time>2022-09-17T12:27:02Z</time>
      </trkpt>
      <trkpt lat="42.63395" lon="1.66926">
        <ele>2041.638</ele>
        <time>2022-09-17T12:27:04Z</time>
      </trkpt>
      <trkpt lat="42.63396" lon="1.66927">
        <ele>2041.848</ele>
        <time>2022-09-17T12:27:06Z</time>
      </trkpt>
      <trkpt lat="42.63397" lon="1.66929">
        <ele>2042.063</ele>
        <time>2022-09-17T12:27:08Z</time>
      </trkpt>
      <trkpt lat="42.63398" lon="1.6693">
        <ele>2041.888</ele>
        <time>2022-09-17T12:27:10Z</time>
      </trkpt>
      <trkpt lat="42.63399" lon="1.66931">
        <ele>2041.62</ele>
        <time>2022-09-17T12:27:12Z</time>
      </trkpt>
      <trkpt lat="42.634" lon="1.66933">
        <ele>2041.726</ele>
        <time>2022-09-17T12:27:14Z</time>
      </trkpt>
      <trkpt lat="42.63401" lon="1.66934">
        <ele>2041.698</ele>
        <time>2022-09-17T12:27:16Z</time>
      </trkpt>
      <trkpt lat="42.63402" lon="1.66936">
        <ele>2042.116</ele>
        <time>2022-09-17T12:27:18Z</time>
      </trkpt>
      <trkpt lat="42.63403" lon="1.66937">
        <ele>2041.497</ele>
        <time>2022-09-17T12:27:20Z</time>
      </trkpt>
      <trkpt lat="42.63404" lon="1.66938">
        <ele>2042.033</ele>
        <time>2022-09-17T12:27:22Z</time>
      </trkpt>
      <trkpt lat="42.63405" lon="1.6694">
        <ele>2042.171</ele>
        <time>2022-09-17T12:27:24Z</time>
      </trkpt>
      <trkpt lat="42.63405" lon="1.66943">
        <ele>2042.472</ele>
        <time>2022-09-17T12:27:26Z</time>
      </trkpt>
      <trkpt lat="42.63406" lon="1.66945">
        <ele>2041.505</ele>
        <time>2022-09-17T12:27:28Z</time>
      </trkpt>
      <trkpt lat="42.63407" lon="1.66947">
        <ele>2040.599</ele>
        <time>2022-09-17T12:27:30Z</time>
      </trkpt>
      <trkpt lat="42.63407" lon="1.66949">
        <ele>2040.789</ele>
        <time>2022-09-17T12:27:32Z</time>
      </trkpt>
      <trkpt lat="42.63407" lon="1.66952">
        <ele>2041.343</ele>
        <time>2022-09-17T12:27:34Z</time>
      </trkpt>
      <trkpt lat="42.63407" lon="1.66955">
        <ele>2040.992</ele>
        <time>2022-09-17T12:27:36Z</time>
      </trkpt>
      <trkpt lat="42.63409" lon="1.66957">
        <ele>2041.349</ele>
        <time>2022-09-17T12:27:38Z</time>
      </trkpt>
      <trkpt lat="42.6341" lon="1.66959">
        <ele>2042.104</ele>
        <time>2022-09-17T12:27:40Z</time>
      </trkpt>
      <trkpt lat="42.63411" lon="1.66961">
        <ele>2041.392</ele>
        <time>2022-09-17T12:27:42Z</time>
      </trkpt>
      <trkpt lat="42.63412" lon="1.66962">
        <ele>2041.527</ele>
        <time>2022-09-17T12:27:44Z</time>
      </trkpt>
      <trkpt lat="42.63414" lon="1.66963">
        <ele>2042.476</ele>
        <time>2022-09-17T12:27:46Z</time>
      </trkpt>
      <trkpt lat="42.63415" lon="1.66964">
        <ele>2042.427</ele>
        <time>2022-09-17T12:27:48Z</time>
      </trkpt>
      <trkpt lat="42.63416" lon="1.66965">
        <ele>2041.964</ele>
        <time>2022-09-17T12:27:50Z</time>
      </trkpt>
      <trkpt lat="42.63417" lon="1.66966">
        <ele>2041.275</ele>
        <time>2022-09-17T12:27:52Z</time>
      </trkpt>
      <trkpt lat="42.63418" lon="1.66966">
        <ele>2039.977</ele>
        <time>2022-09-17T12:27:54Z</time>
      </trkpt>
      <trkpt lat="42.63418" lon="1.66968">
        <ele>2040.029</ele>
        <time>2022-09-17T12:27:56Z</time>
      </trkpt>
      <trkpt lat="42.63418" lon="1.6697">
        <ele>2040.131</ele>
        <time>2022-09-17T12:27:58Z</time>
      </trkpt>
      <trkpt lat="42.6342" lon="1.66972">
        <ele>2039.526</ele>
        <time>2022-09-17T12:28:00Z</time>
      </trkpt>
      <trkpt lat="42.6342" lon="1.66974">
        <ele>2039.278</ele>
        <time>2022-09-17T12:28:02Z</time>
      </trkpt>
      <trkpt lat="42.63421" lon="1.66976">
        <ele>2038.86</ele>
        <time>2022-09-17T12:28:04Z</time>
      </trkpt>
      <trkpt lat="42.63421" lon="1.66978">
        <ele>2037.327</ele>
        <time>2022-09-17T12:28:06Z</time>
      </trkpt>
      <trkpt lat="42.63422" lon="1.6698">
        <ele>2035.94</ele>
        <time>2022-09-17T12:28:08Z</time>
      </trkpt>
      <trkpt lat="42.63423" lon="1.66983">
        <ele>2036.632</ele>
        <time>2022-09-17T12:28:10Z</time>
      </trkpt>
      <trkpt lat="42.63424" lon="1.66985">
        <ele>2035.973</ele>
        <time>2022-09-17T12:28:12Z</time>
      </trkpt>
      <trkpt lat="42.63424" lon="1.66987">
        <ele>2036.054</ele>
        <time>2022-09-17T12:28:14Z</time>
      </trkpt>
      <trkpt lat="42.63425" lon="1.66989">
        <ele>2034.745</ele>
        <time>2022-09-17T12:28:16Z</time>
      </trkpt>
      <trkpt lat="42.63426" lon="1.66992">
        <ele>2034.297</ele>
        <time>2022-09-17T12:28:18Z</time>
      </trkpt>
      <trkpt lat="42.63426" lon="1.66994">
        <ele>2033.055</ele>
        <time>2022-09-17T12:28:20Z</time>
      </trkpt>
      <trkpt lat="42.63428" lon="1.66996">
        <ele>2032.326</ele>
        <time>2022-09-17T12:28:22Z</time>
      </trkpt>
      <trkpt lat="42.63429" lon="1.66998">
        <ele>2032.654</ele>
        <time>2022-09-17T12:28:24Z</time>
      </trkpt>
      <trkpt lat="42.63429" lon="1.67">
        <ele>2033.439</ele>
        <time>2022-09-17T12:28:26Z</time>
      </trkpt>
      <trkpt lat="42.6343" lon="1.67002">
        <ele>2033.611</ele>
        <time>2022-09-17T12:28:28Z</time>
      </trkpt>
      <trkpt lat="42.63431" lon="1.67004">
        <ele>2033.819</ele>
        <time>2022-09-17T12:28:30Z</time>
      </trkpt>
      <trkpt lat="42.63432" lon="1.67007">
        <ele>2033.429</ele>
        <time>2022-09-17T12:28:32Z</time>
      </trkpt>
      <trkpt lat="42.63432" lon="1.6701">
        <ele>2033.395</ele>
        <time>2022-09-17T12:28:34Z</time>
      </trkpt>
      <trkpt lat="42.63433" lon="1.67013">
        <ele>2032.937</ele>
        <time>2022-09-17T12:28:36Z</time>
      </trkpt>
      <trkpt lat="42.63434" lon="1.67016">
        <ele>2033.29</ele>
        <time>2022-09-17T12:28:38Z</time>
      </trkpt>
      <trkpt lat="42.63434" lon="1.67019">
        <ele>2033.527</ele>
        <time>2022-09-17T12:28:40Z</time>
      </trkpt>
      <trkpt lat="42.63434" lon="1.67022">
        <ele>2034.091</ele>
        <time>2022-09-17T12:28:42Z</time>
      </trkpt>
      <trkpt lat="42.63435" lon="1.67026">
        <ele>2033.676</ele>
        <time>2022-09-17T12:28:44Z</time>
      </trkpt>
      <trkpt lat="42.63436" lon="1.67029">
        <ele>2032.724</ele>
        <time>2022-09-17T12:28:46Z</time>
      </trkpt>
      <trkpt lat="42.63435" lon="1.67032">
        <ele>2032.591</ele>
        <time>2022-09-17T12:28:48Z</time>
      </trkpt>
      <trkpt lat="42.63435" lon="1.67035">
        <ele>2031.674</ele>
        <time>2022-09-17T12:28:50Z</time>
      </trkpt>
      <trkpt lat="42.63435" lon="1.67038">
        <ele>2031.255</ele>
        <time>2022-09-17T12:28:52Z</time>
      </trkpt>
      <trkpt lat="42.63435" lon="1.67041">
        <ele>2031.662</ele>
        <time>2022-09-17T12:28:54Z</time>
      </trkpt>
      <trkpt lat="42.63435" lon="1.67043">
        <ele>2031.298</ele>
        <time>2022-09-17T12:28:56Z</time>
      </trkpt>
      <trkpt lat="42.63435" lon="1.67046">
        <ele>2031.174</ele>
        <time>2022-09-17T12:28:58Z</time>
      </trkpt>
      <trkpt lat="42.63434" lon="1.6705">
        <ele>2031.52</ele>
        <time>2022-09-17T12:29:00Z</time>
      </trkpt>
      <trkpt lat="42.63434" lon="1.67053">
        <ele>2032.804</ele>
        <time>2022-09-17T12:29:02Z</time>
      </trkpt>
      <trkpt lat="42.63434" lon="1.67057">
        <ele>2033.459</ele>
        <time>2022-09-17T12:29:04Z</time>
      </trkpt>
      <trkpt lat="42.63434" lon="1.6706">
        <ele>2033.498</ele>
        <time>2022-09-17T12:29:06Z</time>
      </trkpt>
      <trkpt lat="42.63434" lon="1.67064">
        <ele>2033.585</ele>
        <time>2022-09-17T12:29:08Z</time>
      </trkpt>
      <trkpt lat="42.63434" lon="1.67067">
        <ele>2033.65</ele>
        <time>2022-09-17T12:29:10Z</time>
      </trkpt>
      <trkpt lat="42.63434" lon="1.6707">
        <ele>2033.179</ele>
        <time>2022-09-17T12:29:12Z</time>
      </trkpt>
      <trkpt lat="42.63434" lon="1.67073">
        <ele>2032.527</ele>
        <time>2022-09-17T12:29:14Z</time>
      </trkpt>
      <trkpt lat="42.63434" lon="1.67076">
        <ele>2032.809</ele>
        <time>2022-09-17T12:29:16Z</time>
      </trkpt>
      <trkpt lat="42.63435" lon="1.67078">
        <ele>2033.126</ele>
        <time>2022-09-17T12:29:18Z</time>
      </trkpt>
      <trkpt lat="42.63436" lon="1.67081">
        <ele>2032.788</ele>
        <time>2022-09-17T12:29:20Z</time>
      </trkpt>
      <trkpt lat="42.63437" lon="1.67083">
        <ele>2032.671</ele>
        <time>2022-09-17T12:29:22Z</time>
      </trkpt>
      <trkpt lat="42.63438" lon="1.67086">
        <ele>2032.562</ele>
        <time>2022-09-17T12:29:24Z</time>
      </trkpt>
      <trkpt lat="42.63438" lon="1.67089">
        <ele>2032.578</ele>
        <time>2022-09-17T12:29:26Z</time>
      </trkpt>
      <trkpt lat="42.63438" lon="1.67092">
        <ele>2033.172</ele>
        <time>2022-09-17T12:29:28Z</time>
      </trkpt>
      <trkpt lat="42.63438" lon="1.67095">
        <ele>2033.036</ele>
        <time>2022-09-17T12:29:30Z</time>
      </trkpt>
      <trkpt lat="42.63439" lon="1.67098">
        <ele>2030.908</ele>
        <time>2022-09-17T12:29:32Z</time>
      </trkpt>
      <trkpt lat="42.6344" lon="1.67101">
        <ele>2030.956</ele>
        <time>2022-09-17T12:29:34Z</time>
      </trkpt>
      <trkpt lat="42.63439" lon="1.67104">
        <ele>2032.135</ele>
        <time>2022-09-17T12:29:36Z</time>
      </trkpt>
      <trkpt lat="42.6344" lon="1.67107">
        <ele>2032.886</ele>
        <time>2022-09-17T12:29:38Z</time>
      </trkpt>
      <trkpt lat="42.63442" lon="1.6711">
        <ele>2032.033</ele>
        <time>2022-09-17T12:29:40Z</time>
      </trkpt>
      <trkpt lat="42.63442" lon="1.67112">
        <ele>2031.692</ele>
        <time>2022-09-17T12:29:42Z</time>
      </trkpt>
      <trkpt lat="42.63442" lon="1.67115">
        <ele>2031.669</ele>
        <time>2022-09-17T12:29:44Z</time>
      </trkpt>
      <trkpt lat="42.63443" lon="1.67118">
        <ele>2032.588</ele>
        <time>2022-09-17T12:29:46Z</time>
      </trkpt>
      <trkpt lat="42.63443" lon="1.67121">
        <ele>2031.967</ele>
        <time>2022-09-17T12:29:48Z</time>
      </trkpt>
      <trkpt lat="42.63444" lon="1.67123">
        <ele>2031.587</ele>
        <time>2022-09-17T12:29:50Z</time>
      </trkpt>
      <trkpt lat="42.63444" lon="1.67126">
        <ele>2032.019</ele>
        <time>2022-09-17T12:29:52Z</time>
      </trkpt>
      <trkpt lat="42.63445" lon="1.67129">
        <ele>2032.502</ele>
        <time>2022-09-17T12:29:54Z</time>
      </trkpt>
      <trkpt lat="42.63445" lon="1.67132">
        <ele>2032.872</ele>
        <time>2022-09-17T12:29:56Z</time>
      </trkpt>
      <trkpt lat="42.63446" lon="1.67136">
        <ele>2032.383</ele>
        <time>2022-09-17T12:29:58Z</time>
      </trkpt>
      <trkpt lat="42.63447" lon="1.67139">
        <ele>2032.156</ele>
        <time>2022-09-17T12:30:00Z</time>
      </trkpt>
      <trkpt lat="42.63448" lon="1.67142">
        <ele>2032.285</ele>
        <time>2022-09-17T12:30:02Z</time>
      </trkpt>
      <trkpt lat="42.63449" lon="1.67145">
        <ele>2031.394</ele>
        <time>2022-09-17T12:30:04Z</time>
      </trkpt>
      <trkpt lat="42.63451" lon="1.67147">
        <ele>2032.014</ele>
        <time>2022-09-17T12:30:06Z</time>
      </trkpt>
      <trkpt lat="42.63452" lon="1.67148">
        <ele>2031.997</ele>
        <time>2022-09-17T12:30:08Z</time>
      </trkpt>
      <trkpt lat="42.63453" lon="1.67151">
        <ele>2032.098</ele>
        <time>2022-09-17T12:30:10Z</time>
      </trkpt>
      <trkpt lat="42.63455" lon="1.67152">
        <ele>2031.998</ele>
        <time>2022-09-17T12:30:12Z</time>
      </trkpt>
      <trkpt lat="42.63456" lon="1.67155">
        <ele>2031.905</ele>
        <time>2022-09-17T12:30:14Z</time>
      </trkpt>
      <trkpt lat="42.63457" lon="1.67157">
        <ele>2031.409</ele>
        <time>2022-09-17T12:30:16Z</time>
      </trkpt>
      <trkpt lat="42.63459" lon="1.6716">
        <ele>2031.725</ele>
        <time>2022-09-17T12:30:18Z</time>
      </trkpt>
      <trkpt lat="42.6346" lon="1.67163">
        <ele>2032.333</ele>
        <time>2022-09-17T12:30:20Z</time>
      </trkpt>
      <trkpt lat="42.63461" lon="1.67165">
        <ele>2032.153</ele>
        <time>2022-09-17T12:30:22Z</time>
      </trkpt>
      <trkpt lat="42.63462" lon="1.67167">
        <ele>2032.119</ele>
        <time>2022-09-17T12:30:24Z</time>
      </trkpt>
      <trkpt lat="42.63464" lon="1.67169">
        <ele>2032.537</ele>
        <time>2022-09-17T12:30:26Z</time>
      </trkpt>
      <trkpt lat="42.63464" lon="1.67172">
        <ele>2033.271</ele>
        <time>2022-09-17T12:30:28Z</time>
      </trkpt>
      <trkpt lat="42.63466" lon="1.67174">
        <ele>2032.873</ele>
        <time>2022-09-17T12:30:30Z</time>
      </trkpt>
      <trkpt lat="42.63467" lon="1.67176">
        <ele>2032.747</ele>
        <time>2022-09-17T12:30:32Z</time>
      </trkpt>
      <trkpt lat="42.63468" lon="1.67178">
        <ele>2032.257</ele>
        <time>2022-09-17T12:30:34Z</time>
      </trkpt>
      <trkpt lat="42.6347" lon="1.6718">
        <ele>2032.284</ele>
        <time>2022-09-17T12:30:36Z</time>
      </trkpt>
      <trkpt lat="42.63471" lon="1.67182">
        <ele>2032.708</ele>
        <time>2022-09-17T12:30:38Z</time>
      </trkpt>
      <trkpt lat="42.63472" lon="1.67185">
        <ele>2032.754</ele>
        <time>2022-09-17T12:30:40Z</time>
      </trkpt>
      <trkpt lat="42.63474" lon="1.67187">
        <ele>2032.428</ele>
        <time>2022-09-17T12:30:42Z</time>
      </trkpt>
      <trkpt lat="42.63475" lon="1.67189">
        <ele>2031.963</ele>
        <time>2022-09-17T12:30:44Z</time>
      </trkpt>
      <trkpt lat="42.63476" lon="1.67192">
        <ele>2031.382</ele>
        <time>2022-09-17T12:30:46Z</time>
      </trkpt>
      <trkpt lat="42.63476" lon="1.67195">
        <ele>2031.533</ele>
        <time>2022-09-17T12:30:48Z</time>
      </trkpt>
      <trkpt lat="42.63478" lon="1.67196">
        <ele>2032.378</ele>
        <time>2022-09-17T12:30:50Z</time>
      </trkpt>
      <trkpt lat="42.63479" lon="1.67197">
        <ele>2032.06</ele>
        <time>2022-09-17T12:30:52Z</time>
      </trkpt>
      <trkpt lat="42.63481" lon="1.67199">
        <ele>2031.847</ele>
        <time>2022-09-17T12:30:54Z</time>
      </trkpt>
      <trkpt lat="42.63482" lon="1.672">
        <ele>2031.464</ele>
        <time>2022-09-17T12:30:56Z</time>
      </trkpt>
      <trkpt lat="42.63484" lon="1.67202">
        <ele>2030.694</ele>
        <time>2022-09-17T12:30:58Z</time>
      </trkpt>
      <trkpt lat="42.63485" lon="1.67204">
        <ele>2030.846</ele>
        <time>2022-09-17T12:31:00Z</time>
      </trkpt>
      <trkpt lat="42.63486" lon="1.67206">
        <ele>2031.468</ele>
        <time>2022-09-17T12:31:02Z</time>
      </trkpt>
      <trkpt lat="42.63486" lon="1.67209">
        <ele>2031.287</ele>
        <time>2022-09-17T12:31:04Z</time>
      </trkpt>
      <trkpt lat="42.63486" lon="1.67213">
        <ele>2031.266</ele>
        <time>2022-09-17T12:31:06Z</time>
      </trkpt>
      <trkpt lat="42.63486" lon="1.67216">
        <ele>2030.301</ele>
        <time>2022-09-17T12:31:08Z</time>
      </trkpt>
      <trkpt lat="42.63487" lon="1.67219">
        <ele>2029.746</ele>
        <time>2022-09-17T12:31:10Z</time>
      </trkpt>
      <trkpt lat="42.63487" lon="1.67222">
        <ele>2029.464</ele>
        <time>2022-09-17T12:31:12Z</time>
      </trkpt>
      <trkpt lat="42.63488" lon="1.67225">
        <ele>2028.951</ele>
        <time>2022-09-17T12:31:14Z</time>
      </trkpt>
      <trkpt lat="42.63488" lon="1.67228">
        <ele>2029.384</ele>
        <time>2022-09-17T12:31:16Z</time>
      </trkpt>
      <trkpt lat="42.63488" lon="1.67231">
        <ele>2029.836</ele>
        <time>2022-09-17T12:31:18Z</time>
      </trkpt>
      <trkpt lat="42.63489" lon="1.67234">
        <ele>2029.289</ele>
        <time>2022-09-17T12:31:20Z</time>
      </trkpt>
      <trkpt lat="42.63491" lon="1.67237">
        <ele>2028.845</ele>
        <time>2022-09-17T12:31:22Z</time>
      </trkpt>
      <trkpt lat="42.63492" lon="1.67239">
        <ele>2028.295</ele>
        <time>2022-09-17T12:31:24Z</time>
      </trkpt>
      <trkpt lat="42.63492" lon="1.67242">
        <ele>2028.23</ele>
        <time>2022-09-17T12:31:26Z</time>
      </trkpt>
      <trkpt lat="42.63493" lon="1.67245">
        <ele>2028.131</ele>
        <time>2022-09-17T12:31:28Z</time>
      </trkpt>
      <trkpt lat="42.63494" lon="1.67247">
        <ele>2027.875</ele>
        <time>2022-09-17T12:31:30Z</time>
      </trkpt>
      <trkpt lat="42.63494" lon="1.67249">
        <ele>2028.411</ele>
        <time>2022-09-17T12:31:32Z</time>
      </trkpt>
      <trkpt lat="42.63495" lon="1.67251">
        <ele>2028.552</ele>
        <time>2022-09-17T12:31:34Z</time>
      </trkpt>
      <trkpt lat="42.63496" lon="1.67254">
        <ele>2027.925</ele>
        <time>2022-09-17T12:31:36Z</time>
      </trkpt>
      <trkpt lat="42.63496" lon="1.67256">
        <ele>2028.637</ele>
        <time>2022-09-17T12:31:38Z</time>
      </trkpt>
      <trkpt lat="42.63497" lon="1.67257">
        <ele>2028.221</ele>
        <time>2022-09-17T12:31:40Z</time>
      </trkpt>
      <trkpt lat="42.63498" lon="1.67259">
        <ele>2030.051</ele>
        <time>2022-09-17T12:31:42Z</time>
      </trkpt>
      <trkpt lat="42.63499" lon="1.6726">
        <ele>2029.775</ele>
        <time>2022-09-17T12:31:44Z</time>
      </trkpt>
      <trkpt lat="42.63499" lon="1.67261">
        <ele>2030.738</ele>
        <time>2022-09-17T12:31:46Z</time>
      </trkpt>
      <trkpt lat="42.63499" lon="1.67261">
        <ele>2030.754</ele>
        <time>2022-09-17T12:31:48Z</time>
      </trkpt>
      <trkpt lat="42.63499" lon="1.67261">
        <ele>2030.765</ele>
        <time>2022-09-17T12:31:50Z</time>
      </trkpt>
      <trkpt lat="42.63499" lon="1.67261">
        <ele>2030.759</ele>
        <time>2022-09-17T12:31:52Z</time>
      </trkpt>
      <trkpt lat="42.635" lon="1.67262">
        <ele>2031.11</ele>
        <time>2022-09-17T12:31:54Z</time>
      </trkpt>
      <trkpt lat="42.63501" lon="1.67262">
        <ele>2028.958</ele>
        <time>2022-09-17T12:31:56Z</time>
      </trkpt>
      <trkpt lat="42.63501" lon="1.67264">
        <ele>2029.413</ele>
        <time>2022-09-17T12:31:58Z</time>
      </trkpt>
      <trkpt lat="42.63502" lon="1.67266">
        <ele>2029.549</ele>
        <time>2022-09-17T12:32:00Z</time>
      </trkpt>
      <trkpt lat="42.63502" lon="1.67269">
        <ele>2029.479</ele>
        <time>2022-09-17T12:32:02Z</time>
      </trkpt>
      <trkpt lat="42.63503" lon="1.67272">
        <ele>2029.541</ele>
        <time>2022-09-17T12:32:04Z</time>
      </trkpt>
      <trkpt lat="42.63503" lon="1.67275">
        <ele>2028.949</ele>
        <time>2022-09-17T12:32:06Z</time>
      </trkpt>
      <trkpt lat="42.63504" lon="1.67277">
        <ele>2029.781</ele>
        <time>2022-09-17T12:32:08Z</time>
      </trkpt>
      <trkpt lat="42.63505" lon="1.67279">
        <ele>2029.801</ele>
        <time>2022-09-17T12:32:10Z</time>
      </trkpt>
      <trkpt lat="42.63506" lon="1.67281">
        <ele>2029.382</ele>
        <time>2022-09-17T12:32:12Z</time>
      </trkpt>
      <trkpt lat="42.63506" lon="1.67283">
        <ele>2028.977</ele>
        <time>2022-09-17T12:32:14Z</time>
      </trkpt>
      <trkpt lat="42.63506" lon="1.67285">
        <ele>2029.317</ele>
        <time>2022-09-17T12:32:16Z</time>
      </trkpt>
      <trkpt lat="42.63505" lon="1.67287">
        <ele>2030.28</ele>
        <time>2022-09-17T12:32:18Z</time>
      </trkpt>
      <trkpt lat="42.63504" lon="1.67287">
        <ele>2030.364</ele>
        <time>2022-09-17T12:32:20Z</time>
      </trkpt>
      <trkpt lat="42.63505" lon="1.6729">
        <ele>2029.577</ele>
        <time>2022-09-17T12:32:22Z</time>
      </trkpt>
      <trkpt lat="42.63506" lon="1.67292">
        <ele>2029.283</ele>
        <time>2022-09-17T12:32:24Z</time>
      </trkpt>
      <trkpt lat="42.63507" lon="1.67294">
        <ele>2028.842</ele>
        <time>2022-09-17T12:32:26Z</time>
      </trkpt>
      <trkpt lat="42.63507" lon="1.67297">
        <ele>2028.766</ele>
        <time>2022-09-17T12:32:28Z</time>
      </trkpt>
      <trkpt lat="42.63507" lon="1.67301">
        <ele>2029.49</ele>
        <time>2022-09-17T12:32:30Z</time>
      </trkpt>
      <trkpt lat="42.63507" lon="1.67303">
        <ele>2030.21</ele>
        <time>2022-09-17T12:32:32Z</time>
      </trkpt>
      <trkpt lat="42.63507" lon="1.67306">
        <ele>2030.687</ele>
        <time>2022-09-17T12:32:34Z</time>
      </trkpt>
      <trkpt lat="42.63507" lon="1.67308">
        <ele>2030.071</ele>
        <time>2022-09-17T12:32:36Z</time>
      </trkpt>
      <trkpt lat="42.63507" lon="1.6731">
        <ele>2029.729</ele>
        <time>2022-09-17T12:32:38Z</time>
      </trkpt>
      <trkpt lat="42.63509" lon="1.67312">
        <ele>2029.883</ele>
        <time>2022-09-17T12:32:40Z</time>
      </trkpt>
      <trkpt lat="42.63509" lon="1.67314">
        <ele>2029.031</ele>
        <time>2022-09-17T12:32:42Z</time>
      </trkpt>
      <trkpt lat="42.6351" lon="1.67316">
        <ele>2029.992</ele>
        <time>2022-09-17T12:32:44Z</time>
      </trkpt>
      <trkpt lat="42.63511" lon="1.67318">
        <ele>2030.308</ele>
        <time>2022-09-17T12:32:46Z</time>
      </trkpt>
      <trkpt lat="42.63512" lon="1.6732">
        <ele>2030.29</ele>
        <time>2022-09-17T12:32:48Z</time>
      </trkpt>
      <trkpt lat="42.63512" lon="1.67322">
        <ele>2030.723</ele>
        <time>2022-09-17T12:32:50Z</time>
      </trkpt>
      <trkpt lat="42.63513" lon="1.67324">
        <ele>2030.537</ele>
        <time>2022-09-17T12:32:52Z</time>
      </trkpt>
      <trkpt lat="42.63513" lon="1.67327">
        <ele>2029.961</ele>
        <time>2022-09-17T12:32:54Z</time>
      </trkpt>
      <trkpt lat="42.63514" lon="1.67329">
        <ele>2030.14</ele>
        <time>2022-09-17T12:32:56Z</time>
      </trkpt>
      <trkpt lat="42.63513" lon="1.67331">
        <ele>2030.506</ele>
        <time>2022-09-17T12:32:58Z</time>
      </trkpt>
      <trkpt lat="42.63513" lon="1.67333">
        <ele>2031.059</ele>
        <time>2022-09-17T12:33:00Z</time>
      </trkpt>
      <trkpt lat="42.63512" lon="1.67335">
        <ele>2030.405</ele>
        <time>2022-09-17T12:33:02Z</time>
      </trkpt>
      <trkpt lat="42.63512" lon="1.67337">
        <ele>2030.305</ele>
        <time>2022-09-17T12:33:04Z</time>
      </trkpt>
      <trkpt lat="42.63513" lon="1.6734">
        <ele>2030.263</ele>
        <time>2022-09-17T12:33:06Z</time>
      </trkpt>
      <trkpt lat="42.63514" lon="1.67341">
        <ele>2028.42</ele>
        <time>2022-09-17T12:33:08Z</time>
      </trkpt>
      <trkpt lat="42.63516" lon="1.67343">
        <ele>2028.617</ele>
        <time>2022-09-17T12:33:10Z</time>
      </trkpt>
      <trkpt lat="42.63516" lon="1.67345">
        <ele>2029.753</ele>
        <time>2022-09-17T12:33:12Z</time>
      </trkpt>
      <trkpt lat="42.63517" lon="1.67347">
        <ele>2029.595</ele>
        <time>2022-09-17T12:33:14Z</time>
      </trkpt>
      <trkpt lat="42.63518" lon="1.67348">
        <ele>2028.398</ele>
        <time>2022-09-17T12:33:16Z</time>
      </trkpt>
      <trkpt lat="42.63519" lon="1.6735">
        <ele>2027.472</ele>
        <time>2022-09-17T12:33:18Z</time>
      </trkpt>
      <trkpt lat="42.63519" lon="1.67351">
        <ele>2027.03</ele>
        <time>2022-09-17T12:33:20Z</time>
      </trkpt>
      <trkpt lat="42.6352" lon="1.67352">
        <ele>2027.63</ele>
        <time>2022-09-17T12:33:22Z</time>
      </trkpt>
      <trkpt lat="42.6352" lon="1.67354">
        <ele>2027.468</ele>
        <time>2022-09-17T12:33:24Z</time>
      </trkpt>
      <trkpt lat="42.6352" lon="1.67356">
        <ele>2028.336</ele>
        <time>2022-09-17T12:33:26Z</time>
      </trkpt>
      <trkpt lat="42.63521" lon="1.67358">
        <ele>2028.177</ele>
        <time>2022-09-17T12:33:28Z</time>
      </trkpt>
      <trkpt lat="42.63522" lon="1.67359">
        <ele>2027.81</ele>
        <time>2022-09-17T12:33:30Z</time>
      </trkpt>
      <trkpt lat="42.63523" lon="1.67361">
        <ele>2027.854</ele>
        <time>2022-09-17T12:33:32Z</time>
      </trkpt>
      <trkpt lat="42.63523" lon="1.67363">
        <ele>2027.97</ele>
        <time>2022-09-17T12:33:34Z</time>
      </trkpt>
      <trkpt lat="42.63524" lon="1.67364">
        <ele>2026.953</ele>
        <time>2022-09-17T12:33:36Z</time>
      </trkpt>
      <trkpt lat="42.63525" lon="1.67366">
        <ele>2026.639</ele>
        <time>2022-09-17T12:33:38Z</time>
      </trkpt>
      <trkpt lat="42.63527" lon="1.67367">
        <ele>2026.895</ele>
        <time>2022-09-17T12:33:40Z</time>
      </trkpt>
      <trkpt lat="42.63528" lon="1.67368">
        <ele>2026.227</ele>
        <time>2022-09-17T12:33:42Z</time>
      </trkpt>
      <trkpt lat="42.63529" lon="1.6737">
        <ele>2026.096</ele>
        <time>2022-09-17T12:33:44Z</time>
      </trkpt>
      <trkpt lat="42.63529" lon="1.67372">
        <ele>2025.332</ele>
        <time>2022-09-17T12:33:46Z</time>
      </trkpt>
      <trkpt lat="42.63528" lon="1.67374">
        <ele>2025.129</ele>
        <time>2022-09-17T12:33:48Z</time>
      </trkpt>
      <trkpt lat="42.63527" lon="1.67376">
        <ele>2024.651</ele>
        <time>2022-09-17T12:33:50Z</time>
      </trkpt>
      <trkpt lat="42.63526" lon="1.67379">
        <ele>2025.504</ele>
        <time>2022-09-17T12:33:52Z</time>
      </trkpt>
      <trkpt lat="42.63526" lon="1.67381">
        <ele>2025.322</ele>
        <time>2022-09-17T12:33:54Z</time>
      </trkpt>
      <trkpt lat="42.63526" lon="1.67384">
        <ele>2025.263</ele>
        <time>2022-09-17T12:33:56Z</time>
      </trkpt>
      <trkpt lat="42.63526" lon="1.67384">
        <ele>2025.091</ele>
        <time>2022-09-17T12:33:58Z</time>
      </trkpt>
      <trkpt lat="42.63526" lon="1.67384">
        <ele>2025.081</ele>
        <time>2022-09-17T12:34:00Z</time>
      </trkpt>
      <trkpt lat="42.63526" lon="1.67384">
        <ele>2025.08</ele>
        <time>2022-09-17T12:34:02Z</time>
      </trkpt>
      <trkpt lat="42.63526" lon="1.67384">
        <ele>2025.107</ele>
        <time>2022-09-17T12:34:04Z</time>
      </trkpt>
      <trkpt lat="42.63526" lon="1.67385">
        <ele>2024.993</ele>
        <time>2022-09-17T12:34:06Z</time>
      </trkpt>
      <trkpt lat="42.63526" lon="1.67385">
        <ele>2024.991</ele>
        <time>2022-09-17T12:34:08Z</time>
      </trkpt>
      <trkpt lat="42.63526" lon="1.67385">
        <ele>2024.99</ele>
        <time>2022-09-17T12:34:10Z</time>
      </trkpt>
      <trkpt lat="42.63526" lon="1.67386">
        <ele>2025.053</ele>
        <time>2022-09-17T12:34:12Z</time>
      </trkpt>
      <trkpt lat="42.63526" lon="1.67388">
        <ele>2025.559</ele>
        <time>2022-09-17T12:34:14Z</time>
      </trkpt>
      <trkpt lat="42.63525" lon="1.6739">
        <ele>2025.255</ele>
        <time>2022-09-17T12:34:16Z</time>
      </trkpt>
      <trkpt lat="42.63524" lon="1.67392">
        <ele>2025.279</ele>
        <time>2022-09-17T12:34:18Z</time>
      </trkpt>
      <trkpt lat="42.63524" lon="1.67395">
        <ele>2023.851</ele>
        <time>2022-09-17T12:34:20Z</time>
      </trkpt>
      <trkpt lat="42.63524" lon="1.67398">
        <ele>2024.027</ele>
        <time>2022-09-17T12:34:22Z</time>
      </trkpt>
      <trkpt lat="42.63524" lon="1.674">
        <ele>2024.041</ele>
        <time>2022-09-17T12:34:24Z</time>
      </trkpt>
      <trkpt lat="42.63523" lon="1.67403">
        <ele>2023.322</ele>
        <time>2022-09-17T12:34:26Z</time>
      </trkpt>
      <trkpt lat="42.63524" lon="1.67405">
        <ele>2023.447</ele>
        <time>2022-09-17T12:34:28Z</time>
      </trkpt>
      <trkpt lat="42.63525" lon="1.67406">
        <ele>2022.62</ele>
        <time>2022-09-17T12:34:30Z</time>
      </trkpt>
      <trkpt lat="42.63526" lon="1.67407">
        <ele>2022.119</ele>
        <time>2022-09-17T12:34:32Z</time>
      </trkpt>
      <trkpt lat="42.63526" lon="1.6741">
        <ele>2021.522</ele>
        <time>2022-09-17T12:34:34Z</time>
      </trkpt>
      <trkpt lat="42.63526" lon="1.67413">
        <ele>2021.362</ele>
        <time>2022-09-17T12:34:36Z</time>
      </trkpt>
      <trkpt lat="42.63527" lon="1.67416">
        <ele>2020.615</ele>
        <time>2022-09-17T12:34:38Z</time>
      </trkpt>
      <trkpt lat="42.63529" lon="1.67418">
        <ele>2020.929</ele>
        <time>2022-09-17T12:34:40Z</time>
      </trkpt>
      <trkpt lat="42.63529" lon="1.67422">
        <ele>2020.874</ele>
        <time>2022-09-17T12:34:42Z</time>
      </trkpt>
      <trkpt lat="42.63529" lon="1.67425">
        <ele>2020.901</ele>
        <time>2022-09-17T12:34:44Z</time>
      </trkpt>
      <trkpt lat="42.63529" lon="1.67429">
        <ele>2020.732</ele>
        <time>2022-09-17T12:34:46Z</time>
      </trkpt>
      <trkpt lat="42.6353" lon="1.67432">
        <ele>2019.282</ele>
        <time>2022-09-17T12:34:48Z</time>
      </trkpt>
      <trkpt lat="42.63529" lon="1.67436">
        <ele>2020.215</ele>
        <time>2022-09-17T12:34:50Z</time>
      </trkpt>
      <trkpt lat="42.6353" lon="1.67439">
        <ele>2019.702</ele>
        <time>2022-09-17T12:34:52Z</time>
      </trkpt>
      <trkpt lat="42.6353" lon="1.67442">
        <ele>2019.086</ele>
        <time>2022-09-17T12:34:54Z</time>
      </trkpt>
      <trkpt lat="42.63531" lon="1.67445">
        <ele>2018.623</ele>
        <time>2022-09-17T12:34:56Z</time>
      </trkpt>
      <trkpt lat="42.63531" lon="1.67447">
        <ele>2018.663</ele>
        <time>2022-09-17T12:34:58Z</time>
      </trkpt>
      <trkpt lat="42.63532" lon="1.6745">
        <ele>2018.14</ele>
        <time>2022-09-17T12:35:00Z</time>
      </trkpt>
      <trkpt lat="42.63532" lon="1.67453">
        <ele>2017.698</ele>
        <time>2022-09-17T12:35:02Z</time>
      </trkpt>
      <trkpt lat="42.63532" lon="1.67456">
        <ele>2017.358</ele>
        <time>2022-09-17T12:35:04Z</time>
      </trkpt>
      <trkpt lat="42.63533" lon="1.67458">
        <ele>2016.938</ele>
        <time>2022-09-17T12:35:06Z</time>
      </trkpt>
      <trkpt lat="42.63534" lon="1.6746">
        <ele>2016.149</ele>
        <time>2022-09-17T12:35:08Z</time>
      </trkpt>
      <trkpt lat="42.63536" lon="1.67463">
        <ele>2015.841</ele>
        <time>2022-09-17T12:35:10Z</time>
      </trkpt>
      <trkpt lat="42.63538" lon="1.67463">
        <ele>2015.803</ele>
        <time>2022-09-17T12:35:12Z</time>
      </trkpt>
      <trkpt lat="42.63539" lon="1.67465">
        <ele>2015.21</ele>
        <time>2022-09-17T12:35:14Z</time>
      </trkpt>
      <trkpt lat="42.6354" lon="1.67468">
        <ele>2014.481</ele>
        <time>2022-09-17T12:35:16Z</time>
      </trkpt>
      <trkpt lat="42.63541" lon="1.67472">
        <ele>2014.525</ele>
        <time>2022-09-17T12:35:18Z</time>
      </trkpt>
      <trkpt lat="42.63542" lon="1.67475">
        <ele>2014.176</ele>
        <time>2022-09-17T12:35:20Z</time>
      </trkpt>
      <trkpt lat="42.63542" lon="1.67479">
        <ele>2014.674</ele>
        <time>2022-09-17T12:35:22Z</time>
      </trkpt>
      <trkpt lat="42.63543" lon="1.67482">
        <ele>2014.98</ele>
        <time>2022-09-17T12:35:24Z</time>
      </trkpt>
      <trkpt lat="42.63542" lon="1.67485">
        <ele>2015.204</ele>
        <time>2022-09-17T12:35:26Z</time>
      </trkpt>
      <trkpt lat="42.63543" lon="1.67488">
        <ele>2015.688</ele>
        <time>2022-09-17T12:35:28Z</time>
      </trkpt>
      <trkpt lat="42.63545" lon="1.67491">
        <ele>2015.346</ele>
        <time>2022-09-17T12:35:30Z</time>
      </trkpt>
      <trkpt lat="42.63544" lon="1.67494">
        <ele>2015.528</ele>
        <time>2022-09-17T12:35:32Z</time>
      </trkpt>
      <trkpt lat="42.63545" lon="1.67496">
        <ele>2015.716</ele>
        <time>2022-09-17T12:35:34Z</time>
      </trkpt>
      <trkpt lat="42.63546" lon="1.67499">
        <ele>2015.522</ele>
        <time>2022-09-17T12:35:36Z</time>
      </trkpt>
      <trkpt lat="42.63547" lon="1.67501">
        <ele>2015.131</ele>
        <time>2022-09-17T12:35:38Z</time>
      </trkpt>
      <trkpt lat="42.63547" lon="1.67504">
        <ele>2014.916</ele>
        <time>2022-09-17T12:35:40Z</time>
      </trkpt>
      <trkpt lat="42.63547" lon="1.67508">
        <ele>2014.748</ele>
        <time>2022-09-17T12:35:42Z</time>
      </trkpt>
      <trkpt lat="42.63547" lon="1.67511">
        <ele>2014.425</ele>
        <time>2022-09-17T12:35:44Z</time>
      </trkpt>
      <trkpt lat="42.63547" lon="1.67514">
        <ele>2014.358</ele>
        <time>2022-09-17T12:35:46Z</time>
      </trkpt>
      <trkpt lat="42.63547" lon="1.67517">
        <ele>2014.246</ele>
        <time>2022-09-17T12:35:48Z</time>
      </trkpt>
      <trkpt lat="42.63548" lon="1.6752">
        <ele>2013.886</ele>
        <time>2022-09-17T12:35:50Z</time>
      </trkpt>
      <trkpt lat="42.63549" lon="1.67523">
        <ele>2013.769</ele>
        <time>2022-09-17T12:35:52Z</time>
      </trkpt>
      <trkpt lat="42.63549" lon="1.67526">
        <ele>2013.883</ele>
        <time>2022-09-17T12:35:54Z</time>
      </trkpt>
      <trkpt lat="42.6355" lon="1.67529">
        <ele>2013.155</ele>
        <time>2022-09-17T12:35:56Z</time>
      </trkpt>
      <trkpt lat="42.6355" lon="1.67533">
        <ele>2012.763</ele>
        <time>2022-09-17T12:35:58Z</time>
      </trkpt>
      <trkpt lat="42.63549" lon="1.67536">
        <ele>2012.497</ele>
        <time>2022-09-17T12:36:00Z</time>
      </trkpt>
      <trkpt lat="42.63549" lon="1.6754">
        <ele>2012.324</ele>
        <time>2022-09-17T12:36:02Z</time>
      </trkpt>
      <trkpt lat="42.63549" lon="1.67542">
        <ele>2012.304</ele>
        <time>2022-09-17T12:36:04Z</time>
      </trkpt>
      <trkpt lat="42.63548" lon="1.67545">
        <ele>2011.716</ele>
        <time>2022-09-17T12:36:06Z</time>
      </trkpt>
      <trkpt lat="42.63548" lon="1.67546">
        <ele>2012.132</ele>
        <time>2022-09-17T12:36:08Z</time>
      </trkpt>
      <trkpt lat="42.63547" lon="1.67548">
        <ele>2012.338</ele>
        <time>2022-09-17T12:36:10Z</time>
      </trkpt>
      <trkpt lat="42.63546" lon="1.67551">
        <ele>2012.614</ele>
        <time>2022-09-17T12:36:12Z</time>
      </trkpt>
      <trkpt lat="42.63546" lon="1.67554">
        <ele>2014.29</ele>
        <time>2022-09-17T12:36:14Z</time>
      </trkpt>
      <trkpt lat="42.63547" lon="1.67556">
        <ele>2014.114</ele>
        <time>2022-09-17T12:36:16Z</time>
      </trkpt>
      <trkpt lat="42.63548" lon="1.67558">
        <ele>2013.724</ele>
        <time>2022-09-17T12:36:18Z</time>
      </trkpt>
      <trkpt lat="42.63548" lon="1.67561">
        <ele>2013.103</ele>
        <time>2022-09-17T12:36:20Z</time>
      </trkpt>
      <trkpt lat="42.63548" lon="1.67564">
        <ele>2013.025</ele>
        <time>2022-09-17T12:36:22Z</time>
      </trkpt>
      <trkpt lat="42.63548" lon="1.67567">
        <ele>2012.778</ele>
        <time>2022-09-17T12:36:24Z</time>
      </trkpt>
      <trkpt lat="42.63547" lon="1.6757">
        <ele>2011.821</ele>
        <time>2022-09-17T12:36:26Z</time>
      </trkpt>
      <trkpt lat="42.63547" lon="1.67571">
        <ele>2010.575</ele>
        <time>2022-09-17T12:36:28Z</time>
      </trkpt>
      <trkpt lat="42.63547" lon="1.67574">
        <ele>2009.706</ele>
        <time>2022-09-17T12:36:30Z</time>
      </trkpt>
      <trkpt lat="42.63547" lon="1.67576">
        <ele>2008.453</ele>
        <time>2022-09-17T12:36:32Z</time>
      </trkpt>
      <trkpt lat="42.63547" lon="1.67578">
        <ele>2008.555</ele>
        <time>2022-09-17T12:36:34Z</time>
      </trkpt>
      <trkpt lat="42.63546" lon="1.67581">
        <ele>2008.047</ele>
        <time>2022-09-17T12:36:36Z</time>
      </trkpt>
      <trkpt lat="42.63547" lon="1.67583">
        <ele>2007.1</ele>
        <time>2022-09-17T12:36:38Z</time>
      </trkpt>
      <trkpt lat="42.63546" lon="1.67586">
        <ele>2007.214</ele>
        <time>2022-09-17T12:36:40Z</time>
      </trkpt>
      <trkpt lat="42.63546" lon="1.67588">
        <ele>2006.396</ele>
        <time>2022-09-17T12:36:42Z</time>
      </trkpt>
      <trkpt lat="42.63546" lon="1.6759">
        <ele>2006.054</ele>
        <time>2022-09-17T12:36:44Z</time>
      </trkpt>
      <trkpt lat="42.63545" lon="1.67592">
        <ele>2006.067</ele>
        <time>2022-09-17T12:36:46Z</time>
      </trkpt>
      <trkpt lat="42.63545" lon="1.67595">
        <ele>2005.676</ele>
        <time>2022-09-17T12:36:48Z</time>
      </trkpt>
      <trkpt lat="42.63546" lon="1.67598">
        <ele>2004.949</ele>
        <time>2022-09-17T12:36:50Z</time>
      </trkpt>
      <trkpt lat="42.63546" lon="1.67602">
        <ele>2005.119</ele>
        <time>2022-09-17T12:36:52Z</time>
      </trkpt>
      <trkpt lat="42.63546" lon="1.67605">
        <ele>2005.201</ele>
        <time>2022-09-17T12:36:54Z</time>
      </trkpt>
      <trkpt lat="42.63545" lon="1.67607">
        <ele>2005.034</ele>
        <time>2022-09-17T12:36:56Z</time>
      </trkpt>
      <trkpt lat="42.63544" lon="1.67609">
        <ele>2004.405</ele>
        <time>2022-09-17T12:36:58Z</time>
      </trkpt>
      <trkpt lat="42.63544" lon="1.67611">
        <ele>2004.202</ele>
        <time>2022-09-17T12:37:00Z</time>
      </trkpt>
      <trkpt lat="42.63545" lon="1.67614">
        <ele>2003.894</ele>
        <time>2022-09-17T12:37:02Z</time>
      </trkpt>
      <trkpt lat="42.63546" lon="1.67617">
        <ele>2003.409</ele>
        <time>2022-09-17T12:37:04Z</time>
      </trkpt>
      <trkpt lat="42.63546" lon="1.6762">
        <ele>2002.624</ele>
        <time>2022-09-17T12:37:06Z</time>
      </trkpt>
      <trkpt lat="42.63546" lon="1.67623">
        <ele>2002.811</ele>
        <time>2022-09-17T12:37:08Z</time>
      </trkpt>
      <trkpt lat="42.63547" lon="1.67626">
        <ele>2002.632</ele>
        <time>2022-09-17T12:37:10Z</time>
      </trkpt>
      <trkpt lat="42.63548" lon="1.67629">
        <ele>2001.404</ele>
        <time>2022-09-17T12:37:12Z</time>
      </trkpt>
      <trkpt lat="42.63549" lon="1.67631">
        <ele>2000.716</ele>
        <time>2022-09-17T12:37:14Z</time>
      </trkpt>
      <trkpt lat="42.6355" lon="1.67634">
        <ele>2000.264</ele>
        <time>2022-09-17T12:37:16Z</time>
      </trkpt>
      <trkpt lat="42.63551" lon="1.67637">
        <ele>2000.134</ele>
        <time>2022-09-17T12:37:18Z</time>
      </trkpt>
      <trkpt lat="42.63552" lon="1.67639">
        <ele>2000.271</ele>
        <time>2022-09-17T12:37:20Z</time>
      </trkpt>
      <trkpt lat="42.63552" lon="1.67641">
        <ele>1999.748</ele>
        <time>2022-09-17T12:37:22Z</time>
      </trkpt>
      <trkpt lat="42.63552" lon="1.67643">
        <ele>2000.113</ele>
        <time>2022-09-17T12:37:24Z</time>
      </trkpt>
      <trkpt lat="42.63553" lon="1.67645">
        <ele>1999.783</ele>
        <time>2022-09-17T12:37:26Z</time>
      </trkpt>
      <trkpt lat="42.63554" lon="1.67647">
        <ele>1999.392</ele>
        <time>2022-09-17T12:37:28Z</time>
      </trkpt>
      <trkpt lat="42.63555" lon="1.67649">
        <ele>1999.102</ele>
        <time>2022-09-17T12:37:30Z</time>
      </trkpt>
      <trkpt lat="42.63556" lon="1.67651">
        <ele>1999.505</ele>
        <time>2022-09-17T12:37:32Z</time>
      </trkpt>
      <trkpt lat="42.63557" lon="1.67652">
        <ele>2000.033</ele>
        <time>2022-09-17T12:37:34Z</time>
      </trkpt>
      <trkpt lat="42.63558" lon="1.67654">
        <ele>1999.943</ele>
        <time>2022-09-17T12:37:36Z</time>
      </trkpt>
      <trkpt lat="42.63559" lon="1.67656">
        <ele>1999.426</ele>
        <time>2022-09-17T12:37:38Z</time>
      </trkpt>
      <trkpt lat="42.6356" lon="1.67658">
        <ele>1998.977</ele>
        <time>2022-09-17T12:37:40Z</time>
      </trkpt>
      <trkpt lat="42.63561" lon="1.6766">
        <ele>1998.803</ele>
        <time>2022-09-17T12:37:42Z</time>
      </trkpt>
      <trkpt lat="42.63563" lon="1.67661">
        <ele>1997.73</ele>
        <time>2022-09-17T12:37:44Z</time>
      </trkpt>
      <trkpt lat="42.63564" lon="1.67664">
        <ele>1997.532</ele>
        <time>2022-09-17T12:37:46Z</time>
      </trkpt>
      <trkpt lat="42.63564" lon="1.67666">
        <ele>1997.162</ele>
        <time>2022-09-17T12:37:48Z</time>
      </trkpt>
      <trkpt lat="42.63565" lon="1.67668">
        <ele>1997.184</ele>
        <time>2022-09-17T12:37:50Z</time>
      </trkpt>
      <trkpt lat="42.63566" lon="1.67671">
        <ele>1997.085</ele>
        <time>2022-09-17T12:37:52Z</time>
      </trkpt>
      <trkpt lat="42.63566" lon="1.67674">
        <ele>1996.091</ele>
        <time>2022-09-17T12:37:54Z</time>
      </trkpt>
      <trkpt lat="42.63567" lon="1.67678">
        <ele>1996.064</ele>
        <time>2022-09-17T12:37:56Z</time>
      </trkpt>
      <trkpt lat="42.63568" lon="1.6768">
        <ele>1996.348</ele>
        <time>2022-09-17T12:37:58Z</time>
      </trkpt>
      <trkpt lat="42.63569" lon="1.67682">
        <ele>1995.786</ele>
        <time>2022-09-17T12:38:00Z</time>
      </trkpt>
      <trkpt lat="42.6357" lon="1.67685">
        <ele>1995.663</ele>
        <time>2022-09-17T12:38:02Z</time>
      </trkpt>
      <trkpt lat="42.63571" lon="1.67688">
        <ele>1995.06</ele>
        <time>2022-09-17T12:38:04Z</time>
      </trkpt>
      <trkpt lat="42.63572" lon="1.67691">
        <ele>1994.19</ele>
        <time>2022-09-17T12:38:06Z</time>
      </trkpt>
      <trkpt lat="42.63573" lon="1.67694">
        <ele>1994.691</ele>
        <time>2022-09-17T12:38:08Z</time>
      </trkpt>
      <trkpt lat="42.63574" lon="1.67696">
        <ele>1994.12</ele>
        <time>2022-09-17T12:38:10Z</time>
      </trkpt>
      <trkpt lat="42.63575" lon="1.67699">
        <ele>1993.884</ele>
        <time>2022-09-17T12:38:12Z</time>
      </trkpt>
      <trkpt lat="42.63576" lon="1.67701">
        <ele>1993.813</ele>
        <time>2022-09-17T12:38:14Z</time>
      </trkpt>
      <trkpt lat="42.63578" lon="1.67704">
        <ele>1994.273</ele>
        <time>2022-09-17T12:38:16Z</time>
      </trkpt>
      <trkpt lat="42.63579" lon="1.67706">
        <ele>1994.708</ele>
        <time>2022-09-17T12:38:18Z</time>
      </trkpt>
      <trkpt lat="42.6358" lon="1.67708">
        <ele>1994.612</ele>
        <time>2022-09-17T12:38:20Z</time>
      </trkpt>
      <trkpt lat="42.63582" lon="1.67711">
        <ele>1994.332</ele>
        <time>2022-09-17T12:38:22Z</time>
      </trkpt>
      <trkpt lat="42.63583" lon="1.67713">
        <ele>1992.942</ele>
        <time>2022-09-17T12:38:24Z</time>
      </trkpt>
      <trkpt lat="42.63584" lon="1.67715">
        <ele>1992.7</ele>
        <time>2022-09-17T12:38:26Z</time>
      </trkpt>
      <trkpt lat="42.63585" lon="1.67717">
        <ele>1993.142</ele>
        <time>2022-09-17T12:38:28Z</time>
      </trkpt>
      <trkpt lat="42.63585" lon="1.6772">
        <ele>1992.495</ele>
        <time>2022-09-17T12:38:30Z</time>
      </trkpt>
      <trkpt lat="42.63587" lon="1.67722">
        <ele>1991.768</ele>
        <time>2022-09-17T12:38:32Z</time>
      </trkpt>
      <trkpt lat="42.63588" lon="1.67725">
        <ele>1990.896</ele>
        <time>2022-09-17T12:38:34Z</time>
      </trkpt>
      <trkpt lat="42.63588" lon="1.67727">
        <ele>1990.782</ele>
        <time>2022-09-17T12:38:36Z</time>
      </trkpt>
      <trkpt lat="42.63588" lon="1.6773">
        <ele>1991.061</ele>
        <time>2022-09-17T12:38:38Z</time>
      </trkpt>
      <trkpt lat="42.63588" lon="1.67733">
        <ele>1990.234</ele>
        <time>2022-09-17T12:38:40Z</time>
      </trkpt>
      <trkpt lat="42.63589" lon="1.67736">
        <ele>1989.883</ele>
        <time>2022-09-17T12:38:42Z</time>
      </trkpt>
      <trkpt lat="42.63589" lon="1.67739">
        <ele>1989.804</ele>
        <time>2022-09-17T12:38:44Z</time>
      </trkpt>
      <trkpt lat="42.63589" lon="1.67742">
        <ele>1989.808</ele>
        <time>2022-09-17T12:38:46Z</time>
      </trkpt>
      <trkpt lat="42.6359" lon="1.67744">
        <ele>1989.728</ele>
        <time>2022-09-17T12:38:48Z</time>
      </trkpt>
      <trkpt lat="42.6359" lon="1.67747">
        <ele>1989.035</ele>
        <time>2022-09-17T12:38:50Z</time>
      </trkpt>
      <trkpt lat="42.6359" lon="1.6775">
        <ele>1989.186</ele>
        <time>2022-09-17T12:38:52Z</time>
      </trkpt>
      <trkpt lat="42.63591" lon="1.67752">
        <ele>1989.188</ele>
        <time>2022-09-17T12:38:54Z</time>
      </trkpt>
      <trkpt lat="42.63592" lon="1.67755">
        <ele>1988.835</ele>
        <time>2022-09-17T12:38:56Z</time>
      </trkpt>
      <trkpt lat="42.63592" lon="1.67758">
        <ele>1988.502</ele>
        <time>2022-09-17T12:38:58Z</time>
      </trkpt>
      <trkpt lat="42.63593" lon="1.67761">
        <ele>1988.242</ele>
        <time>2022-09-17T12:39:00Z</time>
      </trkpt>
      <trkpt lat="42.63593" lon="1.67763">
        <ele>1988.304</ele>
        <time>2022-09-17T12:39:02Z</time>
      </trkpt>
      <trkpt lat="42.63593" lon="1.67766">
        <ele>1988.144</ele>
        <time>2022-09-17T12:39:04Z</time>
      </trkpt>
      <trkpt lat="42.63594" lon="1.67769">
        <ele>1987.418</ele>
        <time>2022-09-17T12:39:06Z</time>
      </trkpt>
      <trkpt lat="42.63594" lon="1.67771">
        <ele>1987.59</ele>
        <time>2022-09-17T12:39:08Z</time>
      </trkpt>
      <trkpt lat="42.63595" lon="1.67774">
        <ele>1988.183</ele>
        <time>2022-09-17T12:39:10Z</time>
      </trkpt>
      <trkpt lat="42.63595" lon="1.67778">
        <ele>1987.607</ele>
        <time>2022-09-17T12:39:12Z</time>
      </trkpt>
      <trkpt lat="42.63595" lon="1.6778">
        <ele>1986.536</ele>
        <time>2022-09-17T12:39:14Z</time>
      </trkpt>
      <trkpt lat="42.63595" lon="1.67783">
        <ele>1985.729</ele>
        <time>2022-09-17T12:39:16Z</time>
      </trkpt>
      <trkpt lat="42.63595" lon="1.67787">
        <ele>1985.436</ele>
        <time>2022-09-17T12:39:18Z</time>
      </trkpt>
      <trkpt lat="42.63595" lon="1.6779">
        <ele>1985.247</ele>
        <time>2022-09-17T12:39:20Z</time>
      </trkpt>
      <trkpt lat="42.63596" lon="1.67794">
        <ele>1984.78</ele>
        <time>2022-09-17T12:39:22Z</time>
      </trkpt>
      <trkpt lat="42.63596" lon="1.67797">
        <ele>1984.002</ele>
        <time>2022-09-17T12:39:24Z</time>
      </trkpt>
      <trkpt lat="42.63597" lon="1.67799">
        <ele>1982.653</ele>
        <time>2022-09-17T12:39:26Z</time>
      </trkpt>
      <trkpt lat="42.63598" lon="1.67801">
        <ele>1982.39</ele>
        <time>2022-09-17T12:39:28Z</time>
      </trkpt>
      <trkpt lat="42.63598" lon="1.67804">
        <ele>1982.333</ele>
        <time>2022-09-17T12:39:30Z</time>
      </trkpt>
      <trkpt lat="42.63597" lon="1.67807">
        <ele>1982.543</ele>
        <time>2022-09-17T12:39:32Z</time>
      </trkpt>
      <trkpt lat="42.63597" lon="1.67809">
        <ele>1983.275</ele>
        <time>2022-09-17T12:39:34Z</time>
      </trkpt>
      <trkpt lat="42.63598" lon="1.67811">
        <ele>1984.335</ele>
        <time>2022-09-17T12:39:36Z</time>
      </trkpt>
      <trkpt lat="42.636" lon="1.67813">
        <ele>1983.991</ele>
        <time>2022-09-17T12:39:38Z</time>
      </trkpt>
      <trkpt lat="42.63602" lon="1.67815">
        <ele>1984.754</ele>
        <time>2022-09-17T12:39:40Z</time>
      </trkpt>
      <trkpt lat="42.63603" lon="1.67818">
        <ele>1985.978</ele>
        <time>2022-09-17T12:39:42Z</time>
      </trkpt>
      <trkpt lat="42.63603" lon="1.67822">
        <ele>1986.368</ele>
        <time>2022-09-17T12:39:44Z</time>
      </trkpt>
      <trkpt lat="42.63603" lon="1.67825">
        <ele>1985.827</ele>
        <time>2022-09-17T12:39:46Z</time>
      </trkpt>
      <trkpt lat="42.63606" lon="1.67826">
        <ele>1986.742</ele>
        <time>2022-09-17T12:39:48Z</time>
      </trkpt>
      <trkpt lat="42.63608" lon="1.67827">
        <ele>1985.599</ele>
        <time>2022-09-17T12:39:50Z</time>
      </trkpt>
      <trkpt lat="42.63609" lon="1.67831">
        <ele>1987.566</ele>
        <time>2022-09-17T12:39:52Z</time>
      </trkpt>
      <trkpt lat="42.63609" lon="1.67833">
        <ele>1987.706</ele>
        <time>2022-09-17T12:39:54Z</time>
      </trkpt>
      <trkpt lat="42.63609" lon="1.67836">
        <ele>1988.408</ele>
        <time>2022-09-17T12:39:56Z</time>
      </trkpt>
      <trkpt lat="42.6361" lon="1.67839">
        <ele>1988.885</ele>
        <time>2022-09-17T12:39:58Z</time>
      </trkpt>
      <trkpt lat="42.63612" lon="1.67842">
        <ele>1988.895</ele>
        <time>2022-09-17T12:40:00Z</time>
      </trkpt>
      <trkpt lat="42.63613" lon="1.67844">
        <ele>1987.703</ele>
        <time>2022-09-17T12:40:02Z</time>
      </trkpt>
      <trkpt lat="42.63613" lon="1.67847">
        <ele>1987.799</ele>
        <time>2022-09-17T12:40:04Z</time>
      </trkpt>
      <trkpt lat="42.63613" lon="1.67851">
        <ele>1988.536</ele>
        <time>2022-09-17T12:40:06Z</time>
      </trkpt>
      <trkpt lat="42.63614" lon="1.67853">
        <ele>1987.439</ele>
        <time>2022-09-17T12:40:08Z</time>
      </trkpt>
      <trkpt lat="42.63615" lon="1.67855">
        <ele>1986.383</ele>
        <time>2022-09-17T12:40:10Z</time>
      </trkpt>
      <trkpt lat="42.63617" lon="1.67858">
        <ele>1986.455</ele>
        <time>2022-09-17T12:40:12Z</time>
      </trkpt>
      <trkpt lat="42.63617" lon="1.6786">
        <ele>1985.932</ele>
        <time>2022-09-17T12:40:14Z</time>
      </trkpt>
      <trkpt lat="42.63618" lon="1.6786">
        <ele>1982.987</ele>
        <time>2022-09-17T12:40:16Z</time>
      </trkpt>
      <trkpt lat="42.63617" lon="1.67861">
        <ele>1981.626</ele>
        <time>2022-09-17T12:40:18Z</time>
      </trkpt>
      <trkpt lat="42.63617" lon="1.67862">
        <ele>1980.956</ele>
        <time>2022-09-17T12:40:20Z</time>
      </trkpt>
      <trkpt lat="42.63617" lon="1.67864">
        <ele>1980.653</ele>
        <time>2022-09-17T12:40:22Z</time>
      </trkpt>
      <trkpt lat="42.63618" lon="1.67866">
        <ele>1980.01</ele>
        <time>2022-09-17T12:40:24Z</time>
      </trkpt>
      <trkpt lat="42.63617" lon="1.67869">
        <ele>1980.637</ele>
        <time>2022-09-17T12:40:26Z</time>
      </trkpt>
      <trkpt lat="42.63617" lon="1.6787">
        <ele>1979.618</ele>
        <time>2022-09-17T12:40:28Z</time>
      </trkpt>
      <trkpt lat="42.63617" lon="1.67872">
        <ele>1979.706</ele>
        <time>2022-09-17T12:40:30Z</time>
      </trkpt>
      <trkpt lat="42.63615" lon="1.67874">
        <ele>1978.928</ele>
        <time>2022-09-17T12:40:32Z</time>
      </trkpt>
      <trkpt lat="42.63616" lon="1.67877">
        <ele>1978.535</ele>
        <time>2022-09-17T12:40:34Z</time>
      </trkpt>
      <trkpt lat="42.63615" lon="1.67879">
        <ele>1979.317</ele>
        <time>2022-09-17T12:40:36Z</time>
      </trkpt>
      <trkpt lat="42.63615" lon="1.67881">
        <ele>1978.918</ele>
        <time>2022-09-17T12:40:38Z</time>
      </trkpt>
      <trkpt lat="42.63615" lon="1.67883">
        <ele>1978.719</ele>
        <time>2022-09-17T12:40:40Z</time>
      </trkpt>
      <trkpt lat="42.63616" lon="1.67885">
        <ele>1978.659</ele>
        <time>2022-09-17T12:40:42Z</time>
      </trkpt>
      <trkpt lat="42.63617" lon="1.67887">
        <ele>1978.39</ele>
        <time>2022-09-17T12:40:44Z</time>
      </trkpt>
      <trkpt lat="42.63618" lon="1.67889">
        <ele>1978.135</ele>
        <time>2022-09-17T12:40:46Z</time>
      </trkpt>
      <trkpt lat="42.6362" lon="1.6789">
        <ele>1979.153</ele>
        <time>2022-09-17T12:40:48Z</time>
      </trkpt>
      <trkpt lat="42.63622" lon="1.67891">
        <ele>1979.103</ele>
        <time>2022-09-17T12:40:50Z</time>
      </trkpt>
      <trkpt lat="42.63623" lon="1.67892">
        <ele>1977.642</ele>
        <time>2022-09-17T12:40:52Z</time>
      </trkpt>
      <trkpt lat="42.63624" lon="1.67894">
        <ele>1977.37</ele>
        <time>2022-09-17T12:40:54Z</time>
      </trkpt>
      <trkpt lat="42.63626" lon="1.67895">
        <ele>1976.415</ele>
        <time>2022-09-17T12:40:56Z</time>
      </trkpt>
      <trkpt lat="42.63628" lon="1.67897">
        <ele>1976.407</ele>
        <time>2022-09-17T12:40:58Z</time>
      </trkpt>
      <trkpt lat="42.63628" lon="1.679">
        <ele>1974.859</ele>
        <time>2022-09-17T12:41:00Z</time>
      </trkpt>
      <trkpt lat="42.63629" lon="1.67903">
        <ele>1973.498</ele>
        <time>2022-09-17T12:41:02Z</time>
      </trkpt>
      <trkpt lat="42.63628" lon="1.67906">
        <ele>1973.144</ele>
        <time>2022-09-17T12:41:04Z</time>
      </trkpt>
      <trkpt lat="42.63628" lon="1.67909">
        <ele>1972.99</ele>
        <time>2022-09-17T12:41:06Z</time>
      </trkpt>
      <trkpt lat="42.63628" lon="1.67912">
        <ele>1972.708</ele>
        <time>2022-09-17T12:41:08Z</time>
      </trkpt>
      <trkpt lat="42.63629" lon="1.67914">
        <ele>1971.871</ele>
        <time>2022-09-17T12:41:10Z</time>
      </trkpt>
      <trkpt lat="42.6363" lon="1.67917">
        <ele>1970.88</ele>
        <time>2022-09-17T12:41:12Z</time>
      </trkpt>
      <trkpt lat="42.6363" lon="1.67919">
        <ele>1969.444</ele>
        <time>2022-09-17T12:41:14Z</time>
      </trkpt>
      <trkpt lat="42.63631" lon="1.67922">
        <ele>1969.241</ele>
        <time>2022-09-17T12:41:16Z</time>
      </trkpt>
      <trkpt lat="42.63632" lon="1.67924">
        <ele>1968.49</ele>
        <time>2022-09-17T12:41:18Z</time>
      </trkpt>
      <trkpt lat="42.63633" lon="1.67926">
        <ele>1968.526</ele>
        <time>2022-09-17T12:41:20Z</time>
      </trkpt>
      <trkpt lat="42.63635" lon="1.67929">
        <ele>1968.772</ele>
        <time>2022-09-17T12:41:22Z</time>
      </trkpt>
      <trkpt lat="42.63636" lon="1.67931">
        <ele>1968.627</ele>
        <time>2022-09-17T12:41:24Z</time>
      </trkpt>
      <trkpt lat="42.63637" lon="1.67933">
        <ele>1968.805</ele>
        <time>2022-09-17T12:41:26Z</time>
      </trkpt>
      <trkpt lat="42.63637" lon="1.67936">
        <ele>1968.099</ele>
        <time>2022-09-17T12:41:28Z</time>
      </trkpt>
      <trkpt lat="42.63637" lon="1.67938">
        <ele>1966.925</ele>
        <time>2022-09-17T12:41:30Z</time>
      </trkpt>
      <trkpt lat="42.63638" lon="1.67941">
        <ele>1966.971</ele>
        <time>2022-09-17T12:41:32Z</time>
      </trkpt>
      <trkpt lat="42.63638" lon="1.67944">
        <ele>1967.081</ele>
        <time>2022-09-17T12:41:34Z</time>
      </trkpt>
      <trkpt lat="42.63639" lon="1.67946">
        <ele>1966.515</ele>
        <time>2022-09-17T12:41:36Z</time>
      </trkpt>
      <trkpt lat="42.63639" lon="1.67948">
        <ele>1965.689</ele>
        <time>2022-09-17T12:41:38Z</time>
      </trkpt>
      <trkpt lat="42.63639" lon="1.6795">
        <ele>1964.884</ele>
        <time>2022-09-17T12:41:40Z</time>
      </trkpt>
      <trkpt lat="42.63639" lon="1.67952">
        <ele>1966.261</ele>
        <time>2022-09-17T12:41:42Z</time>
      </trkpt>
      <trkpt lat="42.63639" lon="1.67955">
        <ele>1967.199</ele>
        <time>2022-09-17T12:41:44Z</time>
      </trkpt>
      <trkpt lat="42.63639" lon="1.67958">
        <ele>1966.619</ele>
        <time>2022-09-17T12:41:46Z</time>
      </trkpt>
      <trkpt lat="42.63639" lon="1.67959">
        <ele>1966.266</ele>
        <time>2022-09-17T12:41:48Z</time>
      </trkpt>
      <trkpt lat="42.63638" lon="1.67962">
        <ele>1965.822</ele>
        <time>2022-09-17T12:41:50Z</time>
      </trkpt>
      <trkpt lat="42.63639" lon="1.67964">
        <ele>1964.735</ele>
        <time>2022-09-17T12:41:52Z</time>
      </trkpt>
      <trkpt lat="42.63639" lon="1.67967">
        <ele>1964.409</ele>
        <time>2022-09-17T12:41:54Z</time>
      </trkpt>
      <trkpt lat="42.6364" lon="1.67968">
        <ele>1963.505</ele>
        <time>2022-09-17T12:41:56Z</time>
      </trkpt>
      <trkpt lat="42.63641" lon="1.6797">
        <ele>1963.433</ele>
        <time>2022-09-17T12:41:58Z</time>
      </trkpt>
      <trkpt lat="42.63642" lon="1.67973">
        <ele>1963.212</ele>
        <time>2022-09-17T12:42:00Z</time>
      </trkpt>
      <trkpt lat="42.63643" lon="1.67975">
        <ele>1963.432</ele>
        <time>2022-09-17T12:42:02Z</time>
      </trkpt>
      <trkpt lat="42.63643" lon="1.67977">
        <ele>1961.934</ele>
        <time>2022-09-17T12:42:04Z</time>
      </trkpt>
      <trkpt lat="42.63642" lon="1.6798">
        <ele>1963.187</ele>
        <time>2022-09-17T12:42:06Z</time>
      </trkpt>
      <trkpt lat="42.63643" lon="1.67983">
        <ele>1962.752</ele>
        <time>2022-09-17T12:42:08Z</time>
      </trkpt>
      <trkpt lat="42.63644" lon="1.67985">
        <ele>1962.741</ele>
        <time>2022-09-17T12:42:10Z</time>
      </trkpt>
      <trkpt lat="42.63645" lon="1.67987">
        <ele>1961.537</ele>
        <time>2022-09-17T12:42:12Z</time>
      </trkpt>
      <trkpt lat="42.63645" lon="1.67989">
        <ele>1961.38</ele>
        <time>2022-09-17T12:42:14Z</time>
      </trkpt>
      <trkpt lat="42.63646" lon="1.67991">
        <ele>1961.1</ele>
        <time>2022-09-17T12:42:16Z</time>
      </trkpt>
      <trkpt lat="42.63647" lon="1.67993">
        <ele>1960.532</ele>
        <time>2022-09-17T12:42:18Z</time>
      </trkpt>
      <trkpt lat="42.63648" lon="1.67996">
        <ele>1960.226</ele>
        <time>2022-09-17T12:42:20Z</time>
      </trkpt>
      <trkpt lat="42.63648" lon="1.67999">
        <ele>1959.614</ele>
        <time>2022-09-17T12:42:22Z</time>
      </trkpt>
      <trkpt lat="42.63649" lon="1.68001">
        <ele>1959.432</ele>
        <time>2022-09-17T12:42:24Z</time>
      </trkpt>
      <trkpt lat="42.63649" lon="1.68004">
        <ele>1958.296</ele>
        <time>2022-09-17T12:42:26Z</time>
      </trkpt>
      <trkpt lat="42.63649" lon="1.68008">
        <ele>1958.459</ele>
        <time>2022-09-17T12:42:28Z</time>
      </trkpt>
      <trkpt lat="42.6365" lon="1.68011">
        <ele>1957.143</ele>
        <time>2022-09-17T12:42:30Z</time>
      </trkpt>
      <trkpt lat="42.63651" lon="1.68015">
        <ele>1957.036</ele>
        <time>2022-09-17T12:42:32Z</time>
      </trkpt>
      <trkpt lat="42.63652" lon="1.68018">
        <ele>1956.604</ele>
        <time>2022-09-17T12:42:34Z</time>
      </trkpt>
      <trkpt lat="42.63652" lon="1.6802">
        <ele>1957.203</ele>
        <time>2022-09-17T12:42:36Z</time>
      </trkpt>
      <trkpt lat="42.63653" lon="1.68023">
        <ele>1956.713</ele>
        <time>2022-09-17T12:42:38Z</time>
      </trkpt>
      <trkpt lat="42.63654" lon="1.68027">
        <ele>1956.959</ele>
        <time>2022-09-17T12:42:40Z</time>
      </trkpt>
      <trkpt lat="42.63653" lon="1.6803">
        <ele>1956.697</ele>
        <time>2022-09-17T12:42:42Z</time>
      </trkpt>
      <trkpt lat="42.63653" lon="1.68034">
        <ele>1956.321</ele>
        <time>2022-09-17T12:42:44Z</time>
      </trkpt>
      <trkpt lat="42.63652" lon="1.68037">
        <ele>1956.185</ele>
        <time>2022-09-17T12:42:46Z</time>
      </trkpt>
      <trkpt lat="42.63651" lon="1.68041">
        <ele>1955.915</ele>
        <time>2022-09-17T12:42:48Z</time>
      </trkpt>
      <trkpt lat="42.63651" lon="1.68044">
        <ele>1956.025</ele>
        <time>2022-09-17T12:42:50Z</time>
      </trkpt>
      <trkpt lat="42.63651" lon="1.68047">
        <ele>1956.005</ele>
        <time>2022-09-17T12:42:52Z</time>
      </trkpt>
      <trkpt lat="42.6365" lon="1.6805">
        <ele>1954.47</ele>
        <time>2022-09-17T12:42:54Z</time>
      </trkpt>
      <trkpt lat="42.6365" lon="1.68053">
        <ele>1953.662</ele>
        <time>2022-09-17T12:42:56Z</time>
      </trkpt>
      <trkpt lat="42.63651" lon="1.68057">
        <ele>1953.258</ele>
        <time>2022-09-17T12:42:58Z</time>
      </trkpt>
      <trkpt lat="42.63651" lon="1.6806">
        <ele>1952.531</ele>
        <time>2022-09-17T12:43:00Z</time>
      </trkpt>
      <trkpt lat="42.63651" lon="1.68063">
        <ele>1951.534</ele>
        <time>2022-09-17T12:43:02Z</time>
      </trkpt>
      <trkpt lat="42.63652" lon="1.68066">
        <ele>1951.336</ele>
        <time>2022-09-17T12:43:04Z</time>
      </trkpt>
      <trkpt lat="42.63653" lon="1.68069">
        <ele>1952.509</ele>
        <time>2022-09-17T12:43:06Z</time>
      </trkpt>
      <trkpt lat="42.63654" lon="1.68072">
        <ele>1952.91</ele>
        <time>2022-09-17T12:43:08Z</time>
      </trkpt>
      <trkpt lat="42.63654" lon="1.68074">
        <ele>1952.159</ele>
        <time>2022-09-17T12:43:10Z</time>
      </trkpt>
      <trkpt lat="42.63654" lon="1.68078">
        <ele>1952.27</ele>
        <time>2022-09-17T12:43:12Z</time>
      </trkpt>
      <trkpt lat="42.63655" lon="1.68081">
        <ele>1951.917</ele>
        <time>2022-09-17T12:43:14Z</time>
      </trkpt>
      <trkpt lat="42.63656" lon="1.68084">
        <ele>1952.417</ele>
        <time>2022-09-17T12:43:16Z</time>
      </trkpt>
      <trkpt lat="42.63657" lon="1.68086">
        <ele>1952.309</ele>
        <time>2022-09-17T12:43:18Z</time>
      </trkpt>
      <trkpt lat="42.63656" lon="1.68089">
        <ele>1952.457</ele>
        <time>2022-09-17T12:43:20Z</time>
      </trkpt>
      <trkpt lat="42.63657" lon="1.68091">
        <ele>1952.221</ele>
        <time>2022-09-17T12:43:22Z</time>
      </trkpt>
      <trkpt lat="42.63658" lon="1.68094">
        <ele>1952.072</ele>
        <time>2022-09-17T12:43:24Z</time>
      </trkpt>
      <trkpt lat="42.63658" lon="1.68096">
        <ele>1952.22</ele>
        <time>2022-09-17T12:43:26Z</time>
      </trkpt>
      <trkpt lat="42.63659" lon="1.68099">
        <ele>1951.667</ele>
        <time>2022-09-17T12:43:28Z</time>
      </trkpt>
      <trkpt lat="42.63659" lon="1.68101">
        <ele>1950.664</ele>
        <time>2022-09-17T12:43:30Z</time>
      </trkpt>
      <trkpt lat="42.6366" lon="1.68104">
        <ele>1950.352</ele>
        <time>2022-09-17T12:43:32Z</time>
      </trkpt>
      <trkpt lat="42.6366" lon="1.68107">
        <ele>1949.791</ele>
        <time>2022-09-17T12:43:34Z</time>
      </trkpt>
      <trkpt lat="42.63661" lon="1.68109">
        <ele>1948.875</ele>
        <time>2022-09-17T12:43:36Z</time>
      </trkpt>
      <trkpt lat="42.63662" lon="1.68111">
        <ele>1947.188</ele>
        <time>2022-09-17T12:43:38Z</time>
      </trkpt>
      <trkpt lat="42.63663" lon="1.68114">
        <ele>1947.131</ele>
        <time>2022-09-17T12:43:40Z</time>
      </trkpt>
      <trkpt lat="42.63663" lon="1.68117">
        <ele>1947.192</ele>
        <time>2022-09-17T12:43:42Z</time>
      </trkpt>
      <trkpt lat="42.63664" lon="1.6812">
        <ele>1946.897</ele>
        <time>2022-09-17T12:43:44Z</time>
      </trkpt>
      <trkpt lat="42.63665" lon="1.68122">
        <ele>1945.98</ele>
        <time>2022-09-17T12:43:46Z</time>
      </trkpt>
      <trkpt lat="42.63667" lon="1.68125">
        <ele>1945.386</ele>
        <time>2022-09-17T12:43:48Z</time>
      </trkpt>
      <trkpt lat="42.63668" lon="1.68127">
        <ele>1945.324</ele>
        <time>2022-09-17T12:43:50Z</time>
      </trkpt>
      <trkpt lat="42.63669" lon="1.6813">
        <ele>1945.557</ele>
        <time>2022-09-17T12:43:52Z</time>
      </trkpt>
      <trkpt lat="42.6367" lon="1.68133">
        <ele>1945.442</ele>
        <time>2022-09-17T12:43:54Z</time>
      </trkpt>
      <trkpt lat="42.63671" lon="1.68135">
        <ele>1945.216</ele>
        <time>2022-09-17T12:43:56Z</time>
      </trkpt>
      <trkpt lat="42.63671" lon="1.68139">
        <ele>1944.675</ele>
        <time>2022-09-17T12:43:58Z</time>
      </trkpt>
      <trkpt lat="42.63672" lon="1.68141">
        <ele>1945.684</ele>
        <time>2022-09-17T12:44:00Z</time>
      </trkpt>
      <trkpt lat="42.63672" lon="1.68144">
        <ele>1947.781</ele>
        <time>2022-09-17T12:44:02Z</time>
      </trkpt>
      <trkpt lat="42.63673" lon="1.68143">
        <ele>1947.361</ele>
        <time>2022-09-17T12:44:04Z</time>
      </trkpt>
      <trkpt lat="42.63673" lon="1.68143">
        <ele>1947.338</ele>
        <time>2022-09-17T12:44:06Z</time>
      </trkpt>
      <trkpt lat="42.63673" lon="1.68143">
        <ele>1947.321</ele>
        <time>2022-09-17T12:44:08Z</time>
      </trkpt>
      <trkpt lat="42.63674" lon="1.68145">
        <ele>1947.157</ele>
        <time>2022-09-17T12:44:10Z</time>
      </trkpt>
      <trkpt lat="42.63674" lon="1.68148">
        <ele>1947.538</ele>
        <time>2022-09-17T12:44:12Z</time>
      </trkpt>
      <trkpt lat="42.63673" lon="1.68152">
        <ele>1947.772</ele>
        <time>2022-09-17T12:44:14Z</time>
      </trkpt>
      <trkpt lat="42.63674" lon="1.68156">
        <ele>1948.535</ele>
        <time>2022-09-17T12:44:16Z</time>
      </trkpt>
      <trkpt lat="42.63676" lon="1.6816">
        <ele>1948.895</ele>
        <time>2022-09-17T12:44:18Z</time>
      </trkpt>
      <trkpt lat="42.63676" lon="1.68164">
        <ele>1951.21</ele>
        <time>2022-09-17T12:44:20Z</time>
      </trkpt>
      <trkpt lat="42.63675" lon="1.68167">
        <ele>1953.147</ele>
        <time>2022-09-17T12:44:22Z</time>
      </trkpt>
      <trkpt lat="42.63675" lon="1.6817">
        <ele>1954.33</ele>
        <time>2022-09-17T12:44:24Z</time>
      </trkpt>
      <trkpt lat="42.63676" lon="1.68174">
        <ele>1955.146</ele>
        <time>2022-09-17T12:44:26Z</time>
      </trkpt>
      <trkpt lat="42.63677" lon="1.68175">
        <ele>1953.734</ele>
        <time>2022-09-17T12:44:28Z</time>
      </trkpt>
      <trkpt lat="42.63677" lon="1.68174">
        <ele>1953.728</ele>
        <time>2022-09-17T12:44:30Z</time>
      </trkpt>
      <trkpt lat="42.63677" lon="1.68174">
        <ele>1953.702</ele>
        <time>2022-09-17T12:44:32Z</time>
      </trkpt>
      <trkpt lat="42.63677" lon="1.68174">
        <ele>1953.665</ele>
        <time>2022-09-17T12:44:34Z</time>
      </trkpt>
      <trkpt lat="42.63677" lon="1.68174">
        <ele>1953.634</ele>
        <time>2022-09-17T12:44:36Z</time>
      </trkpt>
      <trkpt lat="42.63677" lon="1.68174">
        <ele>1953.628</ele>
        <time>2022-09-17T12:44:38Z</time>
      </trkpt>
      <trkpt lat="42.63677" lon="1.68174">
        <ele>1953.393</ele>
        <time>2022-09-17T12:44:40Z</time>
      </trkpt>
      <trkpt lat="42.63677" lon="1.68174">
        <ele>1953.219</ele>
        <time>2022-09-17T12:44:42Z</time>
      </trkpt>
      <trkpt lat="42.63677" lon="1.68173">
        <ele>1953.096</ele>
        <time>2022-09-17T12:44:44Z</time>
      </trkpt>
      <trkpt lat="42.63677" lon="1.68174">
        <ele>1952.155</ele>
        <time>2022-09-17T12:44:46Z</time>
      </trkpt>
      <trkpt lat="42.63675" lon="1.68175">
        <ele>1953.815</ele>
        <time>2022-09-17T12:44:48Z</time>
      </trkpt>
      <trkpt lat="42.63675" lon="1.68175">
        <ele>1953.806</ele>
        <time>2022-09-17T12:44:50Z</time>
      </trkpt>
      <trkpt lat="42.63675" lon="1.68175">
        <ele>1953.799</ele>
        <time>2022-09-17T12:44:52Z</time>
      </trkpt>
      <trkpt lat="42.63675" lon="1.68175">
        <ele>1953.781</ele>
        <time>2022-09-17T12:44:54Z</time>
      </trkpt>
      <trkpt lat="42.63675" lon="1.68175">
        <ele>1953.768</ele>
        <time>2022-09-17T12:44:56Z</time>
      </trkpt>
      <trkpt lat="42.63675" lon="1.68175">
        <ele>1953.757</ele>
        <time>2022-09-17T12:44:58Z</time>
      </trkpt>
      <trkpt lat="42.63675" lon="1.68175">
        <ele>1953.74</ele>
        <time>2022-09-17T12:45:00Z</time>
      </trkpt>
      <trkpt lat="42.63675" lon="1.68175">
        <ele>1953.734</ele>
        <time>2022-09-17T12:45:02Z</time>
      </trkpt>
      <trkpt lat="42.63675" lon="1.68174">
        <ele>1953.403</ele>
        <time>2022-09-17T12:45:04Z</time>
      </trkpt>
      <trkpt lat="42.63675" lon="1.68174">
        <ele>1953.185</ele>
        <time>2022-09-17T12:45:06Z</time>
      </trkpt>
      <trkpt lat="42.63675" lon="1.68175">
        <ele>1952.486</ele>
        <time>2022-09-17T12:45:08Z</time>
      </trkpt>
      <trkpt lat="42.63674" lon="1.68178">
        <ele>1953.398</ele>
        <time>2022-09-17T12:45:10Z</time>
      </trkpt>
      <trkpt lat="42.63672" lon="1.6818">
        <ele>1954.341</ele>
        <time>2022-09-17T12:45:12Z</time>
      </trkpt>
      <trkpt lat="42.6367" lon="1.68182">
        <ele>1955.464</ele>
        <time>2022-09-17T12:45:14Z</time>
      </trkpt>
      <trkpt lat="42.63669" lon="1.68185">
        <ele>1955.686</ele>
        <time>2022-09-17T12:45:16Z</time>
      </trkpt>
      <trkpt lat="42.63668" lon="1.68189">
        <ele>1956.669</ele>
        <time>2022-09-17T12:45:18Z</time>
      </trkpt>
      <trkpt lat="42.63667" lon="1.68192">
        <ele>1958.081</ele>
        <time>2022-09-17T12:45:20Z</time>
      </trkpt>
      <trkpt lat="42.63667" lon="1.68196">
        <ele>1958.111</ele>
        <time>2022-09-17T12:45:22Z</time>
      </trkpt>
      <trkpt lat="42.63669" lon="1.68198">
        <ele>1956.691</ele>
        <time>2022-09-17T12:45:24Z</time>
      </trkpt>
      <trkpt lat="42.6367" lon="1.68199">
        <ele>1955.102</ele>
        <time>2022-09-17T12:45:26Z</time>
      </trkpt>
      <trkpt lat="42.63671" lon="1.68201">
        <ele>1954.296</ele>
        <time>2022-09-17T12:45:28Z</time>
      </trkpt>
      <trkpt lat="42.63671" lon="1.68203">
        <ele>1953.603</ele>
        <time>2022-09-17T12:45:30Z</time>
      </trkpt>
      <trkpt lat="42.63672" lon="1.68205">
        <ele>1952.6</ele>
        <time>2022-09-17T12:45:32Z</time>
      </trkpt>
      <trkpt lat="42.63673" lon="1.68207">
        <ele>1951.367</ele>
        <time>2022-09-17T12:45:34Z</time>
      </trkpt>
      <trkpt lat="42.63674" lon="1.68209">
        <ele>1949.947</ele>
        <time>2022-09-17T12:45:36Z</time>
      </trkpt>
      <trkpt lat="42.63675" lon="1.68211">
        <ele>1948.959</ele>
        <time>2022-09-17T12:45:38Z</time>
      </trkpt>
      <trkpt lat="42.63675" lon="1.68214">
        <ele>1947.923</ele>
        <time>2022-09-17T12:45:40Z</time>
      </trkpt>
      <trkpt lat="42.63676" lon="1.68216">
        <ele>1946.892</ele>
        <time>2022-09-17T12:45:42Z</time>
      </trkpt>
      <trkpt lat="42.63678" lon="1.68218">
        <ele>1946.347</ele>
        <time>2022-09-17T12:45:44Z</time>
      </trkpt>
      <trkpt lat="42.63679" lon="1.6822">
        <ele>1945.959</ele>
        <time>2022-09-17T12:45:46Z</time>
      </trkpt>
      <trkpt lat="42.6368" lon="1.68222">
        <ele>1945.541</ele>
        <time>2022-09-17T12:45:48Z</time>
      </trkpt>
      <trkpt lat="42.63681" lon="1.68224">
        <ele>1944.856</ele>
        <time>2022-09-17T12:45:50Z</time>
      </trkpt>
      <trkpt lat="42.63682" lon="1.68226">
        <ele>1943.811</ele>
        <time>2022-09-17T12:45:52Z</time>
      </trkpt>
      <trkpt lat="42.63682" lon="1.68229">
        <ele>1943.438</ele>
        <time>2022-09-17T12:45:54Z</time>
      </trkpt>
      <trkpt lat="42.63683" lon="1.68231">
        <ele>1943.88</ele>
        <time>2022-09-17T12:45:56Z</time>
      </trkpt>
      <trkpt lat="42.63683" lon="1.68233">
        <ele>1942.456</ele>
        <time>2022-09-17T12:45:58Z</time>
      </trkpt>
      <trkpt lat="42.63684" lon="1.68236">
        <ele>1940.72</ele>
        <time>2022-09-17T12:46:00Z</time>
      </trkpt>
      <trkpt lat="42.63685" lon="1.68238">
        <ele>1940.246</ele>
        <time>2022-09-17T12:46:02Z</time>
      </trkpt>
      <trkpt lat="42.63686" lon="1.68241">
        <ele>1939.325</ele>
        <time>2022-09-17T12:46:04Z</time>
      </trkpt>
      <trkpt lat="42.63686" lon="1.68244">
        <ele>1938.633</ele>
        <time>2022-09-17T12:46:06Z</time>
      </trkpt>
      <trkpt lat="42.63686" lon="1.68246">
        <ele>1938.202</ele>
        <time>2022-09-17T12:46:08Z</time>
      </trkpt>
      <trkpt lat="42.63687" lon="1.68249">
        <ele>1937.102</ele>
        <time>2022-09-17T12:46:10Z</time>
      </trkpt>
      <trkpt lat="42.63688" lon="1.68251">
        <ele>1937.294</ele>
        <time>2022-09-17T12:46:12Z</time>
      </trkpt>
      <trkpt lat="42.63688" lon="1.68254">
        <ele>1936.631</ele>
        <time>2022-09-17T12:46:14Z</time>
      </trkpt>
      <trkpt lat="42.63689" lon="1.68257">
        <ele>1936.321</ele>
        <time>2022-09-17T12:46:16Z</time>
      </trkpt>
      <trkpt lat="42.63689" lon="1.68259">
        <ele>1936.205</ele>
        <time>2022-09-17T12:46:18Z</time>
      </trkpt>
      <trkpt lat="42.63688" lon="1.68262">
        <ele>1934.991</ele>
        <time>2022-09-17T12:46:20Z</time>
      </trkpt>
      <trkpt lat="42.63689" lon="1.68265">
        <ele>1934.269</ele>
        <time>2022-09-17T12:46:22Z</time>
      </trkpt>
      <trkpt lat="42.63689" lon="1.68267">
        <ele>1933.941</ele>
        <time>2022-09-17T12:46:24Z</time>
      </trkpt>
      <trkpt lat="42.63689" lon="1.6827">
        <ele>1933.272</ele>
        <time>2022-09-17T12:46:26Z</time>
      </trkpt>
      <trkpt lat="42.6369" lon="1.68273">
        <ele>1932.544</ele>
        <time>2022-09-17T12:46:28Z</time>
      </trkpt>
      <trkpt lat="42.63691" lon="1.68276">
        <ele>1931.614</ele>
        <time>2022-09-17T12:46:30Z</time>
      </trkpt>
      <trkpt lat="42.63692" lon="1.68279">
        <ele>1930.976</ele>
        <time>2022-09-17T12:46:32Z</time>
      </trkpt>
      <trkpt lat="42.63692" lon="1.68282">
        <ele>1931.083</ele>
        <time>2022-09-17T12:46:34Z</time>
      </trkpt>
      <trkpt lat="42.63692" lon="1.68286">
        <ele>1930.741</ele>
        <time>2022-09-17T12:46:36Z</time>
      </trkpt>
      <trkpt lat="42.63693" lon="1.68288">
        <ele>1931.235</ele>
        <time>2022-09-17T12:46:38Z</time>
      </trkpt>
      <trkpt lat="42.63694" lon="1.68291">
        <ele>1931.331</ele>
        <time>2022-09-17T12:46:40Z</time>
      </trkpt>
      <trkpt lat="42.63695" lon="1.68294">
        <ele>1930.729</ele>
        <time>2022-09-17T12:46:42Z</time>
      </trkpt>
      <trkpt lat="42.63695" lon="1.68296">
        <ele>1930.729</ele>
        <time>2022-09-17T12:46:44Z</time>
      </trkpt>
      <trkpt lat="42.63697" lon="1.68298">
        <ele>1930.694</ele>
        <time>2022-09-17T12:46:46Z</time>
      </trkpt>
      <trkpt lat="42.63698" lon="1.683">
        <ele>1931.226</ele>
        <time>2022-09-17T12:46:48Z</time>
      </trkpt>
      <trkpt lat="42.63699" lon="1.68303">
        <ele>1931.803</ele>
        <time>2022-09-17T12:46:50Z</time>
      </trkpt>
      <trkpt lat="42.637" lon="1.68305">
        <ele>1932.029</ele>
        <time>2022-09-17T12:46:52Z</time>
      </trkpt>
      <trkpt lat="42.637" lon="1.68308">
        <ele>1931.952</ele>
        <time>2022-09-17T12:46:54Z</time>
      </trkpt>
      <trkpt lat="42.63698" lon="1.68311">
        <ele>1932.324</ele>
        <time>2022-09-17T12:46:56Z</time>
      </trkpt>
      <trkpt lat="42.63696" lon="1.68312">
        <ele>1933.622</ele>
        <time>2022-09-17T12:46:58Z</time>
      </trkpt>
      <trkpt lat="42.63695" lon="1.68316">
        <ele>1935.848</ele>
        <time>2022-09-17T12:47:00Z</time>
      </trkpt>
      <trkpt lat="42.63696" lon="1.68318">
        <ele>1937.377</ele>
        <time>2022-09-17T12:47:02Z</time>
      </trkpt>
      <trkpt lat="42.63697" lon="1.68321">
        <ele>1938.834</ele>
        <time>2022-09-17T12:47:04Z</time>
      </trkpt>
      <trkpt lat="42.63697" lon="1.68323">
        <ele>1938.101</ele>
        <time>2022-09-17T12:47:06Z</time>
      </trkpt>
      <trkpt lat="42.63696" lon="1.68325">
        <ele>1937.506</ele>
        <time>2022-09-17T12:47:08Z</time>
      </trkpt>
      <trkpt lat="42.63696" lon="1.68327">
        <ele>1936.971</ele>
        <time>2022-09-17T12:47:10Z</time>
      </trkpt>
      <trkpt lat="42.63697" lon="1.6833">
        <ele>1937.979</ele>
        <time>2022-09-17T12:47:12Z</time>
      </trkpt>
      <trkpt lat="42.63698" lon="1.68332">
        <ele>1937.366</ele>
        <time>2022-09-17T12:47:14Z</time>
      </trkpt>
      <trkpt lat="42.63698" lon="1.68334">
        <ele>1937.615</ele>
        <time>2022-09-17T12:47:16Z</time>
      </trkpt>
      <trkpt lat="42.63699" lon="1.68336">
        <ele>1937.178</ele>
        <time>2022-09-17T12:47:18Z</time>
      </trkpt>
      <trkpt lat="42.637" lon="1.68338">
        <ele>1936.199</ele>
        <time>2022-09-17T12:47:20Z</time>
      </trkpt>
      <trkpt lat="42.637" lon="1.6834">
        <ele>1935.197</ele>
        <time>2022-09-17T12:47:22Z</time>
      </trkpt>
      <trkpt lat="42.637" lon="1.68342">
        <ele>1934.962</ele>
        <time>2022-09-17T12:47:24Z</time>
      </trkpt>
      <trkpt lat="42.637" lon="1.68343">
        <ele>1935.276</ele>
        <time>2022-09-17T12:47:26Z</time>
      </trkpt>
      <trkpt lat="42.637" lon="1.68345">
        <ele>1935.182</ele>
        <time>2022-09-17T12:47:28Z</time>
      </trkpt>
      <trkpt lat="42.63699" lon="1.68347">
        <ele>1934.491</ele>
        <time>2022-09-17T12:47:30Z</time>
      </trkpt>
      <trkpt lat="42.637" lon="1.68349">
        <ele>1933.609</ele>
        <time>2022-09-17T12:47:32Z</time>
      </trkpt>
      <trkpt lat="42.63701" lon="1.6835">
        <ele>1932.2</ele>
        <time>2022-09-17T12:47:34Z</time>
      </trkpt>
      <trkpt lat="42.63702" lon="1.68352">
        <ele>1932.162</ele>
        <time>2022-09-17T12:47:36Z</time>
      </trkpt>
      <trkpt lat="42.63703" lon="1.68355">
        <ele>1932.929</ele>
        <time>2022-09-17T12:47:38Z</time>
      </trkpt>
      <trkpt lat="42.63703" lon="1.68357">
        <ele>1932.446</ele>
        <time>2022-09-17T12:47:40Z</time>
      </trkpt>
      <trkpt lat="42.63704" lon="1.6836">
        <ele>1932.021</ele>
        <time>2022-09-17T12:47:42Z</time>
      </trkpt>
      <trkpt lat="42.63705" lon="1.68362">
        <ele>1931.876</ele>
        <time>2022-09-17T12:47:44Z</time>
      </trkpt>
      <trkpt lat="42.63707" lon="1.68364">
        <ele>1931.878</ele>
        <time>2022-09-17T12:47:46Z</time>
      </trkpt>
      <trkpt lat="42.63708" lon="1.68365">
        <ele>1931.283</ele>
        <time>2022-09-17T12:47:48Z</time>
      </trkpt>
      <trkpt lat="42.63709" lon="1.68367">
        <ele>1930.377</ele>
        <time>2022-09-17T12:47:50Z</time>
      </trkpt>
      <trkpt lat="42.6371" lon="1.6837">
        <ele>1930.302</ele>
        <time>2022-09-17T12:47:52Z</time>
      </trkpt>
      <trkpt lat="42.63711" lon="1.68372">
        <ele>1929.991</ele>
        <time>2022-09-17T12:47:54Z</time>
      </trkpt>
      <trkpt lat="42.63712" lon="1.68374">
        <ele>1930.264</ele>
        <time>2022-09-17T12:47:56Z</time>
      </trkpt>
      <trkpt lat="42.63712" lon="1.68376">
        <ele>1929.988</ele>
        <time>2022-09-17T12:47:58Z</time>
      </trkpt>
      <trkpt lat="42.63711" lon="1.68379">
        <ele>1929.746</ele>
        <time>2022-09-17T12:48:00Z</time>
      </trkpt>
      <trkpt lat="42.63711" lon="1.68382">
        <ele>1929.82</ele>
        <time>2022-09-17T12:48:02Z</time>
      </trkpt>
      <trkpt lat="42.6371" lon="1.68385">
        <ele>1930.338</ele>
        <time>2022-09-17T12:48:04Z</time>
      </trkpt>
      <trkpt lat="42.6371" lon="1.68388">
        <ele>1930.731</ele>
        <time>2022-09-17T12:48:06Z</time>
      </trkpt>
      <trkpt lat="42.63709" lon="1.6839">
        <ele>1930.661</ele>
        <time>2022-09-17T12:48:08Z</time>
      </trkpt>
      <trkpt lat="42.63708" lon="1.68392">
        <ele>1929.107</ele>
        <time>2022-09-17T12:48:10Z</time>
      </trkpt>
      <trkpt lat="42.63707" lon="1.68393">
        <ele>1928.489</ele>
        <time>2022-09-17T12:48:12Z</time>
      </trkpt>
      <trkpt lat="42.63706" lon="1.68392">
        <ele>1925.655</ele>
        <time>2022-09-17T12:48:14Z</time>
      </trkpt>
      <trkpt lat="42.63705" lon="1.68391">
        <ele>1922.121</ele>
        <time>2022-09-17T12:48:16Z</time>
      </trkpt>
      <trkpt lat="42.63703" lon="1.6839">
        <ele>1921.315</ele>
        <time>2022-09-17T12:48:18Z</time>
      </trkpt>
      <trkpt lat="42.63701" lon="1.68389">
        <ele>1922.201</ele>
        <time>2022-09-17T12:48:20Z</time>
      </trkpt>
      <trkpt lat="42.637" lon="1.68389">
        <ele>1922.17</ele>
        <time>2022-09-17T12:48:22Z</time>
      </trkpt>
      <trkpt lat="42.63699" lon="1.68389">
        <ele>1922.715</ele>
        <time>2022-09-17T12:48:24Z</time>
      </trkpt>
      <trkpt lat="42.63698" lon="1.68389">
        <ele>1922.359</ele>
        <time>2022-09-17T12:48:26Z</time>
      </trkpt>
      <trkpt lat="42.63699" lon="1.68389">
        <ele>1921.533</ele>
        <time>2022-09-17T12:48:28Z</time>
      </trkpt>
      <trkpt lat="42.63699" lon="1.68388">
        <ele>1921.546</ele>
        <time>2022-09-17T12:48:30Z</time>
      </trkpt>
      <trkpt lat="42.63699" lon="1.68388">
        <ele>1921.669</ele>
        <time>2022-09-17T12:48:32Z</time>
      </trkpt>
      <trkpt lat="42.63699" lon="1.68387">
        <ele>1921.87</ele>
        <time>2022-09-17T12:48:34Z</time>
      </trkpt>
      <trkpt lat="42.63699" lon="1.68387">
        <ele>1921.842</ele>
        <time>2022-09-17T12:48:36Z</time>
      </trkpt>
      <trkpt lat="42.63699" lon="1.68387">
        <ele>1921.868</ele>
        <time>2022-09-17T12:48:38Z</time>
      </trkpt>
      <trkpt lat="42.63699" lon="1.68387">
        <ele>1921.882</ele>
        <time>2022-09-17T12:48:40Z</time>
      </trkpt>
      <trkpt lat="42.63699" lon="1.68387">
        <ele>1921.904</ele>
        <time>2022-09-17T12:48:42Z</time>
      </trkpt>
      <trkpt lat="42.63699" lon="1.68386">
        <ele>1921.91</ele>
        <time>2022-09-17T12:48:44Z</time>
      </trkpt>
      <trkpt lat="42.63699" lon="1.68386">
        <ele>1921.916</ele>
        <time>2022-09-17T12:48:46Z</time>
      </trkpt>
      <trkpt lat="42.63699" lon="1.68386">
        <ele>1922.577</ele>
        <time>2022-09-17T12:48:48Z</time>
      </trkpt>
      <trkpt lat="42.63699" lon="1.68386">
        <ele>1923.015</ele>
        <time>2022-09-17T12:48:50Z</time>
      </trkpt>
      <trkpt lat="42.63699" lon="1.68386">
        <ele>1923.235</ele>
        <time>2022-09-17T12:48:52Z</time>
      </trkpt>
      <trkpt lat="42.637" lon="1.68386">
        <ele>1923.174</ele>
        <time>2022-09-17T12:48:54Z</time>
      </trkpt>
      <trkpt lat="42.63699" lon="1.68385">
        <ele>1923.095</ele>
        <time>2022-09-17T12:48:56Z</time>
      </trkpt>
      <trkpt lat="42.63699" lon="1.68385">
        <ele>1922.825</ele>
        <time>2022-09-17T12:48:58Z</time>
      </trkpt>
      <trkpt lat="42.63699" lon="1.68385">
        <ele>1922.819</ele>
        <time>2022-09-17T12:49:00Z</time>
      </trkpt>
      <trkpt lat="42.63699" lon="1.68385">
        <ele>1922.813</ele>
        <time>2022-09-17T12:49:02Z</time>
      </trkpt>
      <trkpt lat="42.63699" lon="1.68385">
        <ele>1922.801</ele>
        <time>2022-09-17T12:49:04Z</time>
      </trkpt>
      <trkpt lat="42.63699" lon="1.68385">
        <ele>1922.807</ele>
        <time>2022-09-17T12:49:06Z</time>
      </trkpt>
      <trkpt lat="42.63699" lon="1.68385">
        <ele>1922.79</ele>
        <time>2022-09-17T12:49:08Z</time>
      </trkpt>
      <trkpt lat="42.63699" lon="1.68385">
        <ele>1922.791</ele>
        <time>2022-09-17T12:49:10Z</time>
      </trkpt>
      <trkpt lat="42.63699" lon="1.68385">
        <ele>1922.796</ele>
        <time>2022-09-17T12:49:12Z</time>
      </trkpt>
      <trkpt lat="42.63699" lon="1.68384">
        <ele>1922.914</ele>
        <time>2022-09-17T12:49:14Z</time>
      </trkpt>
      <trkpt lat="42.63699" lon="1.68384">
        <ele>1922.91</ele>
        <time>2022-09-17T12:49:16Z</time>
      </trkpt>
      <trkpt lat="42.63699" lon="1.68384">
        <ele>1922.894</ele>
        <time>2022-09-17T12:49:18Z</time>
      </trkpt>
      <trkpt lat="42.63699" lon="1.68384">
        <ele>1922.891</ele>
        <time>2022-09-17T12:49:20Z</time>
      </trkpt>
      <trkpt lat="42.63699" lon="1.68384">
        <ele>1922.886</ele>
        <time>2022-09-17T12:49:22Z</time>
      </trkpt>
      <trkpt lat="42.63699" lon="1.68384">
        <ele>1922.885</ele>
        <time>2022-09-17T12:49:24Z</time>
      </trkpt>
      <trkpt lat="42.63699" lon="1.68384">
        <ele>1922.882</ele>
        <time>2022-09-17T12:49:26Z</time>
      </trkpt>
      <trkpt lat="42.63699" lon="1.68384">
        <ele>1922.882</ele>
        <time>2022-09-17T12:49:28Z</time>
      </trkpt>
      <trkpt lat="42.63699" lon="1.68384">
        <ele>1922.878</ele>
        <time>2022-09-17T12:49:30Z</time>
      </trkpt>
      <trkpt lat="42.63699" lon="1.68384">
        <ele>1922.864</ele>
        <time>2022-09-17T12:49:32Z</time>
      </trkpt>
      <trkpt lat="42.63699" lon="1.68384">
        <ele>1922.857</ele>
        <time>2022-09-17T12:49:34Z</time>
      </trkpt>
      <trkpt lat="42.63699" lon="1.68384">
        <ele>1922.854</ele>
        <time>2022-09-17T12:49:36Z</time>
      </trkpt>
      <trkpt lat="42.63699" lon="1.68383">
        <ele>1922.848</ele>
        <time>2022-09-17T12:49:38Z</time>
      </trkpt>
      <trkpt lat="42.63699" lon="1.68383">
        <ele>1922.838</ele>
        <time>2022-09-17T12:49:40Z</time>
      </trkpt>
      <trkpt lat="42.63699" lon="1.68383">
        <ele>1922.83</ele>
        <time>2022-09-17T12:49:42Z</time>
      </trkpt>
      <trkpt lat="42.63699" lon="1.68383">
        <ele>1922.827</ele>
        <time>2022-09-17T12:49:44Z</time>
      </trkpt>
      <trkpt lat="42.63699" lon="1.68383">
        <ele>1922.802</ele>
        <time>2022-09-17T12:49:46Z</time>
      </trkpt>
      <trkpt lat="42.63699" lon="1.68383">
        <ele>1922.781</ele>
        <time>2022-09-17T12:49:48Z</time>
      </trkpt>
      <trkpt lat="42.63699" lon="1.68383">
        <ele>1922.784</ele>
        <time>2022-09-17T12:49:50Z</time>
      </trkpt>
      <trkpt lat="42.63699" lon="1.68383">
        <ele>1922.774</ele>
        <time>2022-09-17T12:49:52Z</time>
      </trkpt>
      <trkpt lat="42.63699" lon="1.68383">
        <ele>1922.765</ele>
        <time>2022-09-17T12:49:54Z</time>
      </trkpt>
      <trkpt lat="42.63699" lon="1.68383">
        <ele>1922.76</ele>
        <time>2022-09-17T12:49:56Z</time>
      </trkpt>
      <trkpt lat="42.63699" lon="1.68383">
        <ele>1922.745</ele>
        <time>2022-09-17T12:49:58Z</time>
      </trkpt>
      <trkpt lat="42.63699" lon="1.68383">
        <ele>1922.724</ele>
        <time>2022-09-17T12:50:00Z</time>
      </trkpt>
      <trkpt lat="42.63699" lon="1.68383">
        <ele>1922.719</ele>
        <time>2022-09-17T12:50:02Z</time>
      </trkpt>
      <trkpt lat="42.63699" lon="1.68383">
        <ele>1922.728</ele>
        <time>2022-09-17T12:50:04Z</time>
      </trkpt>
      <trkpt lat="42.63699" lon="1.68383">
        <ele>1922.719</ele>
        <time>2022-09-17T12:50:06Z</time>
      </trkpt>
      <trkpt lat="42.63699" lon="1.68383">
        <ele>1922.706</ele>
        <time>2022-09-17T12:50:08Z</time>
      </trkpt>
      <trkpt lat="42.63699" lon="1.68383">
        <ele>1922.699</ele>
        <time>2022-09-17T12:50:10Z</time>
      </trkpt>
      <trkpt lat="42.63699" lon="1.68383">
        <ele>1922.687</ele>
        <time>2022-09-17T12:50:12Z</time>
      </trkpt>
      <trkpt lat="42.63699" lon="1.68383">
        <ele>1922.671</ele>
        <time>2022-09-17T12:50:14Z</time>
      </trkpt>
      <trkpt lat="42.63699" lon="1.68383">
        <ele>1922.677</ele>
        <time>2022-09-17T12:50:16Z</time>
      </trkpt>
      <trkpt lat="42.63699" lon="1.68383">
        <ele>1922.668</ele>
        <time>2022-09-17T12:50:18Z</time>
      </trkpt>
      <trkpt lat="42.63699" lon="1.68383">
        <ele>1922.665</ele>
        <time>2022-09-17T12:50:20Z</time>
      </trkpt>
      <trkpt lat="42.63699" lon="1.68383">
        <ele>1922.668</ele>
        <time>2022-09-17T12:50:22Z</time>
      </trkpt>
      <trkpt lat="42.63699" lon="1.68383">
        <ele>1922.668</ele>
        <time>2022-09-17T12:50:24Z</time>
      </trkpt>
      <trkpt lat="42.63699" lon="1.68383">
        <ele>1922.651</ele>
        <time>2022-09-17T12:50:26Z</time>
      </trkpt>
      <trkpt lat="42.63699" lon="1.68383">
        <ele>1922.429</ele>
        <time>2022-09-17T12:50:28Z</time>
      </trkpt>
      <trkpt lat="42.63699" lon="1.68383">
        <ele>1922.418</ele>
        <time>2022-09-17T12:50:30Z</time>
      </trkpt>
      <trkpt lat="42.63699" lon="1.68383">
        <ele>1922.414</ele>
        <time>2022-09-17T12:50:32Z</time>
      </trkpt>
      <trkpt lat="42.63699" lon="1.68383">
        <ele>1922.406</ele>
        <time>2022-09-17T12:50:34Z</time>
      </trkpt>
      <trkpt lat="42.63699" lon="1.68383">
        <ele>1922.413</ele>
        <time>2022-09-17T12:50:36Z</time>
      </trkpt>
      <trkpt lat="42.63699" lon="1.68383">
        <ele>1922.398</ele>
        <time>2022-09-17T12:50:38Z</time>
      </trkpt>
      <trkpt lat="42.637" lon="1.68383">
        <ele>1922.315</ele>
        <time>2022-09-17T12:50:40Z</time>
      </trkpt>
      <trkpt lat="42.63699" lon="1.68383">
        <ele>1922.051</ele>
        <time>2022-09-17T12:50:42Z</time>
      </trkpt>
      <trkpt lat="42.63699" lon="1.68383">
        <ele>1922.549</ele>
        <time>2022-09-17T12:50:44Z</time>
      </trkpt>
      <trkpt lat="42.63699" lon="1.68383">
        <ele>1922.234</ele>
        <time>2022-09-17T12:50:46Z</time>
      </trkpt>
      <trkpt lat="42.63699" lon="1.68383">
        <ele>1921.76</ele>
        <time>2022-09-17T12:50:48Z</time>
      </trkpt>
      <trkpt lat="42.63699" lon="1.68383">
        <ele>1921.77</ele>
        <time>2022-09-17T12:50:50Z</time>
      </trkpt>
      <trkpt lat="42.63699" lon="1.68383">
        <ele>1921.779</ele>
        <time>2022-09-17T12:50:52Z</time>
      </trkpt>
      <trkpt lat="42.63699" lon="1.68383">
        <ele>1921.773</ele>
        <time>2022-09-17T12:50:54Z</time>
      </trkpt>
      <trkpt lat="42.63699" lon="1.68383">
        <ele>1921.758</ele>
        <time>2022-09-17T12:50:56Z</time>
      </trkpt>
      <trkpt lat="42.63699" lon="1.68383">
        <ele>1921.753</ele>
        <time>2022-09-17T12:50:58Z</time>
      </trkpt>
      <trkpt lat="42.63699" lon="1.68383">
        <ele>1921.74</ele>
        <time>2022-09-17T12:51:00Z</time>
      </trkpt>
      <trkpt lat="42.63699" lon="1.68383">
        <ele>1921.749</ele>
        <time>2022-09-17T12:51:02Z</time>
      </trkpt>
      <trkpt lat="42.63699" lon="1.68383">
        <ele>1921.753</ele>
        <time>2022-09-17T12:51:04Z</time>
      </trkpt>
      <trkpt lat="42.63699" lon="1.68383">
        <ele>1921.334</ele>
        <time>2022-09-17T12:51:06Z</time>
      </trkpt>
      <trkpt lat="42.63699" lon="1.68383">
        <ele>1921.333</ele>
        <time>2022-09-17T12:51:08Z</time>
      </trkpt>
      <trkpt lat="42.63699" lon="1.68383">
        <ele>1921.334</ele>
        <time>2022-09-17T12:51:10Z</time>
      </trkpt>
      <trkpt lat="42.63699" lon="1.68383">
        <ele>1921.326</ele>
        <time>2022-09-17T12:51:12Z</time>
      </trkpt>
      <trkpt lat="42.63699" lon="1.68383">
        <ele>1921.329</ele>
        <time>2022-09-17T12:51:14Z</time>
      </trkpt>
      <trkpt lat="42.63699" lon="1.68383">
        <ele>1921.322</ele>
        <time>2022-09-17T12:51:16Z</time>
      </trkpt>
      <trkpt lat="42.63699" lon="1.68383">
        <ele>1921.305</ele>
        <time>2022-09-17T12:51:18Z</time>
      </trkpt>
      <trkpt lat="42.63699" lon="1.68383">
        <ele>1921.317</ele>
        <time>2022-09-17T12:51:20Z</time>
      </trkpt>
      <trkpt lat="42.63699" lon="1.68383">
        <ele>1921.303</ele>
        <time>2022-09-17T12:51:22Z</time>
      </trkpt>
      <trkpt lat="42.63699" lon="1.68383">
        <ele>1921.292</ele>
        <time>2022-09-17T12:51:24Z</time>
      </trkpt>
      <trkpt lat="42.63699" lon="1.68383">
        <ele>1921.285</ele>
        <time>2022-09-17T12:51:26Z</time>
      </trkpt>
      <trkpt lat="42.63699" lon="1.68383">
        <ele>1921.269</ele>
        <time>2022-09-17T12:51:28Z</time>
      </trkpt>
      <trkpt lat="42.63699" lon="1.68383">
        <ele>1921.277</ele>
        <time>2022-09-17T12:51:30Z</time>
      </trkpt>
      <trkpt lat="42.63699" lon="1.68383">
        <ele>1921.271</ele>
        <time>2022-09-17T12:51:32Z</time>
      </trkpt>
      <trkpt lat="42.63699" lon="1.68383">
        <ele>1921.273</ele>
        <time>2022-09-17T12:51:34Z</time>
      </trkpt>
      <trkpt lat="42.63699" lon="1.68383">
        <ele>1921.268</ele>
        <time>2022-09-17T12:51:36Z</time>
      </trkpt>
      <trkpt lat="42.63699" lon="1.68383">
        <ele>1921.262</ele>
        <time>2022-09-17T12:51:38Z</time>
      </trkpt>
      <trkpt lat="42.63699" lon="1.68383">
        <ele>1920.962</ele>
        <time>2022-09-17T12:51:40Z</time>
      </trkpt>
      <trkpt lat="42.63699" lon="1.68383">
        <ele>1920.932</ele>
        <time>2022-09-17T12:51:42Z</time>
      </trkpt>
      <trkpt lat="42.63699" lon="1.68384">
        <ele>1920.593</ele>
        <time>2022-09-17T12:51:44Z</time>
      </trkpt>
      <trkpt lat="42.63698" lon="1.68386">
        <ele>1920.3</ele>
        <time>2022-09-17T12:51:46Z</time>
      </trkpt>
      <trkpt lat="42.63698" lon="1.6839">
        <ele>1919.425</ele>
        <time>2022-09-17T12:51:48Z</time>
      </trkpt>
      <trkpt lat="42.63699" lon="1.68393">
        <ele>1920.413</ele>
        <time>2022-09-17T12:51:50Z</time>
      </trkpt>
      <trkpt lat="42.637" lon="1.68395">
        <ele>1920.603</ele>
        <time>2022-09-17T12:51:52Z</time>
      </trkpt>
      <trkpt lat="42.63701" lon="1.68397">
        <ele>1921.001</ele>
        <time>2022-09-17T12:51:54Z</time>
      </trkpt>
      <trkpt lat="42.63702" lon="1.68398">
        <ele>1920.139</ele>
        <time>2022-09-17T12:51:56Z</time>
      </trkpt>
      <trkpt lat="42.63703" lon="1.684">
        <ele>1920.338</ele>
        <time>2022-09-17T12:51:58Z</time>
      </trkpt>
      <trkpt lat="42.63704" lon="1.68402">
        <ele>1920.545</ele>
        <time>2022-09-17T12:52:00Z</time>
      </trkpt>
      <trkpt lat="42.63706" lon="1.68403">
        <ele>1920.582</ele>
        <time>2022-09-17T12:52:02Z</time>
      </trkpt>
      <trkpt lat="42.63707" lon="1.68406">
        <ele>1920.182</ele>
        <time>2022-09-17T12:52:04Z</time>
      </trkpt>
      <trkpt lat="42.63707" lon="1.68409">
        <ele>1919.631</ele>
        <time>2022-09-17T12:52:06Z</time>
      </trkpt>
      <trkpt lat="42.63707" lon="1.68413">
        <ele>1919.271</ele>
        <time>2022-09-17T12:52:08Z</time>
      </trkpt>
      <trkpt lat="42.63706" lon="1.68417">
        <ele>1917.786</ele>
        <time>2022-09-17T12:52:10Z</time>
      </trkpt>
      <trkpt lat="42.63707" lon="1.6842">
        <ele>1917.847</ele>
        <time>2022-09-17T12:52:12Z</time>
      </trkpt>
      <trkpt lat="42.63707" lon="1.68424">
        <ele>1917.49</ele>
        <time>2022-09-17T12:52:14Z</time>
      </trkpt>
      <trkpt lat="42.63706" lon="1.68427">
        <ele>1917.349</ele>
        <time>2022-09-17T12:52:16Z</time>
      </trkpt>
      <trkpt lat="42.63706" lon="1.6843">
        <ele>1917.101</ele>
        <time>2022-09-17T12:52:18Z</time>
      </trkpt>
      <trkpt lat="42.63707" lon="1.68432">
        <ele>1916.444</ele>
        <time>2022-09-17T12:52:20Z</time>
      </trkpt>
      <trkpt lat="42.63708" lon="1.68434">
        <ele>1916.759</ele>
        <time>2022-09-17T12:52:22Z</time>
      </trkpt>
      <trkpt lat="42.6371" lon="1.68436">
        <ele>1916.521</ele>
        <time>2022-09-17T12:52:24Z</time>
      </trkpt>
      <trkpt lat="42.6371" lon="1.68438">
        <ele>1915.676</ele>
        <time>2022-09-17T12:52:26Z</time>
      </trkpt>
      <trkpt lat="42.6371" lon="1.68441">
        <ele>1915.943</ele>
        <time>2022-09-17T12:52:28Z</time>
      </trkpt>
      <trkpt lat="42.63711" lon="1.68443">
        <ele>1915.214</ele>
        <time>2022-09-17T12:52:30Z</time>
      </trkpt>
      <trkpt lat="42.63713" lon="1.68444">
        <ele>1914.386</ele>
        <time>2022-09-17T12:52:32Z</time>
      </trkpt>
      <trkpt lat="42.63714" lon="1.68446">
        <ele>1914.532</ele>
        <time>2022-09-17T12:52:34Z</time>
      </trkpt>
      <trkpt lat="42.63715" lon="1.68448">
        <ele>1914.851</ele>
        <time>2022-09-17T12:52:36Z</time>
      </trkpt>
      <trkpt lat="42.63717" lon="1.68451">
        <ele>1914.372</ele>
        <time>2022-09-17T12:52:38Z</time>
      </trkpt>
      <trkpt lat="42.63718" lon="1.68454">
        <ele>1913.951</ele>
        <time>2022-09-17T12:52:40Z</time>
      </trkpt>
      <trkpt lat="42.63719" lon="1.68457">
        <ele>1913.635</ele>
        <time>2022-09-17T12:52:42Z</time>
      </trkpt>
      <trkpt lat="42.63721" lon="1.68459">
        <ele>1913.497</ele>
        <time>2022-09-17T12:52:44Z</time>
      </trkpt>
      <trkpt lat="42.63722" lon="1.68462">
        <ele>1913.297</ele>
        <time>2022-09-17T12:52:46Z</time>
      </trkpt>
      <trkpt lat="42.63724" lon="1.68465">
        <ele>1912.46</ele>
        <time>2022-09-17T12:52:48Z</time>
      </trkpt>
      <trkpt lat="42.63725" lon="1.68468">
        <ele>1912.41</ele>
        <time>2022-09-17T12:52:50Z</time>
      </trkpt>
      <trkpt lat="42.63727" lon="1.68471">
        <ele>1910.891</ele>
        <time>2022-09-17T12:52:52Z</time>
      </trkpt>
      <trkpt lat="42.63728" lon="1.68477">
        <ele>1909.802</ele>
        <time>2022-09-17T12:52:54Z</time>
      </trkpt>
      <trkpt lat="42.63729" lon="1.68483">
        <ele>1910.602</ele>
        <time>2022-09-17T12:52:56Z</time>
      </trkpt>
      <trkpt lat="42.6373" lon="1.68489">
        <ele>1909.774</ele>
        <time>2022-09-17T12:52:58Z</time>
      </trkpt>
      <trkpt lat="42.6373" lon="1.68496">
        <ele>1910.011</ele>
        <time>2022-09-17T12:53:00Z</time>
      </trkpt>
      <trkpt lat="42.6373" lon="1.68503">
        <ele>1908.977</ele>
        <time>2022-09-17T12:53:02Z</time>
      </trkpt>
      <trkpt lat="42.6373" lon="1.68511">
        <ele>1908.848</ele>
        <time>2022-09-17T12:53:04Z</time>
      </trkpt>
      <trkpt lat="42.63731" lon="1.68519">
        <ele>1908.033</ele>
        <time>2022-09-17T12:53:06Z</time>
      </trkpt>
      <trkpt lat="42.63732" lon="1.68526">
        <ele>1908.119</ele>
        <time>2022-09-17T12:53:08Z</time>
      </trkpt>
      <trkpt lat="42.63732" lon="1.68533">
        <ele>1907.824</ele>
        <time>2022-09-17T12:53:10Z</time>
      </trkpt>
      <trkpt lat="42.63733" lon="1.6854">
        <ele>1907.099</ele>
        <time>2022-09-17T12:53:12Z</time>
      </trkpt>
      <trkpt lat="42.63733" lon="1.68546">
        <ele>1907.267</ele>
        <time>2022-09-17T12:53:14Z</time>
      </trkpt>
      <trkpt lat="42.63733" lon="1.68554">
        <ele>1907.652</ele>
        <time>2022-09-17T12:53:16Z</time>
      </trkpt>
      <trkpt lat="42.63732" lon="1.68562">
        <ele>1907.749</ele>
        <time>2022-09-17T12:53:18Z</time>
      </trkpt>
      <trkpt lat="42.63731" lon="1.68568">
        <ele>1907.195</ele>
        <time>2022-09-17T12:53:20Z</time>
      </trkpt>
      <trkpt lat="42.63732" lon="1.68574">
        <ele>1907.627</ele>
        <time>2022-09-17T12:53:22Z</time>
      </trkpt>
      <trkpt lat="42.63733" lon="1.68579">
        <ele>1906.793</ele>
        <time>2022-09-17T12:53:24Z</time>
      </trkpt>
      <trkpt lat="42.63734" lon="1.68584">
        <ele>1908.502</ele>
        <time>2022-09-17T12:53:26Z</time>
      </trkpt>
      <trkpt lat="42.63734" lon="1.6859">
        <ele>1910.816</ele>
        <time>2022-09-17T12:53:28Z</time>
      </trkpt>
      <trkpt lat="42.63734" lon="1.68593">
        <ele>1910.437</ele>
        <time>2022-09-17T12:53:30Z</time>
      </trkpt>
      <trkpt lat="42.63735" lon="1.68596">
        <ele>1910.805</ele>
        <time>2022-09-17T12:53:32Z</time>
      </trkpt>
      <trkpt lat="42.63736" lon="1.686">
        <ele>1910.382</ele>
        <time>2022-09-17T12:53:34Z</time>
      </trkpt>
      <trkpt lat="42.63737" lon="1.68603">
        <ele>1910.303</ele>
        <time>2022-09-17T12:53:36Z</time>
      </trkpt>
      <trkpt lat="42.63737" lon="1.68606">
        <ele>1910.719</ele>
        <time>2022-09-17T12:53:38Z</time>
      </trkpt>
      <trkpt lat="42.63738" lon="1.68609">
        <ele>1911.316</ele>
        <time>2022-09-17T12:53:40Z</time>
      </trkpt>
      <trkpt lat="42.6374" lon="1.68612">
        <ele>1911.304</ele>
        <time>2022-09-17T12:53:42Z</time>
      </trkpt>
      <trkpt lat="42.63741" lon="1.68615">
        <ele>1912.21</ele>
        <time>2022-09-17T12:53:44Z</time>
      </trkpt>
      <trkpt lat="42.63741" lon="1.68619">
        <ele>1912.791</ele>
        <time>2022-09-17T12:53:46Z</time>
      </trkpt>
      <trkpt lat="42.63741" lon="1.68622">
        <ele>1912.65</ele>
        <time>2022-09-17T12:53:48Z</time>
      </trkpt>
      <trkpt lat="42.63742" lon="1.68626">
        <ele>1912.158</ele>
        <time>2022-09-17T12:53:50Z</time>
      </trkpt>
      <trkpt lat="42.63744" lon="1.68628">
        <ele>1910.515</ele>
        <time>2022-09-17T12:53:52Z</time>
      </trkpt>
      <trkpt lat="42.63745" lon="1.6863">
        <ele>1909.774</ele>
        <time>2022-09-17T12:53:54Z</time>
      </trkpt>
      <trkpt lat="42.63747" lon="1.68634">
        <ele>1908.58</ele>
        <time>2022-09-17T12:53:56Z</time>
      </trkpt>
      <trkpt lat="42.63748" lon="1.68637">
        <ele>1908.549</ele>
        <time>2022-09-17T12:53:58Z</time>
      </trkpt>
      <trkpt lat="42.63747" lon="1.68641">
        <ele>1908.188</ele>
        <time>2022-09-17T12:54:00Z</time>
      </trkpt>
      <trkpt lat="42.63747" lon="1.68646">
        <ele>1906.974</ele>
        <time>2022-09-17T12:54:02Z</time>
      </trkpt>
      <trkpt lat="42.63747" lon="1.6865">
        <ele>1906.302</ele>
        <time>2022-09-17T12:54:04Z</time>
      </trkpt>
      <trkpt lat="42.63747" lon="1.68654">
        <ele>1906.038</ele>
        <time>2022-09-17T12:54:06Z</time>
      </trkpt>
      <trkpt lat="42.63747" lon="1.68658">
        <ele>1906.331</ele>
        <time>2022-09-17T12:54:08Z</time>
      </trkpt>
      <trkpt lat="42.63746" lon="1.68661">
        <ele>1905.485</ele>
        <time>2022-09-17T12:54:10Z</time>
      </trkpt>
      <trkpt lat="42.63746" lon="1.68665">
        <ele>1905.251</ele>
        <time>2022-09-17T12:54:12Z</time>
      </trkpt>
      <trkpt lat="42.63746" lon="1.68669">
        <ele>1905.611</ele>
        <time>2022-09-17T12:54:14Z</time>
      </trkpt>
      <trkpt lat="42.63746" lon="1.68673">
        <ele>1905.737</ele>
        <time>2022-09-17T12:54:16Z</time>
      </trkpt>
      <trkpt lat="42.63746" lon="1.68676">
        <ele>1905.032</ele>
        <time>2022-09-17T12:54:18Z</time>
      </trkpt>
      <trkpt lat="42.63746" lon="1.6868">
        <ele>1905.207</ele>
        <time>2022-09-17T12:54:20Z</time>
      </trkpt>
      <trkpt lat="42.63746" lon="1.68684">
        <ele>1905.796</ele>
        <time>2022-09-17T12:54:22Z</time>
      </trkpt>
      <trkpt lat="42.63746" lon="1.68687">
        <ele>1905.546</ele>
        <time>2022-09-17T12:54:24Z</time>
      </trkpt>
      <trkpt lat="42.63747" lon="1.68691">
        <ele>1905.035</ele>
        <time>2022-09-17T12:54:26Z</time>
      </trkpt>
      <trkpt lat="42.63747" lon="1.68694">
        <ele>1904.963</ele>
        <time>2022-09-17T12:54:28Z</time>
      </trkpt>
      <trkpt lat="42.63749" lon="1.68697">
        <ele>1904.867</ele>
        <time>2022-09-17T12:54:30Z</time>
      </trkpt>
      <trkpt lat="42.6375" lon="1.687">
        <ele>1904.504</ele>
        <time>2022-09-17T12:54:32Z</time>
      </trkpt>
      <trkpt lat="42.63752" lon="1.68703">
        <ele>1904.031</ele>
        <time>2022-09-17T12:54:34Z</time>
      </trkpt>
      <trkpt lat="42.63752" lon="1.68706">
        <ele>1904.382</ele>
        <time>2022-09-17T12:54:36Z</time>
      </trkpt>
      <trkpt lat="42.63753" lon="1.6871">
        <ele>1904.195</ele>
        <time>2022-09-17T12:54:38Z</time>
      </trkpt>
      <trkpt lat="42.63755" lon="1.68713">
        <ele>1905.986</ele>
        <time>2022-09-17T12:54:40Z</time>
      </trkpt>
      <trkpt lat="42.63757" lon="1.68713">
        <ele>1905.731</ele>
        <time>2022-09-17T12:54:42Z</time>
      </trkpt>
      <trkpt lat="42.63758" lon="1.68715">
        <ele>1905.056</ele>
        <time>2022-09-17T12:54:44Z</time>
      </trkpt>
      <trkpt lat="42.63759" lon="1.68717">
        <ele>1905.374</ele>
        <time>2022-09-17T12:54:46Z</time>
      </trkpt>
      <trkpt lat="42.6376" lon="1.6872">
        <ele>1903.645</ele>
        <time>2022-09-17T12:54:48Z</time>
      </trkpt>
      <trkpt lat="42.6376" lon="1.68722">
        <ele>1902.652</ele>
        <time>2022-09-17T12:54:50Z</time>
      </trkpt>
      <trkpt lat="42.63761" lon="1.68724">
        <ele>1902.079</ele>
        <time>2022-09-17T12:54:52Z</time>
      </trkpt>
      <trkpt lat="42.63761" lon="1.68727">
        <ele>1900.546</ele>
        <time>2022-09-17T12:54:54Z</time>
      </trkpt>
      <trkpt lat="42.63762" lon="1.6873">
        <ele>1899.106</ele>
        <time>2022-09-17T12:54:56Z</time>
      </trkpt>
      <trkpt lat="42.63761" lon="1.68733">
        <ele>1898.32</ele>
        <time>2022-09-17T12:54:58Z</time>
      </trkpt>
      <trkpt lat="42.6376" lon="1.68736">
        <ele>1897.306</ele>
        <time>2022-09-17T12:55:00Z</time>
      </trkpt>
      <trkpt lat="42.63759" lon="1.6874">
        <ele>1897.221</ele>
        <time>2022-09-17T12:55:02Z</time>
      </trkpt>
      <trkpt lat="42.63759" lon="1.68743">
        <ele>1897.489</ele>
        <time>2022-09-17T12:55:04Z</time>
      </trkpt>
      <trkpt lat="42.63759" lon="1.68747">
        <ele>1897.583</ele>
        <time>2022-09-17T12:55:06Z</time>
      </trkpt>
      <trkpt lat="42.63758" lon="1.6875">
        <ele>1898.138</ele>
        <time>2022-09-17T12:55:08Z</time>
      </trkpt>
      <trkpt lat="42.63759" lon="1.68754">
        <ele>1898.296</ele>
        <time>2022-09-17T12:55:10Z</time>
      </trkpt>
      <trkpt lat="42.63759" lon="1.68758">
        <ele>1897.436</ele>
        <time>2022-09-17T12:55:12Z</time>
      </trkpt>
      <trkpt lat="42.6376" lon="1.68762">
        <ele>1898.293</ele>
        <time>2022-09-17T12:55:14Z</time>
      </trkpt>
      <trkpt lat="42.6376" lon="1.68765">
        <ele>1898.503</ele>
        <time>2022-09-17T12:55:16Z</time>
      </trkpt>
      <trkpt lat="42.6376" lon="1.68769">
        <ele>1897.69</ele>
        <time>2022-09-17T12:55:18Z</time>
      </trkpt>
      <trkpt lat="42.63761" lon="1.68772">
        <ele>1896.518</ele>
        <time>2022-09-17T12:55:20Z</time>
      </trkpt>
      <trkpt lat="42.63762" lon="1.68775">
        <ele>1896.733</ele>
        <time>2022-09-17T12:55:22Z</time>
      </trkpt>
      <trkpt lat="42.63764" lon="1.68777">
        <ele>1896.341</ele>
        <time>2022-09-17T12:55:24Z</time>
      </trkpt>
      <trkpt lat="42.63765" lon="1.6878">
        <ele>1895.293</ele>
        <time>2022-09-17T12:55:26Z</time>
      </trkpt>
      <trkpt lat="42.63766" lon="1.68784">
        <ele>1894.085</ele>
        <time>2022-09-17T12:55:28Z</time>
      </trkpt>
      <trkpt lat="42.63767" lon="1.68788">
        <ele>1892.348</ele>
        <time>2022-09-17T12:55:30Z</time>
      </trkpt>
      <trkpt lat="42.63769" lon="1.68792">
        <ele>1892.209</ele>
        <time>2022-09-17T12:55:32Z</time>
      </trkpt>
      <trkpt lat="42.6377" lon="1.68795">
        <ele>1891.979</ele>
        <time>2022-09-17T12:55:34Z</time>
      </trkpt>
      <trkpt lat="42.63772" lon="1.68799">
        <ele>1890.941</ele>
        <time>2022-09-17T12:55:36Z</time>
      </trkpt>
      <trkpt lat="42.63773" lon="1.68803">
        <ele>1891.372</ele>
        <time>2022-09-17T12:55:38Z</time>
      </trkpt>
      <trkpt lat="42.63774" lon="1.68809">
        <ele>1890.922</ele>
        <time>2022-09-17T12:55:40Z</time>
      </trkpt>
      <trkpt lat="42.63776" lon="1.68812">
        <ele>1890.789</ele>
        <time>2022-09-17T12:55:42Z</time>
      </trkpt>
      <trkpt lat="42.63777" lon="1.68816">
        <ele>1891.474</ele>
        <time>2022-09-17T12:55:44Z</time>
      </trkpt>
      <trkpt lat="42.63779" lon="1.68818">
        <ele>1891.344</ele>
        <time>2022-09-17T12:55:46Z</time>
      </trkpt>
      <trkpt lat="42.63779" lon="1.68821">
        <ele>1890.359</ele>
        <time>2022-09-17T12:55:48Z</time>
      </trkpt>
      <trkpt lat="42.63779" lon="1.68823">
        <ele>1889.919</ele>
        <time>2022-09-17T12:55:50Z</time>
      </trkpt>
      <trkpt lat="42.63779" lon="1.68826">
        <ele>1887.839</ele>
        <time>2022-09-17T12:55:52Z</time>
      </trkpt>
      <trkpt lat="42.6378" lon="1.68829">
        <ele>1888.107</ele>
        <time>2022-09-17T12:55:54Z</time>
      </trkpt>
      <trkpt lat="42.6378" lon="1.68833">
        <ele>1888.707</ele>
        <time>2022-09-17T12:55:56Z</time>
      </trkpt>
      <trkpt lat="42.63781" lon="1.68837">
        <ele>1889.344</ele>
        <time>2022-09-17T12:55:58Z</time>
      </trkpt>
      <trkpt lat="42.63781" lon="1.68839">
        <ele>1888.297</ele>
        <time>2022-09-17T12:56:00Z</time>
      </trkpt>
      <trkpt lat="42.63781" lon="1.68842">
        <ele>1887.165</ele>
        <time>2022-09-17T12:56:02Z</time>
      </trkpt>
      <trkpt lat="42.63781" lon="1.68845">
        <ele>1887.337</ele>
        <time>2022-09-17T12:56:04Z</time>
      </trkpt>
      <trkpt lat="42.63782" lon="1.68848">
        <ele>1888.091</ele>
        <time>2022-09-17T12:56:06Z</time>
      </trkpt>
      <trkpt lat="42.63784" lon="1.68851">
        <ele>1888.451</ele>
        <time>2022-09-17T12:56:08Z</time>
      </trkpt>
      <trkpt lat="42.63785" lon="1.68853">
        <ele>1888.865</ele>
        <time>2022-09-17T12:56:10Z</time>
      </trkpt>
      <trkpt lat="42.63787" lon="1.68856">
        <ele>1888.003</ele>
        <time>2022-09-17T12:56:12Z</time>
      </trkpt>
      <trkpt lat="42.63788" lon="1.68859">
        <ele>1887.398</ele>
        <time>2022-09-17T12:56:14Z</time>
      </trkpt>
      <trkpt lat="42.63789" lon="1.68861">
        <ele>1888.282</ele>
        <time>2022-09-17T12:56:16Z</time>
      </trkpt>
      <trkpt lat="42.63789" lon="1.68865">
        <ele>1887.637</ele>
        <time>2022-09-17T12:56:18Z</time>
      </trkpt>
      <trkpt lat="42.6379" lon="1.68868">
        <ele>1887.855</ele>
        <time>2022-09-17T12:56:20Z</time>
      </trkpt>
      <trkpt lat="42.63792" lon="1.68871">
        <ele>1887.211</ele>
        <time>2022-09-17T12:56:22Z</time>
      </trkpt>
      <trkpt lat="42.63793" lon="1.68874">
        <ele>1887.87</ele>
        <time>2022-09-17T12:56:24Z</time>
      </trkpt>
      <trkpt lat="42.63793" lon="1.68877">
        <ele>1888.195</ele>
        <time>2022-09-17T12:56:26Z</time>
      </trkpt>
      <trkpt lat="42.63793" lon="1.6888">
        <ele>1888.565</ele>
        <time>2022-09-17T12:56:28Z</time>
      </trkpt>
      <trkpt lat="42.63793" lon="1.68884">
        <ele>1887.978</ele>
        <time>2022-09-17T12:56:30Z</time>
      </trkpt>
      <trkpt lat="42.63794" lon="1.68888">
        <ele>1888.046</ele>
        <time>2022-09-17T12:56:32Z</time>
      </trkpt>
      <trkpt lat="42.63796" lon="1.6889">
        <ele>1887.821</ele>
        <time>2022-09-17T12:56:34Z</time>
      </trkpt>
      <trkpt lat="42.63797" lon="1.68893">
        <ele>1887.633</ele>
        <time>2022-09-17T12:56:36Z</time>
      </trkpt>
      <trkpt lat="42.63799" lon="1.68895">
        <ele>1888.269</ele>
        <time>2022-09-17T12:56:38Z</time>
      </trkpt>
      <trkpt lat="42.63801" lon="1.68897">
        <ele>1888.774</ele>
        <time>2022-09-17T12:56:40Z</time>
      </trkpt>
      <trkpt lat="42.63802" lon="1.68899">
        <ele>1889.071</ele>
        <time>2022-09-17T12:56:42Z</time>
      </trkpt>
      <trkpt lat="42.63803" lon="1.68902">
        <ele>1889.057</ele>
        <time>2022-09-17T12:56:44Z</time>
      </trkpt>
      <trkpt lat="42.63804" lon="1.68904">
        <ele>1889.119</ele>
        <time>2022-09-17T12:56:46Z</time>
      </trkpt>
      <trkpt lat="42.63805" lon="1.68906">
        <ele>1888.335</ele>
        <time>2022-09-17T12:56:48Z</time>
      </trkpt>
      <trkpt lat="42.63805" lon="1.68909">
        <ele>1888.01</ele>
        <time>2022-09-17T12:56:50Z</time>
      </trkpt>
      <trkpt lat="42.63806" lon="1.68911">
        <ele>1887.805</ele>
        <time>2022-09-17T12:56:52Z</time>
      </trkpt>
      <trkpt lat="42.63806" lon="1.68914">
        <ele>1889.438</ele>
        <time>2022-09-17T12:56:54Z</time>
      </trkpt>
      <trkpt lat="42.63807" lon="1.68916">
        <ele>1889.728</ele>
        <time>2022-09-17T12:56:56Z</time>
      </trkpt>
      <trkpt lat="42.63809" lon="1.68917">
        <ele>1888.759</ele>
        <time>2022-09-17T12:56:58Z</time>
      </trkpt>
      <trkpt lat="42.6381" lon="1.6892">
        <ele>1888.632</ele>
        <time>2022-09-17T12:57:00Z</time>
      </trkpt>
      <trkpt lat="42.63811" lon="1.68922">
        <ele>1888.835</ele>
        <time>2022-09-17T12:57:02Z</time>
      </trkpt>
      <trkpt lat="42.63813" lon="1.68924">
        <ele>1887.956</ele>
        <time>2022-09-17T12:57:04Z</time>
      </trkpt>
      <trkpt lat="42.63814" lon="1.68927">
        <ele>1887.743</ele>
        <time>2022-09-17T12:57:06Z</time>
      </trkpt>
      <trkpt lat="42.63814" lon="1.6893">
        <ele>1887.176</ele>
        <time>2022-09-17T12:57:08Z</time>
      </trkpt>
      <trkpt lat="42.63816" lon="1.68933">
        <ele>1888.156</ele>
        <time>2022-09-17T12:57:10Z</time>
      </trkpt>
      <trkpt lat="42.63816" lon="1.68936">
        <ele>1888.662</ele>
        <time>2022-09-17T12:57:12Z</time>
      </trkpt>
      <trkpt lat="42.63816" lon="1.68938">
        <ele>1887.804</ele>
        <time>2022-09-17T12:57:14Z</time>
      </trkpt>
      <trkpt lat="42.63817" lon="1.68941">
        <ele>1887.245</ele>
        <time>2022-09-17T12:57:16Z</time>
      </trkpt>
      <trkpt lat="42.63818" lon="1.68944">
        <ele>1887.258</ele>
        <time>2022-09-17T12:57:18Z</time>
      </trkpt>
      <trkpt lat="42.63819" lon="1.68947">
        <ele>1887.123</ele>
        <time>2022-09-17T12:57:20Z</time>
      </trkpt>
      <trkpt lat="42.63821" lon="1.68949">
        <ele>1887.062</ele>
        <time>2022-09-17T12:57:22Z</time>
      </trkpt>
      <trkpt lat="42.63822" lon="1.68951">
        <ele>1886.786</ele>
        <time>2022-09-17T12:57:24Z</time>
      </trkpt>
      <trkpt lat="42.63822" lon="1.68953">
        <ele>1886.344</ele>
        <time>2022-09-17T12:57:26Z</time>
      </trkpt>
      <trkpt lat="42.63823" lon="1.68956">
        <ele>1885.619</ele>
        <time>2022-09-17T12:57:28Z</time>
      </trkpt>
      <trkpt lat="42.63823" lon="1.68958">
        <ele>1885.879</ele>
        <time>2022-09-17T12:57:30Z</time>
      </trkpt>
      <trkpt lat="42.63822" lon="1.6896">
        <ele>1884.94</ele>
        <time>2022-09-17T12:57:32Z</time>
      </trkpt>
      <trkpt lat="42.63821" lon="1.68963">
        <ele>1884.3</ele>
        <time>2022-09-17T12:57:34Z</time>
      </trkpt>
      <trkpt lat="42.6382" lon="1.68965">
        <ele>1883.774</ele>
        <time>2022-09-17T12:57:36Z</time>
      </trkpt>
      <trkpt lat="42.63819" lon="1.68968">
        <ele>1883.445</ele>
        <time>2022-09-17T12:57:38Z</time>
      </trkpt>
      <trkpt lat="42.63819" lon="1.68971">
        <ele>1882.375</ele>
        <time>2022-09-17T12:57:40Z</time>
      </trkpt>
      <trkpt lat="42.63818" lon="1.68972">
        <ele>1883.624</ele>
        <time>2022-09-17T12:57:42Z</time>
      </trkpt>
      <trkpt lat="42.63818" lon="1.68974">
        <ele>1883.601</ele>
        <time>2022-09-17T12:57:44Z</time>
      </trkpt>
      <trkpt lat="42.63818" lon="1.68973">
        <ele>1883.55</ele>
        <time>2022-09-17T12:57:46Z</time>
      </trkpt>
      <trkpt lat="42.63817" lon="1.68975">
        <ele>1883.72</ele>
        <time>2022-09-17T12:57:48Z</time>
      </trkpt>
      <trkpt lat="42.63817" lon="1.68978">
        <ele>1884.217</ele>
        <time>2022-09-17T12:57:50Z</time>
      </trkpt>
      <trkpt lat="42.63817" lon="1.6898">
        <ele>1884.376</ele>
        <time>2022-09-17T12:57:52Z</time>
      </trkpt>
      <trkpt lat="42.63818" lon="1.68982">
        <ele>1884.912</ele>
        <time>2022-09-17T12:57:54Z</time>
      </trkpt>
      <trkpt lat="42.6382" lon="1.68984">
        <ele>1883.883</ele>
        <time>2022-09-17T12:57:56Z</time>
      </trkpt>
      <trkpt lat="42.63821" lon="1.68986">
        <ele>1882.927</ele>
        <time>2022-09-17T12:57:58Z</time>
      </trkpt>
      <trkpt lat="42.63822" lon="1.68988">
        <ele>1882.558</ele>
        <time>2022-09-17T12:58:00Z</time>
      </trkpt>
      <trkpt lat="42.63822" lon="1.68991">
        <ele>1882.442</ele>
        <time>2022-09-17T12:58:02Z</time>
      </trkpt>
      <trkpt lat="42.63819" lon="1.68989">
        <ele>1883.151</ele>
        <time>2022-09-17T12:58:04Z</time>
      </trkpt>
      <trkpt lat="42.63819" lon="1.68989">
        <ele>1883.139</ele>
        <time>2022-09-17T12:58:06Z</time>
      </trkpt>
      <trkpt lat="42.63818" lon="1.68988">
        <ele>1883.175</ele>
        <time>2022-09-17T12:58:08Z</time>
      </trkpt>
      <trkpt lat="42.63818" lon="1.68986">
        <ele>1883.36</ele>
        <time>2022-09-17T12:58:10Z</time>
      </trkpt>
      <trkpt lat="42.63818" lon="1.68982">
        <ele>1883.844</ele>
        <time>2022-09-17T12:58:12Z</time>
      </trkpt>
      <trkpt lat="42.63818" lon="1.68979">
        <ele>1883.067</ele>
        <time>2022-09-17T12:58:14Z</time>
      </trkpt>
      <trkpt lat="42.63819" lon="1.68978">
        <ele>1882.012</ele>
        <time>2022-09-17T12:58:16Z</time>
      </trkpt>
      <trkpt lat="42.63819" lon="1.68978">
        <ele>1882.121</ele>
        <time>2022-09-17T12:58:18Z</time>
      </trkpt>
      <trkpt lat="42.6382" lon="1.68978">
        <ele>1882.22</ele>
        <time>2022-09-17T12:58:20Z</time>
      </trkpt>
      <trkpt lat="42.63822" lon="1.68973">
        <ele>1881.485</ele>
        <time>2022-09-17T12:58:22Z</time>
      </trkpt>
      <trkpt lat="42.63825" lon="1.68974">
        <ele>1880.453</ele>
        <time>2022-09-17T12:58:24Z</time>
      </trkpt>
      <trkpt lat="42.63827" lon="1.68975">
        <ele>1879.836</ele>
        <time>2022-09-17T12:58:26Z</time>
      </trkpt>
      <trkpt lat="42.63829" lon="1.68974">
        <ele>1880.769</ele>
        <time>2022-09-17T12:58:28Z</time>
      </trkpt>
      <trkpt lat="42.63829" lon="1.68974">
        <ele>1880.699</ele>
        <time>2022-09-17T12:58:30Z</time>
      </trkpt>
      <trkpt lat="42.63829" lon="1.68974">
        <ele>1880.706</ele>
        <time>2022-09-17T12:58:32Z</time>
      </trkpt>
      <trkpt lat="42.63829" lon="1.68973">
        <ele>1881.505</ele>
        <time>2022-09-17T12:58:34Z</time>
      </trkpt>
      <trkpt lat="42.63829" lon="1.6897">
        <ele>1881.073</ele>
        <time>2022-09-17T12:58:36Z</time>
      </trkpt>
      <trkpt lat="42.6383" lon="1.68968">
        <ele>1880.244</ele>
        <time>2022-09-17T12:58:38Z</time>
      </trkpt>
      <trkpt lat="42.6383" lon="1.68966">
        <ele>1880.059</ele>
        <time>2022-09-17T12:58:40Z</time>
      </trkpt>
      <trkpt lat="42.63831" lon="1.68963">
        <ele>1879.224</ele>
        <time>2022-09-17T12:58:42Z</time>
      </trkpt>
      <trkpt lat="42.63832" lon="1.68962">
        <ele>1879.105</ele>
        <time>2022-09-17T12:58:44Z</time>
      </trkpt>
      <trkpt lat="42.63832" lon="1.6896">
        <ele>1879.618</ele>
        <time>2022-09-17T12:58:46Z</time>
      </trkpt>
      <trkpt lat="42.63832" lon="1.6896">
        <ele>1879.622</ele>
        <time>2022-09-17T12:58:48Z</time>
      </trkpt>
      <trkpt lat="42.63832" lon="1.6896">
        <ele>1879.627</ele>
        <time>2022-09-17T12:58:50Z</time>
      </trkpt>
      <trkpt lat="42.63831" lon="1.6896">
        <ele>1879.837</ele>
        <time>2022-09-17T12:58:52Z</time>
      </trkpt>
      <trkpt lat="42.6383" lon="1.6896">
        <ele>1880.196</ele>
        <time>2022-09-17T12:58:54Z</time>
      </trkpt>
      <trkpt lat="42.6383" lon="1.6896">
        <ele>1879.917</ele>
        <time>2022-09-17T12:58:56Z</time>
      </trkpt>
      <trkpt lat="42.63829" lon="1.6896">
        <ele>1879.584</ele>
        <time>2022-09-17T12:58:58Z</time>
      </trkpt>
      <trkpt lat="42.63829" lon="1.68958">
        <ele>1879.586</ele>
        <time>2022-09-17T12:59:00Z</time>
      </trkpt>
      <trkpt lat="42.63828" lon="1.68957">
        <ele>1880.538</ele>
        <time>2022-09-17T12:59:02Z</time>
      </trkpt>
      <trkpt lat="42.63828" lon="1.68956">
        <ele>1880.399</ele>
        <time>2022-09-17T12:59:04Z</time>
      </trkpt>
      <trkpt lat="42.63829" lon="1.68954">
        <ele>1879.536</ele>
        <time>2022-09-17T12:59:06Z</time>
      </trkpt>
      <trkpt lat="42.63828" lon="1.68954">
        <ele>1879.45</ele>
        <time>2022-09-17T12:59:08Z</time>
      </trkpt>
      <trkpt lat="42.63828" lon="1.68956">
        <ele>1879.037</ele>
        <time>2022-09-17T12:59:10Z</time>
      </trkpt>
      <trkpt lat="42.63827" lon="1.68958">
        <ele>1879.326</ele>
        <time>2022-09-17T12:59:12Z</time>
      </trkpt>
      <trkpt lat="42.63823" lon="1.68956">
        <ele>1881.621</ele>
        <time>2022-09-17T12:59:14Z</time>
      </trkpt>
      <trkpt lat="42.63823" lon="1.68955">
        <ele>1880.957</ele>
        <time>2022-09-17T12:59:16Z</time>
      </trkpt>
      <trkpt lat="42.63823" lon="1.68954">
        <ele>1880.662</ele>
        <time>2022-09-17T12:59:18Z</time>
      </trkpt>
      <trkpt lat="42.63822" lon="1.68955">
        <ele>1880.92</ele>
        <time>2022-09-17T12:59:20Z</time>
      </trkpt>
      <trkpt lat="42.63822" lon="1.68956">
        <ele>1880.427</ele>
        <time>2022-09-17T12:59:22Z</time>
      </trkpt>
      <trkpt lat="42.63822" lon="1.68956">
        <ele>1880.419</ele>
        <time>2022-09-17T12:59:24Z</time>
      </trkpt>
      <trkpt lat="42.63822" lon="1.68956">
        <ele>1879.888</ele>
        <time>2022-09-17T12:59:26Z</time>
      </trkpt>
      <trkpt lat="42.63822" lon="1.68956">
        <ele>1879.895</ele>
        <time>2022-09-17T12:59:28Z</time>
      </trkpt>
      <trkpt lat="42.63822" lon="1.68956">
        <ele>1879.891</ele>
        <time>2022-09-17T12:59:30Z</time>
      </trkpt>
      <trkpt lat="42.63822" lon="1.68956">
        <ele>1879.889</ele>
        <time>2022-09-17T12:59:32Z</time>
      </trkpt>
      <trkpt lat="42.63822" lon="1.68956">
        <ele>1879.884</ele>
        <time>2022-09-17T12:59:34Z</time>
      </trkpt>
      <trkpt lat="42.63822" lon="1.68955">
        <ele>1880.575</ele>
        <time>2022-09-17T12:59:36Z</time>
      </trkpt>
      <trkpt lat="42.63822" lon="1.68953">
        <ele>1881.136</ele>
        <time>2022-09-17T12:59:38Z</time>
      </trkpt>
      <trkpt lat="42.63822" lon="1.68951">
        <ele>1881.015</ele>
        <time>2022-09-17T12:59:40Z</time>
      </trkpt>
      <trkpt lat="42.63822" lon="1.68949">
        <ele>1880.434</ele>
        <time>2022-09-17T12:59:42Z</time>
      </trkpt>
      <trkpt lat="42.63822" lon="1.68948">
        <ele>1880.755</ele>
        <time>2022-09-17T12:59:44Z</time>
      </trkpt>
      <trkpt lat="42.63821" lon="1.68947">
        <ele>1881.603</ele>
        <time>2022-09-17T12:59:46Z</time>
      </trkpt>
      <trkpt lat="42.63821" lon="1.68947">
        <ele>1881.419</ele>
        <time>2022-09-17T12:59:48Z</time>
      </trkpt>
      <trkpt lat="42.63821" lon="1.68947">
        <ele>1881.413</ele>
        <time>2022-09-17T12:59:50Z</time>
      </trkpt>
      <trkpt lat="42.63821" lon="1.68947">
        <ele>1881.414</ele>
        <time>2022-09-17T12:59:52Z</time>
      </trkpt>
      <trkpt lat="42.63821" lon="1.68948">
        <ele>1881.429</ele>
        <time>2022-09-17T12:59:54Z</time>
      </trkpt>
      <trkpt lat="42.63821" lon="1.68947">
        <ele>1881.485</ele>
        <time>2022-09-17T12:59:56Z</time>
      </trkpt>
      <trkpt lat="42.63821" lon="1.68947">
        <ele>1881.565</ele>
        <time>2022-09-17T12:59:58Z</time>
      </trkpt>
      <trkpt lat="42.6382" lon="1.68946">
        <ele>1882.131</ele>
        <time>2022-09-17T13:00:00Z</time>
      </trkpt>
      <trkpt lat="42.63819" lon="1.68945">
        <ele>1882.462</ele>
        <time>2022-09-17T13:00:02Z</time>
      </trkpt>
      <trkpt lat="42.63818" lon="1.68946">
        <ele>1882.886</ele>
        <time>2022-09-17T13:00:04Z</time>
      </trkpt>
      <trkpt lat="42.63817" lon="1.68947">
        <ele>1882.28</ele>
        <time>2022-09-17T13:00:06Z</time>
      </trkpt>
      <trkpt lat="42.63816" lon="1.68949">
        <ele>1881.554</ele>
        <time>2022-09-17T13:00:08Z</time>
      </trkpt>
      <trkpt lat="42.63816" lon="1.68951">
        <ele>1881.324</ele>
        <time>2022-09-17T13:00:10Z</time>
      </trkpt>
      <trkpt lat="42.63815" lon="1.68953">
        <ele>1880.826</ele>
        <time>2022-09-17T13:00:12Z</time>
      </trkpt>
      <trkpt lat="42.63813" lon="1.68953">
        <ele>1880.879</ele>
        <time>2022-09-17T13:00:14Z</time>
      </trkpt>
      <trkpt lat="42.63812" lon="1.68955">
        <ele>1879.835</ele>
        <time>2022-09-17T13:00:16Z</time>
      </trkpt>
      <trkpt lat="42.63812" lon="1.68957">
        <ele>1879.768</ele>
        <time>2022-09-17T13:00:18Z</time>
      </trkpt>
      <trkpt lat="42.63811" lon="1.68959">
        <ele>1880.314</ele>
        <time>2022-09-17T13:00:20Z</time>
      </trkpt>
      <trkpt lat="42.6381" lon="1.68962">
        <ele>1879.375</ele>
        <time>2022-09-17T13:00:22Z</time>
      </trkpt>
      <trkpt lat="42.6381" lon="1.68965">
        <ele>1877.733</ele>
        <time>2022-09-17T13:00:24Z</time>
      </trkpt>
      <trkpt lat="42.63811" lon="1.68968">
        <ele>1877.791</ele>
        <time>2022-09-17T13:00:26Z</time>
      </trkpt>
      <trkpt lat="42.63811" lon="1.6897">
        <ele>1878.499</ele>
        <time>2022-09-17T13:00:28Z</time>
      </trkpt>
      <trkpt lat="42.63812" lon="1.68972">
        <ele>1878.961</ele>
        <time>2022-09-17T13:00:30Z</time>
      </trkpt>
      <trkpt lat="42.63813" lon="1.68975">
        <ele>1878.445</ele>
        <time>2022-09-17T13:00:32Z</time>
      </trkpt>
      <trkpt lat="42.63813" lon="1.68977">
        <ele>1878.629</ele>
        <time>2022-09-17T13:00:34Z</time>
      </trkpt>
      <trkpt lat="42.63814" lon="1.68979">
        <ele>1879.758</ele>
        <time>2022-09-17T13:00:36Z</time>
      </trkpt>
      <trkpt lat="42.63816" lon="1.68982">
        <ele>1879.337</ele>
        <time>2022-09-17T13:00:38Z</time>
      </trkpt>
      <trkpt lat="42.63817" lon="1.68984">
        <ele>1879.85</ele>
        <time>2022-09-17T13:00:40Z</time>
      </trkpt>
      <trkpt lat="42.63818" lon="1.68985">
        <ele>1879.615</ele>
        <time>2022-09-17T13:00:42Z</time>
      </trkpt>
      <trkpt lat="42.63819" lon="1.68986">
        <ele>1880.379</ele>
        <time>2022-09-17T13:00:44Z</time>
      </trkpt>
      <trkpt lat="42.6382" lon="1.68986">
        <ele>1880.166</ele>
        <time>2022-09-17T13:00:46Z</time>
      </trkpt>
      <trkpt lat="42.6382" lon="1.68986">
        <ele>1880.162</ele>
        <time>2022-09-17T13:00:48Z</time>
      </trkpt>
      <trkpt lat="42.6382" lon="1.68986">
        <ele>1880.027</ele>
        <time>2022-09-17T13:00:50Z</time>
      </trkpt>
      <trkpt lat="42.6382" lon="1.68986">
        <ele>1880.024</ele>
        <time>2022-09-17T13:00:52Z</time>
      </trkpt>
      <trkpt lat="42.6382" lon="1.68986">
        <ele>1880.198</ele>
        <time>2022-09-17T13:00:54Z</time>
      </trkpt>
      <trkpt lat="42.6382" lon="1.68986">
        <ele>1880.046</ele>
        <time>2022-09-17T13:00:56Z</time>
      </trkpt>
      <trkpt lat="42.6382" lon="1.68986">
        <ele>1880.033</ele>
        <time>2022-09-17T13:00:58Z</time>
      </trkpt>
      <trkpt lat="42.6382" lon="1.68986">
        <ele>1880.03</ele>
        <time>2022-09-17T13:01:00Z</time>
      </trkpt>
      <trkpt lat="42.6382" lon="1.68986">
        <ele>1880.027</ele>
        <time>2022-09-17T13:01:02Z</time>
      </trkpt>
      <trkpt lat="42.6382" lon="1.68986">
        <ele>1880.022</ele>
        <time>2022-09-17T13:01:04Z</time>
      </trkpt>
      <trkpt lat="42.6382" lon="1.68986">
        <ele>1880.022</ele>
        <time>2022-09-17T13:01:06Z</time>
      </trkpt>
      <trkpt lat="42.6382" lon="1.68986">
        <ele>1880.028</ele>
        <time>2022-09-17T13:01:08Z</time>
      </trkpt>
      <trkpt lat="42.6382" lon="1.68986">
        <ele>1880.028</ele>
        <time>2022-09-17T13:01:10Z</time>
      </trkpt>
      <trkpt lat="42.6382" lon="1.68986">
        <ele>1880.023</ele>
        <time>2022-09-17T13:01:12Z</time>
      </trkpt>
      <trkpt lat="42.6382" lon="1.68986">
        <ele>1880.016</ele>
        <time>2022-09-17T13:01:14Z</time>
      </trkpt>
      <trkpt lat="42.6382" lon="1.68986">
        <ele>1880.276</ele>
        <time>2022-09-17T13:01:16Z</time>
      </trkpt>
      <trkpt lat="42.6382" lon="1.68986">
        <ele>1880.282</ele>
        <time>2022-09-17T13:01:18Z</time>
      </trkpt>
      <trkpt lat="42.6382" lon="1.68986">
        <ele>1880.285</ele>
        <time>2022-09-17T13:01:20Z</time>
      </trkpt>
      <trkpt lat="42.6382" lon="1.68986">
        <ele>1880.293</ele>
        <time>2022-09-17T13:01:22Z</time>
      </trkpt>
      <trkpt lat="42.6382" lon="1.68986">
        <ele>1880.288</ele>
        <time>2022-09-17T13:01:24Z</time>
      </trkpt>
      <trkpt lat="42.63819" lon="1.68986">
        <ele>1879.955</ele>
        <time>2022-09-17T13:01:26Z</time>
      </trkpt>
      <trkpt lat="42.63819" lon="1.68986">
        <ele>1879.767</ele>
        <time>2022-09-17T13:01:28Z</time>
      </trkpt>
      <trkpt lat="42.63818" lon="1.68987">
        <ele>1879.729</ele>
        <time>2022-09-17T13:01:30Z</time>
      </trkpt>
      <trkpt lat="42.63818" lon="1.68986">
        <ele>1879.712</ele>
        <time>2022-09-17T13:01:32Z</time>
      </trkpt>
      <trkpt lat="42.63818" lon="1.68986">
        <ele>1879.706</ele>
        <time>2022-09-17T13:01:34Z</time>
      </trkpt>
      <trkpt lat="42.63818" lon="1.68986">
        <ele>1879.712</ele>
        <time>2022-09-17T13:01:36Z</time>
      </trkpt>
      <trkpt lat="42.63818" lon="1.68986">
        <ele>1879.708</ele>
        <time>2022-09-17T13:01:38Z</time>
      </trkpt>
      <trkpt lat="42.63818" lon="1.68986">
        <ele>1879.704</ele>
        <time>2022-09-17T13:01:40Z</time>
      </trkpt>
      <trkpt lat="42.63818" lon="1.68986">
        <ele>1879.706</ele>
        <time>2022-09-17T13:01:42Z</time>
      </trkpt>
      <trkpt lat="42.63818" lon="1.68986">
        <ele>1879.698</ele>
        <time>2022-09-17T13:01:44Z</time>
      </trkpt>
      <trkpt lat="42.63818" lon="1.68986">
        <ele>1879.692</ele>
        <time>2022-09-17T13:01:46Z</time>
      </trkpt>
      <trkpt lat="42.63818" lon="1.68986">
        <ele>1879.686</ele>
        <time>2022-09-17T13:01:48Z</time>
      </trkpt>
      <trkpt lat="42.63818" lon="1.68986">
        <ele>1879.682</ele>
        <time>2022-09-17T13:01:50Z</time>
      </trkpt>
      <trkpt lat="42.63818" lon="1.68986">
        <ele>1879.678</ele>
        <time>2022-09-17T13:01:52Z</time>
      </trkpt>
      <trkpt lat="42.63818" lon="1.68986">
        <ele>1879.68</ele>
        <time>2022-09-17T13:01:54Z</time>
      </trkpt>
      <trkpt lat="42.63818" lon="1.68986">
        <ele>1879.678</ele>
        <time>2022-09-17T13:01:56Z</time>
      </trkpt>
      <trkpt lat="42.63818" lon="1.68986">
        <ele>1879.675</ele>
        <time>2022-09-17T13:01:58Z</time>
      </trkpt>
      <trkpt lat="42.63818" lon="1.68986">
        <ele>1879.679</ele>
        <time>2022-09-17T13:02:00Z</time>
      </trkpt>
      <trkpt lat="42.63818" lon="1.68986">
        <ele>1879.678</ele>
        <time>2022-09-17T13:02:02Z</time>
      </trkpt>
      <trkpt lat="42.63818" lon="1.68986">
        <ele>1879.675</ele>
        <time>2022-09-17T13:02:04Z</time>
      </trkpt>
      <trkpt lat="42.63818" lon="1.68986">
        <ele>1879.676</ele>
        <time>2022-09-17T13:02:06Z</time>
      </trkpt>
      <trkpt lat="42.63818" lon="1.68986">
        <ele>1879.669</ele>
        <time>2022-09-17T13:02:08Z</time>
      </trkpt>
      <trkpt lat="42.63818" lon="1.68986">
        <ele>1879.665</ele>
        <time>2022-09-17T13:02:10Z</time>
      </trkpt>
      <trkpt lat="42.63818" lon="1.68986">
        <ele>1879.657</ele>
        <time>2022-09-17T13:02:12Z</time>
      </trkpt>
      <trkpt lat="42.63818" lon="1.68986">
        <ele>1879.66</ele>
        <time>2022-09-17T13:02:14Z</time>
      </trkpt>
      <trkpt lat="42.63818" lon="1.68986">
        <ele>1879.661</ele>
        <time>2022-09-17T13:02:16Z</time>
      </trkpt>
      <trkpt lat="42.63818" lon="1.68986">
        <ele>1879.67</ele>
        <time>2022-09-17T13:02:18Z</time>
      </trkpt>
      <trkpt lat="42.63818" lon="1.68986">
        <ele>1879.669</ele>
        <time>2022-09-17T13:02:20Z</time>
      </trkpt>
      <trkpt lat="42.63818" lon="1.68986">
        <ele>1879.669</ele>
        <time>2022-09-17T13:02:22Z</time>
      </trkpt>
      <trkpt lat="42.63818" lon="1.68986">
        <ele>1879.668</ele>
        <time>2022-09-17T13:02:24Z</time>
      </trkpt>
      <trkpt lat="42.63818" lon="1.68986">
        <ele>1879.673</ele>
        <time>2022-09-17T13:02:26Z</time>
      </trkpt>
      <trkpt lat="42.63818" lon="1.68986">
        <ele>1879.683</ele>
        <time>2022-09-17T13:02:28Z</time>
      </trkpt>
      <trkpt lat="42.63818" lon="1.68986">
        <ele>1879.697</ele>
        <time>2022-09-17T13:02:30Z</time>
      </trkpt>
      <trkpt lat="42.63818" lon="1.68986">
        <ele>1879.692</ele>
        <time>2022-09-17T13:02:32Z</time>
      </trkpt>
      <trkpt lat="42.63818" lon="1.68986">
        <ele>1879.697</ele>
        <time>2022-09-17T13:02:34Z</time>
      </trkpt>
      <trkpt lat="42.63818" lon="1.68986">
        <ele>1879.697</ele>
        <time>2022-09-17T13:02:36Z</time>
      </trkpt>
      <trkpt lat="42.63818" lon="1.68986">
        <ele>1879.695</ele>
        <time>2022-09-17T13:02:38Z</time>
      </trkpt>
      <trkpt lat="42.63818" lon="1.68986">
        <ele>1879.7</ele>
        <time>2022-09-17T13:02:40Z</time>
      </trkpt>
      <trkpt lat="42.63818" lon="1.68986">
        <ele>1879.702</ele>
        <time>2022-09-17T13:02:42Z</time>
      </trkpt>
      <trkpt lat="42.63818" lon="1.68986">
        <ele>1879.695</ele>
        <time>2022-09-17T13:02:44Z</time>
      </trkpt>
      <trkpt lat="42.63818" lon="1.68986">
        <ele>1879.695</ele>
        <time>2022-09-17T13:02:46Z</time>
      </trkpt>
      <trkpt lat="42.63818" lon="1.68986">
        <ele>1879.697</ele>
        <time>2022-09-17T13:02:48Z</time>
      </trkpt>
      <trkpt lat="42.63818" lon="1.68986">
        <ele>1879.698</ele>
        <time>2022-09-17T13:02:50Z</time>
      </trkpt>
      <trkpt lat="42.63818" lon="1.68986">
        <ele>1879.549</ele>
        <time>2022-09-17T13:02:52Z</time>
      </trkpt>
      <trkpt lat="42.63819" lon="1.68986">
        <ele>1879.36</ele>
        <time>2022-09-17T13:02:54Z</time>
      </trkpt>
      <trkpt lat="42.63819" lon="1.68986">
        <ele>1879.368</ele>
        <time>2022-09-17T13:02:56Z</time>
      </trkpt>
      <trkpt lat="42.63819" lon="1.68986">
        <ele>1879.362</ele>
        <time>2022-09-17T13:02:58Z</time>
      </trkpt>
      <trkpt lat="42.63819" lon="1.68986">
        <ele>1879.363</ele>
        <time>2022-09-17T13:03:00Z</time>
      </trkpt>
      <trkpt lat="42.63819" lon="1.68986">
        <ele>1879.362</ele>
        <time>2022-09-17T13:03:02Z</time>
      </trkpt>
      <trkpt lat="42.63819" lon="1.68986">
        <ele>1879.362</ele>
        <time>2022-09-17T13:03:04Z</time>
      </trkpt>
      <trkpt lat="42.63819" lon="1.68986">
        <ele>1879.361</ele>
        <time>2022-09-17T13:03:06Z</time>
      </trkpt>
      <trkpt lat="42.63819" lon="1.68986">
        <ele>1879.361</ele>
        <time>2022-09-17T13:03:08Z</time>
      </trkpt>
      <trkpt lat="42.63819" lon="1.68986">
        <ele>1879.358</ele>
        <time>2022-09-17T13:03:10Z</time>
      </trkpt>
      <trkpt lat="42.63819" lon="1.68986">
        <ele>1879.359</ele>
        <time>2022-09-17T13:03:12Z</time>
      </trkpt>
      <trkpt lat="42.63819" lon="1.68986">
        <ele>1879.36</ele>
        <time>2022-09-17T13:03:14Z</time>
      </trkpt>
      <trkpt lat="42.63819" lon="1.68986">
        <ele>1879.365</ele>
        <time>2022-09-17T13:03:16Z</time>
      </trkpt>
      <trkpt lat="42.63819" lon="1.68986">
        <ele>1879.365</ele>
        <time>2022-09-17T13:03:18Z</time>
      </trkpt>
      <trkpt lat="42.63819" lon="1.68986">
        <ele>1879.356</ele>
        <time>2022-09-17T13:03:20Z</time>
      </trkpt>
      <trkpt lat="42.63819" lon="1.68986">
        <ele>1879.366</ele>
        <time>2022-09-17T13:03:22Z</time>
      </trkpt>
      <trkpt lat="42.63819" lon="1.68986">
        <ele>1879.369</ele>
        <time>2022-09-17T13:03:24Z</time>
      </trkpt>
      <trkpt lat="42.63819" lon="1.68986">
        <ele>1879.369</ele>
        <time>2022-09-17T13:03:26Z</time>
      </trkpt>
      <trkpt lat="42.63819" lon="1.68986">
        <ele>1879.362</ele>
        <time>2022-09-17T13:03:28Z</time>
      </trkpt>
      <trkpt lat="42.63819" lon="1.68986">
        <ele>1879.358</ele>
        <time>2022-09-17T13:03:30Z</time>
      </trkpt>
      <trkpt lat="42.63819" lon="1.68986">
        <ele>1879.359</ele>
        <time>2022-09-17T13:03:32Z</time>
      </trkpt>
      <trkpt lat="42.63819" lon="1.68986">
        <ele>1879.363</ele>
        <time>2022-09-17T13:03:34Z</time>
      </trkpt>
      <trkpt lat="42.63819" lon="1.68986">
        <ele>1879.362</ele>
        <time>2022-09-17T13:03:36Z</time>
      </trkpt>
      <trkpt lat="42.63819" lon="1.68986">
        <ele>1879.362</ele>
        <time>2022-09-17T13:03:38Z</time>
      </trkpt>
      <trkpt lat="42.63819" lon="1.68986">
        <ele>1879.367</ele>
        <time>2022-09-17T13:03:40Z</time>
      </trkpt>
      <trkpt lat="42.63819" lon="1.68986">
        <ele>1879.37</ele>
        <time>2022-09-17T13:03:42Z</time>
      </trkpt>
      <trkpt lat="42.6382" lon="1.68987">
        <ele>1879.614</ele>
        <time>2022-09-17T13:03:44Z</time>
      </trkpt>
      <trkpt lat="42.6382" lon="1.68987">
        <ele>1879.253</ele>
        <time>2022-09-17T13:03:46Z</time>
      </trkpt>
      <trkpt lat="42.6382" lon="1.68988">
        <ele>1879.257</ele>
        <time>2022-09-17T13:03:48Z</time>
      </trkpt>
      <trkpt lat="42.6382" lon="1.68988">
        <ele>1879.254</ele>
        <time>2022-09-17T13:03:50Z</time>
      </trkpt>
      <trkpt lat="42.63821" lon="1.68989">
        <ele>1879.447</ele>
        <time>2022-09-17T13:03:52Z</time>
      </trkpt>
      <trkpt lat="42.63822" lon="1.6899">
        <ele>1879.474</ele>
        <time>2022-09-17T13:03:54Z</time>
      </trkpt>
      <trkpt lat="42.63823" lon="1.68991">
        <ele>1879.101</ele>
        <time>2022-09-17T13:03:56Z</time>
      </trkpt>
      <trkpt lat="42.63824" lon="1.68993">
        <ele>1878.687</ele>
        <time>2022-09-17T13:03:58Z</time>
      </trkpt>
      <trkpt lat="42.63825" lon="1.68994">
        <ele>1877.748</ele>
        <time>2022-09-17T13:04:00Z</time>
      </trkpt>
      <trkpt lat="42.63827" lon="1.68995">
        <ele>1877.631</ele>
        <time>2022-09-17T13:04:02Z</time>
      </trkpt>
      <trkpt lat="42.63828" lon="1.68996">
        <ele>1877.623</ele>
        <time>2022-09-17T13:04:04Z</time>
      </trkpt>
      <trkpt lat="42.63829" lon="1.68997">
        <ele>1877.782</ele>
        <time>2022-09-17T13:04:06Z</time>
      </trkpt>
      <trkpt lat="42.6383" lon="1.68999">
        <ele>1876.314</ele>
        <time>2022-09-17T13:04:08Z</time>
      </trkpt>
      <trkpt lat="42.63832" lon="1.69">
        <ele>1876.503</ele>
        <time>2022-09-17T13:04:10Z</time>
      </trkpt>
      <trkpt lat="42.63833" lon="1.69002">
        <ele>1877.09</ele>
        <time>2022-09-17T13:04:12Z</time>
      </trkpt>
      <trkpt lat="42.63833" lon="1.69005">
        <ele>1876.604</ele>
        <time>2022-09-17T13:04:14Z</time>
      </trkpt>
      <trkpt lat="42.63834" lon="1.69007">
        <ele>1875.764</ele>
        <time>2022-09-17T13:04:16Z</time>
      </trkpt>
      <trkpt lat="42.63834" lon="1.6901">
        <ele>1874.666</ele>
        <time>2022-09-17T13:04:18Z</time>
      </trkpt>
      <trkpt lat="42.63835" lon="1.69013">
        <ele>1875.299</ele>
        <time>2022-09-17T13:04:20Z</time>
      </trkpt>
      <trkpt lat="42.63835" lon="1.69015">
        <ele>1875.407</ele>
        <time>2022-09-17T13:04:22Z</time>
      </trkpt>
      <trkpt lat="42.63837" lon="1.69018">
        <ele>1875.385</ele>
        <time>2022-09-17T13:04:24Z</time>
      </trkpt>
      <trkpt lat="42.63838" lon="1.69019">
        <ele>1874.72</ele>
        <time>2022-09-17T13:04:26Z</time>
      </trkpt>
      <trkpt lat="42.63839" lon="1.69022">
        <ele>1874.862</ele>
        <time>2022-09-17T13:04:28Z</time>
      </trkpt>
      <trkpt lat="42.63838" lon="1.69024">
        <ele>1875.21</ele>
        <time>2022-09-17T13:04:30Z</time>
      </trkpt>
      <trkpt lat="42.63838" lon="1.69026">
        <ele>1874.986</ele>
        <time>2022-09-17T13:04:32Z</time>
      </trkpt>
      <trkpt lat="42.63838" lon="1.69028">
        <ele>1875.028</ele>
        <time>2022-09-17T13:04:34Z</time>
      </trkpt>
      <trkpt lat="42.63838" lon="1.6903">
        <ele>1876.033</ele>
        <time>2022-09-17T13:04:36Z</time>
      </trkpt>
      <trkpt lat="42.6384" lon="1.69032">
        <ele>1875.665</ele>
        <time>2022-09-17T13:04:38Z</time>
      </trkpt>
      <trkpt lat="42.63841" lon="1.69034">
        <ele>1874.763</ele>
        <time>2022-09-17T13:04:40Z</time>
      </trkpt>
      <trkpt lat="42.63841" lon="1.69037">
        <ele>1875.514</ele>
        <time>2022-09-17T13:04:42Z</time>
      </trkpt>
      <trkpt lat="42.63841" lon="1.6904">
        <ele>1875.514</ele>
        <time>2022-09-17T13:04:44Z</time>
      </trkpt>
      <trkpt lat="42.63841" lon="1.69043">
        <ele>1876.242</ele>
        <time>2022-09-17T13:04:46Z</time>
      </trkpt>
      <trkpt lat="42.63841" lon="1.69044">
        <ele>1875.684</ele>
        <time>2022-09-17T13:04:48Z</time>
      </trkpt>
      <trkpt lat="42.63841" lon="1.69044">
        <ele>1875.673</ele>
        <time>2022-09-17T13:04:50Z</time>
      </trkpt>
      <trkpt lat="42.63841" lon="1.69044">
        <ele>1875.678</ele>
        <time>2022-09-17T13:04:52Z</time>
      </trkpt>
      <trkpt lat="42.63841" lon="1.69044">
        <ele>1875.681</ele>
        <time>2022-09-17T13:04:54Z</time>
      </trkpt>
      <trkpt lat="42.63841" lon="1.69044">
        <ele>1874.729</ele>
        <time>2022-09-17T13:04:56Z</time>
      </trkpt>
      <trkpt lat="42.63841" lon="1.69044">
        <ele>1874.286</ele>
        <time>2022-09-17T13:04:58Z</time>
      </trkpt>
      <trkpt lat="42.63841" lon="1.69044">
        <ele>1874.279</ele>
        <time>2022-09-17T13:05:00Z</time>
      </trkpt>
      <trkpt lat="42.63841" lon="1.69044">
        <ele>1874.281</ele>
        <time>2022-09-17T13:05:02Z</time>
      </trkpt>
      <trkpt lat="42.63841" lon="1.69044">
        <ele>1874.282</ele>
        <time>2022-09-17T13:05:04Z</time>
      </trkpt>
      <trkpt lat="42.63841" lon="1.69045">
        <ele>1874.288</ele>
        <time>2022-09-17T13:05:06Z</time>
      </trkpt>
      <trkpt lat="42.63841" lon="1.69045">
        <ele>1874.289</ele>
        <time>2022-09-17T13:05:08Z</time>
      </trkpt>
      <trkpt lat="42.63841" lon="1.69045">
        <ele>1874.295</ele>
        <time>2022-09-17T13:05:10Z</time>
      </trkpt>
      <trkpt lat="42.63841" lon="1.69045">
        <ele>1874.303</ele>
        <time>2022-09-17T13:05:12Z</time>
      </trkpt>
      <trkpt lat="42.63841" lon="1.69045">
        <ele>1874.31</ele>
        <time>2022-09-17T13:05:14Z</time>
      </trkpt>
      <trkpt lat="42.63842" lon="1.69045">
        <ele>1874.964</ele>
        <time>2022-09-17T13:05:16Z</time>
      </trkpt>
      <trkpt lat="42.63844" lon="1.69046">
        <ele>1874.24</ele>
        <time>2022-09-17T13:05:18Z</time>
      </trkpt>
      <trkpt lat="42.63845" lon="1.69049">
        <ele>1874.038</ele>
        <time>2022-09-17T13:05:20Z</time>
      </trkpt>
      <trkpt lat="42.6385" lon="1.6905">
        <ele>1874.437</ele>
        <time>2022-09-17T13:05:22Z</time>
      </trkpt>
      <trkpt lat="42.63852" lon="1.6905">
        <ele>1874.583</ele>
        <time>2022-09-17T13:05:24Z</time>
      </trkpt>
      <trkpt lat="42.63854" lon="1.69053">
        <ele>1875.699</ele>
        <time>2022-09-17T13:05:26Z</time>
      </trkpt>
      <trkpt lat="42.63856" lon="1.69053">
        <ele>1875.908</ele>
        <time>2022-09-17T13:05:28Z</time>
      </trkpt>
      <trkpt lat="42.63857" lon="1.69054">
        <ele>1876.558</ele>
        <time>2022-09-17T13:05:30Z</time>
      </trkpt>
      <trkpt lat="42.63858" lon="1.69055">
        <ele>1877.969</ele>
        <time>2022-09-17T13:05:32Z</time>
      </trkpt>
      <trkpt lat="42.63858" lon="1.69056">
        <ele>1877.77</ele>
        <time>2022-09-17T13:05:34Z</time>
      </trkpt>
      <trkpt lat="42.63858" lon="1.69058">
        <ele>1878.024</ele>
        <time>2022-09-17T13:05:36Z</time>
      </trkpt>
      <trkpt lat="42.63859" lon="1.6906">
        <ele>1876.897</ele>
        <time>2022-09-17T13:05:38Z</time>
      </trkpt>
      <trkpt lat="42.6386" lon="1.69062">
        <ele>1877.399</ele>
        <time>2022-09-17T13:05:40Z</time>
      </trkpt>
      <trkpt lat="42.63861" lon="1.69064">
        <ele>1878.049</ele>
        <time>2022-09-17T13:05:42Z</time>
      </trkpt>
      <trkpt lat="42.63862" lon="1.69064">
        <ele>1876.49</ele>
        <time>2022-09-17T13:05:44Z</time>
      </trkpt>
      <trkpt lat="42.63863" lon="1.69065">
        <ele>1875.532</ele>
        <time>2022-09-17T13:05:46Z</time>
      </trkpt>
      <trkpt lat="42.63864" lon="1.69066">
        <ele>1876.077</ele>
        <time>2022-09-17T13:05:48Z</time>
      </trkpt>
      <trkpt lat="42.63863" lon="1.69065">
        <ele>1875.414</ele>
        <time>2022-09-17T13:05:50Z</time>
      </trkpt>
      <trkpt lat="42.63865" lon="1.69066">
        <ele>1875.754</ele>
        <time>2022-09-17T13:05:52Z</time>
      </trkpt>
      <trkpt lat="42.63866" lon="1.69068">
        <ele>1875.503</ele>
        <time>2022-09-17T13:05:54Z</time>
      </trkpt>
      <trkpt lat="42.63866" lon="1.6907">
        <ele>1873.965</ele>
        <time>2022-09-17T13:05:56Z</time>
      </trkpt>
      <trkpt lat="42.63867" lon="1.69071">
        <ele>1873.263</ele>
        <time>2022-09-17T13:05:58Z</time>
      </trkpt>
      <trkpt lat="42.63867" lon="1.69074">
        <ele>1873.449</ele>
        <time>2022-09-17T13:06:00Z</time>
      </trkpt>
      <trkpt lat="42.63867" lon="1.69075">
        <ele>1872.976</ele>
        <time>2022-09-17T13:06:02Z</time>
      </trkpt>
      <trkpt lat="42.63866" lon="1.69077">
        <ele>1872.614</ele>
        <time>2022-09-17T13:06:04Z</time>
      </trkpt>
      <trkpt lat="42.63867" lon="1.69079">
        <ele>1870.826</ele>
        <time>2022-09-17T13:06:06Z</time>
      </trkpt>
      <trkpt lat="42.63867" lon="1.69082">
        <ele>1870.975</ele>
        <time>2022-09-17T13:06:08Z</time>
      </trkpt>
      <trkpt lat="42.63866" lon="1.69084">
        <ele>1870.477</ele>
        <time>2022-09-17T13:06:10Z</time>
      </trkpt>
      <trkpt lat="42.63866" lon="1.69086">
        <ele>1869.189</ele>
        <time>2022-09-17T13:06:12Z</time>
      </trkpt>
      <trkpt lat="42.63866" lon="1.69089">
        <ele>1868.52</ele>
        <time>2022-09-17T13:06:14Z</time>
      </trkpt>
      <trkpt lat="42.63866" lon="1.69092">
        <ele>1866.913</ele>
        <time>2022-09-17T13:06:16Z</time>
      </trkpt>
      <trkpt lat="42.63866" lon="1.69094">
        <ele>1867.477</ele>
        <time>2022-09-17T13:06:18Z</time>
      </trkpt>
      <trkpt lat="42.63867" lon="1.69096">
        <ele>1865.369</ele>
        <time>2022-09-17T13:06:20Z</time>
      </trkpt>
      <trkpt lat="42.63868" lon="1.69099">
        <ele>1865.156</ele>
        <time>2022-09-17T13:06:22Z</time>
      </trkpt>
      <trkpt lat="42.63868" lon="1.69102">
        <ele>1864.978</ele>
        <time>2022-09-17T13:06:24Z</time>
      </trkpt>
      <trkpt lat="42.63869" lon="1.69104">
        <ele>1864.727</ele>
        <time>2022-09-17T13:06:26Z</time>
      </trkpt>
      <trkpt lat="42.63869" lon="1.69107">
        <ele>1865.189</ele>
        <time>2022-09-17T13:06:28Z</time>
      </trkpt>
      <trkpt lat="42.63871" lon="1.69109">
        <ele>1864.762</ele>
        <time>2022-09-17T13:06:30Z</time>
      </trkpt>
      <trkpt lat="42.63872" lon="1.69112">
        <ele>1864.204</ele>
        <time>2022-09-17T13:06:32Z</time>
      </trkpt>
      <trkpt lat="42.63872" lon="1.69114">
        <ele>1864.151</ele>
        <time>2022-09-17T13:06:34Z</time>
      </trkpt>
      <trkpt lat="42.63871" lon="1.69117">
        <ele>1865.103</ele>
        <time>2022-09-17T13:06:36Z</time>
      </trkpt>
      <trkpt lat="42.6387" lon="1.69117">
        <ele>1864.395</ele>
        <time>2022-09-17T13:06:38Z</time>
      </trkpt>
      <trkpt lat="42.63868" lon="1.69118">
        <ele>1864.259</ele>
        <time>2022-09-17T13:06:40Z</time>
      </trkpt>
      <trkpt lat="42.63867" lon="1.6912">
        <ele>1864.158</ele>
        <time>2022-09-17T13:06:42Z</time>
      </trkpt>
      <trkpt lat="42.63865" lon="1.69121">
        <ele>1863.678</ele>
        <time>2022-09-17T13:06:44Z</time>
      </trkpt>
      <trkpt lat="42.63864" lon="1.69123">
        <ele>1863.752</ele>
        <time>2022-09-17T13:06:46Z</time>
      </trkpt>
      <trkpt lat="42.63863" lon="1.69126">
        <ele>1863.696</ele>
        <time>2022-09-17T13:06:48Z</time>
      </trkpt>
      <trkpt lat="42.63863" lon="1.69128">
        <ele>1863.437</ele>
        <time>2022-09-17T13:06:50Z</time>
      </trkpt>
      <trkpt lat="42.63862" lon="1.69131">
        <ele>1862.415</ele>
        <time>2022-09-17T13:06:52Z</time>
      </trkpt>
      <trkpt lat="42.63862" lon="1.69133">
        <ele>1861.378</ele>
        <time>2022-09-17T13:06:54Z</time>
      </trkpt>
      <trkpt lat="42.63861" lon="1.69136">
        <ele>1860.279</ele>
        <time>2022-09-17T13:06:56Z</time>
      </trkpt>
      <trkpt lat="42.63861" lon="1.69139">
        <ele>1860.224</ele>
        <time>2022-09-17T13:06:58Z</time>
      </trkpt>
      <trkpt lat="42.63861" lon="1.69141">
        <ele>1858.913</ele>
        <time>2022-09-17T13:07:00Z</time>
      </trkpt>
      <trkpt lat="42.63862" lon="1.69143">
        <ele>1857.273</ele>
        <time>2022-09-17T13:07:02Z</time>
      </trkpt>
      <trkpt lat="42.63862" lon="1.69146">
        <ele>1856.579</ele>
        <time>2022-09-17T13:07:04Z</time>
      </trkpt>
      <trkpt lat="42.63862" lon="1.69148">
        <ele>1855.622</ele>
        <time>2022-09-17T13:07:06Z</time>
      </trkpt>
      <trkpt lat="42.63862" lon="1.69151">
        <ele>1854.522</ele>
        <time>2022-09-17T13:07:08Z</time>
      </trkpt>
      <trkpt lat="42.63862" lon="1.69154">
        <ele>1854.078</ele>
        <time>2022-09-17T13:07:10Z</time>
      </trkpt>
      <trkpt lat="42.63862" lon="1.69156">
        <ele>1854.642</ele>
        <time>2022-09-17T13:07:12Z</time>
      </trkpt>
      <trkpt lat="42.63863" lon="1.69158">
        <ele>1854.935</ele>
        <time>2022-09-17T13:07:14Z</time>
      </trkpt>
      <trkpt lat="42.63864" lon="1.6916">
        <ele>1855.1</ele>
        <time>2022-09-17T13:07:16Z</time>
      </trkpt>
      <trkpt lat="42.63864" lon="1.69162">
        <ele>1855.628</ele>
        <time>2022-09-17T13:07:18Z</time>
      </trkpt>
      <trkpt lat="42.63864" lon="1.69164">
        <ele>1853.477</ele>
        <time>2022-09-17T13:07:20Z</time>
      </trkpt>
      <trkpt lat="42.63864" lon="1.69167">
        <ele>1853.963</ele>
        <time>2022-09-17T13:07:22Z</time>
      </trkpt>
      <trkpt lat="42.63865" lon="1.69169">
        <ele>1853.719</ele>
        <time>2022-09-17T13:07:24Z</time>
      </trkpt>
      <trkpt lat="42.63865" lon="1.69171">
        <ele>1852.886</ele>
        <time>2022-09-17T13:07:26Z</time>
      </trkpt>
      <trkpt lat="42.63866" lon="1.69174">
        <ele>1852.746</ele>
        <time>2022-09-17T13:07:28Z</time>
      </trkpt>
      <trkpt lat="42.63867" lon="1.69176">
        <ele>1851.642</ele>
        <time>2022-09-17T13:07:30Z</time>
      </trkpt>
      <trkpt lat="42.63867" lon="1.69179">
        <ele>1851.367</ele>
        <time>2022-09-17T13:07:32Z</time>
      </trkpt>
      <trkpt lat="42.63867" lon="1.69181">
        <ele>1851.91</ele>
        <time>2022-09-17T13:07:34Z</time>
      </trkpt>
      <trkpt lat="42.63866" lon="1.69185">
        <ele>1852.076</ele>
        <time>2022-09-17T13:07:36Z</time>
      </trkpt>
      <trkpt lat="42.63865" lon="1.69187">
        <ele>1851.64</ele>
        <time>2022-09-17T13:07:38Z</time>
      </trkpt>
      <trkpt lat="42.63865" lon="1.6919">
        <ele>1851.043</ele>
        <time>2022-09-17T13:07:40Z</time>
      </trkpt>
      <trkpt lat="42.63865" lon="1.69193">
        <ele>1850.509</ele>
        <time>2022-09-17T13:07:42Z</time>
      </trkpt>
      <trkpt lat="42.63864" lon="1.69196">
        <ele>1849.692</ele>
        <time>2022-09-17T13:07:44Z</time>
      </trkpt>
      <trkpt lat="42.63863" lon="1.69199">
        <ele>1848.188</ele>
        <time>2022-09-17T13:07:46Z</time>
      </trkpt>
      <trkpt lat="42.63863" lon="1.69201">
        <ele>1847.936</ele>
        <time>2022-09-17T13:07:48Z</time>
      </trkpt>
      <trkpt lat="42.63864" lon="1.69204">
        <ele>1846.883</ele>
        <time>2022-09-17T13:07:50Z</time>
      </trkpt>
      <trkpt lat="42.63864" lon="1.69207">
        <ele>1846.458</ele>
        <time>2022-09-17T13:07:52Z</time>
      </trkpt>
      <trkpt lat="42.63866" lon="1.69209">
        <ele>1846.347</ele>
        <time>2022-09-17T13:07:54Z</time>
      </trkpt>
      <trkpt lat="42.63867" lon="1.69212">
        <ele>1845.921</ele>
        <time>2022-09-17T13:07:56Z</time>
      </trkpt>
      <trkpt lat="42.63867" lon="1.69212">
        <ele>1845.111</ele>
        <time>2022-09-17T13:07:58Z</time>
      </trkpt>
      <trkpt lat="42.63867" lon="1.69212">
        <ele>1845.118</ele>
        <time>2022-09-17T13:08:00Z</time>
      </trkpt>
      <trkpt lat="42.63867" lon="1.69214">
        <ele>1845.986</ele>
        <time>2022-09-17T13:08:02Z</time>
      </trkpt>
      <trkpt lat="42.63867" lon="1.69216">
        <ele>1844.948</ele>
        <time>2022-09-17T13:08:04Z</time>
      </trkpt>
      <trkpt lat="42.63867" lon="1.69218">
        <ele>1844.675</ele>
        <time>2022-09-17T13:08:06Z</time>
      </trkpt>
      <trkpt lat="42.63867" lon="1.69221">
        <ele>1845.236</ele>
        <time>2022-09-17T13:08:08Z</time>
      </trkpt>
      <trkpt lat="42.63866" lon="1.69223">
        <ele>1844.695</ele>
        <time>2022-09-17T13:08:10Z</time>
      </trkpt>
      <trkpt lat="42.63866" lon="1.69226">
        <ele>1844.026</ele>
        <time>2022-09-17T13:08:12Z</time>
      </trkpt>
      <trkpt lat="42.63867" lon="1.69229">
        <ele>1844.484</ele>
        <time>2022-09-17T13:08:14Z</time>
      </trkpt>
      <trkpt lat="42.63868" lon="1.69231">
        <ele>1844.419</ele>
        <time>2022-09-17T13:08:16Z</time>
      </trkpt>
      <trkpt lat="42.63868" lon="1.69234">
        <ele>1845.401</ele>
        <time>2022-09-17T13:08:18Z</time>
      </trkpt>
      <trkpt lat="42.63868" lon="1.69236">
        <ele>1844.679</ele>
        <time>2022-09-17T13:08:20Z</time>
      </trkpt>
      <trkpt lat="42.63869" lon="1.69239">
        <ele>1844.26</ele>
        <time>2022-09-17T13:08:22Z</time>
      </trkpt>
      <trkpt lat="42.63871" lon="1.69241">
        <ele>1842.663</ele>
        <time>2022-09-17T13:08:24Z</time>
      </trkpt>
      <trkpt lat="42.63872" lon="1.69244">
        <ele>1841.401</ele>
        <time>2022-09-17T13:08:26Z</time>
      </trkpt>
      <trkpt lat="42.63872" lon="1.69247">
        <ele>1842.713</ele>
        <time>2022-09-17T13:08:28Z</time>
      </trkpt>
      <trkpt lat="42.63873" lon="1.69249">
        <ele>1842.596</ele>
        <time>2022-09-17T13:08:30Z</time>
      </trkpt>
      <trkpt lat="42.63875" lon="1.69251">
        <ele>1842.651</ele>
        <time>2022-09-17T13:08:32Z</time>
      </trkpt>
      <trkpt lat="42.63877" lon="1.69254">
        <ele>1842.061</ele>
        <time>2022-09-17T13:08:34Z</time>
      </trkpt>
      <trkpt lat="42.63878" lon="1.69257">
        <ele>1840.819</ele>
        <time>2022-09-17T13:08:36Z</time>
      </trkpt>
      <trkpt lat="42.63879" lon="1.69259">
        <ele>1840.37</ele>
        <time>2022-09-17T13:08:38Z</time>
      </trkpt>
      <trkpt lat="42.63881" lon="1.69261">
        <ele>1839.256</ele>
        <time>2022-09-17T13:08:40Z</time>
      </trkpt>
      <trkpt lat="42.63882" lon="1.69264">
        <ele>1839.419</ele>
        <time>2022-09-17T13:08:42Z</time>
      </trkpt>
      <trkpt lat="42.63884" lon="1.69266">
        <ele>1839.07</ele>
        <time>2022-09-17T13:08:44Z</time>
      </trkpt>
      <trkpt lat="42.63886" lon="1.69269">
        <ele>1839.239</ele>
        <time>2022-09-17T13:08:46Z</time>
      </trkpt>
      <trkpt lat="42.63887" lon="1.69271">
        <ele>1838.571</ele>
        <time>2022-09-17T13:08:48Z</time>
      </trkpt>
      <trkpt lat="42.63888" lon="1.69274">
        <ele>1838.131</ele>
        <time>2022-09-17T13:08:50Z</time>
      </trkpt>
      <trkpt lat="42.63889" lon="1.69277">
        <ele>1837.425</ele>
        <time>2022-09-17T13:08:52Z</time>
      </trkpt>
      <trkpt lat="42.6389" lon="1.6928">
        <ele>1836.387</ele>
        <time>2022-09-17T13:08:54Z</time>
      </trkpt>
      <trkpt lat="42.63891" lon="1.69282">
        <ele>1835.882</ele>
        <time>2022-09-17T13:08:56Z</time>
      </trkpt>
      <trkpt lat="42.63892" lon="1.69286">
        <ele>1836.573</ele>
        <time>2022-09-17T13:08:58Z</time>
      </trkpt>
      <trkpt lat="42.63893" lon="1.6929">
        <ele>1836.652</ele>
        <time>2022-09-17T13:09:00Z</time>
      </trkpt>
      <trkpt lat="42.63894" lon="1.69293">
        <ele>1837.479</ele>
        <time>2022-09-17T13:09:02Z</time>
      </trkpt>
      <trkpt lat="42.63896" lon="1.69296">
        <ele>1837.498</ele>
        <time>2022-09-17T13:09:04Z</time>
      </trkpt>
      <trkpt lat="42.63898" lon="1.69298">
        <ele>1838.122</ele>
        <time>2022-09-17T13:09:06Z</time>
      </trkpt>
      <trkpt lat="42.639" lon="1.693">
        <ele>1838.615</ele>
        <time>2022-09-17T13:09:08Z</time>
      </trkpt>
      <trkpt lat="42.63901" lon="1.69302">
        <ele>1838.284</ele>
        <time>2022-09-17T13:09:10Z</time>
      </trkpt>
      <trkpt lat="42.63902" lon="1.69305">
        <ele>1838.678</ele>
        <time>2022-09-17T13:09:12Z</time>
      </trkpt>
      <trkpt lat="42.63902" lon="1.69307">
        <ele>1837.904</ele>
        <time>2022-09-17T13:09:14Z</time>
      </trkpt>
      <trkpt lat="42.63902" lon="1.6931">
        <ele>1838.016</ele>
        <time>2022-09-17T13:09:16Z</time>
      </trkpt>
      <trkpt lat="42.63903" lon="1.69313">
        <ele>1838.516</ele>
        <time>2022-09-17T13:09:18Z</time>
      </trkpt>
      <trkpt lat="42.63903" lon="1.69316">
        <ele>1838.253</ele>
        <time>2022-09-17T13:09:20Z</time>
      </trkpt>
      <trkpt lat="42.63904" lon="1.69319">
        <ele>1837.958</ele>
        <time>2022-09-17T13:09:22Z</time>
      </trkpt>
      <trkpt lat="42.63904" lon="1.69322">
        <ele>1838.018</ele>
        <time>2022-09-17T13:09:24Z</time>
      </trkpt>
      <trkpt lat="42.63905" lon="1.69325">
        <ele>1837.345</ele>
        <time>2022-09-17T13:09:26Z</time>
      </trkpt>
      <trkpt lat="42.63906" lon="1.69328">
        <ele>1837.219</ele>
        <time>2022-09-17T13:09:28Z</time>
      </trkpt>
      <trkpt lat="42.63908" lon="1.6933">
        <ele>1836.926</ele>
        <time>2022-09-17T13:09:30Z</time>
      </trkpt>
      <trkpt lat="42.63909" lon="1.69332">
        <ele>1836.509</ele>
        <time>2022-09-17T13:09:32Z</time>
      </trkpt>
      <trkpt lat="42.6391" lon="1.69336">
        <ele>1836.812</ele>
        <time>2022-09-17T13:09:34Z</time>
      </trkpt>
      <trkpt lat="42.6391" lon="1.69338">
        <ele>1836.266</ele>
        <time>2022-09-17T13:09:36Z</time>
      </trkpt>
      <trkpt lat="42.63911" lon="1.6934">
        <ele>1836.64</ele>
        <time>2022-09-17T13:09:38Z</time>
      </trkpt>
      <trkpt lat="42.63911" lon="1.69343">
        <ele>1836.75</ele>
        <time>2022-09-17T13:09:40Z</time>
      </trkpt>
      <trkpt lat="42.63911" lon="1.69346">
        <ele>1837.203</ele>
        <time>2022-09-17T13:09:42Z</time>
      </trkpt>
      <trkpt lat="42.63912" lon="1.69349">
        <ele>1836.332</ele>
        <time>2022-09-17T13:09:44Z</time>
      </trkpt>
      <trkpt lat="42.63911" lon="1.69351">
        <ele>1837.305</ele>
        <time>2022-09-17T13:09:46Z</time>
      </trkpt>
      <trkpt lat="42.63911" lon="1.69353">
        <ele>1837.327</ele>
        <time>2022-09-17T13:09:48Z</time>
      </trkpt>
      <trkpt lat="42.63912" lon="1.69356">
        <ele>1836.823</ele>
        <time>2022-09-17T13:09:50Z</time>
      </trkpt>
      <trkpt lat="42.63913" lon="1.69358">
        <ele>1837.38</ele>
        <time>2022-09-17T13:09:52Z</time>
      </trkpt>
      <trkpt lat="42.63914" lon="1.69361">
        <ele>1837.732</ele>
        <time>2022-09-17T13:09:54Z</time>
      </trkpt>
      <trkpt lat="42.63914" lon="1.69363">
        <ele>1836.129</ele>
        <time>2022-09-17T13:09:56Z</time>
      </trkpt>
      <trkpt lat="42.63915" lon="1.69366">
        <ele>1835.264</ele>
        <time>2022-09-17T13:09:58Z</time>
      </trkpt>
      <trkpt lat="42.63917" lon="1.69368">
        <ele>1834.467</ele>
        <time>2022-09-17T13:10:00Z</time>
      </trkpt>
      <trkpt lat="42.63918" lon="1.6937">
        <ele>1833.048</ele>
        <time>2022-09-17T13:10:02Z</time>
      </trkpt>
      <trkpt lat="42.6392" lon="1.69372">
        <ele>1832.68</ele>
        <time>2022-09-17T13:10:04Z</time>
      </trkpt>
      <trkpt lat="42.63921" lon="1.69374">
        <ele>1832.343</ele>
        <time>2022-09-17T13:10:06Z</time>
      </trkpt>
      <trkpt lat="42.63923" lon="1.69376">
        <ele>1831.88</ele>
        <time>2022-09-17T13:10:08Z</time>
      </trkpt>
      <trkpt lat="42.63924" lon="1.69379">
        <ele>1831.784</ele>
        <time>2022-09-17T13:10:10Z</time>
      </trkpt>
      <trkpt lat="42.63926" lon="1.69381">
        <ele>1832.131</ele>
        <time>2022-09-17T13:10:12Z</time>
      </trkpt>
      <trkpt lat="42.63927" lon="1.69382">
        <ele>1832.516</ele>
        <time>2022-09-17T13:10:14Z</time>
      </trkpt>
      <trkpt lat="42.63929" lon="1.69384">
        <ele>1833.173</ele>
        <time>2022-09-17T13:10:16Z</time>
      </trkpt>
      <trkpt lat="42.63929" lon="1.69387">
        <ele>1833.709</ele>
        <time>2022-09-17T13:10:18Z</time>
      </trkpt>
      <trkpt lat="42.63929" lon="1.6939">
        <ele>1833.987</ele>
        <time>2022-09-17T13:10:20Z</time>
      </trkpt>
      <trkpt lat="42.6393" lon="1.69392">
        <ele>1833.031</ele>
        <time>2022-09-17T13:10:22Z</time>
      </trkpt>
      <trkpt lat="42.63932" lon="1.69395">
        <ele>1832.578</ele>
        <time>2022-09-17T13:10:24Z</time>
      </trkpt>
      <trkpt lat="42.63932" lon="1.69398">
        <ele>1831.487</ele>
        <time>2022-09-17T13:10:26Z</time>
      </trkpt>
      <trkpt lat="42.63933" lon="1.694">
        <ele>1831.024</ele>
        <time>2022-09-17T13:10:28Z</time>
      </trkpt>
      <trkpt lat="42.63934" lon="1.69403">
        <ele>1830.708</ele>
        <time>2022-09-17T13:10:30Z</time>
      </trkpt>
      <trkpt lat="42.63934" lon="1.69406">
        <ele>1831.08</ele>
        <time>2022-09-17T13:10:32Z</time>
      </trkpt>
      <trkpt lat="42.63934" lon="1.6941">
        <ele>1831.353</ele>
        <time>2022-09-17T13:10:34Z</time>
      </trkpt>
      <trkpt lat="42.63935" lon="1.69413">
        <ele>1831.653</ele>
        <time>2022-09-17T13:10:36Z</time>
      </trkpt>
      <trkpt lat="42.63937" lon="1.69416">
        <ele>1831.41</ele>
        <time>2022-09-17T13:10:38Z</time>
      </trkpt>
      <trkpt lat="42.63937" lon="1.69419">
        <ele>1831.441</ele>
        <time>2022-09-17T13:10:40Z</time>
      </trkpt>
      <trkpt lat="42.63937" lon="1.69422">
        <ele>1831.137</ele>
        <time>2022-09-17T13:10:42Z</time>
      </trkpt>
      <trkpt lat="42.63938" lon="1.69424">
        <ele>1830.369</ele>
        <time>2022-09-17T13:10:44Z</time>
      </trkpt>
      <trkpt lat="42.63939" lon="1.69427">
        <ele>1830.24</ele>
        <time>2022-09-17T13:10:46Z</time>
      </trkpt>
      <trkpt lat="42.63939" lon="1.6943">
        <ele>1830.026</ele>
        <time>2022-09-17T13:10:48Z</time>
      </trkpt>
      <trkpt lat="42.63939" lon="1.69433">
        <ele>1829.795</ele>
        <time>2022-09-17T13:10:50Z</time>
      </trkpt>
      <trkpt lat="42.6394" lon="1.69435">
        <ele>1828.347</ele>
        <time>2022-09-17T13:10:52Z</time>
      </trkpt>
      <trkpt lat="42.63941" lon="1.69438">
        <ele>1827.626</ele>
        <time>2022-09-17T13:10:54Z</time>
      </trkpt>
      <trkpt lat="42.63942" lon="1.69441">
        <ele>1826.74</ele>
        <time>2022-09-17T13:10:56Z</time>
      </trkpt>
      <trkpt lat="42.63944" lon="1.69443">
        <ele>1826.298</ele>
        <time>2022-09-17T13:10:58Z</time>
      </trkpt>
      <trkpt lat="42.63945" lon="1.69446">
        <ele>1825.606</ele>
        <time>2022-09-17T13:11:00Z</time>
      </trkpt>
      <trkpt lat="42.63946" lon="1.69448">
        <ele>1826.013</ele>
        <time>2022-09-17T13:11:02Z</time>
      </trkpt>
      <trkpt lat="42.63948" lon="1.69451">
        <ele>1826.103</ele>
        <time>2022-09-17T13:11:04Z</time>
      </trkpt>
      <trkpt lat="42.63949" lon="1.69453">
        <ele>1825.566</ele>
        <time>2022-09-17T13:11:06Z</time>
      </trkpt>
      <trkpt lat="42.6395" lon="1.69456">
        <ele>1825.923</ele>
        <time>2022-09-17T13:11:08Z</time>
      </trkpt>
      <trkpt lat="42.63951" lon="1.69459">
        <ele>1825.58</ele>
        <time>2022-09-17T13:11:10Z</time>
      </trkpt>
      <trkpt lat="42.63952" lon="1.69462">
        <ele>1824.831</ele>
        <time>2022-09-17T13:11:12Z</time>
      </trkpt>
      <trkpt lat="42.63953" lon="1.69465">
        <ele>1823.966</ele>
        <time>2022-09-17T13:11:14Z</time>
      </trkpt>
      <trkpt lat="42.63955" lon="1.69467">
        <ele>1823.893</ele>
        <time>2022-09-17T13:11:16Z</time>
      </trkpt>
      <trkpt lat="42.63957" lon="1.69469">
        <ele>1823.2</ele>
        <time>2022-09-17T13:11:18Z</time>
      </trkpt>
      <trkpt lat="42.63958" lon="1.69471">
        <ele>1822.781</ele>
        <time>2022-09-17T13:11:20Z</time>
      </trkpt>
      <trkpt lat="42.63959" lon="1.69473">
        <ele>1823.21</ele>
        <time>2022-09-17T13:11:22Z</time>
      </trkpt>
      <trkpt lat="42.63961" lon="1.69476">
        <ele>1823.048</ele>
        <time>2022-09-17T13:11:24Z</time>
      </trkpt>
      <trkpt lat="42.63963" lon="1.69478">
        <ele>1822.767</ele>
        <time>2022-09-17T13:11:26Z</time>
      </trkpt>
      <trkpt lat="42.63964" lon="1.6948">
        <ele>1822.353</ele>
        <time>2022-09-17T13:11:28Z</time>
      </trkpt>
      <trkpt lat="42.63966" lon="1.69482">
        <ele>1821.578</ele>
        <time>2022-09-17T13:11:30Z</time>
      </trkpt>
      <trkpt lat="42.63968" lon="1.69483">
        <ele>1822.197</ele>
        <time>2022-09-17T13:11:32Z</time>
      </trkpt>
      <trkpt lat="42.6397" lon="1.69484">
        <ele>1822.193</ele>
        <time>2022-09-17T13:11:34Z</time>
      </trkpt>
      <trkpt lat="42.63972" lon="1.69486">
        <ele>1822.563</ele>
        <time>2022-09-17T13:11:36Z</time>
      </trkpt>
      <trkpt lat="42.63974" lon="1.69486">
        <ele>1822.138</ele>
        <time>2022-09-17T13:11:38Z</time>
      </trkpt>
      <trkpt lat="42.63975" lon="1.69487">
        <ele>1821.037</ele>
        <time>2022-09-17T13:11:40Z</time>
      </trkpt>
      <trkpt lat="42.63976" lon="1.69489">
        <ele>1820.213</ele>
        <time>2022-09-17T13:11:42Z</time>
      </trkpt>
      <trkpt lat="42.63977" lon="1.69492">
        <ele>1819.777</ele>
        <time>2022-09-17T13:11:44Z</time>
      </trkpt>
      <trkpt lat="42.63979" lon="1.69494">
        <ele>1819.763</ele>
        <time>2022-09-17T13:11:46Z</time>
      </trkpt>
      <trkpt lat="42.6398" lon="1.69496">
        <ele>1818.534</ele>
        <time>2022-09-17T13:11:48Z</time>
      </trkpt>
      <trkpt lat="42.63982" lon="1.69498">
        <ele>1818.461</ele>
        <time>2022-09-17T13:11:50Z</time>
      </trkpt>
      <trkpt lat="42.63984" lon="1.69499">
        <ele>1818.759</ele>
        <time>2022-09-17T13:11:52Z</time>
      </trkpt>
      <trkpt lat="42.63986" lon="1.69498">
        <ele>1818.207</ele>
        <time>2022-09-17T13:11:54Z</time>
      </trkpt>
      <trkpt lat="42.63988" lon="1.69497">
        <ele>1818.052</ele>
        <time>2022-09-17T13:11:56Z</time>
      </trkpt>
      <trkpt lat="42.63989" lon="1.69498">
        <ele>1818.275</ele>
        <time>2022-09-17T13:11:58Z</time>
      </trkpt>
      <trkpt lat="42.6399" lon="1.695">
        <ele>1818.425</ele>
        <time>2022-09-17T13:12:00Z</time>
      </trkpt>
      <trkpt lat="42.63991" lon="1.69502">
        <ele>1817.917</ele>
        <time>2022-09-17T13:12:02Z</time>
      </trkpt>
      <trkpt lat="42.63992" lon="1.69504">
        <ele>1818.04</ele>
        <time>2022-09-17T13:12:04Z</time>
      </trkpt>
      <trkpt lat="42.63994" lon="1.69504">
        <ele>1818.802</ele>
        <time>2022-09-17T13:12:06Z</time>
      </trkpt>
      <trkpt lat="42.63996" lon="1.69505">
        <ele>1818.469</ele>
        <time>2022-09-17T13:12:08Z</time>
      </trkpt>
      <trkpt lat="42.63997" lon="1.69505">
        <ele>1818.288</ele>
        <time>2022-09-17T13:12:10Z</time>
      </trkpt>
      <trkpt lat="42.63998" lon="1.69506">
        <ele>1817.253</ele>
        <time>2022-09-17T13:12:12Z</time>
      </trkpt>
      <trkpt lat="42.63998" lon="1.69509">
        <ele>1817.294</ele>
        <time>2022-09-17T13:12:14Z</time>
      </trkpt>
      <trkpt lat="42.63998" lon="1.69511">
        <ele>1816.73</ele>
        <time>2022-09-17T13:12:16Z</time>
      </trkpt>
      <trkpt lat="42.63997" lon="1.69513">
        <ele>1816.857</ele>
        <time>2022-09-17T13:12:18Z</time>
      </trkpt>
      <trkpt lat="42.63997" lon="1.69516">
        <ele>1816.454</ele>
        <time>2022-09-17T13:12:20Z</time>
      </trkpt>
      <trkpt lat="42.63998" lon="1.69518">
        <ele>1817.784</ele>
        <time>2022-09-17T13:12:22Z</time>
      </trkpt>
      <trkpt lat="42.64" lon="1.6952">
        <ele>1818.994</ele>
        <time>2022-09-17T13:12:24Z</time>
      </trkpt>
      <trkpt lat="42.64" lon="1.69522">
        <ele>1818.938</ele>
        <time>2022-09-17T13:12:26Z</time>
      </trkpt>
      <trkpt lat="42.64" lon="1.69524">
        <ele>1819.833</ele>
        <time>2022-09-17T13:12:28Z</time>
      </trkpt>
      <trkpt lat="42.63999" lon="1.69526">
        <ele>1819.879</ele>
        <time>2022-09-17T13:12:30Z</time>
      </trkpt>
      <trkpt lat="42.63999" lon="1.69528">
        <ele>1820.735</ele>
        <time>2022-09-17T13:12:32Z</time>
      </trkpt>
      <trkpt lat="42.63998" lon="1.69529">
        <ele>1820.522</ele>
        <time>2022-09-17T13:12:34Z</time>
      </trkpt>
      <trkpt lat="42.63998" lon="1.69531">
        <ele>1819.964</ele>
        <time>2022-09-17T13:12:36Z</time>
      </trkpt>
      <trkpt lat="42.63999" lon="1.69534">
        <ele>1819.324</ele>
        <time>2022-09-17T13:12:38Z</time>
      </trkpt>
      <trkpt lat="42.64" lon="1.69536">
        <ele>1819.807</ele>
        <time>2022-09-17T13:12:40Z</time>
      </trkpt>
      <trkpt lat="42.64002" lon="1.69537">
        <ele>1819.263</ele>
        <time>2022-09-17T13:12:42Z</time>
      </trkpt>
      <trkpt lat="42.64002" lon="1.69539">
        <ele>1818.789</ele>
        <time>2022-09-17T13:12:44Z</time>
      </trkpt>
      <trkpt lat="42.64003" lon="1.69542">
        <ele>1818.857</ele>
        <time>2022-09-17T13:12:46Z</time>
      </trkpt>
      <trkpt lat="42.64004" lon="1.69544">
        <ele>1818.874</ele>
        <time>2022-09-17T13:12:48Z</time>
      </trkpt>
      <trkpt lat="42.64004" lon="1.69546">
        <ele>1819.557</ele>
        <time>2022-09-17T13:12:50Z</time>
      </trkpt>
      <trkpt lat="42.64004" lon="1.69548">
        <ele>1820.533</ele>
        <time>2022-09-17T13:12:52Z</time>
      </trkpt>
      <trkpt lat="42.64003" lon="1.6955">
        <ele>1819.926</ele>
        <time>2022-09-17T13:12:54Z</time>
      </trkpt>
      <trkpt lat="42.64002" lon="1.69553">
        <ele>1819.965</ele>
        <time>2022-09-17T13:12:56Z</time>
      </trkpt>
      <trkpt lat="42.64002" lon="1.69555">
        <ele>1821.006</ele>
        <time>2022-09-17T13:12:58Z</time>
      </trkpt>
      <trkpt lat="42.64002" lon="1.69557">
        <ele>1820.634</ele>
        <time>2022-09-17T13:13:00Z</time>
      </trkpt>
      <trkpt lat="42.64003" lon="1.69559">
        <ele>1819.104</ele>
        <time>2022-09-17T13:13:02Z</time>
      </trkpt>
      <trkpt lat="42.64005" lon="1.6956">
        <ele>1819.039</ele>
        <time>2022-09-17T13:13:04Z</time>
      </trkpt>
      <trkpt lat="42.64006" lon="1.69562">
        <ele>1818.228</ele>
        <time>2022-09-17T13:13:06Z</time>
      </trkpt>
      <trkpt lat="42.64007" lon="1.69564">
        <ele>1818.054</ele>
        <time>2022-09-17T13:13:08Z</time>
      </trkpt>
      <trkpt lat="42.64009" lon="1.69564">
        <ele>1817.26</ele>
        <time>2022-09-17T13:13:10Z</time>
      </trkpt>
      <trkpt lat="42.6401" lon="1.69566">
        <ele>1817.099</ele>
        <time>2022-09-17T13:13:12Z</time>
      </trkpt>
      <trkpt lat="42.6401" lon="1.69569">
        <ele>1817.186</ele>
        <time>2022-09-17T13:13:14Z</time>
      </trkpt>
      <trkpt lat="42.6401" lon="1.6957">
        <ele>1816.384</ele>
        <time>2022-09-17T13:13:16Z</time>
      </trkpt>
      <trkpt lat="42.6401" lon="1.69572">
        <ele>1815.927</ele>
        <time>2022-09-17T13:13:18Z</time>
      </trkpt>
      <trkpt lat="42.6401" lon="1.69574">
        <ele>1815.226</ele>
        <time>2022-09-17T13:13:20Z</time>
      </trkpt>
      <trkpt lat="42.6401" lon="1.69576">
        <ele>1814.78</ele>
        <time>2022-09-17T13:13:22Z</time>
      </trkpt>
      <trkpt lat="42.64011" lon="1.69579">
        <ele>1815.746</ele>
        <time>2022-09-17T13:13:24Z</time>
      </trkpt>
      <trkpt lat="42.64012" lon="1.69582">
        <ele>1816.32</ele>
        <time>2022-09-17T13:13:26Z</time>
      </trkpt>
      <trkpt lat="42.64012" lon="1.69585">
        <ele>1817.628</ele>
        <time>2022-09-17T13:13:28Z</time>
      </trkpt>
      <trkpt lat="42.64012" lon="1.69589">
        <ele>1820.164</ele>
        <time>2022-09-17T13:13:30Z</time>
      </trkpt>
      <trkpt lat="42.64012" lon="1.69592">
        <ele>1821.391</ele>
        <time>2022-09-17T13:13:32Z</time>
      </trkpt>
      <trkpt lat="42.64013" lon="1.69594">
        <ele>1821.383</ele>
        <time>2022-09-17T13:13:34Z</time>
      </trkpt>
      <trkpt lat="42.64014" lon="1.69596">
        <ele>1821.159</ele>
        <time>2022-09-17T13:13:36Z</time>
      </trkpt>
      <trkpt lat="42.64014" lon="1.69598">
        <ele>1821.502</ele>
        <time>2022-09-17T13:13:38Z</time>
      </trkpt>
      <trkpt lat="42.64015" lon="1.696">
        <ele>1821.254</ele>
        <time>2022-09-17T13:13:40Z</time>
      </trkpt>
      <trkpt lat="42.64018" lon="1.69599">
        <ele>1819.297</ele>
        <time>2022-09-17T13:13:42Z</time>
      </trkpt>
      <trkpt lat="42.64019" lon="1.69601">
        <ele>1819.686</ele>
        <time>2022-09-17T13:13:44Z</time>
      </trkpt>
      <trkpt lat="42.64019" lon="1.69603">
        <ele>1819.597</ele>
        <time>2022-09-17T13:13:46Z</time>
      </trkpt>
      <trkpt lat="42.6402" lon="1.69605">
        <ele>1818.655</ele>
        <time>2022-09-17T13:13:48Z</time>
      </trkpt>
      <trkpt lat="42.64021" lon="1.69607">
        <ele>1818.711</ele>
        <time>2022-09-17T13:13:50Z</time>
      </trkpt>
      <trkpt lat="42.64021" lon="1.69609">
        <ele>1819.979</ele>
        <time>2022-09-17T13:13:52Z</time>
      </trkpt>
      <trkpt lat="42.64022" lon="1.69612">
        <ele>1819.399</ele>
        <time>2022-09-17T13:13:54Z</time>
      </trkpt>
      <trkpt lat="42.64024" lon="1.69613">
        <ele>1818.962</ele>
        <time>2022-09-17T13:13:56Z</time>
      </trkpt>
      <trkpt lat="42.64026" lon="1.69614">
        <ele>1817.326</ele>
        <time>2022-09-17T13:13:58Z</time>
      </trkpt>
      <trkpt lat="42.64027" lon="1.69614">
        <ele>1816.037</ele>
        <time>2022-09-17T13:14:00Z</time>
      </trkpt>
      <trkpt lat="42.64028" lon="1.69616">
        <ele>1815.944</ele>
        <time>2022-09-17T13:14:02Z</time>
      </trkpt>
      <trkpt lat="42.64029" lon="1.69617">
        <ele>1816.406</ele>
        <time>2022-09-17T13:14:04Z</time>
      </trkpt>
      <trkpt lat="42.64029" lon="1.69619">
        <ele>1815.998</ele>
        <time>2022-09-17T13:14:06Z</time>
      </trkpt>
      <trkpt lat="42.64031" lon="1.6962">
        <ele>1815.922</ele>
        <time>2022-09-17T13:14:08Z</time>
      </trkpt>
      <trkpt lat="42.64032" lon="1.69622">
        <ele>1816.189</ele>
        <time>2022-09-17T13:14:10Z</time>
      </trkpt>
      <trkpt lat="42.64033" lon="1.69624">
        <ele>1814.388</ele>
        <time>2022-09-17T13:14:12Z</time>
      </trkpt>
      <trkpt lat="42.64033" lon="1.69626">
        <ele>1813.206</ele>
        <time>2022-09-17T13:14:14Z</time>
      </trkpt>
      <trkpt lat="42.64034" lon="1.69627">
        <ele>1812.155</ele>
        <time>2022-09-17T13:14:16Z</time>
      </trkpt>
      <trkpt lat="42.64035" lon="1.69629">
        <ele>1810.206</ele>
        <time>2022-09-17T13:14:18Z</time>
      </trkpt>
      <trkpt lat="42.64036" lon="1.69631">
        <ele>1809.863</ele>
        <time>2022-09-17T13:14:20Z</time>
      </trkpt>
      <trkpt lat="42.64037" lon="1.69633">
        <ele>1810.632</ele>
        <time>2022-09-17T13:14:22Z</time>
      </trkpt>
      <trkpt lat="42.64038" lon="1.69635">
        <ele>1810.962</ele>
        <time>2022-09-17T13:14:24Z</time>
      </trkpt>
      <trkpt lat="42.64039" lon="1.69637">
        <ele>1811.574</ele>
        <time>2022-09-17T13:14:26Z</time>
      </trkpt>
      <trkpt lat="42.64039" lon="1.69638">
        <ele>1812.096</ele>
        <time>2022-09-17T13:14:28Z</time>
      </trkpt>
      <trkpt lat="42.64039" lon="1.69639">
        <ele>1812.982</ele>
        <time>2022-09-17T13:14:30Z</time>
      </trkpt>
      <trkpt lat="42.64039" lon="1.69641">
        <ele>1813.084</ele>
        <time>2022-09-17T13:14:32Z</time>
      </trkpt>
      <trkpt lat="42.64039" lon="1.69643">
        <ele>1812.347</ele>
        <time>2022-09-17T13:14:34Z</time>
      </trkpt>
      <trkpt lat="42.6404" lon="1.69645">
        <ele>1810.798</ele>
        <time>2022-09-17T13:14:36Z</time>
      </trkpt>
      <trkpt lat="42.6404" lon="1.69647">
        <ele>1808.851</ele>
        <time>2022-09-17T13:14:38Z</time>
      </trkpt>
      <trkpt lat="42.6404" lon="1.69649">
        <ele>1807.167</ele>
        <time>2022-09-17T13:14:40Z</time>
      </trkpt>
      <trkpt lat="42.64041" lon="1.69651">
        <ele>1808.264</ele>
        <time>2022-09-17T13:14:42Z</time>
      </trkpt>
      <trkpt lat="42.64042" lon="1.69653">
        <ele>1809.225</ele>
        <time>2022-09-17T13:14:44Z</time>
      </trkpt>
      <trkpt lat="42.64042" lon="1.69655">
        <ele>1808.664</ele>
        <time>2022-09-17T13:14:46Z</time>
      </trkpt>
      <trkpt lat="42.64043" lon="1.69657">
        <ele>1808.187</ele>
        <time>2022-09-17T13:14:48Z</time>
      </trkpt>
      <trkpt lat="42.64045" lon="1.6966">
        <ele>1807.696</ele>
        <time>2022-09-17T13:14:50Z</time>
      </trkpt>
      <trkpt lat="42.64046" lon="1.69663">
        <ele>1808.11</ele>
        <time>2022-09-17T13:14:52Z</time>
      </trkpt>
      <trkpt lat="42.64047" lon="1.69665">
        <ele>1807.992</ele>
        <time>2022-09-17T13:14:54Z</time>
      </trkpt>
      <trkpt lat="42.64048" lon="1.69668">
        <ele>1807.664</ele>
        <time>2022-09-17T13:14:56Z</time>
      </trkpt>
      <trkpt lat="42.64049" lon="1.69669">
        <ele>1807.521</ele>
        <time>2022-09-17T13:14:58Z</time>
      </trkpt>
      <trkpt lat="42.64049" lon="1.69672">
        <ele>1808.316</ele>
        <time>2022-09-17T13:15:00Z</time>
      </trkpt>
      <trkpt lat="42.64049" lon="1.69673">
        <ele>1806.906</ele>
        <time>2022-09-17T13:15:02Z</time>
      </trkpt>
      <trkpt lat="42.6405" lon="1.69674">
        <ele>1806.583</ele>
        <time>2022-09-17T13:15:04Z</time>
      </trkpt>
      <trkpt lat="42.6405" lon="1.69676">
        <ele>1806.066</ele>
        <time>2022-09-17T13:15:06Z</time>
      </trkpt>
      <trkpt lat="42.64051" lon="1.69679">
        <ele>1806.034</ele>
        <time>2022-09-17T13:15:08Z</time>
      </trkpt>
      <trkpt lat="42.64051" lon="1.69681">
        <ele>1805.656</ele>
        <time>2022-09-17T13:15:10Z</time>
      </trkpt>
      <trkpt lat="42.64052" lon="1.69683">
        <ele>1805.232</ele>
        <time>2022-09-17T13:15:12Z</time>
      </trkpt>
      <trkpt lat="42.64053" lon="1.69685">
        <ele>1804.527</ele>
        <time>2022-09-17T13:15:14Z</time>
      </trkpt>
      <trkpt lat="42.64054" lon="1.69688">
        <ele>1803.409</ele>
        <time>2022-09-17T13:15:16Z</time>
      </trkpt>
      <trkpt lat="42.64055" lon="1.6969">
        <ele>1802.664</ele>
        <time>2022-09-17T13:15:18Z</time>
      </trkpt>
      <trkpt lat="42.64056" lon="1.69692">
        <ele>1804.075</ele>
        <time>2022-09-17T13:15:20Z</time>
      </trkpt>
      <trkpt lat="42.64057" lon="1.69695">
        <ele>1804.449</ele>
        <time>2022-09-17T13:15:22Z</time>
      </trkpt>
      <trkpt lat="42.64058" lon="1.69697">
        <ele>1804.602</ele>
        <time>2022-09-17T13:15:24Z</time>
      </trkpt>
      <trkpt lat="42.64059" lon="1.69699">
        <ele>1805.087</ele>
        <time>2022-09-17T13:15:26Z</time>
      </trkpt>
      <trkpt lat="42.6406" lon="1.69702">
        <ele>1805.754</ele>
        <time>2022-09-17T13:15:28Z</time>
      </trkpt>
      <trkpt lat="42.64059" lon="1.69705">
        <ele>1807.429</ele>
        <time>2022-09-17T13:15:30Z</time>
      </trkpt>
      <trkpt lat="42.64059" lon="1.69707">
        <ele>1808.009</ele>
        <time>2022-09-17T13:15:32Z</time>
      </trkpt>
      <trkpt lat="42.64059" lon="1.69709">
        <ele>1807.899</ele>
        <time>2022-09-17T13:15:34Z</time>
      </trkpt>
      <trkpt lat="42.6406" lon="1.69711">
        <ele>1807.245</ele>
        <time>2022-09-17T13:15:36Z</time>
      </trkpt>
      <trkpt lat="42.64061" lon="1.69712">
        <ele>1806.738</ele>
        <time>2022-09-17T13:15:38Z</time>
      </trkpt>
      <trkpt lat="42.64061" lon="1.69714">
        <ele>1805.713</ele>
        <time>2022-09-17T13:15:40Z</time>
      </trkpt>
      <trkpt lat="42.64061" lon="1.69715">
        <ele>1803.924</ele>
        <time>2022-09-17T13:15:42Z</time>
      </trkpt>
      <trkpt lat="42.64062" lon="1.69716">
        <ele>1802.92</ele>
        <time>2022-09-17T13:15:44Z</time>
      </trkpt>
      <trkpt lat="42.64063" lon="1.69718">
        <ele>1801.731</ele>
        <time>2022-09-17T13:15:46Z</time>
      </trkpt>
      <trkpt lat="42.64064" lon="1.6972">
        <ele>1801.166</ele>
        <time>2022-09-17T13:15:48Z</time>
      </trkpt>
      <trkpt lat="42.64065" lon="1.69722">
        <ele>1799.93</ele>
        <time>2022-09-17T13:15:50Z</time>
      </trkpt>
      <trkpt lat="42.64067" lon="1.69724">
        <ele>1799.614</ele>
        <time>2022-09-17T13:15:52Z</time>
      </trkpt>
      <trkpt lat="42.64067" lon="1.69725">
        <ele>1798.869</ele>
        <time>2022-09-17T13:15:54Z</time>
      </trkpt>
      <trkpt lat="42.64067" lon="1.69726">
        <ele>1797.939</ele>
        <time>2022-09-17T13:15:56Z</time>
      </trkpt>
      <trkpt lat="42.64068" lon="1.69728">
        <ele>1797.656</ele>
        <time>2022-09-17T13:15:58Z</time>
      </trkpt>
      <trkpt lat="42.6407" lon="1.6973">
        <ele>1796.925</ele>
        <time>2022-09-17T13:16:00Z</time>
      </trkpt>
      <trkpt lat="42.64072" lon="1.69731">
        <ele>1797.159</ele>
        <time>2022-09-17T13:16:02Z</time>
      </trkpt>
      <trkpt lat="42.64072" lon="1.69733">
        <ele>1796.203</ele>
        <time>2022-09-17T13:16:04Z</time>
      </trkpt>
      <trkpt lat="42.64074" lon="1.69734">
        <ele>1796.405</ele>
        <time>2022-09-17T13:16:06Z</time>
      </trkpt>
      <trkpt lat="42.64074" lon="1.69737">
        <ele>1797.07</ele>
        <time>2022-09-17T13:16:08Z</time>
      </trkpt>
      <trkpt lat="42.64074" lon="1.69739">
        <ele>1797.208</ele>
        <time>2022-09-17T13:16:10Z</time>
      </trkpt>
      <trkpt lat="42.64076" lon="1.6974">
        <ele>1795.751</ele>
        <time>2022-09-17T13:16:12Z</time>
      </trkpt>
      <trkpt lat="42.64077" lon="1.69741">
        <ele>1795.169</ele>
        <time>2022-09-17T13:16:14Z</time>
      </trkpt>
      <trkpt lat="42.64078" lon="1.69743">
        <ele>1795.611</ele>
        <time>2022-09-17T13:16:16Z</time>
      </trkpt>
      <trkpt lat="42.64079" lon="1.69746">
        <ele>1795.461</ele>
        <time>2022-09-17T13:16:18Z</time>
      </trkpt>
      <trkpt lat="42.6408" lon="1.69747">
        <ele>1794.162</ele>
        <time>2022-09-17T13:16:20Z</time>
      </trkpt>
      <trkpt lat="42.64081" lon="1.69749">
        <ele>1793.997</ele>
        <time>2022-09-17T13:16:22Z</time>
      </trkpt>
      <trkpt lat="42.64083" lon="1.69751">
        <ele>1793.283</ele>
        <time>2022-09-17T13:16:24Z</time>
      </trkpt>
      <trkpt lat="42.64084" lon="1.69752">
        <ele>1791.808</ele>
        <time>2022-09-17T13:16:26Z</time>
      </trkpt>
      <trkpt lat="42.64086" lon="1.69754">
        <ele>1791.642</ele>
        <time>2022-09-17T13:16:28Z</time>
      </trkpt>
      <trkpt lat="42.64086" lon="1.69757">
        <ele>1791.953</ele>
        <time>2022-09-17T13:16:30Z</time>
      </trkpt>
      <trkpt lat="42.64087" lon="1.69759">
        <ele>1791.836</ele>
        <time>2022-09-17T13:16:32Z</time>
      </trkpt>
      <trkpt lat="42.64086" lon="1.69761">
        <ele>1792.026</ele>
        <time>2022-09-17T13:16:34Z</time>
      </trkpt>
      <trkpt lat="42.64086" lon="1.69762">
        <ele>1790.783</ele>
        <time>2022-09-17T13:16:36Z</time>
      </trkpt>
      <trkpt lat="42.64088" lon="1.69764">
        <ele>1789.562</ele>
        <time>2022-09-17T13:16:38Z</time>
      </trkpt>
      <trkpt lat="42.64089" lon="1.69766">
        <ele>1788.944</ele>
        <time>2022-09-17T13:16:40Z</time>
      </trkpt>
      <trkpt lat="42.6409" lon="1.69767">
        <ele>1787.61</ele>
        <time>2022-09-17T13:16:42Z</time>
      </trkpt>
      <trkpt lat="42.64091" lon="1.69769">
        <ele>1787.4</ele>
        <time>2022-09-17T13:16:44Z</time>
      </trkpt>
      <trkpt lat="42.64091" lon="1.69771">
        <ele>1787.18</ele>
        <time>2022-09-17T13:16:46Z</time>
      </trkpt>
      <trkpt lat="42.64093" lon="1.69773">
        <ele>1787.567</ele>
        <time>2022-09-17T13:16:48Z</time>
      </trkpt>
      <trkpt lat="42.64093" lon="1.69776">
        <ele>1786.768</ele>
        <time>2022-09-17T13:16:50Z</time>
      </trkpt>
      <trkpt lat="42.64094" lon="1.69778">
        <ele>1786.432</ele>
        <time>2022-09-17T13:16:52Z</time>
      </trkpt>
      <trkpt lat="42.64094" lon="1.6978">
        <ele>1784.89</ele>
        <time>2022-09-17T13:16:54Z</time>
      </trkpt>
      <trkpt lat="42.64094" lon="1.69783">
        <ele>1784.202</ele>
        <time>2022-09-17T13:16:56Z</time>
      </trkpt>
      <trkpt lat="42.64096" lon="1.69784">
        <ele>1783.344</ele>
        <time>2022-09-17T13:16:58Z</time>
      </trkpt>
      <trkpt lat="42.64098" lon="1.69785">
        <ele>1782.161</ele>
        <time>2022-09-17T13:17:00Z</time>
      </trkpt>
      <trkpt lat="42.641" lon="1.69786">
        <ele>1781.827</ele>
        <time>2022-09-17T13:17:02Z</time>
      </trkpt>
      <trkpt lat="42.64101" lon="1.69787">
        <ele>1780.682</ele>
        <time>2022-09-17T13:17:04Z</time>
      </trkpt>
      <trkpt lat="42.64103" lon="1.69788">
        <ele>1779.606</ele>
        <time>2022-09-17T13:17:06Z</time>
      </trkpt>
      <trkpt lat="42.64104" lon="1.6979">
        <ele>1778.981</ele>
        <time>2022-09-17T13:17:08Z</time>
      </trkpt>
      <trkpt lat="42.64106" lon="1.69791">
        <ele>1777.803</ele>
        <time>2022-09-17T13:17:10Z</time>
      </trkpt>
      <trkpt lat="42.64108" lon="1.69792">
        <ele>1777.047</ele>
        <time>2022-09-17T13:17:12Z</time>
      </trkpt>
      <trkpt lat="42.6411" lon="1.69793">
        <ele>1776.872</ele>
        <time>2022-09-17T13:17:14Z</time>
      </trkpt>
      <trkpt lat="42.64111" lon="1.69794">
        <ele>1776.188</ele>
        <time>2022-09-17T13:17:16Z</time>
      </trkpt>
      <trkpt lat="42.64113" lon="1.69796">
        <ele>1775.64</ele>
        <time>2022-09-17T13:17:18Z</time>
      </trkpt>
      <trkpt lat="42.64114" lon="1.69797">
        <ele>1774.701</ele>
        <time>2022-09-17T13:17:20Z</time>
      </trkpt>
      <trkpt lat="42.64116" lon="1.69798">
        <ele>1773.792</ele>
        <time>2022-09-17T13:17:22Z</time>
      </trkpt>
      <trkpt lat="42.64117" lon="1.698">
        <ele>1773.546</ele>
        <time>2022-09-17T13:17:24Z</time>
      </trkpt>
      <trkpt lat="42.64119" lon="1.69802">
        <ele>1773.133</ele>
        <time>2022-09-17T13:17:26Z</time>
      </trkpt>
      <trkpt lat="42.64121" lon="1.69803">
        <ele>1772.724</ele>
        <time>2022-09-17T13:17:28Z</time>
      </trkpt>
      <trkpt lat="42.64123" lon="1.69804">
        <ele>1771.739</ele>
        <time>2022-09-17T13:17:30Z</time>
      </trkpt>
      <trkpt lat="42.64125" lon="1.69806">
        <ele>1771.904</ele>
        <time>2022-09-17T13:17:32Z</time>
      </trkpt>
      <trkpt lat="42.64125" lon="1.69808">
        <ele>1771.313</ele>
        <time>2022-09-17T13:17:34Z</time>
      </trkpt>
      <trkpt lat="42.64126" lon="1.69811">
        <ele>1770.867</ele>
        <time>2022-09-17T13:17:36Z</time>
      </trkpt>
      <trkpt lat="42.64128" lon="1.69812">
        <ele>1770.464</ele>
        <time>2022-09-17T13:17:38Z</time>
      </trkpt>
      <trkpt lat="42.6413" lon="1.69813">
        <ele>1769.595</ele>
        <time>2022-09-17T13:17:40Z</time>
      </trkpt>
      <trkpt lat="42.64132" lon="1.69814">
        <ele>1769.279</ele>
        <time>2022-09-17T13:17:42Z</time>
      </trkpt>
      <trkpt lat="42.64133" lon="1.69815">
        <ele>1768.725</ele>
        <time>2022-09-17T13:17:44Z</time>
      </trkpt>
      <trkpt lat="42.64135" lon="1.69817">
        <ele>1768.026</ele>
        <time>2022-09-17T13:17:46Z</time>
      </trkpt>
      <trkpt lat="42.64137" lon="1.69818">
        <ele>1766.932</ele>
        <time>2022-09-17T13:17:48Z</time>
      </trkpt>
      <trkpt lat="42.6414" lon="1.69819">
        <ele>1766.599</ele>
        <time>2022-09-17T13:17:50Z</time>
      </trkpt>
      <trkpt lat="42.64142" lon="1.69821">
        <ele>1766.234</ele>
        <time>2022-09-17T13:17:52Z</time>
      </trkpt>
      <trkpt lat="42.64144" lon="1.69822">
        <ele>1766.217</ele>
        <time>2022-09-17T13:17:54Z</time>
      </trkpt>
      <trkpt lat="42.64146" lon="1.69823">
        <ele>1766.01</ele>
        <time>2022-09-17T13:17:56Z</time>
      </trkpt>
      <trkpt lat="42.64148" lon="1.69824">
        <ele>1766.419</ele>
        <time>2022-09-17T13:17:58Z</time>
      </trkpt>
      <trkpt lat="42.64149" lon="1.69825">
        <ele>1766.176</ele>
        <time>2022-09-17T13:18:00Z</time>
      </trkpt>
      <trkpt lat="42.64151" lon="1.69827">
        <ele>1765.74</ele>
        <time>2022-09-17T13:18:02Z</time>
      </trkpt>
      <trkpt lat="42.64152" lon="1.69829">
        <ele>1765.765</ele>
        <time>2022-09-17T13:18:04Z</time>
      </trkpt>
      <trkpt lat="42.64153" lon="1.6983">
        <ele>1765.525</ele>
        <time>2022-09-17T13:18:06Z</time>
      </trkpt>
      <trkpt lat="42.64154" lon="1.69831">
        <ele>1765.405</ele>
        <time>2022-09-17T13:18:08Z</time>
      </trkpt>
      <trkpt lat="42.64155" lon="1.69833">
        <ele>1764.809</ele>
        <time>2022-09-17T13:18:10Z</time>
      </trkpt>
      <trkpt lat="42.64157" lon="1.69834">
        <ele>1764.149</ele>
        <time>2022-09-17T13:18:12Z</time>
      </trkpt>
      <trkpt lat="42.64159" lon="1.69835">
        <ele>1762.9</ele>
        <time>2022-09-17T13:18:14Z</time>
      </trkpt>
      <trkpt lat="42.6416" lon="1.69837">
        <ele>1762.241</ele>
        <time>2022-09-17T13:18:16Z</time>
      </trkpt>
      <trkpt lat="42.64161" lon="1.69839">
        <ele>1761.691</ele>
        <time>2022-09-17T13:18:18Z</time>
      </trkpt>
      <trkpt lat="42.64163" lon="1.6984">
        <ele>1761.436</ele>
        <time>2022-09-17T13:18:20Z</time>
      </trkpt>
      <trkpt lat="42.64164" lon="1.69841">
        <ele>1760.872</ele>
        <time>2022-09-17T13:18:22Z</time>
      </trkpt>
      <trkpt lat="42.64166" lon="1.69843">
        <ele>1759.458</ele>
        <time>2022-09-17T13:18:24Z</time>
      </trkpt>
      <trkpt lat="42.64168" lon="1.69843">
        <ele>1758.617</ele>
        <time>2022-09-17T13:18:26Z</time>
      </trkpt>
      <trkpt lat="42.64169" lon="1.69844">
        <ele>1758.759</ele>
        <time>2022-09-17T13:18:28Z</time>
      </trkpt>
      <trkpt lat="42.64171" lon="1.69846">
        <ele>1758.618</ele>
        <time>2022-09-17T13:18:30Z</time>
      </trkpt>
      <trkpt lat="42.64173" lon="1.69846">
        <ele>1758.81</ele>
        <time>2022-09-17T13:18:32Z</time>
      </trkpt>
      <trkpt lat="42.64174" lon="1.69848">
        <ele>1759.253</ele>
        <time>2022-09-17T13:18:34Z</time>
      </trkpt>
      <trkpt lat="42.64174" lon="1.69851">
        <ele>1760.239</ele>
        <time>2022-09-17T13:18:36Z</time>
      </trkpt>
      <trkpt lat="42.64174" lon="1.69853">
        <ele>1760.44</ele>
        <time>2022-09-17T13:18:38Z</time>
      </trkpt>
      <trkpt lat="42.64176" lon="1.69853">
        <ele>1760.353</ele>
        <time>2022-09-17T13:18:40Z</time>
      </trkpt>
      <trkpt lat="42.64178" lon="1.69853">
        <ele>1760.016</ele>
        <time>2022-09-17T13:18:42Z</time>
      </trkpt>
      <trkpt lat="42.6418" lon="1.69854">
        <ele>1759.923</ele>
        <time>2022-09-17T13:18:44Z</time>
      </trkpt>
      <trkpt lat="42.64181" lon="1.69854">
        <ele>1759.481</ele>
        <time>2022-09-17T13:18:46Z</time>
      </trkpt>
      <trkpt lat="42.64183" lon="1.69855">
        <ele>1760.414</ele>
        <time>2022-09-17T13:18:48Z</time>
      </trkpt>
      <trkpt lat="42.64184" lon="1.69856">
        <ele>1759.443</ele>
        <time>2022-09-17T13:18:50Z</time>
      </trkpt>
      <trkpt lat="42.64185" lon="1.69857">
        <ele>1758.906</ele>
        <time>2022-09-17T13:18:52Z</time>
      </trkpt>
      <trkpt lat="42.64185" lon="1.69859">
        <ele>1758.612</ele>
        <time>2022-09-17T13:18:54Z</time>
      </trkpt>
      <trkpt lat="42.64186" lon="1.69861">
        <ele>1758.437</ele>
        <time>2022-09-17T13:18:56Z</time>
      </trkpt>
      <trkpt lat="42.64186" lon="1.69862">
        <ele>1757.939</ele>
        <time>2022-09-17T13:18:58Z</time>
      </trkpt>
      <trkpt lat="42.64187" lon="1.69864">
        <ele>1757.616</ele>
        <time>2022-09-17T13:19:00Z</time>
      </trkpt>
      <trkpt lat="42.64188" lon="1.69865">
        <ele>1757.116</ele>
        <time>2022-09-17T13:19:02Z</time>
      </trkpt>
      <trkpt lat="42.64189" lon="1.69866">
        <ele>1756.399</ele>
        <time>2022-09-17T13:19:04Z</time>
      </trkpt>
      <trkpt lat="42.64189" lon="1.69867">
        <ele>1755.757</ele>
        <time>2022-09-17T13:19:06Z</time>
      </trkpt>
      <trkpt lat="42.64189" lon="1.69869">
        <ele>1754.367</ele>
        <time>2022-09-17T13:19:08Z</time>
      </trkpt>
      <trkpt lat="42.64191" lon="1.6987">
        <ele>1752.55</ele>
        <time>2022-09-17T13:19:10Z</time>
      </trkpt>
      <trkpt lat="42.64193" lon="1.6987">
        <ele>1751.584</ele>
        <time>2022-09-17T13:19:12Z</time>
      </trkpt>
      <trkpt lat="42.64195" lon="1.69872">
        <ele>1751.201</ele>
        <time>2022-09-17T13:19:14Z</time>
      </trkpt>
      <trkpt lat="42.64197" lon="1.69873">
        <ele>1750.772</ele>
        <time>2022-09-17T13:19:16Z</time>
      </trkpt>
      <trkpt lat="42.64198" lon="1.69874">
        <ele>1751.017</ele>
        <time>2022-09-17T13:19:18Z</time>
      </trkpt>
      <trkpt lat="42.642" lon="1.69876">
        <ele>1749.23</ele>
        <time>2022-09-17T13:19:20Z</time>
      </trkpt>
      <trkpt lat="42.64202" lon="1.69878">
        <ele>1749.181</ele>
        <time>2022-09-17T13:19:22Z</time>
      </trkpt>
      <trkpt lat="42.64204" lon="1.6988">
        <ele>1748.699</ele>
        <time>2022-09-17T13:19:24Z</time>
      </trkpt>
      <trkpt lat="42.64206" lon="1.6988">
        <ele>1747.882</ele>
        <time>2022-09-17T13:19:26Z</time>
      </trkpt>
      <trkpt lat="42.64207" lon="1.69882">
        <ele>1747.556</ele>
        <time>2022-09-17T13:19:28Z</time>
      </trkpt>
      <trkpt lat="42.64209" lon="1.69884">
        <ele>1747.463</ele>
        <time>2022-09-17T13:19:30Z</time>
      </trkpt>
      <trkpt lat="42.64211" lon="1.69886">
        <ele>1746.82</ele>
        <time>2022-09-17T13:19:32Z</time>
      </trkpt>
      <trkpt lat="42.64212" lon="1.69887">
        <ele>1747.254</ele>
        <time>2022-09-17T13:19:34Z</time>
      </trkpt>
      <trkpt lat="42.64214" lon="1.69889">
        <ele>1746.505</ele>
        <time>2022-09-17T13:19:36Z</time>
      </trkpt>
      <trkpt lat="42.64215" lon="1.6989">
        <ele>1745.843</ele>
        <time>2022-09-17T13:19:38Z</time>
      </trkpt>
      <trkpt lat="42.64218" lon="1.69891">
        <ele>1745.463</ele>
        <time>2022-09-17T13:19:40Z</time>
      </trkpt>
      <trkpt lat="42.6422" lon="1.69891">
        <ele>1744.779</ele>
        <time>2022-09-17T13:19:42Z</time>
      </trkpt>
      <trkpt lat="42.64222" lon="1.69892">
        <ele>1744.525</ele>
        <time>2022-09-17T13:19:44Z</time>
      </trkpt>
      <trkpt lat="42.64224" lon="1.69893">
        <ele>1744.601</ele>
        <time>2022-09-17T13:19:46Z</time>
      </trkpt>
      <trkpt lat="42.64226" lon="1.69894">
        <ele>1744.62</ele>
        <time>2022-09-17T13:19:48Z</time>
      </trkpt>
      <trkpt lat="42.64228" lon="1.69895">
        <ele>1743.08</ele>
        <time>2022-09-17T13:19:50Z</time>
      </trkpt>
      <trkpt lat="42.64229" lon="1.69896">
        <ele>1743.072</ele>
        <time>2022-09-17T13:19:52Z</time>
      </trkpt>
      <trkpt lat="42.6423" lon="1.69898">
        <ele>1743.12</ele>
        <time>2022-09-17T13:19:54Z</time>
      </trkpt>
      <trkpt lat="42.64231" lon="1.699">
        <ele>1743.558</ele>
        <time>2022-09-17T13:19:56Z</time>
      </trkpt>
      <trkpt lat="42.64232" lon="1.69902">
        <ele>1744.129</ele>
        <time>2022-09-17T13:19:58Z</time>
      </trkpt>
      <trkpt lat="42.64233" lon="1.69904">
        <ele>1742.948</ele>
        <time>2022-09-17T13:20:00Z</time>
      </trkpt>
      <trkpt lat="42.64234" lon="1.69906">
        <ele>1743.299</ele>
        <time>2022-09-17T13:20:02Z</time>
      </trkpt>
      <trkpt lat="42.64235" lon="1.69908">
        <ele>1743.248</ele>
        <time>2022-09-17T13:20:04Z</time>
      </trkpt>
      <trkpt lat="42.64237" lon="1.69909">
        <ele>1742.096</ele>
        <time>2022-09-17T13:20:06Z</time>
      </trkpt>
      <trkpt lat="42.64239" lon="1.6991">
        <ele>1741.511</ele>
        <time>2022-09-17T13:20:08Z</time>
      </trkpt>
      <trkpt lat="42.64241" lon="1.69911">
        <ele>1741.243</ele>
        <time>2022-09-17T13:20:10Z</time>
      </trkpt>
      <trkpt lat="42.64243" lon="1.69912">
        <ele>1740.108</ele>
        <time>2022-09-17T13:20:12Z</time>
      </trkpt>
      <trkpt lat="42.64245" lon="1.69912">
        <ele>1739.56</ele>
        <time>2022-09-17T13:20:14Z</time>
      </trkpt>
      <trkpt lat="42.64247" lon="1.69912">
        <ele>1738.784</ele>
        <time>2022-09-17T13:20:16Z</time>
      </trkpt>
      <trkpt lat="42.64249" lon="1.69913">
        <ele>1738.219</ele>
        <time>2022-09-17T13:20:18Z</time>
      </trkpt>
      <trkpt lat="42.64251" lon="1.69913">
        <ele>1738.006</ele>
        <time>2022-09-17T13:20:20Z</time>
      </trkpt>
      <trkpt lat="42.64253" lon="1.69915">
        <ele>1737.088</ele>
        <time>2022-09-17T13:20:22Z</time>
      </trkpt>
      <trkpt lat="42.64253" lon="1.69916">
        <ele>1738.274</ele>
        <time>2022-09-17T13:20:24Z</time>
      </trkpt>
      <trkpt lat="42.64253" lon="1.69916">
        <ele>1737.784</ele>
        <time>2022-09-17T13:20:26Z</time>
      </trkpt>
      <trkpt lat="42.64255" lon="1.69917">
        <ele>1736.588</ele>
        <time>2022-09-17T13:20:28Z</time>
      </trkpt>
      <trkpt lat="42.64256" lon="1.6992">
        <ele>1736.808</ele>
        <time>2022-09-17T13:20:30Z</time>
      </trkpt>
      <trkpt lat="42.64258" lon="1.69921">
        <ele>1737.222</ele>
        <time>2022-09-17T13:20:32Z</time>
      </trkpt>
      <trkpt lat="42.64258" lon="1.6992">
        <ele>1737.184</ele>
        <time>2022-09-17T13:20:34Z</time>
      </trkpt>
      <trkpt lat="42.64258" lon="1.6992">
        <ele>1737.179</ele>
        <time>2022-09-17T13:20:36Z</time>
      </trkpt>
      <trkpt lat="42.64258" lon="1.6992">
        <ele>1737.183</ele>
        <time>2022-09-17T13:20:38Z</time>
      </trkpt>
      <trkpt lat="42.64258" lon="1.69921">
        <ele>1736.607</ele>
        <time>2022-09-17T13:20:40Z</time>
      </trkpt>
      <trkpt lat="42.6426" lon="1.69918">
        <ele>1734.878</ele>
        <time>2022-09-17T13:20:42Z</time>
      </trkpt>
      <trkpt lat="42.64262" lon="1.69918">
        <ele>1734.148</ele>
        <time>2022-09-17T13:20:44Z</time>
      </trkpt>
      <trkpt lat="42.64263" lon="1.69919">
        <ele>1733.488</ele>
        <time>2022-09-17T13:20:46Z</time>
      </trkpt>
      <trkpt lat="42.64265" lon="1.69919">
        <ele>1733.962</ele>
        <time>2022-09-17T13:20:48Z</time>
      </trkpt>
      <trkpt lat="42.64267" lon="1.6992">
        <ele>1732.652</ele>
        <time>2022-09-17T13:20:50Z</time>
      </trkpt>
      <trkpt lat="42.64269" lon="1.6992">
        <ele>1731.661</ele>
        <time>2022-09-17T13:20:52Z</time>
      </trkpt>
      <trkpt lat="42.6427" lon="1.69921">
        <ele>1731.91</ele>
        <time>2022-09-17T13:20:54Z</time>
      </trkpt>
      <trkpt lat="42.64272" lon="1.69921">
        <ele>1730.626</ele>
        <time>2022-09-17T13:20:56Z</time>
      </trkpt>
      <trkpt lat="42.64274" lon="1.69922">
        <ele>1729.686</ele>
        <time>2022-09-17T13:20:58Z</time>
      </trkpt>
      <trkpt lat="42.64275" lon="1.69924">
        <ele>1729.398</ele>
        <time>2022-09-17T13:21:00Z</time>
      </trkpt>
      <trkpt lat="42.64277" lon="1.69924">
        <ele>1728.884</ele>
        <time>2022-09-17T13:21:02Z</time>
      </trkpt>
      <trkpt lat="42.64279" lon="1.69925">
        <ele>1728.946</ele>
        <time>2022-09-17T13:21:04Z</time>
      </trkpt>
      <trkpt lat="42.6428" lon="1.69925">
        <ele>1729.704</ele>
        <time>2022-09-17T13:21:06Z</time>
      </trkpt>
      <trkpt lat="42.64282" lon="1.69927">
        <ele>1729.558</ele>
        <time>2022-09-17T13:21:08Z</time>
      </trkpt>
      <trkpt lat="42.64284" lon="1.69928">
        <ele>1729.707</ele>
        <time>2022-09-17T13:21:10Z</time>
      </trkpt>
      <trkpt lat="42.64285" lon="1.69928">
        <ele>1728.924</ele>
        <time>2022-09-17T13:21:12Z</time>
      </trkpt>
      <trkpt lat="42.64287" lon="1.69928">
        <ele>1729.049</ele>
        <time>2022-09-17T13:21:14Z</time>
      </trkpt>
      <trkpt lat="42.64288" lon="1.69929">
        <ele>1728.94</ele>
        <time>2022-09-17T13:21:16Z</time>
      </trkpt>
      <trkpt lat="42.64289" lon="1.69931">
        <ele>1729.264</ele>
        <time>2022-09-17T13:21:18Z</time>
      </trkpt>
      <trkpt lat="42.6429" lon="1.69932">
        <ele>1729.045</ele>
        <time>2022-09-17T13:21:20Z</time>
      </trkpt>
      <trkpt lat="42.64292" lon="1.69933">
        <ele>1728.663</ele>
        <time>2022-09-17T13:21:22Z</time>
      </trkpt>
      <trkpt lat="42.64293" lon="1.69934">
        <ele>1728.497</ele>
        <time>2022-09-17T13:21:24Z</time>
      </trkpt>
      <trkpt lat="42.64293" lon="1.69935">
        <ele>1728.014</ele>
        <time>2022-09-17T13:21:26Z</time>
      </trkpt>
      <trkpt lat="42.64295" lon="1.69936">
        <ele>1727.142</ele>
        <time>2022-09-17T13:21:28Z</time>
      </trkpt>
      <trkpt lat="42.64296" lon="1.69936">
        <ele>1727.652</ele>
        <time>2022-09-17T13:21:30Z</time>
      </trkpt>
      <trkpt lat="42.64298" lon="1.69937">
        <ele>1728.238</ele>
        <time>2022-09-17T13:21:32Z</time>
      </trkpt>
      <trkpt lat="42.64299" lon="1.69939">
        <ele>1729.336</ele>
        <time>2022-09-17T13:21:34Z</time>
      </trkpt>
      <trkpt lat="42.64301" lon="1.69939">
        <ele>1728.942</ele>
        <time>2022-09-17T13:21:36Z</time>
      </trkpt>
      <trkpt lat="42.64302" lon="1.6994">
        <ele>1728.922</ele>
        <time>2022-09-17T13:21:38Z</time>
      </trkpt>
      <trkpt lat="42.64304" lon="1.69941">
        <ele>1728.449</ele>
        <time>2022-09-17T13:21:40Z</time>
      </trkpt>
      <trkpt lat="42.64306" lon="1.69943">
        <ele>1728.614</ele>
        <time>2022-09-17T13:21:42Z</time>
      </trkpt>
      <trkpt lat="42.64308" lon="1.69945">
        <ele>1728.008</ele>
        <time>2022-09-17T13:21:44Z</time>
      </trkpt>
      <trkpt lat="42.6431" lon="1.69946">
        <ele>1726.835</ele>
        <time>2022-09-17T13:21:46Z</time>
      </trkpt>
      <trkpt lat="42.64313" lon="1.69947">
        <ele>1725.815</ele>
        <time>2022-09-17T13:21:48Z</time>
      </trkpt>
      <trkpt lat="42.64315" lon="1.69948">
        <ele>1725.079</ele>
        <time>2022-09-17T13:21:50Z</time>
      </trkpt>
      <trkpt lat="42.64317" lon="1.69949">
        <ele>1725.203</ele>
        <time>2022-09-17T13:21:52Z</time>
      </trkpt>
      <trkpt lat="42.64319" lon="1.6995">
        <ele>1724.97</ele>
        <time>2022-09-17T13:21:54Z</time>
      </trkpt>
      <trkpt lat="42.64321" lon="1.69952">
        <ele>1726.14</ele>
        <time>2022-09-17T13:21:56Z</time>
      </trkpt>
      <trkpt lat="42.64323" lon="1.69953">
        <ele>1725.121</ele>
        <time>2022-09-17T13:21:58Z</time>
      </trkpt>
      <trkpt lat="42.64325" lon="1.69954">
        <ele>1725.929</ele>
        <time>2022-09-17T13:22:00Z</time>
      </trkpt>
      <trkpt lat="42.64327" lon="1.69955">
        <ele>1726.527</ele>
        <time>2022-09-17T13:22:02Z</time>
      </trkpt>
      <trkpt lat="42.64329" lon="1.69956">
        <ele>1726.65</ele>
        <time>2022-09-17T13:22:04Z</time>
      </trkpt>
      <trkpt lat="42.64331" lon="1.69957">
        <ele>1726.142</ele>
        <time>2022-09-17T13:22:06Z</time>
      </trkpt>
      <trkpt lat="42.64333" lon="1.69959">
        <ele>1725.911</ele>
        <time>2022-09-17T13:22:08Z</time>
      </trkpt>
      <trkpt lat="42.64335" lon="1.6996">
        <ele>1725.884</ele>
        <time>2022-09-17T13:22:10Z</time>
      </trkpt>
      <trkpt lat="42.64337" lon="1.69962">
        <ele>1726.571</ele>
        <time>2022-09-17T13:22:12Z</time>
      </trkpt>
      <trkpt lat="42.64339" lon="1.69963">
        <ele>1726.041</ele>
        <time>2022-09-17T13:22:14Z</time>
      </trkpt>
      <trkpt lat="42.64342" lon="1.69964">
        <ele>1725.861</ele>
        <time>2022-09-17T13:22:16Z</time>
      </trkpt>
      <trkpt lat="42.64344" lon="1.69966">
        <ele>1725.76</ele>
        <time>2022-09-17T13:22:18Z</time>
      </trkpt>
      <trkpt lat="42.64346" lon="1.69967">
        <ele>1725.655</ele>
        <time>2022-09-17T13:22:20Z</time>
      </trkpt>
      <trkpt lat="42.64348" lon="1.69968">
        <ele>1725.827</ele>
        <time>2022-09-17T13:22:22Z</time>
      </trkpt>
      <trkpt lat="42.6435" lon="1.69969">
        <ele>1725.663</ele>
        <time>2022-09-17T13:22:24Z</time>
      </trkpt>
      <trkpt lat="42.64352" lon="1.69971">
        <ele>1725.245</ele>
        <time>2022-09-17T13:22:26Z</time>
      </trkpt>
      <trkpt lat="42.64354" lon="1.69972">
        <ele>1725.335</ele>
        <time>2022-09-17T13:22:28Z</time>
      </trkpt>
      <trkpt lat="42.64355" lon="1.69972">
        <ele>1724.839</ele>
        <time>2022-09-17T13:22:30Z</time>
      </trkpt>
      <trkpt lat="42.64357" lon="1.69973">
        <ele>1723.914</ele>
        <time>2022-09-17T13:22:32Z</time>
      </trkpt>
      <trkpt lat="42.64359" lon="1.69973">
        <ele>1722.746</ele>
        <time>2022-09-17T13:22:34Z</time>
      </trkpt>
      <trkpt lat="42.64361" lon="1.69973">
        <ele>1722.903</ele>
        <time>2022-09-17T13:22:36Z</time>
      </trkpt>
      <trkpt lat="42.64363" lon="1.69974">
        <ele>1722.515</ele>
        <time>2022-09-17T13:22:38Z</time>
      </trkpt>
      <trkpt lat="42.64364" lon="1.69975">
        <ele>1722.005</ele>
        <time>2022-09-17T13:22:40Z</time>
      </trkpt>
      <trkpt lat="42.64366" lon="1.69976">
        <ele>1722.024</ele>
        <time>2022-09-17T13:22:42Z</time>
      </trkpt>
      <trkpt lat="42.64367" lon="1.69975">
        <ele>1721.167</ele>
        <time>2022-09-17T13:22:44Z</time>
      </trkpt>
      <trkpt lat="42.64369" lon="1.69974">
        <ele>1721.178</ele>
        <time>2022-09-17T13:22:46Z</time>
      </trkpt>
      <trkpt lat="42.64371" lon="1.69975">
        <ele>1720.82</ele>
        <time>2022-09-17T13:22:48Z</time>
      </trkpt>
      <trkpt lat="42.64373" lon="1.69974">
        <ele>1718.915</ele>
        <time>2022-09-17T13:22:50Z</time>
      </trkpt>
      <trkpt lat="42.64375" lon="1.69974">
        <ele>1716.63</ele>
        <time>2022-09-17T13:22:52Z</time>
      </trkpt>
      <trkpt lat="42.64376" lon="1.69973">
        <ele>1715.489</ele>
        <time>2022-09-17T13:22:54Z</time>
      </trkpt>
      <trkpt lat="42.64378" lon="1.69972">
        <ele>1716.18</ele>
        <time>2022-09-17T13:22:56Z</time>
      </trkpt>
      <trkpt lat="42.6438" lon="1.69973">
        <ele>1715.688</ele>
        <time>2022-09-17T13:22:58Z</time>
      </trkpt>
      <trkpt lat="42.64382" lon="1.69975">
        <ele>1715.633</ele>
        <time>2022-09-17T13:23:00Z</time>
      </trkpt>
      <trkpt lat="42.64383" lon="1.69976">
        <ele>1716.35</ele>
        <time>2022-09-17T13:23:02Z</time>
      </trkpt>
      <trkpt lat="42.64384" lon="1.69977">
        <ele>1717.02</ele>
        <time>2022-09-17T13:23:04Z</time>
      </trkpt>
      <trkpt lat="42.64385" lon="1.69979">
        <ele>1716.489</ele>
        <time>2022-09-17T13:23:06Z</time>
      </trkpt>
      <trkpt lat="42.64387" lon="1.69981">
        <ele>1715.643</ele>
        <time>2022-09-17T13:23:08Z</time>
      </trkpt>
      <trkpt lat="42.64389" lon="1.69983">
        <ele>1715.202</ele>
        <time>2022-09-17T13:23:10Z</time>
      </trkpt>
      <trkpt lat="42.6439" lon="1.69985">
        <ele>1714.164</ele>
        <time>2022-09-17T13:23:12Z</time>
      </trkpt>
      <trkpt lat="42.64391" lon="1.69986">
        <ele>1713.915</ele>
        <time>2022-09-17T13:23:14Z</time>
      </trkpt>
      <trkpt lat="42.64392" lon="1.69988">
        <ele>1713.485</ele>
        <time>2022-09-17T13:23:16Z</time>
      </trkpt>
      <trkpt lat="42.64394" lon="1.6999">
        <ele>1712.09</ele>
        <time>2022-09-17T13:23:18Z</time>
      </trkpt>
      <trkpt lat="42.64396" lon="1.69991">
        <ele>1712.503</ele>
        <time>2022-09-17T13:23:20Z</time>
      </trkpt>
      <trkpt lat="42.64398" lon="1.69992">
        <ele>1711.916</ele>
        <time>2022-09-17T13:23:22Z</time>
      </trkpt>
      <trkpt lat="42.644" lon="1.69993">
        <ele>1710.435</ele>
        <time>2022-09-17T13:23:24Z</time>
      </trkpt>
      <trkpt lat="42.64402" lon="1.69993">
        <ele>1710.417</ele>
        <time>2022-09-17T13:23:26Z</time>
      </trkpt>
      <trkpt lat="42.64404" lon="1.69994">
        <ele>1709.474</ele>
        <time>2022-09-17T13:23:28Z</time>
      </trkpt>
      <trkpt lat="42.64405" lon="1.69996">
        <ele>1709.158</ele>
        <time>2022-09-17T13:23:30Z</time>
      </trkpt>
      <trkpt lat="42.64407" lon="1.69998">
        <ele>1710.456</ele>
        <time>2022-09-17T13:23:32Z</time>
      </trkpt>
      <trkpt lat="42.64408" lon="1.7">
        <ele>1710.886</ele>
        <time>2022-09-17T13:23:34Z</time>
      </trkpt>
      <trkpt lat="42.64411" lon="1.7">
        <ele>1710.464</ele>
        <time>2022-09-17T13:23:36Z</time>
      </trkpt>
      <trkpt lat="42.64412" lon="1.7">
        <ele>1710.462</ele>
        <time>2022-09-17T13:23:38Z</time>
      </trkpt>
      <trkpt lat="42.64414" lon="1.70002">
        <ele>1710.447</ele>
        <time>2022-09-17T13:23:40Z</time>
      </trkpt>
      <trkpt lat="42.64416" lon="1.70004">
        <ele>1709.791</ele>
        <time>2022-09-17T13:23:42Z</time>
      </trkpt>
      <trkpt lat="42.64418" lon="1.70005">
        <ele>1709.198</ele>
        <time>2022-09-17T13:23:44Z</time>
      </trkpt>
      <trkpt lat="42.6442" lon="1.70007">
        <ele>1709.129</ele>
        <time>2022-09-17T13:23:46Z</time>
      </trkpt>
      <trkpt lat="42.64422" lon="1.70009">
        <ele>1708.814</ele>
        <time>2022-09-17T13:23:48Z</time>
      </trkpt>
      <trkpt lat="42.64425" lon="1.7001">
        <ele>1708.892</ele>
        <time>2022-09-17T13:23:50Z</time>
      </trkpt>
      <trkpt lat="42.64427" lon="1.70012">
        <ele>1708.294</ele>
        <time>2022-09-17T13:23:52Z</time>
      </trkpt>
      <trkpt lat="42.64428" lon="1.70013">
        <ele>1707.347</ele>
        <time>2022-09-17T13:23:54Z</time>
      </trkpt>
      <trkpt lat="42.6443" lon="1.70015">
        <ele>1706.843</ele>
        <time>2022-09-17T13:23:56Z</time>
      </trkpt>
      <trkpt lat="42.64432" lon="1.70016">
        <ele>1706.793</ele>
        <time>2022-09-17T13:23:58Z</time>
      </trkpt>
      <trkpt lat="42.64435" lon="1.70018">
        <ele>1706.055</ele>
        <time>2022-09-17T13:24:00Z</time>
      </trkpt>
      <trkpt lat="42.64436" lon="1.70019">
        <ele>1705.297</ele>
        <time>2022-09-17T13:24:02Z</time>
      </trkpt>
      <trkpt lat="42.64438" lon="1.70022">
        <ele>1705.135</ele>
        <time>2022-09-17T13:24:04Z</time>
      </trkpt>
      <trkpt lat="42.6444" lon="1.70023">
        <ele>1704.137</ele>
        <time>2022-09-17T13:24:06Z</time>
      </trkpt>
      <trkpt lat="42.64442" lon="1.70025">
        <ele>1703.871</ele>
        <time>2022-09-17T13:24:08Z</time>
      </trkpt>
      <trkpt lat="42.64444" lon="1.70027">
        <ele>1703.889</ele>
        <time>2022-09-17T13:24:10Z</time>
      </trkpt>
      <trkpt lat="42.64446" lon="1.70029">
        <ele>1702.32</ele>
        <time>2022-09-17T13:24:12Z</time>
      </trkpt>
      <trkpt lat="42.64448" lon="1.7003">
        <ele>1700.54</ele>
        <time>2022-09-17T13:24:14Z</time>
      </trkpt>
      <trkpt lat="42.64449" lon="1.70033">
        <ele>1700.02</ele>
        <time>2022-09-17T13:24:16Z</time>
      </trkpt>
      <trkpt lat="42.64451" lon="1.70036">
        <ele>1699.635</ele>
        <time>2022-09-17T13:24:18Z</time>
      </trkpt>
      <trkpt lat="42.64452" lon="1.70038">
        <ele>1700.082</ele>
        <time>2022-09-17T13:24:20Z</time>
      </trkpt>
      <trkpt lat="42.64454" lon="1.7004">
        <ele>1699.014</ele>
        <time>2022-09-17T13:24:22Z</time>
      </trkpt>
      <trkpt lat="42.64455" lon="1.70042">
        <ele>1697.939</ele>
        <time>2022-09-17T13:24:24Z</time>
      </trkpt>
      <trkpt lat="42.64457" lon="1.70044">
        <ele>1697.58</ele>
        <time>2022-09-17T13:24:26Z</time>
      </trkpt>
      <trkpt lat="42.6446" lon="1.70047">
        <ele>1697.647</ele>
        <time>2022-09-17T13:24:28Z</time>
      </trkpt>
      <trkpt lat="42.64462" lon="1.70049">
        <ele>1698.384</ele>
        <time>2022-09-17T13:24:30Z</time>
      </trkpt>
      <trkpt lat="42.64463" lon="1.7005">
        <ele>1698.248</ele>
        <time>2022-09-17T13:24:32Z</time>
      </trkpt>
      <trkpt lat="42.64465" lon="1.70052">
        <ele>1699.22</ele>
        <time>2022-09-17T13:24:34Z</time>
      </trkpt>
      <trkpt lat="42.64467" lon="1.70052">
        <ele>1699.828</ele>
        <time>2022-09-17T13:24:36Z</time>
      </trkpt>
      <trkpt lat="42.64469" lon="1.70053">
        <ele>1699.987</ele>
        <time>2022-09-17T13:24:38Z</time>
      </trkpt>
      <trkpt lat="42.64471" lon="1.70053">
        <ele>1701.603</ele>
        <time>2022-09-17T13:24:40Z</time>
      </trkpt>
      <trkpt lat="42.64473" lon="1.70052">
        <ele>1702.2</ele>
        <time>2022-09-17T13:24:42Z</time>
      </trkpt>
      <trkpt lat="42.64475" lon="1.70052">
        <ele>1702.799</ele>
        <time>2022-09-17T13:24:44Z</time>
      </trkpt>
      <trkpt lat="42.64477" lon="1.70052">
        <ele>1702.581</ele>
        <time>2022-09-17T13:24:46Z</time>
      </trkpt>
      <trkpt lat="42.6448" lon="1.70052">
        <ele>1703.389</ele>
        <time>2022-09-17T13:24:48Z</time>
      </trkpt>
      <trkpt lat="42.64482" lon="1.70051">
        <ele>1703.531</ele>
        <time>2022-09-17T13:24:50Z</time>
      </trkpt>
      <trkpt lat="42.64483" lon="1.7005">
        <ele>1702.092</ele>
        <time>2022-09-17T13:24:52Z</time>
      </trkpt>
      <trkpt lat="42.64485" lon="1.70049">
        <ele>1701.464</ele>
        <time>2022-09-17T13:24:54Z</time>
      </trkpt>
      <trkpt lat="42.64487" lon="1.70048">
        <ele>1701.899</ele>
        <time>2022-09-17T13:24:56Z</time>
      </trkpt>
      <trkpt lat="42.64489" lon="1.70047">
        <ele>1702.064</ele>
        <time>2022-09-17T13:24:58Z</time>
      </trkpt>
      <trkpt lat="42.64491" lon="1.70047">
        <ele>1702.802</ele>
        <time>2022-09-17T13:25:00Z</time>
      </trkpt>
      <trkpt lat="42.64492" lon="1.70046">
        <ele>1704.831</ele>
        <time>2022-09-17T13:25:02Z</time>
      </trkpt>
      <trkpt lat="42.64493" lon="1.70044">
        <ele>1705.32</ele>
        <time>2022-09-17T13:25:04Z</time>
      </trkpt>
      <trkpt lat="42.64495" lon="1.70042">
        <ele>1703.497</ele>
        <time>2022-09-17T13:25:06Z</time>
      </trkpt>
      <trkpt lat="42.64497" lon="1.7004">
        <ele>1704.698</ele>
        <time>2022-09-17T13:25:08Z</time>
      </trkpt>
      <trkpt lat="42.64498" lon="1.7004">
        <ele>1704.383</ele>
        <time>2022-09-17T13:25:10Z</time>
      </trkpt>
      <trkpt lat="42.645" lon="1.7004">
        <ele>1703.513</ele>
        <time>2022-09-17T13:25:12Z</time>
      </trkpt>
      <trkpt lat="42.64503" lon="1.70041">
        <ele>1702.563</ele>
        <time>2022-09-17T13:25:14Z</time>
      </trkpt>
      <trkpt lat="42.64505" lon="1.70042">
        <ele>1702.42</ele>
        <time>2022-09-17T13:25:16Z</time>
      </trkpt>
      <trkpt lat="42.64507" lon="1.70043">
        <ele>1701.968</ele>
        <time>2022-09-17T13:25:18Z</time>
      </trkpt>
      <trkpt lat="42.64509" lon="1.70043">
        <ele>1701.61</ele>
        <time>2022-09-17T13:25:20Z</time>
      </trkpt>
      <trkpt lat="42.64512" lon="1.70045">
        <ele>1700.296</ele>
        <time>2022-09-17T13:25:22Z</time>
      </trkpt>
      <trkpt lat="42.64514" lon="1.70045">
        <ele>1699.716</ele>
        <time>2022-09-17T13:25:24Z</time>
      </trkpt>
      <trkpt lat="42.64516" lon="1.70046">
        <ele>1699.761</ele>
        <time>2022-09-17T13:25:26Z</time>
      </trkpt>
      <trkpt lat="42.64518" lon="1.70046">
        <ele>1699.709</ele>
        <time>2022-09-17T13:25:28Z</time>
      </trkpt>
      <trkpt lat="42.6452" lon="1.70048">
        <ele>1699.166</ele>
        <time>2022-09-17T13:25:30Z</time>
      </trkpt>
      <trkpt lat="42.64522" lon="1.70049">
        <ele>1698.266</ele>
        <time>2022-09-17T13:25:32Z</time>
      </trkpt>
      <trkpt lat="42.64524" lon="1.7005">
        <ele>1698.074</ele>
        <time>2022-09-17T13:25:34Z</time>
      </trkpt>
      <trkpt lat="42.64527" lon="1.70051">
        <ele>1698.754</ele>
        <time>2022-09-17T13:25:36Z</time>
      </trkpt>
      <trkpt lat="42.64529" lon="1.70051">
        <ele>1698.719</ele>
        <time>2022-09-17T13:25:38Z</time>
      </trkpt>
      <trkpt lat="42.64531" lon="1.70052">
        <ele>1698.288</ele>
        <time>2022-09-17T13:25:40Z</time>
      </trkpt>
      <trkpt lat="42.64533" lon="1.70053">
        <ele>1697.691</ele>
        <time>2022-09-17T13:25:42Z</time>
      </trkpt>
      <trkpt lat="42.64535" lon="1.70053">
        <ele>1696.848</ele>
        <time>2022-09-17T13:25:44Z</time>
      </trkpt>
      <trkpt lat="42.64537" lon="1.70053">
        <ele>1696.741</ele>
        <time>2022-09-17T13:25:46Z</time>
      </trkpt>
      <trkpt lat="42.6454" lon="1.70053">
        <ele>1696.16</ele>
        <time>2022-09-17T13:25:48Z</time>
      </trkpt>
      <trkpt lat="42.64542" lon="1.70052">
        <ele>1696.116</ele>
        <time>2022-09-17T13:25:50Z</time>
      </trkpt>
      <trkpt lat="42.64545" lon="1.70053">
        <ele>1696.927</ele>
        <time>2022-09-17T13:25:52Z</time>
      </trkpt>
      <trkpt lat="42.64547" lon="1.70052">
        <ele>1696.613</ele>
        <time>2022-09-17T13:25:54Z</time>
      </trkpt>
      <trkpt lat="42.64549" lon="1.70052">
        <ele>1697.451</ele>
        <time>2022-09-17T13:25:56Z</time>
      </trkpt>
      <trkpt lat="42.64552" lon="1.70053">
        <ele>1697.142</ele>
        <time>2022-09-17T13:25:58Z</time>
      </trkpt>
      <trkpt lat="42.64555" lon="1.70053">
        <ele>1697.748</ele>
        <time>2022-09-17T13:26:00Z</time>
      </trkpt>
      <trkpt lat="42.64557" lon="1.70053">
        <ele>1698.385</ele>
        <time>2022-09-17T13:26:02Z</time>
      </trkpt>
      <trkpt lat="42.64559" lon="1.70052">
        <ele>1698.431</ele>
        <time>2022-09-17T13:26:04Z</time>
      </trkpt>
      <trkpt lat="42.64562" lon="1.70052">
        <ele>1698.192</ele>
        <time>2022-09-17T13:26:06Z</time>
      </trkpt>
      <trkpt lat="42.64564" lon="1.70051">
        <ele>1697.631</ele>
        <time>2022-09-17T13:26:08Z</time>
      </trkpt>
      <trkpt lat="42.64566" lon="1.70051">
        <ele>1696.906</ele>
        <time>2022-09-17T13:26:10Z</time>
      </trkpt>
      <trkpt lat="42.64568" lon="1.70051">
        <ele>1696.801</ele>
        <time>2022-09-17T13:26:12Z</time>
      </trkpt>
      <trkpt lat="42.6457" lon="1.7005">
        <ele>1696.056</ele>
        <time>2022-09-17T13:26:14Z</time>
      </trkpt>
      <trkpt lat="42.64572" lon="1.7005">
        <ele>1696.652</ele>
        <time>2022-09-17T13:26:16Z</time>
      </trkpt>
      <trkpt lat="42.64574" lon="1.7005">
        <ele>1697.509</ele>
        <time>2022-09-17T13:26:18Z</time>
      </trkpt>
      <trkpt lat="42.64577" lon="1.70051">
        <ele>1697.32</ele>
        <time>2022-09-17T13:26:20Z</time>
      </trkpt>
      <trkpt lat="42.64579" lon="1.70051">
        <ele>1697.821</ele>
        <time>2022-09-17T13:26:22Z</time>
      </trkpt>
      <trkpt lat="42.64582" lon="1.70051">
        <ele>1698.183</ele>
        <time>2022-09-17T13:26:24Z</time>
      </trkpt>
      <trkpt lat="42.64584" lon="1.7005">
        <ele>1699.046</ele>
        <time>2022-09-17T13:26:26Z</time>
      </trkpt>
      <trkpt lat="42.64586" lon="1.7005">
        <ele>1698.958</ele>
        <time>2022-09-17T13:26:28Z</time>
      </trkpt>
      <trkpt lat="42.64588" lon="1.7005">
        <ele>1698.624</ele>
        <time>2022-09-17T13:26:30Z</time>
      </trkpt>
      <trkpt lat="42.6459" lon="1.7005">
        <ele>1698.892</ele>
        <time>2022-09-17T13:26:32Z</time>
      </trkpt>
      <trkpt lat="42.6459" lon="1.7005">
        <ele>1698.898</ele>
        <time>2022-09-17T13:26:34Z</time>
      </trkpt>
      <trkpt lat="42.6459" lon="1.7005">
        <ele>1699.083</ele>
        <time>2022-09-17T13:26:36Z</time>
      </trkpt>
      <trkpt lat="42.64591" lon="1.70051">
        <ele>1700.264</ele>
        <time>2022-09-17T13:26:38Z</time>
      </trkpt>
      <trkpt lat="42.64594" lon="1.70051">
        <ele>1699.431</ele>
        <time>2022-09-17T13:26:40Z</time>
      </trkpt>
      <trkpt lat="42.64598" lon="1.70051">
        <ele>1699.781</ele>
        <time>2022-09-17T13:26:42Z</time>
      </trkpt>
      <trkpt lat="42.646" lon="1.70051">
        <ele>1699.842</ele>
        <time>2022-09-17T13:26:44Z</time>
      </trkpt>
      <trkpt lat="42.64603" lon="1.70051">
        <ele>1700.756</ele>
        <time>2022-09-17T13:26:46Z</time>
      </trkpt>
      <trkpt lat="42.64606" lon="1.70052">
        <ele>1700.897</ele>
        <time>2022-09-17T13:26:48Z</time>
      </trkpt>
      <trkpt lat="42.64608" lon="1.70052">
        <ele>1702.131</ele>
        <time>2022-09-17T13:26:50Z</time>
      </trkpt>
      <trkpt lat="42.6461" lon="1.7005">
        <ele>1701.097</ele>
        <time>2022-09-17T13:26:52Z</time>
      </trkpt>
      <trkpt lat="42.64612" lon="1.70049">
        <ele>1701.696</ele>
        <time>2022-09-17T13:26:54Z</time>
      </trkpt>
      <trkpt lat="42.64614" lon="1.70048">
        <ele>1701.923</ele>
        <time>2022-09-17T13:26:56Z</time>
      </trkpt>
      <trkpt lat="42.64616" lon="1.70046">
        <ele>1700.692</ele>
        <time>2022-09-17T13:26:58Z</time>
      </trkpt>
      <trkpt lat="42.64616" lon="1.70043">
        <ele>1701.667</ele>
        <time>2022-09-17T13:27:00Z</time>
      </trkpt>
      <trkpt lat="42.64616" lon="1.7004">
        <ele>1701.152</ele>
        <time>2022-09-17T13:27:02Z</time>
      </trkpt>
      <trkpt lat="42.64617" lon="1.70038">
        <ele>1699.892</ele>
        <time>2022-09-17T13:27:04Z</time>
      </trkpt>
      <trkpt lat="42.6462" lon="1.70037">
        <ele>1699.263</ele>
        <time>2022-09-17T13:27:06Z</time>
      </trkpt>
      <trkpt lat="42.64621" lon="1.70036">
        <ele>1699.89</ele>
        <time>2022-09-17T13:27:08Z</time>
      </trkpt>
      <trkpt lat="42.64623" lon="1.70033">
        <ele>1699.366</ele>
        <time>2022-09-17T13:27:10Z</time>
      </trkpt>
      <trkpt lat="42.64624" lon="1.70033">
        <ele>1699.679</ele>
        <time>2022-09-17T13:27:12Z</time>
      </trkpt>
      <trkpt lat="42.64626" lon="1.70032">
        <ele>1700.67</ele>
        <time>2022-09-17T13:27:14Z</time>
      </trkpt>
      <trkpt lat="42.64627" lon="1.70031">
        <ele>1700.483</ele>
        <time>2022-09-17T13:27:16Z</time>
      </trkpt>
      <trkpt lat="42.6463" lon="1.7003">
        <ele>1699.521</ele>
        <time>2022-09-17T13:27:18Z</time>
      </trkpt>
      <trkpt lat="42.6463" lon="1.7003">
        <ele>1699.378</ele>
        <time>2022-09-17T13:27:20Z</time>
      </trkpt>
      <trkpt lat="42.64632" lon="1.70029">
        <ele>1699.221</ele>
        <time>2022-09-17T13:27:22Z</time>
      </trkpt>
      <trkpt lat="42.64634" lon="1.70029">
        <ele>1699.362</ele>
        <time>2022-09-17T13:27:24Z</time>
      </trkpt>
      <trkpt lat="42.64635" lon="1.70028">
        <ele>1698.16</ele>
        <time>2022-09-17T13:27:26Z</time>
      </trkpt>
      <trkpt lat="42.64637" lon="1.70027">
        <ele>1697.738</ele>
        <time>2022-09-17T13:27:28Z</time>
      </trkpt>
      <trkpt lat="42.64639" lon="1.70028">
        <ele>1698.612</ele>
        <time>2022-09-17T13:27:30Z</time>
      </trkpt>
      <trkpt lat="42.64641" lon="1.70029">
        <ele>1699.327</ele>
        <time>2022-09-17T13:27:32Z</time>
      </trkpt>
      <trkpt lat="42.64643" lon="1.7003">
        <ele>1699.781</ele>
        <time>2022-09-17T13:27:34Z</time>
      </trkpt>
      <trkpt lat="42.64645" lon="1.7003">
        <ele>1698.738</ele>
        <time>2022-09-17T13:27:36Z</time>
      </trkpt>
      <trkpt lat="42.64647" lon="1.70029">
        <ele>1699.267</ele>
        <time>2022-09-17T13:27:38Z</time>
      </trkpt>
      <trkpt lat="42.64649" lon="1.70029">
        <ele>1699.715</ele>
        <time>2022-09-17T13:27:40Z</time>
      </trkpt>
      <trkpt lat="42.64652" lon="1.70028">
        <ele>1700.022</ele>
        <time>2022-09-17T13:27:42Z</time>
      </trkpt>
      <trkpt lat="42.64654" lon="1.70029">
        <ele>1703.052</ele>
        <time>2022-09-17T13:27:44Z</time>
      </trkpt>
      <trkpt lat="42.64656" lon="1.70031">
        <ele>1704.028</ele>
        <time>2022-09-17T13:27:46Z</time>
      </trkpt>
      <trkpt lat="42.64657" lon="1.70032">
        <ele>1703.969</ele>
        <time>2022-09-17T13:27:48Z</time>
      </trkpt>
      <trkpt lat="42.64659" lon="1.70033">
        <ele>1704.208</ele>
        <time>2022-09-17T13:27:50Z</time>
      </trkpt>
      <trkpt lat="42.64661" lon="1.70035">
        <ele>1703.66</ele>
        <time>2022-09-17T13:27:52Z</time>
      </trkpt>
      <trkpt lat="42.64663" lon="1.70036">
        <ele>1702.794</ele>
        <time>2022-09-17T13:27:54Z</time>
      </trkpt>
      <trkpt lat="42.64664" lon="1.70037">
        <ele>1702.228</ele>
        <time>2022-09-17T13:27:56Z</time>
      </trkpt>
      <trkpt lat="42.64665" lon="1.70037">
        <ele>1702.587</ele>
        <time>2022-09-17T13:27:58Z</time>
      </trkpt>
      <trkpt lat="42.64667" lon="1.70039">
        <ele>1702.99</ele>
        <time>2022-09-17T13:28:00Z</time>
      </trkpt>
      <trkpt lat="42.64669" lon="1.7004">
        <ele>1701.633</ele>
        <time>2022-09-17T13:28:02Z</time>
      </trkpt>
      <trkpt lat="42.64671" lon="1.70041">
        <ele>1700.34</ele>
        <time>2022-09-17T13:28:04Z</time>
      </trkpt>
      <trkpt lat="42.64673" lon="1.70042">
        <ele>1699.785</ele>
        <time>2022-09-17T13:28:06Z</time>
      </trkpt>
      <trkpt lat="42.64674" lon="1.70043">
        <ele>1699.434</ele>
        <time>2022-09-17T13:28:08Z</time>
      </trkpt>
      <trkpt lat="42.64676" lon="1.70043">
        <ele>1699.396</ele>
        <time>2022-09-17T13:28:10Z</time>
      </trkpt>
      <trkpt lat="42.64678" lon="1.70044">
        <ele>1698.975</ele>
        <time>2022-09-17T13:28:12Z</time>
      </trkpt>
      <trkpt lat="42.6468" lon="1.70045">
        <ele>1698.803</ele>
        <time>2022-09-17T13:28:14Z</time>
      </trkpt>
      <trkpt lat="42.64682" lon="1.70045">
        <ele>1698.934</ele>
        <time>2022-09-17T13:28:16Z</time>
      </trkpt>
      <trkpt lat="42.64684" lon="1.70045">
        <ele>1698.433</ele>
        <time>2022-09-17T13:28:18Z</time>
      </trkpt>
      <trkpt lat="42.64686" lon="1.70045">
        <ele>1699.207</ele>
        <time>2022-09-17T13:28:20Z</time>
      </trkpt>
      <trkpt lat="42.64688" lon="1.70044">
        <ele>1698.945</ele>
        <time>2022-09-17T13:28:22Z</time>
      </trkpt>
      <trkpt lat="42.6469" lon="1.70046">
        <ele>1698.985</ele>
        <time>2022-09-17T13:28:24Z</time>
      </trkpt>
      <trkpt lat="42.64692" lon="1.70047">
        <ele>1698.734</ele>
        <time>2022-09-17T13:28:26Z</time>
      </trkpt>
      <trkpt lat="42.64694" lon="1.70048">
        <ele>1699.461</ele>
        <time>2022-09-17T13:28:28Z</time>
      </trkpt>
      <trkpt lat="42.64696" lon="1.70048">
        <ele>1699.428</ele>
        <time>2022-09-17T13:28:30Z</time>
      </trkpt>
      <trkpt lat="42.64699" lon="1.70048">
        <ele>1699.734</ele>
        <time>2022-09-17T13:28:32Z</time>
      </trkpt>
      <trkpt lat="42.64701" lon="1.70049">
        <ele>1700.178</ele>
        <time>2022-09-17T13:28:34Z</time>
      </trkpt>
      <trkpt lat="42.64703" lon="1.7005">
        <ele>1700.309</ele>
        <time>2022-09-17T13:28:36Z</time>
      </trkpt>
      <trkpt lat="42.64706" lon="1.7005">
        <ele>1700.453</ele>
        <time>2022-09-17T13:28:38Z</time>
      </trkpt>
      <trkpt lat="42.64708" lon="1.7005">
        <ele>1701.26</ele>
        <time>2022-09-17T13:28:40Z</time>
      </trkpt>
      <trkpt lat="42.64711" lon="1.70051">
        <ele>1701.438</ele>
        <time>2022-09-17T13:28:42Z</time>
      </trkpt>
      <trkpt lat="42.64714" lon="1.70051">
        <ele>1700.937</ele>
        <time>2022-09-17T13:28:44Z</time>
      </trkpt>
      <trkpt lat="42.64717" lon="1.70051">
        <ele>1699.895</ele>
        <time>2022-09-17T13:28:46Z</time>
      </trkpt>
      <trkpt lat="42.64719" lon="1.70051">
        <ele>1700.118</ele>
        <time>2022-09-17T13:28:48Z</time>
      </trkpt>
      <trkpt lat="42.64721" lon="1.70051">
        <ele>1700.319</ele>
        <time>2022-09-17T13:28:50Z</time>
      </trkpt>
      <trkpt lat="42.64723" lon="1.70052">
        <ele>1699.872</ele>
        <time>2022-09-17T13:28:52Z</time>
      </trkpt>
      <trkpt lat="42.64725" lon="1.70052">
        <ele>1700.041</ele>
        <time>2022-09-17T13:28:54Z</time>
      </trkpt>
      <trkpt lat="42.64727" lon="1.70053">
        <ele>1700.886</ele>
        <time>2022-09-17T13:28:56Z</time>
      </trkpt>
      <trkpt lat="42.64729" lon="1.70053">
        <ele>1700.403</ele>
        <time>2022-09-17T13:28:58Z</time>
      </trkpt>
      <trkpt lat="42.64732" lon="1.70054">
        <ele>1701.111</ele>
        <time>2022-09-17T13:29:00Z</time>
      </trkpt>
      <trkpt lat="42.64734" lon="1.70055">
        <ele>1700.533</ele>
        <time>2022-09-17T13:29:02Z</time>
      </trkpt>
      <trkpt lat="42.64736" lon="1.70056">
        <ele>1699.188</ele>
        <time>2022-09-17T13:29:04Z</time>
      </trkpt>
      <trkpt lat="42.64737" lon="1.70058">
        <ele>1698.397</ele>
        <time>2022-09-17T13:29:06Z</time>
      </trkpt>
      <trkpt lat="42.6474" lon="1.70059">
        <ele>1698.562</ele>
        <time>2022-09-17T13:29:08Z</time>
      </trkpt>
      <trkpt lat="42.64742" lon="1.7006">
        <ele>1698.138</ele>
        <time>2022-09-17T13:29:10Z</time>
      </trkpt>
      <trkpt lat="42.64744" lon="1.70061">
        <ele>1697.859</ele>
        <time>2022-09-17T13:29:12Z</time>
      </trkpt>
      <trkpt lat="42.64746" lon="1.70061">
        <ele>1698.313</ele>
        <time>2022-09-17T13:29:14Z</time>
      </trkpt>
      <trkpt lat="42.64748" lon="1.70062">
        <ele>1699.081</ele>
        <time>2022-09-17T13:29:16Z</time>
      </trkpt>
      <trkpt lat="42.64751" lon="1.70062">
        <ele>1699.189</ele>
        <time>2022-09-17T13:29:18Z</time>
      </trkpt>
      <trkpt lat="42.64753" lon="1.70062">
        <ele>1699.805</ele>
        <time>2022-09-17T13:29:20Z</time>
      </trkpt>
      <trkpt lat="42.64755" lon="1.70063">
        <ele>1699.599</ele>
        <time>2022-09-17T13:29:22Z</time>
      </trkpt>
      <trkpt lat="42.64757" lon="1.70063">
        <ele>1700.695</ele>
        <time>2022-09-17T13:29:24Z</time>
      </trkpt>
      <trkpt lat="42.64759" lon="1.70063">
        <ele>1700.53</ele>
        <time>2022-09-17T13:29:26Z</time>
      </trkpt>
      <trkpt lat="42.64761" lon="1.70063">
        <ele>1700.508</ele>
        <time>2022-09-17T13:29:28Z</time>
      </trkpt>
      <trkpt lat="42.64764" lon="1.70063">
        <ele>1700.54</ele>
        <time>2022-09-17T13:29:30Z</time>
      </trkpt>
      <trkpt lat="42.64766" lon="1.70063">
        <ele>1700.094</ele>
        <time>2022-09-17T13:29:32Z</time>
      </trkpt>
      <trkpt lat="42.64768" lon="1.70062">
        <ele>1700.104</ele>
        <time>2022-09-17T13:29:34Z</time>
      </trkpt>
      <trkpt lat="42.6477" lon="1.70061">
        <ele>1699.832</ele>
        <time>2022-09-17T13:29:36Z</time>
      </trkpt>
      <trkpt lat="42.64772" lon="1.70061">
        <ele>1699.344</ele>
        <time>2022-09-17T13:29:38Z</time>
      </trkpt>
      <trkpt lat="42.64774" lon="1.7006">
        <ele>1698.883</ele>
        <time>2022-09-17T13:29:40Z</time>
      </trkpt>
      <trkpt lat="42.64776" lon="1.70059">
        <ele>1698.938</ele>
        <time>2022-09-17T13:29:42Z</time>
      </trkpt>
      <trkpt lat="42.64778" lon="1.7006">
        <ele>1697.782</ele>
        <time>2022-09-17T13:29:44Z</time>
      </trkpt>
      <trkpt lat="42.6478" lon="1.70062">
        <ele>1696.607</ele>
        <time>2022-09-17T13:29:46Z</time>
      </trkpt>
      <trkpt lat="42.64782" lon="1.70063">
        <ele>1697.16</ele>
        <time>2022-09-17T13:29:48Z</time>
      </trkpt>
      <trkpt lat="42.64784" lon="1.70063">
        <ele>1697.524</ele>
        <time>2022-09-17T13:29:50Z</time>
      </trkpt>
      <trkpt lat="42.64786" lon="1.70062">
        <ele>1697.535</ele>
        <time>2022-09-17T13:29:52Z</time>
      </trkpt>
      <trkpt lat="42.64788" lon="1.70064">
        <ele>1697.781</ele>
        <time>2022-09-17T13:29:54Z</time>
      </trkpt>
      <trkpt lat="42.6479" lon="1.70067">
        <ele>1698.345</ele>
        <time>2022-09-17T13:29:56Z</time>
      </trkpt>
      <trkpt lat="42.64792" lon="1.70068">
        <ele>1699.012</ele>
        <time>2022-09-17T13:29:58Z</time>
      </trkpt>
      <trkpt lat="42.64794" lon="1.70068">
        <ele>1700.02</ele>
        <time>2022-09-17T13:30:00Z</time>
      </trkpt>
      <trkpt lat="42.64795" lon="1.70069">
        <ele>1699.81</ele>
        <time>2022-09-17T13:30:02Z</time>
      </trkpt>
      <trkpt lat="42.64797" lon="1.70069">
        <ele>1699.238</ele>
        <time>2022-09-17T13:30:04Z</time>
      </trkpt>
      <trkpt lat="42.64799" lon="1.70068">
        <ele>1699.782</ele>
        <time>2022-09-17T13:30:06Z</time>
      </trkpt>
      <trkpt lat="42.64801" lon="1.70069">
        <ele>1699.091</ele>
        <time>2022-09-17T13:30:08Z</time>
      </trkpt>
      <trkpt lat="42.64802" lon="1.70069">
        <ele>1698.372</ele>
        <time>2022-09-17T13:30:10Z</time>
      </trkpt>
      <trkpt lat="42.64804" lon="1.70069">
        <ele>1698.63</ele>
        <time>2022-09-17T13:30:12Z</time>
      </trkpt>
      <trkpt lat="42.64805" lon="1.70069">
        <ele>1698.503</ele>
        <time>2022-09-17T13:30:14Z</time>
      </trkpt>
      <trkpt lat="42.64807" lon="1.70068">
        <ele>1699.674</ele>
        <time>2022-09-17T13:30:16Z</time>
      </trkpt>
      <trkpt lat="42.64807" lon="1.70069">
        <ele>1699.313</ele>
        <time>2022-09-17T13:30:18Z</time>
      </trkpt>
      <trkpt lat="42.64809" lon="1.70068">
        <ele>1698.508</ele>
        <time>2022-09-17T13:30:20Z</time>
      </trkpt>
      <trkpt lat="42.64811" lon="1.70068">
        <ele>1698.994</ele>
        <time>2022-09-17T13:30:22Z</time>
      </trkpt>
      <trkpt lat="42.64813" lon="1.70069">
        <ele>1698.566</ele>
        <time>2022-09-17T13:30:24Z</time>
      </trkpt>
      <trkpt lat="42.64814" lon="1.70069">
        <ele>1698.667</ele>
        <time>2022-09-17T13:30:26Z</time>
      </trkpt>
      <trkpt lat="42.64815" lon="1.7007">
        <ele>1698.933</ele>
        <time>2022-09-17T13:30:28Z</time>
      </trkpt>
      <trkpt lat="42.64817" lon="1.7007">
        <ele>1698.579</ele>
        <time>2022-09-17T13:30:30Z</time>
      </trkpt>
      <trkpt lat="42.64818" lon="1.70071">
        <ele>1698.666</ele>
        <time>2022-09-17T13:30:32Z</time>
      </trkpt>
      <trkpt lat="42.64819" lon="1.70071">
        <ele>1699.7</ele>
        <time>2022-09-17T13:30:34Z</time>
      </trkpt>
      <trkpt lat="42.6482" lon="1.70071">
        <ele>1699.157</ele>
        <time>2022-09-17T13:30:36Z</time>
      </trkpt>
      <trkpt lat="42.6482" lon="1.70071">
        <ele>1699.181</ele>
        <time>2022-09-17T13:30:38Z</time>
      </trkpt>
      <trkpt lat="42.64821" lon="1.70071">
        <ele>1697.643</ele>
        <time>2022-09-17T13:30:40Z</time>
      </trkpt>
      <trkpt lat="42.64822" lon="1.70073">
        <ele>1698.309</ele>
        <time>2022-09-17T13:30:42Z</time>
      </trkpt>
      <trkpt lat="42.64823" lon="1.70074">
        <ele>1697.881</ele>
        <time>2022-09-17T13:30:44Z</time>
      </trkpt>
      <trkpt lat="42.64824" lon="1.70075">
        <ele>1697.661</ele>
        <time>2022-09-17T13:30:46Z</time>
      </trkpt>
      <trkpt lat="42.64824" lon="1.70075">
        <ele>1697.202</ele>
        <time>2022-09-17T13:30:48Z</time>
      </trkpt>
      <trkpt lat="42.64825" lon="1.70077">
        <ele>1697.331</ele>
        <time>2022-09-17T13:30:50Z</time>
      </trkpt>
      <trkpt lat="42.64826" lon="1.70078">
        <ele>1699.212</ele>
        <time>2022-09-17T13:30:52Z</time>
      </trkpt>
      <trkpt lat="42.64827" lon="1.70078">
        <ele>1699.37</ele>
        <time>2022-09-17T13:30:54Z</time>
      </trkpt>
      <trkpt lat="42.64828" lon="1.70078">
        <ele>1698.745</ele>
        <time>2022-09-17T13:30:56Z</time>
      </trkpt>
      <trkpt lat="42.6483" lon="1.70077">
        <ele>1699.657</ele>
        <time>2022-09-17T13:30:58Z</time>
      </trkpt>
      <trkpt lat="42.64831" lon="1.70078">
        <ele>1699.928</ele>
        <time>2022-09-17T13:31:00Z</time>
      </trkpt>
      <trkpt lat="42.64832" lon="1.70079">
        <ele>1700.764</ele>
        <time>2022-09-17T13:31:02Z</time>
      </trkpt>
      <trkpt lat="42.64833" lon="1.70081">
        <ele>1700.229</ele>
        <time>2022-09-17T13:31:04Z</time>
      </trkpt>
      <trkpt lat="42.64832" lon="1.70082">
        <ele>1699.081</ele>
        <time>2022-09-17T13:31:06Z</time>
      </trkpt>
      <trkpt lat="42.64834" lon="1.70083">
        <ele>1698.454</ele>
        <time>2022-09-17T13:31:08Z</time>
      </trkpt>
      <trkpt lat="42.64835" lon="1.70084">
        <ele>1697.423</ele>
        <time>2022-09-17T13:31:10Z</time>
      </trkpt>
      <trkpt lat="42.64836" lon="1.70086">
        <ele>1698.428</ele>
        <time>2022-09-17T13:31:12Z</time>
      </trkpt>
      <trkpt lat="42.64836" lon="1.70088">
        <ele>1697.632</ele>
        <time>2022-09-17T13:31:14Z</time>
      </trkpt>
      <trkpt lat="42.64837" lon="1.7009">
        <ele>1697.122</ele>
        <time>2022-09-17T13:31:16Z</time>
      </trkpt>
      <trkpt lat="42.64839" lon="1.70091">
        <ele>1697.547</ele>
        <time>2022-09-17T13:31:18Z</time>
      </trkpt>
      <trkpt lat="42.64843" lon="1.70092">
        <ele>1698.607</ele>
        <time>2022-09-17T13:31:20Z</time>
      </trkpt>
      <trkpt lat="42.64844" lon="1.70093">
        <ele>1697.491</ele>
        <time>2022-09-17T13:31:22Z</time>
      </trkpt>
      <trkpt lat="42.64845" lon="1.70094">
        <ele>1697.87</ele>
        <time>2022-09-17T13:31:24Z</time>
      </trkpt>
      <trkpt lat="42.64846" lon="1.70095">
        <ele>1697.513</ele>
        <time>2022-09-17T13:31:26Z</time>
      </trkpt>
      <trkpt lat="42.64847" lon="1.70097">
        <ele>1697.569</ele>
        <time>2022-09-17T13:31:28Z</time>
      </trkpt>
      <trkpt lat="42.64847" lon="1.70099">
        <ele>1697.892</ele>
        <time>2022-09-17T13:31:30Z</time>
      </trkpt>
      <trkpt lat="42.64848" lon="1.70101">
        <ele>1697.428</ele>
        <time>2022-09-17T13:31:32Z</time>
      </trkpt>
      <trkpt lat="42.64849" lon="1.70103">
        <ele>1697.496</ele>
        <time>2022-09-17T13:31:34Z</time>
      </trkpt>
      <trkpt lat="42.6485" lon="1.70104">
        <ele>1697.284</ele>
        <time>2022-09-17T13:31:36Z</time>
      </trkpt>
      <trkpt lat="42.6485" lon="1.70107">
        <ele>1697.719</ele>
        <time>2022-09-17T13:31:38Z</time>
      </trkpt>
      <trkpt lat="42.64851" lon="1.70108">
        <ele>1698.295</ele>
        <time>2022-09-17T13:31:40Z</time>
      </trkpt>
      <trkpt lat="42.64852" lon="1.7011">
        <ele>1697.329</ele>
        <time>2022-09-17T13:31:42Z</time>
      </trkpt>
      <trkpt lat="42.64853" lon="1.70112">
        <ele>1697.411</ele>
        <time>2022-09-17T13:31:44Z</time>
      </trkpt>
      <trkpt lat="42.64853" lon="1.70115">
        <ele>1696.771</ele>
        <time>2022-09-17T13:31:46Z</time>
      </trkpt>
      <trkpt lat="42.64854" lon="1.70117">
        <ele>1696.177</ele>
        <time>2022-09-17T13:31:48Z</time>
      </trkpt>
      <trkpt lat="42.64855" lon="1.7012">
        <ele>1695</ele>
        <time>2022-09-17T13:31:50Z</time>
      </trkpt>
      <trkpt lat="42.64856" lon="1.70122">
        <ele>1694.269</ele>
        <time>2022-09-17T13:31:52Z</time>
      </trkpt>
      <trkpt lat="42.64857" lon="1.70125">
        <ele>1693.176</ele>
        <time>2022-09-17T13:31:54Z</time>
      </trkpt>
      <trkpt lat="42.64857" lon="1.70128">
        <ele>1692.509</ele>
        <time>2022-09-17T13:31:56Z</time>
      </trkpt>
      <trkpt lat="42.64858" lon="1.70131">
        <ele>1692.104</ele>
        <time>2022-09-17T13:31:58Z</time>
      </trkpt>
      <trkpt lat="42.64858" lon="1.70134">
        <ele>1692.561</ele>
        <time>2022-09-17T13:32:00Z</time>
      </trkpt>
      <trkpt lat="42.64859" lon="1.70137">
        <ele>1692.809</ele>
        <time>2022-09-17T13:32:02Z</time>
      </trkpt>
      <trkpt lat="42.6486" lon="1.70141">
        <ele>1691.553</ele>
        <time>2022-09-17T13:32:04Z</time>
      </trkpt>
      <trkpt lat="42.64862" lon="1.70144">
        <ele>1690.532</ele>
        <time>2022-09-17T13:32:06Z</time>
      </trkpt>
      <trkpt lat="42.64863" lon="1.70146">
        <ele>1690.054</ele>
        <time>2022-09-17T13:32:08Z</time>
      </trkpt>
      <trkpt lat="42.64863" lon="1.70149">
        <ele>1690.109</ele>
        <time>2022-09-17T13:32:10Z</time>
      </trkpt>
      <trkpt lat="42.64864" lon="1.70152">
        <ele>1689.519</ele>
        <time>2022-09-17T13:32:12Z</time>
      </trkpt>
      <trkpt lat="42.64865" lon="1.70155">
        <ele>1689.378</ele>
        <time>2022-09-17T13:32:14Z</time>
      </trkpt>
      <trkpt lat="42.64865" lon="1.70159">
        <ele>1689.356</ele>
        <time>2022-09-17T13:32:16Z</time>
      </trkpt>
      <trkpt lat="42.64865" lon="1.70163">
        <ele>1690.314</ele>
        <time>2022-09-17T13:32:18Z</time>
      </trkpt>
      <trkpt lat="42.64866" lon="1.70166">
        <ele>1690.719</ele>
        <time>2022-09-17T13:32:20Z</time>
      </trkpt>
      <trkpt lat="42.64867" lon="1.70169">
        <ele>1689.913</ele>
        <time>2022-09-17T13:32:22Z</time>
      </trkpt>
      <trkpt lat="42.64868" lon="1.70172">
        <ele>1690.198</ele>
        <time>2022-09-17T13:32:24Z</time>
      </trkpt>
      <trkpt lat="42.6487" lon="1.70175">
        <ele>1689.544</ele>
        <time>2022-09-17T13:32:26Z</time>
      </trkpt>
      <trkpt lat="42.64871" lon="1.70178">
        <ele>1689.526</ele>
        <time>2022-09-17T13:32:28Z</time>
      </trkpt>
      <trkpt lat="42.64872" lon="1.70181">
        <ele>1688.53</ele>
        <time>2022-09-17T13:32:30Z</time>
      </trkpt>
      <trkpt lat="42.64873" lon="1.70184">
        <ele>1688.193</ele>
        <time>2022-09-17T13:32:32Z</time>
      </trkpt>
      <trkpt lat="42.64875" lon="1.70186">
        <ele>1687.617</ele>
        <time>2022-09-17T13:32:34Z</time>
      </trkpt>
      <trkpt lat="42.64877" lon="1.70188">
        <ele>1687.657</ele>
        <time>2022-09-17T13:32:36Z</time>
      </trkpt>
      <trkpt lat="42.64878" lon="1.7019">
        <ele>1687.808</ele>
        <time>2022-09-17T13:32:38Z</time>
      </trkpt>
      <trkpt lat="42.6488" lon="1.70192">
        <ele>1688.17</ele>
        <time>2022-09-17T13:32:40Z</time>
      </trkpt>
      <trkpt lat="42.64882" lon="1.70194">
        <ele>1688.006</ele>
        <time>2022-09-17T13:32:42Z</time>
      </trkpt>
      <trkpt lat="42.64883" lon="1.70197">
        <ele>1688.169</ele>
        <time>2022-09-17T13:32:44Z</time>
      </trkpt>
      <trkpt lat="42.64884" lon="1.702">
        <ele>1687.644</ele>
        <time>2022-09-17T13:32:46Z</time>
      </trkpt>
      <trkpt lat="42.64885" lon="1.70203">
        <ele>1686.896</ele>
        <time>2022-09-17T13:32:48Z</time>
      </trkpt>
      <trkpt lat="42.64887" lon="1.70206">
        <ele>1686.611</ele>
        <time>2022-09-17T13:32:50Z</time>
      </trkpt>
      <trkpt lat="42.64888" lon="1.7021">
        <ele>1686.997</ele>
        <time>2022-09-17T13:32:52Z</time>
      </trkpt>
      <trkpt lat="42.6489" lon="1.70213">
        <ele>1688.252</ele>
        <time>2022-09-17T13:32:54Z</time>
      </trkpt>
      <trkpt lat="42.64891" lon="1.70216">
        <ele>1688.172</ele>
        <time>2022-09-17T13:32:56Z</time>
      </trkpt>
      <trkpt lat="42.64892" lon="1.70218">
        <ele>1688.034</ele>
        <time>2022-09-17T13:32:58Z</time>
      </trkpt>
      <trkpt lat="42.64893" lon="1.7022">
        <ele>1687.648</ele>
        <time>2022-09-17T13:33:00Z</time>
      </trkpt>
      <trkpt lat="42.64895" lon="1.70222">
        <ele>1686.654</ele>
        <time>2022-09-17T13:33:02Z</time>
      </trkpt>
      <trkpt lat="42.64896" lon="1.70225">
        <ele>1686.345</ele>
        <time>2022-09-17T13:33:04Z</time>
      </trkpt>
      <trkpt lat="42.64898" lon="1.70228">
        <ele>1686.738</ele>
        <time>2022-09-17T13:33:06Z</time>
      </trkpt>
      <trkpt lat="42.64899" lon="1.70231">
        <ele>1686.146</ele>
        <time>2022-09-17T13:33:08Z</time>
      </trkpt>
      <trkpt lat="42.64901" lon="1.70233">
        <ele>1685.227</ele>
        <time>2022-09-17T13:33:10Z</time>
      </trkpt>
      <trkpt lat="42.64903" lon="1.70235">
        <ele>1685.985</ele>
        <time>2022-09-17T13:33:12Z</time>
      </trkpt>
      <trkpt lat="42.64904" lon="1.70238">
        <ele>1686.831</ele>
        <time>2022-09-17T13:33:14Z</time>
      </trkpt>
      <trkpt lat="42.64906" lon="1.70241">
        <ele>1686.851</ele>
        <time>2022-09-17T13:33:16Z</time>
      </trkpt>
      <trkpt lat="42.64907" lon="1.70243">
        <ele>1686.817</ele>
        <time>2022-09-17T13:33:18Z</time>
      </trkpt>
      <trkpt lat="42.64909" lon="1.70246">
        <ele>1688.439</ele>
        <time>2022-09-17T13:33:20Z</time>
      </trkpt>
      <trkpt lat="42.64911" lon="1.70248">
        <ele>1688.669</ele>
        <time>2022-09-17T13:33:22Z</time>
      </trkpt>
      <trkpt lat="42.64913" lon="1.70251">
        <ele>1688.423</ele>
        <time>2022-09-17T13:33:24Z</time>
      </trkpt>
      <trkpt lat="42.64914" lon="1.70253">
        <ele>1688.096</ele>
        <time>2022-09-17T13:33:26Z</time>
      </trkpt>
      <trkpt lat="42.64916" lon="1.70256">
        <ele>1688.852</ele>
        <time>2022-09-17T13:33:28Z</time>
      </trkpt>
      <trkpt lat="42.64918" lon="1.70258">
        <ele>1689.242</ele>
        <time>2022-09-17T13:33:30Z</time>
      </trkpt>
      <trkpt lat="42.6492" lon="1.7026">
        <ele>1689.289</ele>
        <time>2022-09-17T13:33:32Z</time>
      </trkpt>
      <trkpt lat="42.64921" lon="1.70263">
        <ele>1689.481</ele>
        <time>2022-09-17T13:33:34Z</time>
      </trkpt>
      <trkpt lat="42.64923" lon="1.70266">
        <ele>1688.529</ele>
        <time>2022-09-17T13:33:36Z</time>
      </trkpt>
      <trkpt lat="42.64925" lon="1.70268">
        <ele>1687.858</ele>
        <time>2022-09-17T13:33:38Z</time>
      </trkpt>
      <trkpt lat="42.64926" lon="1.70271">
        <ele>1686.279</ele>
        <time>2022-09-17T13:33:40Z</time>
      </trkpt>
      <trkpt lat="42.64928" lon="1.70273">
        <ele>1686.806</ele>
        <time>2022-09-17T13:33:42Z</time>
      </trkpt>
      <trkpt lat="42.6493" lon="1.70275">
        <ele>1686.883</ele>
        <time>2022-09-17T13:33:44Z</time>
      </trkpt>
      <trkpt lat="42.64931" lon="1.70278">
        <ele>1686.743</ele>
        <time>2022-09-17T13:33:46Z</time>
      </trkpt>
      <trkpt lat="42.64933" lon="1.70281">
        <ele>1687.002</ele>
        <time>2022-09-17T13:33:48Z</time>
      </trkpt>
      <trkpt lat="42.64935" lon="1.70283">
        <ele>1687.324</ele>
        <time>2022-09-17T13:33:50Z</time>
      </trkpt>
      <trkpt lat="42.64937" lon="1.70284">
        <ele>1688.104</ele>
        <time>2022-09-17T13:33:52Z</time>
      </trkpt>
      <trkpt lat="42.64938" lon="1.70283">
        <ele>1686.762</ele>
        <time>2022-09-17T13:33:54Z</time>
      </trkpt>
      <trkpt lat="42.64941" lon="1.70284">
        <ele>1687.371</ele>
        <time>2022-09-17T13:33:56Z</time>
      </trkpt>
      <trkpt lat="42.64942" lon="1.70286">
        <ele>1687.228</ele>
        <time>2022-09-17T13:33:58Z</time>
      </trkpt>
      <trkpt lat="42.64944" lon="1.70288">
        <ele>1687.906</ele>
        <time>2022-09-17T13:34:00Z</time>
      </trkpt>
      <trkpt lat="42.64946" lon="1.7029">
        <ele>1686.146</ele>
        <time>2022-09-17T13:34:02Z</time>
      </trkpt>
      <trkpt lat="42.64948" lon="1.70291">
        <ele>1686.216</ele>
        <time>2022-09-17T13:34:04Z</time>
      </trkpt>
      <trkpt lat="42.6495" lon="1.70291">
        <ele>1685.832</ele>
        <time>2022-09-17T13:34:06Z</time>
      </trkpt>
      <trkpt lat="42.64952" lon="1.70293">
        <ele>1686.554</ele>
        <time>2022-09-17T13:34:08Z</time>
      </trkpt>
      <trkpt lat="42.64954" lon="1.70294">
        <ele>1686.104</ele>
        <time>2022-09-17T13:34:10Z</time>
      </trkpt>
      <trkpt lat="42.64956" lon="1.70295">
        <ele>1686.437</ele>
        <time>2022-09-17T13:34:12Z</time>
      </trkpt>
      <trkpt lat="42.64958" lon="1.70297">
        <ele>1687.016</ele>
        <time>2022-09-17T13:34:14Z</time>
      </trkpt>
      <trkpt lat="42.6496" lon="1.70298">
        <ele>1685.275</ele>
        <time>2022-09-17T13:34:16Z</time>
      </trkpt>
      <trkpt lat="42.64959" lon="1.70302">
        <ele>1687.458</ele>
        <time>2022-09-17T13:34:18Z</time>
      </trkpt>
      <trkpt lat="42.64958" lon="1.70305">
        <ele>1687.631</ele>
        <time>2022-09-17T13:34:20Z</time>
      </trkpt>
      <trkpt lat="42.64957" lon="1.70307">
        <ele>1688.076</ele>
        <time>2022-09-17T13:34:22Z</time>
      </trkpt>
      <trkpt lat="42.64957" lon="1.70309">
        <ele>1687.336</ele>
        <time>2022-09-17T13:34:24Z</time>
      </trkpt>
      <trkpt lat="42.64955" lon="1.70312">
        <ele>1686.822</ele>
        <time>2022-09-17T13:34:26Z</time>
      </trkpt>
      <trkpt lat="42.64954" lon="1.70314">
        <ele>1688.426</ele>
        <time>2022-09-17T13:34:28Z</time>
      </trkpt>
      <trkpt lat="42.64953" lon="1.70316">
        <ele>1687.578</ele>
        <time>2022-09-17T13:34:30Z</time>
      </trkpt>
      <trkpt lat="42.64951" lon="1.70317">
        <ele>1687.737</ele>
        <time>2022-09-17T13:34:32Z</time>
      </trkpt>
      <trkpt lat="42.6495" lon="1.70319">
        <ele>1688.533</ele>
        <time>2022-09-17T13:34:34Z</time>
      </trkpt>
      <trkpt lat="42.64949" lon="1.70321">
        <ele>1688.783</ele>
        <time>2022-09-17T13:34:36Z</time>
      </trkpt>
      <trkpt lat="42.64948" lon="1.70324">
        <ele>1688.456</ele>
        <time>2022-09-17T13:34:38Z</time>
      </trkpt>
      <trkpt lat="42.64947" lon="1.70326">
        <ele>1688.911</ele>
        <time>2022-09-17T13:34:40Z</time>
      </trkpt>
      <trkpt lat="42.64946" lon="1.70328">
        <ele>1689.613</ele>
        <time>2022-09-17T13:34:42Z</time>
      </trkpt>
      <trkpt lat="42.64945" lon="1.7033">
        <ele>1690.723</ele>
        <time>2022-09-17T13:34:44Z</time>
      </trkpt>
      <trkpt lat="42.64944" lon="1.70332">
        <ele>1691.476</ele>
        <time>2022-09-17T13:34:46Z</time>
      </trkpt>
      <trkpt lat="42.64943" lon="1.70334">
        <ele>1692.633</ele>
        <time>2022-09-17T13:34:48Z</time>
      </trkpt>
      <trkpt lat="42.64943" lon="1.70337">
        <ele>1693.529</ele>
        <time>2022-09-17T13:34:50Z</time>
      </trkpt>
      <trkpt lat="42.64942" lon="1.70339">
        <ele>1694.246</ele>
        <time>2022-09-17T13:34:52Z</time>
      </trkpt>
      <trkpt lat="42.6494" lon="1.70341">
        <ele>1693.86</ele>
        <time>2022-09-17T13:34:54Z</time>
      </trkpt>
      <trkpt lat="42.6494" lon="1.70343">
        <ele>1694.751</ele>
        <time>2022-09-17T13:34:56Z</time>
      </trkpt>
      <trkpt lat="42.64939" lon="1.70343">
        <ele>1694.194</ele>
        <time>2022-09-17T13:34:58Z</time>
      </trkpt>
      <trkpt lat="42.64938" lon="1.70344">
        <ele>1694.302</ele>
        <time>2022-09-17T13:35:00Z</time>
      </trkpt>
      <trkpt lat="42.64937" lon="1.70345">
        <ele>1692.686</ele>
        <time>2022-09-17T13:35:02Z</time>
      </trkpt>
      <trkpt lat="42.64934" lon="1.70346">
        <ele>1692.627</ele>
        <time>2022-09-17T13:35:04Z</time>
      </trkpt>
      <trkpt lat="42.64933" lon="1.70347">
        <ele>1692.751</ele>
        <time>2022-09-17T13:35:06Z</time>
      </trkpt>
      <trkpt lat="42.64931" lon="1.70349">
        <ele>1692.464</ele>
        <time>2022-09-17T13:35:08Z</time>
      </trkpt>
      <trkpt lat="42.6493" lon="1.70351">
        <ele>1693.012</ele>
        <time>2022-09-17T13:35:10Z</time>
      </trkpt>
      <trkpt lat="42.6493" lon="1.70353">
        <ele>1693.317</ele>
        <time>2022-09-17T13:35:12Z</time>
      </trkpt>
      <trkpt lat="42.64929" lon="1.70356">
        <ele>1693.053</ele>
        <time>2022-09-17T13:35:14Z</time>
      </trkpt>
      <trkpt lat="42.6493" lon="1.70359">
        <ele>1691.851</ele>
        <time>2022-09-17T13:35:16Z</time>
      </trkpt>
      <trkpt lat="42.6493" lon="1.70361">
        <ele>1693.179</ele>
        <time>2022-09-17T13:35:18Z</time>
      </trkpt>
      <trkpt lat="42.64929" lon="1.70363">
        <ele>1693.878</ele>
        <time>2022-09-17T13:35:20Z</time>
      </trkpt>
      <trkpt lat="42.64928" lon="1.70366">
        <ele>1694.969</ele>
        <time>2022-09-17T13:35:22Z</time>
      </trkpt>
      <trkpt lat="42.64927" lon="1.70368">
        <ele>1695.037</ele>
        <time>2022-09-17T13:35:24Z</time>
      </trkpt>
      <trkpt lat="42.64927" lon="1.70371">
        <ele>1694.572</ele>
        <time>2022-09-17T13:35:26Z</time>
      </trkpt>
      <trkpt lat="42.64927" lon="1.70372">
        <ele>1694.781</ele>
        <time>2022-09-17T13:35:28Z</time>
      </trkpt>
      <trkpt lat="42.64927" lon="1.70375">
        <ele>1695.45</ele>
        <time>2022-09-17T13:35:30Z</time>
      </trkpt>
      <trkpt lat="42.64927" lon="1.70376">
        <ele>1697.398</ele>
        <time>2022-09-17T13:35:32Z</time>
      </trkpt>
      <trkpt lat="42.64927" lon="1.70378">
        <ele>1698.235</ele>
        <time>2022-09-17T13:35:34Z</time>
      </trkpt>
      <trkpt lat="42.64927" lon="1.70379">
        <ele>1700.164</ele>
        <time>2022-09-17T13:35:36Z</time>
      </trkpt>
      <trkpt lat="42.64927" lon="1.70382">
        <ele>1699.563</ele>
        <time>2022-09-17T13:35:38Z</time>
      </trkpt>
      <trkpt lat="42.64927" lon="1.70384">
        <ele>1699.926</ele>
        <time>2022-09-17T13:35:40Z</time>
      </trkpt>
      <trkpt lat="42.64927" lon="1.70387">
        <ele>1700.44</ele>
        <time>2022-09-17T13:35:42Z</time>
      </trkpt>
      <trkpt lat="42.64928" lon="1.7039">
        <ele>1699.754</ele>
        <time>2022-09-17T13:35:44Z</time>
      </trkpt>
      <trkpt lat="42.64928" lon="1.70392">
        <ele>1700.048</ele>
        <time>2022-09-17T13:35:46Z</time>
      </trkpt>
      <trkpt lat="42.64928" lon="1.70393">
        <ele>1699.637</ele>
        <time>2022-09-17T13:35:48Z</time>
      </trkpt>
      <trkpt lat="42.64929" lon="1.70394">
        <ele>1700.717</ele>
        <time>2022-09-17T13:35:50Z</time>
      </trkpt>
      <trkpt lat="42.64929" lon="1.70395">
        <ele>1701.467</ele>
        <time>2022-09-17T13:35:52Z</time>
      </trkpt>
      <trkpt lat="42.64929" lon="1.70395">
        <ele>1701.464</ele>
        <time>2022-09-17T13:35:54Z</time>
      </trkpt>
      <trkpt lat="42.64929" lon="1.70395">
        <ele>1701.472</ele>
        <time>2022-09-17T13:35:56Z</time>
      </trkpt>
      <trkpt lat="42.6493" lon="1.70394">
        <ele>1702.883</ele>
        <time>2022-09-17T13:35:58Z</time>
      </trkpt>
      <trkpt lat="42.64931" lon="1.70395">
        <ele>1702.002</ele>
        <time>2022-09-17T13:36:00Z</time>
      </trkpt>
      <trkpt lat="42.64931" lon="1.70395">
        <ele>1702.006</ele>
        <time>2022-09-17T13:36:02Z</time>
      </trkpt>
      <trkpt lat="42.64931" lon="1.70395">
        <ele>1701.989</ele>
        <time>2022-09-17T13:36:04Z</time>
      </trkpt>
      <trkpt lat="42.64931" lon="1.70395">
        <ele>1701.983</ele>
        <time>2022-09-17T13:36:06Z</time>
      </trkpt>
      <trkpt lat="42.64931" lon="1.70395">
        <ele>1701.98</ele>
        <time>2022-09-17T13:36:08Z</time>
      </trkpt>
      <trkpt lat="42.64931" lon="1.70395">
        <ele>1701.971</ele>
        <time>2022-09-17T13:36:10Z</time>
      </trkpt>
      <trkpt lat="42.64931" lon="1.70394">
        <ele>1701.73</ele>
        <time>2022-09-17T13:36:12Z</time>
      </trkpt>
      <trkpt lat="42.6493" lon="1.70393">
        <ele>1701.524</ele>
        <time>2022-09-17T13:36:14Z</time>
      </trkpt>
      <trkpt lat="42.6493" lon="1.70392">
        <ele>1701.591</ele>
        <time>2022-09-17T13:36:16Z</time>
      </trkpt>
      <trkpt lat="42.64929" lon="1.70393">
        <ele>1702.304</ele>
        <time>2022-09-17T13:36:18Z</time>
      </trkpt>
      <trkpt lat="42.64929" lon="1.70393">
        <ele>1702.564</ele>
        <time>2022-09-17T13:36:20Z</time>
      </trkpt>
      <trkpt lat="42.64929" lon="1.70393">
        <ele>1702.577</ele>
        <time>2022-09-17T13:36:22Z</time>
      </trkpt>
      <trkpt lat="42.64929" lon="1.70393">
        <ele>1703.075</ele>
        <time>2022-09-17T13:36:24Z</time>
      </trkpt>
      <trkpt lat="42.6493" lon="1.70393">
        <ele>1703.46</ele>
        <time>2022-09-17T13:36:26Z</time>
      </trkpt>
      <trkpt lat="42.6493" lon="1.70392">
        <ele>1703.682</ele>
        <time>2022-09-17T13:36:28Z</time>
      </trkpt>
      <trkpt lat="42.6493" lon="1.70392">
        <ele>1703.689</ele>
        <time>2022-09-17T13:36:30Z</time>
      </trkpt>
      <trkpt lat="42.6493" lon="1.70392">
        <ele>1703.692</ele>
        <time>2022-09-17T13:36:32Z</time>
      </trkpt>
      <trkpt lat="42.64928" lon="1.70393">
        <ele>1702.834</ele>
        <time>2022-09-17T13:36:34Z</time>
      </trkpt>
      <trkpt lat="42.64928" lon="1.70393">
        <ele>1702.908</ele>
        <time>2022-09-17T13:36:36Z</time>
      </trkpt>
      <trkpt lat="42.64927" lon="1.70394">
        <ele>1702.913</ele>
        <time>2022-09-17T13:36:38Z</time>
      </trkpt>
    </trkseg>
  </trk>
</gpx>